<?xml version='1.0' encoding='UTF-8'?>
<gpx version="1.1" creator="https://www.komoot.de" xmlns="http://www.topografix.com/GPX/1/1" xmlns:xsi="http://www.w3.org/2001/XMLSchema-instance" xsi:schemaLocation="http://www.topografix.com/GPX/1/1 http://www.topografix.com/GPX/1/1/gpx.xsd">
  <metadata>
    <name>Rheinradweg</name>
    <author>
      <link href="https://www.komoot.de">
        <text>komoot</text>
        <type>text/html</type>
      </link>
    </author>
  </metadata>
  <trk>
    <name>Rheinradweg</name>
    <trkseg>
      <trkpt lat="46.634714" lon="8.596363">
        <ele>1455.521789</ele>
        <time>2022-01-06T19:58:05.184Z</time>
      </trkpt>
      <trkpt lat="46.634766" lon="8.596468">
        <ele>1455.521789</ele>
        <time>2022-01-06T19:58:06.722Z</time>
      </trkpt>
      <trkpt lat="46.634827" lon="8.596452">
        <ele>1455.521789</ele>
        <time>2022-01-06T19:58:08.038Z</time>
      </trkpt>
      <trkpt lat="46.634964" lon="8.596666">
        <ele>1455.521789</ele>
        <time>2022-01-06T19:58:17.218Z</time>
      </trkpt>
      <trkpt lat="46.635061" lon="8.596714">
        <ele>1455.521789</ele>
        <time>2022-01-06T19:58:19.066Z</time>
      </trkpt>
      <trkpt lat="46.635450" lon="8.596739">
        <ele>1455.521789</ele>
        <time>2022-01-06T19:58:31.743Z</time>
      </trkpt>
      <trkpt lat="46.635531" lon="8.596909">
        <ele>1455.735538</ele>
        <time>2022-01-06T19:58:37.698Z</time>
      </trkpt>
      <trkpt lat="46.635514" lon="8.597041">
        <ele>1455.963786</ele>
        <time>2022-01-06T19:58:42.299Z</time>
      </trkpt>
      <trkpt lat="46.635402" lon="8.597142">
        <ele>1456.289843</ele>
        <time>2022-01-06T19:58:44.667Z</time>
      </trkpt>
      <trkpt lat="46.634895" lon="8.596875">
        <ele>1457.624260</ele>
        <time>2022-01-06T19:59:05.237Z</time>
      </trkpt>
      <trkpt lat="46.634739" lon="8.596906">
        <ele>1458.013959</ele>
        <time>2022-01-06T19:59:08.955Z</time>
      </trkpt>
      <trkpt lat="46.634574" lon="8.597036">
        <ele>1458.478291</ele>
        <time>2022-01-06T19:59:15.292Z</time>
      </trkpt>
      <trkpt lat="46.634440" lon="8.597257">
        <ele>1458.979369</ele>
        <time>2022-01-06T19:59:19.910Z</time>
      </trkpt>
      <trkpt lat="46.634387" lon="8.597560">
        <ele>1459.510780</ele>
        <time>2022-01-06T19:59:27.803Z</time>
      </trkpt>
      <trkpt lat="46.634362" lon="8.597902">
        <ele>1460.177408</ele>
        <time>2022-01-06T19:59:32.520Z</time>
      </trkpt>
      <trkpt lat="46.634428" lon="8.598352">
        <ele>1461.487284</ele>
        <time>2022-01-06T19:59:42.808Z</time>
      </trkpt>
      <trkpt lat="46.634684" lon="8.598973">
        <ele>1463.549143</ele>
        <time>2022-01-06T20:00:02.405Z</time>
      </trkpt>
      <trkpt lat="46.635224" lon="8.599486">
        <ele>1466.221980</ele>
        <time>2022-01-06T20:00:28.272Z</time>
      </trkpt>
      <trkpt lat="46.635528" lon="8.599835">
        <ele>1468.336110</ele>
        <time>2022-01-06T20:00:44.964Z</time>
      </trkpt>
      <trkpt lat="46.635599" lon="8.600240">
        <ele>1471.054480</ele>
        <time>2022-01-06T20:00:59.046Z</time>
      </trkpt>
      <trkpt lat="46.635559" lon="8.600596">
        <ele>1473.400484</ele>
        <time>2022-01-06T20:01:12.714Z</time>
      </trkpt>
      <trkpt lat="46.635353" lon="8.601238">
        <ele>1478.009071</ele>
        <time>2022-01-06T20:01:45.624Z</time>
      </trkpt>
      <trkpt lat="46.635312" lon="8.601502">
        <ele>1479.769345</ele>
        <time>2022-01-06T20:01:57.700Z</time>
      </trkpt>
      <trkpt lat="46.635323" lon="8.601722">
        <ele>1481.203889</ele>
        <time>2022-01-06T20:02:09.513Z</time>
      </trkpt>
      <trkpt lat="46.635414" lon="8.602019">
        <ele>1483.318985</ele>
        <time>2022-01-06T20:02:23.719Z</time>
      </trkpt>
      <trkpt lat="46.635634" lon="8.602264">
        <ele>1486.161242</ele>
        <time>2022-01-06T20:02:42.933Z</time>
      </trkpt>
      <trkpt lat="46.635935" lon="8.602340">
        <ele>1489.484265</ele>
        <time>2022-01-06T20:03:02.551Z</time>
      </trkpt>
      <trkpt lat="46.636107" lon="8.602263">
        <ele>1491.441621</ele>
        <time>2022-01-06T20:03:11.124Z</time>
      </trkpt>
      <trkpt lat="46.636271" lon="8.602092">
        <ele>1493.635623</ele>
        <time>2022-01-06T20:03:25.467Z</time>
      </trkpt>
      <trkpt lat="46.636276" lon="8.602080">
        <ele>1493.740461</ele>
        <time>2022-01-06T20:03:25.843Z</time>
      </trkpt>
      <trkpt lat="46.636502" lon="8.601537">
        <ele>1498.482981</ele>
        <time>2022-01-06T20:03:55.563Z</time>
      </trkpt>
      <trkpt lat="46.636595" lon="8.600963">
        <ele>1502.887853</ele>
        <time>2022-01-06T20:04:25.533Z</time>
      </trkpt>
      <trkpt lat="46.636683" lon="8.600129">
        <ele>1507.969616</ele>
        <time>2022-01-06T20:05:00.561Z</time>
      </trkpt>
      <trkpt lat="46.636752" lon="8.599888">
        <ele>1509.458497</ele>
        <time>2022-01-06T20:05:11.988Z</time>
      </trkpt>
      <trkpt lat="46.636873" lon="8.599690">
        <ele>1510.969913</ele>
        <time>2022-01-06T20:05:19.307Z</time>
      </trkpt>
      <trkpt lat="46.636969" lon="8.599607">
        <ele>1511.897041</ele>
        <time>2022-01-06T20:05:28.126Z</time>
      </trkpt>
      <trkpt lat="46.637159" lon="8.599566">
        <ele>1513.492127</ele>
        <time>2022-01-06T20:05:35.490Z</time>
      </trkpt>
      <trkpt lat="46.637319" lon="8.599640">
        <ele>1514.886239</ele>
        <time>2022-01-06T20:05:46.361Z</time>
      </trkpt>
      <trkpt lat="46.637451" lon="8.599816">
        <ele>1516.372431</ele>
        <time>2022-01-06T20:05:53.411Z</time>
      </trkpt>
      <trkpt lat="46.637531" lon="8.600215">
        <ele>1518.742542</ele>
        <time>2022-01-06T20:06:08.928Z</time>
      </trkpt>
      <trkpt lat="46.637427" lon="8.600760">
        <ele>1520.869757</ele>
        <time>2022-01-06T20:06:29.174Z</time>
      </trkpt>
      <trkpt lat="46.636951" lon="8.602237">
        <ele>1526.767736</ele>
        <time>2022-01-06T20:07:12.683Z</time>
      </trkpt>
      <trkpt lat="46.636243" lon="8.603993">
        <ele>1535.209365</ele>
        <time>2022-01-06T20:08:15.265Z</time>
      </trkpt>
      <trkpt lat="46.636100" lon="8.605108">
        <ele>1540.224497</ele>
        <time>2022-01-06T20:08:54.036Z</time>
      </trkpt>
      <trkpt lat="46.635983" lon="8.605525">
        <ele>1542.850583</ele>
        <time>2022-01-06T20:09:10.516Z</time>
      </trkpt>
      <trkpt lat="46.635479" lon="8.606242">
        <ele>1548.832375</ele>
        <time>2022-01-06T20:09:56.146Z</time>
      </trkpt>
      <trkpt lat="46.635405" lon="8.606592">
        <ele>1550.967312</ele>
        <time>2022-01-06T20:10:11.004Z</time>
      </trkpt>
      <trkpt lat="46.635515" lon="8.606845">
        <ele>1552.713047</ele>
        <time>2022-01-06T20:10:22.038Z</time>
      </trkpt>
      <trkpt lat="46.635716" lon="8.606912">
        <ele>1554.463710</ele>
        <time>2022-01-06T20:10:32.447Z</time>
      </trkpt>
      <trkpt lat="46.635867" lon="8.606809">
        <ele>1555.752271</ele>
        <time>2022-01-06T20:10:40.092Z</time>
      </trkpt>
      <trkpt lat="46.636068" lon="8.606323">
        <ele>1558.594909</ele>
        <time>2022-01-06T20:10:57.601Z</time>
      </trkpt>
      <trkpt lat="46.636424" lon="8.605175">
        <ele>1564.906177</ele>
        <time>2022-01-06T20:11:41.524Z</time>
      </trkpt>
      <trkpt lat="46.636752" lon="8.604361">
        <ele>1570.370582</ele>
        <time>2022-01-06T20:12:17.433Z</time>
      </trkpt>
      <trkpt lat="46.637002" lon="8.603930">
        <ele>1574.551773</ele>
        <time>2022-01-06T20:12:38.759Z</time>
      </trkpt>
      <trkpt lat="46.637763" lon="8.602871">
        <ele>1585.911824</ele>
        <time>2022-01-06T20:13:51.449Z</time>
      </trkpt>
      <trkpt lat="46.638320" lon="8.601902">
        <ele>1595.779050</ele>
        <time>2022-01-06T20:14:58.324Z</time>
      </trkpt>
      <trkpt lat="46.638628" lon="8.601521">
        <ele>1600.422556</ele>
        <time>2022-01-06T20:15:28.609Z</time>
      </trkpt>
      <trkpt lat="46.639196" lon="8.601063">
        <ele>1607.882958</ele>
        <time>2022-01-06T20:16:10.754Z</time>
      </trkpt>
      <trkpt lat="46.639388" lon="8.601019">
        <ele>1608.778874</ele>
        <time>2022-01-06T20:16:18.416Z</time>
      </trkpt>
      <trkpt lat="46.639567" lon="8.601149">
        <ele>1609.489131</ele>
        <time>2022-01-06T20:16:30.417Z</time>
      </trkpt>
      <trkpt lat="46.639630" lon="8.601466">
        <ele>1610.293711</ele>
        <time>2022-01-06T20:16:37.408Z</time>
      </trkpt>
      <trkpt lat="46.639484" lon="8.601734">
        <ele>1611.127796</ele>
        <time>2022-01-06T20:16:45.962Z</time>
      </trkpt>
      <trkpt lat="46.638769" lon="8.602159">
        <ele>1613.870017</ele>
        <time>2022-01-06T20:17:08.236Z</time>
      </trkpt>
      <trkpt lat="46.638583" lon="8.602333">
        <ele>1614.593604</ele>
        <time>2022-01-06T20:17:16.114Z</time>
      </trkpt>
      <trkpt lat="46.637690" lon="8.604066">
        <ele>1616.165551</ele>
        <time>2022-01-06T20:17:45.818Z</time>
      </trkpt>
      <trkpt lat="46.637460" lon="8.604612">
        <ele>1617.858053</ele>
        <time>2022-01-06T20:18:03.727Z</time>
      </trkpt>
      <trkpt lat="46.637354" lon="8.605012">
        <ele>1620.523845</ele>
        <time>2022-01-06T20:18:17.784Z</time>
      </trkpt>
      <trkpt lat="46.637328" lon="8.605398">
        <ele>1622.935314</ele>
        <time>2022-01-06T20:18:31.982Z</time>
      </trkpt>
      <trkpt lat="46.637371" lon="8.605737">
        <ele>1625.078704</ele>
        <time>2022-01-06T20:18:46.653Z</time>
      </trkpt>
      <trkpt lat="46.637800" lon="8.606817">
        <ele>1632.842172</ele>
        <time>2022-01-06T20:19:47.824Z</time>
      </trkpt>
      <trkpt lat="46.637906" lon="8.607508">
        <ele>1637.563776</ele>
        <time>2022-01-06T20:20:21.464Z</time>
      </trkpt>
      <trkpt lat="46.637840" lon="8.608159">
        <ele>1641.952100</ele>
        <time>2022-01-06T20:20:51.737Z</time>
      </trkpt>
      <trkpt lat="46.637404" lon="8.609407">
        <ele>1650.873495</ele>
        <time>2022-01-06T20:21:43.521Z</time>
      </trkpt>
      <trkpt lat="46.637448" lon="8.609698">
        <ele>1652.083970</ele>
        <time>2022-01-06T20:21:53.879Z</time>
      </trkpt>
      <trkpt lat="46.637572" lon="8.609768">
        <ele>1652.870804</ele>
        <time>2022-01-06T20:21:59.949Z</time>
      </trkpt>
      <trkpt lat="46.637740" lon="8.609630">
        <ele>1654.011975</ele>
        <time>2022-01-06T20:22:08.522Z</time>
      </trkpt>
      <trkpt lat="46.637956" lon="8.608705">
        <ele>1657.981012</ele>
        <time>2022-01-06T20:22:35.387Z</time>
      </trkpt>
      <trkpt lat="46.638522" lon="8.607691">
        <ele>1664.133745</ele>
        <time>2022-01-06T20:23:18.191Z</time>
      </trkpt>
      <trkpt lat="46.638596" lon="8.607362">
        <ele>1666.029945</ele>
        <time>2022-01-06T20:23:30.228Z</time>
      </trkpt>
      <trkpt lat="46.638647" lon="8.606713">
        <ele>1669.607799</ele>
        <time>2022-01-06T20:23:54.757Z</time>
      </trkpt>
      <trkpt lat="46.638942" lon="8.605768">
        <ele>1675.303288</ele>
        <time>2022-01-06T20:24:36.838Z</time>
      </trkpt>
      <trkpt lat="46.639107" lon="8.604636">
        <ele>1682.423127</ele>
        <time>2022-01-06T20:25:24.781Z</time>
      </trkpt>
      <trkpt lat="46.639567" lon="8.603203">
        <ele>1692.140995</ele>
        <time>2022-01-06T20:26:26.354Z</time>
      </trkpt>
      <trkpt lat="46.639650" lon="8.603030">
        <ele>1693.416438</ele>
        <time>2022-01-06T20:26:34.352Z</time>
      </trkpt>
      <trkpt lat="46.639800" lon="8.602917">
        <ele>1694.902875</ele>
        <time>2022-01-06T20:26:43.798Z</time>
      </trkpt>
      <trkpt lat="46.639938" lon="8.603001">
        <ele>1696.219348</ele>
        <time>2022-01-06T20:26:52.902Z</time>
      </trkpt>
      <trkpt lat="46.639984" lon="8.603183">
        <ele>1697.391373</ele>
        <time>2022-01-06T20:27:00.428Z</time>
      </trkpt>
      <trkpt lat="46.639675" lon="8.604769">
        <ele>1707.349334</ele>
        <time>2022-01-06T20:28:06.420Z</time>
      </trkpt>
      <trkpt lat="46.639630" lon="8.605602">
        <ele>1712.265660</ele>
        <time>2022-01-06T20:28:38.630Z</time>
      </trkpt>
      <trkpt lat="46.639722" lon="8.607399">
        <ele>1722.905476</ele>
        <time>2022-01-06T20:29:47.049Z</time>
      </trkpt>
      <trkpt lat="46.639631" lon="8.609530">
        <ele>1737.078837</ele>
        <time>2022-01-06T20:31:18.000Z</time>
      </trkpt>
      <trkpt lat="46.639726" lon="8.610383">
        <ele>1742.746052</ele>
        <time>2022-01-06T20:31:55.206Z</time>
      </trkpt>
      <trkpt lat="46.639915" lon="8.611200">
        <ele>1748.330001</ele>
        <time>2022-01-06T20:32:28.639Z</time>
      </trkpt>
      <trkpt lat="46.639973" lon="8.611384">
        <ele>1749.641353</ele>
        <time>2022-01-06T20:32:36.597Z</time>
      </trkpt>
      <trkpt lat="46.640135" lon="8.611592">
        <ele>1751.678619</ele>
        <time>2022-01-06T20:32:50.557Z</time>
      </trkpt>
      <trkpt lat="46.640354" lon="8.611582">
        <ele>1753.745589</ele>
        <time>2022-01-06T20:33:05.393Z</time>
      </trkpt>
      <trkpt lat="46.640485" lon="8.611398">
        <ele>1755.462402</ele>
        <time>2022-01-06T20:33:17.797Z</time>
      </trkpt>
      <trkpt lat="46.640520" lon="8.611108">
        <ele>1757.288260</ele>
        <time>2022-01-06T20:33:29.507Z</time>
      </trkpt>
      <trkpt lat="46.640509" lon="8.610261">
        <ele>1761.750050</ele>
        <time>2022-01-06T20:33:59.852Z</time>
      </trkpt>
      <trkpt lat="46.640802" lon="8.609378">
        <ele>1766.915306</ele>
        <time>2022-01-06T20:34:34.530Z</time>
      </trkpt>
      <trkpt lat="46.640866" lon="8.609002">
        <ele>1768.955567</ele>
        <time>2022-01-06T20:34:47.618Z</time>
      </trkpt>
      <trkpt lat="46.640850" lon="8.608629">
        <ele>1770.878797</ele>
        <time>2022-01-06T20:35:00.035Z</time>
      </trkpt>
      <trkpt lat="46.640709" lon="8.608038">
        <ele>1773.397901</ele>
        <time>2022-01-06T20:35:22.819Z</time>
      </trkpt>
      <trkpt lat="46.640688" lon="8.607757">
        <ele>1774.535970</ele>
        <time>2022-01-06T20:35:32.716Z</time>
      </trkpt>
      <trkpt lat="46.640813" lon="8.607555">
        <ele>1775.630877</ele>
        <time>2022-01-06T20:35:42.231Z</time>
      </trkpt>
      <trkpt lat="46.640959" lon="8.607592">
        <ele>1776.499933</ele>
        <time>2022-01-06T20:35:48.379Z</time>
      </trkpt>
      <trkpt lat="46.641061" lon="8.607810">
        <ele>1777.562101</ele>
        <time>2022-01-06T20:35:55.371Z</time>
      </trkpt>
      <trkpt lat="46.641193" lon="8.608538">
        <ele>1780.593708</ele>
        <time>2022-01-06T20:36:15.200Z</time>
      </trkpt>
      <trkpt lat="46.641531" lon="8.609395">
        <ele>1785.559796</ele>
        <time>2022-01-06T20:36:45.853Z</time>
      </trkpt>
      <trkpt lat="46.641634" lon="8.609831">
        <ele>1787.972594</ele>
        <time>2022-01-06T20:37:01.097Z</time>
      </trkpt>
      <trkpt lat="46.641709" lon="8.611867">
        <ele>1799.574044</ele>
        <time>2022-01-06T20:38:25.326Z</time>
      </trkpt>
      <trkpt lat="46.641840" lon="8.613060">
        <ele>1807.509376</ele>
        <time>2022-01-06T20:39:18.394Z</time>
      </trkpt>
      <trkpt lat="46.642043" lon="8.614806">
        <ele>1815.347090</ele>
        <time>2022-01-06T20:40:27.656Z</time>
      </trkpt>
      <trkpt lat="46.642110" lon="8.615814">
        <ele>1818.365119</ele>
        <time>2022-01-06T20:40:48.906Z</time>
      </trkpt>
      <trkpt lat="46.642149" lon="8.616428">
        <ele>1820.113390</ele>
        <time>2022-01-06T20:40:57.906Z</time>
      </trkpt>
      <trkpt lat="46.642257" lon="8.617597">
        <ele>1822.050834</ele>
        <time>2022-01-06T20:41:18.157Z</time>
      </trkpt>
      <trkpt lat="46.642415" lon="8.618518">
        <ele>1823.610129</ele>
        <time>2022-01-06T20:41:39.793Z</time>
      </trkpt>
      <trkpt lat="46.642955" lon="8.620470">
        <ele>1832.784576</ele>
        <time>2022-01-06T20:42:45.471Z</time>
      </trkpt>
      <trkpt lat="46.643307" lon="8.621337">
        <ele>1837.973982</ele>
        <time>2022-01-06T20:43:30.926Z</time>
      </trkpt>
      <trkpt lat="46.644524" lon="8.623856">
        <ele>1858.192570</ele>
        <time>2022-01-06T20:45:38.760Z</time>
      </trkpt>
      <trkpt lat="46.645024" lon="8.625057">
        <ele>1866.942561</ele>
        <time>2022-01-06T20:46:35.475Z</time>
      </trkpt>
      <trkpt lat="46.645190" lon="8.625324">
        <ele>1869.186566</ele>
        <time>2022-01-06T20:46:49.891Z</time>
      </trkpt>
      <trkpt lat="46.645347" lon="8.625504">
        <ele>1870.999573</ele>
        <time>2022-01-06T20:47:01.127Z</time>
      </trkpt>
      <trkpt lat="46.645720" lon="8.625880">
        <ele>1875.017674</ele>
        <time>2022-01-06T20:47:26.227Z</time>
      </trkpt>
      <trkpt lat="46.646248" lon="8.626456">
        <ele>1880.852759</ele>
        <time>2022-01-06T20:48:04.690Z</time>
      </trkpt>
      <trkpt lat="46.646925" lon="8.627379">
        <ele>1888.886168</ele>
        <time>2022-01-06T20:48:59.699Z</time>
      </trkpt>
      <trkpt lat="46.649965" lon="8.631685">
        <ele>1922.760692</ele>
        <time>2022-01-06T20:52:46.455Z</time>
      </trkpt>
      <trkpt lat="46.652108" lon="8.634037">
        <ele>1945.050002</ele>
        <time>2022-01-06T20:55:18.604Z</time>
      </trkpt>
      <trkpt lat="46.652568" lon="8.634691">
        <ele>1949.157950</ele>
        <time>2022-01-06T20:55:50.711Z</time>
      </trkpt>
      <trkpt lat="46.653007" lon="8.635450">
        <ele>1953.389370</ele>
        <time>2022-01-06T20:56:22.808Z</time>
      </trkpt>
      <trkpt lat="46.653518" lon="8.636648">
        <ele>1958.463212</ele>
        <time>2022-01-06T20:57:03.703Z</time>
      </trkpt>
      <trkpt lat="46.653818" lon="8.637130">
        <ele>1960.282392</ele>
        <time>2022-01-06T20:57:21.062Z</time>
      </trkpt>
      <trkpt lat="46.654105" lon="8.637423">
        <ele>1961.709891</ele>
        <time>2022-01-06T20:57:34.086Z</time>
      </trkpt>
      <trkpt lat="46.654706" lon="8.637822">
        <ele>1964.428815</ele>
        <time>2022-01-06T20:57:57.240Z</time>
      </trkpt>
      <trkpt lat="46.655199" lon="8.638439">
        <ele>1967.265706</ele>
        <time>2022-01-06T20:58:20.872Z</time>
      </trkpt>
      <trkpt lat="46.655430" lon="8.639073">
        <ele>1969.416222</ele>
        <time>2022-01-06T20:58:39.667Z</time>
      </trkpt>
      <trkpt lat="46.656039" lon="8.641802">
        <ele>1980.456740</ele>
        <time>2022-01-06T21:00:10.077Z</time>
      </trkpt>
      <trkpt lat="46.656871" lon="8.644053">
        <ele>1992.269940</ele>
        <time>2022-01-06T21:01:37.156Z</time>
      </trkpt>
      <trkpt lat="46.657232" lon="8.646551">
        <ele>2004.298614</ele>
        <time>2022-01-06T21:03:06.639Z</time>
      </trkpt>
      <trkpt lat="46.657796" lon="8.648307">
        <ele>2012.019711</ele>
        <time>2022-01-06T21:04:08.218Z</time>
      </trkpt>
      <trkpt lat="46.657845" lon="8.648939">
        <ele>2014.297045</ele>
        <time>2022-01-06T21:04:25.956Z</time>
      </trkpt>
      <trkpt lat="46.657798" lon="8.649934">
        <ele>2017.629724</ele>
        <time>2022-01-06T21:04:53.505Z</time>
      </trkpt>
      <trkpt lat="46.657942" lon="8.650776">
        <ele>2019.929944</ele>
        <time>2022-01-06T21:05:16.776Z</time>
      </trkpt>
      <trkpt lat="46.658530" lon="8.652373">
        <ele>2024.388977</ele>
        <time>2022-01-06T21:06:02.183Z</time>
      </trkpt>
      <trkpt lat="46.658690" lon="8.652807">
        <ele>2025.156935</ele>
        <time>2022-01-06T21:06:13.941Z</time>
      </trkpt>
      <trkpt lat="46.659324" lon="8.654530">
        <ele>2028.057526</ele>
        <time>2022-01-06T21:06:54.141Z</time>
      </trkpt>
      <trkpt lat="46.659879" lon="8.656590">
        <ele>2029.232040</ele>
        <time>2022-01-06T21:07:31.765Z</time>
      </trkpt>
      <trkpt lat="46.661729" lon="8.664662">
        <ele>2030.166366</ele>
        <time>2022-01-06T21:09:52.139Z</time>
      </trkpt>
      <trkpt lat="46.661790" lon="8.665132">
        <ele>2029.859474</ele>
        <time>2022-01-06T21:09:58.761Z</time>
      </trkpt>
      <trkpt lat="46.661800" lon="8.665735">
        <ele>2029.472483</ele>
        <time>2022-01-06T21:10:06.875Z</time>
      </trkpt>
      <trkpt lat="46.661722" lon="8.666707">
        <ele>2028.844609</ele>
        <time>2022-01-06T21:10:19.237Z</time>
      </trkpt>
      <trkpt lat="46.661628" lon="8.668157">
        <ele>2029.531641</ele>
        <time>2022-01-06T21:10:38.343Z</time>
      </trkpt>
      <trkpt lat="46.661470" lon="8.669054">
        <ele>2030.111428</ele>
        <time>2022-01-06T21:10:55.773Z</time>
      </trkpt>
      <trkpt lat="46.661167" lon="8.669799">
        <ele>2031.877102</ele>
        <time>2022-01-06T21:11:20.188Z</time>
      </trkpt>
      <trkpt lat="46.660732" lon="8.670510">
        <ele>2035.060800</ele>
        <time>2022-01-06T21:11:51.256Z</time>
      </trkpt>
      <trkpt lat="46.660525" lon="8.670769">
        <ele>2036.389624</ele>
        <time>2022-01-06T21:12:03.448Z</time>
      </trkpt>
      <trkpt lat="46.660181" lon="8.671132">
        <ele>2038.458187</ele>
        <time>2022-01-06T21:12:20.929Z</time>
      </trkpt>
      <trkpt lat="46.659967" lon="8.671274">
        <ele>2038.936304</ele>
        <time>2022-01-06T21:12:30.342Z</time>
      </trkpt>
      <trkpt lat="46.659822" lon="8.671323">
        <ele>2038.636802</ele>
        <time>2022-01-06T21:12:35.753Z</time>
      </trkpt>
      <trkpt lat="46.659453" lon="8.671288">
        <ele>2037.892756</ele>
        <time>2022-01-06T21:12:46.944Z</time>
      </trkpt>
      <trkpt lat="46.659050" lon="8.671115">
        <ele>2037.047407</ele>
        <time>2022-01-06T21:12:55.193Z</time>
      </trkpt>
      <trkpt lat="46.658795" lon="8.671141">
        <ele>2036.533060</ele>
        <time>2022-01-06T21:12:59.172Z</time>
      </trkpt>
      <trkpt lat="46.658673" lon="8.671218">
        <ele>2036.265539</ele>
        <time>2022-01-06T21:13:01.108Z</time>
      </trkpt>
      <trkpt lat="46.658555" lon="8.671397">
        <ele>2035.922783</ele>
        <time>2022-01-06T21:13:03.513Z</time>
      </trkpt>
      <trkpt lat="46.658514" lon="8.671638">
        <ele>2035.579887</ele>
        <time>2022-01-06T21:13:05.894Z</time>
      </trkpt>
      <trkpt lat="46.658493" lon="8.671879">
        <ele>2034.314414</ele>
        <time>2022-01-06T21:13:08.194Z</time>
      </trkpt>
      <trkpt lat="46.658401" lon="8.672958">
        <ele>2027.599389</ele>
        <time>2022-01-06T21:13:18.450Z</time>
      </trkpt>
      <trkpt lat="46.658314" lon="8.673267">
        <ele>2025.536702</ele>
        <time>2022-01-06T21:13:21.584Z</time>
      </trkpt>
      <trkpt lat="46.658164" lon="8.673455">
        <ele>2023.756286</ele>
        <time>2022-01-06T21:13:24.266Z</time>
      </trkpt>
      <trkpt lat="46.657349" lon="8.673946">
        <ele>2016.392773</ele>
        <time>2022-01-06T21:13:36.405Z</time>
      </trkpt>
      <trkpt lat="46.657194" lon="8.674100">
        <ele>2014.980080</ele>
        <time>2022-01-06T21:13:39.036Z</time>
      </trkpt>
      <trkpt lat="46.657102" lon="8.674302">
        <ele>2013.727150</ele>
        <time>2022-01-06T21:13:41.454Z</time>
      </trkpt>
      <trkpt lat="46.656926" lon="8.674980">
        <ele>2009.980806</ele>
        <time>2022-01-06T21:13:48.709Z</time>
      </trkpt>
      <trkpt lat="46.656598" lon="8.675658">
        <ele>2005.662681</ele>
        <time>2022-01-06T21:13:56.912Z</time>
      </trkpt>
      <trkpt lat="46.656360" lon="8.676388">
        <ele>2000.046836</ele>
        <time>2022-01-06T21:14:04.622Z</time>
      </trkpt>
      <trkpt lat="46.655918" lon="8.677033">
        <ele>1993.713371</ele>
        <time>2022-01-06T21:14:13.089Z</time>
      </trkpt>
      <trkpt lat="46.655708" lon="8.677147">
        <ele>1991.444531</ele>
        <time>2022-01-06T21:14:16.140Z</time>
      </trkpt>
      <trkpt lat="46.655504" lon="8.677081">
        <ele>1989.328914</ele>
        <time>2022-01-06T21:14:18.930Z</time>
      </trkpt>
      <trkpt lat="46.654941" lon="8.676581">
        <ele>1981.623929</ele>
        <time>2022-01-06T21:14:27.586Z</time>
      </trkpt>
      <trkpt lat="46.654782" lon="8.676602">
        <ele>1979.669404</ele>
        <time>2022-01-06T21:14:29.705Z</time>
      </trkpt>
      <trkpt lat="46.654657" lon="8.676783">
        <ele>1977.511825</ele>
        <time>2022-01-06T21:14:31.986Z</time>
      </trkpt>
      <trkpt lat="46.654561" lon="8.677491">
        <ele>1971.447440</ele>
        <time>2022-01-06T21:14:38.514Z</time>
      </trkpt>
      <trkpt lat="46.654126" lon="8.678420">
        <ele>1963.149919</ele>
        <time>2022-01-06T21:14:48.930Z</time>
      </trkpt>
      <trkpt lat="46.653919" lon="8.678745">
        <ele>1960.631307</ele>
        <time>2022-01-06T21:14:53.192Z</time>
      </trkpt>
      <trkpt lat="46.653385" lon="8.679368">
        <ele>1954.969470</ele>
        <time>2022-01-06T21:15:02.794Z</time>
      </trkpt>
      <trkpt lat="46.653298" lon="8.679348">
        <ele>1954.240545</ele>
        <time>2022-01-06T21:15:04.018Z</time>
      </trkpt>
      <trkpt lat="46.653290" lon="8.679209">
        <ele>1953.448147</ele>
        <time>2022-01-06T21:15:05.415Z</time>
      </trkpt>
      <trkpt lat="46.653535" lon="8.678890">
        <ele>1950.728731</ele>
        <time>2022-01-06T21:15:10.182Z</time>
      </trkpt>
      <trkpt lat="46.653647" lon="8.678646">
        <ele>1948.490221</ele>
        <time>2022-01-06T21:15:13.209Z</time>
      </trkpt>
      <trkpt lat="46.653840" lon="8.678131">
        <ele>1943.973096</ele>
        <time>2022-01-06T21:15:18.942Z</time>
      </trkpt>
      <trkpt lat="46.653805" lon="8.677996">
        <ele>1942.862144</ele>
        <time>2022-01-06T21:15:20.279Z</time>
      </trkpt>
      <trkpt lat="46.653714" lon="8.678007">
        <ele>1941.838017</ele>
        <time>2022-01-06T21:15:21.531Z</time>
      </trkpt>
      <trkpt lat="46.653033" lon="8.679249">
        <ele>1929.560988</ele>
        <time>2022-01-06T21:15:35.764Z</time>
      </trkpt>
      <trkpt lat="46.652707" lon="8.680037">
        <ele>1922.166286</ele>
        <time>2022-01-06T21:15:44.064Z</time>
      </trkpt>
      <trkpt lat="46.652441" lon="8.681182">
        <ele>1912.450834</ele>
        <time>2022-01-06T21:15:55.140Z</time>
      </trkpt>
      <trkpt lat="46.652263" lon="8.681710">
        <ele>1908.892432</ele>
        <time>2022-01-06T21:16:00.585Z</time>
      </trkpt>
      <trkpt lat="46.652192" lon="8.681684">
        <ele>1908.620485</ele>
        <time>2022-01-06T21:16:01.588Z</time>
      </trkpt>
      <trkpt lat="46.652168" lon="8.681595">
        <ele>1908.376664</ele>
        <time>2022-01-06T21:16:02.526Z</time>
      </trkpt>
      <trkpt lat="46.652282" lon="8.681221">
        <ele>1907.333224</ele>
        <time>2022-01-06T21:16:07.009Z</time>
      </trkpt>
      <trkpt lat="46.652308" lon="8.680746">
        <ele>1906.118201</ele>
        <time>2022-01-06T21:16:13.236Z</time>
      </trkpt>
      <trkpt lat="46.652196" lon="8.680261">
        <ele>1904.813417</ele>
        <time>2022-01-06T21:16:20.363Z</time>
      </trkpt>
      <trkpt lat="46.652182" lon="8.679512">
        <ele>1902.902869</ele>
        <time>2022-01-06T21:16:30.100Z</time>
      </trkpt>
      <trkpt lat="46.652119" lon="8.679412">
        <ele>1902.405872</ele>
        <time>2022-01-06T21:16:31.592Z</time>
      </trkpt>
      <trkpt lat="46.652044" lon="8.679457">
        <ele>1901.874583</ele>
        <time>2022-01-06T21:16:32.911Z</time>
      </trkpt>
      <trkpt lat="46.651935" lon="8.680245">
        <ele>1898.260397</ele>
        <time>2022-01-06T21:16:41.557Z</time>
      </trkpt>
      <trkpt lat="46.651900" lon="8.681078">
        <ele>1894.508090</ele>
        <time>2022-01-06T21:16:49.840Z</time>
      </trkpt>
      <trkpt lat="46.651311" lon="8.683137">
        <ele>1879.868675</ele>
        <time>2022-01-06T21:17:10.480Z</time>
      </trkpt>
      <trkpt lat="46.651188" lon="8.684019">
        <ele>1872.949511</ele>
        <time>2022-01-06T21:17:18.605Z</time>
      </trkpt>
      <trkpt lat="46.651127" lon="8.684114">
        <ele>1871.949447</ele>
        <time>2022-01-06T21:17:19.756Z</time>
      </trkpt>
      <trkpt lat="46.651040" lon="8.684060">
        <ele>1870.890330</ele>
        <time>2022-01-06T21:17:21.013Z</time>
      </trkpt>
      <trkpt lat="46.651023" lon="8.683971">
        <ele>1870.342400</ele>
        <time>2022-01-06T21:17:21.919Z</time>
      </trkpt>
      <trkpt lat="46.650894" lon="8.682811">
        <ele>1863.567028</ele>
        <time>2022-01-06T21:17:33.135Z</time>
      </trkpt>
      <trkpt lat="46.651048" lon="8.681129">
        <ele>1853.749792</ele>
        <time>2022-01-06T21:17:49.750Z</time>
      </trkpt>
      <trkpt lat="46.651010" lon="8.681029">
        <ele>1853.079387</ele>
        <time>2022-01-06T21:17:50.859Z</time>
      </trkpt>
      <trkpt lat="46.650943" lon="8.681019">
        <ele>1852.503906</ele>
        <time>2022-01-06T21:17:51.819Z</time>
      </trkpt>
      <trkpt lat="46.650893" lon="8.681093">
        <ele>1851.894884</ele>
        <time>2022-01-06T21:17:52.863Z</time>
      </trkpt>
      <trkpt lat="46.650781" lon="8.681795">
        <ele>1847.667673</ele>
        <time>2022-01-06T21:17:59.849Z</time>
      </trkpt>
      <trkpt lat="46.650359" lon="8.682999">
        <ele>1839.804549</ele>
        <time>2022-01-06T21:18:12.496Z</time>
      </trkpt>
      <trkpt lat="46.650176" lon="8.683815">
        <ele>1835.310618</ele>
        <time>2022-01-06T21:18:20.490Z</time>
      </trkpt>
      <trkpt lat="46.650155" lon="8.684174">
        <ele>1833.424447</ele>
        <time>2022-01-06T21:18:23.910Z</time>
      </trkpt>
      <trkpt lat="46.650239" lon="8.684682">
        <ele>1830.689010</ele>
        <time>2022-01-06T21:18:28.989Z</time>
      </trkpt>
      <trkpt lat="46.650271" lon="8.685641">
        <ele>1826.056248</ele>
        <time>2022-01-06T21:18:38.981Z</time>
      </trkpt>
      <trkpt lat="46.650191" lon="8.685676">
        <ele>1825.676680</ele>
        <time>2022-01-06T21:18:40.366Z</time>
      </trkpt>
      <trkpt lat="46.650137" lon="8.685622">
        <ele>1825.379048</ele>
        <time>2022-01-06T21:18:41.469Z</time>
      </trkpt>
      <trkpt lat="46.650135" lon="8.684959">
        <ele>1823.310931</ele>
        <time>2022-01-06T21:18:49.161Z</time>
      </trkpt>
      <trkpt lat="46.649943" lon="8.684279">
        <ele>1821.017377</ele>
        <time>2022-01-06T21:18:57.112Z</time>
      </trkpt>
      <trkpt lat="46.649849" lon="8.683529">
        <ele>1818.639216</ele>
        <time>2022-01-06T21:19:05.275Z</time>
      </trkpt>
      <trkpt lat="46.649772" lon="8.683436">
        <ele>1817.835587</ele>
        <time>2022-01-06T21:19:06.803Z</time>
      </trkpt>
      <trkpt lat="46.649657" lon="8.683548">
        <ele>1816.419039</ele>
        <time>2022-01-06T21:19:08.775Z</time>
      </trkpt>
      <trkpt lat="46.649811" lon="8.684220">
        <ele>1811.438999</ele>
        <time>2022-01-06T21:19:15.277Z</time>
      </trkpt>
      <trkpt lat="46.649744" lon="8.685584">
        <ele>1801.826380</ele>
        <time>2022-01-06T21:19:27.799Z</time>
      </trkpt>
      <trkpt lat="46.649768" lon="8.686100">
        <ele>1798.418386</ele>
        <time>2022-01-06T21:19:32.539Z</time>
      </trkpt>
      <trkpt lat="46.649977" lon="8.687517">
        <ele>1789.480540</ele>
        <time>2022-01-06T21:19:46.085Z</time>
      </trkpt>
      <trkpt lat="46.649896" lon="8.687569">
        <ele>1788.685342</ele>
        <time>2022-01-06T21:19:47.266Z</time>
      </trkpt>
      <trkpt lat="46.649849" lon="8.687534">
        <ele>1788.211144</ele>
        <time>2022-01-06T21:19:48.006Z</time>
      </trkpt>
      <trkpt lat="46.649765" lon="8.687002">
        <ele>1784.844713</ele>
        <time>2022-01-06T21:19:53.183Z</time>
      </trkpt>
      <trkpt lat="46.649616" lon="8.686514">
        <ele>1782.692839</ele>
        <time>2022-01-06T21:19:59.213Z</time>
      </trkpt>
      <trkpt lat="46.649517" lon="8.686300">
        <ele>1781.879441</ele>
        <time>2022-01-06T21:20:02.180Z</time>
      </trkpt>
      <trkpt lat="46.649362" lon="8.686163">
        <ele>1781.046978</ele>
        <time>2022-01-06T21:20:05.188Z</time>
      </trkpt>
      <trkpt lat="46.649165" lon="8.686174">
        <ele>1780.141760</ele>
        <time>2022-01-06T21:20:08.471Z</time>
      </trkpt>
      <trkpt lat="46.648759" lon="8.686373">
        <ele>1778.174856</ele>
        <time>2022-01-06T21:20:15.366Z</time>
      </trkpt>
      <trkpt lat="46.648615" lon="8.686554">
        <ele>1777.301546</ele>
        <time>2022-01-06T21:20:18.392Z</time>
      </trkpt>
      <trkpt lat="46.648576" lon="8.686760">
        <ele>1776.627987</ele>
        <time>2022-01-06T21:20:20.643Z</time>
      </trkpt>
      <trkpt lat="46.648655" lon="8.687060">
        <ele>1775.596340</ele>
        <time>2022-01-06T21:20:23.952Z</time>
      </trkpt>
      <trkpt lat="46.649096" lon="8.687579">
        <ele>1769.113100</ele>
        <time>2022-01-06T21:20:31.890Z</time>
      </trkpt>
      <trkpt lat="46.649213" lon="8.687883">
        <ele>1766.377179</ele>
        <time>2022-01-06T21:20:35.143Z</time>
      </trkpt>
      <trkpt lat="46.649175" lon="8.689419">
        <ele>1754.091427</ele>
        <time>2022-01-06T21:20:48.949Z</time>
      </trkpt>
      <trkpt lat="46.649020" lon="8.690960">
        <ele>1738.265833</ele>
        <time>2022-01-06T21:21:02.662Z</time>
      </trkpt>
      <trkpt lat="46.649029" lon="8.691363">
        <ele>1734.168701</ele>
        <time>2022-01-06T21:21:06.259Z</time>
      </trkpt>
      <trkpt lat="46.649347" lon="8.693175">
        <ele>1720.197833</ele>
        <time>2022-01-06T21:21:23.608Z</time>
      </trkpt>
      <trkpt lat="46.649505" lon="8.693290">
        <ele>1718.575004</ele>
        <time>2022-01-06T21:21:26.118Z</time>
      </trkpt>
      <trkpt lat="46.649918" lon="8.693112">
        <ele>1714.617746</ele>
        <time>2022-01-06T21:21:32.275Z</time>
      </trkpt>
      <trkpt lat="46.650116" lon="8.693240">
        <ele>1712.627426</ele>
        <time>2022-01-06T21:21:35.317Z</time>
      </trkpt>
      <trkpt lat="46.650405" lon="8.694014">
        <ele>1707.851876</ele>
        <time>2022-01-06T21:21:43.799Z</time>
      </trkpt>
      <trkpt lat="46.650866" lon="8.695733">
        <ele>1698.092061</ele>
        <time>2022-01-06T21:22:01.702Z</time>
      </trkpt>
      <trkpt lat="46.651010" lon="8.695901">
        <ele>1696.657123</ele>
        <time>2022-01-06T21:22:04.302Z</time>
      </trkpt>
      <trkpt lat="46.651303" lon="8.695968">
        <ele>1694.349632</ele>
        <time>2022-01-06T21:22:08.451Z</time>
      </trkpt>
      <trkpt lat="46.651653" lon="8.696004">
        <ele>1691.619806</ele>
        <time>2022-01-06T21:22:13.444Z</time>
      </trkpt>
      <trkpt lat="46.651824" lon="8.696083">
        <ele>1690.224109</ele>
        <time>2022-01-06T21:22:16.059Z</time>
      </trkpt>
      <trkpt lat="46.652089" lon="8.696329">
        <ele>1687.779374</ele>
        <time>2022-01-06T21:22:20.512Z</time>
      </trkpt>
      <trkpt lat="46.652246" lon="8.696575">
        <ele>1685.985501</ele>
        <time>2022-01-06T21:22:23.742Z</time>
      </trkpt>
      <trkpt lat="46.652886" lon="8.697576">
        <ele>1677.148996</ele>
        <time>2022-01-06T21:22:36.723Z</time>
      </trkpt>
      <trkpt lat="46.653294" lon="8.698127">
        <ele>1671.588668</ele>
        <time>2022-01-06T21:22:44.139Z</time>
      </trkpt>
      <trkpt lat="46.653502" lon="8.698549">
        <ele>1668.024525</ele>
        <time>2022-01-06T21:22:48.941Z</time>
      </trkpt>
      <trkpt lat="46.653832" lon="8.699726">
        <ele>1661.262527</ele>
        <time>2022-01-06T21:23:00.861Z</time>
      </trkpt>
      <trkpt lat="46.653800" lon="8.700687">
        <ele>1656.570355</ele>
        <time>2022-01-06T21:23:10.517Z</time>
      </trkpt>
      <trkpt lat="46.653904" lon="8.701059">
        <ele>1654.611458</ele>
        <time>2022-01-06T21:23:14.662Z</time>
      </trkpt>
      <trkpt lat="46.654065" lon="8.701379">
        <ele>1652.932476</ele>
        <time>2022-01-06T21:23:18.844Z</time>
      </trkpt>
      <trkpt lat="46.654551" lon="8.701868">
        <ele>1650.450276</ele>
        <time>2022-01-06T21:23:28.342Z</time>
      </trkpt>
      <trkpt lat="46.654668" lon="8.702267">
        <ele>1649.198686</ele>
        <time>2022-01-06T21:23:33.149Z</time>
      </trkpt>
      <trkpt lat="46.654848" lon="8.704215">
        <ele>1643.767752</ele>
        <time>2022-01-06T21:23:53.827Z</time>
      </trkpt>
      <trkpt lat="46.654890" lon="8.706227">
        <ele>1638.934653</ele>
        <time>2022-01-06T21:24:15.520Z</time>
      </trkpt>
      <trkpt lat="46.654948" lon="8.706857">
        <ele>1638.673403</ele>
        <time>2022-01-06T21:24:25.418Z</time>
      </trkpt>
      <trkpt lat="46.655067" lon="8.707810">
        <ele>1638.275288</ele>
        <time>2022-01-06T21:24:45.665Z</time>
      </trkpt>
      <trkpt lat="46.655238" lon="8.708796">
        <ele>1636.978683</ele>
        <time>2022-01-06T21:25:00.386Z</time>
      </trkpt>
      <trkpt lat="46.655621" lon="8.709393">
        <ele>1632.192438</ele>
        <time>2022-01-06T21:25:08.590Z</time>
      </trkpt>
      <trkpt lat="46.655722" lon="8.709674">
        <ele>1630.334597</ele>
        <time>2022-01-06T21:25:11.581Z</time>
      </trkpt>
      <trkpt lat="46.655868" lon="8.710108">
        <ele>1627.503747</ele>
        <time>2022-01-06T21:25:16.102Z</time>
      </trkpt>
      <trkpt lat="46.656042" lon="8.710332">
        <ele>1625.522367</ele>
        <time>2022-01-06T21:25:19.227Z</time>
      </trkpt>
      <trkpt lat="46.656436" lon="8.710792">
        <ele>1620.446369</ele>
        <time>2022-01-06T21:25:25.853Z</time>
      </trkpt>
      <trkpt lat="46.656712" lon="8.711230">
        <ele>1615.000381</ele>
        <time>2022-01-06T21:25:31.126Z</time>
      </trkpt>
      <trkpt lat="46.657397" lon="8.712965">
        <ele>1597.179017</ele>
        <time>2022-01-06T21:25:49.148Z</time>
      </trkpt>
      <trkpt lat="46.658495" lon="8.714584">
        <ele>1581.924344</ele>
        <time>2022-01-06T21:26:10.702Z</time>
      </trkpt>
      <trkpt lat="46.658947" lon="8.715584">
        <ele>1575.423932</ele>
        <time>2022-01-06T21:26:22.061Z</time>
      </trkpt>
      <trkpt lat="46.659816" lon="8.717207">
        <ele>1565.269270</ele>
        <time>2022-01-06T21:26:42.313Z</time>
      </trkpt>
      <trkpt lat="46.660306" lon="8.718557">
        <ele>1559.320851</ele>
        <time>2022-01-06T21:26:57.971Z</time>
      </trkpt>
      <trkpt lat="46.660581" lon="8.719166">
        <ele>1556.352850</ele>
        <time>2022-01-06T21:27:05.503Z</time>
      </trkpt>
      <trkpt lat="46.660784" lon="8.719594">
        <ele>1553.828130</ele>
        <time>2022-01-06T21:27:10.860Z</time>
      </trkpt>
      <trkpt lat="46.661015" lon="8.720110">
        <ele>1550.838476</ele>
        <time>2022-01-06T21:27:17.097Z</time>
      </trkpt>
      <trkpt lat="46.662015" lon="8.723111">
        <ele>1531.276925</ele>
        <time>2022-01-06T21:27:48.867Z</time>
      </trkpt>
      <trkpt lat="46.662137" lon="8.723814">
        <ele>1526.500322</ele>
        <time>2022-01-06T21:27:55.479Z</time>
      </trkpt>
      <trkpt lat="46.662182" lon="8.725098">
        <ele>1517.703633</ele>
        <time>2022-01-06T21:28:07.250Z</time>
      </trkpt>
      <trkpt lat="46.662335" lon="8.726046">
        <ele>1511.040407</ele>
        <time>2022-01-06T21:28:16.375Z</time>
      </trkpt>
      <trkpt lat="46.662556" lon="8.726869">
        <ele>1507.735736</ele>
        <time>2022-01-06T21:28:25.121Z</time>
      </trkpt>
      <trkpt lat="46.662596" lon="8.727786">
        <ele>1505.561215</ele>
        <time>2022-01-06T21:28:35.985Z</time>
      </trkpt>
      <trkpt lat="46.662783" lon="8.728730">
        <ele>1503.235979</ele>
        <time>2022-01-06T21:28:48.893Z</time>
      </trkpt>
      <trkpt lat="46.663043" lon="8.729483">
        <ele>1500.514229</ele>
        <time>2022-01-06T21:28:58.737Z</time>
      </trkpt>
      <trkpt lat="46.663143" lon="8.730330">
        <ele>1497.631722</ele>
        <time>2022-01-06T21:29:07.868Z</time>
      </trkpt>
      <trkpt lat="46.663759" lon="8.732858">
        <ele>1485.721651</ele>
        <time>2022-01-06T21:29:33.935Z</time>
      </trkpt>
      <trkpt lat="46.663859" lon="8.733432">
        <ele>1482.694698</ele>
        <time>2022-01-06T21:29:39.650Z</time>
      </trkpt>
      <trkpt lat="46.663985" lon="8.734951">
        <ele>1475.590259</ele>
        <time>2022-01-06T21:29:54.678Z</time>
      </trkpt>
      <trkpt lat="46.664304" lon="8.736935">
        <ele>1466.447098</ele>
        <time>2022-01-06T21:30:15.177Z</time>
      </trkpt>
      <trkpt lat="46.664433" lon="8.739065">
        <ele>1456.920224</ele>
        <time>2022-01-06T21:30:36.292Z</time>
      </trkpt>
      <trkpt lat="46.664642" lon="8.739945">
        <ele>1453.086608</ele>
        <time>2022-01-06T21:30:45.568Z</time>
      </trkpt>
      <trkpt lat="46.665793" lon="8.742731">
        <ele>1441.036545</ele>
        <time>2022-01-06T21:31:18.614Z</time>
      </trkpt>
      <trkpt lat="46.666521" lon="8.744032">
        <ele>1437.561573</ele>
        <time>2022-01-06T21:31:37.014Z</time>
      </trkpt>
      <trkpt lat="46.667201" lon="8.745405">
        <ele>1436.897605</ele>
        <time>2022-01-06T21:31:59.494Z</time>
      </trkpt>
      <trkpt lat="46.667409" lon="8.745653">
        <ele>1437.384092</ele>
        <time>2022-01-06T21:32:10.144Z</time>
      </trkpt>
      <trkpt lat="46.667760" lon="8.745686">
        <ele>1439.038415</ele>
        <time>2022-01-06T21:32:28.432Z</time>
      </trkpt>
      <trkpt lat="46.667975" lon="8.745952">
        <ele>1440.364942</ele>
        <time>2022-01-06T21:32:43.276Z</time>
      </trkpt>
      <trkpt lat="46.668054" lon="8.745982">
        <ele>1440.748918</ele>
        <time>2022-01-06T21:32:48.119Z</time>
      </trkpt>
      <trkpt lat="46.668319" lon="8.745823">
        <ele>1442.096830</ele>
        <time>2022-01-06T21:33:01.302Z</time>
      </trkpt>
      <trkpt lat="46.668441" lon="8.745475">
        <ele>1443.358107</ele>
        <time>2022-01-06T21:33:13.036Z</time>
      </trkpt>
      <trkpt lat="46.668483" lon="8.744955">
        <ele>1445.048022</ele>
        <time>2022-01-06T21:33:25.342Z</time>
      </trkpt>
      <trkpt lat="46.668517" lon="8.744734">
        <ele>1444.958585</ele>
        <time>2022-01-06T21:33:29.703Z</time>
      </trkpt>
      <trkpt lat="46.668544" lon="8.744637">
        <ele>1444.748560</ele>
        <time>2022-01-06T21:33:32.298Z</time>
      </trkpt>
      <trkpt lat="46.668580" lon="8.744542">
        <ele>1444.530818</ele>
        <time>2022-01-06T21:33:34.680Z</time>
      </trkpt>
      <trkpt lat="46.668633" lon="8.744435">
        <ele>1444.266044</ele>
        <time>2022-01-06T21:33:36.844Z</time>
      </trkpt>
      <trkpt lat="46.668678" lon="8.744356">
        <ele>1444.060044</ele>
        <time>2022-01-06T21:33:38.274Z</time>
      </trkpt>
      <trkpt lat="46.668734" lon="8.744279">
        <ele>1443.834925</ele>
        <time>2022-01-06T21:33:40.745Z</time>
      </trkpt>
      <trkpt lat="46.668783" lon="8.744222">
        <ele>1443.651606</ele>
        <time>2022-01-06T21:33:42.667Z</time>
      </trkpt>
      <trkpt lat="46.668858" lon="8.744157">
        <ele>1443.396465</ele>
        <time>2022-01-06T21:33:44.846Z</time>
      </trkpt>
      <trkpt lat="46.668917" lon="8.744117">
        <ele>1443.206201</ele>
        <time>2022-01-06T21:33:46.062Z</time>
      </trkpt>
      <trkpt lat="46.668976" lon="8.744085">
        <ele>1443.022131</ele>
        <time>2022-01-06T21:33:47.156Z</time>
      </trkpt>
      <trkpt lat="46.669032" lon="8.744062">
        <ele>1442.852015</ele>
        <time>2022-01-06T21:33:48.598Z</time>
      </trkpt>
      <trkpt lat="46.669121" lon="8.744039">
        <ele>1442.587729</ele>
        <time>2022-01-06T21:33:50.788Z</time>
      </trkpt>
      <trkpt lat="46.669421" lon="8.743974">
        <ele>1441.700922</ele>
        <time>2022-01-06T21:33:55.760Z</time>
      </trkpt>
      <trkpt lat="46.669732" lon="8.743928">
        <ele>1440.786922</ele>
        <time>2022-01-06T21:34:00.235Z</time>
      </trkpt>
      <trkpt lat="46.669821" lon="8.743916">
        <ele>1440.525585</ele>
        <time>2022-01-06T21:34:01.472Z</time>
      </trkpt>
      <trkpt lat="46.669909" lon="8.743909">
        <ele>1440.267901</ele>
        <time>2022-01-06T21:34:02.669Z</time>
      </trkpt>
      <trkpt lat="46.669952" lon="8.743913">
        <ele>1440.141918</ele>
        <time>2022-01-06T21:34:03.245Z</time>
      </trkpt>
      <trkpt lat="46.670002" lon="8.743921">
        <ele>1439.954700</ele>
        <time>2022-01-06T21:34:03.919Z</time>
      </trkpt>
      <trkpt lat="46.670050" lon="8.743932">
        <ele>1439.515981</ele>
        <time>2022-01-06T21:34:04.562Z</time>
      </trkpt>
      <trkpt lat="46.670104" lon="8.743949">
        <ele>1439.017165</ele>
        <time>2022-01-06T21:34:05.303Z</time>
      </trkpt>
      <trkpt lat="46.670515" lon="8.744134">
        <ele>1435.133247</ele>
        <time>2022-01-06T21:34:11.021Z</time>
      </trkpt>
      <trkpt lat="46.670943" lon="8.744319">
        <ele>1431.102420</ele>
        <time>2022-01-06T21:34:17.083Z</time>
      </trkpt>
      <trkpt lat="46.671889" lon="8.744741">
        <ele>1422.797550</ele>
        <time>2022-01-06T21:34:31.035Z</time>
      </trkpt>
      <trkpt lat="46.672042" lon="8.744823">
        <ele>1421.901636</ele>
        <time>2022-01-06T21:34:33.381Z</time>
      </trkpt>
      <trkpt lat="46.672120" lon="8.744905">
        <ele>1421.373071</ele>
        <time>2022-01-06T21:34:34.811Z</time>
      </trkpt>
      <trkpt lat="46.672233" lon="8.745197">
        <ele>1420.108872</ele>
        <time>2022-01-06T21:34:38.177Z</time>
      </trkpt>
      <trkpt lat="46.672395" lon="8.746112">
        <ele>1416.545353</ele>
        <time>2022-01-06T21:34:47.931Z</time>
      </trkpt>
      <trkpt lat="46.672702" lon="8.747098">
        <ele>1412.884887</ele>
        <time>2022-01-06T21:34:59.495Z</time>
      </trkpt>
      <trkpt lat="46.673151" lon="8.747911">
        <ele>1410.115140</ele>
        <time>2022-01-06T21:35:10.891Z</time>
      </trkpt>
      <trkpt lat="46.674115" lon="8.749024">
        <ele>1405.702513</ele>
        <time>2022-01-06T21:35:30.294Z</time>
      </trkpt>
      <trkpt lat="46.674165" lon="8.749080">
        <ele>1405.511951</ele>
        <time>2022-01-06T21:35:31.297Z</time>
      </trkpt>
      <trkpt lat="46.674426" lon="8.749387">
        <ele>1404.498380</ele>
        <time>2022-01-06T21:35:36.743Z</time>
      </trkpt>
      <trkpt lat="46.674756" lon="8.749794">
        <ele>1403.191970</ele>
        <time>2022-01-06T21:35:43.872Z</time>
      </trkpt>
      <trkpt lat="46.675024" lon="8.750123">
        <ele>1402.133060</ele>
        <time>2022-01-06T21:35:49.806Z</time>
      </trkpt>
      <trkpt lat="46.675128" lon="8.750253">
        <ele>1401.719014</ele>
        <time>2022-01-06T21:35:52.186Z</time>
      </trkpt>
      <trkpt lat="46.675483" lon="8.750673">
        <ele>1400.991337</ele>
        <time>2022-01-06T21:36:00.215Z</time>
      </trkpt>
      <trkpt lat="46.675688" lon="8.751022">
        <ele>1400.576102</ele>
        <time>2022-01-06T21:36:06.057Z</time>
      </trkpt>
      <trkpt lat="46.676037" lon="8.752173">
        <ele>1399.438757</ele>
        <time>2022-01-06T21:36:22.729Z</time>
      </trkpt>
      <trkpt lat="46.676088" lon="8.752526">
        <ele>1399.124829</ele>
        <time>2022-01-06T21:36:27.525Z</time>
      </trkpt>
      <trkpt lat="46.676088" lon="8.752579">
        <ele>1399.116251</ele>
        <time>2022-01-06T21:36:28.252Z</time>
      </trkpt>
      <trkpt lat="46.676080" lon="8.752767">
        <ele>1399.085766</ele>
        <time>2022-01-06T21:36:30.831Z</time>
      </trkpt>
      <trkpt lat="46.675874" lon="8.753882">
        <ele>1398.898882</ele>
        <time>2022-01-06T21:36:47.135Z</time>
      </trkpt>
      <trkpt lat="46.675801" lon="8.754825">
        <ele>1398.745294</ele>
        <time>2022-01-06T21:37:01.261Z</time>
      </trkpt>
      <trkpt lat="46.676061" lon="8.756973">
        <ele>1399.958498</ele>
        <time>2022-01-06T21:37:39.450Z</time>
      </trkpt>
      <trkpt lat="46.676149" lon="8.757417">
        <ele>1400.260479</ele>
        <time>2022-01-06T21:37:48.543Z</time>
      </trkpt>
      <trkpt lat="46.676355" lon="8.758021">
        <ele>1400.673139</ele>
        <time>2022-01-06T21:38:01.935Z</time>
      </trkpt>
      <trkpt lat="46.677166" lon="8.759806">
        <ele>1401.934261</ele>
        <time>2022-01-06T21:38:39.817Z</time>
      </trkpt>
      <trkpt lat="46.677440" lon="8.760248">
        <ele>1401.948304</ele>
        <time>2022-01-06T21:38:48.260Z</time>
      </trkpt>
      <trkpt lat="46.677842" lon="8.760709">
        <ele>1401.932006</ele>
        <time>2022-01-06T21:38:58.489Z</time>
      </trkpt>
      <trkpt lat="46.677870" lon="8.760738">
        <ele>1401.930912</ele>
        <time>2022-01-06T21:38:59.165Z</time>
      </trkpt>
      <trkpt lat="46.678387" lon="8.761205">
        <ele>1401.911533</ele>
        <time>2022-01-06T21:39:11.500Z</time>
      </trkpt>
      <trkpt lat="46.679364" lon="8.761856">
        <ele>1403.775256</ele>
        <time>2022-01-06T21:39:41.509Z</time>
      </trkpt>
      <trkpt lat="46.679564" lon="8.761889">
        <ele>1404.241622</ele>
        <time>2022-01-06T21:39:47.856Z</time>
      </trkpt>
      <trkpt lat="46.679949" lon="8.761838">
        <ele>1405.137355</ele>
        <time>2022-01-06T21:40:01.121Z</time>
      </trkpt>
      <trkpt lat="46.680204" lon="8.761833">
        <ele>1405.728252</ele>
        <time>2022-01-06T21:40:10.591Z</time>
      </trkpt>
      <trkpt lat="46.680378" lon="8.761945">
        <ele>1406.192030</ele>
        <time>2022-01-06T21:40:17.538Z</time>
      </trkpt>
      <trkpt lat="46.680514" lon="8.762228">
        <ele>1406.869942</ele>
        <time>2022-01-06T21:40:26.301Z</time>
      </trkpt>
      <trkpt lat="46.680524" lon="8.762531">
        <ele>1407.465114</ele>
        <time>2022-01-06T21:40:34.805Z</time>
      </trkpt>
      <trkpt lat="46.680435" lon="8.762790">
        <ele>1408.033449</ele>
        <time>2022-01-06T21:40:42.281Z</time>
      </trkpt>
      <trkpt lat="46.680277" lon="8.763019">
        <ele>1408.670656</ele>
        <time>2022-01-06T21:40:51.011Z</time>
      </trkpt>
      <trkpt lat="46.680238" lon="8.763080">
        <ele>1408.834250</ele>
        <time>2022-01-06T21:40:52.993Z</time>
      </trkpt>
      <trkpt lat="46.679975" lon="8.763479">
        <ele>1409.919851</ele>
        <time>2022-01-06T21:41:05.551Z</time>
      </trkpt>
      <trkpt lat="46.679780" lon="8.764051">
        <ele>1411.173040</ele>
        <time>2022-01-06T21:41:17.754Z</time>
      </trkpt>
      <trkpt lat="46.679710" lon="8.764476">
        <ele>1411.160713</ele>
        <time>2022-01-06T21:41:25.418Z</time>
      </trkpt>
      <trkpt lat="46.679677" lon="8.764702">
        <ele>1411.130962</ele>
        <time>2022-01-06T21:41:29.029Z</time>
      </trkpt>
      <trkpt lat="46.679544" lon="8.765458">
        <ele>1411.030472</ele>
        <time>2022-01-06T21:41:40.993Z</time>
      </trkpt>
      <trkpt lat="46.679347" lon="8.766253">
        <ele>1410.921637</ele>
        <time>2022-01-06T21:41:52.772Z</time>
      </trkpt>
      <trkpt lat="46.679287" lon="8.766543">
        <ele>1410.882636</ele>
        <time>2022-01-06T21:41:56.690Z</time>
      </trkpt>
      <trkpt lat="46.679090" lon="8.768092">
        <ele>1408.520018</ele>
        <time>2022-01-06T21:42:15.745Z</time>
      </trkpt>
      <trkpt lat="46.679030" lon="8.769415">
        <ele>1406.248519</ele>
        <time>2022-01-06T21:42:30.989Z</time>
      </trkpt>
      <trkpt lat="46.679028" lon="8.770706">
        <ele>1402.997321</ele>
        <time>2022-01-06T21:42:45.037Z</time>
      </trkpt>
      <trkpt lat="46.679060" lon="8.771277">
        <ele>1401.554554</ele>
        <time>2022-01-06T21:42:51.183Z</time>
      </trkpt>
      <trkpt lat="46.679148" lon="8.772505">
        <ele>1399.260399</ele>
        <time>2022-01-06T21:43:04.467Z</time>
      </trkpt>
      <trkpt lat="46.679205" lon="8.772756">
        <ele>1398.897812</ele>
        <time>2022-01-06T21:43:07.483Z</time>
      </trkpt>
      <trkpt lat="46.679589" lon="8.773710">
        <ele>1397.380962</ele>
        <time>2022-01-06T21:43:21.071Z</time>
      </trkpt>
      <trkpt lat="46.679633" lon="8.773814">
        <ele>1397.213400</ele>
        <time>2022-01-06T21:43:22.733Z</time>
      </trkpt>
      <trkpt lat="46.679673" lon="8.773906">
        <ele>1397.064031</ele>
        <time>2022-01-06T21:43:24.240Z</time>
      </trkpt>
      <trkpt lat="46.679890" lon="8.774419">
        <ele>1396.881494</ele>
        <time>2022-01-06T21:43:33.853Z</time>
      </trkpt>
      <trkpt lat="46.679955" lon="8.774578">
        <ele>1397.033948</ele>
        <time>2022-01-06T21:43:37.227Z</time>
      </trkpt>
      <trkpt lat="46.680005" lon="8.774707">
        <ele>1397.155988</ele>
        <time>2022-01-06T21:43:39.838Z</time>
      </trkpt>
      <trkpt lat="46.680089" lon="8.774912">
        <ele>1397.352667</ele>
        <time>2022-01-06T21:43:44.043Z</time>
      </trkpt>
      <trkpt lat="46.680128" lon="8.774999">
        <ele>1397.438269</ele>
        <time>2022-01-06T21:43:46.017Z</time>
      </trkpt>
      <trkpt lat="46.680413" lon="8.775498">
        <ele>1397.973071</ele>
        <time>2022-01-06T21:43:58.576Z</time>
      </trkpt>
      <trkpt lat="46.680585" lon="8.775763">
        <ele>1398.273549</ele>
        <time>2022-01-06T21:44:05.959Z</time>
      </trkpt>
      <trkpt lat="46.680679" lon="8.775914">
        <ele>1398.441493</ele>
        <time>2022-01-06T21:44:10.451Z</time>
      </trkpt>
      <trkpt lat="46.681075" lon="8.776736">
        <ele>1399.198744</ele>
        <time>2022-01-06T21:44:31.199Z</time>
      </trkpt>
      <trkpt lat="46.681342" lon="8.777399">
        <ele>1399.737482</ele>
        <time>2022-01-06T21:44:45.730Z</time>
      </trkpt>
      <trkpt lat="46.681421" lon="8.777675">
        <ele>1399.947051</ele>
        <time>2022-01-06T21:44:51.301Z</time>
      </trkpt>
      <trkpt lat="46.681494" lon="8.778329">
        <ele>1400.411375</ele>
        <time>2022-01-06T21:45:02.976Z</time>
      </trkpt>
      <trkpt lat="46.681570" lon="8.780000">
        <ele>1398.243061</ele>
        <time>2022-01-06T21:45:25.894Z</time>
      </trkpt>
      <trkpt lat="46.681481" lon="8.780585">
        <ele>1397.183418</ele>
        <time>2022-01-06T21:45:32.278Z</time>
      </trkpt>
      <trkpt lat="46.681281" lon="8.781115">
        <ele>1396.113740</ele>
        <time>2022-01-06T21:45:38.568Z</time>
      </trkpt>
      <trkpt lat="46.680834" lon="8.782213">
        <ele>1393.045623</ele>
        <time>2022-01-06T21:45:51.598Z</time>
      </trkpt>
      <trkpt lat="46.680716" lon="8.782753">
        <ele>1391.664697</ele>
        <time>2022-01-06T21:45:57.484Z</time>
      </trkpt>
      <trkpt lat="46.680743" lon="8.783032">
        <ele>1390.978140</ele>
        <time>2022-01-06T21:46:01.089Z</time>
      </trkpt>
      <trkpt lat="46.680858" lon="8.783264">
        <ele>1390.280722</ele>
        <time>2022-01-06T21:46:04.734Z</time>
      </trkpt>
      <trkpt lat="46.681052" lon="8.783426">
        <ele>1389.599614</ele>
        <time>2022-01-06T21:46:09.601Z</time>
      </trkpt>
      <trkpt lat="46.681314" lon="8.783537">
        <ele>1389.503379</ele>
        <time>2022-01-06T21:46:16.979Z</time>
      </trkpt>
      <trkpt lat="46.681788" lon="8.783585">
        <ele>1389.335790</ele>
        <time>2022-01-06T21:46:29.595Z</time>
      </trkpt>
      <trkpt lat="46.681960" lon="8.783687">
        <ele>1389.270294</ele>
        <time>2022-01-06T21:46:33.124Z</time>
      </trkpt>
      <trkpt lat="46.682080" lon="8.783908">
        <ele>1389.202094</ele>
        <time>2022-01-06T21:46:37.612Z</time>
      </trkpt>
      <trkpt lat="46.682105" lon="8.784141">
        <ele>1389.145028</ele>
        <time>2022-01-06T21:46:40.258Z</time>
      </trkpt>
      <trkpt lat="46.682023" lon="8.784423">
        <ele>1389.070914</ele>
        <time>2022-01-06T21:46:44.711Z</time>
      </trkpt>
      <trkpt lat="46.681860" lon="8.784632">
        <ele>1388.994344</ele>
        <time>2022-01-06T21:46:48.619Z</time>
      </trkpt>
      <trkpt lat="46.680981" lon="8.785476">
        <ele>1388.478165</ele>
        <time>2022-01-06T21:47:10.622Z</time>
      </trkpt>
      <trkpt lat="46.680826" lon="8.785697">
        <ele>1388.370430</ele>
        <time>2022-01-06T21:47:14.573Z</time>
      </trkpt>
      <trkpt lat="46.680728" lon="8.785959">
        <ele>1388.268707</ele>
        <time>2022-01-06T21:47:19.022Z</time>
      </trkpt>
      <trkpt lat="46.680683" lon="8.786317">
        <ele>1388.144639</ele>
        <time>2022-01-06T21:47:23.700Z</time>
      </trkpt>
      <trkpt lat="46.680726" lon="8.786691">
        <ele>1387.987183</ele>
        <time>2022-01-06T21:47:28.947Z</time>
      </trkpt>
      <trkpt lat="46.681109" lon="8.787769">
        <ele>1387.403330</ele>
        <time>2022-01-06T21:47:52.617Z</time>
      </trkpt>
      <trkpt lat="46.681292" lon="8.788467">
        <ele>1387.043956</ele>
        <time>2022-01-06T21:48:02.451Z</time>
      </trkpt>
      <trkpt lat="46.681295" lon="8.788945">
        <ele>1386.745772</ele>
        <time>2022-01-06T21:48:07.959Z</time>
      </trkpt>
      <trkpt lat="46.681244" lon="8.789307">
        <ele>1385.223423</ele>
        <time>2022-01-06T21:48:11.985Z</time>
      </trkpt>
      <trkpt lat="46.681059" lon="8.790790">
        <ele>1379.014133</ele>
        <time>2022-01-06T21:48:27.130Z</time>
      </trkpt>
      <trkpt lat="46.681198" lon="8.792158">
        <ele>1372.593076</ele>
        <time>2022-01-06T21:48:40.384Z</time>
      </trkpt>
      <trkpt lat="46.681150" lon="8.792867">
        <ele>1368.872721</ele>
        <time>2022-01-06T21:48:47.244Z</time>
      </trkpt>
      <trkpt lat="46.680737" lon="8.794583">
        <ele>1359.645249</ele>
        <time>2022-01-06T21:49:05.078Z</time>
      </trkpt>
      <trkpt lat="46.680679" lon="8.795156">
        <ele>1356.895717</ele>
        <time>2022-01-06T21:49:10.602Z</time>
      </trkpt>
      <trkpt lat="46.680725" lon="8.795694">
        <ele>1354.322022</ele>
        <time>2022-01-06T21:49:15.814Z</time>
      </trkpt>
      <trkpt lat="46.680902" lon="8.796587">
        <ele>1349.909504</ele>
        <time>2022-01-06T21:49:25.099Z</time>
      </trkpt>
      <trkpt lat="46.680942" lon="8.798107">
        <ele>1345.712120</ele>
        <time>2022-01-06T21:49:41.615Z</time>
      </trkpt>
      <trkpt lat="46.680894" lon="8.799117">
        <ele>1342.924656</ele>
        <time>2022-01-06T21:49:52.732Z</time>
      </trkpt>
      <trkpt lat="46.680648" lon="8.801636">
        <ele>1336.718600</ele>
        <time>2022-01-06T21:50:20.578Z</time>
      </trkpt>
      <trkpt lat="46.680635" lon="8.803707">
        <ele>1333.026848</ele>
        <time>2022-01-06T21:50:43.837Z</time>
      </trkpt>
      <trkpt lat="46.680679" lon="8.804458">
        <ele>1331.803282</ele>
        <time>2022-01-06T21:50:52.683Z</time>
      </trkpt>
      <trkpt lat="46.681057" lon="8.807451">
        <ele>1333.372435</ele>
        <time>2022-01-06T21:51:50.617Z</time>
      </trkpt>
      <trkpt lat="46.681278" lon="8.809283">
        <ele>1333.509825</ele>
        <time>2022-01-06T21:52:24.563Z</time>
      </trkpt>
      <trkpt lat="46.681295" lon="8.809495">
        <ele>1333.525590</ele>
        <time>2022-01-06T21:52:27.921Z</time>
      </trkpt>
      <trkpt lat="46.681417" lon="8.810419">
        <ele>1328.662467</ele>
        <time>2022-01-06T21:52:38.013Z</time>
      </trkpt>
      <trkpt lat="46.681437" lon="8.811769">
        <ele>1320.902085</ele>
        <time>2022-01-06T21:52:51.252Z</time>
      </trkpt>
      <trkpt lat="46.681432" lon="8.811924">
        <ele>1320.010302</ele>
        <time>2022-01-06T21:52:52.624Z</time>
      </trkpt>
      <trkpt lat="46.681348" lon="8.814165">
        <ele>1304.085914</ele>
        <time>2022-01-06T21:53:13.036Z</time>
      </trkpt>
      <trkpt lat="46.681119" lon="8.815938">
        <ele>1296.077439</ele>
        <time>2022-01-06T21:53:30.984Z</time>
      </trkpt>
      <trkpt lat="46.681093" lon="8.817045">
        <ele>1292.916191</ele>
        <time>2022-01-06T21:53:43.765Z</time>
      </trkpt>
      <trkpt lat="46.681015" lon="8.818070">
        <ele>1291.401392</ele>
        <time>2022-01-06T21:53:57.549Z</time>
      </trkpt>
      <trkpt lat="46.681009" lon="8.818435">
        <ele>1291.131877</ele>
        <time>2022-01-06T21:54:03.000Z</time>
      </trkpt>
      <trkpt lat="46.681128" lon="8.819666">
        <ele>1290.214194</ele>
        <time>2022-01-06T21:54:19.974Z</time>
      </trkpt>
      <trkpt lat="46.681139" lon="8.820191">
        <ele>1289.676311</ele>
        <time>2022-01-06T21:54:26.587Z</time>
      </trkpt>
      <trkpt lat="46.681067" lon="8.822090">
        <ele>1286.744846</ele>
        <time>2022-01-06T21:54:48.787Z</time>
      </trkpt>
      <trkpt lat="46.681119" lon="8.823123">
        <ele>1285.388611</ele>
        <time>2022-01-06T21:55:00.762Z</time>
      </trkpt>
      <trkpt lat="46.681411" lon="8.825923">
        <ele>1283.279223</ele>
        <time>2022-01-06T21:55:37.075Z</time>
      </trkpt>
      <trkpt lat="46.682072" lon="8.829413">
        <ele>1284.792407</ele>
        <time>2022-01-06T21:56:42.034Z</time>
      </trkpt>
      <trkpt lat="46.682342" lon="8.830381">
        <ele>1285.253557</ele>
        <time>2022-01-06T21:57:01.392Z</time>
      </trkpt>
      <trkpt lat="46.682472" lon="8.830669">
        <ele>1284.902953</ele>
        <time>2022-01-06T21:57:06.870Z</time>
      </trkpt>
      <trkpt lat="46.682759" lon="8.831172">
        <ele>1284.237609</ele>
        <time>2022-01-06T21:57:17.584Z</time>
      </trkpt>
      <trkpt lat="46.683734" lon="8.832332">
        <ele>1280.928149</ele>
        <time>2022-01-06T21:57:39.063Z</time>
      </trkpt>
      <trkpt lat="46.684165" lon="8.832966">
        <ele>1276.307887</ele>
        <time>2022-01-06T21:57:47.577Z</time>
      </trkpt>
      <trkpt lat="46.685394" lon="8.835030">
        <ele>1265.103692</ele>
        <time>2022-01-06T21:58:13.453Z</time>
      </trkpt>
      <trkpt lat="46.685760" lon="8.835393">
        <ele>1263.169276</ele>
        <time>2022-01-06T21:58:20.981Z</time>
      </trkpt>
      <trkpt lat="46.686047" lon="8.835480">
        <ele>1261.888321</ele>
        <time>2022-01-06T21:58:28.150Z</time>
      </trkpt>
      <trkpt lat="46.686342" lon="8.835415">
        <ele>1261.884753</ele>
        <time>2022-01-06T21:58:38.376Z</time>
      </trkpt>
      <trkpt lat="46.686492" lon="8.835311">
        <ele>1262.490015</ele>
        <time>2022-01-06T21:58:45.479Z</time>
      </trkpt>
      <trkpt lat="46.686725" lon="8.835021">
        <ele>1263.606416</ele>
        <time>2022-01-06T21:58:59.356Z</time>
      </trkpt>
      <trkpt lat="46.686856" lon="8.834756">
        <ele>1264.422909</ele>
        <time>2022-01-06T21:59:11.522Z</time>
      </trkpt>
      <trkpt lat="46.687070" lon="8.834048">
        <ele>1266.356859</ele>
        <time>2022-01-06T21:59:36.850Z</time>
      </trkpt>
      <trkpt lat="46.687182" lon="8.832377">
        <ele>1264.837063</ele>
        <time>2022-01-06T22:00:00.267Z</time>
      </trkpt>
      <trkpt lat="46.687332" lon="8.831730">
        <ele>1262.937762</ele>
        <time>2022-01-06T22:00:07.177Z</time>
      </trkpt>
      <trkpt lat="46.687463" lon="8.831494">
        <ele>1262.093484</ele>
        <time>2022-01-06T22:00:10.108Z</time>
      </trkpt>
      <trkpt lat="46.687636" lon="8.831398">
        <ele>1261.343034</ele>
        <time>2022-01-06T22:00:12.803Z</time>
      </trkpt>
      <trkpt lat="46.687918" lon="8.831411">
        <ele>1259.965732</ele>
        <time>2022-01-06T22:00:16.713Z</time>
      </trkpt>
      <trkpt lat="46.688143" lon="8.831619">
        <ele>1258.178456</ele>
        <time>2022-01-06T22:00:20.419Z</time>
      </trkpt>
      <trkpt lat="46.688268" lon="8.831868">
        <ele>1256.758576</ele>
        <time>2022-01-06T22:00:23.400Z</time>
      </trkpt>
      <trkpt lat="46.688803" lon="8.833629">
        <ele>1248.267532</ele>
        <time>2022-01-06T22:00:42.379Z</time>
      </trkpt>
      <trkpt lat="46.689162" lon="8.834523">
        <ele>1246.482926</ele>
        <time>2022-01-06T22:00:54.929Z</time>
      </trkpt>
      <trkpt lat="46.689758" lon="8.835663">
        <ele>1244.013666</ele>
        <time>2022-01-06T22:01:13.163Z</time>
      </trkpt>
      <trkpt lat="46.690156" lon="8.836270">
        <ele>1241.969319</ele>
        <time>2022-01-06T22:01:23.004Z</time>
      </trkpt>
      <trkpt lat="46.690799" lon="8.837067">
        <ele>1238.948318</ele>
        <time>2022-01-06T22:01:36.299Z</time>
      </trkpt>
      <trkpt lat="46.691616" lon="8.837996">
        <ele>1235.716857</ele>
        <time>2022-01-06T22:01:51.902Z</time>
      </trkpt>
      <trkpt lat="46.692073" lon="8.838420">
        <ele>1234.181101</ele>
        <time>2022-01-06T22:02:00.901Z</time>
      </trkpt>
      <trkpt lat="46.692524" lon="8.838631">
        <ele>1232.838245</ele>
        <time>2022-01-06T22:02:09.850Z</time>
      </trkpt>
      <trkpt lat="46.693002" lon="8.838668">
        <ele>1232.166020</ele>
        <time>2022-01-06T22:02:20.021Z</time>
      </trkpt>
      <trkpt lat="46.693530" lon="8.838506">
        <ele>1231.734199</ele>
        <time>2022-01-06T22:02:34.484Z</time>
      </trkpt>
      <trkpt lat="46.694426" lon="8.837906">
        <ele>1230.567312</ele>
        <time>2022-01-06T22:02:53.202Z</time>
      </trkpt>
      <trkpt lat="46.694568" lon="8.837891">
        <ele>1229.606206</ele>
        <time>2022-01-06T22:02:55.833Z</time>
      </trkpt>
      <trkpt lat="46.694698" lon="8.837955">
        <ele>1228.679940</ele>
        <time>2022-01-06T22:02:58.028Z</time>
      </trkpt>
      <trkpt lat="46.694782" lon="8.838073">
        <ele>1227.892500</ele>
        <time>2022-01-06T22:02:59.738Z</time>
      </trkpt>
      <trkpt lat="46.694834" lon="8.838280">
        <ele>1226.871793</ele>
        <time>2022-01-06T22:03:01.986Z</time>
      </trkpt>
      <trkpt lat="46.695188" lon="8.841773">
        <ele>1211.686388</ele>
        <time>2022-01-06T22:03:35.493Z</time>
      </trkpt>
      <trkpt lat="46.695147" lon="8.842237">
        <ele>1209.822728</ele>
        <time>2022-01-06T22:03:41.700Z</time>
      </trkpt>
      <trkpt lat="46.695211" lon="8.842429">
        <ele>1208.972339</ele>
        <time>2022-01-06T22:03:45.577Z</time>
      </trkpt>
      <trkpt lat="46.695317" lon="8.842534">
        <ele>1208.452360</ele>
        <time>2022-01-06T22:03:47.997Z</time>
      </trkpt>
      <trkpt lat="46.695919" lon="8.842488">
        <ele>1209.330599</ele>
        <time>2022-01-06T22:04:05.775Z</time>
      </trkpt>
      <trkpt lat="46.696513" lon="8.842950">
        <ele>1210.311412</ele>
        <time>2022-01-06T22:04:29.069Z</time>
      </trkpt>
      <trkpt lat="46.697451" lon="8.843787">
        <ele>1209.618008</ele>
        <time>2022-01-06T22:04:57.379Z</time>
      </trkpt>
      <trkpt lat="46.697468" lon="8.843802">
        <ele>1209.571936</ele>
        <time>2022-01-06T22:04:57.691Z</time>
      </trkpt>
      <trkpt lat="46.698382" lon="8.844619">
        <ele>1207.086177</ele>
        <time>2022-01-06T22:05:14.541Z</time>
      </trkpt>
      <trkpt lat="46.698654" lon="8.844770">
        <ele>1205.813793</ele>
        <time>2022-01-06T22:05:18.994Z</time>
      </trkpt>
      <trkpt lat="46.698929" lon="8.844792">
        <ele>1204.319742</ele>
        <time>2022-01-06T22:05:23.204Z</time>
      </trkpt>
      <trkpt lat="46.699619" lon="8.844611">
        <ele>1200.516571</ele>
        <time>2022-01-06T22:05:33.735Z</time>
      </trkpt>
      <trkpt lat="46.700133" lon="8.844483">
        <ele>1197.687875</ele>
        <time>2022-01-06T22:05:41.373Z</time>
      </trkpt>
      <trkpt lat="46.700274" lon="8.844446">
        <ele>1196.835232</ele>
        <time>2022-01-06T22:05:43.449Z</time>
      </trkpt>
      <trkpt lat="46.700339" lon="8.844426">
        <ele>1196.331353</ele>
        <time>2022-01-06T22:05:44.430Z</time>
      </trkpt>
      <trkpt lat="46.700480" lon="8.844386">
        <ele>1195.241822</ele>
        <time>2022-01-06T22:05:46.488Z</time>
      </trkpt>
      <trkpt lat="46.700772" lon="8.844403">
        <ele>1193.025252</ele>
        <time>2022-01-06T22:05:50.636Z</time>
      </trkpt>
      <trkpt lat="46.700950" lon="8.844650">
        <ele>1191.161475</ele>
        <time>2022-01-06T22:05:54.064Z</time>
      </trkpt>
      <trkpt lat="46.701026" lon="8.845950">
        <ele>1184.374606</ele>
        <time>2022-01-06T22:06:06.602Z</time>
      </trkpt>
      <trkpt lat="46.701164" lon="8.846515">
        <ele>1181.655419</ele>
        <time>2022-01-06T22:06:12.390Z</time>
      </trkpt>
      <trkpt lat="46.701225" lon="8.846660">
        <ele>1180.931498</ele>
        <time>2022-01-06T22:06:14.025Z</time>
      </trkpt>
      <trkpt lat="46.701298" lon="8.846817">
        <ele>1180.124274</ele>
        <time>2022-01-06T22:06:15.872Z</time>
      </trkpt>
      <trkpt lat="46.701466" lon="8.847149">
        <ele>1178.368417</ele>
        <time>2022-01-06T22:06:19.930Z</time>
      </trkpt>
      <trkpt lat="46.702028" lon="8.848313">
        <ele>1172.310388</ele>
        <time>2022-01-06T22:06:34.567Z</time>
      </trkpt>
      <trkpt lat="46.702302" lon="8.848659">
        <ele>1170.486786</ele>
        <time>2022-01-06T22:06:40.203Z</time>
      </trkpt>
      <trkpt lat="46.703009" lon="8.849149">
        <ele>1166.554217</ele>
        <time>2022-01-06T22:06:52.185Z</time>
      </trkpt>
      <trkpt lat="46.703101" lon="8.849213">
        <ele>1166.042131</ele>
        <time>2022-01-06T22:06:53.762Z</time>
      </trkpt>
      <trkpt lat="46.703723" lon="8.849617">
        <ele>1162.344490</ele>
        <time>2022-01-06T22:07:03.912Z</time>
      </trkpt>
      <trkpt lat="46.704266" lon="8.849997">
        <ele>1158.007532</ele>
        <time>2022-01-06T22:07:12.587Z</time>
      </trkpt>
      <trkpt lat="46.704432" lon="8.850240">
        <ele>1156.313826</ele>
        <time>2022-01-06T22:07:15.903Z</time>
      </trkpt>
      <trkpt lat="46.704552" lon="8.850553">
        <ele>1154.543091</ele>
        <time>2022-01-06T22:07:19.302Z</time>
      </trkpt>
      <trkpt lat="46.705089" lon="8.852325">
        <ele>1144.932535</ele>
        <time>2022-01-06T22:07:38.068Z</time>
      </trkpt>
      <trkpt lat="46.705123" lon="8.852436">
        <ele>1144.327259</ele>
        <time>2022-01-06T22:07:39.208Z</time>
      </trkpt>
      <trkpt lat="46.705548" lon="8.853901">
        <ele>1136.595683</ele>
        <time>2022-01-06T22:07:54.864Z</time>
      </trkpt>
      <trkpt lat="46.705584" lon="8.854160">
        <ele>1135.573897</ele>
        <time>2022-01-06T22:07:57.550Z</time>
      </trkpt>
      <trkpt lat="46.705544" lon="8.854346">
        <ele>1134.820195</ele>
        <time>2022-01-06T22:07:59.461Z</time>
      </trkpt>
      <trkpt lat="46.705422" lon="8.854567">
        <ele>1133.723225</ele>
        <time>2022-01-06T22:08:02.317Z</time>
      </trkpt>
      <trkpt lat="46.705219" lon="8.853705">
        <ele>1130.199235</ele>
        <time>2022-01-06T22:08:11.545Z</time>
      </trkpt>
      <trkpt lat="46.705125" lon="8.853487">
        <ele>1129.203550</ele>
        <time>2022-01-06T22:08:14.178Z</time>
      </trkpt>
      <trkpt lat="46.704967" lon="8.853323">
        <ele>1128.110056</ele>
        <time>2022-01-06T22:08:17.113Z</time>
      </trkpt>
      <trkpt lat="46.704696" lon="8.853280">
        <ele>1126.790047</ele>
        <time>2022-01-06T22:08:21.197Z</time>
      </trkpt>
      <trkpt lat="46.704694" lon="8.853461">
        <ele>1126.373730</ele>
        <time>2022-01-06T22:08:23.133Z</time>
      </trkpt>
      <trkpt lat="46.704713" lon="8.853757">
        <ele>1125.690015</ele>
        <time>2022-01-06T22:08:26.443Z</time>
      </trkpt>
      <trkpt lat="46.705082" lon="8.854785">
        <ele>1123.021542</ele>
        <time>2022-01-06T22:08:39.634Z</time>
      </trkpt>
      <trkpt lat="46.705275" lon="8.855484">
        <ele>1121.288588</ele>
        <time>2022-01-06T22:08:48.107Z</time>
      </trkpt>
      <trkpt lat="46.705660" lon="8.857002">
        <ele>1116.832039</ele>
        <time>2022-01-06T22:09:07.512Z</time>
      </trkpt>
      <trkpt lat="46.705661" lon="8.857003">
        <ele>1116.827122</ele>
        <time>2022-01-06T22:09:07.531Z</time>
      </trkpt>
      <trkpt lat="46.706035" lon="8.857942">
        <ele>1113.807346</ele>
        <time>2022-01-06T22:09:19.072Z</time>
      </trkpt>
      <trkpt lat="46.706051" lon="8.857993">
        <ele>1113.727095</ele>
        <time>2022-01-06T22:09:19.659Z</time>
      </trkpt>
      <trkpt lat="46.706134" lon="8.858376">
        <ele>1113.255031</ele>
        <time>2022-01-06T22:09:23.938Z</time>
      </trkpt>
      <trkpt lat="46.706048" lon="8.858672">
        <ele>1112.877220</ele>
        <time>2022-01-06T22:09:27.368Z</time>
      </trkpt>
      <trkpt lat="46.706019" lon="8.858926">
        <ele>1112.574596</ele>
        <time>2022-01-06T22:09:30.324Z</time>
      </trkpt>
      <trkpt lat="46.706053" lon="8.860066">
        <ele>1111.233540</ele>
        <time>2022-01-06T22:09:46.148Z</time>
      </trkpt>
      <trkpt lat="46.706060" lon="8.860636">
        <ele>1111.234690</ele>
        <time>2022-01-06T22:09:57.341Z</time>
      </trkpt>
      <trkpt lat="46.706360" lon="8.860743">
        <ele>1113.310190</ele>
        <time>2022-01-06T22:10:09.848Z</time>
      </trkpt>
      <trkpt lat="46.706549" lon="8.860690">
        <ele>1114.603588</ele>
        <time>2022-01-06T22:10:22.703Z</time>
      </trkpt>
      <trkpt lat="46.706775" lon="8.860750">
        <ele>1116.147328</ele>
        <time>2022-01-06T22:10:37.958Z</time>
      </trkpt>
      <trkpt lat="46.706861" lon="8.860796">
        <ele>1116.762920</ele>
        <time>2022-01-06T22:10:43.764Z</time>
      </trkpt>
      <trkpt lat="46.706893" lon="8.860818">
        <ele>1117.000667</ele>
        <time>2022-01-06T22:10:46.468Z</time>
      </trkpt>
      <trkpt lat="46.706919" lon="8.861099">
        <ele>1118.307330</ele>
        <time>2022-01-06T22:11:00.438Z</time>
      </trkpt>
      <trkpt lat="46.706966" lon="8.861383">
        <ele>1119.653655</ele>
        <time>2022-01-06T22:11:15.004Z</time>
      </trkpt>
      <trkpt lat="46.707114" lon="8.861831">
        <ele>1121.945250</ele>
        <time>2022-01-06T22:11:36.344Z</time>
      </trkpt>
      <trkpt lat="46.707452" lon="8.862369">
        <ele>1123.201288</ele>
        <time>2022-01-06T22:12:02.294Z</time>
      </trkpt>
      <trkpt lat="46.707616" lon="8.862593">
        <ele>1123.449341</ele>
        <time>2022-01-06T22:12:10.474Z</time>
      </trkpt>
      <trkpt lat="46.707667" lon="8.862623">
        <ele>1123.510049</ele>
        <time>2022-01-06T22:12:12.124Z</time>
      </trkpt>
      <trkpt lat="46.707886" lon="8.862592">
        <ele>1123.752947</ele>
        <time>2022-01-06T22:12:17.445Z</time>
      </trkpt>
      <trkpt lat="46.707903" lon="8.862875">
        <ele>1123.967996</ele>
        <time>2022-01-06T22:12:22.538Z</time>
      </trkpt>
      <trkpt lat="46.707972" lon="8.863778">
        <ele>1124.655787</ele>
        <time>2022-01-06T22:12:33.603Z</time>
      </trkpt>
      <trkpt lat="46.708196" lon="8.864589">
        <ele>1120.892154</ele>
        <time>2022-01-06T22:12:42.425Z</time>
      </trkpt>
      <trkpt lat="46.708459" lon="8.865249">
        <ele>1116.776040</ele>
        <time>2022-01-06T22:12:49.775Z</time>
      </trkpt>
      <trkpt lat="46.708358" lon="8.865375">
        <ele>1115.730866</ele>
        <time>2022-01-06T22:12:51.557Z</time>
      </trkpt>
      <trkpt lat="46.708353" lon="8.865483">
        <ele>1115.147187</ele>
        <time>2022-01-06T22:12:52.584Z</time>
      </trkpt>
      <trkpt lat="46.708582" lon="8.865999">
        <ele>1111.832943</ele>
        <time>2022-01-06T22:12:58.302Z</time>
      </trkpt>
      <trkpt lat="46.708754" lon="8.867779">
        <ele>1100.430405</ele>
        <time>2022-01-06T22:13:15.159Z</time>
      </trkpt>
      <trkpt lat="46.708828" lon="8.868157">
        <ele>1097.883835</ele>
        <time>2022-01-06T22:13:18.823Z</time>
      </trkpt>
      <trkpt lat="46.709050" lon="8.868535">
        <ele>1094.659712</ele>
        <time>2022-01-06T22:13:23.503Z</time>
      </trkpt>
      <trkpt lat="46.709622" lon="8.868844">
        <ele>1089.832185</ele>
        <time>2022-01-06T22:13:32.016Z</time>
      </trkpt>
      <trkpt lat="46.709739" lon="8.869055">
        <ele>1088.421172</ele>
        <time>2022-01-06T22:13:34.650Z</time>
      </trkpt>
      <trkpt lat="46.709739" lon="8.869223">
        <ele>1087.547605</ele>
        <time>2022-01-06T22:13:36.271Z</time>
      </trkpt>
      <trkpt lat="46.709678" lon="8.869367">
        <ele>1086.667468</ele>
        <time>2022-01-06T22:13:37.900Z</time>
      </trkpt>
      <trkpt lat="46.709365" lon="8.869636">
        <ele>1083.912416</ele>
        <time>2022-01-06T22:13:43.188Z</time>
      </trkpt>
      <trkpt lat="46.709204" lon="8.869898">
        <ele>1082.083035</ele>
        <time>2022-01-06T22:13:46.726Z</time>
      </trkpt>
      <trkpt lat="46.709137" lon="8.870261">
        <ele>1080.128300</ele>
        <time>2022-01-06T22:13:50.497Z</time>
      </trkpt>
      <trkpt lat="46.709190" lon="8.870604">
        <ele>1077.598342</ele>
        <time>2022-01-06T22:13:53.977Z</time>
      </trkpt>
      <trkpt lat="46.709486" lon="8.871131">
        <ele>1072.591375</ele>
        <time>2022-01-06T22:14:00.337Z</time>
      </trkpt>
      <trkpt lat="46.710218" lon="8.872174">
        <ele>1061.621948</ele>
        <time>2022-01-06T22:14:13.927Z</time>
      </trkpt>
      <trkpt lat="46.710476" lon="8.872633">
        <ele>1056.551446</ele>
        <time>2022-01-06T22:14:19.296Z</time>
      </trkpt>
      <trkpt lat="46.710805" lon="8.873240">
        <ele>1049.699784</ele>
        <time>2022-01-06T22:14:26.279Z</time>
      </trkpt>
      <trkpt lat="46.711137" lon="8.873663">
        <ele>1044.006415</ele>
        <time>2022-01-06T22:14:32.032Z</time>
      </trkpt>
      <trkpt lat="46.711703" lon="8.874599">
        <ele>1033.399400</ele>
        <time>2022-01-06T22:14:43.406Z</time>
      </trkpt>
      <trkpt lat="46.711696" lon="8.875523">
        <ele>1026.018413</ele>
        <time>2022-01-06T22:14:52.256Z</time>
      </trkpt>
      <trkpt lat="46.711585" lon="8.876098">
        <ele>1021.246987</ele>
        <time>2022-01-06T22:14:57.992Z</time>
      </trkpt>
      <trkpt lat="46.711582" lon="8.876630">
        <ele>1016.997434</ele>
        <time>2022-01-06T22:15:03.093Z</time>
      </trkpt>
      <trkpt lat="46.711513" lon="8.876950">
        <ele>1015.025278</ele>
        <time>2022-01-06T22:15:06.258Z</time>
      </trkpt>
      <trkpt lat="46.712002" lon="8.877837">
        <ele>1008.833174</ele>
        <time>2022-01-06T22:15:25.732Z</time>
      </trkpt>
      <trkpt lat="46.712474" lon="8.878505">
        <ele>1003.614596</ele>
        <time>2022-01-06T22:15:42.706Z</time>
      </trkpt>
      <trkpt lat="46.712667" lon="8.879054">
        <ele>1001.736001</ele>
        <time>2022-01-06T22:15:55.272Z</time>
      </trkpt>
      <trkpt lat="46.712839" lon="8.879382">
        <ele>1001.144227</ele>
        <time>2022-01-06T22:16:04.184Z</time>
      </trkpt>
      <trkpt lat="46.713176" lon="8.879675">
        <ele>1000.324196</ele>
        <time>2022-01-06T22:16:17.542Z</time>
      </trkpt>
      <trkpt lat="46.713425" lon="8.880030">
        <ele>999.596403</ele>
        <time>2022-01-06T22:16:29.353Z</time>
      </trkpt>
      <trkpt lat="46.713798" lon="8.880344">
        <ele>998.696243</ele>
        <time>2022-01-06T22:16:43.445Z</time>
      </trkpt>
      <trkpt lat="46.714202" lon="8.881067">
        <ele>996.843981</ele>
        <time>2022-01-06T22:17:03.641Z</time>
      </trkpt>
      <trkpt lat="46.714304" lon="8.881488">
        <ele>995.916068</ele>
        <time>2022-01-06T22:17:12.891Z</time>
      </trkpt>
      <trkpt lat="46.714360" lon="8.882270">
        <ele>994.282126</ele>
        <time>2022-01-06T22:17:28.566Z</time>
      </trkpt>
      <trkpt lat="46.714575" lon="8.883188">
        <ele>991.998236</ele>
        <time>2022-01-06T22:17:47.384Z</time>
      </trkpt>
      <trkpt lat="46.714452" lon="8.884250">
        <ele>988.998329</ele>
        <time>2022-01-06T22:18:07.843Z</time>
      </trkpt>
      <trkpt lat="46.714669" lon="8.884965">
        <ele>986.820448</ele>
        <time>2022-01-06T22:18:23.258Z</time>
      </trkpt>
      <trkpt lat="46.714694" lon="8.885340">
        <ele>985.771034</ele>
        <time>2022-01-06T22:18:30.714Z</time>
      </trkpt>
      <trkpt lat="46.714915" lon="8.885834">
        <ele>984.687628</ele>
        <time>2022-01-06T22:18:42.827Z</time>
      </trkpt>
      <trkpt lat="46.714915" lon="8.886083">
        <ele>984.233829</ele>
        <time>2022-01-06T22:18:47.934Z</time>
      </trkpt>
      <trkpt lat="46.714826" lon="8.886325">
        <ele>983.733345</ele>
        <time>2022-01-06T22:18:53.548Z</time>
      </trkpt>
      <trkpt lat="46.714860" lon="8.886558">
        <ele>983.299194</ele>
        <time>2022-01-06T22:18:58.475Z</time>
      </trkpt>
      <trkpt lat="46.715234" lon="8.887533">
        <ele>981.263083</ele>
        <time>2022-01-06T22:19:21.877Z</time>
      </trkpt>
      <trkpt lat="46.715373" lon="8.888386">
        <ele>980.189586</ele>
        <time>2022-01-06T22:19:41.202Z</time>
      </trkpt>
      <trkpt lat="46.715552" lon="8.888940">
        <ele>979.523475</ele>
        <time>2022-01-06T22:19:55.093Z</time>
      </trkpt>
      <trkpt lat="46.716201" lon="8.890184">
        <ele>977.669890</ele>
        <time>2022-01-06T22:20:30.331Z</time>
      </trkpt>
      <trkpt lat="46.716757" lon="8.891565">
        <ele>975.003967</ele>
        <time>2022-01-06T22:21:04.647Z</time>
      </trkpt>
      <trkpt lat="46.716782" lon="8.891625">
        <ele>974.887091</ele>
        <time>2022-01-06T22:21:05.926Z</time>
      </trkpt>
      <trkpt lat="46.716985" lon="8.892002">
        <ele>974.089116</ele>
        <time>2022-01-06T22:21:15.675Z</time>
      </trkpt>
      <trkpt lat="46.717006" lon="8.892148">
        <ele>973.840790</ele>
        <time>2022-01-06T22:21:17.213Z</time>
      </trkpt>
      <trkpt lat="46.717302" lon="8.892470">
        <ele>973.417763</ele>
        <time>2022-01-06T22:21:23.161Z</time>
      </trkpt>
      <trkpt lat="46.717430" lon="8.892685">
        <ele>973.223924</ele>
        <time>2022-01-06T22:21:26.500Z</time>
      </trkpt>
      <trkpt lat="46.717574" lon="8.893184">
        <ele>972.855372</ele>
        <time>2022-01-06T22:21:32.592Z</time>
      </trkpt>
      <trkpt lat="46.717595" lon="8.893438">
        <ele>972.681212</ele>
        <time>2022-01-06T22:21:35.584Z</time>
      </trkpt>
      <trkpt lat="46.717568" lon="8.893909">
        <ele>972.359466</ele>
        <time>2022-01-06T22:21:42.671Z</time>
      </trkpt>
      <trkpt lat="46.717469" lon="8.894292">
        <ele>972.080829</ele>
        <time>2022-01-06T22:21:51.584Z</time>
      </trkpt>
      <trkpt lat="46.717344" lon="8.894569">
        <ele>972.589962</ele>
        <time>2022-01-06T22:21:59.364Z</time>
      </trkpt>
      <trkpt lat="46.717021" lon="8.894991">
        <ele>975.189782</ele>
        <time>2022-01-06T22:22:14.664Z</time>
      </trkpt>
      <trkpt lat="46.716542" lon="8.895498">
        <ele>978.738095</ele>
        <time>2022-01-06T22:22:44.049Z</time>
      </trkpt>
      <trkpt lat="46.716452" lon="8.895612">
        <ele>979.452759</ele>
        <time>2022-01-06T22:22:50.167Z</time>
      </trkpt>
      <trkpt lat="46.716386" lon="8.895871">
        <ele>980.588547</ele>
        <time>2022-01-06T22:23:01.055Z</time>
      </trkpt>
      <trkpt lat="46.716428" lon="8.896554">
        <ele>983.485448</ele>
        <time>2022-01-06T22:23:26.774Z</time>
      </trkpt>
      <trkpt lat="46.716578" lon="8.897134">
        <ele>986.333303</ele>
        <time>2022-01-06T22:23:50.836Z</time>
      </trkpt>
      <trkpt lat="46.717118" lon="8.898244">
        <ele>992.586079</ele>
        <time>2022-01-06T22:24:36.114Z</time>
      </trkpt>
      <trkpt lat="46.717662" lon="8.899245">
        <ele>996.316738</ele>
        <time>2022-01-06T22:25:12.761Z</time>
      </trkpt>
      <trkpt lat="46.717790" lon="8.899810">
        <ele>997.453356</ele>
        <time>2022-01-06T22:25:26.487Z</time>
      </trkpt>
      <trkpt lat="46.717822" lon="8.900247">
        <ele>998.292829</ele>
        <time>2022-01-06T22:25:35.014Z</time>
      </trkpt>
      <trkpt lat="46.717847" lon="8.900749">
        <ele>999.254238</ele>
        <time>2022-01-06T22:25:44.622Z</time>
      </trkpt>
      <trkpt lat="46.717778" lon="8.901019">
        <ele>999.804636</ele>
        <time>2022-01-06T22:25:50.866Z</time>
      </trkpt>
      <trkpt lat="46.717968" lon="8.901565">
        <ele>999.120836</ele>
        <time>2022-01-06T22:26:07.032Z</time>
      </trkpt>
      <trkpt lat="46.718266" lon="8.901924">
        <ele>998.488280</ele>
        <time>2022-01-06T22:26:19.682Z</time>
      </trkpt>
      <trkpt lat="46.718359" lon="8.902176">
        <ele>998.167161</ele>
        <time>2022-01-06T22:26:25.769Z</time>
      </trkpt>
      <trkpt lat="46.718491" lon="8.903154">
        <ele>997.048739</ele>
        <time>2022-01-06T22:26:45.973Z</time>
      </trkpt>
      <trkpt lat="46.718686" lon="8.904023">
        <ele>994.991934</ele>
        <time>2022-01-06T22:27:04.369Z</time>
      </trkpt>
      <trkpt lat="46.718705" lon="8.904105">
        <ele>994.775655</ele>
        <time>2022-01-06T22:27:06.146Z</time>
      </trkpt>
      <trkpt lat="46.718766" lon="8.904378">
        <ele>994.058195</ele>
        <time>2022-01-06T22:27:09.680Z</time>
      </trkpt>
      <trkpt lat="46.718820" lon="8.905206">
        <ele>991.979935</ele>
        <time>2022-01-06T22:27:19.862Z</time>
      </trkpt>
      <trkpt lat="46.718866" lon="8.905413">
        <ele>991.436213</ele>
        <time>2022-01-06T22:27:22.388Z</time>
      </trkpt>
      <trkpt lat="46.719054" lon="8.905774">
        <ele>990.306314</ele>
        <time>2022-01-06T22:27:27.800Z</time>
      </trkpt>
      <trkpt lat="46.719133" lon="8.906121">
        <ele>990.029927</ele>
        <time>2022-01-06T22:27:32.172Z</time>
      </trkpt>
      <trkpt lat="46.719432" lon="8.907150">
        <ele>989.185113</ele>
        <time>2022-01-06T22:27:48.681Z</time>
      </trkpt>
      <trkpt lat="46.719389" lon="8.907540">
        <ele>988.886521</ele>
        <time>2022-01-06T22:27:56.092Z</time>
      </trkpt>
      <trkpt lat="46.719350" lon="8.907739">
        <ele>988.730069</ele>
        <time>2022-01-06T22:28:01.473Z</time>
      </trkpt>
      <trkpt lat="46.719278" lon="8.908204">
        <ele>988.369717</ele>
        <time>2022-01-06T22:28:12.868Z</time>
      </trkpt>
      <trkpt lat="46.719194" lon="8.908339">
        <ele>988.208894</ele>
        <time>2022-01-06T22:28:19.501Z</time>
      </trkpt>
      <trkpt lat="46.719044" lon="8.908397">
        <ele>987.995212</ele>
        <time>2022-01-06T22:28:24.497Z</time>
      </trkpt>
      <trkpt lat="46.718840" lon="8.908595">
        <ele>987.657802</ele>
        <time>2022-01-06T22:28:35.590Z</time>
      </trkpt>
      <trkpt lat="46.718635" lon="8.908968">
        <ele>987.206498</ele>
        <time>2022-01-06T22:28:48.655Z</time>
      </trkpt>
      <trkpt lat="46.718866" lon="8.909623">
        <ele>986.511139</ele>
        <time>2022-01-06T22:28:58.876Z</time>
      </trkpt>
      <trkpt lat="46.718896" lon="8.910530">
        <ele>984.526687</ele>
        <time>2022-01-06T22:29:09.877Z</time>
      </trkpt>
      <trkpt lat="46.719557" lon="8.912750">
        <ele>968.948861</ele>
        <time>2022-01-06T22:29:33.426Z</time>
      </trkpt>
      <trkpt lat="46.719693" lon="8.913073">
        <ele>966.349112</ele>
        <time>2022-01-06T22:29:36.958Z</time>
      </trkpt>
      <trkpt lat="46.720228" lon="8.914008">
        <ele>957.996354</ele>
        <time>2022-01-06T22:29:48.549Z</time>
      </trkpt>
      <trkpt lat="46.720832" lon="8.914823">
        <ele>951.055574</ele>
        <time>2022-01-06T22:30:00.719Z</time>
      </trkpt>
      <trkpt lat="46.720830" lon="8.915640">
        <ele>951.459032</ele>
        <time>2022-01-06T22:30:17.280Z</time>
      </trkpt>
      <trkpt lat="46.720777" lon="8.916045">
        <ele>951.662642</ele>
        <time>2022-01-06T22:30:27.998Z</time>
      </trkpt>
      <trkpt lat="46.720506" lon="8.916960">
        <ele>952.154858</ele>
        <time>2022-01-06T22:31:07.753Z</time>
      </trkpt>
      <trkpt lat="46.720463" lon="8.917202">
        <ele>952.300439</ele>
        <time>2022-01-06T22:31:19.541Z</time>
      </trkpt>
      <trkpt lat="46.720488" lon="8.917554">
        <ele>952.755244</ele>
        <time>2022-01-06T22:31:35.321Z</time>
      </trkpt>
      <trkpt lat="46.720378" lon="8.917925">
        <ele>953.274729</ele>
        <time>2022-01-06T22:31:51.822Z</time>
      </trkpt>
      <trkpt lat="46.720358" lon="8.917995">
        <ele>953.372192</ele>
        <time>2022-01-06T22:31:54.639Z</time>
      </trkpt>
      <trkpt lat="46.720170" lon="8.918559">
        <ele>954.178177</ele>
        <time>2022-01-06T22:32:15.742Z</time>
      </trkpt>
      <trkpt lat="46.720115" lon="8.919404">
        <ele>955.269046</ele>
        <time>2022-01-06T22:32:37.288Z</time>
      </trkpt>
      <trkpt lat="46.720048" lon="8.919750">
        <ele>955.362958</ele>
        <time>2022-01-06T22:32:45.248Z</time>
      </trkpt>
      <trkpt lat="46.720377" lon="8.921907">
        <ele>947.172179</ele>
        <time>2022-01-06T22:33:24.932Z</time>
      </trkpt>
      <trkpt lat="46.720421" lon="8.922515">
        <ele>945.523229</ele>
        <time>2022-01-06T22:33:36.399Z</time>
      </trkpt>
      <trkpt lat="46.720389" lon="8.922937">
        <ele>944.915531</ele>
        <time>2022-01-06T22:33:44.511Z</time>
      </trkpt>
      <trkpt lat="46.720094" lon="8.923619">
        <ele>943.761313</ele>
        <time>2022-01-06T22:34:02.619Z</time>
      </trkpt>
      <trkpt lat="46.719958" lon="8.924378">
        <ele>942.638446</ele>
        <time>2022-01-06T22:34:20.802Z</time>
      </trkpt>
      <trkpt lat="46.719904" lon="8.925197">
        <ele>941.448458</ele>
        <time>2022-01-06T22:34:42.287Z</time>
      </trkpt>
      <trkpt lat="46.720000" lon="8.926072">
        <ele>940.157638</ele>
        <time>2022-01-06T22:35:06.215Z</time>
      </trkpt>
      <trkpt lat="46.720413" lon="8.927362">
        <ele>937.738056</ele>
        <time>2022-01-06T22:35:33.307Z</time>
      </trkpt>
      <trkpt lat="46.720307" lon="8.927653">
        <ele>936.596509</ele>
        <time>2022-01-06T22:35:36.967Z</time>
      </trkpt>
      <trkpt lat="46.720294" lon="8.928016">
        <ele>935.337287</ele>
        <time>2022-01-06T22:35:41.044Z</time>
      </trkpt>
      <trkpt lat="46.720421" lon="8.928153">
        <ele>934.539116</ele>
        <time>2022-01-06T22:35:43.235Z</time>
      </trkpt>
      <trkpt lat="46.720460" lon="8.928283">
        <ele>934.047538</ele>
        <time>2022-01-06T22:35:44.715Z</time>
      </trkpt>
      <trkpt lat="46.720497" lon="8.929590">
        <ele>929.515976</ele>
        <time>2022-01-06T22:35:58.347Z</time>
      </trkpt>
      <trkpt lat="46.720484" lon="8.930854">
        <ele>925.601996</ele>
        <time>2022-01-06T22:36:11.332Z</time>
      </trkpt>
      <trkpt lat="46.720369" lon="8.932923">
        <ele>920.010361</ele>
        <time>2022-01-06T22:36:33.696Z</time>
      </trkpt>
      <trkpt lat="46.720247" lon="8.933967">
        <ele>918.059559</ele>
        <time>2022-01-06T22:36:45.397Z</time>
      </trkpt>
      <trkpt lat="46.720220" lon="8.935780">
        <ele>917.288664</ele>
        <time>2022-01-06T22:37:09.222Z</time>
      </trkpt>
      <trkpt lat="46.720220" lon="8.935942">
        <ele>917.459436</ele>
        <time>2022-01-06T22:37:12.608Z</time>
      </trkpt>
      <trkpt lat="46.720219" lon="8.936271">
        <ele>917.806254</ele>
        <time>2022-01-06T22:37:19.479Z</time>
      </trkpt>
      <trkpt lat="46.720218" lon="8.937236">
        <ele>918.823509</ele>
        <time>2022-01-06T22:37:43.169Z</time>
      </trkpt>
      <trkpt lat="46.720217" lon="8.937846">
        <ele>919.627249</ele>
        <time>2022-01-06T22:37:57.654Z</time>
      </trkpt>
      <trkpt lat="46.720147" lon="8.938632">
        <ele>920.849238</ele>
        <time>2022-01-06T22:38:16.905Z</time>
      </trkpt>
      <trkpt lat="46.720136" lon="8.939076">
        <ele>921.534217</ele>
        <time>2022-01-06T22:38:26.128Z</time>
      </trkpt>
      <trkpt lat="46.720240" lon="8.940081">
        <ele>923.101216</ele>
        <time>2022-01-06T22:38:44.144Z</time>
      </trkpt>
      <trkpt lat="46.720287" lon="8.941373">
        <ele>924.001813</ele>
        <time>2022-01-06T22:39:10.702Z</time>
      </trkpt>
      <trkpt lat="46.720360" lon="8.942134">
        <ele>924.515568</ele>
        <time>2022-01-06T22:39:25.857Z</time>
      </trkpt>
      <trkpt lat="46.720341" lon="8.942855">
        <ele>924.505346</ele>
        <time>2022-01-06T22:39:38.396Z</time>
      </trkpt>
      <trkpt lat="46.720379" lon="8.943148">
        <ele>923.474656</ele>
        <time>2022-01-06T22:39:41.934Z</time>
      </trkpt>
      <trkpt lat="46.720570" lon="8.943860">
        <ele>920.832001</ele>
        <time>2022-01-06T22:39:50.054Z</time>
      </trkpt>
      <trkpt lat="46.720718" lon="8.944403">
        <ele>918.812290</ele>
        <time>2022-01-06T22:39:56.091Z</time>
      </trkpt>
      <trkpt lat="46.720834" lon="8.944694">
        <ele>917.648810</ele>
        <time>2022-01-06T22:39:59.439Z</time>
      </trkpt>
      <trkpt lat="46.721260" lon="8.945513">
        <ele>912.923129</ele>
        <time>2022-01-06T22:40:09.103Z</time>
      </trkpt>
      <trkpt lat="46.721912" lon="8.946719">
        <ele>904.067168</ele>
        <time>2022-01-06T22:40:23.355Z</time>
      </trkpt>
      <trkpt lat="46.721999" lon="8.946879">
        <ele>902.889649</ele>
        <time>2022-01-06T22:40:25.327Z</time>
      </trkpt>
      <trkpt lat="46.722338" lon="8.947506">
        <ele>900.850060</ele>
        <time>2022-01-06T22:40:33.833Z</time>
      </trkpt>
      <trkpt lat="46.722440" lon="8.947695">
        <ele>900.923093</ele>
        <time>2022-01-06T22:40:36.589Z</time>
      </trkpt>
      <trkpt lat="46.722870" lon="8.948472">
        <ele>901.226284</ele>
        <time>2022-01-06T22:40:50.711Z</time>
      </trkpt>
      <trkpt lat="46.722961" lon="8.948637">
        <ele>901.290581</ele>
        <time>2022-01-06T22:40:55.481Z</time>
      </trkpt>
      <trkpt lat="46.722864" lon="8.948776">
        <ele>901.350804</ele>
        <time>2022-01-06T22:41:01.078Z</time>
      </trkpt>
      <trkpt lat="46.722914" lon="8.949083">
        <ele>901.446609</ele>
        <time>2022-01-06T22:41:11.289Z</time>
      </trkpt>
      <trkpt lat="46.723020" lon="8.949435">
        <ele>902.102104</ele>
        <time>2022-01-06T22:41:24.003Z</time>
      </trkpt>
      <trkpt lat="46.722915" lon="8.949720">
        <ele>903.377487</ele>
        <time>2022-01-06T22:41:34.838Z</time>
      </trkpt>
      <trkpt lat="46.722888" lon="8.949809">
        <ele>903.761128</ele>
        <time>2022-01-06T22:41:38.069Z</time>
      </trkpt>
      <trkpt lat="46.722813" lon="8.950120">
        <ele>905.060683</ele>
        <time>2022-01-06T22:41:49.330Z</time>
      </trkpt>
      <trkpt lat="46.722200" lon="8.950689">
        <ele>909.238589</ele>
        <time>2022-01-06T22:42:27.288Z</time>
      </trkpt>
      <trkpt lat="46.722153" lon="8.950786">
        <ele>909.706818</ele>
        <time>2022-01-06T22:42:30.912Z</time>
      </trkpt>
      <trkpt lat="46.722146" lon="8.950999">
        <ele>910.547406</ele>
        <time>2022-01-06T22:42:36.770Z</time>
      </trkpt>
      <trkpt lat="46.722390" lon="8.951564">
        <ele>912.092596</ele>
        <time>2022-01-06T22:42:54.160Z</time>
      </trkpt>
      <trkpt lat="46.722290" lon="8.952172">
        <ele>912.525902</ele>
        <time>2022-01-06T22:43:08.327Z</time>
      </trkpt>
      <trkpt lat="46.722260" lon="8.952993">
        <ele>913.095670</ele>
        <time>2022-01-06T22:43:19.510Z</time>
      </trkpt>
      <trkpt lat="46.722106" lon="8.953655">
        <ele>913.580136</ele>
        <time>2022-01-06T22:43:28.714Z</time>
      </trkpt>
      <trkpt lat="46.722120" lon="8.953873">
        <ele>913.818429</ele>
        <time>2022-01-06T22:43:33.764Z</time>
      </trkpt>
      <trkpt lat="46.722181" lon="8.954009">
        <ele>914.115329</ele>
        <time>2022-01-06T22:43:38.145Z</time>
      </trkpt>
      <trkpt lat="46.722965" lon="8.955061">
        <ele>916.954005</ele>
        <time>2022-01-06T22:44:36.012Z</time>
      </trkpt>
      <trkpt lat="46.723169" lon="8.955378">
        <ele>917.748278</ele>
        <time>2022-01-06T22:44:51.378Z</time>
      </trkpt>
      <trkpt lat="46.723179" lon="8.955481">
        <ele>917.938314</ele>
        <time>2022-01-06T22:44:54.715Z</time>
      </trkpt>
      <trkpt lat="46.723175" lon="8.955540">
        <ele>918.046620</ele>
        <time>2022-01-06T22:44:57.195Z</time>
      </trkpt>
      <trkpt lat="46.722999" lon="8.956153">
        <ele>917.158518</ele>
        <time>2022-01-06T22:45:19.056Z</time>
      </trkpt>
      <trkpt lat="46.723016" lon="8.956240">
        <ele>916.883295</ele>
        <time>2022-01-06T22:45:22.028Z</time>
      </trkpt>
      <trkpt lat="46.723150" lon="8.956274">
        <ele>916.279686</ele>
        <time>2022-01-06T22:45:25.360Z</time>
      </trkpt>
      <trkpt lat="46.723338" lon="8.956430">
        <ele>915.319819</ele>
        <time>2022-01-06T22:45:35.036Z</time>
      </trkpt>
      <trkpt lat="46.723427" lon="8.956503">
        <ele>914.866689</ele>
        <time>2022-01-06T22:45:37.533Z</time>
      </trkpt>
      <trkpt lat="46.724402" lon="8.957069">
        <ele>909.972036</ele>
        <time>2022-01-06T22:46:05.228Z</time>
      </trkpt>
      <trkpt lat="46.724512" lon="8.957088">
        <ele>909.063335</ele>
        <time>2022-01-06T22:46:07.699Z</time>
      </trkpt>
      <trkpt lat="46.724821" lon="8.957537">
        <ele>905.485423</ele>
        <time>2022-01-06T22:46:18.127Z</time>
      </trkpt>
      <trkpt lat="46.725237" lon="8.957481">
        <ele>902.058220</ele>
        <time>2022-01-06T22:46:28.522Z</time>
      </trkpt>
      <trkpt lat="46.725816" lon="8.958193">
        <ele>895.845884</ele>
        <time>2022-01-06T22:46:48.230Z</time>
      </trkpt>
      <trkpt lat="46.726000" lon="8.958603">
        <ele>894.560482</ele>
        <time>2022-01-06T22:46:58.079Z</time>
      </trkpt>
      <trkpt lat="46.726204" lon="8.959302">
        <ele>892.663863</ele>
        <time>2022-01-06T22:47:13.378Z</time>
      </trkpt>
      <trkpt lat="46.726313" lon="8.959487">
        <ele>892.054855</ele>
        <time>2022-01-06T22:47:18.468Z</time>
      </trkpt>
      <trkpt lat="46.726547" lon="8.959683">
        <ele>891.072163</ele>
        <time>2022-01-06T22:47:26.508Z</time>
      </trkpt>
      <trkpt lat="46.726664" lon="8.959652">
        <ele>890.639087</ele>
        <time>2022-01-06T22:47:30.054Z</time>
      </trkpt>
      <trkpt lat="46.726740" lon="8.959546">
        <ele>890.256155</ele>
        <time>2022-01-06T22:47:33.130Z</time>
      </trkpt>
      <trkpt lat="46.726926" lon="8.959600">
        <ele>889.565473</ele>
        <time>2022-01-06T22:47:38.704Z</time>
      </trkpt>
      <trkpt lat="46.727344" lon="8.960272">
        <ele>888.355719</ele>
        <time>2022-01-06T22:47:56.887Z</time>
      </trkpt>
      <trkpt lat="46.727804" lon="8.960728">
        <ele>887.465266</ele>
        <time>2022-01-06T22:48:13.653Z</time>
      </trkpt>
      <trkpt lat="46.728297" lon="8.961651">
        <ele>886.760283</ele>
        <time>2022-01-06T22:48:42.656Z</time>
      </trkpt>
      <trkpt lat="46.728365" lon="8.961904">
        <ele>887.866352</ele>
        <time>2022-01-06T22:48:51.227Z</time>
      </trkpt>
      <trkpt lat="46.728339" lon="8.962583">
        <ele>890.634264</ele>
        <time>2022-01-06T22:49:13.955Z</time>
      </trkpt>
      <trkpt lat="46.728368" lon="8.962699">
        <ele>891.136818</ele>
        <time>2022-01-06T22:49:18.628Z</time>
      </trkpt>
      <trkpt lat="46.728421" lon="8.962914">
        <ele>892.066758</ele>
        <time>2022-01-06T22:49:28.446Z</time>
      </trkpt>
      <trkpt lat="46.728246" lon="8.963680">
        <ele>895.353068</ele>
        <time>2022-01-06T22:50:11.496Z</time>
      </trkpt>
      <trkpt lat="46.728138" lon="8.963872">
        <ele>896.363971</ele>
        <time>2022-01-06T22:50:25.398Z</time>
      </trkpt>
      <trkpt lat="46.728031" lon="8.964282">
        <ele>898.226628</ele>
        <time>2022-01-06T22:50:47.193Z</time>
      </trkpt>
      <trkpt lat="46.728050" lon="8.964795">
        <ele>900.455879</ele>
        <time>2022-01-06T22:51:12.723Z</time>
      </trkpt>
      <trkpt lat="46.728163" lon="8.965442">
        <ele>903.353029</ele>
        <time>2022-01-06T22:51:44.796Z</time>
      </trkpt>
      <trkpt lat="46.728515" lon="8.966278">
        <ele>907.610288</ele>
        <time>2022-01-06T22:52:20.965Z</time>
      </trkpt>
      <trkpt lat="46.728896" lon="8.966752">
        <ele>907.099821</ele>
        <time>2022-01-06T22:52:44.450Z</time>
      </trkpt>
      <trkpt lat="46.729153" lon="8.966986">
        <ele>906.089088</ele>
        <time>2022-01-06T22:52:54.790Z</time>
      </trkpt>
      <trkpt lat="46.729278" lon="8.967057">
        <ele>905.641551</ele>
        <time>2022-01-06T22:52:58.321Z</time>
      </trkpt>
      <trkpt lat="46.729527" lon="8.967065">
        <ele>904.810596</ele>
        <time>2022-01-06T22:53:04.922Z</time>
      </trkpt>
      <trkpt lat="46.730322" lon="8.967809">
        <ele>900.977406</ele>
        <time>2022-01-06T22:53:29.737Z</time>
      </trkpt>
      <trkpt lat="46.731385" lon="8.968236">
        <ele>893.764040</ele>
        <time>2022-01-06T22:53:58.240Z</time>
      </trkpt>
      <trkpt lat="46.732384" lon="8.969067">
        <ele>889.200137</ele>
        <time>2022-01-06T22:54:29.313Z</time>
      </trkpt>
      <trkpt lat="46.732680" lon="8.969789">
        <ele>887.987782</ele>
        <time>2022-01-06T22:54:48.456Z</time>
      </trkpt>
      <trkpt lat="46.733254" lon="8.970776">
        <ele>886.936462</ele>
        <time>2022-01-06T22:55:25.301Z</time>
      </trkpt>
      <trkpt lat="46.733438" lon="8.971851">
        <ele>887.202960</ele>
        <time>2022-01-06T22:55:57.771Z</time>
      </trkpt>
      <trkpt lat="46.733729" lon="8.973781">
        <ele>885.318771</ele>
        <time>2022-01-06T22:56:43.972Z</time>
      </trkpt>
      <trkpt lat="46.733767" lon="8.974030">
        <ele>884.742512</ele>
        <time>2022-01-06T22:56:49.016Z</time>
      </trkpt>
      <trkpt lat="46.733740" lon="8.974206">
        <ele>884.335095</ele>
        <time>2022-01-06T22:56:53.052Z</time>
      </trkpt>
      <trkpt lat="46.733797" lon="8.974553">
        <ele>883.529033</ele>
        <time>2022-01-06T22:56:59.804Z</time>
      </trkpt>
      <trkpt lat="46.734009" lon="8.974996">
        <ele>882.308512</ele>
        <time>2022-01-06T22:57:10.010Z</time>
      </trkpt>
      <trkpt lat="46.734363" lon="8.975445">
        <ele>880.069917</ele>
        <time>2022-01-06T22:57:22.647Z</time>
      </trkpt>
      <trkpt lat="46.734511" lon="8.975934">
        <ele>877.762683</ele>
        <time>2022-01-06T22:57:32.146Z</time>
      </trkpt>
      <trkpt lat="46.735051" lon="8.976278">
        <ele>874.052049</ele>
        <time>2022-01-06T22:57:40.715Z</time>
      </trkpt>
      <trkpt lat="46.735873" lon="8.976760">
        <ele>868.756063</ele>
        <time>2022-01-06T22:57:53.579Z</time>
      </trkpt>
      <trkpt lat="46.736217" lon="8.976711">
        <ele>866.936843</ele>
        <time>2022-01-06T22:57:58.490Z</time>
      </trkpt>
      <trkpt lat="46.736641" lon="8.976598">
        <ele>864.668236</ele>
        <time>2022-01-06T22:58:04.812Z</time>
      </trkpt>
      <trkpt lat="46.736769" lon="8.976781">
        <ele>863.725013</ele>
        <time>2022-01-06T22:58:07.513Z</time>
      </trkpt>
      <trkpt lat="46.736830" lon="8.977362">
        <ele>861.604732</ele>
        <time>2022-01-06T22:58:13.791Z</time>
      </trkpt>
      <trkpt lat="46.736984" lon="8.978516">
        <ele>859.456483</ele>
        <time>2022-01-06T22:58:27.668Z</time>
      </trkpt>
      <trkpt lat="46.737054" lon="8.978846">
        <ele>858.985245</ele>
        <time>2022-01-06T22:58:31.857Z</time>
      </trkpt>
      <trkpt lat="46.737939" lon="8.981091">
        <ele>856.084607</ele>
        <time>2022-01-06T22:59:04.557Z</time>
      </trkpt>
      <trkpt lat="46.738225" lon="8.981731">
        <ele>855.430769</ele>
        <time>2022-01-06T22:59:14.790Z</time>
      </trkpt>
      <trkpt lat="46.738876" lon="8.982926">
        <ele>854.223689</ele>
        <time>2022-01-06T22:59:34.613Z</time>
      </trkpt>
      <trkpt lat="46.739291" lon="8.983574">
        <ele>853.561480</ele>
        <time>2022-01-06T22:59:46.177Z</time>
      </trkpt>
      <trkpt lat="46.739284" lon="8.983627">
        <ele>853.521179</ele>
        <time>2022-01-06T22:59:46.894Z</time>
      </trkpt>
      <trkpt lat="46.739319" lon="8.984544">
        <ele>852.853050</ele>
        <time>2022-01-06T22:59:58.960Z</time>
      </trkpt>
      <trkpt lat="46.739371" lon="8.984801">
        <ele>852.685568</ele>
        <time>2022-01-06T23:00:02.536Z</time>
      </trkpt>
      <trkpt lat="46.739716" lon="8.985559">
        <ele>852.116849</ele>
        <time>2022-01-06T23:00:14.566Z</time>
      </trkpt>
      <trkpt lat="46.740122" lon="8.986706">
        <ele>851.309994</ele>
        <time>2022-01-06T23:00:32.048Z</time>
      </trkpt>
      <trkpt lat="46.740700" lon="8.988010">
        <ele>850.485318</ele>
        <time>2022-01-06T23:00:53.158Z</time>
      </trkpt>
      <trkpt lat="46.740242" lon="8.988636">
        <ele>849.999663</ele>
        <time>2022-01-06T23:01:05.643Z</time>
      </trkpt>
      <trkpt lat="46.740430" lon="8.989208">
        <ele>849.626307</ele>
        <time>2022-01-06T23:01:14.246Z</time>
      </trkpt>
      <trkpt lat="46.740474" lon="8.989332">
        <ele>849.541229</ele>
        <time>2022-01-06T23:01:16.095Z</time>
      </trkpt>
      <trkpt lat="46.740993" lon="8.990639">
        <ele>848.620866</ele>
        <time>2022-01-06T23:01:36.094Z</time>
      </trkpt>
      <trkpt lat="46.741816" lon="8.993088">
        <ele>847.432965</ele>
        <time>2022-01-06T23:02:12.705Z</time>
      </trkpt>
      <trkpt lat="46.741923" lon="8.993424">
        <ele>847.286301</ele>
        <time>2022-01-06T23:02:18.885Z</time>
      </trkpt>
      <trkpt lat="46.741989" lon="8.993526">
        <ele>847.357682</ele>
        <time>2022-01-06T23:02:21.162Z</time>
      </trkpt>
      <trkpt lat="46.742082" lon="8.993568">
        <ele>847.470066</ele>
        <time>2022-01-06T23:02:23.470Z</time>
      </trkpt>
      <trkpt lat="46.742160" lon="8.993540">
        <ele>847.562794</ele>
        <time>2022-01-06T23:02:25.547Z</time>
      </trkpt>
      <trkpt lat="46.742253" lon="8.993495">
        <ele>847.675902</ele>
        <time>2022-01-06T23:02:27.939Z</time>
      </trkpt>
      <trkpt lat="46.742382" lon="8.993434">
        <ele>847.832443</ele>
        <time>2022-01-06T23:02:31.161Z</time>
      </trkpt>
      <trkpt lat="46.742878" lon="8.993204">
        <ele>848.433242</ele>
        <time>2022-01-06T23:02:44.651Z</time>
      </trkpt>
      <trkpt lat="46.743124" lon="8.993132">
        <ele>848.722881</ele>
        <time>2022-01-06T23:02:51.832Z</time>
      </trkpt>
      <trkpt lat="46.743217" lon="8.993129">
        <ele>848.830267</ele>
        <time>2022-01-06T23:02:54.576Z</time>
      </trkpt>
      <trkpt lat="46.743248" lon="8.994218">
        <ele>849.914781</ele>
        <time>2022-01-06T23:03:18.034Z</time>
      </trkpt>
      <trkpt lat="46.743249" lon="8.994266">
        <ele>849.977387</ele>
        <time>2022-01-06T23:03:18.937Z</time>
      </trkpt>
      <trkpt lat="46.743298" lon="8.994286">
        <ele>850.074186</ele>
        <time>2022-01-06T23:03:20.740Z</time>
      </trkpt>
      <trkpt lat="46.743407" lon="8.994828">
        <ele>850.810587</ele>
        <time>2022-01-06T23:03:32.664Z</time>
      </trkpt>
      <trkpt lat="46.743603" lon="8.995111">
        <ele>851.335145</ele>
        <time>2022-01-06T23:03:40.560Z</time>
      </trkpt>
      <trkpt lat="46.743768" lon="8.995479">
        <ele>851.908471</ele>
        <time>2022-01-06T23:03:48.931Z</time>
      </trkpt>
      <trkpt lat="46.744160" lon="8.997181">
        <ele>853.282820</ele>
        <time>2022-01-06T23:04:25.348Z</time>
      </trkpt>
      <trkpt lat="46.744356" lon="8.997516">
        <ele>853.481564</ele>
        <time>2022-01-06T23:04:33.526Z</time>
      </trkpt>
      <trkpt lat="46.744413" lon="8.997571">
        <ele>853.526556</ele>
        <time>2022-01-06T23:04:35.218Z</time>
      </trkpt>
      <trkpt lat="46.744948" lon="8.997828">
        <ele>853.897403</ele>
        <time>2022-01-06T23:04:47.495Z</time>
      </trkpt>
      <trkpt lat="46.745165" lon="8.998152">
        <ele>853.321159</ele>
        <time>2022-01-06T23:04:53.225Z</time>
      </trkpt>
      <trkpt lat="46.745738" lon="8.999031">
        <ele>850.946836</ele>
        <time>2022-01-06T23:05:07.057Z</time>
      </trkpt>
      <trkpt lat="46.745699" lon="8.999392">
        <ele>850.231614</ele>
        <time>2022-01-06T23:05:11.011Z</time>
      </trkpt>
      <trkpt lat="46.745547" lon="9.000332">
        <ele>848.343193</ele>
        <time>2022-01-06T23:05:21.431Z</time>
      </trkpt>
      <trkpt lat="46.745437" lon="9.000636">
        <ele>847.672843</ele>
        <time>2022-01-06T23:05:25.168Z</time>
      </trkpt>
      <trkpt lat="46.745246" lon="9.000911">
        <ele>846.909330</ele>
        <time>2022-01-06T23:05:29.464Z</time>
      </trkpt>
      <trkpt lat="46.745429" lon="9.001630">
        <ele>845.413735</ele>
        <time>2022-01-06T23:05:38.059Z</time>
      </trkpt>
      <trkpt lat="46.745420" lon="9.002083">
        <ele>844.530043</ele>
        <time>2022-01-06T23:05:43.431Z</time>
      </trkpt>
      <trkpt lat="46.745352" lon="9.002331">
        <ele>844.009181</ele>
        <time>2022-01-06T23:05:46.739Z</time>
      </trkpt>
      <trkpt lat="46.745062" lon="9.003091">
        <ele>843.200734</ele>
        <time>2022-01-06T23:05:57.853Z</time>
      </trkpt>
      <trkpt lat="46.744943" lon="9.003596">
        <ele>842.825747</ele>
        <time>2022-01-06T23:06:04.876Z</time>
      </trkpt>
      <trkpt lat="46.744888" lon="9.004017">
        <ele>842.524800</ele>
        <time>2022-01-06T23:06:10.538Z</time>
      </trkpt>
      <trkpt lat="46.744932" lon="9.004928">
        <ele>841.883517</ele>
        <time>2022-01-06T23:06:23.432Z</time>
      </trkpt>
      <trkpt lat="46.745056" lon="9.004966">
        <ele>841.817031</ele>
        <time>2022-01-06T23:06:25.770Z</time>
      </trkpt>
      <trkpt lat="46.745194" lon="9.005252">
        <ele>841.721685</ele>
        <time>2022-01-06T23:06:30.999Z</time>
      </trkpt>
      <trkpt lat="46.745441" lon="9.005478">
        <ele>841.605717</ele>
        <time>2022-01-06T23:06:36.888Z</time>
      </trkpt>
      <trkpt lat="46.745636" lon="9.005863">
        <ele>841.475218</ele>
        <time>2022-01-06T23:06:43.606Z</time>
      </trkpt>
      <trkpt lat="46.745848" lon="9.006240">
        <ele>841.342283</ele>
        <time>2022-01-06T23:06:55.508Z</time>
      </trkpt>
      <trkpt lat="46.746068" lon="9.007193">
        <ele>840.922993</ele>
        <time>2022-01-06T23:07:20.821Z</time>
      </trkpt>
      <trkpt lat="46.746090" lon="9.007446">
        <ele>840.716319</ele>
        <time>2022-01-06T23:07:27.312Z</time>
      </trkpt>
      <trkpt lat="46.746083" lon="9.007898">
        <ele>840.349927</ele>
        <time>2022-01-06T23:07:38.469Z</time>
      </trkpt>
      <trkpt lat="46.746008" lon="9.008216">
        <ele>840.077383</ele>
        <time>2022-01-06T23:07:46.423Z</time>
      </trkpt>
      <trkpt lat="46.745957" lon="9.009522">
        <ele>839.017287</ele>
        <time>2022-01-06T23:08:14.956Z</time>
      </trkpt>
      <trkpt lat="46.745686" lon="9.010532">
        <ele>836.996287</ele>
        <time>2022-01-06T23:08:37.384Z</time>
      </trkpt>
      <trkpt lat="46.745813" lon="9.011867">
        <ele>834.480605</ele>
        <time>2022-01-06T23:09:04.945Z</time>
      </trkpt>
      <trkpt lat="46.745773" lon="9.012072">
        <ele>834.088565</ele>
        <time>2022-01-06T23:09:09.311Z</time>
      </trkpt>
      <trkpt lat="46.745573" lon="9.012460">
        <ele>833.344058</ele>
        <time>2022-01-06T23:09:19.128Z</time>
      </trkpt>
      <trkpt lat="46.745421" lon="9.013472">
        <ele>831.755396</ele>
        <time>2022-01-06T23:09:41.140Z</time>
      </trkpt>
      <trkpt lat="46.745440" lon="9.013819">
        <ele>831.221603</ele>
        <time>2022-01-06T23:09:48.569Z</time>
      </trkpt>
      <trkpt lat="46.745515" lon="9.014073">
        <ele>830.797492</ele>
        <time>2022-01-06T23:09:54.867Z</time>
      </trkpt>
      <trkpt lat="46.745618" lon="9.014242">
        <ele>830.450672</ele>
        <time>2022-01-06T23:09:59.581Z</time>
      </trkpt>
      <trkpt lat="46.745631" lon="9.014357">
        <ele>830.271946</ele>
        <time>2022-01-06T23:10:01.120Z</time>
      </trkpt>
      <trkpt lat="46.745706" lon="9.014937">
        <ele>829.537253</ele>
        <time>2022-01-06T23:10:14.397Z</time>
      </trkpt>
      <trkpt lat="46.745890" lon="9.015249">
        <ele>829.054706</ele>
        <time>2022-01-06T23:10:23.458Z</time>
      </trkpt>
      <trkpt lat="46.745981" lon="9.015825">
        <ele>828.361773</ele>
        <time>2022-01-06T23:10:36.659Z</time>
      </trkpt>
      <trkpt lat="46.746007" lon="9.017593">
        <ele>825.949896</ele>
        <time>2022-01-06T23:11:15.202Z</time>
      </trkpt>
      <trkpt lat="46.745934" lon="9.018676">
        <ele>824.077613</ele>
        <time>2022-01-06T23:11:37.832Z</time>
      </trkpt>
      <trkpt lat="46.745972" lon="9.019937">
        <ele>821.850402</ele>
        <time>2022-01-06T23:12:03.712Z</time>
      </trkpt>
      <trkpt lat="46.746316" lon="9.023224">
        <ele>816.146986</ele>
        <time>2022-01-06T23:13:12.644Z</time>
      </trkpt>
      <trkpt lat="46.746317" lon="9.023759">
        <ele>815.424497</ele>
        <time>2022-01-06T23:13:24.305Z</time>
      </trkpt>
      <trkpt lat="46.746477" lon="9.024873">
        <ele>813.955107</ele>
        <time>2022-01-06T23:13:49.780Z</time>
      </trkpt>
      <trkpt lat="46.746488" lon="9.025277">
        <ele>813.705764</ele>
        <time>2022-01-06T23:13:59.022Z</time>
      </trkpt>
      <trkpt lat="46.746974" lon="9.027946">
        <ele>812.453017</ele>
        <time>2022-01-06T23:15:03.890Z</time>
      </trkpt>
      <trkpt lat="46.746816" lon="9.028406">
        <ele>812.501586</ele>
        <time>2022-01-06T23:15:16.891Z</time>
      </trkpt>
      <trkpt lat="46.746877" lon="9.029447">
        <ele>812.600205</ele>
        <time>2022-01-06T23:15:44.919Z</time>
      </trkpt>
      <trkpt lat="46.746997" lon="9.030160">
        <ele>812.841104</ele>
        <time>2022-01-06T23:16:05.499Z</time>
      </trkpt>
      <trkpt lat="46.747459" lon="9.031256">
        <ele>813.693823</ele>
        <time>2022-01-06T23:16:41.414Z</time>
      </trkpt>
      <trkpt lat="46.747390" lon="9.031588">
        <ele>813.923727</ele>
        <time>2022-01-06T23:16:51.685Z</time>
      </trkpt>
      <trkpt lat="46.747364" lon="9.032309">
        <ele>814.385871</ele>
        <time>2022-01-06T23:17:11.789Z</time>
      </trkpt>
      <trkpt lat="46.747450" lon="9.032386">
        <ele>814.410151</ele>
        <time>2022-01-06T23:17:16.116Z</time>
      </trkpt>
      <trkpt lat="46.747607" lon="9.032398">
        <ele>814.447984</ele>
        <time>2022-01-06T23:17:22.748Z</time>
      </trkpt>
      <trkpt lat="46.747692" lon="9.032477">
        <ele>814.472235</ele>
        <time>2022-01-06T23:17:26.315Z</time>
      </trkpt>
      <trkpt lat="46.747661" lon="9.032832">
        <ele>814.531245</ele>
        <time>2022-01-06T23:17:36.457Z</time>
      </trkpt>
      <trkpt lat="46.748283" lon="9.033951">
        <ele>814.768837</ele>
        <time>2022-01-06T23:18:13.991Z</time>
      </trkpt>
      <trkpt lat="46.748992" lon="9.035965">
        <ele>812.845811</ele>
        <time>2022-01-06T23:19:05.976Z</time>
      </trkpt>
      <trkpt lat="46.749534" lon="9.036908">
        <ele>811.403355</ele>
        <time>2022-01-06T23:19:31.416Z</time>
      </trkpt>
      <trkpt lat="46.749947" lon="9.037263">
        <ele>810.447305</ele>
        <time>2022-01-06T23:19:45.967Z</time>
      </trkpt>
      <trkpt lat="46.749979" lon="9.037914">
        <ele>809.555295</ele>
        <time>2022-01-06T23:19:53.724Z</time>
      </trkpt>
      <trkpt lat="46.750152" lon="9.038787">
        <ele>808.597438</ele>
        <time>2022-01-06T23:20:05.314Z</time>
      </trkpt>
      <trkpt lat="46.750286" lon="9.040844">
        <ele>808.257768</ele>
        <time>2022-01-06T23:20:38.767Z</time>
      </trkpt>
      <trkpt lat="46.750490" lon="9.042711">
        <ele>805.932720</ele>
        <time>2022-01-06T23:21:03.688Z</time>
      </trkpt>
      <trkpt lat="46.750728" lon="9.043610">
        <ele>804.536350</ele>
        <time>2022-01-06T23:21:14.250Z</time>
      </trkpt>
      <trkpt lat="46.751118" lon="9.044414">
        <ele>801.916888</ele>
        <time>2022-01-06T23:21:24.597Z</time>
      </trkpt>
      <trkpt lat="46.751629" lon="9.045643">
        <ele>797.912511</ele>
        <time>2022-01-06T23:21:39.732Z</time>
      </trkpt>
      <trkpt lat="46.751730" lon="9.045834">
        <ele>797.240465</ele>
        <time>2022-01-06T23:21:42.308Z</time>
      </trkpt>
      <trkpt lat="46.752117" lon="9.047089">
        <ele>796.228890</ele>
        <time>2022-01-06T23:21:58.788Z</time>
      </trkpt>
      <trkpt lat="46.752359" lon="9.048238">
        <ele>795.446625</ele>
        <time>2022-01-06T23:22:18.014Z</time>
      </trkpt>
      <trkpt lat="46.752490" lon="9.049597">
        <ele>797.078291</ele>
        <time>2022-01-06T23:22:46.462Z</time>
      </trkpt>
      <trkpt lat="46.752526" lon="9.050406">
        <ele>798.160847</ele>
        <time>2022-01-06T23:23:05.038Z</time>
      </trkpt>
      <trkpt lat="46.752744" lon="9.052511">
        <ele>799.318919</ele>
        <time>2022-01-06T23:23:46.803Z</time>
      </trkpt>
      <trkpt lat="46.752871" lon="9.053656">
        <ele>799.376736</ele>
        <time>2022-01-06T23:24:13.378Z</time>
      </trkpt>
      <trkpt lat="46.752977" lon="9.053937">
        <ele>798.774991</ele>
        <time>2022-01-06T23:24:20.267Z</time>
      </trkpt>
      <trkpt lat="46.753455" lon="9.055817">
        <ele>795.013297</ele>
        <time>2022-01-06T23:25:00.803Z</time>
      </trkpt>
      <trkpt lat="46.753537" lon="9.056553">
        <ele>793.762941</ele>
        <time>2022-01-06T23:25:16.036Z</time>
      </trkpt>
      <trkpt lat="46.753597" lon="9.057802">
        <ele>791.742046</ele>
        <time>2022-01-06T23:25:42.340Z</time>
      </trkpt>
      <trkpt lat="46.753749" lon="9.058696">
        <ele>790.765163</ele>
        <time>2022-01-06T23:26:01.987Z</time>
      </trkpt>
      <trkpt lat="46.753749" lon="9.058696">
        <ele>790.765163</ele>
        <time>2022-01-06T23:26:01.989Z</time>
      </trkpt>
      <trkpt lat="46.753890" lon="9.059007">
        <ele>791.818828</ele>
        <time>2022-01-06T23:26:10.306Z</time>
      </trkpt>
      <trkpt lat="46.754119" lon="9.059093">
        <ele>792.793950</ele>
        <time>2022-01-06T23:26:18.315Z</time>
      </trkpt>
      <trkpt lat="46.753978" lon="9.058890">
        <ele>793.610689</ele>
        <time>2022-01-06T23:26:25.479Z</time>
      </trkpt>
      <trkpt lat="46.753850" lon="9.058542">
        <ele>794.726656</ele>
        <time>2022-01-06T23:26:37.931Z</time>
      </trkpt>
      <trkpt lat="46.753840" lon="9.058069">
        <ele>796.063704</ele>
        <time>2022-01-06T23:26:58.163Z</time>
      </trkpt>
      <trkpt lat="46.754096" lon="9.058590">
        <ele>797.885938</ele>
        <time>2022-01-06T23:27:21.871Z</time>
      </trkpt>
      <trkpt lat="46.754084" lon="9.058857">
        <ele>799.117456</ele>
        <time>2022-01-06T23:27:30.311Z</time>
      </trkpt>
      <trkpt lat="46.754064" lon="9.058893">
        <ele>799.330774</ele>
        <time>2022-01-06T23:27:32.004Z</time>
      </trkpt>
      <trkpt lat="46.753540" lon="9.059660">
        <ele>804.316066</ele>
        <time>2022-01-06T23:28:11.136Z</time>
      </trkpt>
      <trkpt lat="46.753483" lon="9.059749">
        <ele>804.876795</ele>
        <time>2022-01-06T23:28:16.881Z</time>
      </trkpt>
      <trkpt lat="46.753746" lon="9.060209">
        <ele>807.634318</ele>
        <time>2022-01-06T23:28:36.758Z</time>
      </trkpt>
      <trkpt lat="46.753806" lon="9.060383">
        <ele>808.530875</ele>
        <time>2022-01-06T23:28:42.601Z</time>
      </trkpt>
      <trkpt lat="46.753825" lon="9.060439">
        <ele>808.818491</ele>
        <time>2022-01-06T23:28:44.689Z</time>
      </trkpt>
      <trkpt lat="46.754002" lon="9.060985">
        <ele>809.773451</ele>
        <time>2022-01-06T23:29:04.760Z</time>
      </trkpt>
      <trkpt lat="46.754319" lon="9.062274">
        <ele>809.136931</ele>
        <time>2022-01-06T23:29:21.683Z</time>
      </trkpt>
      <trkpt lat="46.754259" lon="9.063587">
        <ele>807.306839</ele>
        <time>2022-01-06T23:29:36.411Z</time>
      </trkpt>
      <trkpt lat="46.754678" lon="9.066477">
        <ele>797.855440</ele>
        <time>2022-01-06T23:30:06.587Z</time>
      </trkpt>
      <trkpt lat="46.754795" lon="9.066685">
        <ele>797.124215</ele>
        <time>2022-01-06T23:30:09.304Z</time>
      </trkpt>
      <trkpt lat="46.755150" lon="9.066691">
        <ele>795.716258</ele>
        <time>2022-01-06T23:30:14.599Z</time>
      </trkpt>
      <trkpt lat="46.755422" lon="9.066840">
        <ele>794.564091</ele>
        <time>2022-01-06T23:30:18.980Z</time>
      </trkpt>
      <trkpt lat="46.755702" lon="9.067024">
        <ele>793.346314</ele>
        <time>2022-01-06T23:30:24.277Z</time>
      </trkpt>
      <trkpt lat="46.755538" lon="9.067426">
        <ele>793.315636</ele>
        <time>2022-01-06T23:30:36.283Z</time>
      </trkpt>
      <trkpt lat="46.755055" lon="9.068114">
        <ele>795.503272</ele>
        <time>2022-01-06T23:31:05.623Z</time>
      </trkpt>
      <trkpt lat="46.755028" lon="9.068345">
        <ele>796.023692</ele>
        <time>2022-01-06T23:31:13.900Z</time>
      </trkpt>
      <trkpt lat="46.755014" lon="9.068529">
        <ele>796.434833</ele>
        <time>2022-01-06T23:31:20.449Z</time>
      </trkpt>
      <trkpt lat="46.754913" lon="9.068881">
        <ele>797.282348</ele>
        <time>2022-01-06T23:31:37.490Z</time>
      </trkpt>
      <trkpt lat="46.754899" lon="9.069296">
        <ele>798.205104</ele>
        <time>2022-01-06T23:31:56.297Z</time>
      </trkpt>
      <trkpt lat="46.754653" lon="9.070390">
        <ele>800.945899</ele>
        <time>2022-01-06T23:32:44.492Z</time>
      </trkpt>
      <trkpt lat="46.754649" lon="9.070741">
        <ele>801.791389</ele>
        <time>2022-01-06T23:32:58.449Z</time>
      </trkpt>
      <trkpt lat="46.754808" lon="9.071371">
        <ele>803.408399</ele>
        <time>2022-01-06T23:33:21.245Z</time>
      </trkpt>
      <trkpt lat="46.755134" lon="9.073214">
        <ele>802.649239</ele>
        <time>2022-01-06T23:34:06.652Z</time>
      </trkpt>
      <trkpt lat="46.755281" lon="9.073821">
        <ele>801.511316</ele>
        <time>2022-01-06T23:34:19.266Z</time>
      </trkpt>
      <trkpt lat="46.755416" lon="9.074322">
        <ele>800.559774</ele>
        <time>2022-01-06T23:34:29.505Z</time>
      </trkpt>
      <trkpt lat="46.755760" lon="9.075205">
        <ele>796.924213</ele>
        <time>2022-01-06T23:34:48.274Z</time>
      </trkpt>
      <trkpt lat="46.756100" lon="9.076561">
        <ele>791.254132</ele>
        <time>2022-01-06T23:35:14.234Z</time>
      </trkpt>
      <trkpt lat="46.756357" lon="9.079253">
        <ele>783.397838</ele>
        <time>2022-01-06T23:36:06.329Z</time>
      </trkpt>
      <trkpt lat="46.756305" lon="9.080174">
        <ele>782.729768</ele>
        <time>2022-01-06T23:36:27.438Z</time>
      </trkpt>
      <trkpt lat="46.756184" lon="9.080295">
        <ele>782.724094</ele>
        <time>2022-01-06T23:36:32.148Z</time>
      </trkpt>
      <trkpt lat="46.756129" lon="9.080305">
        <ele>782.721950</ele>
        <time>2022-01-06T23:36:34.808Z</time>
      </trkpt>
      <trkpt lat="46.756062" lon="9.080334">
        <ele>782.719247</ele>
        <time>2022-01-06T23:36:37.965Z</time>
      </trkpt>
      <trkpt lat="46.756015" lon="9.080500">
        <ele>782.714487</ele>
        <time>2022-01-06T23:36:41.853Z</time>
      </trkpt>
      <trkpt lat="46.756174" lon="9.082208">
        <ele>783.155946</ele>
        <time>2022-01-06T23:37:31.335Z</time>
      </trkpt>
      <trkpt lat="46.756230" lon="9.084042">
        <ele>785.573899</ele>
        <time>2022-01-06T23:38:28.346Z</time>
      </trkpt>
      <trkpt lat="46.756423" lon="9.085787">
        <ele>788.194878</ele>
        <time>2022-01-06T23:39:23.712Z</time>
      </trkpt>
      <trkpt lat="46.756445" lon="9.086209">
        <ele>788.844761</ele>
        <time>2022-01-06T23:39:36.962Z</time>
      </trkpt>
      <trkpt lat="46.756368" lon="9.087061">
        <ele>790.164399</ele>
        <time>2022-01-06T23:40:04.498Z</time>
      </trkpt>
      <trkpt lat="46.756409" lon="9.087994">
        <ele>791.669532</ele>
        <time>2022-01-06T23:40:34.663Z</time>
      </trkpt>
      <trkpt lat="46.756539" lon="9.089112">
        <ele>793.495343</ele>
        <time>2022-01-06T23:41:10.868Z</time>
      </trkpt>
      <trkpt lat="46.756553" lon="9.090419">
        <ele>795.329474</ele>
        <time>2022-01-06T23:41:51.838Z</time>
      </trkpt>
      <trkpt lat="46.756672" lon="9.091614">
        <ele>796.837371</ele>
        <time>2022-01-06T23:42:29.104Z</time>
      </trkpt>
      <trkpt lat="46.756762" lon="9.091836">
        <ele>797.159485</ele>
        <time>2022-01-06T23:42:36.266Z</time>
      </trkpt>
      <trkpt lat="46.756976" lon="9.092126">
        <ele>797.677882</ele>
        <time>2022-01-06T23:42:49.266Z</time>
      </trkpt>
      <trkpt lat="46.757122" lon="9.092453">
        <ele>797.803108</ele>
        <time>2022-01-06T23:43:01.048Z</time>
      </trkpt>
      <trkpt lat="46.757144" lon="9.092623">
        <ele>797.858614</ele>
        <time>2022-01-06T23:43:04.696Z</time>
      </trkpt>
      <trkpt lat="46.757180" lon="9.092820">
        <ele>797.924028</ele>
        <time>2022-01-06T23:43:10.488Z</time>
      </trkpt>
      <trkpt lat="46.757381" lon="9.093479">
        <ele>798.155463</ele>
        <time>2022-01-06T23:43:29.337Z</time>
      </trkpt>
      <trkpt lat="46.757535" lon="9.093697">
        <ele>798.255927</ele>
        <time>2022-01-06T23:43:36.405Z</time>
      </trkpt>
      <trkpt lat="46.758177" lon="9.094307">
        <ele>798.508033</ele>
        <time>2022-01-06T23:44:06.698Z</time>
      </trkpt>
      <trkpt lat="46.758348" lon="9.094632">
        <ele>798.498258</ele>
        <time>2022-01-06T23:44:18.719Z</time>
      </trkpt>
      <trkpt lat="46.758661" lon="9.094927">
        <ele>798.485286</ele>
        <time>2022-01-06T23:44:32.296Z</time>
      </trkpt>
      <trkpt lat="46.758823" lon="9.095197">
        <ele>798.476725</ele>
        <time>2022-01-06T23:44:40.768Z</time>
      </trkpt>
      <trkpt lat="46.759083" lon="9.096774">
        <ele>798.177691</ele>
        <time>2022-01-06T23:45:20.394Z</time>
      </trkpt>
      <trkpt lat="46.759089" lon="9.097755">
        <ele>797.741320</ele>
        <time>2022-01-06T23:45:44.233Z</time>
      </trkpt>
      <trkpt lat="46.759226" lon="9.098728">
        <ele>797.299480</ele>
        <time>2022-01-06T23:46:07.450Z</time>
      </trkpt>
      <trkpt lat="46.759631" lon="9.099257">
        <ele>796.830175</ele>
        <time>2022-01-06T23:46:25.522Z</time>
      </trkpt>
      <trkpt lat="46.759929" lon="9.099511">
        <ele>796.529009</ele>
        <time>2022-01-06T23:46:36.895Z</time>
      </trkpt>
      <trkpt lat="46.760618" lon="9.101005">
        <ele>795.611209</ele>
        <time>2022-01-06T23:47:19.460Z</time>
      </trkpt>
      <trkpt lat="46.761282" lon="9.101826">
        <ele>795.310849</ele>
        <time>2022-01-06T23:47:52.721Z</time>
      </trkpt>
      <trkpt lat="46.761474" lon="9.102245">
        <ele>795.191652</ele>
        <time>2022-01-06T23:48:05.380Z</time>
      </trkpt>
      <trkpt lat="46.761602" lon="9.102677">
        <ele>794.981076</ele>
        <time>2022-01-06T23:48:16.494Z</time>
      </trkpt>
      <trkpt lat="46.761743" lon="9.102846">
        <ele>794.472065</ele>
        <time>2022-01-06T23:48:22.538Z</time>
      </trkpt>
      <trkpt lat="46.761928" lon="9.103332">
        <ele>793.409414</ele>
        <time>2022-01-06T23:48:34.685Z</time>
      </trkpt>
      <trkpt lat="46.762029" lon="9.103746">
        <ele>792.569471</ele>
        <time>2022-01-06T23:48:43.865Z</time>
      </trkpt>
      <trkpt lat="46.762496" lon="9.104966">
        <ele>789.860262</ele>
        <time>2022-01-06T23:49:11.215Z</time>
      </trkpt>
      <trkpt lat="46.763184" lon="9.106087">
        <ele>786.366232</ele>
        <time>2022-01-06T23:49:40.185Z</time>
      </trkpt>
      <trkpt lat="46.763849" lon="9.108381">
        <ele>782.308889</ele>
        <time>2022-01-06T23:50:33.709Z</time>
      </trkpt>
      <trkpt lat="46.763976" lon="9.109610">
        <ele>780.872473</ele>
        <time>2022-01-06T23:51:02.504Z</time>
      </trkpt>
      <trkpt lat="46.763863" lon="9.110699">
        <ele>779.389299</ele>
        <time>2022-01-06T23:51:26.943Z</time>
      </trkpt>
      <trkpt lat="46.763877" lon="9.111084">
        <ele>778.870128</ele>
        <time>2022-01-06T23:51:35.290Z</time>
      </trkpt>
      <trkpt lat="46.763947" lon="9.111666">
        <ele>778.074419</ele>
        <time>2022-01-06T23:51:47.843Z</time>
      </trkpt>
      <trkpt lat="46.764063" lon="9.112020">
        <ele>777.545989</ele>
        <time>2022-01-06T23:51:55.850Z</time>
      </trkpt>
      <trkpt lat="46.764398" lon="9.112469">
        <ele>776.653952</ele>
        <time>2022-01-06T23:52:09.401Z</time>
      </trkpt>
      <trkpt lat="46.764892" lon="9.113424">
        <ele>775.046493</ele>
        <time>2022-01-06T23:52:34.485Z</time>
      </trkpt>
      <trkpt lat="46.765262" lon="9.114441">
        <ele>774.186503</ele>
        <time>2022-01-06T23:53:01.238Z</time>
      </trkpt>
      <trkpt lat="46.765519" lon="9.114667">
        <ele>774.563947</ele>
        <time>2022-01-06T23:53:12.663Z</time>
      </trkpt>
      <trkpt lat="46.765974" lon="9.114921">
        <ele>775.176781</ele>
        <time>2022-01-06T23:53:32.549Z</time>
      </trkpt>
      <trkpt lat="46.766320" lon="9.115316">
        <ele>775.729353</ele>
        <time>2022-01-06T23:53:52.057Z</time>
      </trkpt>
      <trkpt lat="46.766472" lon="9.115649">
        <ele>776.074187</ele>
        <time>2022-01-06T23:54:05.137Z</time>
      </trkpt>
      <trkpt lat="46.766484" lon="9.116216">
        <ele>777.107670</ele>
        <time>2022-01-06T23:54:25.435Z</time>
      </trkpt>
      <trkpt lat="46.766610" lon="9.116703">
        <ele>778.195630</ele>
        <time>2022-01-06T23:54:44.511Z</time>
      </trkpt>
      <trkpt lat="46.766795" lon="9.117085">
        <ele>779.173351</ele>
        <time>2022-01-06T23:55:01.797Z</time>
      </trkpt>
      <trkpt lat="46.767229" lon="9.118265">
        <ele>781.868991</ele>
        <time>2022-01-06T23:55:44.315Z</time>
      </trkpt>
      <trkpt lat="46.767542" lon="9.118911">
        <ele>782.959648</ele>
        <time>2022-01-06T23:56:08.447Z</time>
      </trkpt>
      <trkpt lat="46.768057" lon="9.119673">
        <ele>784.435141</ele>
        <time>2022-01-06T23:56:42.693Z</time>
      </trkpt>
      <trkpt lat="46.768121" lon="9.119874">
        <ele>784.740655</ele>
        <time>2022-01-06T23:56:50.573Z</time>
      </trkpt>
      <trkpt lat="46.768234" lon="9.120824">
        <ele>785.305497</ele>
        <time>2022-01-06T23:57:17.514Z</time>
      </trkpt>
      <trkpt lat="46.768449" lon="9.121924">
        <ele>785.340752</ele>
        <time>2022-01-06T23:57:48.046Z</time>
      </trkpt>
      <trkpt lat="46.768734" lon="9.123102">
        <ele>785.173063</ele>
        <time>2022-01-06T23:58:16.176Z</time>
      </trkpt>
      <trkpt lat="46.769099" lon="9.123913">
        <ele>784.604578</ele>
        <time>2022-01-06T23:58:37.679Z</time>
      </trkpt>
      <trkpt lat="46.769631" lon="9.124504">
        <ele>784.032826</ele>
        <time>2022-01-06T23:59:01.429Z</time>
      </trkpt>
      <trkpt lat="46.769781" lon="9.124750">
        <ele>783.839884</ele>
        <time>2022-01-06T23:59:09.673Z</time>
      </trkpt>
      <trkpt lat="46.770016" lon="9.125687">
        <ele>782.685111</ele>
        <time>2022-01-06T23:59:34.987Z</time>
      </trkpt>
      <trkpt lat="46.770046" lon="9.126201">
        <ele>782.083362</ele>
        <time>2022-01-06T23:59:46.298Z</time>
      </trkpt>
      <trkpt lat="46.769973" lon="9.126734">
        <ele>781.449314</ele>
        <time>2022-01-06T23:59:57.040Z</time>
      </trkpt>
      <trkpt lat="46.769987" lon="9.127034">
        <ele>781.098555</ele>
        <time>2022-01-07T00:00:03.146Z</time>
      </trkpt>
      <trkpt lat="46.770113" lon="9.127768">
        <ele>780.218720</ele>
        <time>2022-01-07T00:00:18.864Z</time>
      </trkpt>
      <trkpt lat="46.770548" lon="9.128460">
        <ele>779.128740</ele>
        <time>2022-01-07T00:00:38.760Z</time>
      </trkpt>
      <trkpt lat="46.770611" lon="9.128567">
        <ele>778.964999</ele>
        <time>2022-01-07T00:00:41.897Z</time>
      </trkpt>
      <trkpt lat="46.770866" lon="9.129026">
        <ele>778.279162</ele>
        <time>2022-01-07T00:00:55.575Z</time>
      </trkpt>
      <trkpt lat="46.771062" lon="9.129875">
        <ele>777.989604</ele>
        <time>2022-01-07T00:01:16.672Z</time>
      </trkpt>
      <trkpt lat="46.771041" lon="9.130133">
        <ele>778.158820</ele>
        <time>2022-01-07T00:01:24.144Z</time>
      </trkpt>
      <trkpt lat="46.770895" lon="9.130610">
        <ele>778.499098</ele>
        <time>2022-01-07T00:01:39.848Z</time>
      </trkpt>
      <trkpt lat="46.770846" lon="9.131106">
        <ele>778.825484</ele>
        <time>2022-01-07T00:01:56.452Z</time>
      </trkpt>
      <trkpt lat="46.771022" lon="9.131957">
        <ele>779.404454</ele>
        <time>2022-01-07T00:02:22.527Z</time>
      </trkpt>
      <trkpt lat="46.771180" lon="9.132167">
        <ele>779.194566</ele>
        <time>2022-01-07T00:02:30.482Z</time>
      </trkpt>
      <trkpt lat="46.771288" lon="9.132429">
        <ele>778.929815</ele>
        <time>2022-01-07T00:02:37.751Z</time>
      </trkpt>
      <trkpt lat="46.771591" lon="9.133454">
        <ele>777.963257</ele>
        <time>2022-01-07T00:03:02.694Z</time>
      </trkpt>
      <trkpt lat="46.771629" lon="9.135652">
        <ele>774.863673</ele>
        <time>2022-01-07T00:03:48.998Z</time>
      </trkpt>
      <trkpt lat="46.771747" lon="9.136101">
        <ele>773.993360</ele>
        <time>2022-01-07T00:03:59.326Z</time>
      </trkpt>
      <trkpt lat="46.772008" lon="9.136616">
        <ele>772.833972</ele>
        <time>2022-01-07T00:04:12.257Z</time>
      </trkpt>
      <trkpt lat="46.772272" lon="9.137901">
        <ele>770.606592</ele>
        <time>2022-01-07T00:04:39.258Z</time>
      </trkpt>
      <trkpt lat="46.772705" lon="9.138852">
        <ele>768.747307</ele>
        <time>2022-01-07T00:05:03.533Z</time>
      </trkpt>
      <trkpt lat="46.773000" lon="9.140075">
        <ele>768.180407</ele>
        <time>2022-01-07T00:05:33.908Z</time>
      </trkpt>
      <trkpt lat="46.773023" lon="9.141335">
        <ele>768.251826</ele>
        <time>2022-01-07T00:06:05.855Z</time>
      </trkpt>
      <trkpt lat="46.773339" lon="9.142637">
        <ele>770.107016</ele>
        <time>2022-01-07T00:06:48.950Z</time>
      </trkpt>
      <trkpt lat="46.773448" lon="9.143296">
        <ele>771.437767</ele>
        <time>2022-01-07T00:07:11.971Z</time>
      </trkpt>
      <trkpt lat="46.773519" lon="9.143935">
        <ele>772.708469</ele>
        <time>2022-01-07T00:07:34.675Z</time>
      </trkpt>
      <trkpt lat="46.773521" lon="9.144739">
        <ele>774.222459</ele>
        <time>2022-01-07T00:08:03.722Z</time>
      </trkpt>
      <trkpt lat="46.773743" lon="9.146333">
        <ele>777.175443</ele>
        <time>2022-01-07T00:09:00.527Z</time>
      </trkpt>
      <trkpt lat="46.773754" lon="9.147061">
        <ele>777.833200</ele>
        <time>2022-01-07T00:09:20.548Z</time>
      </trkpt>
      <trkpt lat="46.773828" lon="9.147186">
        <ele>777.463417</ele>
        <time>2022-01-07T00:09:25.378Z</time>
      </trkpt>
      <trkpt lat="46.774006" lon="9.148386">
        <ele>774.715488</ele>
        <time>2022-01-07T00:09:50.996Z</time>
      </trkpt>
      <trkpt lat="46.774227" lon="9.148909">
        <ele>773.340129</ele>
        <time>2022-01-07T00:10:02.484Z</time>
      </trkpt>
      <trkpt lat="46.774582" lon="9.151395">
        <ele>762.943764</ele>
        <time>2022-01-07T00:10:47.646Z</time>
      </trkpt>
      <trkpt lat="46.774388" lon="9.152788">
        <ele>758.000804</ele>
        <time>2022-01-07T00:11:13.807Z</time>
      </trkpt>
      <trkpt lat="46.774421" lon="9.153516">
        <ele>755.922518</ele>
        <time>2022-01-07T00:11:28.043Z</time>
      </trkpt>
      <trkpt lat="46.774546" lon="9.154259">
        <ele>753.743123</ele>
        <time>2022-01-07T00:11:43.811Z</time>
      </trkpt>
      <trkpt lat="46.774550" lon="9.154637">
        <ele>752.888062</ele>
        <time>2022-01-07T00:11:51.546Z</time>
      </trkpt>
      <trkpt lat="46.774507" lon="9.154972">
        <ele>752.515219</ele>
        <time>2022-01-07T00:11:58.467Z</time>
      </trkpt>
      <trkpt lat="46.773923" lon="9.157316">
        <ele>750.294633</ele>
        <time>2022-01-07T00:12:54.413Z</time>
      </trkpt>
      <trkpt lat="46.773748" lon="9.158815">
        <ele>750.934930</ele>
        <time>2022-01-07T00:13:38.222Z</time>
      </trkpt>
      <trkpt lat="46.773400" lon="9.160591">
        <ele>750.201954</ele>
        <time>2022-01-07T00:14:29.775Z</time>
      </trkpt>
      <trkpt lat="46.773272" lon="9.163853">
        <ele>744.226813</ele>
        <time>2022-01-07T00:15:35.963Z</time>
      </trkpt>
      <trkpt lat="46.773407" lon="9.165568">
        <ele>739.628630</ele>
        <time>2022-01-07T00:16:08.514Z</time>
      </trkpt>
      <trkpt lat="46.773315" lon="9.166337">
        <ele>737.487637</ele>
        <time>2022-01-07T00:16:23.480Z</time>
      </trkpt>
      <trkpt lat="46.772991" lon="9.167427">
        <ele>734.518699</ele>
        <time>2022-01-07T00:16:47.238Z</time>
      </trkpt>
      <trkpt lat="46.772827" lon="9.169201">
        <ele>732.834708</ele>
        <time>2022-01-07T00:17:26.975Z</time>
      </trkpt>
      <trkpt lat="46.772544" lon="9.170196">
        <ele>732.302505</ele>
        <time>2022-01-07T00:17:54.280Z</time>
      </trkpt>
      <trkpt lat="46.772245" lon="9.170631">
        <ele>732.460281</ele>
        <time>2022-01-07T00:18:11.522Z</time>
      </trkpt>
      <trkpt lat="46.772176" lon="9.170835">
        <ele>732.518528</ele>
        <time>2022-01-07T00:18:18.183Z</time>
      </trkpt>
      <trkpt lat="46.772024" lon="9.171717">
        <ele>732.751369</ele>
        <time>2022-01-07T00:18:43.441Z</time>
      </trkpt>
      <trkpt lat="46.771689" lon="9.172617">
        <ele>732.155378</ele>
        <time>2022-01-07T00:19:08.767Z</time>
      </trkpt>
      <trkpt lat="46.771651" lon="9.173734">
        <ele>730.708176</ele>
        <time>2022-01-07T00:19:32.739Z</time>
      </trkpt>
      <trkpt lat="46.771268" lon="9.175392">
        <ele>729.071594</ele>
        <time>2022-01-07T00:20:08.333Z</time>
      </trkpt>
      <trkpt lat="46.771272" lon="9.176588">
        <ele>728.467324</ele>
        <time>2022-01-07T00:20:38.483Z</time>
      </trkpt>
      <trkpt lat="46.771227" lon="9.176878">
        <ele>728.317092</ele>
        <time>2022-01-07T00:20:46.457Z</time>
      </trkpt>
      <trkpt lat="46.771137" lon="9.177179">
        <ele>728.151155</ele>
        <time>2022-01-07T00:20:54.950Z</time>
      </trkpt>
      <trkpt lat="46.770610" lon="9.178250">
        <ele>729.817834</ele>
        <time>2022-01-07T00:21:34.192Z</time>
      </trkpt>
      <trkpt lat="46.770452" lon="9.178684">
        <ele>730.444710</ele>
        <time>2022-01-07T00:21:50.161Z</time>
      </trkpt>
      <trkpt lat="46.770361" lon="9.179272">
        <ele>731.213576</ele>
        <time>2022-01-07T00:22:10.723Z</time>
      </trkpt>
      <trkpt lat="46.770326" lon="9.179717">
        <ele>731.702434</ele>
        <time>2022-01-07T00:22:25.136Z</time>
      </trkpt>
      <trkpt lat="46.770363" lon="9.180455">
        <ele>732.376697</ele>
        <time>2022-01-07T00:22:45.921Z</time>
      </trkpt>
      <trkpt lat="46.770278" lon="9.180853">
        <ele>732.756575</ele>
        <time>2022-01-07T00:22:56.823Z</time>
      </trkpt>
      <trkpt lat="46.770100" lon="9.181250">
        <ele>733.188938</ele>
        <time>2022-01-07T00:23:10.651Z</time>
      </trkpt>
      <trkpt lat="46.769832" lon="9.182066">
        <ele>733.817106</ele>
        <time>2022-01-07T00:23:37.634Z</time>
      </trkpt>
      <trkpt lat="46.769830" lon="9.182634">
        <ele>733.518067</ele>
        <time>2022-01-07T00:23:53.425Z</time>
      </trkpt>
      <trkpt lat="46.769888" lon="9.183078">
        <ele>733.280101</ele>
        <time>2022-01-07T00:24:04.545Z</time>
      </trkpt>
      <trkpt lat="46.769825" lon="9.184406">
        <ele>732.579273</ele>
        <time>2022-01-07T00:24:33.816Z</time>
      </trkpt>
      <trkpt lat="46.769877" lon="9.185094">
        <ele>731.524808</ele>
        <time>2022-01-07T00:24:48.196Z</time>
      </trkpt>
      <trkpt lat="46.770654" lon="9.187347">
        <ele>726.809496</ele>
        <time>2022-01-07T00:25:40.369Z</time>
      </trkpt>
      <trkpt lat="46.771020" lon="9.188718">
        <ele>723.400798</ele>
        <time>2022-01-07T00:26:11.158Z</time>
      </trkpt>
      <trkpt lat="46.771654" lon="9.190487">
        <ele>716.969463</ele>
        <time>2022-01-07T00:26:48.519Z</time>
      </trkpt>
      <trkpt lat="46.771793" lon="9.191023">
        <ele>714.840757</ele>
        <time>2022-01-07T00:26:58.921Z</time>
      </trkpt>
      <trkpt lat="46.771783" lon="9.191078">
        <ele>714.629404</ele>
        <time>2022-01-07T00:27:00.039Z</time>
      </trkpt>
      <trkpt lat="46.771871" lon="9.191149">
        <ele>714.084179</ele>
        <time>2022-01-07T00:27:01.594Z</time>
      </trkpt>
      <trkpt lat="46.772939" lon="9.193982">
        <ele>703.329275</ele>
        <time>2022-01-07T00:27:39.401Z</time>
      </trkpt>
      <trkpt lat="46.773429" lon="9.195392">
        <ele>700.988111</ele>
        <time>2022-01-07T00:28:00.839Z</time>
      </trkpt>
      <trkpt lat="46.773709" lon="9.196706">
        <ele>699.293281</ele>
        <time>2022-01-07T00:28:20.607Z</time>
      </trkpt>
      <trkpt lat="46.774054" lon="9.198286">
        <ele>698.326616</ele>
        <time>2022-01-07T00:28:42.489Z</time>
      </trkpt>
      <trkpt lat="46.774678" lon="9.201518">
        <ele>697.736409</ele>
        <time>2022-01-07T00:29:32.263Z</time>
      </trkpt>
      <trkpt lat="46.774649" lon="9.201645">
        <ele>697.762963</ele>
        <time>2022-01-07T00:29:34.366Z</time>
      </trkpt>
      <trkpt lat="46.774503" lon="9.201768">
        <ele>697.811780</ele>
        <time>2022-01-07T00:29:38.142Z</time>
      </trkpt>
      <trkpt lat="46.774222" lon="9.202293">
        <ele>697.943943</ele>
        <time>2022-01-07T00:29:48.800Z</time>
      </trkpt>
      <trkpt lat="46.774382" lon="9.202605">
        <ele>698.021254</ele>
        <time>2022-01-07T00:29:54.848Z</time>
      </trkpt>
      <trkpt lat="46.774522" lon="9.203141">
        <ele>698.135039</ele>
        <time>2022-01-07T00:30:04.619Z</time>
      </trkpt>
      <trkpt lat="46.774589" lon="9.203519">
        <ele>698.212486</ele>
        <time>2022-01-07T00:30:11.232Z</time>
      </trkpt>
      <trkpt lat="46.774654" lon="9.203886">
        <ele>698.260157</ele>
        <time>2022-01-07T00:30:17.766Z</time>
      </trkpt>
      <trkpt lat="46.774691" lon="9.204117">
        <ele>698.285355</ele>
        <time>2022-01-07T00:30:21.677Z</time>
      </trkpt>
      <trkpt lat="46.774716" lon="9.204589">
        <ele>698.335641</ele>
        <time>2022-01-07T00:30:29.005Z</time>
      </trkpt>
      <trkpt lat="46.774500" lon="9.204623">
        <ele>698.369336</ele>
        <time>2022-01-07T00:30:33.900Z</time>
      </trkpt>
      <trkpt lat="46.774306" lon="9.204691">
        <ele>698.400279</ele>
        <time>2022-01-07T00:30:38.370Z</time>
      </trkpt>
      <trkpt lat="46.774287" lon="9.204712">
        <ele>698.403975</ele>
        <time>2022-01-07T00:30:38.918Z</time>
      </trkpt>
      <trkpt lat="46.774267" lon="9.204745">
        <ele>698.408656</ele>
        <time>2022-01-07T00:30:39.578Z</time>
      </trkpt>
      <trkpt lat="46.774207" lon="9.204998">
        <ele>698.437095</ele>
        <time>2022-01-07T00:30:43.600Z</time>
      </trkpt>
      <trkpt lat="46.774233" lon="9.206066">
        <ele>698.318815</ele>
        <time>2022-01-07T00:30:59.560Z</time>
      </trkpt>
      <trkpt lat="46.774248" lon="9.206604">
        <ele>698.069266</ele>
        <time>2022-01-07T00:31:07.475Z</time>
      </trkpt>
      <trkpt lat="46.774267" lon="9.207174">
        <ele>697.804779</ele>
        <time>2022-01-07T00:31:15.295Z</time>
      </trkpt>
      <trkpt lat="46.774270" lon="9.207343">
        <ele>697.726428</ele>
        <time>2022-01-07T00:31:17.530Z</time>
      </trkpt>
      <trkpt lat="46.774296" lon="9.208047">
        <ele>697.399676</ele>
        <time>2022-01-07T00:31:26.735Z</time>
      </trkpt>
      <trkpt lat="46.774312" lon="9.208644">
        <ele>697.290893</ele>
        <time>2022-01-07T00:31:34.448Z</time>
      </trkpt>
      <trkpt lat="46.774314" lon="9.208723">
        <ele>697.291039</ele>
        <time>2022-01-07T00:31:35.479Z</time>
      </trkpt>
      <trkpt lat="46.774315" lon="9.208777">
        <ele>697.291138</ele>
        <time>2022-01-07T00:31:36.178Z</time>
      </trkpt>
      <trkpt lat="46.774326" lon="9.209195">
        <ele>697.291909</ele>
        <time>2022-01-07T00:31:41.632Z</time>
      </trkpt>
      <trkpt lat="46.774354" lon="9.210262">
        <ele>697.293875</ele>
        <time>2022-01-07T00:31:57.974Z</time>
      </trkpt>
      <trkpt lat="46.774361" lon="9.210516">
        <ele>697.294343</ele>
        <time>2022-01-07T00:32:02.562Z</time>
      </trkpt>
      <trkpt lat="46.774381" lon="9.211104">
        <ele>697.614117</ele>
        <time>2022-01-07T00:32:13.557Z</time>
      </trkpt>
      <trkpt lat="46.774385" lon="9.211269">
        <ele>697.881298</ele>
        <time>2022-01-07T00:32:16.666Z</time>
      </trkpt>
      <trkpt lat="46.774426" lon="9.212652">
        <ele>700.121451</ele>
        <time>2022-01-07T00:32:46.873Z</time>
      </trkpt>
      <trkpt lat="46.774489" lon="9.214813">
        <ele>703.943030</ele>
        <time>2022-01-07T00:33:37.926Z</time>
      </trkpt>
      <trkpt lat="46.774564" lon="9.214818">
        <ele>704.147881</ele>
        <time>2022-01-07T00:33:40.082Z</time>
      </trkpt>
      <trkpt lat="46.774597" lon="9.215815">
        <ele>706.013122</ele>
        <time>2022-01-07T00:34:01.885Z</time>
      </trkpt>
      <trkpt lat="46.774515" lon="9.215799">
        <ele>706.238849</ele>
        <time>2022-01-07T00:34:06.119Z</time>
      </trkpt>
      <trkpt lat="46.774472" lon="9.216330">
        <ele>707.213235</ele>
        <time>2022-01-07T00:34:17.906Z</time>
      </trkpt>
      <trkpt lat="46.774270" lon="9.216839">
        <ele>708.277841</ele>
        <time>2022-01-07T00:34:30.921Z</time>
      </trkpt>
      <trkpt lat="46.772955" lon="9.218561">
        <ele>712.913037</ele>
        <time>2022-01-07T00:35:29.293Z</time>
      </trkpt>
      <trkpt lat="46.772774" lon="9.218898">
        <ele>713.673711</ele>
        <time>2022-01-07T00:35:38.979Z</time>
      </trkpt>
      <trkpt lat="46.772663" lon="9.219383">
        <ele>714.581984</ele>
        <time>2022-01-07T00:35:50.647Z</time>
      </trkpt>
      <trkpt lat="46.772672" lon="9.219833">
        <ele>715.381608</ele>
        <time>2022-01-07T00:36:00.733Z</time>
      </trkpt>
      <trkpt lat="46.772785" lon="9.220303">
        <ele>716.183495</ele>
        <time>2022-01-07T00:36:11.630Z</time>
      </trkpt>
      <trkpt lat="46.773188" lon="9.220942">
        <ele>717.403930</ele>
        <time>2022-01-07T00:36:29.776Z</time>
      </trkpt>
      <trkpt lat="46.773316" lon="9.221145">
        <ele>717.791604</ele>
        <time>2022-01-07T00:36:35.565Z</time>
      </trkpt>
      <trkpt lat="46.773386" lon="9.221445">
        <ele>718.236884</ele>
        <time>2022-01-07T00:36:42.201Z</time>
      </trkpt>
      <trkpt lat="46.773429" lon="9.224365">
        <ele>721.482444</ele>
        <time>2022-01-07T00:37:40.922Z</time>
      </trkpt>
      <trkpt lat="46.773474" lon="9.225113">
        <ele>722.145388</ele>
        <time>2022-01-07T00:37:53.246Z</time>
      </trkpt>
      <trkpt lat="46.773540" lon="9.225392">
        <ele>722.243119</ele>
        <time>2022-01-07T00:37:58.720Z</time>
      </trkpt>
      <trkpt lat="46.773592" lon="9.225367">
        <ele>722.269585</ele>
        <time>2022-01-07T00:38:00.459Z</time>
      </trkpt>
      <trkpt lat="46.774486" lon="9.226856">
        <ele>722.925202</ele>
        <time>2022-01-07T00:38:33.238Z</time>
      </trkpt>
      <trkpt lat="46.774481" lon="9.226964">
        <ele>722.961041</ele>
        <time>2022-01-07T00:38:34.718Z</time>
      </trkpt>
      <trkpt lat="46.774969" lon="9.227914">
        <ele>723.515710</ele>
        <time>2022-01-07T00:38:54.347Z</time>
      </trkpt>
      <trkpt lat="46.775177" lon="9.228542">
        <ele>723.846476</ele>
        <time>2022-01-07T00:39:06.810Z</time>
      </trkpt>
      <trkpt lat="46.775322" lon="9.229191">
        <ele>724.170165</ele>
        <time>2022-01-07T00:39:18.463Z</time>
      </trkpt>
      <trkpt lat="46.775687" lon="9.230442">
        <ele>726.843581</ele>
        <time>2022-01-07T00:39:42.593Z</time>
      </trkpt>
      <trkpt lat="46.775861" lon="9.230822">
        <ele>727.806653</ele>
        <time>2022-01-07T00:39:53.568Z</time>
      </trkpt>
      <trkpt lat="46.776217" lon="9.231242">
        <ele>729.214646</ele>
        <time>2022-01-07T00:40:11.933Z</time>
      </trkpt>
      <trkpt lat="46.776172" lon="9.231415">
        <ele>729.604535</ele>
        <time>2022-01-07T00:40:17.729Z</time>
      </trkpt>
      <trkpt lat="46.775789" lon="9.232154">
        <ele>735.004946</ele>
        <time>2022-01-07T00:40:50.904Z</time>
      </trkpt>
      <trkpt lat="46.775627" lon="9.232556">
        <ele>737.872097</ele>
        <time>2022-01-07T00:41:10.279Z</time>
      </trkpt>
      <trkpt lat="46.775430" lon="9.233475">
        <ele>743.791466</ele>
        <time>2022-01-07T00:41:54.412Z</time>
      </trkpt>
      <trkpt lat="46.775415" lon="9.234337">
        <ele>748.043279</ele>
        <time>2022-01-07T00:42:31.048Z</time>
      </trkpt>
      <trkpt lat="46.775537" lon="9.235129">
        <ele>751.392440</ele>
        <time>2022-01-07T00:42:59.776Z</time>
      </trkpt>
      <trkpt lat="46.775757" lon="9.235843">
        <ele>754.622560</ele>
        <time>2022-01-07T00:43:22.183Z</time>
      </trkpt>
      <trkpt lat="46.776002" lon="9.236312">
        <ele>756.601358</ele>
        <time>2022-01-07T00:43:36.169Z</time>
      </trkpt>
      <trkpt lat="46.776089" lon="9.236680">
        <ele>755.910067</ele>
        <time>2022-01-07T00:43:42.840Z</time>
      </trkpt>
      <trkpt lat="46.776099" lon="9.237487">
        <ele>754.476854</ele>
        <time>2022-01-07T00:43:53.082Z</time>
      </trkpt>
      <trkpt lat="46.776348" lon="9.238226">
        <ele>753.014406</ele>
        <time>2022-01-07T00:44:02.356Z</time>
      </trkpt>
      <trkpt lat="46.777129" lon="9.239634">
        <ele>744.290318</ele>
        <time>2022-01-07T00:44:19.732Z</time>
      </trkpt>
      <trkpt lat="46.778003" lon="9.240654">
        <ele>735.122766</ele>
        <time>2022-01-07T00:44:34.891Z</time>
      </trkpt>
      <trkpt lat="46.778637" lon="9.241315">
        <ele>731.150303</ele>
        <time>2022-01-07T00:44:45.736Z</time>
      </trkpt>
      <trkpt lat="46.779144" lon="9.242350">
        <ele>727.218109</ele>
        <time>2022-01-07T00:45:01.437Z</time>
      </trkpt>
      <trkpt lat="46.779241" lon="9.242809">
        <ele>728.876492</ele>
        <time>2022-01-07T00:45:12.635Z</time>
      </trkpt>
      <trkpt lat="46.779279" lon="9.243273">
        <ele>730.489813</ele>
        <time>2022-01-07T00:45:25.158Z</time>
      </trkpt>
      <trkpt lat="46.779199" lon="9.245800">
        <ele>740.596701</ele>
        <time>2022-01-07T00:46:53.776Z</time>
      </trkpt>
      <trkpt lat="46.779842" lon="9.249554">
        <ele>758.407986</ele>
        <time>2022-01-07T00:49:09.173Z</time>
      </trkpt>
      <trkpt lat="46.780044" lon="9.250419">
        <ele>760.539067</ele>
        <time>2022-01-07T00:49:33.740Z</time>
      </trkpt>
      <trkpt lat="46.780483" lon="9.251605">
        <ele>760.953925</ele>
        <time>2022-01-07T00:49:57.465Z</time>
      </trkpt>
      <trkpt lat="46.780550" lon="9.252165">
        <ele>761.128857</ele>
        <time>2022-01-07T00:50:04.274Z</time>
      </trkpt>
      <trkpt lat="46.780576" lon="9.254754">
        <ele>755.486516</ele>
        <time>2022-01-07T00:50:32.002Z</time>
      </trkpt>
      <trkpt lat="46.780859" lon="9.256544">
        <ele>753.798096</ele>
        <time>2022-01-07T00:50:53.204Z</time>
      </trkpt>
      <trkpt lat="46.781370" lon="9.257402">
        <ele>753.249754</ele>
        <time>2022-01-07T00:51:13.852Z</time>
      </trkpt>
      <trkpt lat="46.781539" lon="9.257811">
        <ele>754.388824</ele>
        <time>2022-01-07T00:51:25.184Z</time>
      </trkpt>
      <trkpt lat="46.781787" lon="9.258693">
        <ele>756.662373</ele>
        <time>2022-01-07T00:51:50.130Z</time>
      </trkpt>
      <trkpt lat="46.781850" lon="9.259692">
        <ele>759.054589</ele>
        <time>2022-01-07T00:52:16.786Z</time>
      </trkpt>
      <trkpt lat="46.782027" lon="9.260792">
        <ele>761.228194</ele>
        <time>2022-01-07T00:52:45.456Z</time>
      </trkpt>
      <trkpt lat="46.782316" lon="9.261483">
        <ele>762.734389</ele>
        <time>2022-01-07T00:53:04.331Z</time>
      </trkpt>
      <trkpt lat="46.783287" lon="9.262664">
        <ele>765.359002</ele>
        <time>2022-01-07T00:53:38.946Z</time>
      </trkpt>
      <trkpt lat="46.784329" lon="9.263813">
        <ele>767.770400</ele>
        <time>2022-01-07T00:54:16.044Z</time>
      </trkpt>
      <trkpt lat="46.784498" lon="9.264355">
        <ele>769.142174</ele>
        <time>2022-01-07T00:54:29.821Z</time>
      </trkpt>
      <trkpt lat="46.784626" lon="9.265086">
        <ele>770.880121</ele>
        <time>2022-01-07T00:54:47.784Z</time>
      </trkpt>
      <trkpt lat="46.784761" lon="9.265360">
        <ele>771.657643</ele>
        <time>2022-01-07T00:54:56.545Z</time>
      </trkpt>
      <trkpt lat="46.784936" lon="9.265560">
        <ele>772.405143</ele>
        <time>2022-01-07T00:55:04.655Z</time>
      </trkpt>
      <trkpt lat="46.785349" lon="9.265867">
        <ele>774.679644</ele>
        <time>2022-01-07T00:55:24.207Z</time>
      </trkpt>
      <trkpt lat="46.785519" lon="9.266119">
        <ele>776.189743</ele>
        <time>2022-01-07T00:55:35.417Z</time>
      </trkpt>
      <trkpt lat="46.785775" lon="9.266651">
        <ele>778.965422</ele>
        <time>2022-01-07T00:55:57.947Z</time>
      </trkpt>
      <trkpt lat="46.785966" lon="9.267339">
        <ele>782.134512</ele>
        <time>2022-01-07T00:56:23.240Z</time>
      </trkpt>
      <trkpt lat="46.786256" lon="9.268033">
        <ele>785.429525</ele>
        <time>2022-01-07T00:56:50.206Z</time>
      </trkpt>
      <trkpt lat="46.786431" lon="9.268657">
        <ele>787.908986</ele>
        <time>2022-01-07T00:57:11.374Z</time>
      </trkpt>
      <trkpt lat="46.786470" lon="9.269704">
        <ele>791.764515</ele>
        <time>2022-01-07T00:57:44.050Z</time>
      </trkpt>
      <trkpt lat="46.786389" lon="9.270325">
        <ele>794.035370</ele>
        <time>2022-01-07T00:58:01.044Z</time>
      </trkpt>
      <trkpt lat="46.786238" lon="9.270756">
        <ele>794.773542</ele>
        <time>2022-01-07T00:58:12.356Z</time>
      </trkpt>
      <trkpt lat="46.786226" lon="9.270971">
        <ele>795.102441</ele>
        <time>2022-01-07T00:58:16.972Z</time>
      </trkpt>
      <trkpt lat="46.786354" lon="9.271311">
        <ele>795.694028</ele>
        <time>2022-01-07T00:58:25.306Z</time>
      </trkpt>
      <trkpt lat="46.786584" lon="9.271627">
        <ele>796.397188</ele>
        <time>2022-01-07T00:58:34.755Z</time>
      </trkpt>
      <trkpt lat="46.786693" lon="9.272007">
        <ele>797.025357</ele>
        <time>2022-01-07T00:58:43.035Z</time>
      </trkpt>
      <trkpt lat="46.786929" lon="9.276279">
        <ele>801.064046</ele>
        <time>2022-01-07T01:00:00.856Z</time>
      </trkpt>
      <trkpt lat="46.787007" lon="9.277696">
        <ele>802.587916</ele>
        <time>2022-01-07T01:00:29.702Z</time>
      </trkpt>
      <trkpt lat="46.787035" lon="9.278208">
        <ele>803.224624</ele>
        <time>2022-01-07T01:00:40.238Z</time>
      </trkpt>
      <trkpt lat="46.787077" lon="9.278981">
        <ele>804.260380</ele>
        <time>2022-01-07T01:00:56.451Z</time>
      </trkpt>
      <trkpt lat="46.787233" lon="9.279813">
        <ele>805.412610</ele>
        <time>2022-01-07T01:01:14.402Z</time>
      </trkpt>
      <trkpt lat="46.787431" lon="9.280548">
        <ele>806.450784</ele>
        <time>2022-01-07T01:01:30.431Z</time>
      </trkpt>
      <trkpt lat="46.787427" lon="9.280929">
        <ele>806.909484</ele>
        <time>2022-01-07T01:01:38.080Z</time>
      </trkpt>
      <trkpt lat="46.787418" lon="9.281300">
        <ele>807.356371</ele>
        <time>2022-01-07T01:01:45.477Z</time>
      </trkpt>
      <trkpt lat="46.787483" lon="9.281662">
        <ele>807.806879</ele>
        <time>2022-01-07T01:01:52.861Z</time>
      </trkpt>
      <trkpt lat="46.787534" lon="9.281936">
        <ele>808.148688</ele>
        <time>2022-01-07T01:01:58.238Z</time>
      </trkpt>
      <trkpt lat="46.787642" lon="9.282440">
        <ele>808.784417</ele>
        <time>2022-01-07T01:02:08.646Z</time>
      </trkpt>
      <trkpt lat="46.787697" lon="9.282573">
        <ele>808.971455</ele>
        <time>2022-01-07T01:02:11.842Z</time>
      </trkpt>
      <trkpt lat="46.787764" lon="9.282708">
        <ele>809.172167</ele>
        <time>2022-01-07T01:02:15.317Z</time>
      </trkpt>
      <trkpt lat="46.787927" lon="9.282724">
        <ele>809.459386</ele>
        <time>2022-01-07T01:02:20.147Z</time>
      </trkpt>
      <trkpt lat="46.788053" lon="9.282747">
        <ele>809.722058</ele>
        <time>2022-01-07T01:02:24.178Z</time>
      </trkpt>
      <trkpt lat="46.788151" lon="9.283318">
        <ele>810.555878</ele>
        <time>2022-01-07T01:02:36.488Z</time>
      </trkpt>
      <trkpt lat="46.788188" lon="9.283615">
        <ele>810.983472</ele>
        <time>2022-01-07T01:02:42.702Z</time>
      </trkpt>
      <trkpt lat="46.788239" lon="9.283992">
        <ele>811.527799</ele>
        <time>2022-01-07T01:02:50.838Z</time>
      </trkpt>
      <trkpt lat="46.788454" lon="9.285524">
        <ele>813.836567</ele>
        <time>2022-01-07T01:03:23.597Z</time>
      </trkpt>
      <trkpt lat="46.788465" lon="9.285588">
        <ele>813.945592</ele>
        <time>2022-01-07T01:03:24.980Z</time>
      </trkpt>
      <trkpt lat="46.788698" lon="9.287039">
        <ele>816.408072</ele>
        <time>2022-01-07T01:03:57.543Z</time>
      </trkpt>
      <trkpt lat="46.788685" lon="9.287304">
        <ele>816.847043</ele>
        <time>2022-01-07T01:04:03.554Z</time>
      </trkpt>
      <trkpt lat="46.788636" lon="9.287468">
        <ele>817.142689</ele>
        <time>2022-01-07T01:04:07.533Z</time>
      </trkpt>
      <trkpt lat="46.788144" lon="9.288243">
        <ele>818.768526</ele>
        <time>2022-01-07T01:04:31.322Z</time>
      </trkpt>
      <trkpt lat="46.788043" lon="9.288479">
        <ele>819.187905</ele>
        <time>2022-01-07T01:04:37.561Z</time>
      </trkpt>
      <trkpt lat="46.787971" lon="9.288904">
        <ele>819.847645</ele>
        <time>2022-01-07T01:04:46.804Z</time>
      </trkpt>
      <trkpt lat="46.787962" lon="9.289548">
        <ele>820.818284</ele>
        <time>2022-01-07T01:05:00.624Z</time>
      </trkpt>
      <trkpt lat="46.787879" lon="9.290084">
        <ele>821.426694</ele>
        <time>2022-01-07T01:05:12.552Z</time>
      </trkpt>
      <trkpt lat="46.787318" lon="9.290911">
        <ele>820.875180</ele>
        <time>2022-01-07T01:05:30.360Z</time>
      </trkpt>
      <trkpt lat="46.786994" lon="9.291922">
        <ele>820.346348</ele>
        <time>2022-01-07T01:05:44.169Z</time>
      </trkpt>
      <trkpt lat="46.786840" lon="9.292213">
        <ele>820.204986</ele>
        <time>2022-01-07T01:05:48.153Z</time>
      </trkpt>
      <trkpt lat="46.786706" lon="9.292352">
        <ele>820.150954</ele>
        <time>2022-01-07T01:05:51.279Z</time>
      </trkpt>
      <trkpt lat="46.786471" lon="9.292586">
        <ele>820.057451</ele>
        <time>2022-01-07T01:05:56.214Z</time>
      </trkpt>
      <trkpt lat="46.786152" lon="9.293113">
        <ele>819.899115</ele>
        <time>2022-01-07T01:06:04.705Z</time>
      </trkpt>
      <trkpt lat="46.785418" lon="9.293795">
        <ele>820.291085</ele>
        <time>2022-01-07T01:06:24.703Z</time>
      </trkpt>
      <trkpt lat="46.784017" lon="9.295242">
        <ele>832.338853</ele>
        <time>2022-01-07T01:07:58.339Z</time>
      </trkpt>
      <trkpt lat="46.783956" lon="9.295392">
        <ele>833.227914</ele>
        <time>2022-01-07T01:08:05.091Z</time>
      </trkpt>
      <trkpt lat="46.783949" lon="9.295862">
        <ele>835.623654</ele>
        <time>2022-01-07T01:08:24.385Z</time>
      </trkpt>
      <trkpt lat="46.783951" lon="9.296125">
        <ele>836.964014</ele>
        <time>2022-01-07T01:08:36.059Z</time>
      </trkpt>
      <trkpt lat="46.784000" lon="9.296230">
        <ele>837.611555</ele>
        <time>2022-01-07T01:08:40.617Z</time>
      </trkpt>
      <trkpt lat="46.784268" lon="9.296316">
        <ele>839.653670</ele>
        <time>2022-01-07T01:08:56.117Z</time>
      </trkpt>
      <trkpt lat="46.785394" lon="9.296449">
        <ele>846.421091</ele>
        <time>2022-01-07T01:09:49.839Z</time>
      </trkpt>
      <trkpt lat="46.788026" lon="9.295922">
        <ele>853.181166</ele>
        <time>2022-01-07T01:11:01.574Z</time>
      </trkpt>
      <trkpt lat="46.788556" lon="9.295623">
        <ele>854.748775</ele>
        <time>2022-01-07T01:11:23.846Z</time>
      </trkpt>
      <trkpt lat="46.788764" lon="9.295829">
        <ele>856.830039</ele>
        <time>2022-01-07T01:11:35.524Z</time>
      </trkpt>
      <trkpt lat="46.788803" lon="9.296016">
        <ele>858.117516</ele>
        <time>2022-01-07T01:11:42.042Z</time>
      </trkpt>
      <trkpt lat="46.788723" lon="9.296224">
        <ele>859.688776</ele>
        <time>2022-01-07T01:11:52.443Z</time>
      </trkpt>
      <trkpt lat="46.788623" lon="9.296732">
        <ele>863.170077</ele>
        <time>2022-01-07T01:12:15.682Z</time>
      </trkpt>
      <trkpt lat="46.788624" lon="9.297152">
        <ele>865.936283</ele>
        <time>2022-01-07T01:12:35.498Z</time>
      </trkpt>
      <trkpt lat="46.788533" lon="9.297572">
        <ele>868.837670</ele>
        <time>2022-01-07T01:12:55.979Z</time>
      </trkpt>
      <trkpt lat="46.788349" lon="9.297946">
        <ele>871.870847</ele>
        <time>2022-01-07T01:13:17.721Z</time>
      </trkpt>
      <trkpt lat="46.788134" lon="9.298419">
        <ele>875.514626</ele>
        <time>2022-01-07T01:13:43.013Z</time>
      </trkpt>
      <trkpt lat="46.788113" lon="9.298632">
        <ele>876.892445</ele>
        <time>2022-01-07T01:13:52.010Z</time>
      </trkpt>
      <trkpt lat="46.788270" lon="9.299026">
        <ele>879.811168</ele>
        <time>2022-01-07T01:14:11.386Z</time>
      </trkpt>
      <trkpt lat="46.788574" lon="9.299511">
        <ele>884.021092</ele>
        <time>2022-01-07T01:14:39.083Z</time>
      </trkpt>
      <trkpt lat="46.788769" lon="9.300410">
        <ele>889.634885</ele>
        <time>2022-01-07T01:15:15.116Z</time>
      </trkpt>
      <trkpt lat="46.788946" lon="9.300656">
        <ele>891.000865</ele>
        <time>2022-01-07T01:15:25.412Z</time>
      </trkpt>
      <trkpt lat="46.789648" lon="9.301101">
        <ele>895.279204</ele>
        <time>2022-01-07T01:15:57.389Z</time>
      </trkpt>
      <trkpt lat="46.790116" lon="9.301760">
        <ele>898.913577</ele>
        <time>2022-01-07T01:16:25.268Z</time>
      </trkpt>
      <trkpt lat="46.790669" lon="9.302909">
        <ele>904.074429</ele>
        <time>2022-01-07T01:17:07.076Z</time>
      </trkpt>
      <trkpt lat="46.790859" lon="9.303863">
        <ele>907.720978</ele>
        <time>2022-01-07T01:17:37.701Z</time>
      </trkpt>
      <trkpt lat="46.791217" lon="9.304526">
        <ele>910.585301</ele>
        <time>2022-01-07T01:18:02.618Z</time>
      </trkpt>
      <trkpt lat="46.791546" lon="9.305334">
        <ele>913.653234</ele>
        <time>2022-01-07T01:18:27.837Z</time>
      </trkpt>
      <trkpt lat="46.791613" lon="9.305706">
        <ele>914.908530</ele>
        <time>2022-01-07T01:18:37.494Z</time>
      </trkpt>
      <trkpt lat="46.791637" lon="9.306219">
        <ele>916.586568</ele>
        <time>2022-01-07T01:18:53.152Z</time>
      </trkpt>
      <trkpt lat="46.791587" lon="9.306758">
        <ele>918.781323</ele>
        <time>2022-01-07T01:19:09.560Z</time>
      </trkpt>
      <trkpt lat="46.791512" lon="9.307092">
        <ele>920.371593</ele>
        <time>2022-01-07T01:19:20.573Z</time>
      </trkpt>
      <trkpt lat="46.791132" lon="9.307738">
        <ele>924.224774</ele>
        <time>2022-01-07T01:19:42.379Z</time>
      </trkpt>
      <trkpt lat="46.791109" lon="9.307847">
        <ele>924.740802</ele>
        <time>2022-01-07T01:19:47.819Z</time>
      </trkpt>
      <trkpt lat="46.791106" lon="9.308374">
        <ele>927.125142</ele>
        <time>2022-01-07T01:20:07.587Z</time>
      </trkpt>
      <trkpt lat="46.791291" lon="9.309197">
        <ele>931.561879</ele>
        <time>2022-01-07T01:20:43.670Z</time>
      </trkpt>
      <trkpt lat="46.791267" lon="9.309471">
        <ele>933.155162</ele>
        <time>2022-01-07T01:20:55.285Z</time>
      </trkpt>
      <trkpt lat="46.791126" lon="9.309943">
        <ele>936.125469</ele>
        <time>2022-01-07T01:21:17.883Z</time>
      </trkpt>
      <trkpt lat="46.791134" lon="9.310133">
        <ele>937.223442</ele>
        <time>2022-01-07T01:21:27.854Z</time>
      </trkpt>
      <trkpt lat="46.791330" lon="9.311161">
        <ele>943.378457</ele>
        <time>2022-01-07T01:22:04.950Z</time>
      </trkpt>
      <trkpt lat="46.791514" lon="9.311546">
        <ele>944.722384</ele>
        <time>2022-01-07T01:22:19.223Z</time>
      </trkpt>
      <trkpt lat="46.792281" lon="9.311841">
        <ele>946.263972</ele>
        <time>2022-01-07T01:22:48.920Z</time>
      </trkpt>
      <trkpt lat="46.792659" lon="9.312174">
        <ele>947.121953</ele>
        <time>2022-01-07T01:22:58.068Z</time>
      </trkpt>
      <trkpt lat="46.792721" lon="9.312513">
        <ele>947.588876</ele>
        <time>2022-01-07T01:23:02.464Z</time>
      </trkpt>
      <trkpt lat="46.792749" lon="9.313816">
        <ele>946.158620</ele>
        <time>2022-01-07T01:23:17.407Z</time>
      </trkpt>
      <trkpt lat="46.793508" lon="9.315741">
        <ele>943.334823</ele>
        <time>2022-01-07T01:23:44.177Z</time>
      </trkpt>
      <trkpt lat="46.793713" lon="9.316141">
        <ele>942.881590</ele>
        <time>2022-01-07T01:23:50.360Z</time>
      </trkpt>
      <trkpt lat="46.794241" lon="9.316831">
        <ele>941.942913</ele>
        <time>2022-01-07T01:24:03.619Z</time>
      </trkpt>
      <trkpt lat="46.794556" lon="9.317473">
        <ele>942.250741</ele>
        <time>2022-01-07T01:24:14.485Z</time>
      </trkpt>
      <trkpt lat="46.794621" lon="9.318023">
        <ele>943.075439</ele>
        <time>2022-01-07T01:24:25.003Z</time>
      </trkpt>
      <trkpt lat="46.794621" lon="9.319544">
        <ele>945.322863</ele>
        <time>2022-01-07T01:25:01.743Z</time>
      </trkpt>
      <trkpt lat="46.794518" lon="9.319868">
        <ele>945.891308</ele>
        <time>2022-01-07T01:25:11.174Z</time>
      </trkpt>
      <trkpt lat="46.794326" lon="9.320298">
        <ele>946.737218</ele>
        <time>2022-01-07T01:25:24.644Z</time>
      </trkpt>
      <trkpt lat="46.794227" lon="9.320702">
        <ele>947.444270</ele>
        <time>2022-01-07T01:25:36.023Z</time>
      </trkpt>
      <trkpt lat="46.793859" lon="9.323085">
        <ele>948.720394</ele>
        <time>2022-01-07T01:26:21.493Z</time>
      </trkpt>
      <trkpt lat="46.793773" lon="9.323815">
        <ele>947.898006</ele>
        <time>2022-01-07T01:26:29.790Z</time>
      </trkpt>
      <trkpt lat="46.793819" lon="9.324209">
        <ele>947.454256</ele>
        <time>2022-01-07T01:26:34.223Z</time>
      </trkpt>
      <trkpt lat="46.793976" lon="9.324862">
        <ele>946.344827</ele>
        <time>2022-01-07T01:26:41.799Z</time>
      </trkpt>
      <trkpt lat="46.793998" lon="9.325382">
        <ele>944.887287</ele>
        <time>2022-01-07T01:26:47.385Z</time>
      </trkpt>
      <trkpt lat="46.793895" lon="9.326213">
        <ele>942.524666</ele>
        <time>2022-01-07T01:26:56.503Z</time>
      </trkpt>
      <trkpt lat="46.793873" lon="9.326821">
        <ele>940.821333</ele>
        <time>2022-01-07T01:27:03.090Z</time>
      </trkpt>
      <trkpt lat="46.794013" lon="9.329191">
        <ele>932.132507</ele>
        <time>2022-01-07T01:27:27.587Z</time>
      </trkpt>
      <trkpt lat="46.794195" lon="9.330037">
        <ele>928.714428</ele>
        <time>2022-01-07T01:27:36.295Z</time>
      </trkpt>
      <trkpt lat="46.794280" lon="9.331211">
        <ele>924.155256</ele>
        <time>2022-01-07T01:27:47.782Z</time>
      </trkpt>
      <trkpt lat="46.794433" lon="9.332186">
        <ele>920.292251</ele>
        <time>2022-01-07T01:27:58.170Z</time>
      </trkpt>
      <trkpt lat="46.794387" lon="9.332976">
        <ele>918.552567</ele>
        <time>2022-01-07T01:28:07.129Z</time>
      </trkpt>
      <trkpt lat="46.794313" lon="9.333109">
        <ele>918.314967</ele>
        <time>2022-01-07T01:28:09.297Z</time>
      </trkpt>
      <trkpt lat="46.793579" lon="9.333642">
        <ele>916.655057</ele>
        <time>2022-01-07T01:28:24.685Z</time>
      </trkpt>
      <trkpt lat="46.793473" lon="9.334032">
        <ele>916.073316</ele>
        <time>2022-01-07T01:28:29.850Z</time>
      </trkpt>
      <trkpt lat="46.793354" lon="9.334268">
        <ele>915.666965</ele>
        <time>2022-01-07T01:28:33.363Z</time>
      </trkpt>
      <trkpt lat="46.792782" lon="9.335192">
        <ele>911.289168</ele>
        <time>2022-01-07T01:28:48.488Z</time>
      </trkpt>
      <trkpt lat="46.792648" lon="9.335527">
        <ele>909.917853</ele>
        <time>2022-01-07T01:28:52.446Z</time>
      </trkpt>
      <trkpt lat="46.792634" lon="9.336485">
        <ele>906.531071</ele>
        <time>2022-01-07T01:29:01.717Z</time>
      </trkpt>
      <trkpt lat="46.792551" lon="9.336858">
        <ele>904.289348</ele>
        <time>2022-01-07T01:29:05.292Z</time>
      </trkpt>
      <trkpt lat="46.792436" lon="9.337183">
        <ele>902.089917</ele>
        <time>2022-01-07T01:29:08.633Z</time>
      </trkpt>
      <trkpt lat="46.792192" lon="9.337594">
        <ele>898.819389</ele>
        <time>2022-01-07T01:29:13.607Z</time>
      </trkpt>
      <trkpt lat="46.791933" lon="9.337835">
        <ele>896.122739</ele>
        <time>2022-01-07T01:29:17.971Z</time>
      </trkpt>
      <trkpt lat="46.791610" lon="9.338313">
        <ele>892.084996</ele>
        <time>2022-01-07T01:29:24.361Z</time>
      </trkpt>
      <trkpt lat="46.791377" lon="9.338398">
        <ele>890.371637</ele>
        <time>2022-01-07T01:29:28.196Z</time>
      </trkpt>
      <trkpt lat="46.791212" lon="9.338366">
        <ele>889.881818</ele>
        <time>2022-01-07T01:29:30.476Z</time>
      </trkpt>
      <trkpt lat="46.790965" lon="9.338190">
        <ele>889.073067</ele>
        <time>2022-01-07T01:29:34.722Z</time>
      </trkpt>
      <trkpt lat="46.790570" lon="9.338003">
        <ele>887.851134</ele>
        <time>2022-01-07T01:29:40.980Z</time>
      </trkpt>
      <trkpt lat="46.790255" lon="9.337972">
        <ele>886.922059</ele>
        <time>2022-01-07T01:29:46.423Z</time>
      </trkpt>
      <trkpt lat="46.790074" lon="9.338026">
        <ele>886.378418</ele>
        <time>2022-01-07T01:29:52.310Z</time>
      </trkpt>
      <trkpt lat="46.789733" lon="9.338250">
        <ele>885.278109</ele>
        <time>2022-01-07T01:30:01.103Z</time>
      </trkpt>
      <trkpt lat="46.789353" lon="9.338576">
        <ele>884.870307</ele>
        <time>2022-01-07T01:30:13.085Z</time>
      </trkpt>
      <trkpt lat="46.789221" lon="9.338766">
        <ele>884.698847</ele>
        <time>2022-01-07T01:30:17.733Z</time>
      </trkpt>
      <trkpt lat="46.789013" lon="9.339288">
        <ele>884.316272</ele>
        <time>2022-01-07T01:30:26.359Z</time>
      </trkpt>
      <trkpt lat="46.788786" lon="9.339668">
        <ele>883.996827</ele>
        <time>2022-01-07T01:30:32.325Z</time>
      </trkpt>
      <trkpt lat="46.788499" lon="9.341059">
        <ele>879.612766</ele>
        <time>2022-01-07T01:30:48.968Z</time>
      </trkpt>
      <trkpt lat="46.788555" lon="9.341151">
        <ele>879.032190</ele>
        <time>2022-01-07T01:30:50.189Z</time>
      </trkpt>
      <trkpt lat="46.788625" lon="9.341117">
        <ele>878.524048</ele>
        <time>2022-01-07T01:30:51.267Z</time>
      </trkpt>
      <trkpt lat="46.788912" lon="9.340076">
        <ele>873.231300</ele>
        <time>2022-01-07T01:31:02.100Z</time>
      </trkpt>
      <trkpt lat="46.788923" lon="9.340058">
        <ele>873.117511</ele>
        <time>2022-01-07T01:31:02.331Z</time>
      </trkpt>
      <trkpt lat="46.789023" lon="9.339888">
        <ele>872.060480</ele>
        <time>2022-01-07T01:31:04.445Z</time>
      </trkpt>
      <trkpt lat="46.789371" lon="9.339578">
        <ele>867.000811</ele>
        <time>2022-01-07T01:31:09.840Z</time>
      </trkpt>
      <trkpt lat="46.789560" lon="9.339549">
        <ele>864.196779</ele>
        <time>2022-01-07T01:31:12.315Z</time>
      </trkpt>
      <trkpt lat="46.789739" lon="9.339641">
        <ele>861.396882</ele>
        <time>2022-01-07T01:31:14.797Z</time>
      </trkpt>
      <trkpt lat="46.789983" lon="9.340087">
        <ele>855.629526</ele>
        <time>2022-01-07T01:31:19.845Z</time>
      </trkpt>
      <trkpt lat="46.790224" lon="9.340658">
        <ele>848.853140</ele>
        <time>2022-01-07T01:31:25.742Z</time>
      </trkpt>
      <trkpt lat="46.790428" lon="9.340939">
        <ele>844.715678</ele>
        <time>2022-01-07T01:31:29.329Z</time>
      </trkpt>
      <trkpt lat="46.791310" lon="9.341491">
        <ele>830.934395</ele>
        <time>2022-01-07T01:31:41.801Z</time>
      </trkpt>
      <trkpt lat="46.791465" lon="9.341472">
        <ele>828.700580</ele>
        <time>2022-01-07T01:31:43.848Z</time>
      </trkpt>
      <trkpt lat="46.791797" lon="9.341085">
        <ele>822.600382</ele>
        <time>2022-01-07T01:31:49.429Z</time>
      </trkpt>
      <trkpt lat="46.792305" lon="9.340128">
        <ele>811.596758</ele>
        <time>2022-01-07T01:32:00.394Z</time>
      </trkpt>
      <trkpt lat="46.792694" lon="9.339925">
        <ele>806.320708</ele>
        <time>2022-01-07T01:32:05.751Z</time>
      </trkpt>
      <trkpt lat="46.792957" lon="9.339619">
        <ele>802.026088</ele>
        <time>2022-01-07T01:32:10.169Z</time>
      </trkpt>
      <trkpt lat="46.793354" lon="9.339310">
        <ele>796.280454</ele>
        <time>2022-01-07T01:32:16.231Z</time>
      </trkpt>
      <trkpt lat="46.793796" lon="9.338846">
        <ele>791.465828</ele>
        <time>2022-01-07T01:32:23.522Z</time>
      </trkpt>
      <trkpt lat="46.794820" lon="9.338982">
        <ele>782.616418</ele>
        <time>2022-01-07T01:32:37.796Z</time>
      </trkpt>
      <trkpt lat="46.794908" lon="9.339049">
        <ele>781.762336</ele>
        <time>2022-01-07T01:32:39.197Z</time>
      </trkpt>
      <trkpt lat="46.794904" lon="9.339136">
        <ele>781.248568</ele>
        <time>2022-01-07T01:32:40.074Z</time>
      </trkpt>
      <trkpt lat="46.794838" lon="9.339213">
        <ele>780.521592</ele>
        <time>2022-01-07T01:32:41.282Z</time>
      </trkpt>
      <trkpt lat="46.794629" lon="9.339099">
        <ele>779.616698</ele>
        <time>2022-01-07T01:32:44.807Z</time>
      </trkpt>
      <trkpt lat="46.794431" lon="9.339076">
        <ele>778.871163</ele>
        <time>2022-01-07T01:32:48.350Z</time>
      </trkpt>
      <trkpt lat="46.794066" lon="9.339200">
        <ele>777.464577</ele>
        <time>2022-01-07T01:32:54.705Z</time>
      </trkpt>
      <trkpt lat="46.793934" lon="9.339341">
        <ele>776.850767</ele>
        <time>2022-01-07T01:32:57.432Z</time>
      </trkpt>
      <trkpt lat="46.793830" lon="9.339812">
        <ele>775.579035</ele>
        <time>2022-01-07T01:33:03.029Z</time>
      </trkpt>
      <trkpt lat="46.793489" lon="9.340539">
        <ele>773.115770</ele>
        <time>2022-01-07T01:33:12.676Z</time>
      </trkpt>
      <trkpt lat="46.793483" lon="9.340663">
        <ele>772.607600</ele>
        <time>2022-01-07T01:33:13.954Z</time>
      </trkpt>
      <trkpt lat="46.793540" lon="9.340714">
        <ele>772.208472</ele>
        <time>2022-01-07T01:33:14.913Z</time>
      </trkpt>
      <trkpt lat="46.794100" lon="9.339726">
        <ele>766.965068</ele>
        <time>2022-01-07T01:33:28.562Z</time>
      </trkpt>
      <trkpt lat="46.794203" lon="9.339634">
        <ele>766.244175</ele>
        <time>2022-01-07T01:33:30.487Z</time>
      </trkpt>
      <trkpt lat="46.794366" lon="9.339616">
        <ele>765.268120</ele>
        <time>2022-01-07T01:33:33.105Z</time>
      </trkpt>
      <trkpt lat="46.794882" lon="9.339745">
        <ele>760.975941</ele>
        <time>2022-01-07T01:33:40.229Z</time>
      </trkpt>
      <trkpt lat="46.794927" lon="9.339817">
        <ele>759.972732</ele>
        <time>2022-01-07T01:33:41.073Z</time>
      </trkpt>
      <trkpt lat="46.794893" lon="9.339938">
        <ele>758.626814</ele>
        <time>2022-01-07T01:33:42.273Z</time>
      </trkpt>
      <trkpt lat="46.794414" lon="9.339899">
        <ele>751.415890</ele>
        <time>2022-01-07T01:33:48.644Z</time>
      </trkpt>
      <trkpt lat="46.794125" lon="9.340271">
        <ele>745.625969</ele>
        <time>2022-01-07T01:33:53.570Z</time>
      </trkpt>
      <trkpt lat="46.794121" lon="9.340423">
        <ele>744.060672</ele>
        <time>2022-01-07T01:33:54.921Z</time>
      </trkpt>
      <trkpt lat="46.794210" lon="9.340435">
        <ele>742.717244</ele>
        <time>2022-01-07T01:33:56.054Z</time>
      </trkpt>
      <trkpt lat="46.794475" lon="9.340185">
        <ele>737.975538</ele>
        <time>2022-01-07T01:34:00.051Z</time>
      </trkpt>
      <trkpt lat="46.794644" lon="9.340215">
        <ele>735.881418</ele>
        <time>2022-01-07T01:34:02.337Z</time>
      </trkpt>
      <trkpt lat="46.795214" lon="9.340053">
        <ele>735.985664</ele>
        <time>2022-01-07T01:34:10.119Z</time>
      </trkpt>
      <trkpt lat="46.795608" lon="9.341011">
        <ele>736.123016</ele>
        <time>2022-01-07T01:34:35.441Z</time>
      </trkpt>
      <trkpt lat="46.795630" lon="9.341066">
        <ele>736.130844</ele>
        <time>2022-01-07T01:34:37.917Z</time>
      </trkpt>
      <trkpt lat="46.795815" lon="9.341532">
        <ele>736.197049</ele>
        <time>2022-01-07T01:35:03.929Z</time>
      </trkpt>
      <trkpt lat="46.796121" lon="9.342030">
        <ele>744.520447</ele>
        <time>2022-01-07T01:35:46.560Z</time>
      </trkpt>
      <trkpt lat="46.796419" lon="9.342468">
        <ele>752.369311</ele>
        <time>2022-01-07T01:36:33.338Z</time>
      </trkpt>
      <trkpt lat="46.796848" lon="9.343354">
        <ele>766.162719</ele>
        <time>2022-01-07T01:37:57.915Z</time>
      </trkpt>
      <trkpt lat="46.797350" lon="9.343873">
        <ele>772.032852</ele>
        <time>2022-01-07T01:38:44.020Z</time>
      </trkpt>
      <trkpt lat="46.797538" lon="9.344183">
        <ele>773.640586</ele>
        <time>2022-01-07T01:38:56.574Z</time>
      </trkpt>
      <trkpt lat="46.797753" lon="9.345162">
        <ele>777.631870</ele>
        <time>2022-01-07T01:39:19.360Z</time>
      </trkpt>
      <trkpt lat="46.797951" lon="9.345269">
        <ele>778.829041</ele>
        <time>2022-01-07T01:39:24.325Z</time>
      </trkpt>
      <trkpt lat="46.798261" lon="9.345179">
        <ele>779.209391</ele>
        <time>2022-01-07T01:39:30.435Z</time>
      </trkpt>
      <trkpt lat="46.799135" lon="9.345453">
        <ele>775.642373</ele>
        <time>2022-01-07T01:39:44.679Z</time>
      </trkpt>
      <trkpt lat="46.800009" lon="9.345174">
        <ele>772.059072</ele>
        <time>2022-01-07T01:39:57.757Z</time>
      </trkpt>
      <trkpt lat="46.800172" lon="9.345117">
        <ele>771.373756</ele>
        <time>2022-01-07T01:40:00.299Z</time>
      </trkpt>
      <trkpt lat="46.800642" lon="9.344783">
        <ele>769.236660</ele>
        <time>2022-01-07T01:40:07.960Z</time>
      </trkpt>
      <trkpt lat="46.800790" lon="9.344615">
        <ele>768.470288</ele>
        <time>2022-01-07T01:40:10.898Z</time>
      </trkpt>
      <trkpt lat="46.801028" lon="9.344145">
        <ele>766.833946</ele>
        <time>2022-01-07T01:40:17.264Z</time>
      </trkpt>
      <trkpt lat="46.801397" lon="9.343837">
        <ele>765.501072</ele>
        <time>2022-01-07T01:40:24.451Z</time>
      </trkpt>
      <trkpt lat="46.801605" lon="9.343459">
        <ele>767.481787</ele>
        <time>2022-01-07T01:40:31.028Z</time>
      </trkpt>
      <trkpt lat="46.801949" lon="9.343372">
        <ele>769.564693</ele>
        <time>2022-01-07T01:40:42.142Z</time>
      </trkpt>
      <trkpt lat="46.802175" lon="9.342827">
        <ele>772.167034</ele>
        <time>2022-01-07T01:41:04.065Z</time>
      </trkpt>
      <trkpt lat="46.802535" lon="9.342466">
        <ele>774.772185</ele>
        <time>2022-01-07T01:41:31.826Z</time>
      </trkpt>
      <trkpt lat="46.803023" lon="9.342038">
        <ele>780.818757</ele>
        <time>2022-01-07T01:42:15.342Z</time>
      </trkpt>
      <trkpt lat="46.803133" lon="9.341949">
        <ele>782.482773</ele>
        <time>2022-01-07T01:42:26.444Z</time>
      </trkpt>
      <trkpt lat="46.803269" lon="9.341849">
        <ele>784.497625</ele>
        <time>2022-01-07T01:42:40.200Z</time>
      </trkpt>
      <trkpt lat="46.803891" lon="9.341512">
        <ele>793.276647</ele>
        <time>2022-01-07T01:43:34.730Z</time>
      </trkpt>
      <trkpt lat="46.804245" lon="9.341502">
        <ele>797.962157</ele>
        <time>2022-01-07T01:44:00.087Z</time>
      </trkpt>
      <trkpt lat="46.804757" lon="9.341931">
        <ele>802.646665</ele>
        <time>2022-01-07T01:44:36.128Z</time>
      </trkpt>
      <trkpt lat="46.805334" lon="9.342738">
        <ele>807.689947</ele>
        <time>2022-01-07T01:45:14.409Z</time>
      </trkpt>
      <trkpt lat="46.805497" lon="9.342827">
        <ele>808.788609</ele>
        <time>2022-01-07T01:45:20.679Z</time>
      </trkpt>
      <trkpt lat="46.805774" lon="9.342849">
        <ele>810.540094</ele>
        <time>2022-01-07T01:45:31.112Z</time>
      </trkpt>
      <trkpt lat="46.805947" lon="9.342749">
        <ele>811.266973</ele>
        <time>2022-01-07T01:45:37.934Z</time>
      </trkpt>
      <trkpt lat="46.806150" lon="9.342854">
        <ele>811.547979</ele>
        <time>2022-01-07T01:45:41.832Z</time>
      </trkpt>
      <trkpt lat="46.806312" lon="9.343230">
        <ele>811.944804</ele>
        <time>2022-01-07T01:45:48.731Z</time>
      </trkpt>
      <trkpt lat="46.806326" lon="9.343526">
        <ele>812.209811</ele>
        <time>2022-01-07T01:45:54.603Z</time>
      </trkpt>
      <trkpt lat="46.806340" lon="9.343682">
        <ele>812.350337</ele>
        <time>2022-01-07T01:45:58.003Z</time>
      </trkpt>
      <trkpt lat="46.806454" lon="9.343907">
        <ele>812.600366</ele>
        <time>2022-01-07T01:46:02.067Z</time>
      </trkpt>
      <trkpt lat="46.806698" lon="9.343928">
        <ele>812.919315</ele>
        <time>2022-01-07T01:46:09.314Z</time>
      </trkpt>
      <trkpt lat="46.806809" lon="9.344092">
        <ele>813.125314</ele>
        <time>2022-01-07T01:46:14.121Z</time>
      </trkpt>
      <trkpt lat="46.806864" lon="9.344275">
        <ele>813.303824</ele>
        <time>2022-01-07T01:46:17.969Z</time>
      </trkpt>
      <trkpt lat="46.807016" lon="9.344451">
        <ele>813.555828</ele>
        <time>2022-01-07T01:46:22.669Z</time>
      </trkpt>
      <trkpt lat="46.807767" lon="9.344952">
        <ele>814.613600</ele>
        <time>2022-01-07T01:46:44.131Z</time>
      </trkpt>
      <trkpt lat="46.808252" lon="9.344629">
        <ele>815.296513</ele>
        <time>2022-01-07T01:46:58.977Z</time>
      </trkpt>
      <trkpt lat="46.808427" lon="9.344691">
        <ele>815.527228</ele>
        <time>2022-01-07T01:47:06.094Z</time>
      </trkpt>
      <trkpt lat="46.808628" lon="9.344905">
        <ele>815.657207</ele>
        <time>2022-01-07T01:47:15.363Z</time>
      </trkpt>
      <trkpt lat="46.808748" lon="9.345124">
        <ele>814.848604</ele>
        <time>2022-01-07T01:47:21.980Z</time>
      </trkpt>
      <trkpt lat="46.808911" lon="9.345693">
        <ele>813.070693</ele>
        <time>2022-01-07T01:47:28.664Z</time>
      </trkpt>
      <trkpt lat="46.809238" lon="9.346357">
        <ele>810.712887</ele>
        <time>2022-01-07T01:47:37.217Z</time>
      </trkpt>
      <trkpt lat="46.809367" lon="9.346375">
        <ele>810.167161</ele>
        <time>2022-01-07T01:47:39.151Z</time>
      </trkpt>
      <trkpt lat="46.809667" lon="9.346224">
        <ele>808.830914</ele>
        <time>2022-01-07T01:47:43.818Z</time>
      </trkpt>
      <trkpt lat="46.809801" lon="9.346379">
        <ele>807.940786</ele>
        <time>2022-01-07T01:47:46.034Z</time>
      </trkpt>
      <trkpt lat="46.809927" lon="9.346726">
        <ele>805.147426</ele>
        <time>2022-01-07T01:47:49.850Z</time>
      </trkpt>
      <trkpt lat="46.810177" lon="9.347325">
        <ele>800.158310</ele>
        <time>2022-01-07T01:47:56.296Z</time>
      </trkpt>
      <trkpt lat="46.810250" lon="9.347665">
        <ele>797.624339</ele>
        <time>2022-01-07T01:47:59.524Z</time>
      </trkpt>
      <trkpt lat="46.810249" lon="9.348507">
        <ele>791.636740</ele>
        <time>2022-01-07T01:48:07.037Z</time>
      </trkpt>
      <trkpt lat="46.810546" lon="9.350605">
        <ele>783.812996</ele>
        <time>2022-01-07T01:48:29.060Z</time>
      </trkpt>
      <trkpt lat="46.810463" lon="9.351692">
        <ele>781.098086</ele>
        <time>2022-01-07T01:48:43.270Z</time>
      </trkpt>
      <trkpt lat="46.810460" lon="9.352560">
        <ele>780.278958</ele>
        <time>2022-01-07T01:48:55.397Z</time>
      </trkpt>
      <trkpt lat="46.810621" lon="9.353356">
        <ele>779.495671</ele>
        <time>2022-01-07T01:49:07.131Z</time>
      </trkpt>
      <trkpt lat="46.810960" lon="9.353896">
        <ele>778.397330</ele>
        <time>2022-01-07T01:49:16.000Z</time>
      </trkpt>
      <trkpt lat="46.811152" lon="9.354724">
        <ele>774.505637</ele>
        <time>2022-01-07T01:49:25.232Z</time>
      </trkpt>
      <trkpt lat="46.811593" lon="9.355260">
        <ele>770.774599</ele>
        <time>2022-01-07T01:49:33.361Z</time>
      </trkpt>
      <trkpt lat="46.811842" lon="9.355735">
        <ele>768.111160</ele>
        <time>2022-01-07T01:49:38.961Z</time>
      </trkpt>
      <trkpt lat="46.812580" lon="9.357570">
        <ele>756.794331</ele>
        <time>2022-01-07T01:49:59.004Z</time>
      </trkpt>
      <trkpt lat="46.813081" lon="9.361784">
        <ele>739.927664</ele>
        <time>2022-01-07T01:50:43.501Z</time>
      </trkpt>
      <trkpt lat="46.813271" lon="9.363861">
        <ele>729.995075</ele>
        <time>2022-01-07T01:51:03.976Z</time>
      </trkpt>
      <trkpt lat="46.813214" lon="9.366658">
        <ele>713.314796</ele>
        <time>2022-01-07T01:51:30.149Z</time>
      </trkpt>
      <trkpt lat="46.813167" lon="9.367874">
        <ele>707.035379</ele>
        <time>2022-01-07T01:51:41.764Z</time>
      </trkpt>
      <trkpt lat="46.813159" lon="9.368016">
        <ele>706.300782</ele>
        <time>2022-01-07T01:51:43.134Z</time>
      </trkpt>
      <trkpt lat="46.812976" lon="9.373841">
        <ele>687.669266</ele>
        <time>2022-01-07T01:52:44.860Z</time>
      </trkpt>
      <trkpt lat="46.812839" lon="9.376989">
        <ele>681.080265</ele>
        <time>2022-01-07T01:53:20.734Z</time>
      </trkpt>
      <trkpt lat="46.812827" lon="9.377223">
        <ele>680.602607</ele>
        <time>2022-01-07T01:53:23.435Z</time>
      </trkpt>
      <trkpt lat="46.812741" lon="9.379346">
        <ele>676.270619</ele>
        <time>2022-01-07T01:53:47.417Z</time>
      </trkpt>
      <trkpt lat="46.812713" lon="9.380440">
        <ele>674.021156</ele>
        <time>2022-01-07T01:53:59.629Z</time>
      </trkpt>
      <trkpt lat="46.812669" lon="9.381595">
        <ele>671.644249</ele>
        <time>2022-01-07T01:54:12.652Z</time>
      </trkpt>
      <trkpt lat="46.812655" lon="9.381828">
        <ele>671.167104</ele>
        <time>2022-01-07T01:54:15.306Z</time>
      </trkpt>
      <trkpt lat="46.812651" lon="9.382195">
        <ele>670.548797</ele>
        <time>2022-01-07T01:54:19.479Z</time>
      </trkpt>
      <trkpt lat="46.812513" lon="9.385711">
        <ele>664.740683</ele>
        <time>2022-01-07T01:55:00.788Z</time>
      </trkpt>
      <trkpt lat="46.812389" lon="9.388918">
        <ele>659.810201</ele>
        <time>2022-01-07T01:55:38.737Z</time>
      </trkpt>
      <trkpt lat="46.812335" lon="9.390359">
        <ele>657.820114</ele>
        <time>2022-01-07T01:55:56.092Z</time>
      </trkpt>
      <trkpt lat="46.812319" lon="9.390773">
        <ele>657.305015</ele>
        <time>2022-01-07T01:56:01.144Z</time>
      </trkpt>
      <trkpt lat="46.812283" lon="9.391787">
        <ele>656.043707</ele>
        <time>2022-01-07T01:56:13.611Z</time>
      </trkpt>
      <trkpt lat="46.812245" lon="9.392798">
        <ele>654.987368</ele>
        <time>2022-01-07T01:56:26.090Z</time>
      </trkpt>
      <trkpt lat="46.812200" lon="9.393722">
        <ele>654.222543</ele>
        <time>2022-01-07T01:56:37.652Z</time>
      </trkpt>
      <trkpt lat="46.812148" lon="9.395117">
        <ele>653.202718</ele>
        <time>2022-01-07T01:56:56.472Z</time>
      </trkpt>
      <trkpt lat="46.812133" lon="9.395432">
        <ele>653.177953</ele>
        <time>2022-01-07T01:57:01.072Z</time>
      </trkpt>
      <trkpt lat="46.812128" lon="9.395586">
        <ele>653.165861</ele>
        <time>2022-01-07T01:57:03.346Z</time>
      </trkpt>
      <trkpt lat="46.812108" lon="9.396106">
        <ele>653.125013</ele>
        <time>2022-01-07T01:57:11.279Z</time>
      </trkpt>
      <trkpt lat="46.812098" lon="9.396425">
        <ele>653.099968</ele>
        <time>2022-01-07T01:57:16.332Z</time>
      </trkpt>
      <trkpt lat="46.812127" lon="9.397372">
        <ele>653.025621</ele>
        <time>2022-01-07T01:57:31.610Z</time>
      </trkpt>
      <trkpt lat="46.812129" lon="9.397512">
        <ele>653.014639</ele>
        <time>2022-01-07T01:57:33.615Z</time>
      </trkpt>
      <trkpt lat="46.812122" lon="9.397925">
        <ele>652.481606</ele>
        <time>2022-01-07T01:57:39.524Z</time>
      </trkpt>
      <trkpt lat="46.812179" lon="9.398399">
        <ele>651.778266</ele>
        <time>2022-01-07T01:57:46.380Z</time>
      </trkpt>
      <trkpt lat="46.812242" lon="9.398638">
        <ele>651.403968</ele>
        <time>2022-01-07T01:57:49.675Z</time>
      </trkpt>
      <trkpt lat="46.812343" lon="9.399251">
        <ele>650.482506</ele>
        <time>2022-01-07T01:57:57.049Z</time>
      </trkpt>
      <trkpt lat="46.812846" lon="9.399022">
        <ele>649.357470</ele>
        <time>2022-01-07T01:58:05.322Z</time>
      </trkpt>
      <trkpt lat="46.813037" lon="9.398679">
        <ele>648.495420</ele>
        <time>2022-01-07T01:58:10.143Z</time>
      </trkpt>
      <trkpt lat="46.813179" lon="9.398245">
        <ele>647.461556</ele>
        <time>2022-01-07T01:58:15.305Z</time>
      </trkpt>
      <trkpt lat="46.813289" lon="9.398205">
        <ele>647.105581</ele>
        <time>2022-01-07T01:58:16.971Z</time>
      </trkpt>
      <trkpt lat="46.813731" lon="9.398259">
        <ele>645.712704</ele>
        <time>2022-01-07T01:58:23.946Z</time>
      </trkpt>
      <trkpt lat="46.814028" lon="9.398594">
        <ele>644.534462</ele>
        <time>2022-01-07T01:58:30.156Z</time>
      </trkpt>
      <trkpt lat="46.814659" lon="9.398803">
        <ele>643.933555</ele>
        <time>2022-01-07T01:58:42.089Z</time>
      </trkpt>
      <trkpt lat="46.814806" lon="9.398790">
        <ele>644.120627</ele>
        <time>2022-01-07T01:58:45.727Z</time>
      </trkpt>
      <trkpt lat="46.815054" lon="9.398609">
        <ele>644.472766</ele>
        <time>2022-01-07T01:58:53.112Z</time>
      </trkpt>
      <trkpt lat="46.815209" lon="9.398504">
        <ele>644.689788</ele>
        <time>2022-01-07T01:58:58.344Z</time>
      </trkpt>
      <trkpt lat="46.816214" lon="9.397782">
        <ele>646.299154</ele>
        <time>2022-01-07T01:59:35.195Z</time>
      </trkpt>
      <trkpt lat="46.816790" lon="9.397781">
        <ele>647.477266</ele>
        <time>2022-01-07T01:59:55.012Z</time>
      </trkpt>
      <trkpt lat="46.817275" lon="9.397639">
        <ele>648.488968</ele>
        <time>2022-01-07T02:00:10.228Z</time>
      </trkpt>
      <trkpt lat="46.817635" lon="9.397479">
        <ele>649.258590</ele>
        <time>2022-01-07T02:00:20.396Z</time>
      </trkpt>
      <trkpt lat="46.818108" lon="9.397115">
        <ele>649.268980</ele>
        <time>2022-01-07T02:00:33.060Z</time>
      </trkpt>
      <trkpt lat="46.818603" lon="9.396812">
        <ele>648.995411</ele>
        <time>2022-01-07T02:00:44.162Z</time>
      </trkpt>
      <trkpt lat="46.819813" lon="9.396648">
        <ele>647.821684</ele>
        <time>2022-01-07T02:01:06.920Z</time>
      </trkpt>
      <trkpt lat="46.820224" lon="9.396221">
        <ele>646.823382</ele>
        <time>2022-01-07T02:01:16.489Z</time>
      </trkpt>
      <trkpt lat="46.820545" lon="9.396096">
        <ele>646.165737</ele>
        <time>2022-01-07T02:01:22.863Z</time>
      </trkpt>
      <trkpt lat="46.821334" lon="9.395933">
        <ele>643.943024</ele>
        <time>2022-01-07T02:01:35.836Z</time>
      </trkpt>
      <trkpt lat="46.821431" lon="9.396158">
        <ele>643.028343</ele>
        <time>2022-01-07T02:01:38.718Z</time>
      </trkpt>
      <trkpt lat="46.821981" lon="9.396048">
        <ele>640.237979</ele>
        <time>2022-01-07T02:01:47.012Z</time>
      </trkpt>
      <trkpt lat="46.822311" lon="9.396064">
        <ele>638.578309</ele>
        <time>2022-01-07T02:01:51.889Z</time>
      </trkpt>
      <trkpt lat="46.822486" lon="9.395828">
        <ele>637.381374</ele>
        <time>2022-01-07T02:01:55.458Z</time>
      </trkpt>
      <trkpt lat="46.822532" lon="9.395737">
        <ele>636.992238</ele>
        <time>2022-01-07T02:01:56.576Z</time>
      </trkpt>
      <trkpt lat="46.822580" lon="9.395669">
        <ele>636.656211</ele>
        <time>2022-01-07T02:01:57.546Z</time>
      </trkpt>
      <trkpt lat="46.822638" lon="9.395693">
        <ele>636.353211</ele>
        <time>2022-01-07T02:01:58.466Z</time>
      </trkpt>
      <trkpt lat="46.822905" lon="9.396137">
        <ele>634.152828</ele>
        <time>2022-01-07T02:02:04.398Z</time>
      </trkpt>
      <trkpt lat="46.823194" lon="9.396955">
        <ele>630.664651</ele>
        <time>2022-01-07T02:02:13.577Z</time>
      </trkpt>
      <trkpt lat="46.823391" lon="9.398544">
        <ele>624.616648</ele>
        <time>2022-01-07T02:02:30.378Z</time>
      </trkpt>
      <trkpt lat="46.823511" lon="9.399515">
        <ele>621.059069</ele>
        <time>2022-01-07T02:02:40.434Z</time>
      </trkpt>
      <trkpt lat="46.823596" lon="9.399486">
        <ele>620.599138</ele>
        <time>2022-01-07T02:02:41.877Z</time>
      </trkpt>
      <trkpt lat="46.823563" lon="9.398947">
        <ele>618.648017</ele>
        <time>2022-01-07T02:02:47.504Z</time>
      </trkpt>
      <trkpt lat="46.823611" lon="9.398822">
        <ele>618.131210</ele>
        <time>2022-01-07T02:02:48.849Z</time>
      </trkpt>
      <trkpt lat="46.823716" lon="9.398789">
        <ele>617.565288</ele>
        <time>2022-01-07T02:02:50.616Z</time>
      </trkpt>
      <trkpt lat="46.823904" lon="9.398956">
        <ele>616.375009</ele>
        <time>2022-01-07T02:02:53.829Z</time>
      </trkpt>
      <trkpt lat="46.823976" lon="9.399146">
        <ele>615.394567</ele>
        <time>2022-01-07T02:02:56.048Z</time>
      </trkpt>
      <trkpt lat="46.823930" lon="9.399399">
        <ele>614.212850</ele>
        <time>2022-01-07T02:02:58.667Z</time>
      </trkpt>
      <trkpt lat="46.823809" lon="9.399523">
        <ele>613.237876</ele>
        <time>2022-01-07T02:03:00.781Z</time>
      </trkpt>
      <trkpt lat="46.823725" lon="9.399719">
        <ele>612.193872</ele>
        <time>2022-01-07T02:03:03.162Z</time>
      </trkpt>
      <trkpt lat="46.823554" lon="9.400778">
        <ele>607.282030</ele>
        <time>2022-01-07T02:03:13.673Z</time>
      </trkpt>
      <trkpt lat="46.823079" lon="9.402975">
        <ele>598.075110</ele>
        <time>2022-01-07T02:03:36.696Z</time>
      </trkpt>
      <trkpt lat="46.822870" lon="9.404320">
        <ele>594.005581</ele>
        <time>2022-01-07T02:03:51.073Z</time>
      </trkpt>
      <trkpt lat="46.822847" lon="9.404397">
        <ele>593.897224</ele>
        <time>2022-01-07T02:03:51.995Z</time>
      </trkpt>
      <trkpt lat="46.823018" lon="9.404552">
        <ele>593.517957</ele>
        <time>2022-01-07T02:03:55.334Z</time>
      </trkpt>
      <trkpt lat="46.824010" lon="9.406455">
        <ele>591.889920</ele>
        <time>2022-01-07T02:04:27.817Z</time>
      </trkpt>
      <trkpt lat="46.824186" lon="9.406809">
        <ele>592.360350</ele>
        <time>2022-01-07T02:04:35.190Z</time>
      </trkpt>
      <trkpt lat="46.824249" lon="9.407026">
        <ele>592.613770</ele>
        <time>2022-01-07T02:04:39.427Z</time>
      </trkpt>
      <trkpt lat="46.824528" lon="9.408072">
        <ele>593.820706</ele>
        <time>2022-01-07T02:05:03.861Z</time>
      </trkpt>
      <trkpt lat="46.824624" lon="9.408495">
        <ele>595.031640</ele>
        <time>2022-01-07T02:05:15.829Z</time>
      </trkpt>
      <trkpt lat="46.824642" lon="9.408597">
        <ele>595.481181</ele>
        <time>2022-01-07T02:05:18.792Z</time>
      </trkpt>
      <trkpt lat="46.824825" lon="9.408693">
        <ele>596.693865</ele>
        <time>2022-01-07T02:05:27.395Z</time>
      </trkpt>
      <trkpt lat="46.825057" lon="9.408364">
        <ele>598.710080</ele>
        <time>2022-01-07T02:05:42.327Z</time>
      </trkpt>
      <trkpt lat="46.825328" lon="9.407936">
        <ele>601.198673</ele>
        <time>2022-01-07T02:06:02.113Z</time>
      </trkpt>
      <trkpt lat="46.825943" lon="9.407651">
        <ele>605.222674</ele>
        <time>2022-01-07T02:06:36.166Z</time>
      </trkpt>
      <trkpt lat="46.826155" lon="9.407552">
        <ele>606.766872</ele>
        <time>2022-01-07T02:06:49.068Z</time>
      </trkpt>
      <trkpt lat="46.827016" lon="9.407146">
        <ele>613.067253</ele>
        <time>2022-01-07T02:07:35.526Z</time>
      </trkpt>
      <trkpt lat="46.827304" lon="9.407139">
        <ele>615.073171</ele>
        <time>2022-01-07T02:07:48.455Z</time>
      </trkpt>
      <trkpt lat="46.827386" lon="9.407236">
        <ele>615.807823</ele>
        <time>2022-01-07T02:07:54.780Z</time>
      </trkpt>
      <trkpt lat="46.827407" lon="9.407315">
        <ele>616.211652</ele>
        <time>2022-01-07T02:07:57.292Z</time>
      </trkpt>
      <trkpt lat="46.827590" lon="9.408232">
        <ele>620.234318</ele>
        <time>2022-01-07T02:08:27.451Z</time>
      </trkpt>
      <trkpt lat="46.827663" lon="9.408622">
        <ele>621.817400</ele>
        <time>2022-01-07T02:08:38.730Z</time>
      </trkpt>
      <trkpt lat="46.828103" lon="9.408586">
        <ele>624.339243</ele>
        <time>2022-01-07T02:08:58.732Z</time>
      </trkpt>
      <trkpt lat="46.828148" lon="9.408440">
        <ele>624.966199</ele>
        <time>2022-01-07T02:09:03.370Z</time>
      </trkpt>
      <trkpt lat="46.828130" lon="9.408201">
        <ele>625.907601</ele>
        <time>2022-01-07T02:09:09.384Z</time>
      </trkpt>
      <trkpt lat="46.828082" lon="9.407349">
        <ele>629.891468</ele>
        <time>2022-01-07T02:09:35.260Z</time>
      </trkpt>
      <trkpt lat="46.828241" lon="9.405549">
        <ele>640.883026</ele>
        <time>2022-01-07T02:10:46.255Z</time>
      </trkpt>
      <trkpt lat="46.828340" lon="9.405621">
        <ele>641.861824</ele>
        <time>2022-01-07T02:10:54.576Z</time>
      </trkpt>
      <trkpt lat="46.828436" lon="9.405973">
        <ele>644.132917</ele>
        <time>2022-01-07T02:11:11.436Z</time>
      </trkpt>
      <trkpt lat="46.828641" lon="9.406123">
        <ele>645.830814</ele>
        <time>2022-01-07T02:11:29.582Z</time>
      </trkpt>
      <trkpt lat="46.828788" lon="9.406258">
        <ele>647.116596</ele>
        <time>2022-01-07T02:11:41.957Z</time>
      </trkpt>
      <trkpt lat="46.829512" lon="9.406846">
        <ele>653.250852</ele>
        <time>2022-01-07T02:12:33.442Z</time>
      </trkpt>
      <trkpt lat="46.829676" lon="9.406900">
        <ele>654.495905</ele>
        <time>2022-01-07T02:12:38.513Z</time>
      </trkpt>
      <trkpt lat="46.829822" lon="9.406820">
        <ele>655.650693</ele>
        <time>2022-01-07T02:12:45.910Z</time>
      </trkpt>
      <trkpt lat="46.829980" lon="9.407056">
        <ele>657.323808</ele>
        <time>2022-01-07T02:12:50.338Z</time>
      </trkpt>
      <trkpt lat="46.829991" lon="9.407152">
        <ele>656.982735</ele>
        <time>2022-01-07T02:12:52.012Z</time>
      </trkpt>
      <trkpt lat="46.829938" lon="9.407363">
        <ele>656.162146</ele>
        <time>2022-01-07T02:12:54.952Z</time>
      </trkpt>
      <trkpt lat="46.829964" lon="9.407752">
        <ele>654.735233</ele>
        <time>2022-01-07T02:12:59.507Z</time>
      </trkpt>
      <trkpt lat="46.830058" lon="9.408032">
        <ele>653.596585</ele>
        <time>2022-01-07T02:13:02.654Z</time>
      </trkpt>
      <trkpt lat="46.830080" lon="9.408463">
        <ele>652.018731</ele>
        <time>2022-01-07T02:13:07.123Z</time>
      </trkpt>
      <trkpt lat="46.829771" lon="9.409112">
        <ele>649.132113</ele>
        <time>2022-01-07T02:13:14.629Z</time>
      </trkpt>
      <trkpt lat="46.829813" lon="9.409452">
        <ele>647.870776</ele>
        <time>2022-01-07T02:13:17.834Z</time>
      </trkpt>
      <trkpt lat="46.830021" lon="9.410062">
        <ele>644.892113</ele>
        <time>2022-01-07T02:13:24.156Z</time>
      </trkpt>
      <trkpt lat="46.830925" lon="9.412969">
        <ele>630.678800</ele>
        <time>2022-01-07T02:13:57.019Z</time>
      </trkpt>
      <trkpt lat="46.831072" lon="9.414295">
        <ele>624.613475</ele>
        <time>2022-01-07T02:14:10.046Z</time>
      </trkpt>
      <trkpt lat="46.831071" lon="9.414651">
        <ele>622.644426</ele>
        <time>2022-01-07T02:14:13.414Z</time>
      </trkpt>
      <trkpt lat="46.830922" lon="9.415942">
        <ele>615.034350</ele>
        <time>2022-01-07T02:14:25.728Z</time>
      </trkpt>
      <trkpt lat="46.831227" lon="9.416814">
        <ele>609.341797</ele>
        <time>2022-01-07T02:14:34.976Z</time>
      </trkpt>
      <trkpt lat="46.831391" lon="9.417945">
        <ele>605.022485</ele>
        <time>2022-01-07T02:14:46.527Z</time>
      </trkpt>
      <trkpt lat="46.831447" lon="9.418659">
        <ele>602.421611</ele>
        <time>2022-01-07T02:14:53.965Z</time>
      </trkpt>
      <trkpt lat="46.831531" lon="9.418934">
        <ele>601.331704</ele>
        <time>2022-01-07T02:14:57.238Z</time>
      </trkpt>
      <trkpt lat="46.831937" lon="9.419738">
        <ele>598.600624</ele>
        <time>2022-01-07T02:15:08.141Z</time>
      </trkpt>
      <trkpt lat="46.832882" lon="9.423263">
        <ele>592.448574</ele>
        <time>2022-01-07T02:15:52.747Z</time>
      </trkpt>
      <trkpt lat="46.833001" lon="9.423642">
        <ele>591.861856</ele>
        <time>2022-01-07T02:15:57.786Z</time>
      </trkpt>
      <trkpt lat="46.833247" lon="9.424185">
        <ele>590.999672</ele>
        <time>2022-01-07T02:16:05.690Z</time>
      </trkpt>
      <trkpt lat="46.833721" lon="9.426170">
        <ele>589.452704</ele>
        <time>2022-01-07T02:16:33.215Z</time>
      </trkpt>
      <trkpt lat="46.834015" lon="9.427175">
        <ele>589.000333</ele>
        <time>2022-01-07T02:16:48.385Z</time>
      </trkpt>
      <trkpt lat="46.834607" lon="9.429134">
        <ele>588.524510</ele>
        <time>2022-01-07T02:17:21.035Z</time>
      </trkpt>
      <trkpt lat="46.835765" lon="9.432540">
        <ele>585.393109</ele>
        <time>2022-01-07T02:18:11.095Z</time>
      </trkpt>
      <trkpt lat="46.835862" lon="9.432846">
        <ele>584.974932</ele>
        <time>2022-01-07T02:18:14.998Z</time>
      </trkpt>
      <trkpt lat="46.836361" lon="9.434285">
        <ele>582.790196</ele>
        <time>2022-01-07T02:18:33.542Z</time>
      </trkpt>
      <trkpt lat="46.837128" lon="9.435264">
        <ele>580.525740</ele>
        <time>2022-01-07T02:18:50.859Z</time>
      </trkpt>
      <trkpt lat="46.838074" lon="9.436098">
        <ele>578.961617</ele>
        <time>2022-01-07T02:19:11.584Z</time>
      </trkpt>
      <trkpt lat="46.838534" lon="9.437007">
        <ele>578.135405</ele>
        <time>2022-01-07T02:19:26.714Z</time>
      </trkpt>
      <trkpt lat="46.839339" lon="9.438050">
        <ele>577.384564</ele>
        <time>2022-01-07T02:19:48.527Z</time>
      </trkpt>
      <trkpt lat="46.839633" lon="9.439210">
        <ele>576.890119</ele>
        <time>2022-01-07T02:20:05.937Z</time>
      </trkpt>
      <trkpt lat="46.839573" lon="9.439574">
        <ele>576.773810</ele>
        <time>2022-01-07T02:20:11.086Z</time>
      </trkpt>
      <trkpt lat="46.839656" lon="9.440095">
        <ele>576.656404</ele>
        <time>2022-01-07T02:20:18.454Z</time>
      </trkpt>
      <trkpt lat="46.839569" lon="9.441431">
        <ele>576.361859</ele>
        <time>2022-01-07T02:20:37.622Z</time>
      </trkpt>
      <trkpt lat="46.839578" lon="9.441995">
        <ele>576.238042</ele>
        <time>2022-01-07T02:20:45.893Z</time>
      </trkpt>
      <trkpt lat="46.839477" lon="9.443765">
        <ele>576.873124</ele>
        <time>2022-01-07T02:21:14.629Z</time>
      </trkpt>
      <trkpt lat="46.839498" lon="9.444644">
        <ele>577.193601</ele>
        <time>2022-01-07T02:21:30.864Z</time>
      </trkpt>
      <trkpt lat="46.839820" lon="9.447101">
        <ele>578.640489</ele>
        <time>2022-01-07T02:22:15.944Z</time>
      </trkpt>
      <trkpt lat="46.840275" lon="9.450532">
        <ele>578.004392</ele>
        <time>2022-01-07T02:23:06.103Z</time>
      </trkpt>
      <trkpt lat="46.840339" lon="9.451066">
        <ele>577.808915</ele>
        <time>2022-01-07T02:23:13.438Z</time>
      </trkpt>
      <trkpt lat="46.840387" lon="9.451469">
        <ele>577.661419</ele>
        <time>2022-01-07T02:23:19.008Z</time>
      </trkpt>
      <trkpt lat="46.840637" lon="9.453409">
        <ele>577.236890</ele>
        <time>2022-01-07T02:23:46.922Z</time>
      </trkpt>
      <trkpt lat="46.840750" lon="9.454330">
        <ele>577.153930</ele>
        <time>2022-01-07T02:24:01.021Z</time>
      </trkpt>
      <trkpt lat="46.841245" lon="9.457979">
        <ele>577.346130</ele>
        <time>2022-01-07T02:24:59.752Z</time>
      </trkpt>
      <trkpt lat="46.841896" lon="9.461784">
        <ele>576.908940</ele>
        <time>2022-01-07T02:25:56.923Z</time>
      </trkpt>
      <trkpt lat="46.842006" lon="9.462286">
        <ele>576.847738</ele>
        <time>2022-01-07T02:26:04.973Z</time>
      </trkpt>
      <trkpt lat="46.842664" lon="9.464290">
        <ele>576.550017</ele>
        <time>2022-01-07T02:26:38.533Z</time>
      </trkpt>
      <trkpt lat="46.842731" lon="9.464473">
        <ele>576.521511</ele>
        <time>2022-01-07T02:26:41.544Z</time>
      </trkpt>
      <trkpt lat="46.842787" lon="9.464649">
        <ele>576.494852</ele>
        <time>2022-01-07T02:26:44.299Z</time>
      </trkpt>
      <trkpt lat="46.842943" lon="9.465142">
        <ele>576.351616</ele>
        <time>2022-01-07T02:26:51.804Z</time>
      </trkpt>
      <trkpt lat="46.843164" lon="9.465767">
        <ele>575.989429</ele>
        <time>2022-01-07T02:27:01.204Z</time>
      </trkpt>
      <trkpt lat="46.843375" lon="9.466416">
        <ele>575.619518</ele>
        <time>2022-01-07T02:27:10.654Z</time>
      </trkpt>
      <trkpt lat="46.843595" lon="9.467091">
        <ele>575.234612</ele>
        <time>2022-01-07T02:27:20.695Z</time>
      </trkpt>
      <trkpt lat="46.843873" lon="9.467849">
        <ele>575.042875</ele>
        <time>2022-01-07T02:27:32.967Z</time>
      </trkpt>
      <trkpt lat="46.844206" lon="9.468527">
        <ele>574.973076</ele>
        <time>2022-01-07T02:27:45.798Z</time>
      </trkpt>
      <trkpt lat="46.844651" lon="9.469478">
        <ele>574.876723</ele>
        <time>2022-01-07T02:28:03.459Z</time>
      </trkpt>
      <trkpt lat="46.844728" lon="9.469645">
        <ele>574.793297</ele>
        <time>2022-01-07T02:28:06.611Z</time>
      </trkpt>
      <trkpt lat="46.844935" lon="9.470109">
        <ele>574.485163</ele>
        <time>2022-01-07T02:28:14.840Z</time>
      </trkpt>
      <trkpt lat="46.845104" lon="9.470577">
        <ele>574.190798</ele>
        <time>2022-01-07T02:28:22.300Z</time>
      </trkpt>
      <trkpt lat="46.845259" lon="9.471238">
        <ele>573.802129</ele>
        <time>2022-01-07T02:28:31.558Z</time>
      </trkpt>
      <trkpt lat="46.845282" lon="9.471636">
        <ele>573.579964</ele>
        <time>2022-01-07T02:28:36.680Z</time>
      </trkpt>
      <trkpt lat="46.845221" lon="9.472068">
        <ele>573.237702</ele>
        <time>2022-01-07T02:28:42.112Z</time>
      </trkpt>
      <trkpt lat="46.844939" lon="9.473753">
        <ele>571.015317</ele>
        <time>2022-01-07T02:29:02.933Z</time>
      </trkpt>
      <trkpt lat="46.844875" lon="9.474143">
        <ele>570.501496</ele>
        <time>2022-01-07T02:29:07.800Z</time>
      </trkpt>
      <trkpt lat="46.844824" lon="9.474449">
        <ele>570.097998</ele>
        <time>2022-01-07T02:29:11.639Z</time>
      </trkpt>
      <trkpt lat="46.844716" lon="9.475040">
        <ele>569.367986</ele>
        <time>2022-01-07T02:29:19.125Z</time>
      </trkpt>
      <trkpt lat="46.844589" lon="9.476150">
        <ele>568.032849</ele>
        <time>2022-01-07T02:29:32.898Z</time>
      </trkpt>
      <trkpt lat="46.844577" lon="9.476718">
        <ele>567.358684</ele>
        <time>2022-01-07T02:29:39.846Z</time>
      </trkpt>
      <trkpt lat="46.844558" lon="9.477778">
        <ele>566.526946</ele>
        <time>2022-01-07T02:29:53.276Z</time>
      </trkpt>
      <trkpt lat="46.844554" lon="9.478206">
        <ele>566.283229</ele>
        <time>2022-01-07T02:29:58.925Z</time>
      </trkpt>
      <trkpt lat="46.844165" lon="9.478371">
        <ele>565.946054</ele>
        <time>2022-01-07T02:30:06.973Z</time>
      </trkpt>
      <trkpt lat="46.844117" lon="9.478392">
        <ele>565.904346</ele>
        <time>2022-01-07T02:30:07.990Z</time>
      </trkpt>
      <trkpt lat="46.843278" lon="9.478736">
        <ele>565.438587</ele>
        <time>2022-01-07T02:30:26.208Z</time>
      </trkpt>
      <trkpt lat="46.842873" lon="9.478894">
        <ele>565.460857</ele>
        <time>2022-01-07T02:30:35.423Z</time>
      </trkpt>
      <trkpt lat="46.843006" lon="9.479645">
        <ele>565.489048</ele>
        <time>2022-01-07T02:30:47.799Z</time>
      </trkpt>
      <trkpt lat="46.843136" lon="9.480406">
        <ele>565.517551</ele>
        <time>2022-01-07T02:31:00.323Z</time>
      </trkpt>
      <trkpt lat="46.843176" lon="9.480655">
        <ele>565.559901</ele>
        <time>2022-01-07T02:31:04.318Z</time>
      </trkpt>
      <trkpt lat="46.843255" lon="9.481098">
        <ele>565.642990</ele>
        <time>2022-01-07T02:31:11.487Z</time>
      </trkpt>
      <trkpt lat="46.843393" lon="9.481392">
        <ele>565.707704</ele>
        <time>2022-01-07T02:31:17.091Z</time>
      </trkpt>
      <trkpt lat="46.843558" lon="9.482266">
        <ele>565.872257</ele>
        <time>2022-01-07T02:31:31.367Z</time>
      </trkpt>
      <trkpt lat="46.843572" lon="9.482511">
        <ele>565.916877</ele>
        <time>2022-01-07T02:31:35.344Z</time>
      </trkpt>
      <trkpt lat="46.843502" lon="9.482819">
        <ele>565.975781</ele>
        <time>2022-01-07T02:31:40.645Z</time>
      </trkpt>
      <trkpt lat="46.843513" lon="9.483015">
        <ele>566.020475</ele>
        <time>2022-01-07T02:31:43.898Z</time>
      </trkpt>
      <trkpt lat="46.844082" lon="9.485329">
        <ele>566.723432</ele>
        <time>2022-01-07T02:32:24.470Z</time>
      </trkpt>
      <trkpt lat="46.845904" lon="9.494914">
        <ele>567.973717</ele>
        <time>2022-01-07T02:35:00.327Z</time>
      </trkpt>
      <trkpt lat="46.846233" lon="9.494859">
        <ele>568.045311</ele>
        <time>2022-01-07T02:35:08.008Z</time>
      </trkpt>
      <trkpt lat="46.846216" lon="9.495866">
        <ele>568.306389</ele>
        <time>2022-01-07T02:35:24.395Z</time>
      </trkpt>
      <trkpt lat="46.846217" lon="9.495926">
        <ele>568.323308</ele>
        <time>2022-01-07T02:35:25.366Z</time>
      </trkpt>
      <trkpt lat="46.846229" lon="9.496174">
        <ele>568.393395</ele>
        <time>2022-01-07T02:35:29.394Z</time>
      </trkpt>
      <trkpt lat="46.846236" lon="9.497580">
        <ele>568.789765</ele>
        <time>2022-01-07T02:35:52.563Z</time>
      </trkpt>
      <trkpt lat="46.846174" lon="9.498486">
        <ele>568.924863</ele>
        <time>2022-01-07T02:36:07.522Z</time>
      </trkpt>
      <trkpt lat="46.846654" lon="9.499312">
        <ele>569.072021</ele>
        <time>2022-01-07T02:36:24.745Z</time>
      </trkpt>
      <trkpt lat="46.846785" lon="9.499577">
        <ele>569.116414</ele>
        <time>2022-01-07T02:36:29.791Z</time>
      </trkpt>
      <trkpt lat="46.846875" lon="9.499973">
        <ele>569.163378</ele>
        <time>2022-01-07T02:36:36.016Z</time>
      </trkpt>
      <trkpt lat="46.846971" lon="9.500533">
        <ele>569.057535</ele>
        <time>2022-01-07T02:36:44.418Z</time>
      </trkpt>
      <trkpt lat="46.847103" lon="9.501309">
        <ele>568.910933</ele>
        <time>2022-01-07T02:36:55.912Z</time>
      </trkpt>
      <trkpt lat="46.847218" lon="9.501465">
        <ele>568.868883</ele>
        <time>2022-01-07T02:36:59.180Z</time>
      </trkpt>
      <trkpt lat="46.847195" lon="9.501667">
        <ele>568.831340</ele>
        <time>2022-01-07T02:37:02.177Z</time>
      </trkpt>
      <trkpt lat="46.847218" lon="9.501465">
        <ele>568.793797</ele>
        <time>2022-01-07T02:37:05.081Z</time>
      </trkpt>
      <trkpt lat="46.847425" lon="9.501419">
        <ele>568.737673</ele>
        <time>2022-01-07T02:37:09.543Z</time>
      </trkpt>
      <trkpt lat="46.847520" lon="9.501374">
        <ele>568.710905</ele>
        <time>2022-01-07T02:37:11.613Z</time>
      </trkpt>
      <trkpt lat="46.847672" lon="9.501325">
        <ele>568.678463</ele>
        <time>2022-01-07T02:37:14.886Z</time>
      </trkpt>
      <trkpt lat="46.847654" lon="9.501256">
        <ele>568.672050</ele>
        <time>2022-01-07T02:37:15.979Z</time>
      </trkpt>
      <trkpt lat="46.847724" lon="9.501223">
        <ele>568.662711</ele>
        <time>2022-01-07T02:37:17.544Z</time>
      </trkpt>
      <trkpt lat="46.847735" lon="9.501272">
        <ele>568.658233</ele>
        <time>2022-01-07T02:37:18.275Z</time>
      </trkpt>
      <trkpt lat="46.847922" lon="9.502127">
        <ele>568.580283</ele>
        <time>2022-01-07T02:37:31.487Z</time>
      </trkpt>
      <trkpt lat="46.848233" lon="9.503515">
        <ele>568.452043</ele>
        <time>2022-01-07T02:37:53.548Z</time>
      </trkpt>
      <trkpt lat="46.848439" lon="9.503846">
        <ele>568.402246</ele>
        <time>2022-01-07T02:38:00.457Z</time>
      </trkpt>
      <trkpt lat="46.848555" lon="9.504003">
        <ele>568.376528</ele>
        <time>2022-01-07T02:38:04.082Z</time>
      </trkpt>
      <trkpt lat="46.849320" lon="9.504358">
        <ele>568.245949</ele>
        <time>2022-01-07T02:38:21.723Z</time>
      </trkpt>
      <trkpt lat="46.850154" lon="9.504601">
        <ele>567.876024</ele>
        <time>2022-01-07T02:38:39.355Z</time>
      </trkpt>
      <trkpt lat="46.852114" lon="9.504840">
        <ele>566.307834</ele>
        <time>2022-01-07T02:39:17.570Z</time>
      </trkpt>
      <trkpt lat="46.852857" lon="9.504941">
        <ele>565.738343</ele>
        <time>2022-01-07T02:39:32.143Z</time>
      </trkpt>
      <trkpt lat="46.853129" lon="9.504980">
        <ele>565.529761</ele>
        <time>2022-01-07T02:39:37.668Z</time>
      </trkpt>
      <trkpt lat="46.853495" lon="9.505031">
        <ele>565.359143</ele>
        <time>2022-01-07T02:39:45.362Z</time>
      </trkpt>
      <trkpt lat="46.853900" lon="9.505081">
        <ele>565.439190</ele>
        <time>2022-01-07T02:39:54.041Z</time>
      </trkpt>
      <trkpt lat="46.853942" lon="9.505203">
        <ele>565.457586</ele>
        <time>2022-01-07T02:39:56.130Z</time>
      </trkpt>
      <trkpt lat="46.854080" lon="9.505225">
        <ele>565.484925</ele>
        <time>2022-01-07T02:39:59.238Z</time>
      </trkpt>
      <trkpt lat="46.854149" lon="9.505330">
        <ele>565.504538</ele>
        <time>2022-01-07T02:40:01.435Z</time>
      </trkpt>
      <trkpt lat="46.854151" lon="9.505520">
        <ele>565.530131</ele>
        <time>2022-01-07T02:40:04.584Z</time>
      </trkpt>
      <trkpt lat="46.854151" lon="9.506246">
        <ele>565.627910</ele>
        <time>2022-01-07T02:40:16.925Z</time>
      </trkpt>
      <trkpt lat="46.854151" lon="9.506544">
        <ele>565.668045</ele>
        <time>2022-01-07T02:40:22.123Z</time>
      </trkpt>
      <trkpt lat="46.854155" lon="9.506938">
        <ele>565.852486</ele>
        <time>2022-01-07T02:40:28.901Z</time>
      </trkpt>
      <trkpt lat="46.854158" lon="9.507893">
        <ele>566.538826</ele>
        <time>2022-01-07T02:40:46.886Z</time>
      </trkpt>
      <trkpt lat="46.854159" lon="9.507956">
        <ele>566.584115</ele>
        <time>2022-01-07T02:40:48.089Z</time>
      </trkpt>
      <trkpt lat="46.854177" lon="9.509093">
        <ele>567.401465</ele>
        <time>2022-01-07T02:41:09.602Z</time>
      </trkpt>
      <trkpt lat="46.854180" lon="9.509587">
        <ele>567.809615</ele>
        <time>2022-01-07T02:41:19.098Z</time>
      </trkpt>
      <trkpt lat="46.854114" lon="9.509679">
        <ele>567.934443</ele>
        <time>2022-01-07T02:41:21.634Z</time>
      </trkpt>
      <trkpt lat="46.854181" lon="9.509802">
        <ele>568.081662</ele>
        <time>2022-01-07T02:41:24.583Z</time>
      </trkpt>
      <trkpt lat="46.854115" lon="9.510215">
        <ele>568.478729</ele>
        <time>2022-01-07T02:41:32.711Z</time>
      </trkpt>
      <trkpt lat="46.853864" lon="9.511111">
        <ele>569.385217</ele>
        <time>2022-01-07T02:41:51.287Z</time>
      </trkpt>
      <trkpt lat="46.853120" lon="9.513101">
        <ele>571.815771</ele>
        <time>2022-01-07T02:42:34.020Z</time>
      </trkpt>
      <trkpt lat="46.853073" lon="9.513220">
        <ele>571.971406</ele>
        <time>2022-01-07T02:42:36.718Z</time>
      </trkpt>
      <trkpt lat="46.853013" lon="9.513193">
        <ele>572.075370</ele>
        <time>2022-01-07T02:42:38.553Z</time>
      </trkpt>
      <trkpt lat="46.852936" lon="9.513268">
        <ele>572.228589</ele>
        <time>2022-01-07T02:42:41.252Z</time>
      </trkpt>
      <trkpt lat="46.852933" lon="9.513373">
        <ele>572.347611</ele>
        <time>2022-01-07T02:42:43.380Z</time>
      </trkpt>
      <trkpt lat="46.852983" lon="9.513448">
        <ele>572.466235</ele>
        <time>2022-01-07T02:42:45.509Z</time>
      </trkpt>
      <trkpt lat="46.852727" lon="9.514168">
        <ele>573.548944</ele>
        <time>2022-01-07T02:43:02.880Z</time>
      </trkpt>
      <trkpt lat="46.852713" lon="9.514211">
        <ele>573.627182</ele>
        <time>2022-01-07T02:43:03.940Z</time>
      </trkpt>
      <trkpt lat="46.852694" lon="9.514268">
        <ele>573.731354</ele>
        <time>2022-01-07T02:43:05.385Z</time>
      </trkpt>
      <trkpt lat="46.852554" lon="9.514699">
        <ele>574.515218</ele>
        <time>2022-01-07T02:43:16.026Z</time>
      </trkpt>
      <trkpt lat="46.852439" lon="9.515052">
        <ele>575.157571</ele>
        <time>2022-01-07T02:43:24.770Z</time>
      </trkpt>
      <trkpt lat="46.852249" lon="9.515634">
        <ele>576.217048</ele>
        <time>2022-01-07T02:43:38.930Z</time>
      </trkpt>
      <trkpt lat="46.852158" lon="9.515959">
        <ele>576.793984</ele>
        <time>2022-01-07T02:43:46.650Z</time>
      </trkpt>
      <trkpt lat="46.852066" lon="9.516289">
        <ele>577.365670</ele>
        <time>2022-01-07T02:43:54.438Z</time>
      </trkpt>
      <trkpt lat="46.851985" lon="9.516576">
        <ele>577.684130</ele>
        <time>2022-01-07T02:44:00.963Z</time>
      </trkpt>
      <trkpt lat="46.851880" lon="9.516987">
        <ele>578.134150</ele>
        <time>2022-01-07T02:44:10.253Z</time>
      </trkpt>
      <trkpt lat="46.851841" lon="9.517131">
        <ele>578.293013</ele>
        <time>2022-01-07T02:44:13.465Z</time>
      </trkpt>
      <trkpt lat="46.851623" lon="9.517672">
        <ele>578.937084</ele>
        <time>2022-01-07T02:44:26.025Z</time>
      </trkpt>
      <trkpt lat="46.851579" lon="9.517762">
        <ele>579.050561</ele>
        <time>2022-01-07T02:44:28.143Z</time>
      </trkpt>
      <trkpt lat="46.851558" lon="9.517803">
        <ele>579.103102</ele>
        <time>2022-01-07T02:44:29.084Z</time>
      </trkpt>
      <trkpt lat="46.851507" lon="9.517885">
        <ele>579.216791</ele>
        <time>2022-01-07T02:44:31.156Z</time>
      </trkpt>
      <trkpt lat="46.851579" lon="9.517992">
        <ele>579.370760</ele>
        <time>2022-01-07T02:44:33.914Z</time>
      </trkpt>
      <trkpt lat="46.851793" lon="9.519272">
        <ele>580.211198</ele>
        <time>2022-01-07T02:44:55.754Z</time>
      </trkpt>
      <trkpt lat="46.851937" lon="9.519729">
        <ele>580.340442</ele>
        <time>2022-01-07T02:45:03.806Z</time>
      </trkpt>
      <trkpt lat="46.851980" lon="9.519823">
        <ele>580.369490</ele>
        <time>2022-01-07T02:45:05.635Z</time>
      </trkpt>
      <trkpt lat="46.852017" lon="9.519896">
        <ele>580.392829</ele>
        <time>2022-01-07T02:45:07.096Z</time>
      </trkpt>
      <trkpt lat="46.852150" lon="9.520124">
        <ele>580.469803</ele>
        <time>2022-01-07T02:45:11.898Z</time>
      </trkpt>
      <trkpt lat="46.852171" lon="9.520162">
        <ele>580.482352</ele>
        <time>2022-01-07T02:45:12.689Z</time>
      </trkpt>
      <trkpt lat="46.852912" lon="9.521563">
        <ele>581.002578</ele>
        <time>2022-01-07T02:45:40.944Z</time>
      </trkpt>
      <trkpt lat="46.853729" lon="9.523054">
        <ele>581.696559</ele>
        <time>2022-01-07T02:46:12.666Z</time>
      </trkpt>
      <trkpt lat="46.853546" lon="9.523276">
        <ele>581.955232</ele>
        <time>2022-01-07T02:46:18.948Z</time>
      </trkpt>
      <trkpt lat="46.853264" lon="9.523586">
        <ele>582.339036</ele>
        <time>2022-01-07T02:46:28.387Z</time>
      </trkpt>
      <trkpt lat="46.853153" lon="9.523715">
        <ele>582.493284</ele>
        <time>2022-01-07T02:46:32.196Z</time>
      </trkpt>
      <trkpt lat="46.852779" lon="9.524159">
        <ele>583.017359</ele>
        <time>2022-01-07T02:46:45.308Z</time>
      </trkpt>
      <trkpt lat="46.852542" lon="9.524442">
        <ele>583.350232</ele>
        <time>2022-01-07T02:46:53.621Z</time>
      </trkpt>
      <trkpt lat="46.852456" lon="9.524567">
        <ele>583.482147</ele>
        <time>2022-01-07T02:46:56.917Z</time>
      </trkpt>
      <trkpt lat="46.852398" lon="9.524948">
        <ele>583.697552</ele>
        <time>2022-01-07T02:47:04.214Z</time>
      </trkpt>
      <trkpt lat="46.852444" lon="9.525160">
        <ele>583.807859</ele>
        <time>2022-01-07T02:47:08.293Z</time>
      </trkpt>
      <trkpt lat="46.852749" lon="9.525921">
        <ele>584.245315</ele>
        <time>2022-01-07T02:47:24.321Z</time>
      </trkpt>
      <trkpt lat="46.853054" lon="9.526407">
        <ele>584.572452</ele>
        <time>2022-01-07T02:47:35.551Z</time>
      </trkpt>
      <trkpt lat="46.853139" lon="9.526508">
        <ele>584.651880</ele>
        <time>2022-01-07T02:47:38.164Z</time>
      </trkpt>
      <trkpt lat="46.853457" lon="9.526875">
        <ele>584.761328</ele>
        <time>2022-01-07T02:47:47.214Z</time>
      </trkpt>
      <trkpt lat="46.853791" lon="9.527465">
        <ele>584.393733</ele>
        <time>2022-01-07T02:47:58.155Z</time>
      </trkpt>
      <trkpt lat="46.853868" lon="9.527688">
        <ele>584.273839</ele>
        <time>2022-01-07T02:48:01.613Z</time>
      </trkpt>
      <trkpt lat="46.854013" lon="9.528009">
        <ele>584.089205</ele>
        <time>2022-01-07T02:48:06.720Z</time>
      </trkpt>
      <trkpt lat="46.854491" lon="9.528642">
        <ele>583.636627</ele>
        <time>2022-01-07T02:48:18.931Z</time>
      </trkpt>
      <trkpt lat="46.854890" lon="9.529087">
        <ele>583.027277</ele>
        <time>2022-01-07T02:48:28.419Z</time>
      </trkpt>
      <trkpt lat="46.855335" lon="9.529652">
        <ele>582.265202</ele>
        <time>2022-01-07T02:48:39.325Z</time>
      </trkpt>
      <trkpt lat="46.855767" lon="9.530187">
        <ele>581.533161</ele>
        <time>2022-01-07T02:48:49.833Z</time>
      </trkpt>
      <trkpt lat="46.856304" lon="9.530857">
        <ele>580.631601</ele>
        <time>2022-01-07T02:49:03.113Z</time>
      </trkpt>
      <trkpt lat="46.856405" lon="9.530916">
        <ele>580.493419</ele>
        <time>2022-01-07T02:49:05.161Z</time>
      </trkpt>
      <trkpt lat="46.857199" lon="9.530717">
        <ele>579.469918</ele>
        <time>2022-01-07T02:49:20.513Z</time>
      </trkpt>
      <trkpt lat="46.857620" lon="9.530648">
        <ele>578.913394</ele>
        <time>2022-01-07T02:49:28.324Z</time>
      </trkpt>
      <trkpt lat="46.857911" lon="9.530653">
        <ele>578.399601</ele>
        <time>2022-01-07T02:49:33.614Z</time>
      </trkpt>
      <trkpt lat="46.858108" lon="9.530657">
        <ele>578.051766</ele>
        <time>2022-01-07T02:49:37.182Z</time>
      </trkpt>
      <trkpt lat="46.858633" lon="9.530719">
        <ele>577.121866</ele>
        <time>2022-01-07T02:49:46.740Z</time>
      </trkpt>
      <trkpt lat="46.858901" lon="9.530760">
        <ele>576.646133</ele>
        <time>2022-01-07T02:49:51.569Z</time>
      </trkpt>
      <trkpt lat="46.859153" lon="9.530799">
        <ele>576.198745</ele>
        <time>2022-01-07T02:49:56.053Z</time>
      </trkpt>
      <trkpt lat="46.859306" lon="9.530823">
        <ele>575.927075</ele>
        <time>2022-01-07T02:49:58.743Z</time>
      </trkpt>
      <trkpt lat="46.859761" lon="9.530816">
        <ele>574.972217</ele>
        <time>2022-01-07T02:50:06.600Z</time>
      </trkpt>
      <trkpt lat="46.859846" lon="9.530914">
        <ele>574.738507</ele>
        <time>2022-01-07T02:50:08.481Z</time>
      </trkpt>
      <trkpt lat="46.859914" lon="9.530791">
        <ele>574.504974</ele>
        <time>2022-01-07T02:50:10.326Z</time>
      </trkpt>
      <trkpt lat="46.861256" lon="9.530481">
        <ele>571.668698</ele>
        <time>2022-01-07T02:50:33.857Z</time>
      </trkpt>
      <trkpt lat="46.861597" lon="9.530459">
        <ele>571.137744</ele>
        <time>2022-01-07T02:50:39.900Z</time>
      </trkpt>
      <trkpt lat="46.861813" lon="9.530452">
        <ele>570.801665</ele>
        <time>2022-01-07T02:50:43.800Z</time>
      </trkpt>
      <trkpt lat="46.861908" lon="9.530449">
        <ele>570.653854</ele>
        <time>2022-01-07T02:50:45.532Z</time>
      </trkpt>
      <trkpt lat="46.862371" lon="9.530435">
        <ele>569.933486</ele>
        <time>2022-01-07T02:50:54.150Z</time>
      </trkpt>
      <trkpt lat="46.863084" lon="9.530454">
        <ele>568.875927</ele>
        <time>2022-01-07T02:51:07.643Z</time>
      </trkpt>
      <trkpt lat="46.863798" lon="9.530459">
        <ele>567.958422</ele>
        <time>2022-01-07T02:51:21.299Z</time>
      </trkpt>
      <trkpt lat="46.864201" lon="9.530462">
        <ele>567.440558</ele>
        <time>2022-01-07T02:51:28.887Z</time>
      </trkpt>
      <trkpt lat="46.865975" lon="9.530496">
        <ele>564.880544</ele>
        <time>2022-01-07T02:52:01.199Z</time>
      </trkpt>
      <trkpt lat="46.866193" lon="9.530525">
        <ele>564.551474</ele>
        <time>2022-01-07T02:52:05.226Z</time>
      </trkpt>
      <trkpt lat="46.868176" lon="9.530559">
        <ele>561.890818</ele>
        <time>2022-01-07T02:52:42.171Z</time>
      </trkpt>
      <trkpt lat="46.868654" lon="9.530602">
        <ele>561.446314</ele>
        <time>2022-01-07T02:52:51.213Z</time>
      </trkpt>
      <trkpt lat="46.869572" lon="9.530817">
        <ele>560.692104</ele>
        <time>2022-01-07T02:53:09.272Z</time>
      </trkpt>
      <trkpt lat="46.869697" lon="9.530736">
        <ele>560.581193</ele>
        <time>2022-01-07T02:53:11.968Z</time>
      </trkpt>
      <trkpt lat="46.870323" lon="9.530886">
        <ele>560.401877</ele>
        <time>2022-01-07T02:53:25.488Z</time>
      </trkpt>
      <trkpt lat="46.870848" lon="9.531071">
        <ele>560.635700</ele>
        <time>2022-01-07T02:53:37.775Z</time>
      </trkpt>
      <trkpt lat="46.872745" lon="9.532249">
        <ele>561.534905</ele>
        <time>2022-01-07T02:54:30.809Z</time>
      </trkpt>
      <trkpt lat="46.873305" lon="9.532324">
        <ele>561.782000</ele>
        <time>2022-01-07T02:54:43.520Z</time>
      </trkpt>
      <trkpt lat="46.873587" lon="9.532323">
        <ele>561.783238</ele>
        <time>2022-01-07T02:54:49.442Z</time>
      </trkpt>
      <trkpt lat="46.873803" lon="9.532345">
        <ele>561.652157</ele>
        <time>2022-01-07T02:54:53.976Z</time>
      </trkpt>
      <trkpt lat="46.874019" lon="9.532496">
        <ele>561.507228</ele>
        <time>2022-01-07T02:54:58.509Z</time>
      </trkpt>
      <trkpt lat="46.874013" lon="9.532675">
        <ele>561.433060</ele>
        <time>2022-01-07T02:55:01.240Z</time>
      </trkpt>
      <trkpt lat="46.874122" lon="9.532678">
        <ele>561.367061</ele>
        <time>2022-01-07T02:55:03.290Z</time>
      </trkpt>
      <trkpt lat="46.874136" lon="9.532521">
        <ele>561.301536</ele>
        <time>2022-01-07T02:55:05.359Z</time>
      </trkpt>
      <trkpt lat="46.874171" lon="9.532485">
        <ele>561.275634</ele>
        <time>2022-01-07T02:55:06.253Z</time>
      </trkpt>
      <trkpt lat="46.874582" lon="9.532195">
        <ele>560.999386</ele>
        <time>2022-01-07T02:55:15.826Z</time>
      </trkpt>
      <trkpt lat="46.875001" lon="9.532132">
        <ele>560.732192</ele>
        <time>2022-01-07T02:55:24.455Z</time>
      </trkpt>
      <trkpt lat="46.875235" lon="9.532203">
        <ele>560.503658</ele>
        <time>2022-01-07T02:55:29.093Z</time>
      </trkpt>
      <trkpt lat="46.875456" lon="9.532353">
        <ele>560.270679</ele>
        <time>2022-01-07T02:55:33.476Z</time>
      </trkpt>
      <trkpt lat="46.875677" lon="9.532533">
        <ele>560.028791</ele>
        <time>2022-01-07T02:55:38.011Z</time>
      </trkpt>
      <trkpt lat="46.876078" lon="9.532781">
        <ele>559.612460</ele>
        <time>2022-01-07T02:55:46.284Z</time>
      </trkpt>
      <trkpt lat="46.876270" lon="9.532783">
        <ele>559.428849</ele>
        <time>2022-01-07T02:55:50.213Z</time>
      </trkpt>
      <trkpt lat="46.876522" lon="9.532632">
        <ele>559.168433</ele>
        <time>2022-01-07T02:55:55.767Z</time>
      </trkpt>
      <trkpt lat="46.876708" lon="9.532281">
        <ele>559.107873</ele>
        <time>2022-01-07T02:56:01.882Z</time>
      </trkpt>
      <trkpt lat="46.876960" lon="9.532148">
        <ele>559.203506</ele>
        <time>2022-01-07T02:56:07.339Z</time>
      </trkpt>
      <trkpt lat="46.877515" lon="9.532197">
        <ele>559.401988</ele>
        <time>2022-01-07T02:56:20.227Z</time>
      </trkpt>
      <trkpt lat="46.878503" lon="9.532330">
        <ele>559.967155</ele>
        <time>2022-01-07T02:56:45.127Z</time>
      </trkpt>
      <trkpt lat="46.878604" lon="9.532490">
        <ele>560.183557</ele>
        <time>2022-01-07T02:56:50.490Z</time>
      </trkpt>
      <trkpt lat="46.878607" lon="9.533183">
        <ele>560.872154</ele>
        <time>2022-01-07T02:57:04.119Z</time>
      </trkpt>
      <trkpt lat="46.878721" lon="9.533268">
        <ele>561.058150</ele>
        <time>2022-01-07T02:57:07.455Z</time>
      </trkpt>
      <trkpt lat="46.879247" lon="9.533347">
        <ele>561.826781</ele>
        <time>2022-01-07T02:57:23.611Z</time>
      </trkpt>
      <trkpt lat="46.879729" lon="9.533482">
        <ele>562.350399</ele>
        <time>2022-01-07T02:57:37.213Z</time>
      </trkpt>
      <trkpt lat="46.881338" lon="9.534115">
        <ele>562.825102</ele>
        <time>2022-01-07T02:58:15.003Z</time>
      </trkpt>
      <trkpt lat="46.882847" lon="9.534842">
        <ele>562.431217</ele>
        <time>2022-01-07T02:58:48.598Z</time>
      </trkpt>
      <trkpt lat="46.884244" lon="9.535691">
        <ele>561.565130</ele>
        <time>2022-01-07T02:59:20.036Z</time>
      </trkpt>
      <trkpt lat="46.886178" lon="9.537165">
        <ele>559.279867</ele>
        <time>2022-01-07T03:00:01.790Z</time>
      </trkpt>
      <trkpt lat="46.886904" lon="9.537651">
        <ele>557.532960</ele>
        <time>2022-01-07T03:00:15.959Z</time>
      </trkpt>
      <trkpt lat="46.888169" lon="9.538258">
        <ele>554.551319</ele>
        <time>2022-01-07T03:00:38.195Z</time>
      </trkpt>
      <trkpt lat="46.888420" lon="9.538289">
        <ele>554.060019</ele>
        <time>2022-01-07T03:00:45.890Z</time>
      </trkpt>
      <trkpt lat="46.888826" lon="9.538170">
        <ele>553.252412</ele>
        <time>2022-01-07T03:00:58.681Z</time>
      </trkpt>
      <trkpt lat="46.889473" lon="9.538365">
        <ele>551.963991</ele>
        <time>2022-01-07T03:01:19.699Z</time>
      </trkpt>
      <trkpt lat="46.891396" lon="9.539502">
        <ele>550.236532</ele>
        <time>2022-01-07T03:02:32.168Z</time>
      </trkpt>
      <trkpt lat="46.892344" lon="9.539898">
        <ele>549.342256</ele>
        <time>2022-01-07T03:03:06.182Z</time>
      </trkpt>
      <trkpt lat="46.892447" lon="9.539947">
        <ele>549.244012</ele>
        <time>2022-01-07T03:03:08.317Z</time>
      </trkpt>
      <trkpt lat="46.892462" lon="9.539955">
        <ele>549.229530</ele>
        <time>2022-01-07T03:03:08.629Z</time>
      </trkpt>
      <trkpt lat="46.892759" lon="9.539968">
        <ele>548.960003</ele>
        <time>2022-01-07T03:03:14.278Z</time>
      </trkpt>
      <trkpt lat="46.894524" lon="9.540031">
        <ele>546.953143</ele>
        <time>2022-01-07T03:04:12.881Z</time>
      </trkpt>
      <trkpt lat="46.895060" lon="9.540328">
        <ele>546.225787</ele>
        <time>2022-01-07T03:04:32.202Z</time>
      </trkpt>
      <trkpt lat="46.895438" lon="9.540692">
        <ele>545.586149</ele>
        <time>2022-01-07T03:04:47.297Z</time>
      </trkpt>
      <trkpt lat="46.896631" lon="9.541514">
        <ele>543.707076</ele>
        <time>2022-01-07T03:05:29.903Z</time>
      </trkpt>
      <trkpt lat="46.896965" lon="9.541710">
        <ele>543.166956</ele>
        <time>2022-01-07T03:05:41.421Z</time>
      </trkpt>
      <trkpt lat="46.897822" lon="9.541493">
        <ele>541.861526</ele>
        <time>2022-01-07T03:06:09.494Z</time>
      </trkpt>
      <trkpt lat="46.898262" lon="9.541456">
        <ele>541.244112</ele>
        <time>2022-01-07T03:06:23.878Z</time>
      </trkpt>
      <trkpt lat="46.898514" lon="9.541327">
        <ele>541.107516</ele>
        <time>2022-01-07T03:06:32.856Z</time>
      </trkpt>
      <trkpt lat="46.899477" lon="9.541745">
        <ele>540.593584</ele>
        <time>2022-01-07T03:07:08.247Z</time>
      </trkpt>
      <trkpt lat="46.903992" lon="9.543682">
        <ele>540.494215</ele>
        <time>2022-01-07T03:10:03.670Z</time>
      </trkpt>
      <trkpt lat="46.904338" lon="9.543897">
        <ele>540.507220</ele>
        <time>2022-01-07T03:10:17.690Z</time>
      </trkpt>
      <trkpt lat="46.904446" lon="9.544036">
        <ele>540.512196</ele>
        <time>2022-01-07T03:10:23.043Z</time>
      </trkpt>
      <trkpt lat="46.904490" lon="9.544099">
        <ele>540.514325</ele>
        <time>2022-01-07T03:10:24.600Z</time>
      </trkpt>
      <trkpt lat="46.905702" lon="9.546005">
        <ele>540.470525</ele>
        <time>2022-01-07T03:11:04.182Z</time>
      </trkpt>
      <trkpt lat="46.905737" lon="9.546061">
        <ele>540.467715</ele>
        <time>2022-01-07T03:11:05.318Z</time>
      </trkpt>
      <trkpt lat="46.906766" lon="9.547664">
        <ele>540.241727</ele>
        <time>2022-01-07T03:11:37.748Z</time>
      </trkpt>
      <trkpt lat="46.907110" lon="9.548153">
        <ele>540.142197</ele>
        <time>2022-01-07T03:11:48.065Z</time>
      </trkpt>
      <trkpt lat="46.908032" lon="9.549263">
        <ele>539.786697</ele>
        <time>2022-01-07T03:12:13.157Z</time>
      </trkpt>
      <trkpt lat="46.908150" lon="9.549552">
        <ele>539.708639</ele>
        <time>2022-01-07T03:12:17.979Z</time>
      </trkpt>
      <trkpt lat="46.907919" lon="9.550744">
        <ele>539.415383</ele>
        <time>2022-01-07T03:12:35.841Z</time>
      </trkpt>
      <trkpt lat="46.907931" lon="9.550885">
        <ele>539.376321</ele>
        <time>2022-01-07T03:12:37.905Z</time>
      </trkpt>
      <trkpt lat="46.908363" lon="9.551561">
        <ele>539.121854</ele>
        <time>2022-01-07T03:12:51.110Z</time>
      </trkpt>
      <trkpt lat="46.908785" lon="9.552085">
        <ele>538.899174</ele>
        <time>2022-01-07T03:13:02.601Z</time>
      </trkpt>
      <trkpt lat="46.908898" lon="9.552129">
        <ele>538.852122</ele>
        <time>2022-01-07T03:13:05.020Z</time>
      </trkpt>
      <trkpt lat="46.909124" lon="9.551943">
        <ele>538.747792</ele>
        <time>2022-01-07T03:13:10.410Z</time>
      </trkpt>
      <trkpt lat="46.909262" lon="9.551914">
        <ele>538.672460</ele>
        <time>2022-01-07T03:13:13.274Z</time>
      </trkpt>
      <trkpt lat="46.909483" lon="9.552045">
        <ele>538.528186</ele>
        <time>2022-01-07T03:13:18.209Z</time>
      </trkpt>
      <trkpt lat="46.911257" lon="9.553792">
        <ele>537.178335</ele>
        <time>2022-01-07T03:14:01.390Z</time>
      </trkpt>
      <trkpt lat="46.911850" lon="9.554282">
        <ele>536.709501</ele>
        <time>2022-01-07T03:14:14.973Z</time>
      </trkpt>
      <trkpt lat="46.913908" lon="9.555487">
        <ele>534.927458</ele>
        <time>2022-01-07T03:14:58.534Z</time>
      </trkpt>
      <trkpt lat="46.914558" lon="9.555350">
        <ele>534.521933</ele>
        <time>2022-01-07T03:15:11.505Z</time>
      </trkpt>
      <trkpt lat="46.918258" lon="9.556408">
        <ele>532.796213</ele>
        <time>2022-01-07T03:16:29.023Z</time>
      </trkpt>
      <trkpt lat="46.918521" lon="9.556592">
        <ele>532.756432</ele>
        <time>2022-01-07T03:16:35.334Z</time>
      </trkpt>
      <trkpt lat="46.918614" lon="9.556615">
        <ele>532.743560</ele>
        <time>2022-01-07T03:16:37.446Z</time>
      </trkpt>
      <trkpt lat="46.918806" lon="9.556436">
        <ele>532.712496</ele>
        <time>2022-01-07T03:16:42.598Z</time>
      </trkpt>
      <trkpt lat="46.919030" lon="9.556502">
        <ele>532.681313</ele>
        <time>2022-01-07T03:16:47.919Z</time>
      </trkpt>
      <trkpt lat="46.919193" lon="9.556669">
        <ele>532.691648</ele>
        <time>2022-01-07T03:16:52.664Z</time>
      </trkpt>
      <trkpt lat="46.919395" lon="9.556748">
        <ele>532.839306</ele>
        <time>2022-01-07T03:16:57.669Z</time>
      </trkpt>
      <trkpt lat="46.919469" lon="9.556912">
        <ele>532.934118</ele>
        <time>2022-01-07T03:17:00.926Z</time>
      </trkpt>
      <trkpt lat="46.919493" lon="9.557099">
        <ele>533.025899</ele>
        <time>2022-01-07T03:17:04.076Z</time>
      </trkpt>
      <trkpt lat="46.919441" lon="9.557439">
        <ele>533.193966</ele>
        <time>2022-01-07T03:17:09.993Z</time>
      </trkpt>
      <trkpt lat="46.919363" lon="9.557612">
        <ele>533.293957</ele>
        <time>2022-01-07T03:17:13.501Z</time>
      </trkpt>
      <trkpt lat="46.919360" lon="9.558264">
        <ele>533.608468</ele>
        <time>2022-01-07T03:17:24.835Z</time>
      </trkpt>
      <trkpt lat="46.919494" lon="9.558601">
        <ele>533.796566</ele>
        <time>2022-01-07T03:17:31.854Z</time>
      </trkpt>
      <trkpt lat="46.920550" lon="9.559272">
        <ele>534.872977</ele>
        <time>2022-01-07T03:18:02.192Z</time>
      </trkpt>
      <trkpt lat="46.920727" lon="9.559482">
        <ele>535.096283</ele>
        <time>2022-01-07T03:18:08.143Z</time>
      </trkpt>
      <trkpt lat="46.920846" lon="9.559766">
        <ele>535.319343</ele>
        <time>2022-01-07T03:18:14.021Z</time>
      </trkpt>
      <trkpt lat="46.920937" lon="9.560215">
        <ele>535.632893</ele>
        <time>2022-01-07T03:18:22.349Z</time>
      </trkpt>
      <trkpt lat="46.921613" lon="9.560583">
        <ele>536.080816</ele>
        <time>2022-01-07T03:18:41.344Z</time>
      </trkpt>
      <trkpt lat="46.923504" lon="9.561199">
        <ele>536.170771</ele>
        <time>2022-01-07T03:19:27.100Z</time>
      </trkpt>
      <trkpt lat="46.923640" lon="9.561136">
        <ele>536.067229</ele>
        <time>2022-01-07T03:19:30.167Z</time>
      </trkpt>
      <trkpt lat="46.923985" lon="9.560765">
        <ele>535.756520</ele>
        <time>2022-01-07T03:19:39.238Z</time>
      </trkpt>
      <trkpt lat="46.924357" lon="9.560567">
        <ele>535.469209</ele>
        <time>2022-01-07T03:19:47.266Z</time>
      </trkpt>
      <trkpt lat="46.925592" lon="9.559724">
        <ele>532.597526</ele>
        <time>2022-01-07T03:20:13.619Z</time>
      </trkpt>
      <trkpt lat="46.926484" lon="9.558958">
        <ele>531.090346</ele>
        <time>2022-01-07T03:20:34.319Z</time>
      </trkpt>
      <trkpt lat="46.927037" lon="9.559071">
        <ele>530.595673</ele>
        <time>2022-01-07T03:20:46.452Z</time>
      </trkpt>
      <trkpt lat="46.927467" lon="9.559394">
        <ele>530.167517</ele>
        <time>2022-01-07T03:20:57.604Z</time>
      </trkpt>
      <trkpt lat="46.928313" lon="9.559741">
        <ele>530.524341</ele>
        <time>2022-01-07T03:21:21.657Z</time>
      </trkpt>
      <trkpt lat="46.928826" lon="9.559550">
        <ele>530.931990</ele>
        <time>2022-01-07T03:21:36.740Z</time>
      </trkpt>
      <trkpt lat="46.929076" lon="9.559673">
        <ele>531.135100</ele>
        <time>2022-01-07T03:21:44.310Z</time>
      </trkpt>
      <trkpt lat="46.929126" lon="9.559696">
        <ele>531.175462</ele>
        <time>2022-01-07T03:21:46.496Z</time>
      </trkpt>
      <trkpt lat="46.929308" lon="9.559807">
        <ele>531.327298</ele>
        <time>2022-01-07T03:21:51.721Z</time>
      </trkpt>
      <trkpt lat="46.930288" lon="9.559579">
        <ele>532.264631</ele>
        <time>2022-01-07T03:22:17.844Z</time>
      </trkpt>
      <trkpt lat="46.931195" lon="9.559446">
        <ele>533.112116</ele>
        <time>2022-01-07T03:22:41.692Z</time>
      </trkpt>
      <trkpt lat="46.931429" lon="9.559336">
        <ele>533.164849</ele>
        <time>2022-01-07T03:22:47.865Z</time>
      </trkpt>
      <trkpt lat="46.931927" lon="9.559396">
        <ele>533.272065</ele>
        <time>2022-01-07T03:23:00.278Z</time>
      </trkpt>
      <trkpt lat="46.933023" lon="9.559344">
        <ele>533.396983</ele>
        <time>2022-01-07T03:23:24.440Z</time>
      </trkpt>
      <trkpt lat="46.933915" lon="9.559230">
        <ele>532.322109</ele>
        <time>2022-01-07T03:23:41.558Z</time>
      </trkpt>
      <trkpt lat="46.934018" lon="9.558638">
        <ele>531.821330</ele>
        <time>2022-01-07T03:23:49.141Z</time>
      </trkpt>
      <trkpt lat="46.934230" lon="9.557855">
        <ele>531.146856</ele>
        <time>2022-01-07T03:23:59.443Z</time>
      </trkpt>
      <trkpt lat="46.934486" lon="9.557853">
        <ele>530.864020</ele>
        <time>2022-01-07T03:24:04.096Z</time>
      </trkpt>
      <trkpt lat="46.935203" lon="9.557777">
        <ele>530.069796</ele>
        <time>2022-01-07T03:24:17.563Z</time>
      </trkpt>
      <trkpt lat="46.935470" lon="9.557741">
        <ele>529.773564</ele>
        <time>2022-01-07T03:24:22.761Z</time>
      </trkpt>
      <trkpt lat="46.940761" lon="9.557203">
        <ele>528.065023</ele>
        <time>2022-01-07T03:26:14.927Z</time>
      </trkpt>
      <trkpt lat="46.941823" lon="9.557080">
        <ele>528.233375</ele>
        <time>2022-01-07T03:26:40.077Z</time>
      </trkpt>
      <trkpt lat="46.941865" lon="9.558278">
        <ele>528.537020</ele>
        <time>2022-01-07T03:26:59.738Z</time>
      </trkpt>
      <trkpt lat="46.941896" lon="9.558942">
        <ele>528.698142</ele>
        <time>2022-01-07T03:27:11.000Z</time>
      </trkpt>
      <trkpt lat="46.942012" lon="9.561386">
        <ele>529.111085</ele>
        <time>2022-01-07T03:27:50.232Z</time>
      </trkpt>
      <trkpt lat="46.942455" lon="9.561368">
        <ele>529.036967</ele>
        <time>2022-01-07T03:28:00.010Z</time>
      </trkpt>
      <trkpt lat="46.942956" lon="9.561224">
        <ele>528.914123</ele>
        <time>2022-01-07T03:28:10.917Z</time>
      </trkpt>
      <trkpt lat="46.943259" lon="9.561421">
        <ele>528.834358</ele>
        <time>2022-01-07T03:28:17.874Z</time>
      </trkpt>
      <trkpt lat="46.944335" lon="9.562641">
        <ele>528.190616</ele>
        <time>2022-01-07T03:28:45.761Z</time>
      </trkpt>
      <trkpt lat="46.944579" lon="9.562833">
        <ele>528.011724</ele>
        <time>2022-01-07T03:28:51.265Z</time>
      </trkpt>
      <trkpt lat="46.944947" lon="9.562865">
        <ele>527.773627</ele>
        <time>2022-01-07T03:28:58.598Z</time>
      </trkpt>
      <trkpt lat="46.945396" lon="9.562760">
        <ele>527.475170</ele>
        <time>2022-01-07T03:29:07.619Z</time>
      </trkpt>
      <trkpt lat="46.945549" lon="9.562853">
        <ele>527.358538</ele>
        <time>2022-01-07T03:29:10.885Z</time>
      </trkpt>
      <trkpt lat="46.945635" lon="9.562998">
        <ele>527.266211</ele>
        <time>2022-01-07T03:29:13.574Z</time>
      </trkpt>
      <trkpt lat="46.945622" lon="9.563552">
        <ele>526.999760</ele>
        <time>2022-01-07T03:29:21.216Z</time>
      </trkpt>
      <trkpt lat="46.945907" lon="9.563504">
        <ele>526.797773</ele>
        <time>2022-01-07T03:29:27.652Z</time>
      </trkpt>
      <trkpt lat="46.945975" lon="9.563522">
        <ele>526.749120</ele>
        <time>2022-01-07T03:29:29.074Z</time>
      </trkpt>
      <trkpt lat="46.946022" lon="9.563534">
        <ele>526.715529</ele>
        <time>2022-01-07T03:29:30.748Z</time>
      </trkpt>
      <trkpt lat="46.946197" lon="9.563574">
        <ele>526.590822</ele>
        <time>2022-01-07T03:29:34.643Z</time>
      </trkpt>
      <trkpt lat="46.946681" lon="9.563499">
        <ele>526.255412</ele>
        <time>2022-01-07T03:29:45.591Z</time>
      </trkpt>
      <trkpt lat="46.947217" lon="9.563561">
        <ele>526.025183</ele>
        <time>2022-01-07T03:29:57.382Z</time>
      </trkpt>
      <trkpt lat="46.947396" lon="9.563670">
        <ele>525.942176</ele>
        <time>2022-01-07T03:30:01.744Z</time>
      </trkpt>
      <trkpt lat="46.948068" lon="9.564326">
        <ele>525.596384</ele>
        <time>2022-01-07T03:30:20.479Z</time>
      </trkpt>
      <trkpt lat="46.948383" lon="9.564515">
        <ele>525.588317</ele>
        <time>2022-01-07T03:30:28.821Z</time>
      </trkpt>
      <trkpt lat="46.949515" lon="9.564884">
        <ele>526.581651</ele>
        <time>2022-01-07T03:30:58.262Z</time>
      </trkpt>
      <trkpt lat="46.949867" lon="9.564995">
        <ele>526.890065</ele>
        <time>2022-01-07T03:31:08.177Z</time>
      </trkpt>
      <trkpt lat="46.949899" lon="9.565005">
        <ele>526.918091</ele>
        <time>2022-01-07T03:31:09.112Z</time>
      </trkpt>
      <trkpt lat="46.949889" lon="9.565508">
        <ele>527.366979</ele>
        <time>2022-01-07T03:31:18.988Z</time>
      </trkpt>
      <trkpt lat="46.949859" lon="9.567050">
        <ele>529.065285</ele>
        <time>2022-01-07T03:31:49.494Z</time>
      </trkpt>
      <trkpt lat="46.949852" lon="9.567381">
        <ele>529.429864</ele>
        <time>2022-01-07T03:31:55.902Z</time>
      </trkpt>
      <trkpt lat="46.949851" lon="9.567458">
        <ele>529.514650</ele>
        <time>2022-01-07T03:31:57.373Z</time>
      </trkpt>
      <trkpt lat="46.949808" lon="9.567948">
        <ele>530.104436</ele>
        <time>2022-01-07T03:32:06.898Z</time>
      </trkpt>
      <trkpt lat="46.949707" lon="9.568934">
        <ele>531.619678</ele>
        <time>2022-01-07T03:32:26.797Z</time>
      </trkpt>
      <trkpt lat="46.949651" lon="9.569617">
        <ele>532.665123</ele>
        <time>2022-01-07T03:32:41.436Z</time>
      </trkpt>
      <trkpt lat="46.949646" lon="9.569735">
        <ele>532.844799</ele>
        <time>2022-01-07T03:32:44.098Z</time>
      </trkpt>
      <trkpt lat="46.949585" lon="9.570678">
        <ele>534.335313</ele>
        <time>2022-01-07T03:33:06.026Z</time>
      </trkpt>
      <trkpt lat="46.949559" lon="9.571466">
        <ele>535.712883</ele>
        <time>2022-01-07T03:33:25.242Z</time>
      </trkpt>
      <trkpt lat="46.949533" lon="9.572256">
        <ele>537.093943</ele>
        <time>2022-01-07T03:33:44.292Z</time>
      </trkpt>
      <trkpt lat="46.949474" lon="9.574040">
        <ele>537.899158</ele>
        <time>2022-01-07T03:34:17.690Z</time>
      </trkpt>
      <trkpt lat="46.949472" lon="9.574097">
        <ele>537.860731</ele>
        <time>2022-01-07T03:34:18.602Z</time>
      </trkpt>
      <trkpt lat="46.949696" lon="9.574109">
        <ele>537.639662</ele>
        <time>2022-01-07T03:34:22.783Z</time>
      </trkpt>
      <trkpt lat="46.950375" lon="9.573854">
        <ele>536.948338</ele>
        <time>2022-01-07T03:34:34.923Z</time>
      </trkpt>
      <trkpt lat="46.952115" lon="9.573817">
        <ele>531.886182</ele>
        <time>2022-01-07T03:35:02.739Z</time>
      </trkpt>
      <trkpt lat="46.952157" lon="9.573834">
        <ele>531.749654</ele>
        <time>2022-01-07T03:35:03.455Z</time>
      </trkpt>
      <trkpt lat="46.953529" lon="9.574373">
        <ele>529.451314</ele>
        <time>2022-01-07T03:35:28.729Z</time>
      </trkpt>
      <trkpt lat="46.954591" lon="9.575538">
        <ele>529.056122</ele>
        <time>2022-01-07T03:35:58.271Z</time>
      </trkpt>
      <trkpt lat="46.955672" lon="9.576635">
        <ele>529.875825</ele>
        <time>2022-01-07T03:36:32.297Z</time>
      </trkpt>
      <trkpt lat="46.955792" lon="9.576703">
        <ele>530.005278</ele>
        <time>2022-01-07T03:36:35.879Z</time>
      </trkpt>
      <trkpt lat="46.956155" lon="9.576910">
        <ele>530.397196</ele>
        <time>2022-01-07T03:36:46.325Z</time>
      </trkpt>
      <trkpt lat="46.956488" lon="9.576982">
        <ele>530.735868</ele>
        <time>2022-01-07T03:36:55.268Z</time>
      </trkpt>
      <trkpt lat="46.956916" lon="9.576918">
        <ele>531.168732</ele>
        <time>2022-01-07T03:37:06.605Z</time>
      </trkpt>
      <trkpt lat="46.956561" lon="9.578318">
        <ele>532.002455</ele>
        <time>2022-01-07T03:37:32.125Z</time>
      </trkpt>
      <trkpt lat="46.956331" lon="9.579159">
        <ele>532.471309</ele>
        <time>2022-01-07T03:37:47.629Z</time>
      </trkpt>
      <trkpt lat="46.956019" lon="9.579951">
        <ele>533.011024</ele>
        <time>2022-01-07T03:38:03.593Z</time>
      </trkpt>
      <trkpt lat="46.954917" lon="9.582435">
        <ele>535.085781</ele>
        <time>2022-01-07T03:38:57.531Z</time>
      </trkpt>
      <trkpt lat="46.955380" lon="9.582645">
        <ele>535.518361</ele>
        <time>2022-01-07T03:39:10.171Z</time>
      </trkpt>
      <trkpt lat="46.955712" lon="9.582707">
        <ele>535.817070</ele>
        <time>2022-01-07T03:39:18.719Z</time>
      </trkpt>
      <trkpt lat="46.956022" lon="9.582765">
        <ele>536.095993</ele>
        <time>2022-01-07T03:39:26.630Z</time>
      </trkpt>
      <trkpt lat="46.956389" lon="9.582957">
        <ele>536.417340</ele>
        <time>2022-01-07T03:39:36.289Z</time>
      </trkpt>
      <trkpt lat="46.956862" lon="9.583482">
        <ele>536.851429</ele>
        <time>2022-01-07T03:39:50.970Z</time>
      </trkpt>
      <trkpt lat="46.958698" lon="9.586361">
        <ele>539.116201</ele>
        <time>2022-01-07T03:40:59.352Z</time>
      </trkpt>
      <trkpt lat="46.959633" lon="9.587000">
        <ele>541.191785</ele>
        <time>2022-01-07T03:41:28.632Z</time>
      </trkpt>
      <trkpt lat="46.960055" lon="9.587372">
        <ele>542.274883</ele>
        <time>2022-01-07T03:41:44.296Z</time>
      </trkpt>
      <trkpt lat="46.960796" lon="9.588026">
        <ele>545.047183</ele>
        <time>2022-01-07T03:42:14.829Z</time>
      </trkpt>
      <trkpt lat="46.961764" lon="9.589401">
        <ele>550.675270</ele>
        <time>2022-01-07T03:43:09.833Z</time>
      </trkpt>
      <trkpt lat="46.962524" lon="9.590109">
        <ele>553.396689</ele>
        <time>2022-01-07T03:43:44.858Z</time>
      </trkpt>
      <trkpt lat="46.962804" lon="9.590523">
        <ele>554.593525</ele>
        <time>2022-01-07T03:43:58.303Z</time>
      </trkpt>
      <trkpt lat="46.963130" lon="9.591229">
        <ele>556.081982</ele>
        <time>2022-01-07T03:44:15.026Z</time>
      </trkpt>
      <trkpt lat="46.963440" lon="9.591662">
        <ele>555.800287</ele>
        <time>2022-01-07T03:44:24.857Z</time>
      </trkpt>
      <trkpt lat="46.963687" lon="9.591758">
        <ele>555.632208</ele>
        <time>2022-01-07T03:44:30.007Z</time>
      </trkpt>
      <trkpt lat="46.964345" lon="9.591783">
        <ele>555.199274</ele>
        <time>2022-01-07T03:44:42.231Z</time>
      </trkpt>
      <trkpt lat="46.964591" lon="9.591880">
        <ele>555.031716</ele>
        <time>2022-01-07T03:44:46.877Z</time>
      </trkpt>
      <trkpt lat="46.964839" lon="9.591894">
        <ele>554.921615</ele>
        <time>2022-01-07T03:44:51.221Z</time>
      </trkpt>
      <trkpt lat="46.965291" lon="9.591375">
        <ele>554.803033</ele>
        <time>2022-01-07T03:45:01.718Z</time>
      </trkpt>
      <trkpt lat="46.965892" lon="9.591107">
        <ele>554.673307</ele>
        <time>2022-01-07T03:45:15.863Z</time>
      </trkpt>
      <trkpt lat="46.966470" lon="9.590554">
        <ele>554.784348</ele>
        <time>2022-01-07T03:45:34.326Z</time>
      </trkpt>
      <trkpt lat="46.966704" lon="9.590526">
        <ele>555.016878</ele>
        <time>2022-01-07T03:45:41.763Z</time>
      </trkpt>
      <trkpt lat="46.967414" lon="9.590912">
        <ele>555.766915</ele>
        <time>2022-01-07T03:46:03.282Z</time>
      </trkpt>
      <trkpt lat="46.967663" lon="9.591196">
        <ele>556.079427</ele>
        <time>2022-01-07T03:46:11.369Z</time>
      </trkpt>
      <trkpt lat="46.968282" lon="9.591902">
        <ele>555.699816</ele>
        <time>2022-01-07T03:46:27.826Z</time>
      </trkpt>
      <trkpt lat="46.968439" lon="9.591939">
        <ele>555.493303</ele>
        <time>2022-01-07T03:46:30.823Z</time>
      </trkpt>
      <trkpt lat="46.968564" lon="9.591696">
        <ele>555.223621</ele>
        <time>2022-01-07T03:46:34.820Z</time>
      </trkpt>
      <trkpt lat="46.968685" lon="9.591492">
        <ele>554.984085</ele>
        <time>2022-01-07T03:46:38.344Z</time>
      </trkpt>
      <trkpt lat="46.968920" lon="9.591116">
        <ele>554.532229</ele>
        <time>2022-01-07T03:46:44.930Z</time>
      </trkpt>
      <trkpt lat="46.969535" lon="9.590839">
        <ele>553.605524</ele>
        <time>2022-01-07T03:46:56.056Z</time>
      </trkpt>
      <trkpt lat="46.969628" lon="9.590792">
        <ele>553.441761</ele>
        <time>2022-01-07T03:46:57.695Z</time>
      </trkpt>
      <trkpt lat="46.969876" lon="9.590744">
        <ele>553.025334</ele>
        <time>2022-01-07T03:47:01.930Z</time>
      </trkpt>
      <trkpt lat="46.970007" lon="9.590715">
        <ele>552.804786</ele>
        <time>2022-01-07T03:47:04.185Z</time>
      </trkpt>
      <trkpt lat="46.970273" lon="9.590706">
        <ele>552.361862</ele>
        <time>2022-01-07T03:47:08.983Z</time>
      </trkpt>
      <trkpt lat="46.970298" lon="9.590340">
        <ele>551.944029</ele>
        <time>2022-01-07T03:47:13.629Z</time>
      </trkpt>
      <trkpt lat="46.970615" lon="9.589609">
        <ele>551.027294</ele>
        <time>2022-01-07T03:47:33.553Z</time>
      </trkpt>
      <trkpt lat="46.971363" lon="9.589289">
        <ele>551.054872</ele>
        <time>2022-01-07T03:48:00.612Z</time>
      </trkpt>
      <trkpt lat="46.971416" lon="9.589493">
        <ele>551.060144</ele>
        <time>2022-01-07T03:48:06.069Z</time>
      </trkpt>
      <trkpt lat="46.971763" lon="9.589322">
        <ele>551.073101</ele>
        <time>2022-01-07T03:48:14.868Z</time>
      </trkpt>
      <trkpt lat="46.971931" lon="9.589236">
        <ele>551.079399</ele>
        <time>2022-01-07T03:48:21.838Z</time>
      </trkpt>
      <trkpt lat="46.972633" lon="9.589379">
        <ele>551.960562</ele>
        <time>2022-01-07T03:48:52.381Z</time>
      </trkpt>
      <trkpt lat="46.972703" lon="9.589393">
        <ele>552.106447</ele>
        <time>2022-01-07T03:48:55.572Z</time>
      </trkpt>
      <trkpt lat="46.973611" lon="9.589586">
        <ele>554.001018</ele>
        <time>2022-01-07T03:49:22.742Z</time>
      </trkpt>
      <trkpt lat="46.973764" lon="9.589695">
        <ele>554.352301</ele>
        <time>2022-01-07T03:49:28.684Z</time>
      </trkpt>
      <trkpt lat="46.973871" lon="9.589621">
        <ele>554.596614</ele>
        <time>2022-01-07T03:49:32.629Z</time>
      </trkpt>
      <trkpt lat="46.974456" lon="9.588805">
        <ele>557.018111</ele>
        <time>2022-01-07T03:50:01.723Z</time>
      </trkpt>
      <trkpt lat="46.975074" lon="9.587699">
        <ele>560.071765</ele>
        <time>2022-01-07T03:50:35.921Z</time>
      </trkpt>
      <trkpt lat="46.975342" lon="9.587420">
        <ele>560.945039</ele>
        <time>2022-01-07T03:50:46.669Z</time>
      </trkpt>
      <trkpt lat="46.975516" lon="9.587301">
        <ele>561.405556</ele>
        <time>2022-01-07T03:50:53.185Z</time>
      </trkpt>
      <trkpt lat="46.975871" lon="9.587237">
        <ele>562.263397</ele>
        <time>2022-01-07T03:51:05.161Z</time>
      </trkpt>
      <trkpt lat="46.976247" lon="9.586996">
        <ele>563.247651</ele>
        <time>2022-01-07T03:51:17.830Z</time>
      </trkpt>
      <trkpt lat="46.976773" lon="9.586415">
        <ele>564.803107</ele>
        <time>2022-01-07T03:51:37.894Z</time>
      </trkpt>
      <trkpt lat="46.977642" lon="9.585762">
        <ele>566.426472</ele>
        <time>2022-01-07T03:52:06.370Z</time>
      </trkpt>
      <trkpt lat="46.977925" lon="9.585484">
        <ele>566.992803</ele>
        <time>2022-01-07T03:52:16.525Z</time>
      </trkpt>
      <trkpt lat="46.978052" lon="9.585291">
        <ele>567.296918</ele>
        <time>2022-01-07T03:52:22.136Z</time>
      </trkpt>
      <trkpt lat="46.978259" lon="9.584794">
        <ele>567.756058</ele>
        <time>2022-01-07T03:52:33.120Z</time>
      </trkpt>
      <trkpt lat="46.978863" lon="9.584200">
        <ele>567.853986</ele>
        <time>2022-01-07T03:52:50.786Z</time>
      </trkpt>
      <trkpt lat="46.979059" lon="9.583555">
        <ele>567.918844</ele>
        <time>2022-01-07T03:53:01.077Z</time>
      </trkpt>
      <trkpt lat="46.979106" lon="9.582991">
        <ele>567.971036</ele>
        <time>2022-01-07T03:53:08.706Z</time>
      </trkpt>
      <trkpt lat="46.979215" lon="9.582401">
        <ele>567.713895</ele>
        <time>2022-01-07T03:53:16.796Z</time>
      </trkpt>
      <trkpt lat="46.980171" lon="9.580239">
        <ele>566.536705</ele>
        <time>2022-01-07T03:53:51.648Z</time>
      </trkpt>
      <trkpt lat="46.980384" lon="9.579845">
        <ele>566.467713</ele>
        <time>2022-01-07T03:53:58.989Z</time>
      </trkpt>
      <trkpt lat="46.980534" lon="9.579056">
        <ele>566.355302</ele>
        <time>2022-01-07T03:54:11.383Z</time>
      </trkpt>
      <trkpt lat="46.980709" lon="9.578540">
        <ele>566.276217</ele>
        <time>2022-01-07T03:54:20.378Z</time>
      </trkpt>
      <trkpt lat="46.981077" lon="9.578006">
        <ele>566.087431</ele>
        <time>2022-01-07T03:54:32.065Z</time>
      </trkpt>
      <trkpt lat="46.981212" lon="9.577850">
        <ele>566.007406</ele>
        <time>2022-01-07T03:54:35.672Z</time>
      </trkpt>
      <trkpt lat="46.981534" lon="9.577253">
        <ele>565.765711</ele>
        <time>2022-01-07T03:54:46.013Z</time>
      </trkpt>
      <trkpt lat="46.981604" lon="9.577181">
        <ele>565.725903</ele>
        <time>2022-01-07T03:54:47.883Z</time>
      </trkpt>
      <trkpt lat="46.981645" lon="9.577116">
        <ele>565.697788</ele>
        <time>2022-01-07T03:54:49.092Z</time>
      </trkpt>
      <trkpt lat="46.982070" lon="9.576313">
        <ele>565.400911</ele>
        <time>2022-01-07T03:55:03.234Z</time>
      </trkpt>
      <trkpt lat="46.982043" lon="9.576166">
        <ele>565.404433</ele>
        <time>2022-01-07T03:55:05.257Z</time>
      </trkpt>
      <trkpt lat="46.982057" lon="9.575947">
        <ele>565.409521</ele>
        <time>2022-01-07T03:55:08.164Z</time>
      </trkpt>
      <trkpt lat="46.982079" lon="9.575762">
        <ele>565.413865</ele>
        <time>2022-01-07T03:55:10.603Z</time>
      </trkpt>
      <trkpt lat="46.982062" lon="9.575256">
        <ele>565.425584</ele>
        <time>2022-01-07T03:55:17.517Z</time>
      </trkpt>
      <trkpt lat="46.982093" lon="9.574825">
        <ele>565.435610</ele>
        <time>2022-01-07T03:55:24.072Z</time>
      </trkpt>
      <trkpt lat="46.982038" lon="9.574464">
        <ele>565.444166</ele>
        <time>2022-01-07T03:55:29.581Z</time>
      </trkpt>
      <trkpt lat="46.981989" lon="9.574147">
        <ele>565.451685</ele>
        <time>2022-01-07T03:55:34.989Z</time>
      </trkpt>
      <trkpt lat="46.981944" lon="9.573579">
        <ele>565.945865</ele>
        <time>2022-01-07T03:55:45.380Z</time>
      </trkpt>
      <trkpt lat="46.982004" lon="9.573358">
        <ele>566.505940</ele>
        <time>2022-01-07T03:55:50.240Z</time>
      </trkpt>
      <trkpt lat="46.982357" lon="9.572874">
        <ele>568.174242</ele>
        <time>2022-01-07T03:56:06.011Z</time>
      </trkpt>
      <trkpt lat="46.982412" lon="9.572648">
        <ele>568.739240</ele>
        <time>2022-01-07T03:56:11.306Z</time>
      </trkpt>
      <trkpt lat="46.982418" lon="9.572185">
        <ele>569.829644</ele>
        <time>2022-01-07T03:56:23.113Z</time>
      </trkpt>
      <trkpt lat="46.982415" lon="9.571861">
        <ele>570.592624</ele>
        <time>2022-01-07T03:56:32.604Z</time>
      </trkpt>
      <trkpt lat="46.982595" lon="9.570929">
        <ele>574.181209</ele>
        <time>2022-01-07T03:57:03.248Z</time>
      </trkpt>
      <trkpt lat="46.982754" lon="9.570766">
        <ele>575.577497</ele>
        <time>2022-01-07T03:57:12.419Z</time>
      </trkpt>
      <trkpt lat="46.983065" lon="9.570443">
        <ele>578.320399</ele>
        <time>2022-01-07T03:57:31.252Z</time>
      </trkpt>
      <trkpt lat="46.983401" lon="9.570214">
        <ele>580.986952</ele>
        <time>2022-01-07T03:57:50.581Z</time>
      </trkpt>
      <trkpt lat="46.983598" lon="9.570079">
        <ele>582.551902</ele>
        <time>2022-01-07T03:58:02.384Z</time>
      </trkpt>
      <trkpt lat="46.983842" lon="9.569912">
        <ele>584.489781</ele>
        <time>2022-01-07T03:58:17.573Z</time>
      </trkpt>
      <trkpt lat="46.984001" lon="9.569803">
        <ele>585.922818</ele>
        <time>2022-01-07T03:58:27.978Z</time>
      </trkpt>
      <trkpt lat="46.984241" lon="9.569639">
        <ele>588.112023</ele>
        <time>2022-01-07T03:58:44.001Z</time>
      </trkpt>
      <trkpt lat="46.984579" lon="9.569516">
        <ele>590.991256</ele>
        <time>2022-01-07T03:59:04.487Z</time>
      </trkpt>
      <trkpt lat="46.985695" lon="9.569299">
        <ele>600.007721</ele>
        <time>2022-01-07T04:00:05.842Z</time>
      </trkpt>
      <trkpt lat="46.985779" lon="9.569206">
        <ele>600.568031</ele>
        <time>2022-01-07T04:00:11.009Z</time>
      </trkpt>
      <trkpt lat="46.985830" lon="9.569148">
        <ele>600.911608</ele>
        <time>2022-01-07T04:00:14.170Z</time>
      </trkpt>
      <trkpt lat="46.985948" lon="9.569017">
        <ele>601.699492</ele>
        <time>2022-01-07T04:00:21.222Z</time>
      </trkpt>
      <trkpt lat="46.986149" lon="9.568792">
        <ele>603.045643</ele>
        <time>2022-01-07T04:00:32.885Z</time>
      </trkpt>
      <trkpt lat="46.986599" lon="9.568517">
        <ele>605.640702</ele>
        <time>2022-01-07T04:00:53.847Z</time>
      </trkpt>
      <trkpt lat="46.986873" lon="9.568159">
        <ele>607.594371</ele>
        <time>2022-01-07T04:01:08.469Z</time>
      </trkpt>
      <trkpt lat="46.987634" lon="9.567319">
        <ele>611.027984</ele>
        <time>2022-01-07T04:01:42.148Z</time>
      </trkpt>
      <trkpt lat="46.988122" lon="9.566889">
        <ele>612.684085</ele>
        <time>2022-01-07T04:02:01.426Z</time>
      </trkpt>
      <trkpt lat="46.988458" lon="9.566527">
        <ele>613.896939</ele>
        <time>2022-01-07T04:02:14.843Z</time>
      </trkpt>
      <trkpt lat="46.989090" lon="9.566346">
        <ele>614.934208</ele>
        <time>2022-01-07T04:02:34.672Z</time>
      </trkpt>
      <trkpt lat="46.990275" lon="9.565712">
        <ele>616.535014</ele>
        <time>2022-01-07T04:03:08.052Z</time>
      </trkpt>
      <trkpt lat="46.990850" lon="9.565253">
        <ele>616.275960</ele>
        <time>2022-01-07T04:03:22.562Z</time>
      </trkpt>
      <trkpt lat="46.991793" lon="9.564787">
        <ele>615.809647</ele>
        <time>2022-01-07T04:03:42.718Z</time>
      </trkpt>
      <trkpt lat="46.992232" lon="9.564580">
        <ele>615.040712</ele>
        <time>2022-01-07T04:03:51.093Z</time>
      </trkpt>
      <trkpt lat="46.992902" lon="9.564416">
        <ele>613.404170</ele>
        <time>2022-01-07T04:04:02.869Z</time>
      </trkpt>
      <trkpt lat="46.993518" lon="9.564100">
        <ele>611.831845</ele>
        <time>2022-01-07T04:04:13.735Z</time>
      </trkpt>
      <trkpt lat="46.993836" lon="9.563894">
        <ele>610.843689</ele>
        <time>2022-01-07T04:04:19.375Z</time>
      </trkpt>
      <trkpt lat="46.994396" lon="9.563683">
        <ele>608.925570</ele>
        <time>2022-01-07T04:04:28.430Z</time>
      </trkpt>
      <trkpt lat="46.994739" lon="9.563376">
        <ele>607.592420</ele>
        <time>2022-01-07T04:04:34.763Z</time>
      </trkpt>
      <trkpt lat="46.994793" lon="9.563317">
        <ele>607.369008</ele>
        <time>2022-01-07T04:04:36.702Z</time>
      </trkpt>
      <trkpt lat="46.994959" lon="9.563063">
        <ele>606.573039</ele>
        <time>2022-01-07T04:04:40.622Z</time>
      </trkpt>
      <trkpt lat="46.994990" lon="9.562916">
        <ele>606.224889</ele>
        <time>2022-01-07T04:04:42.348Z</time>
      </trkpt>
      <trkpt lat="46.995123" lon="9.562380">
        <ele>605.368733</ele>
        <time>2022-01-07T04:04:48.991Z</time>
      </trkpt>
      <trkpt lat="46.995145" lon="9.562298">
        <ele>605.345215</ele>
        <time>2022-01-07T04:04:50.035Z</time>
      </trkpt>
      <trkpt lat="46.995159" lon="9.562259">
        <ele>605.333452</ele>
        <time>2022-01-07T04:04:50.548Z</time>
      </trkpt>
      <trkpt lat="46.995398" lon="9.561725">
        <ele>605.162984</ele>
        <time>2022-01-07T04:04:58.535Z</time>
      </trkpt>
      <trkpt lat="46.995985" lon="9.561217">
        <ele>604.896255</ele>
        <time>2022-01-07T04:05:12.611Z</time>
      </trkpt>
      <trkpt lat="46.996398" lon="9.560694">
        <ele>605.010684</ele>
        <time>2022-01-07T04:05:27.996Z</time>
      </trkpt>
      <trkpt lat="46.996968" lon="9.560256">
        <ele>606.808841</ele>
        <time>2022-01-07T04:05:49.899Z</time>
      </trkpt>
      <trkpt lat="46.997517" lon="9.560037">
        <ele>608.398601</ele>
        <time>2022-01-07T04:06:09.779Z</time>
      </trkpt>
      <trkpt lat="46.997751" lon="9.559951">
        <ele>609.072664</ele>
        <time>2022-01-07T04:06:18.293Z</time>
      </trkpt>
      <trkpt lat="46.997917" lon="9.559924">
        <ele>609.539342</ele>
        <time>2022-01-07T04:06:24.493Z</time>
      </trkpt>
      <trkpt lat="46.998186" lon="9.559867">
        <ele>610.304538</ele>
        <time>2022-01-07T04:06:33.699Z</time>
      </trkpt>
      <trkpt lat="46.998327" lon="9.559841">
        <ele>610.705774</ele>
        <time>2022-01-07T04:06:38.718Z</time>
      </trkpt>
      <trkpt lat="46.998828" lon="9.559536">
        <ele>612.237381</ele>
        <time>2022-01-07T04:06:57.230Z</time>
      </trkpt>
      <trkpt lat="46.999300" lon="9.559502">
        <ele>613.571636</ele>
        <time>2022-01-07T04:07:13.848Z</time>
      </trkpt>
      <trkpt lat="46.999427" lon="9.559416">
        <ele>613.966601</ele>
        <time>2022-01-07T04:07:18.215Z</time>
      </trkpt>
      <trkpt lat="46.999644" lon="9.559010">
        <ele>614.916145</ele>
        <time>2022-01-07T04:07:28.980Z</time>
      </trkpt>
      <trkpt lat="46.999806" lon="9.558743">
        <ele>615.377846</ele>
        <time>2022-01-07T04:07:36.515Z</time>
      </trkpt>
      <trkpt lat="46.999971" lon="9.558585">
        <ele>615.751163</ele>
        <time>2022-01-07T04:07:42.055Z</time>
      </trkpt>
      <trkpt lat="47.000250" lon="9.558447">
        <ele>616.308945</ele>
        <time>2022-01-07T04:07:50.803Z</time>
      </trkpt>
      <trkpt lat="47.000450" lon="9.557912">
        <ele>617.097154</ele>
        <time>2022-01-07T04:08:03.715Z</time>
      </trkpt>
      <trkpt lat="47.000479" lon="9.557748">
        <ele>617.316037</ele>
        <time>2022-01-07T04:08:07.860Z</time>
      </trkpt>
      <trkpt lat="47.000405" lon="9.557612">
        <ele>617.540808</ele>
        <time>2022-01-07T04:08:11.402Z</time>
      </trkpt>
      <trkpt lat="47.000616" lon="9.556374">
        <ele>617.976934</ele>
        <time>2022-01-07T04:08:35.357Z</time>
      </trkpt>
      <trkpt lat="47.000902" lon="9.555997">
        <ele>617.780662</ele>
        <time>2022-01-07T04:08:42.927Z</time>
      </trkpt>
      <trkpt lat="47.001079" lon="9.555710">
        <ele>617.645983</ele>
        <time>2022-01-07T04:08:47.902Z</time>
      </trkpt>
      <trkpt lat="47.001044" lon="9.555628">
        <ele>617.612314</ele>
        <time>2022-01-07T04:08:49.021Z</time>
      </trkpt>
      <trkpt lat="47.001008" lon="9.555451">
        <ele>617.548027</ele>
        <time>2022-01-07T04:08:51.376Z</time>
      </trkpt>
      <trkpt lat="47.000791" lon="9.554333">
        <ele>616.550409</ele>
        <time>2022-01-07T04:09:05.715Z</time>
      </trkpt>
      <trkpt lat="47.000767" lon="9.554233">
        <ele>616.386927</ele>
        <time>2022-01-07T04:09:07.071Z</time>
      </trkpt>
      <trkpt lat="47.000749" lon="9.554093">
        <ele>616.167227</ele>
        <time>2022-01-07T04:09:08.745Z</time>
      </trkpt>
      <trkpt lat="47.000744" lon="9.553956">
        <ele>615.955654</ele>
        <time>2022-01-07T04:09:10.368Z</time>
      </trkpt>
      <trkpt lat="47.000753" lon="9.553781">
        <ele>615.685016</ele>
        <time>2022-01-07T04:09:12.485Z</time>
      </trkpt>
      <trkpt lat="47.000751" lon="9.553302">
        <ele>614.946326</ele>
        <time>2022-01-07T04:09:17.953Z</time>
      </trkpt>
      <trkpt lat="47.000791" lon="9.552745">
        <ele>614.082616</ele>
        <time>2022-01-07T04:09:24.445Z</time>
      </trkpt>
      <trkpt lat="47.001042" lon="9.551836">
        <ele>612.035788</ele>
        <time>2022-01-07T04:09:35.954Z</time>
      </trkpt>
      <trkpt lat="47.001317" lon="9.551038">
        <ele>609.571479</ele>
        <time>2022-01-07T04:09:45.672Z</time>
      </trkpt>
      <trkpt lat="47.001415" lon="9.550413">
        <ele>607.803910</ele>
        <time>2022-01-07T04:09:52.456Z</time>
      </trkpt>
      <trkpt lat="47.001440" lon="9.549791">
        <ele>606.086581</ele>
        <time>2022-01-07T04:09:58.837Z</time>
      </trkpt>
      <trkpt lat="47.001499" lon="9.549174">
        <ele>603.498185</ele>
        <time>2022-01-07T04:10:05.102Z</time>
      </trkpt>
      <trkpt lat="47.001517" lon="9.547727">
        <ele>597.351796</ele>
        <time>2022-01-07T04:10:19.325Z</time>
      </trkpt>
      <trkpt lat="47.001721" lon="9.546801">
        <ele>593.478391</ele>
        <time>2022-01-07T04:10:28.946Z</time>
      </trkpt>
      <trkpt lat="47.001760" lon="9.546223">
        <ele>591.421775</ele>
        <time>2022-01-07T04:10:34.870Z</time>
      </trkpt>
      <trkpt lat="47.001800" lon="9.545675">
        <ele>589.470296</ele>
        <time>2022-01-07T04:10:40.547Z</time>
      </trkpt>
      <trkpt lat="47.001873" lon="9.545375">
        <ele>588.342443</ele>
        <time>2022-01-07T04:10:43.865Z</time>
      </trkpt>
      <trkpt lat="47.002464" lon="9.543802">
        <ele>582.013841</ele>
        <time>2022-01-07T04:11:02.672Z</time>
      </trkpt>
      <trkpt lat="47.002515" lon="9.543716">
        <ele>581.613860</ele>
        <time>2022-01-07T04:11:03.853Z</time>
      </trkpt>
      <trkpt lat="47.002554" lon="9.543649">
        <ele>581.304707</ele>
        <time>2022-01-07T04:11:04.748Z</time>
      </trkpt>
      <trkpt lat="47.002897" lon="9.543229">
        <ele>579.005005</ele>
        <time>2022-01-07T04:11:11.538Z</time>
      </trkpt>
      <trkpt lat="47.003269" lon="9.542770">
        <ele>576.503006</ele>
        <time>2022-01-07T04:11:18.765Z</time>
      </trkpt>
      <trkpt lat="47.003494" lon="9.542383">
        <ele>574.092619</ele>
        <time>2022-01-07T04:11:23.809Z</time>
      </trkpt>
      <trkpt lat="47.003882" lon="9.541236">
        <ele>567.681462</ele>
        <time>2022-01-07T04:11:36.154Z</time>
      </trkpt>
      <trkpt lat="47.004359" lon="9.539754">
        <ele>559.673678</ele>
        <time>2022-01-07T04:11:51.848Z</time>
      </trkpt>
      <trkpt lat="47.004602" lon="9.539380">
        <ele>557.233320</ele>
        <time>2022-01-07T04:11:56.853Z</time>
      </trkpt>
      <trkpt lat="47.005216" lon="9.538319">
        <ele>550.659568</ele>
        <time>2022-01-07T04:12:10.607Z</time>
      </trkpt>
      <trkpt lat="47.005480" lon="9.537970">
        <ele>548.481452</ele>
        <time>2022-01-07T04:12:15.888Z</time>
      </trkpt>
      <trkpt lat="47.005741" lon="9.537627">
        <ele>546.350949</ele>
        <time>2022-01-07T04:12:21.019Z</time>
      </trkpt>
      <trkpt lat="47.006312" lon="9.536949">
        <ele>541.884668</ele>
        <time>2022-01-07T04:12:31.687Z</time>
      </trkpt>
      <trkpt lat="47.006448" lon="9.536696">
        <ele>540.549222</ele>
        <time>2022-01-07T04:12:34.907Z</time>
      </trkpt>
      <trkpt lat="47.006584" lon="9.536292">
        <ele>538.983819</ele>
        <time>2022-01-07T04:12:39.430Z</time>
      </trkpt>
      <trkpt lat="47.006765" lon="9.535497">
        <ele>536.673814</ele>
        <time>2022-01-07T04:12:48.095Z</time>
      </trkpt>
      <trkpt lat="47.007050" lon="9.534932">
        <ele>534.736880</ele>
        <time>2022-01-07T04:12:55.623Z</time>
      </trkpt>
      <trkpt lat="47.007573" lon="9.534439">
        <ele>532.294942</ele>
        <time>2022-01-07T04:13:05.824Z</time>
      </trkpt>
      <trkpt lat="47.007711" lon="9.534326">
        <ele>532.160475</ele>
        <time>2022-01-07T04:13:08.628Z</time>
      </trkpt>
      <trkpt lat="47.007921" lon="9.534119">
        <ele>531.945207</ele>
        <time>2022-01-07T04:13:13.187Z</time>
      </trkpt>
      <trkpt lat="47.008393" lon="9.533696">
        <ele>531.474602</ele>
        <time>2022-01-07T04:13:23.702Z</time>
      </trkpt>
      <trkpt lat="47.008672" lon="9.533098">
        <ele>531.054256</ele>
        <time>2022-01-07T04:13:34.276Z</time>
      </trkpt>
      <trkpt lat="47.008731" lon="9.532326">
        <ele>530.970930</ele>
        <time>2022-01-07T04:13:47.266Z</time>
      </trkpt>
      <trkpt lat="47.008822" lon="9.532082">
        <ele>531.138773</ele>
        <time>2022-01-07T04:13:52.122Z</time>
      </trkpt>
      <trkpt lat="47.008933" lon="9.531826">
        <ele>531.321862</ele>
        <time>2022-01-07T04:13:57.632Z</time>
      </trkpt>
      <trkpt lat="47.009069" lon="9.531500">
        <ele>531.552506</ele>
        <time>2022-01-07T04:14:04.283Z</time>
      </trkpt>
      <trkpt lat="47.009378" lon="9.531692">
        <ele>531.849526</ele>
        <time>2022-01-07T04:14:12.680Z</time>
      </trkpt>
      <trkpt lat="47.009671" lon="9.531181">
        <ele>532.252457</ele>
        <time>2022-01-07T04:14:24.011Z</time>
      </trkpt>
      <trkpt lat="47.010141" lon="9.530831">
        <ele>532.868384</ele>
        <time>2022-01-07T04:14:39.871Z</time>
      </trkpt>
      <trkpt lat="47.010154" lon="9.529758">
        <ele>533.797757</ele>
        <time>2022-01-07T04:15:01.961Z</time>
      </trkpt>
      <trkpt lat="47.010473" lon="9.529211">
        <ele>534.421086</ele>
        <time>2022-01-07T04:15:13.932Z</time>
      </trkpt>
      <trkpt lat="47.010575" lon="9.529141">
        <ele>534.564113</ele>
        <time>2022-01-07T04:15:16.828Z</time>
      </trkpt>
      <trkpt lat="47.010659" lon="9.529063">
        <ele>534.670666</ele>
        <time>2022-01-07T04:15:19.367Z</time>
      </trkpt>
      <trkpt lat="47.010916" lon="9.528358">
        <ele>534.914996</ele>
        <time>2022-01-07T04:15:31.529Z</time>
      </trkpt>
      <trkpt lat="47.011041" lon="9.528151">
        <ele>534.999505</ele>
        <time>2022-01-07T04:15:36.308Z</time>
      </trkpt>
      <trkpt lat="47.011042" lon="9.527590">
        <ele>535.170963</ele>
        <time>2022-01-07T04:15:46.082Z</time>
      </trkpt>
      <trkpt lat="47.011396" lon="9.526144">
        <ele>535.616188</ele>
        <time>2022-01-07T04:16:10.412Z</time>
      </trkpt>
      <trkpt lat="47.011538" lon="9.525916">
        <ele>535.697396</ele>
        <time>2022-01-07T04:16:15.109Z</time>
      </trkpt>
      <trkpt lat="47.011933" lon="9.525828">
        <ele>535.851490</ele>
        <time>2022-01-07T04:16:24.518Z</time>
      </trkpt>
      <trkpt lat="47.012348" lon="9.524921">
        <ele>536.138739</ele>
        <time>2022-01-07T04:16:42.607Z</time>
      </trkpt>
      <trkpt lat="47.012546" lon="9.524069">
        <ele>536.857830</ele>
        <time>2022-01-07T04:16:58.003Z</time>
      </trkpt>
      <trkpt lat="47.012789" lon="9.523270">
        <ele>537.602616</ele>
        <time>2022-01-07T04:17:12.981Z</time>
      </trkpt>
      <trkpt lat="47.013009" lon="9.522692">
        <ele>538.166141</ele>
        <time>2022-01-07T04:17:26.156Z</time>
      </trkpt>
      <trkpt lat="47.013705" lon="9.521509">
        <ele>541.377619</ele>
        <time>2022-01-07T04:18:01.730Z</time>
      </trkpt>
      <trkpt lat="47.014073" lon="9.521672">
        <ele>542.685373</ele>
        <time>2022-01-07T04:18:16.665Z</time>
      </trkpt>
      <trkpt lat="47.014305" lon="9.521657">
        <ele>543.475386</ele>
        <time>2022-01-07T04:18:26.075Z</time>
      </trkpt>
      <trkpt lat="47.014713" lon="9.521422">
        <ele>544.805759</ele>
        <time>2022-01-07T04:18:43.061Z</time>
      </trkpt>
      <trkpt lat="47.015456" lon="9.521354">
        <ele>546.417357</ele>
        <time>2022-01-07T04:19:10.025Z</time>
      </trkpt>
      <trkpt lat="47.015742" lon="9.521229">
        <ele>547.063403</ele>
        <time>2022-01-07T04:19:19.073Z</time>
      </trkpt>
      <trkpt lat="47.015905" lon="9.521157">
        <ele>547.431926</ele>
        <time>2022-01-07T04:19:23.951Z</time>
      </trkpt>
      <trkpt lat="47.016011" lon="9.520979">
        <ele>547.780753</ele>
        <time>2022-01-07T04:19:28.202Z</time>
      </trkpt>
      <trkpt lat="47.016300" lon="9.519676">
        <ele>547.398221</ele>
        <time>2022-01-07T04:19:47.308Z</time>
      </trkpt>
      <trkpt lat="47.016416" lon="9.519300">
        <ele>546.949669</ele>
        <time>2022-01-07T04:19:52.251Z</time>
      </trkpt>
      <trkpt lat="47.016703" lon="9.518691">
        <ele>546.145039</ele>
        <time>2022-01-07T04:20:00.758Z</time>
      </trkpt>
      <trkpt lat="47.017127" lon="9.517919">
        <ele>544.890738</ele>
        <time>2022-01-07T04:20:12.278Z</time>
      </trkpt>
      <trkpt lat="47.018171" lon="9.516729">
        <ele>542.011559</ele>
        <time>2022-01-07T04:20:35.267Z</time>
      </trkpt>
      <trkpt lat="47.018400" lon="9.516400">
        <ele>541.385602</ele>
        <time>2022-01-07T04:20:41.001Z</time>
      </trkpt>
      <trkpt lat="47.019068" lon="9.515420">
        <ele>539.790763</ele>
        <time>2022-01-07T04:20:57.761Z</time>
      </trkpt>
      <trkpt lat="47.020436" lon="9.514368">
        <ele>537.715065</ele>
        <time>2022-01-07T04:21:26.307Z</time>
      </trkpt>
      <trkpt lat="47.021324" lon="9.513965">
        <ele>536.735738</ele>
        <time>2022-01-07T04:21:44.486Z</time>
      </trkpt>
      <trkpt lat="47.022391" lon="9.513482">
        <ele>536.595781</ele>
        <time>2022-01-07T04:22:09.081Z</time>
      </trkpt>
      <trkpt lat="47.022976" lon="9.513446">
        <ele>536.537992</ele>
        <time>2022-01-07T04:22:22.228Z</time>
      </trkpt>
      <trkpt lat="47.023311" lon="9.513471">
        <ele>536.443243</ele>
        <time>2022-01-07T04:22:29.803Z</time>
      </trkpt>
      <trkpt lat="47.023322" lon="9.513471">
        <ele>536.438894</ele>
        <time>2022-01-07T04:22:30.046Z</time>
      </trkpt>
      <trkpt lat="47.023429" lon="9.513477">
        <ele>536.396562</ele>
        <time>2022-01-07T04:22:32.487Z</time>
      </trkpt>
      <trkpt lat="47.023449" lon="9.513478">
        <ele>536.388650</ele>
        <time>2022-01-07T04:22:32.941Z</time>
      </trkpt>
      <trkpt lat="47.024326" lon="9.513741">
        <ele>536.034766</ele>
        <time>2022-01-07T04:22:52.607Z</time>
      </trkpt>
      <trkpt lat="47.024952" lon="9.513980">
        <ele>535.512811</ele>
        <time>2022-01-07T04:23:05.607Z</time>
      </trkpt>
      <trkpt lat="47.025177" lon="9.514033">
        <ele>534.742891</ele>
        <time>2022-01-07T04:23:09.673Z</time>
      </trkpt>
      <trkpt lat="47.025645" lon="9.514100">
        <ele>533.154200</ele>
        <time>2022-01-07T04:23:17.445Z</time>
      </trkpt>
      <trkpt lat="47.025837" lon="9.514173">
        <ele>532.484078</ele>
        <time>2022-01-07T04:23:20.650Z</time>
      </trkpt>
      <trkpt lat="47.026179" lon="9.514380">
        <ele>531.234116</ele>
        <time>2022-01-07T04:23:26.493Z</time>
      </trkpt>
      <trkpt lat="47.026425" lon="9.513963">
        <ele>529.964037</ele>
        <time>2022-01-07T04:23:32.232Z</time>
      </trkpt>
      <trkpt lat="47.026603" lon="9.513752">
        <ele>528.776264</ele>
        <time>2022-01-07T04:23:35.606Z</time>
      </trkpt>
      <trkpt lat="47.026697" lon="9.513244">
        <ele>526.644449</ele>
        <time>2022-01-07T04:23:40.861Z</time>
      </trkpt>
      <trkpt lat="47.026879" lon="9.513252">
        <ele>525.562651</ele>
        <time>2022-01-07T04:23:43.554Z</time>
      </trkpt>
      <trkpt lat="47.027259" lon="9.513311">
        <ele>523.292355</ele>
        <time>2022-01-07T04:23:49.129Z</time>
      </trkpt>
      <trkpt lat="47.027307" lon="9.513277">
        <ele>522.975672</ele>
        <time>2022-01-07T04:23:49.904Z</time>
      </trkpt>
      <trkpt lat="47.027468" lon="9.512951">
        <ele>521.345317</ele>
        <time>2022-01-07T04:23:53.897Z</time>
      </trkpt>
      <trkpt lat="47.027627" lon="9.512418">
        <ele>518.986456</ele>
        <time>2022-01-07T04:23:59.669Z</time>
      </trkpt>
      <trkpt lat="47.027553" lon="9.512215">
        <ele>518.014684</ele>
        <time>2022-01-07T04:24:01.976Z</time>
      </trkpt>
      <trkpt lat="47.027303" lon="9.511892">
        <ele>515.951658</ele>
        <time>2022-01-07T04:24:06.874Z</time>
      </trkpt>
      <trkpt lat="47.026957" lon="9.511422">
        <ele>513.031437</ele>
        <time>2022-01-07T04:24:13.668Z</time>
      </trkpt>
      <trkpt lat="47.026773" lon="9.511165">
        <ele>511.458088</ele>
        <time>2022-01-07T04:24:17.340Z</time>
      </trkpt>
      <trkpt lat="47.026914" lon="9.510883">
        <ele>509.981745</ele>
        <time>2022-01-07T04:24:20.808Z</time>
      </trkpt>
      <trkpt lat="47.027102" lon="9.510012">
        <ele>506.515476</ele>
        <time>2022-01-07T04:24:30.041Z</time>
      </trkpt>
      <trkpt lat="47.027126" lon="9.509671">
        <ele>505.384466</ele>
        <time>2022-01-07T04:24:33.484Z</time>
      </trkpt>
      <trkpt lat="47.027086" lon="9.508467">
        <ele>501.407508</ele>
        <time>2022-01-07T04:24:45.830Z</time>
      </trkpt>
      <trkpt lat="47.027072" lon="9.508271">
        <ele>500.757323</ele>
        <time>2022-01-07T04:24:47.898Z</time>
      </trkpt>
      <trkpt lat="47.026890" lon="9.507637">
        <ele>498.989122</ele>
        <time>2022-01-07T04:24:55.320Z</time>
      </trkpt>
      <trkpt lat="47.026592" lon="9.506827">
        <ele>498.069208</ele>
        <time>2022-01-07T04:25:06.329Z</time>
      </trkpt>
      <trkpt lat="47.026249" lon="9.506160">
        <ele>497.234172</ele>
        <time>2022-01-07T04:25:17.330Z</time>
      </trkpt>
      <trkpt lat="47.025139" lon="9.504038">
        <ele>496.838577</ele>
        <time>2022-01-07T04:25:59.552Z</time>
      </trkpt>
      <trkpt lat="47.024101" lon="9.501879">
        <ele>497.077064</ele>
        <time>2022-01-07T04:26:41.252Z</time>
      </trkpt>
      <trkpt lat="47.024083" lon="9.501842">
        <ele>497.080552</ele>
        <time>2022-01-07T04:26:41.918Z</time>
      </trkpt>
      <trkpt lat="47.023477" lon="9.500494">
        <ele>496.916038</ele>
        <time>2022-01-07T04:27:05.421Z</time>
      </trkpt>
      <trkpt lat="47.023445" lon="9.500434">
        <ele>496.900658</ele>
        <time>2022-01-07T04:27:06.524Z</time>
      </trkpt>
      <trkpt lat="47.025791" lon="9.498168">
        <ele>495.897533</ele>
        <time>2022-01-07T04:28:05.241Z</time>
      </trkpt>
      <trkpt lat="47.027868" lon="9.496164">
        <ele>494.837835</ele>
        <time>2022-01-07T04:28:57.176Z</time>
      </trkpt>
      <trkpt lat="47.032085" lon="9.492101">
        <ele>492.367750</ele>
        <time>2022-01-07T04:30:40.360Z</time>
      </trkpt>
      <trkpt lat="47.033685" lon="9.490553">
        <ele>491.690073</ele>
        <time>2022-01-07T04:31:20.968Z</time>
      </trkpt>
      <trkpt lat="47.034729" lon="9.489545">
        <ele>491.270685</ele>
        <time>2022-01-07T04:31:47.240Z</time>
      </trkpt>
      <trkpt lat="47.035513" lon="9.488798">
        <ele>490.922843</ele>
        <time>2022-01-07T04:32:06.759Z</time>
      </trkpt>
      <trkpt lat="47.037868" lon="9.486524">
        <ele>489.933616</ele>
        <time>2022-01-07T04:33:05.996Z</time>
      </trkpt>
      <trkpt lat="47.038633" lon="9.485791">
        <ele>489.758686</ele>
        <time>2022-01-07T04:33:25.305Z</time>
      </trkpt>
      <trkpt lat="47.039972" lon="9.484497">
        <ele>489.631435</ele>
        <time>2022-01-07T04:34:00.310Z</time>
      </trkpt>
      <trkpt lat="47.040577" lon="9.483911">
        <ele>489.666410</ele>
        <time>2022-01-07T04:34:16.943Z</time>
      </trkpt>
      <trkpt lat="47.041235" lon="9.483283">
        <ele>489.736918</ele>
        <time>2022-01-07T04:34:34.963Z</time>
      </trkpt>
      <trkpt lat="47.041441" lon="9.483080">
        <ele>489.766459</ele>
        <time>2022-01-07T04:34:40.646Z</time>
      </trkpt>
      <trkpt lat="47.041801" lon="9.482716">
        <ele>489.818506</ele>
        <time>2022-01-07T04:34:50.696Z</time>
      </trkpt>
      <trkpt lat="47.043991" lon="9.480462">
        <ele>489.855055</ele>
        <time>2022-01-07T04:35:50.331Z</time>
      </trkpt>
      <trkpt lat="47.047760" lon="9.477170">
        <ele>489.313764</ele>
        <time>2022-01-07T04:37:25.484Z</time>
      </trkpt>
      <trkpt lat="47.048536" lon="9.476557">
        <ele>489.199772</ele>
        <time>2022-01-07T04:37:44.675Z</time>
      </trkpt>
      <trkpt lat="47.048640" lon="9.476475">
        <ele>489.178568</ele>
        <time>2022-01-07T04:37:47.246Z</time>
      </trkpt>
      <trkpt lat="47.049478" lon="9.475972">
        <ele>489.015956</ele>
        <time>2022-01-07T04:38:06.950Z</time>
      </trkpt>
      <trkpt lat="47.051683" lon="9.474837">
        <ele>488.404864</ele>
        <time>2022-01-07T04:38:56.648Z</time>
      </trkpt>
      <trkpt lat="47.052393" lon="9.474533">
        <ele>488.148068</ele>
        <time>2022-01-07T04:39:12.205Z</time>
      </trkpt>
      <trkpt lat="47.054067" lon="9.473842">
        <ele>487.505748</ele>
        <time>2022-01-07T04:39:48.438Z</time>
      </trkpt>
      <trkpt lat="47.054999" lon="9.473453">
        <ele>487.126639</ele>
        <time>2022-01-07T04:40:08.645Z</time>
      </trkpt>
      <trkpt lat="47.060844" lon="9.471044">
        <ele>485.108327</ele>
        <time>2022-01-07T04:42:16.538Z</time>
      </trkpt>
      <trkpt lat="47.061622" lon="9.470800">
        <ele>484.851442</ele>
        <time>2022-01-07T04:42:33.369Z</time>
      </trkpt>
      <trkpt lat="47.062055" lon="9.470725">
        <ele>484.710656</ele>
        <time>2022-01-07T04:42:42.566Z</time>
      </trkpt>
      <trkpt lat="47.063246" lon="9.470724">
        <ele>484.266780</ele>
        <time>2022-01-07T04:43:07.505Z</time>
      </trkpt>
      <trkpt lat="47.064423" lon="9.470986">
        <ele>483.787236</ele>
        <time>2022-01-07T04:43:32.218Z</time>
      </trkpt>
      <trkpt lat="47.064833" lon="9.471198">
        <ele>483.593989</ele>
        <time>2022-01-07T04:43:41.220Z</time>
      </trkpt>
      <trkpt lat="47.065260" lon="9.471514">
        <ele>483.381405</ele>
        <time>2022-01-07T04:43:51.108Z</time>
      </trkpt>
      <trkpt lat="47.065898" lon="9.472181">
        <ele>483.067724</ele>
        <time>2022-01-07T04:44:07.255Z</time>
      </trkpt>
      <trkpt lat="47.066569" lon="9.473062">
        <ele>482.772276</ele>
        <time>2022-01-07T04:44:26.218Z</time>
      </trkpt>
      <trkpt lat="47.066986" lon="9.473617">
        <ele>482.587546</ele>
        <time>2022-01-07T04:44:38.166Z</time>
      </trkpt>
      <trkpt lat="47.067480" lon="9.474439">
        <ele>482.385861</ele>
        <time>2022-01-07T04:44:54.205Z</time>
      </trkpt>
      <trkpt lat="47.068752" lon="9.477600">
        <ele>481.663612</ele>
        <time>2022-01-07T04:45:47.368Z</time>
      </trkpt>
      <trkpt lat="47.068967" lon="9.478059">
        <ele>481.547596</ele>
        <time>2022-01-07T04:45:55.214Z</time>
      </trkpt>
      <trkpt lat="47.069328" lon="9.479097">
        <ele>481.315763</ele>
        <time>2022-01-07T04:46:11.707Z</time>
      </trkpt>
      <trkpt lat="47.069817" lon="9.480424">
        <ele>481.018561</ele>
        <time>2022-01-07T04:46:33.577Z</time>
      </trkpt>
      <trkpt lat="47.070238" lon="9.481523">
        <ele>480.943600</ele>
        <time>2022-01-07T04:46:52.488Z</time>
      </trkpt>
      <trkpt lat="47.071441" lon="9.484712">
        <ele>480.729371</ele>
        <time>2022-01-07T04:47:47.190Z</time>
      </trkpt>
      <trkpt lat="47.072785" lon="9.488038">
        <ele>480.184169</ele>
        <time>2022-01-07T04:48:43.387Z</time>
      </trkpt>
      <trkpt lat="47.072832" lon="9.488136">
        <ele>480.173120</ele>
        <time>2022-01-07T04:48:45.158Z</time>
      </trkpt>
      <trkpt lat="47.072913" lon="9.488307">
        <ele>480.153918</ele>
        <time>2022-01-07T04:48:48.214Z</time>
      </trkpt>
      <trkpt lat="47.074189" lon="9.491437">
        <ele>479.870875</ele>
        <time>2022-01-07T04:49:42.686Z</time>
      </trkpt>
      <trkpt lat="47.076425" lon="9.495510">
        <ele>479.362851</ele>
        <time>2022-01-07T04:50:59.646Z</time>
      </trkpt>
      <trkpt lat="47.080754" lon="9.503331">
        <ele>479.259535</ele>
        <time>2022-01-07T04:53:32.730Z</time>
      </trkpt>
      <trkpt lat="47.080803" lon="9.503413">
        <ele>479.251435</ele>
        <time>2022-01-07T04:53:34.357Z</time>
      </trkpt>
      <trkpt lat="47.081016" lon="9.503793">
        <ele>479.214895</ele>
        <time>2022-01-07T04:53:41.553Z</time>
      </trkpt>
      <trkpt lat="47.081241" lon="9.504218">
        <ele>479.134018</ele>
        <time>2022-01-07T04:53:49.334Z</time>
      </trkpt>
      <trkpt lat="47.082386" lon="9.506274">
        <ele>478.276573</ele>
        <time>2022-01-07T04:54:26.516Z</time>
      </trkpt>
      <trkpt lat="47.084333" lon="9.509781">
        <ele>476.514914</ele>
        <time>2022-01-07T04:55:28.943Z</time>
      </trkpt>
      <trkpt lat="47.086089" lon="9.512911">
        <ele>474.996311</ele>
        <time>2022-01-07T04:56:25.393Z</time>
      </trkpt>
      <trkpt lat="47.086681" lon="9.513649">
        <ele>474.568291</ele>
        <time>2022-01-07T04:56:41.256Z</time>
      </trkpt>
      <trkpt lat="47.087365" lon="9.514245">
        <ele>474.103649</ele>
        <time>2022-01-07T04:56:57.352Z</time>
      </trkpt>
      <trkpt lat="47.087724" lon="9.514506">
        <ele>473.852291</ele>
        <time>2022-01-07T04:57:05.475Z</time>
      </trkpt>
      <trkpt lat="47.088367" lon="9.514840">
        <ele>473.424322</ele>
        <time>2022-01-07T04:57:19.275Z</time>
      </trkpt>
      <trkpt lat="47.088497" lon="9.514899">
        <ele>473.338942</ele>
        <time>2022-01-07T04:57:22.017Z</time>
      </trkpt>
      <trkpt lat="47.089700" lon="9.515453">
        <ele>472.587523</ele>
        <time>2022-01-07T04:57:47.532Z</time>
      </trkpt>
      <trkpt lat="47.092222" lon="9.516629">
        <ele>471.043874</ele>
        <time>2022-01-07T04:58:41.196Z</time>
      </trkpt>
      <trkpt lat="47.093974" lon="9.517455">
        <ele>470.226903</ele>
        <time>2022-01-07T04:59:19.451Z</time>
      </trkpt>
      <trkpt lat="47.094620" lon="9.517733">
        <ele>469.957036</ele>
        <time>2022-01-07T04:59:33.473Z</time>
      </trkpt>
      <trkpt lat="47.095661" lon="9.518111">
        <ele>469.531548</ele>
        <time>2022-01-07T04:59:55.615Z</time>
      </trkpt>
      <trkpt lat="47.097362" lon="9.518521">
        <ele>468.963249</ele>
        <time>2022-01-07T05:00:31.872Z</time>
      </trkpt>
      <trkpt lat="47.098711" lon="9.518685">
        <ele>468.809964</ele>
        <time>2022-01-07T05:01:01.500Z</time>
      </trkpt>
      <trkpt lat="47.099874" lon="9.518702">
        <ele>468.655345</ele>
        <time>2022-01-07T05:01:27.165Z</time>
      </trkpt>
      <trkpt lat="47.101002" lon="9.518627">
        <ele>468.486281</ele>
        <time>2022-01-07T05:01:51.542Z</time>
      </trkpt>
      <trkpt lat="47.105668" lon="9.517878">
        <ele>467.363219</ele>
        <time>2022-01-07T05:03:31.794Z</time>
      </trkpt>
      <trkpt lat="47.109977" lon="9.516789">
        <ele>466.021184</ele>
        <time>2022-01-07T05:05:04.133Z</time>
      </trkpt>
      <trkpt lat="47.118032" lon="9.514609">
        <ele>463.886431</ele>
        <time>2022-01-07T05:07:58.690Z</time>
      </trkpt>
      <trkpt lat="47.118619" lon="9.514447">
        <ele>463.679140</ele>
        <time>2022-01-07T05:08:11.008Z</time>
      </trkpt>
      <trkpt lat="47.120151" lon="9.514008">
        <ele>463.031951</ele>
        <time>2022-01-07T05:08:43.167Z</time>
      </trkpt>
      <trkpt lat="47.127114" lon="9.512136">
        <ele>461.965449</ele>
        <time>2022-01-07T05:11:17.012Z</time>
      </trkpt>
      <trkpt lat="47.129823" lon="9.511449">
        <ele>461.411967</ele>
        <time>2022-01-07T05:12:15.862Z</time>
      </trkpt>
      <trkpt lat="47.130350" lon="9.511257">
        <ele>461.304773</ele>
        <time>2022-01-07T05:12:27.538Z</time>
      </trkpt>
      <trkpt lat="47.130512" lon="9.511213">
        <ele>461.272248</ele>
        <time>2022-01-07T05:12:31.059Z</time>
      </trkpt>
      <trkpt lat="47.130728" lon="9.511182">
        <ele>461.229400</ele>
        <time>2022-01-07T05:12:35.728Z</time>
      </trkpt>
      <trkpt lat="47.131179" lon="9.511089">
        <ele>461.156450</ele>
        <time>2022-01-07T05:12:45.502Z</time>
      </trkpt>
      <trkpt lat="47.131459" lon="9.511032">
        <ele>461.159838</ele>
        <time>2022-01-07T05:12:51.701Z</time>
      </trkpt>
      <trkpt lat="47.131971" lon="9.510816">
        <ele>461.166223</ele>
        <time>2022-01-07T05:13:03.690Z</time>
      </trkpt>
      <trkpt lat="47.132562" lon="9.510584">
        <ele>461.173556</ele>
        <time>2022-01-07T05:13:17.537Z</time>
      </trkpt>
      <trkpt lat="47.132752" lon="9.510518">
        <ele>461.175896</ele>
        <time>2022-01-07T05:13:21.923Z</time>
      </trkpt>
      <trkpt lat="47.133331" lon="9.510477">
        <ele>461.120370</ele>
        <time>2022-01-07T05:13:36.345Z</time>
      </trkpt>
      <trkpt lat="47.140794" lon="9.507356">
        <ele>460.158008</ele>
        <time>2022-01-07T05:16:44.205Z</time>
      </trkpt>
      <trkpt lat="47.141520" lon="9.506973">
        <ele>460.026605</ele>
        <time>2022-01-07T05:17:02.640Z</time>
      </trkpt>
      <trkpt lat="47.141714" lon="9.506871">
        <ele>459.981490</ele>
        <time>2022-01-07T05:17:07.529Z</time>
      </trkpt>
      <trkpt lat="47.143231" lon="9.505655">
        <ele>459.625500</ele>
        <time>2022-01-07T05:17:48.687Z</time>
      </trkpt>
      <trkpt lat="47.143415" lon="9.505407">
        <ele>459.606428</ele>
        <time>2022-01-07T05:17:54.696Z</time>
      </trkpt>
      <trkpt lat="47.143643" lon="9.504962">
        <ele>459.577475</ele>
        <time>2022-01-07T05:18:03.866Z</time>
      </trkpt>
      <trkpt lat="47.143712" lon="9.504885">
        <ele>459.570856</ele>
        <time>2022-01-07T05:18:05.752Z</time>
      </trkpt>
      <trkpt lat="47.146617" lon="9.501748">
        <ele>459.474346</ele>
        <time>2022-01-07T05:19:26.233Z</time>
      </trkpt>
      <trkpt lat="47.146669" lon="9.501693">
        <ele>459.472473</ele>
        <time>2022-01-07T05:19:27.665Z</time>
      </trkpt>
      <trkpt lat="47.147995" lon="9.500260">
        <ele>459.308728</ele>
        <time>2022-01-07T05:20:03.809Z</time>
      </trkpt>
      <trkpt lat="47.149060" lon="9.499189">
        <ele>459.046103</ele>
        <time>2022-01-07T05:20:31.197Z</time>
      </trkpt>
      <trkpt lat="47.149127" lon="9.499124">
        <ele>459.021730</ele>
        <time>2022-01-07T05:20:32.877Z</time>
      </trkpt>
      <trkpt lat="47.149924" lon="9.498478">
        <ele>458.745405</ele>
        <time>2022-01-07T05:20:51.976Z</time>
      </trkpt>
      <trkpt lat="47.152774" lon="9.496652">
        <ele>458.036337</ele>
        <time>2022-01-07T05:21:58.548Z</time>
      </trkpt>
      <trkpt lat="47.153098" lon="9.496427">
        <ele>457.971868</ele>
        <time>2022-01-07T05:22:06.377Z</time>
      </trkpt>
      <trkpt lat="47.154786" lon="9.495351">
        <ele>457.487610</ele>
        <time>2022-01-07T05:22:45.929Z</time>
      </trkpt>
      <trkpt lat="47.155297" lon="9.495022">
        <ele>457.314982</ele>
        <time>2022-01-07T05:22:57.550Z</time>
      </trkpt>
      <trkpt lat="47.162595" lon="9.490488">
        <ele>451.802457</ele>
        <time>2022-01-07T05:25:36.602Z</time>
      </trkpt>
      <trkpt lat="47.162626" lon="9.490463">
        <ele>451.763947</ele>
        <time>2022-01-07T05:25:37.229Z</time>
      </trkpt>
      <trkpt lat="47.163181" lon="9.489906">
        <ele>451.032070</ele>
        <time>2022-01-07T05:25:49.723Z</time>
      </trkpt>
      <trkpt lat="47.163151" lon="9.489781">
        <ele>450.933896</ele>
        <time>2022-01-07T05:25:51.320Z</time>
      </trkpt>
      <trkpt lat="47.163019" lon="9.489185">
        <ele>450.474674</ele>
        <time>2022-01-07T05:25:59.288Z</time>
      </trkpt>
      <trkpt lat="47.162492" lon="9.486913">
        <ele>448.782848</ele>
        <time>2022-01-07T05:26:30.707Z</time>
      </trkpt>
      <trkpt lat="47.162430" lon="9.486741">
        <ele>448.658278</ele>
        <time>2022-01-07T05:26:33.377Z</time>
      </trkpt>
      <trkpt lat="47.162364" lon="9.486518">
        <ele>448.521194</ele>
        <time>2022-01-07T05:26:36.707Z</time>
      </trkpt>
      <trkpt lat="47.162334" lon="9.486423">
        <ele>448.462155</ele>
        <time>2022-01-07T05:26:38.141Z</time>
      </trkpt>
      <trkpt lat="47.162312" lon="9.486351">
        <ele>448.417663</ele>
        <time>2022-01-07T05:26:39.226Z</time>
      </trkpt>
      <trkpt lat="47.162101" lon="9.485667">
        <ele>447.994306</ele>
        <time>2022-01-07T05:26:49.347Z</time>
      </trkpt>
      <trkpt lat="47.161799" lon="9.484672">
        <ele>447.380134</ele>
        <time>2022-01-07T05:27:03.928Z</time>
      </trkpt>
      <trkpt lat="47.161438" lon="9.483461">
        <ele>446.785722</ele>
        <time>2022-01-07T05:27:21.428Z</time>
      </trkpt>
      <trkpt lat="47.161739" lon="9.483268">
        <ele>446.583986</ele>
        <time>2022-01-07T05:27:28.055Z</time>
      </trkpt>
      <trkpt lat="47.162028" lon="9.482902">
        <ele>446.349677</ele>
        <time>2022-01-07T05:27:35.921Z</time>
      </trkpt>
      <trkpt lat="47.162291" lon="9.482536">
        <ele>446.127229</ele>
        <time>2022-01-07T05:27:43.551Z</time>
      </trkpt>
      <trkpt lat="47.162593" lon="9.482326">
        <ele>446.049032</ele>
        <time>2022-01-07T05:27:50.643Z</time>
      </trkpt>
      <trkpt lat="47.163414" lon="9.482034">
        <ele>445.875871</ele>
        <time>2022-01-07T05:28:08.826Z</time>
      </trkpt>
      <trkpt lat="47.164028" lon="9.481819">
        <ele>445.746480</ele>
        <time>2022-01-07T05:28:22.631Z</time>
      </trkpt>
      <trkpt lat="47.164341" lon="9.481583">
        <ele>445.660946</ele>
        <time>2022-01-07T05:28:30.150Z</time>
      </trkpt>
      <trkpt lat="47.164575" lon="9.480980">
        <ele>445.545489</ele>
        <time>2022-01-07T05:28:40.191Z</time>
      </trkpt>
      <trkpt lat="47.164682" lon="9.480839">
        <ele>445.510351</ele>
        <time>2022-01-07T05:28:43.247Z</time>
      </trkpt>
      <trkpt lat="47.164851" lon="9.480807">
        <ele>445.468675</ele>
        <time>2022-01-07T05:28:46.844Z</time>
      </trkpt>
      <trkpt lat="47.164985" lon="9.480873">
        <ele>445.434112</ele>
        <time>2022-01-07T05:28:49.854Z</time>
      </trkpt>
      <trkpt lat="47.165053" lon="9.480942">
        <ele>445.413906</ele>
        <time>2022-01-07T05:28:51.606Z</time>
      </trkpt>
      <trkpt lat="47.165432" lon="9.481279">
        <ele>445.305586</ele>
        <time>2022-01-07T05:29:01.047Z</time>
      </trkpt>
      <trkpt lat="47.165910" lon="9.480828">
        <ele>445.231151</ele>
        <time>2022-01-07T05:29:13.183Z</time>
      </trkpt>
      <trkpt lat="47.166022" lon="9.480761">
        <ele>445.215462</ele>
        <time>2022-01-07T05:29:15.743Z</time>
      </trkpt>
      <trkpt lat="47.166168" lon="9.480794">
        <ele>445.196294</ele>
        <time>2022-01-07T05:29:18.878Z</time>
      </trkpt>
      <trkpt lat="47.166363" lon="9.481096">
        <ele>445.159551</ele>
        <time>2022-01-07T05:29:24.955Z</time>
      </trkpt>
      <trkpt lat="47.167130" lon="9.480337">
        <ele>445.213953</ele>
        <time>2022-01-07T05:29:45.461Z</time>
      </trkpt>
      <trkpt lat="47.167213" lon="9.480308">
        <ele>445.265126</ele>
        <time>2022-01-07T05:29:47.472Z</time>
      </trkpt>
      <trkpt lat="47.167417" lon="9.480236">
        <ele>445.390968</ele>
        <time>2022-01-07T05:29:52.480Z</time>
      </trkpt>
      <trkpt lat="47.167451" lon="9.480244">
        <ele>445.411622</ele>
        <time>2022-01-07T05:29:53.305Z</time>
      </trkpt>
      <trkpt lat="47.167437" lon="9.480157">
        <ele>445.448082</ele>
        <time>2022-01-07T05:29:54.845Z</time>
      </trkpt>
      <trkpt lat="47.167374" lon="9.479771">
        <ele>445.609969</ele>
        <time>2022-01-07T05:30:01.834Z</time>
      </trkpt>
      <trkpt lat="47.167294" lon="9.479240">
        <ele>445.831771</ele>
        <time>2022-01-07T05:30:11.266Z</time>
      </trkpt>
      <trkpt lat="47.167259" lon="9.479024">
        <ele>445.922325</ele>
        <time>2022-01-07T05:30:15.155Z</time>
      </trkpt>
      <trkpt lat="47.167256" lon="9.479005">
        <ele>445.930280</ele>
        <time>2022-01-07T05:30:15.491Z</time>
      </trkpt>
      <trkpt lat="47.167293" lon="9.478669">
        <ele>446.069091</ele>
        <time>2022-01-07T05:30:21.423Z</time>
      </trkpt>
      <trkpt lat="47.167280" lon="9.478558">
        <ele>446.115025</ele>
        <time>2022-01-07T05:30:23.435Z</time>
      </trkpt>
      <trkpt lat="47.167272" lon="9.478489">
        <ele>446.143570</ele>
        <time>2022-01-07T05:30:24.671Z</time>
      </trkpt>
      <trkpt lat="47.167257" lon="9.478470">
        <ele>446.159270</ele>
        <time>2022-01-07T05:30:25.192Z</time>
      </trkpt>
      <trkpt lat="47.167176" lon="9.478329">
        <ele>446.283145</ele>
        <time>2022-01-07T05:30:28.431Z</time>
      </trkpt>
      <trkpt lat="47.167157" lon="9.478248">
        <ele>446.340644</ele>
        <time>2022-01-07T05:30:29.941Z</time>
      </trkpt>
      <trkpt lat="47.167018" lon="9.477615">
        <ele>446.787030</ele>
        <time>2022-01-07T05:30:41.742Z</time>
      </trkpt>
      <trkpt lat="47.166968" lon="9.477508">
        <ele>446.874158</ele>
        <time>2022-01-07T05:30:44.040Z</time>
      </trkpt>
      <trkpt lat="47.166952" lon="9.477436">
        <ele>446.924990</ele>
        <time>2022-01-07T05:30:45.384Z</time>
      </trkpt>
      <trkpt lat="47.166672" lon="9.476168">
        <ele>447.819651</ele>
        <time>2022-01-07T05:31:09.714Z</time>
      </trkpt>
      <trkpt lat="47.166477" lon="9.475297">
        <ele>448.329975</ele>
        <time>2022-01-07T05:31:25.421Z</time>
      </trkpt>
      <trkpt lat="47.166440" lon="9.475129">
        <ele>448.424080</ele>
        <time>2022-01-07T05:31:28.358Z</time>
      </trkpt>
      <trkpt lat="47.166355" lon="9.474724">
        <ele>448.649949</ele>
        <time>2022-01-07T05:31:35.464Z</time>
      </trkpt>
      <trkpt lat="47.166250" lon="9.474237">
        <ele>448.922202</ele>
        <time>2022-01-07T05:31:44.094Z</time>
      </trkpt>
      <trkpt lat="47.166117" lon="9.473588">
        <ele>449.283417</ele>
        <time>2022-01-07T05:31:55.674Z</time>
      </trkpt>
      <trkpt lat="47.165993" lon="9.472982">
        <ele>449.761730</ele>
        <time>2022-01-07T05:32:06.934Z</time>
      </trkpt>
      <trkpt lat="47.165859" lon="9.472320">
        <ele>450.311359</ele>
        <time>2022-01-07T05:32:19.793Z</time>
      </trkpt>
      <trkpt lat="47.165785" lon="9.471985">
        <ele>450.591648</ele>
        <time>2022-01-07T05:32:26.490Z</time>
      </trkpt>
      <trkpt lat="47.165708" lon="9.471641">
        <ele>450.879836</ele>
        <time>2022-01-07T05:32:33.017Z</time>
      </trkpt>
      <trkpt lat="47.165644" lon="9.471352">
        <ele>451.121697</ele>
        <time>2022-01-07T05:32:38.270Z</time>
      </trkpt>
      <trkpt lat="47.165519" lon="9.471107">
        <ele>451.365443</ele>
        <time>2022-01-07T05:32:44.216Z</time>
      </trkpt>
      <trkpt lat="47.165538" lon="9.470982">
        <ele>451.465155</ele>
        <time>2022-01-07T05:32:46.531Z</time>
      </trkpt>
      <trkpt lat="47.165542" lon="9.470888">
        <ele>451.534090</ele>
        <time>2022-01-07T05:32:48.079Z</time>
      </trkpt>
      <trkpt lat="47.165537" lon="9.469992">
        <ele>452.189906</ele>
        <time>2022-01-07T05:33:05.796Z</time>
      </trkpt>
      <trkpt lat="47.165631" lon="9.470011">
        <ele>452.292051</ele>
        <time>2022-01-07T05:33:08.162Z</time>
      </trkpt>
      <trkpt lat="47.165948" lon="9.469987">
        <ele>452.633763</ele>
        <time>2022-01-07T05:33:17.409Z</time>
      </trkpt>
      <trkpt lat="47.165991" lon="9.469965">
        <ele>452.682774</ele>
        <time>2022-01-07T05:33:18.438Z</time>
      </trkpt>
      <trkpt lat="47.165948" lon="9.469987">
        <ele>452.731785</ele>
        <time>2022-01-07T05:33:19.909Z</time>
      </trkpt>
      <trkpt lat="47.165631" lon="9.470011">
        <ele>453.073497</ele>
        <time>2022-01-07T05:33:28.097Z</time>
      </trkpt>
      <trkpt lat="47.165537" lon="9.469992">
        <ele>453.175642</ele>
        <time>2022-01-07T05:33:30.683Z</time>
      </trkpt>
      <trkpt lat="47.165547" lon="9.469774">
        <ele>453.335562</ele>
        <time>2022-01-07T05:33:34.317Z</time>
      </trkpt>
      <trkpt lat="47.165608" lon="9.469059">
        <ele>452.940277</ele>
        <time>2022-01-07T05:33:44.516Z</time>
      </trkpt>
      <trkpt lat="47.165757" lon="9.468650">
        <ele>452.636287</ele>
        <time>2022-01-07T05:33:50.677Z</time>
      </trkpt>
      <trkpt lat="47.165855" lon="9.468436">
        <ele>452.467252</ele>
        <time>2022-01-07T05:33:54.145Z</time>
      </trkpt>
      <trkpt lat="47.166702" lon="9.466556">
        <ele>450.602717</ele>
        <time>2022-01-07T05:34:21.821Z</time>
      </trkpt>
      <trkpt lat="47.166881" lon="9.466151">
        <ele>450.098751</ele>
        <time>2022-01-07T05:34:27.576Z</time>
      </trkpt>
      <trkpt lat="47.167196" lon="9.465669">
        <ele>449.401236</ele>
        <time>2022-01-07T05:34:35.844Z</time>
      </trkpt>
      <trkpt lat="47.167251" lon="9.465588">
        <ele>449.281802</ele>
        <time>2022-01-07T05:34:37.301Z</time>
      </trkpt>
      <trkpt lat="47.167771" lon="9.464907">
        <ele>449.017612</ele>
        <time>2022-01-07T05:34:51.010Z</time>
      </trkpt>
      <trkpt lat="47.168263" lon="9.464159">
        <ele>449.236214</ele>
        <time>2022-01-07T05:35:05.883Z</time>
      </trkpt>
      <trkpt lat="47.168454" lon="9.463832">
        <ele>449.326763</ele>
        <time>2022-01-07T05:35:12.651Z</time>
      </trkpt>
      <trkpt lat="47.168523" lon="9.463756">
        <ele>449.353395</ele>
        <time>2022-01-07T05:35:15.029Z</time>
      </trkpt>
      <trkpt lat="47.168619" lon="9.463673">
        <ele>449.387797</ele>
        <time>2022-01-07T05:35:18.173Z</time>
      </trkpt>
      <trkpt lat="47.168914" lon="9.463508">
        <ele>449.920529</ele>
        <time>2022-01-07T05:35:28.385Z</time>
      </trkpt>
      <trkpt lat="47.168998" lon="9.463467">
        <ele>450.202226</ele>
        <time>2022-01-07T05:35:31.466Z</time>
      </trkpt>
      <trkpt lat="47.169092" lon="9.463465">
        <ele>450.501448</ele>
        <time>2022-01-07T05:35:34.985Z</time>
      </trkpt>
      <trkpt lat="47.169206" lon="9.463457">
        <ele>450.864709</ele>
        <time>2022-01-07T05:35:39.526Z</time>
      </trkpt>
      <trkpt lat="47.169278" lon="9.463511">
        <ele>451.121946</ele>
        <time>2022-01-07T05:35:42.845Z</time>
      </trkpt>
      <trkpt lat="47.169358" lon="9.463484">
        <ele>451.383192</ele>
        <time>2022-01-07T05:35:46.205Z</time>
      </trkpt>
      <trkpt lat="47.169414" lon="9.463333">
        <ele>451.755385</ele>
        <time>2022-01-07T05:35:50.541Z</time>
      </trkpt>
      <trkpt lat="47.169387" lon="9.463220">
        <ele>452.014560</ele>
        <time>2022-01-07T05:35:53.804Z</time>
      </trkpt>
      <trkpt lat="47.169382" lon="9.463039">
        <ele>452.406536</ele>
        <time>2022-01-07T05:35:58.761Z</time>
      </trkpt>
      <trkpt lat="47.169378" lon="9.462837">
        <ele>452.843814</ele>
        <time>2022-01-07T05:36:03.873Z</time>
      </trkpt>
      <trkpt lat="47.169403" lon="9.462531">
        <ele>453.510709</ele>
        <time>2022-01-07T05:36:11.941Z</time>
      </trkpt>
      <trkpt lat="47.169407" lon="9.462204">
        <ele>454.218395</ele>
        <time>2022-01-07T05:36:19.608Z</time>
      </trkpt>
      <trkpt lat="47.169436" lon="9.461406">
        <ele>455.323386</ele>
        <time>2022-01-07T05:36:37.120Z</time>
      </trkpt>
      <trkpt lat="47.169542" lon="9.460488">
        <ele>455.734483</ele>
        <time>2022-01-07T05:36:55.454Z</time>
      </trkpt>
      <trkpt lat="47.169586" lon="9.460300">
        <ele>455.822265</ele>
        <time>2022-01-07T05:36:58.648Z</time>
      </trkpt>
      <trkpt lat="47.169674" lon="9.460000">
        <ele>455.966517</ele>
        <time>2022-01-07T05:37:03.979Z</time>
      </trkpt>
      <trkpt lat="47.169722" lon="9.459879">
        <ele>456.028367</ele>
        <time>2022-01-07T05:37:05.950Z</time>
      </trkpt>
      <trkpt lat="47.169896" lon="9.459487">
        <ele>456.235056</ele>
        <time>2022-01-07T05:37:12.105Z</time>
      </trkpt>
      <trkpt lat="47.170341" lon="9.458541">
        <ele>455.833477</ele>
        <time>2022-01-07T05:37:25.842Z</time>
      </trkpt>
      <trkpt lat="47.170473" lon="9.458273">
        <ele>455.656660</ele>
        <time>2022-01-07T05:37:30.126Z</time>
      </trkpt>
      <trkpt lat="47.170952" lon="9.457148">
        <ele>454.947446</ele>
        <time>2022-01-07T05:37:49.198Z</time>
      </trkpt>
      <trkpt lat="47.171208" lon="9.456524">
        <ele>454.952268</ele>
        <time>2022-01-07T05:38:01.332Z</time>
      </trkpt>
      <trkpt lat="47.171555" lon="9.456048">
        <ele>454.987903</ele>
        <time>2022-01-07T05:38:12.895Z</time>
      </trkpt>
      <trkpt lat="47.171965" lon="9.455774">
        <ele>455.021724</ele>
        <time>2022-01-07T05:38:23.121Z</time>
      </trkpt>
      <trkpt lat="47.172657" lon="9.455415">
        <ele>454.754284</ele>
        <time>2022-01-07T05:38:38.335Z</time>
      </trkpt>
      <trkpt lat="47.173742" lon="9.454787">
        <ele>453.658347</ele>
        <time>2022-01-07T05:39:00.935Z</time>
      </trkpt>
      <trkpt lat="47.174374" lon="9.454170">
        <ele>452.519376</ele>
        <time>2022-01-07T05:39:14.970Z</time>
      </trkpt>
      <trkpt lat="47.174945" lon="9.455448">
        <ele>450.543837</ele>
        <time>2022-01-07T05:39:33.184Z</time>
      </trkpt>
      <trkpt lat="47.175105" lon="9.455972">
        <ele>449.820046</ele>
        <time>2022-01-07T05:39:39.915Z</time>
      </trkpt>
      <trkpt lat="47.175202" lon="9.456547">
        <ele>449.152654</ele>
        <time>2022-01-07T05:39:46.848Z</time>
      </trkpt>
      <trkpt lat="47.175201" lon="9.456755">
        <ele>448.918334</ele>
        <time>2022-01-07T05:39:49.232Z</time>
      </trkpt>
      <trkpt lat="47.175196" lon="9.458656">
        <ele>446.917296</ele>
        <time>2022-01-07T05:40:13.099Z</time>
      </trkpt>
      <trkpt lat="47.175216" lon="9.466010">
        <ele>444.974420</ele>
        <time>2022-01-07T05:41:58.518Z</time>
      </trkpt>
      <trkpt lat="47.175201" lon="9.466082">
        <ele>444.957169</ele>
        <time>2022-01-07T05:41:59.582Z</time>
      </trkpt>
      <trkpt lat="47.175165" lon="9.466065">
        <ele>444.944428</ele>
        <time>2022-01-07T05:42:00.350Z</time>
      </trkpt>
      <trkpt lat="47.175114" lon="9.466161">
        <ele>444.916518</ele>
        <time>2022-01-07T05:42:02.037Z</time>
      </trkpt>
      <trkpt lat="47.175045" lon="9.466128">
        <ele>444.892068</ele>
        <time>2022-01-07T05:42:03.496Z</time>
      </trkpt>
      <trkpt lat="47.174994" lon="9.466095">
        <ele>444.874749</ele>
        <time>2022-01-07T05:42:04.633Z</time>
      </trkpt>
      <trkpt lat="47.174555" lon="9.465872">
        <ele>444.760848</ele>
        <time>2022-01-07T05:42:14.268Z</time>
      </trkpt>
      <trkpt lat="47.174350" lon="9.465982">
        <ele>444.707332</ele>
        <time>2022-01-07T05:42:18.787Z</time>
      </trkpt>
      <trkpt lat="47.174304" lon="9.465962">
        <ele>444.695568</ele>
        <time>2022-01-07T05:42:19.797Z</time>
      </trkpt>
      <trkpt lat="47.174248" lon="9.465938">
        <ele>444.681263</ele>
        <time>2022-01-07T05:42:21.046Z</time>
      </trkpt>
      <trkpt lat="47.174244" lon="9.465959">
        <ele>444.677627</ele>
        <time>2022-01-07T05:42:21.361Z</time>
      </trkpt>
      <trkpt lat="47.174223" lon="9.466062">
        <ele>444.659700</ele>
        <time>2022-01-07T05:42:22.901Z</time>
      </trkpt>
      <trkpt lat="47.174205" lon="9.466138">
        <ele>444.646283</ele>
        <time>2022-01-07T05:42:24.058Z</time>
      </trkpt>
      <trkpt lat="47.174168" lon="9.466556">
        <ele>444.576009</ele>
        <time>2022-01-07T05:42:30.137Z</time>
      </trkpt>
      <trkpt lat="47.174201" lon="9.467074">
        <ele>444.489273</ele>
        <time>2022-01-07T05:42:37.752Z</time>
      </trkpt>
      <trkpt lat="47.174352" lon="9.469626">
        <ele>444.767903</ele>
        <time>2022-01-07T05:43:18.336Z</time>
      </trkpt>
      <trkpt lat="47.174466" lon="9.471556">
        <ele>444.913237</ele>
        <time>2022-01-07T05:43:48.581Z</time>
      </trkpt>
      <trkpt lat="47.174712" lon="9.473293">
        <ele>444.863643</ele>
        <time>2022-01-07T05:44:15.092Z</time>
      </trkpt>
      <trkpt lat="47.174720" lon="9.473340">
        <ele>444.855547</ele>
        <time>2022-01-07T05:44:15.797Z</time>
      </trkpt>
      <trkpt lat="47.174753" lon="9.473534">
        <ele>444.822127</ele>
        <time>2022-01-07T05:44:18.679Z</time>
      </trkpt>
      <trkpt lat="47.174885" lon="9.474221">
        <ele>444.702824</ele>
        <time>2022-01-07T05:44:28.888Z</time>
      </trkpt>
      <trkpt lat="47.174913" lon="9.474210">
        <ele>444.695699</ele>
        <time>2022-01-07T05:44:29.505Z</time>
      </trkpt>
      <trkpt lat="47.174987" lon="9.474747">
        <ele>444.604135</ele>
        <time>2022-01-07T05:44:37.349Z</time>
      </trkpt>
      <trkpt lat="47.175025" lon="9.474947">
        <ele>444.569432</ele>
        <time>2022-01-07T05:44:41.295Z</time>
      </trkpt>
      <trkpt lat="47.175200" lon="9.475679">
        <ele>444.434300</ele>
        <time>2022-01-07T05:44:52.434Z</time>
      </trkpt>
      <trkpt lat="47.175253" lon="9.475982">
        <ele>444.378972</ele>
        <time>2022-01-07T05:44:56.923Z</time>
      </trkpt>
      <trkpt lat="47.175345" lon="9.476539">
        <ele>444.277607</ele>
        <time>2022-01-07T05:45:05.144Z</time>
      </trkpt>
      <trkpt lat="47.175466" lon="9.477284">
        <ele>444.142154</ele>
        <time>2022-01-07T05:45:16.206Z</time>
      </trkpt>
      <trkpt lat="47.175475" lon="9.477339">
        <ele>444.132150</ele>
        <time>2022-01-07T05:45:17.035Z</time>
      </trkpt>
      <trkpt lat="47.175570" lon="9.477857">
        <ele>444.062272</ele>
        <time>2022-01-07T05:45:24.937Z</time>
      </trkpt>
      <trkpt lat="47.175609" lon="9.477893">
        <ele>444.060838</ele>
        <time>2022-01-07T05:45:25.928Z</time>
      </trkpt>
      <trkpt lat="47.175694" lon="9.478644">
        <ele>444.044719</ele>
        <time>2022-01-07T05:45:37.379Z</time>
      </trkpt>
      <trkpt lat="47.175763" lon="9.479179">
        <ele>444.033189</ele>
        <time>2022-01-07T05:45:45.616Z</time>
      </trkpt>
      <trkpt lat="47.175794" lon="9.479366">
        <ele>444.029114</ele>
        <time>2022-01-07T05:45:48.520Z</time>
      </trkpt>
      <trkpt lat="47.175830" lon="9.479576">
        <ele>444.024529</ele>
        <time>2022-01-07T05:45:51.799Z</time>
      </trkpt>
      <trkpt lat="47.175960" lon="9.480349">
        <ele>444.042384</ele>
        <time>2022-01-07T05:46:03.837Z</time>
      </trkpt>
      <trkpt lat="47.176024" lon="9.480806">
        <ele>444.205660</ele>
        <time>2022-01-07T05:46:10.895Z</time>
      </trkpt>
      <trkpt lat="47.176114" lon="9.480993">
        <ele>444.285839</ele>
        <time>2022-01-07T05:46:14.434Z</time>
      </trkpt>
      <trkpt lat="47.176133" lon="9.481105">
        <ele>444.326233</ele>
        <time>2022-01-07T05:46:16.231Z</time>
      </trkpt>
      <trkpt lat="47.176182" lon="9.481790">
        <ele>444.567257</ele>
        <time>2022-01-07T05:46:27.194Z</time>
      </trkpt>
      <trkpt lat="47.176133" lon="9.482171">
        <ele>444.702945</ele>
        <time>2022-01-07T05:46:33.617Z</time>
      </trkpt>
      <trkpt lat="47.176297" lon="9.482300">
        <ele>444.798682</ele>
        <time>2022-01-07T05:46:38.253Z</time>
      </trkpt>
      <trkpt lat="47.176389" lon="9.482794">
        <ele>445.100234</ele>
        <time>2022-01-07T05:46:47.360Z</time>
      </trkpt>
      <trkpt lat="47.176579" lon="9.483952">
        <ele>446.721405</ele>
        <time>2022-01-07T05:47:11.690Z</time>
      </trkpt>
      <trkpt lat="47.176623" lon="9.484222">
        <ele>447.099257</ele>
        <time>2022-01-07T05:47:17.801Z</time>
      </trkpt>
      <trkpt lat="47.176634" lon="9.484316">
        <ele>447.229062</ele>
        <time>2022-01-07T05:47:19.843Z</time>
      </trkpt>
      <trkpt lat="47.176648" lon="9.484424">
        <ele>447.378687</ele>
        <time>2022-01-07T05:47:22.136Z</time>
      </trkpt>
      <trkpt lat="47.176669" lon="9.484645">
        <ele>447.682367</ele>
        <time>2022-01-07T05:47:27.044Z</time>
      </trkpt>
      <trkpt lat="47.176697" lon="9.484978">
        <ele>448.138996</ele>
        <time>2022-01-07T05:47:34.265Z</time>
      </trkpt>
      <trkpt lat="47.176790" lon="9.485839">
        <ele>449.167940</ele>
        <time>2022-01-07T05:47:53.398Z</time>
      </trkpt>
      <trkpt lat="47.176455" lon="9.485978">
        <ele>449.725681</ele>
        <time>2022-01-07T05:48:04.286Z</time>
      </trkpt>
      <trkpt lat="47.175167" lon="9.486583">
        <ele>451.439304</ele>
        <time>2022-01-07T05:48:40.660Z</time>
      </trkpt>
      <trkpt lat="47.175031" lon="9.486629">
        <ele>451.449031</ele>
        <time>2022-01-07T05:48:43.710Z</time>
      </trkpt>
      <trkpt lat="47.175039" lon="9.486713">
        <ele>451.453050</ele>
        <time>2022-01-07T05:48:45.104Z</time>
      </trkpt>
      <trkpt lat="47.175268" lon="9.488411">
        <ele>451.535078</ele>
        <time>2022-01-07T05:49:10.041Z</time>
      </trkpt>
      <trkpt lat="47.175279" lon="9.488480">
        <ele>451.538436</ele>
        <time>2022-01-07T05:49:10.968Z</time>
      </trkpt>
      <trkpt lat="47.178388" lon="9.487575">
        <ele>451.019396</ele>
        <time>2022-01-07T05:50:19.254Z</time>
      </trkpt>
      <trkpt lat="47.181097" lon="9.486824">
        <ele>450.641631</ele>
        <time>2022-01-07T05:51:19.402Z</time>
      </trkpt>
      <trkpt lat="47.181682" lon="9.486821">
        <ele>450.518970</ele>
        <time>2022-01-07T05:51:31.902Z</time>
      </trkpt>
      <trkpt lat="47.182391" lon="9.486957">
        <ele>450.369052</ele>
        <time>2022-01-07T05:51:47.218Z</time>
      </trkpt>
      <trkpt lat="47.183029" lon="9.487089">
        <ele>450.293973</ele>
        <time>2022-01-07T05:52:01.079Z</time>
      </trkpt>
      <trkpt lat="47.186242" lon="9.487832">
        <ele>450.109767</ele>
        <time>2022-01-07T05:53:13.091Z</time>
      </trkpt>
      <trkpt lat="47.188023" lon="9.488261">
        <ele>450.100440</ele>
        <time>2022-01-07T05:53:52.995Z</time>
      </trkpt>
      <trkpt lat="47.188102" lon="9.488296">
        <ele>450.100567</ele>
        <time>2022-01-07T05:53:54.838Z</time>
      </trkpt>
      <trkpt lat="47.190010" lon="9.488789">
        <ele>450.119872</ele>
        <time>2022-01-07T05:54:37.885Z</time>
      </trkpt>
      <trkpt lat="47.191783" lon="9.489266">
        <ele>450.141744</ele>
        <time>2022-01-07T05:55:18.546Z</time>
      </trkpt>
      <trkpt lat="47.195879" lon="9.490546">
        <ele>449.888272</ele>
        <time>2022-01-07T05:56:50.244Z</time>
      </trkpt>
      <trkpt lat="47.196577" lon="9.490865">
        <ele>449.827693</ele>
        <time>2022-01-07T05:57:06.299Z</time>
      </trkpt>
      <trkpt lat="47.197201" lon="9.491172">
        <ele>449.733553</ele>
        <time>2022-01-07T05:57:20.716Z</time>
      </trkpt>
      <trkpt lat="47.197834" lon="9.491484">
        <ele>449.638037</ele>
        <time>2022-01-07T05:57:35.272Z</time>
      </trkpt>
      <trkpt lat="47.201266" lon="9.493909">
        <ele>448.670502</ele>
        <time>2022-01-07T05:58:56.499Z</time>
      </trkpt>
      <trkpt lat="47.204591" lon="9.496165">
        <ele>447.496555</ele>
        <time>2022-01-07T06:00:13.288Z</time>
      </trkpt>
      <trkpt lat="47.204717" lon="9.496256">
        <ele>447.455176</ele>
        <time>2022-01-07T06:00:16.336Z</time>
      </trkpt>
      <trkpt lat="47.206985" lon="9.497775">
        <ele>447.179310</ele>
        <time>2022-01-07T06:01:11.368Z</time>
      </trkpt>
      <trkpt lat="47.207366" lon="9.498051">
        <ele>447.084265</ele>
        <time>2022-01-07T06:01:20.521Z</time>
      </trkpt>
      <trkpt lat="47.208175" lon="9.498638">
        <ele>446.811516</ele>
        <time>2022-01-07T06:01:39.356Z</time>
      </trkpt>
      <trkpt lat="47.209127" lon="9.499329">
        <ele>446.117671</ele>
        <time>2022-01-07T06:02:00.873Z</time>
      </trkpt>
      <trkpt lat="47.209643" lon="9.499643">
        <ele>445.752687</ele>
        <time>2022-01-07T06:02:11.849Z</time>
      </trkpt>
      <trkpt lat="47.210079" lon="9.499826">
        <ele>445.364666</ele>
        <time>2022-01-07T06:02:20.520Z</time>
      </trkpt>
      <trkpt lat="47.210366" lon="9.500105">
        <ele>445.068101</ele>
        <time>2022-01-07T06:02:27.223Z</time>
      </trkpt>
      <trkpt lat="47.210956" lon="9.500480">
        <ele>444.513963</ele>
        <time>2022-01-07T06:02:39.907Z</time>
      </trkpt>
      <trkpt lat="47.211031" lon="9.500591">
        <ele>444.422259</ele>
        <time>2022-01-07T06:02:41.893Z</time>
      </trkpt>
      <trkpt lat="47.211353" lon="9.500612">
        <ele>444.160400</ele>
        <time>2022-01-07T06:02:48.221Z</time>
      </trkpt>
      <trkpt lat="47.213134" lon="9.501081">
        <ele>443.151904</ele>
        <time>2022-01-07T06:03:25.020Z</time>
      </trkpt>
      <trkpt lat="47.216722" lon="9.501833">
        <ele>442.897844</ele>
        <time>2022-01-07T06:04:45.740Z</time>
      </trkpt>
      <trkpt lat="47.216793" lon="9.501841">
        <ele>442.871412</ele>
        <time>2022-01-07T06:04:47.252Z</time>
      </trkpt>
      <trkpt lat="47.219431" lon="9.502420">
        <ele>441.858881</ele>
        <time>2022-01-07T06:05:42.264Z</time>
      </trkpt>
      <trkpt lat="47.220160" lon="9.502652">
        <ele>441.565783</ele>
        <time>2022-01-07T06:05:57.916Z</time>
      </trkpt>
      <trkpt lat="47.220918" lon="9.503047">
        <ele>441.513444</ele>
        <time>2022-01-07T06:06:15.322Z</time>
      </trkpt>
      <trkpt lat="47.221594" lon="9.503510">
        <ele>441.471012</ele>
        <time>2022-01-07T06:06:31.986Z</time>
      </trkpt>
      <trkpt lat="47.224147" lon="9.504909">
        <ele>441.633835</ele>
        <time>2022-01-07T06:07:34.371Z</time>
      </trkpt>
      <trkpt lat="47.227493" lon="9.507759">
        <ele>441.029952</ele>
        <time>2022-01-07T06:08:57.828Z</time>
      </trkpt>
      <trkpt lat="47.228437" lon="9.508565">
        <ele>440.650418</ele>
        <time>2022-01-07T06:09:20.191Z</time>
      </trkpt>
      <trkpt lat="47.228591" lon="9.508695">
        <ele>440.582473</ele>
        <time>2022-01-07T06:09:23.767Z</time>
      </trkpt>
      <trkpt lat="47.230123" lon="9.509995">
        <ele>439.993905</ele>
        <time>2022-01-07T06:10:01.001Z</time>
      </trkpt>
      <trkpt lat="47.231373" lon="9.511056">
        <ele>439.791122</ele>
        <time>2022-01-07T06:10:32.599Z</time>
      </trkpt>
      <trkpt lat="47.233758" lon="9.513120">
        <ele>439.548549</ele>
        <time>2022-01-07T06:11:33.170Z</time>
      </trkpt>
      <trkpt lat="47.233778" lon="9.513148">
        <ele>439.546927</ele>
        <time>2022-01-07T06:11:33.775Z</time>
      </trkpt>
      <trkpt lat="47.235209" lon="9.514416">
        <ele>439.479829</ele>
        <time>2022-01-07T06:12:10.608Z</time>
      </trkpt>
      <trkpt lat="47.237105" lon="9.516096">
        <ele>439.428362</ele>
        <time>2022-01-07T06:12:59.709Z</time>
      </trkpt>
      <trkpt lat="47.240376" lon="9.518903">
        <ele>439.522054</ele>
        <time>2022-01-07T06:14:24.280Z</time>
      </trkpt>
      <trkpt lat="47.241298" lon="9.519680">
        <ele>439.522121</ele>
        <time>2022-01-07T06:14:48.006Z</time>
      </trkpt>
      <trkpt lat="47.242347" lon="9.520431">
        <ele>439.492035</ele>
        <time>2022-01-07T06:15:13.599Z</time>
      </trkpt>
      <trkpt lat="47.243032" lon="9.521116">
        <ele>439.406399</ele>
        <time>2022-01-07T06:15:31.645Z</time>
      </trkpt>
      <trkpt lat="47.243300" lon="9.521301">
        <ele>439.375786</ele>
        <time>2022-01-07T06:15:38.127Z</time>
      </trkpt>
      <trkpt lat="47.243703" lon="9.521504">
        <ele>439.331733</ele>
        <time>2022-01-07T06:15:47.392Z</time>
      </trkpt>
      <trkpt lat="47.243785" lon="9.521467">
        <ele>439.322863</ele>
        <time>2022-01-07T06:15:49.343Z</time>
      </trkpt>
      <trkpt lat="47.247416" lon="9.523241">
        <ele>439.107504</ele>
        <time>2022-01-07T06:17:13.776Z</time>
      </trkpt>
      <trkpt lat="47.254086" lon="9.526752">
        <ele>438.855558</ele>
        <time>2022-01-07T06:19:50.510Z</time>
      </trkpt>
      <trkpt lat="47.258694" lon="9.529190">
        <ele>437.806786</ele>
        <time>2022-01-07T06:21:35.483Z</time>
      </trkpt>
      <trkpt lat="47.259416" lon="9.529733">
        <ele>437.421443</ele>
        <time>2022-01-07T06:21:52.445Z</time>
      </trkpt>
      <trkpt lat="47.260245" lon="9.530199">
        <ele>436.789207</ele>
        <time>2022-01-07T06:22:09.890Z</time>
      </trkpt>
      <trkpt lat="47.260260" lon="9.530239">
        <ele>436.767107</ele>
        <time>2022-01-07T06:22:10.507Z</time>
      </trkpt>
      <trkpt lat="47.260268" lon="9.530411">
        <ele>436.683734</ele>
        <time>2022-01-07T06:22:12.851Z</time>
      </trkpt>
      <trkpt lat="47.260221" lon="9.530709">
        <ele>436.535784</ele>
        <time>2022-01-07T06:22:16.898Z</time>
      </trkpt>
      <trkpt lat="47.260144" lon="9.531088">
        <ele>436.366137</ele>
        <time>2022-01-07T06:22:22.219Z</time>
      </trkpt>
      <trkpt lat="47.260109" lon="9.531229">
        <ele>436.319136</ele>
        <time>2022-01-07T06:22:24.327Z</time>
      </trkpt>
      <trkpt lat="47.260119" lon="9.531279">
        <ele>436.302817</ele>
        <time>2022-01-07T06:22:25.028Z</time>
      </trkpt>
      <trkpt lat="47.260592" lon="9.531707">
        <ele>436.046771</ele>
        <time>2022-01-07T06:22:36.065Z</time>
      </trkpt>
      <trkpt lat="47.262296" lon="9.532578">
        <ele>435.681593</ele>
        <time>2022-01-07T06:23:14.531Z</time>
      </trkpt>
      <trkpt lat="47.262998" lon="9.532704">
        <ele>435.776689</ele>
        <time>2022-01-07T06:23:31.501Z</time>
      </trkpt>
      <trkpt lat="47.263514" lon="9.532583">
        <ele>435.861261</ele>
        <time>2022-01-07T06:23:44.072Z</time>
      </trkpt>
      <trkpt lat="47.263760" lon="9.532425">
        <ele>435.915244</ele>
        <time>2022-01-07T06:23:50.508Z</time>
      </trkpt>
      <trkpt lat="47.264093" lon="9.532072">
        <ele>435.997765</ele>
        <time>2022-01-07T06:24:00.153Z</time>
      </trkpt>
      <trkpt lat="47.264483" lon="9.531405">
        <ele>436.117958</ele>
        <time>2022-01-07T06:24:13.927Z</time>
      </trkpt>
      <trkpt lat="47.264616" lon="9.531340">
        <ele>436.146146</ele>
        <time>2022-01-07T06:24:17.066Z</time>
      </trkpt>
      <trkpt lat="47.266445" lon="9.531351">
        <ele>435.686126</ele>
        <time>2022-01-07T06:24:55.693Z</time>
      </trkpt>
      <trkpt lat="47.266654" lon="9.531606">
        <ele>435.611951</ele>
        <time>2022-01-07T06:25:01.357Z</time>
      </trkpt>
      <trkpt lat="47.266748" lon="9.531818">
        <ele>435.569192</ele>
        <time>2022-01-07T06:25:04.933Z</time>
      </trkpt>
      <trkpt lat="47.269217" lon="9.531846">
        <ele>435.053428</ele>
        <time>2022-01-07T06:25:57.939Z</time>
      </trkpt>
      <trkpt lat="47.269601" lon="9.531923">
        <ele>434.996142</ele>
        <time>2022-01-07T06:26:06.348Z</time>
      </trkpt>
      <trkpt lat="47.270015" lon="9.532077">
        <ele>434.933026</ele>
        <time>2022-01-07T06:26:15.628Z</time>
      </trkpt>
      <trkpt lat="47.270530" lon="9.532365">
        <ele>434.853031</ele>
        <time>2022-01-07T06:26:27.610Z</time>
      </trkpt>
      <trkpt lat="47.271509" lon="9.533212">
        <ele>434.688210</ele>
        <time>2022-01-07T06:26:52.329Z</time>
      </trkpt>
      <trkpt lat="47.272287" lon="9.534091">
        <ele>434.421735</ele>
        <time>2022-01-07T06:27:13.418Z</time>
      </trkpt>
      <trkpt lat="47.272919" lon="9.535114">
        <ele>434.149882</ele>
        <time>2022-01-07T06:27:33.034Z</time>
      </trkpt>
      <trkpt lat="47.273126" lon="9.535616">
        <ele>433.961709</ele>
        <time>2022-01-07T06:27:41.252Z</time>
      </trkpt>
      <trkpt lat="47.273168" lon="9.535698">
        <ele>433.928791</ele>
        <time>2022-01-07T06:27:42.690Z</time>
      </trkpt>
      <trkpt lat="47.273507" lon="9.536366">
        <ele>433.661526</ele>
        <time>2022-01-07T06:27:54.292Z</time>
      </trkpt>
      <trkpt lat="47.276092" lon="9.541633">
        <ele>431.417059</ele>
        <time>2022-01-07T06:29:24.846Z</time>
      </trkpt>
      <trkpt lat="47.277818" lon="9.544612">
        <ele>430.315997</ele>
        <time>2022-01-07T06:30:19.768Z</time>
      </trkpt>
      <trkpt lat="47.278817" lon="9.546335">
        <ele>429.928798</ele>
        <time>2022-01-07T06:30:52.927Z</time>
      </trkpt>
      <trkpt lat="47.279967" lon="9.548089">
        <ele>429.650919</ele>
        <time>2022-01-07T06:31:28.704Z</time>
      </trkpt>
      <trkpt lat="47.280509" lon="9.548648">
        <ele>429.516785</ele>
        <time>2022-01-07T06:31:42.873Z</time>
      </trkpt>
      <trkpt lat="47.282989" lon="9.550485">
        <ele>429.030890</ele>
        <time>2022-01-07T06:32:42.786Z</time>
      </trkpt>
      <trkpt lat="47.284915" lon="9.551960">
        <ele>428.881665</ele>
        <time>2022-01-07T06:33:30.218Z</time>
      </trkpt>
      <trkpt lat="47.286234" lon="9.552805">
        <ele>429.016391</ele>
        <time>2022-01-07T06:34:02.683Z</time>
      </trkpt>
      <trkpt lat="47.288114" lon="9.553667">
        <ele>429.604493</ele>
        <time>2022-01-07T06:34:49.322Z</time>
      </trkpt>
      <trkpt lat="47.289790" lon="9.554256">
        <ele>429.923076</ele>
        <time>2022-01-07T06:35:28.924Z</time>
      </trkpt>
      <trkpt lat="47.294148" lon="9.555657">
        <ele>430.000049</ele>
        <time>2022-01-07T06:37:08.208Z</time>
      </trkpt>
      <trkpt lat="47.294491" lon="9.555592">
        <ele>430.000049</ele>
        <time>2022-01-07T06:37:15.909Z</time>
      </trkpt>
      <trkpt lat="47.294552" lon="9.555670">
        <ele>430.000049</ele>
        <time>2022-01-07T06:37:17.714Z</time>
      </trkpt>
      <trkpt lat="47.294649" lon="9.555882">
        <ele>430.000049</ele>
        <time>2022-01-07T06:37:21.563Z</time>
      </trkpt>
      <trkpt lat="47.294679" lon="9.556036">
        <ele>430.000049</ele>
        <time>2022-01-07T06:37:23.987Z</time>
      </trkpt>
      <trkpt lat="47.294446" lon="9.556286">
        <ele>430.000049</ele>
        <time>2022-01-07T06:37:30.400Z</time>
      </trkpt>
      <trkpt lat="47.293768" lon="9.556858">
        <ele>430.000049</ele>
        <time>2022-01-07T06:37:47.754Z</time>
      </trkpt>
      <trkpt lat="47.293457" lon="9.557060">
        <ele>430.000049</ele>
        <time>2022-01-07T06:37:55.321Z</time>
      </trkpt>
      <trkpt lat="47.293506" lon="9.557174">
        <ele>430.000049</ele>
        <time>2022-01-07T06:37:57.354Z</time>
      </trkpt>
      <trkpt lat="47.293916" lon="9.558142">
        <ele>429.956003</ele>
        <time>2022-01-07T06:38:14.517Z</time>
      </trkpt>
      <trkpt lat="47.293935" lon="9.558184">
        <ele>429.953841</ele>
        <time>2022-01-07T06:38:15.269Z</time>
      </trkpt>
      <trkpt lat="47.294320" lon="9.558515">
        <ele>429.925710</ele>
        <time>2022-01-07T06:38:25.115Z</time>
      </trkpt>
      <trkpt lat="47.294715" lon="9.558552">
        <ele>429.900726</ele>
        <time>2022-01-07T06:38:33.787Z</time>
      </trkpt>
      <trkpt lat="47.295633" lon="9.558606">
        <ele>429.743201</ele>
        <time>2022-01-07T06:38:53.716Z</time>
      </trkpt>
      <trkpt lat="47.297915" lon="9.559262">
        <ele>429.186171</ele>
        <time>2022-01-07T06:39:43.248Z</time>
      </trkpt>
      <trkpt lat="47.298122" lon="9.559406">
        <ele>429.124501</ele>
        <time>2022-01-07T06:39:48.061Z</time>
      </trkpt>
      <trkpt lat="47.298548" lon="9.559879">
        <ele>428.985396</ele>
        <time>2022-01-07T06:39:59.386Z</time>
      </trkpt>
      <trkpt lat="47.298801" lon="9.559838">
        <ele>428.923175</ele>
        <time>2022-01-07T06:40:04.801Z</time>
      </trkpt>
      <trkpt lat="47.299088" lon="9.559389">
        <ele>428.820882</ele>
        <time>2022-01-07T06:40:13.740Z</time>
      </trkpt>
      <trkpt lat="47.299213" lon="9.559360">
        <ele>428.789948</ele>
        <time>2022-01-07T06:40:16.383Z</time>
      </trkpt>
      <trkpt lat="47.299437" lon="9.559500">
        <ele>428.730472</ele>
        <time>2022-01-07T06:40:21.654Z</time>
      </trkpt>
      <trkpt lat="47.299919" lon="9.560000">
        <ele>428.586333</ele>
        <time>2022-01-07T06:40:34.219Z</time>
      </trkpt>
      <trkpt lat="47.302030" lon="9.563390">
        <ele>427.696864</ele>
        <time>2022-01-07T06:41:40.723Z</time>
      </trkpt>
      <trkpt lat="47.302100" lon="9.563775">
        <ele>427.606756</ele>
        <time>2022-01-07T06:41:46.298Z</time>
      </trkpt>
      <trkpt lat="47.302429" lon="9.565635">
        <ele>426.900258</ele>
        <time>2022-01-07T06:42:12.728Z</time>
      </trkpt>
      <trkpt lat="47.303256" lon="9.567252">
        <ele>426.230543</ele>
        <time>2022-01-07T06:42:40.788Z</time>
      </trkpt>
      <trkpt lat="47.303843" lon="9.568372">
        <ele>425.847966</ele>
        <time>2022-01-07T06:43:00.980Z</time>
      </trkpt>
      <trkpt lat="47.304060" lon="9.568966">
        <ele>425.735482</ele>
        <time>2022-01-07T06:43:10.704Z</time>
      </trkpt>
      <trkpt lat="47.304694" lon="9.571694">
        <ele>425.572354</ele>
        <time>2022-01-07T06:43:53.038Z</time>
      </trkpt>
      <trkpt lat="47.304736" lon="9.571875">
        <ele>425.598281</ele>
        <time>2022-01-07T06:43:55.938Z</time>
      </trkpt>
      <trkpt lat="47.304764" lon="9.571846">
        <ele>425.605119</ele>
        <time>2022-01-07T06:43:56.718Z</time>
      </trkpt>
      <trkpt lat="47.304993" lon="9.571637">
        <ele>425.658944</ele>
        <time>2022-01-07T06:44:02.828Z</time>
      </trkpt>
      <trkpt lat="47.306233" lon="9.570499">
        <ele>426.216553</ele>
        <time>2022-01-07T06:44:37.840Z</time>
      </trkpt>
      <trkpt lat="47.306714" lon="9.570060">
        <ele>426.597972</ele>
        <time>2022-01-07T06:44:52.096Z</time>
      </trkpt>
      <trkpt lat="47.306740" lon="9.570038">
        <ele>426.618184</ele>
        <time>2022-01-07T06:44:52.852Z</time>
      </trkpt>
      <trkpt lat="47.306855" lon="9.569922">
        <ele>426.712131</ele>
        <time>2022-01-07T06:44:56.409Z</time>
      </trkpt>
      <trkpt lat="47.307077" lon="9.569667">
        <ele>426.901870</ele>
        <time>2022-01-07T06:45:03.568Z</time>
      </trkpt>
      <trkpt lat="47.307164" lon="9.569562">
        <ele>426.977674</ele>
        <time>2022-01-07T06:45:06.468Z</time>
      </trkpt>
      <trkpt lat="47.307293" lon="9.569385">
        <ele>427.087983</ele>
        <time>2022-01-07T06:45:10.972Z</time>
      </trkpt>
      <trkpt lat="47.307413" lon="9.569199">
        <ele>427.183083</ele>
        <time>2022-01-07T06:45:15.530Z</time>
      </trkpt>
      <trkpt lat="47.307613" lon="9.568884">
        <ele>427.342930</ele>
        <time>2022-01-07T06:45:23.099Z</time>
      </trkpt>
      <trkpt lat="47.307630" lon="9.568858">
        <ele>427.356309</ele>
        <time>2022-01-07T06:45:23.758Z</time>
      </trkpt>
      <trkpt lat="47.307767" lon="9.568640">
        <ele>427.466406</ele>
        <time>2022-01-07T06:45:28.851Z</time>
      </trkpt>
      <trkpt lat="47.307917" lon="9.568393">
        <ele>427.589228</ele>
        <time>2022-01-07T06:45:34.570Z</time>
      </trkpt>
      <trkpt lat="47.307935" lon="9.568361">
        <ele>427.604628</ele>
        <time>2022-01-07T06:45:35.266Z</time>
      </trkpt>
      <trkpt lat="47.307978" lon="9.568292">
        <ele>427.639342</ele>
        <time>2022-01-07T06:45:36.821Z</time>
      </trkpt>
      <trkpt lat="47.308030" lon="9.568207">
        <ele>427.681747</ele>
        <time>2022-01-07T06:45:38.727Z</time>
      </trkpt>
      <trkpt lat="47.308075" lon="9.568133">
        <ele>427.718566</ele>
        <time>2022-01-07T06:45:40.392Z</time>
      </trkpt>
      <trkpt lat="47.308405" lon="9.567593">
        <ele>427.987835</ele>
        <time>2022-01-07T06:45:52.145Z</time>
      </trkpt>
      <trkpt lat="47.308605" lon="9.567262">
        <ele>427.821594</ele>
        <time>2022-01-07T06:45:59.016Z</time>
      </trkpt>
      <trkpt lat="47.309482" lon="9.565758">
        <ele>426.494755</ele>
        <time>2022-01-07T06:46:24.848Z</time>
      </trkpt>
      <trkpt lat="47.309853" lon="9.565126">
        <ele>425.597796</ele>
        <time>2022-01-07T06:46:34.736Z</time>
      </trkpt>
      <trkpt lat="47.309934" lon="9.565216">
        <ele>425.393552</ele>
        <time>2022-01-07T06:46:36.652Z</time>
      </trkpt>
      <trkpt lat="47.310136" lon="9.565334">
        <ele>424.955983</ele>
        <time>2022-01-07T06:46:40.339Z</time>
      </trkpt>
      <trkpt lat="47.311340" lon="9.565659">
        <ele>422.552042</ele>
        <time>2022-01-07T06:47:01.622Z</time>
      </trkpt>
      <trkpt lat="47.312417" lon="9.565978">
        <ele>421.262107</ele>
        <time>2022-01-07T06:47:22.103Z</time>
      </trkpt>
      <trkpt lat="47.313139" lon="9.566215">
        <ele>420.492967</ele>
        <time>2022-01-07T06:47:36.972Z</time>
      </trkpt>
      <trkpt lat="47.313513" lon="9.566393">
        <ele>420.379291</ele>
        <time>2022-01-07T06:47:45.109Z</time>
      </trkpt>
      <trkpt lat="47.314076" lon="9.566831">
        <ele>420.195172</ele>
        <time>2022-01-07T06:47:58.699Z</time>
      </trkpt>
      <trkpt lat="47.314425" lon="9.566995">
        <ele>420.089220</ele>
        <time>2022-01-07T06:48:06.699Z</time>
      </trkpt>
      <trkpt lat="47.314727" lon="9.567079">
        <ele>420.005138</ele>
        <time>2022-01-07T06:48:13.530Z</time>
      </trkpt>
      <trkpt lat="47.314985" lon="9.567157">
        <ele>420.004386</ele>
        <time>2022-01-07T06:48:19.369Z</time>
      </trkpt>
      <trkpt lat="47.315256" lon="9.567244">
        <ele>420.003594</ele>
        <time>2022-01-07T06:48:25.551Z</time>
      </trkpt>
      <trkpt lat="47.315518" lon="9.567330">
        <ele>420.002827</ele>
        <time>2022-01-07T06:48:31.505Z</time>
      </trkpt>
      <trkpt lat="47.315816" lon="9.567429">
        <ele>420.001955</ele>
        <time>2022-01-07T06:48:38.303Z</time>
      </trkpt>
      <trkpt lat="47.316398" lon="9.567612">
        <ele>420.000255</ele>
        <time>2022-01-07T06:48:51.550Z</time>
      </trkpt>
      <trkpt lat="47.317049" lon="9.567776">
        <ele>420.000049</ele>
        <time>2022-01-07T06:49:06.223Z</time>
      </trkpt>
      <trkpt lat="47.317883" lon="9.567981">
        <ele>420.000049</ele>
        <time>2022-01-07T06:49:25.026Z</time>
      </trkpt>
      <trkpt lat="47.317918" lon="9.567870">
        <ele>420.000049</ele>
        <time>2022-01-07T06:49:26.873Z</time>
      </trkpt>
      <trkpt lat="47.318161" lon="9.567103">
        <ele>420.000049</ele>
        <time>2022-01-07T06:49:39.633Z</time>
      </trkpt>
      <trkpt lat="47.318372" lon="9.566462">
        <ele>420.000049</ele>
        <time>2022-01-07T06:49:50.378Z</time>
      </trkpt>
      <trkpt lat="47.318413" lon="9.566376">
        <ele>420.000049</ele>
        <time>2022-01-07T06:49:51.949Z</time>
      </trkpt>
      <trkpt lat="47.318477" lon="9.566284">
        <ele>420.000049</ele>
        <time>2022-01-07T06:49:53.956Z</time>
      </trkpt>
      <trkpt lat="47.318893" lon="9.566004">
        <ele>420.000049</ele>
        <time>2022-01-07T06:50:04.113Z</time>
      </trkpt>
      <trkpt lat="47.319525" lon="9.565666">
        <ele>420.000049</ele>
        <time>2022-01-07T06:50:19.073Z</time>
      </trkpt>
      <trkpt lat="47.319759" lon="9.564959">
        <ele>420.000049</ele>
        <time>2022-01-07T06:50:30.933Z</time>
      </trkpt>
      <trkpt lat="47.319819" lon="9.564796">
        <ele>420.000049</ele>
        <time>2022-01-07T06:50:33.727Z</time>
      </trkpt>
      <trkpt lat="47.319917" lon="9.564424">
        <ele>420.000049</ele>
        <time>2022-01-07T06:50:39.754Z</time>
      </trkpt>
      <trkpt lat="47.319956" lon="9.564439">
        <ele>420.000049</ele>
        <time>2022-01-07T06:50:40.666Z</time>
      </trkpt>
      <trkpt lat="47.320204" lon="9.564534">
        <ele>420.000049</ele>
        <time>2022-01-07T06:50:46.347Z</time>
      </trkpt>
      <trkpt lat="47.320609" lon="9.564746">
        <ele>420.004394</ele>
        <time>2022-01-07T06:50:55.906Z</time>
      </trkpt>
      <trkpt lat="47.321032" lon="9.564063">
        <ele>420.026388</ele>
        <time>2022-01-07T06:51:09.857Z</time>
      </trkpt>
      <trkpt lat="47.321377" lon="9.562817">
        <ele>420.058386</ele>
        <time>2022-01-07T06:51:30.148Z</time>
      </trkpt>
      <trkpt lat="47.321392" lon="9.562785">
        <ele>420.059311</ele>
        <time>2022-01-07T06:51:30.748Z</time>
      </trkpt>
      <trkpt lat="47.321463" lon="9.562643">
        <ele>420.067131</ele>
        <time>2022-01-07T06:51:33.448Z</time>
      </trkpt>
      <trkpt lat="47.321651" lon="9.562343">
        <ele>420.170071</ele>
        <time>2022-01-07T06:51:40.039Z</time>
      </trkpt>
      <trkpt lat="47.321991" lon="9.561803">
        <ele>420.355766</ele>
        <time>2022-01-07T06:51:52.267Z</time>
      </trkpt>
      <trkpt lat="47.322179" lon="9.561504">
        <ele>420.458521</ele>
        <time>2022-01-07T06:51:59.174Z</time>
      </trkpt>
      <trkpt lat="47.322363" lon="9.561142">
        <ele>420.572523</ele>
        <time>2022-01-07T06:52:06.994Z</time>
      </trkpt>
      <trkpt lat="47.323246" lon="9.557911">
        <ele>421.625352</ele>
        <time>2022-01-07T06:53:06.779Z</time>
      </trkpt>
      <trkpt lat="47.324083" lon="9.558578">
        <ele>421.667758</ele>
        <time>2022-01-07T06:53:27.686Z</time>
      </trkpt>
      <trkpt lat="47.324312" lon="9.558699">
        <ele>421.678601</ele>
        <time>2022-01-07T06:53:32.902Z</time>
      </trkpt>
      <trkpt lat="47.324631" lon="9.558853">
        <ele>421.693563</ele>
        <time>2022-01-07T06:53:40.210Z</time>
      </trkpt>
      <trkpt lat="47.325335" lon="9.558835">
        <ele>422.053985</ele>
        <time>2022-01-07T06:53:55.947Z</time>
      </trkpt>
      <trkpt lat="47.327159" lon="9.558232">
        <ele>423.343311</ele>
        <time>2022-01-07T06:54:44.669Z</time>
      </trkpt>
      <trkpt lat="47.327590" lon="9.558153">
        <ele>423.699711</ele>
        <time>2022-01-07T06:54:55.886Z</time>
      </trkpt>
      <trkpt lat="47.328687" lon="9.558556">
        <ele>424.525164</ele>
        <time>2022-01-07T06:55:24.125Z</time>
      </trkpt>
      <trkpt lat="47.329937" lon="9.559130">
        <ele>425.270679</ele>
        <time>2022-01-07T06:55:55.681Z</time>
      </trkpt>
      <trkpt lat="47.329976" lon="9.559174">
        <ele>425.298637</ele>
        <time>2022-01-07T06:55:56.872Z</time>
      </trkpt>
      <trkpt lat="47.329937" lon="9.559254">
        <ele>425.341335</ele>
        <time>2022-01-07T06:55:58.441Z</time>
      </trkpt>
      <trkpt lat="47.330066" lon="9.559320">
        <ele>425.438101</ele>
        <time>2022-01-07T06:56:01.783Z</time>
      </trkpt>
      <trkpt lat="47.332754" lon="9.558600">
        <ele>427.279585</ele>
        <time>2022-01-07T06:57:10.934Z</time>
      </trkpt>
      <trkpt lat="47.334487" lon="9.558138">
        <ele>428.204709</ele>
        <time>2022-01-07T06:57:53.115Z</time>
      </trkpt>
      <trkpt lat="47.337436" lon="9.557390">
        <ele>429.492881</ele>
        <time>2022-01-07T06:59:05.198Z</time>
      </trkpt>
      <trkpt lat="47.339528" lon="9.556828">
        <ele>429.964630</ele>
        <time>2022-01-07T06:59:54.204Z</time>
      </trkpt>
      <trkpt lat="47.339593" lon="9.556783">
        <ele>429.974969</ele>
        <time>2022-01-07T06:59:55.827Z</time>
      </trkpt>
      <trkpt lat="47.339629" lon="9.556768">
        <ele>429.980356</ele>
        <time>2022-01-07T06:59:56.691Z</time>
      </trkpt>
      <trkpt lat="47.339745" lon="9.556721">
        <ele>429.997679</ele>
        <time>2022-01-07T06:59:59.432Z</time>
      </trkpt>
      <trkpt lat="47.342457" lon="9.555420">
        <ele>430.160197</ele>
        <time>2022-01-07T07:01:04.070Z</time>
      </trkpt>
      <trkpt lat="47.342502" lon="9.555399">
        <ele>430.139270</ele>
        <time>2022-01-07T07:01:05.083Z</time>
      </trkpt>
      <trkpt lat="47.342582" lon="9.555362">
        <ele>430.102098</ele>
        <time>2022-01-07T07:01:06.893Z</time>
      </trkpt>
      <trkpt lat="47.342636" lon="9.555336">
        <ele>430.076914</ele>
        <time>2022-01-07T07:01:08.095Z</time>
      </trkpt>
      <trkpt lat="47.343601" lon="9.554925">
        <ele>429.631585</ele>
        <time>2022-01-07T07:01:28.565Z</time>
      </trkpt>
      <trkpt lat="47.344088" lon="9.554860">
        <ele>429.384784</ele>
        <time>2022-01-07T07:01:38.339Z</time>
      </trkpt>
      <trkpt lat="47.344525" lon="9.554820">
        <ele>429.105879</ele>
        <time>2022-01-07T07:01:47.052Z</time>
      </trkpt>
      <trkpt lat="47.346054" lon="9.554680">
        <ele>428.243837</ele>
        <time>2022-01-07T07:02:17.844Z</time>
      </trkpt>
      <trkpt lat="47.346086" lon="9.554675">
        <ele>428.234571</ele>
        <time>2022-01-07T07:02:18.535Z</time>
      </trkpt>
      <trkpt lat="47.346170" lon="9.554664">
        <ele>428.210289</ele>
        <time>2022-01-07T07:02:20.389Z</time>
      </trkpt>
      <trkpt lat="47.346202" lon="9.554659">
        <ele>428.201024</ele>
        <time>2022-01-07T07:02:21.079Z</time>
      </trkpt>
      <trkpt lat="47.347617" lon="9.554478">
        <ele>427.807242</ele>
        <time>2022-01-07T07:02:51.690Z</time>
      </trkpt>
      <trkpt lat="47.349492" lon="9.554238">
        <ele>427.531369</ele>
        <time>2022-01-07T07:03:32.884Z</time>
      </trkpt>
      <trkpt lat="47.352965" lon="9.553500">
        <ele>426.424164</ele>
        <time>2022-01-07T07:04:46.600Z</time>
      </trkpt>
      <trkpt lat="47.357673" lon="9.552321">
        <ele>425.270477</ele>
        <time>2022-01-07T07:06:28.527Z</time>
      </trkpt>
      <trkpt lat="47.358436" lon="9.552096">
        <ele>425.229911</ele>
        <time>2022-01-07T07:06:45.530Z</time>
      </trkpt>
      <trkpt lat="47.359201" lon="9.551845">
        <ele>425.428686</ele>
        <time>2022-01-07T07:07:03.258Z</time>
      </trkpt>
      <trkpt lat="47.359308" lon="9.551800">
        <ele>425.456906</ele>
        <time>2022-01-07T07:07:05.836Z</time>
      </trkpt>
      <trkpt lat="47.359353" lon="9.551769">
        <ele>425.469502</ele>
        <time>2022-01-07T07:07:06.981Z</time>
      </trkpt>
      <trkpt lat="47.364150" lon="9.549591">
        <ele>428.127676</ele>
        <time>2022-01-07T07:09:09.409Z</time>
      </trkpt>
      <trkpt lat="47.368016" lon="9.548633">
        <ele>431.249617</ele>
        <time>2022-01-07T07:10:48.411Z</time>
      </trkpt>
      <trkpt lat="47.369171" lon="9.548432">
        <ele>432.823075</ele>
        <time>2022-01-07T07:11:21.260Z</time>
      </trkpt>
      <trkpt lat="47.369243" lon="9.548422">
        <ele>432.949948</ele>
        <time>2022-01-07T07:11:23.382Z</time>
      </trkpt>
      <trkpt lat="47.369299" lon="9.548416">
        <ele>433.048451</ele>
        <time>2022-01-07T07:11:25.022Z</time>
      </trkpt>
      <trkpt lat="47.370897" lon="9.548176">
        <ele>435.932306</ele>
        <time>2022-01-07T07:12:12.795Z</time>
      </trkpt>
      <trkpt lat="47.371408" lon="9.548102">
        <ele>436.910102</ele>
        <time>2022-01-07T07:12:28.581Z</time>
      </trkpt>
      <trkpt lat="47.372204" lon="9.547984">
        <ele>438.433593</ele>
        <time>2022-01-07T07:12:52.997Z</time>
      </trkpt>
      <trkpt lat="47.372963" lon="9.547848">
        <ele>439.258641</ele>
        <time>2022-01-07T07:13:13.727Z</time>
      </trkpt>
      <trkpt lat="47.372996" lon="9.547816">
        <ele>439.299163</ele>
        <time>2022-01-07T07:13:14.991Z</time>
      </trkpt>
      <trkpt lat="47.373421" lon="9.548320">
        <ele>439.858660</ele>
        <time>2022-01-07T07:13:28.653Z</time>
      </trkpt>
      <trkpt lat="47.373730" lon="9.548880">
        <ele>440.360775</ele>
        <time>2022-01-07T07:13:40.414Z</time>
      </trkpt>
      <trkpt lat="47.374080" lon="9.549487">
        <ele>441.141980</ele>
        <time>2022-01-07T07:13:54.115Z</time>
      </trkpt>
      <trkpt lat="47.374306" lon="9.549897">
        <ele>441.661755</ele>
        <time>2022-01-07T07:14:03.094Z</time>
      </trkpt>
      <trkpt lat="47.374379" lon="9.550140">
        <ele>441.923127</ele>
        <time>2022-01-07T07:14:07.633Z</time>
      </trkpt>
      <trkpt lat="47.374648" lon="9.550023">
        <ele>442.330267</ele>
        <time>2022-01-07T07:14:15.638Z</time>
      </trkpt>
      <trkpt lat="47.375415" lon="9.549558">
        <ele>444.528757</ele>
        <time>2022-01-07T07:14:43.421Z</time>
      </trkpt>
      <trkpt lat="47.375849" lon="9.549258">
        <ele>446.470224</ele>
        <time>2022-01-07T07:15:02.082Z</time>
      </trkpt>
      <trkpt lat="47.376138" lon="9.549073">
        <ele>447.746392</ele>
        <time>2022-01-07T07:15:15.116Z</time>
      </trkpt>
      <trkpt lat="47.376176" lon="9.549020">
        <ele>447.958164</ele>
        <time>2022-01-07T07:15:17.298Z</time>
      </trkpt>
      <trkpt lat="47.376247" lon="9.548647">
        <ele>449.021190</ele>
        <time>2022-01-07T07:15:28.171Z</time>
      </trkpt>
      <trkpt lat="47.376225" lon="9.547665">
        <ele>451.515270</ele>
        <time>2022-01-07T07:15:55.305Z</time>
      </trkpt>
      <trkpt lat="47.376194" lon="9.546898">
        <ele>453.330474</ele>
        <time>2022-01-07T07:16:15.329Z</time>
      </trkpt>
      <trkpt lat="47.376078" lon="9.546475">
        <ele>454.408611</ele>
        <time>2022-01-07T07:16:26.608Z</time>
      </trkpt>
      <trkpt lat="47.375996" lon="9.546290">
        <ele>454.930958</ele>
        <time>2022-01-07T07:16:31.885Z</time>
      </trkpt>
      <trkpt lat="47.375682" lon="9.545743">
        <ele>456.560409</ele>
        <time>2022-01-07T07:16:47.430Z</time>
      </trkpt>
      <trkpt lat="47.375643" lon="9.545420">
        <ele>456.742936</ele>
        <time>2022-01-07T07:16:54.002Z</time>
      </trkpt>
      <trkpt lat="47.375697" lon="9.544948">
        <ele>457.009244</ele>
        <time>2022-01-07T07:17:02.713Z</time>
      </trkpt>
      <trkpt lat="47.375756" lon="9.544640">
        <ele>457.187316</ele>
        <time>2022-01-07T07:17:08.216Z</time>
      </trkpt>
      <trkpt lat="47.375833" lon="9.544312">
        <ele>457.380444</ele>
        <time>2022-01-07T07:17:13.985Z</time>
      </trkpt>
      <trkpt lat="47.376009" lon="9.543881">
        <ele>457.660441</ele>
        <time>2022-01-07T07:17:21.827Z</time>
      </trkpt>
      <trkpt lat="47.376203" lon="9.543468">
        <ele>457.940067</ele>
        <time>2022-01-07T07:17:29.682Z</time>
      </trkpt>
      <trkpt lat="47.376345" lon="9.543304">
        <ele>458.061519</ele>
        <time>2022-01-07T07:17:33.637Z</time>
      </trkpt>
      <trkpt lat="47.376463" lon="9.543250">
        <ele>458.124391</ele>
        <time>2022-01-07T07:17:36.264Z</time>
      </trkpt>
      <trkpt lat="47.376472" lon="9.543187">
        <ele>458.146582</ele>
        <time>2022-01-07T07:17:37.280Z</time>
      </trkpt>
      <trkpt lat="47.376494" lon="9.543106">
        <ele>458.176660</ele>
        <time>2022-01-07T07:17:38.616Z</time>
      </trkpt>
      <trkpt lat="47.376601" lon="9.542903">
        <ele>458.265318</ele>
        <time>2022-01-07T07:17:42.415Z</time>
      </trkpt>
      <trkpt lat="47.376823" lon="9.542504">
        <ele>458.443294</ele>
        <time>2022-01-07T07:17:50.412Z</time>
      </trkpt>
      <trkpt lat="47.376881" lon="9.542291">
        <ele>458.522415</ele>
        <time>2022-01-07T07:17:54.039Z</time>
      </trkpt>
      <trkpt lat="47.376809" lon="9.541767">
        <ele>458.706688</ele>
        <time>2022-01-07T07:18:02.830Z</time>
      </trkpt>
      <trkpt lat="47.377037" lon="9.541398">
        <ele>458.878845</ele>
        <time>2022-01-07T07:18:11.559Z</time>
      </trkpt>
      <trkpt lat="47.377053" lon="9.541372">
        <ele>458.890953</ele>
        <time>2022-01-07T07:18:12.224Z</time>
      </trkpt>
      <trkpt lat="47.377085" lon="9.541316">
        <ele>458.916206</ele>
        <time>2022-01-07T07:18:13.579Z</time>
      </trkpt>
      <trkpt lat="47.377095" lon="9.541299">
        <ele>458.923967</ele>
        <time>2022-01-07T07:18:14.000Z</time>
      </trkpt>
      <trkpt lat="47.377128" lon="9.541242">
        <ele>458.977835</ele>
        <time>2022-01-07T07:18:15.393Z</time>
      </trkpt>
      <trkpt lat="47.377273" lon="9.540970">
        <ele>459.302595</ele>
        <time>2022-01-07T07:18:22.006Z</time>
      </trkpt>
      <trkpt lat="47.376978" lon="9.540192">
        <ele>460.139108</ele>
        <time>2022-01-07T07:18:40.395Z</time>
      </trkpt>
      <trkpt lat="47.376954" lon="9.540108">
        <ele>460.224640</ele>
        <time>2022-01-07T07:18:42.274Z</time>
      </trkpt>
      <trkpt lat="47.376893" lon="9.539829">
        <ele>460.499689</ele>
        <time>2022-01-07T07:18:47.994Z</time>
      </trkpt>
      <trkpt lat="47.376848" lon="9.539619">
        <ele>460.706330</ele>
        <time>2022-01-07T07:18:52.144Z</time>
      </trkpt>
      <trkpt lat="47.376856" lon="9.538869">
        <ele>461.410032</ele>
        <time>2022-01-07T07:19:05.614Z</time>
      </trkpt>
      <trkpt lat="47.376928" lon="9.538590">
        <ele>461.329647</ele>
        <time>2022-01-07T07:19:10.603Z</time>
      </trkpt>
      <trkpt lat="47.377106" lon="9.538200">
        <ele>461.170121</ele>
        <time>2022-01-07T07:19:18.011Z</time>
      </trkpt>
      <trkpt lat="47.377290" lon="9.538225">
        <ele>461.077567</ele>
        <time>2022-01-07T07:19:22.177Z</time>
      </trkpt>
      <trkpt lat="47.377277" lon="9.538461">
        <ele>460.997253</ele>
        <time>2022-01-07T07:19:25.697Z</time>
      </trkpt>
      <trkpt lat="47.377610" lon="9.539108">
        <ele>460.721605</ele>
        <time>2022-01-07T07:19:37.259Z</time>
      </trkpt>
      <trkpt lat="47.377829" lon="9.539649">
        <ele>460.455469</ele>
        <time>2022-01-07T07:19:45.392Z</time>
      </trkpt>
      <trkpt lat="47.378202" lon="9.540364">
        <ele>459.185451</ele>
        <time>2022-01-07T07:19:56.313Z</time>
      </trkpt>
      <trkpt lat="47.378317" lon="9.540730">
        <ele>458.617712</ele>
        <time>2022-01-07T07:20:01.269Z</time>
      </trkpt>
      <trkpt lat="47.378457" lon="9.541038">
        <ele>458.095740</ele>
        <time>2022-01-07T07:20:05.917Z</time>
      </trkpt>
      <trkpt lat="47.378425" lon="9.541184">
        <ele>457.879811</ele>
        <time>2022-01-07T07:20:07.746Z</time>
      </trkpt>
      <trkpt lat="47.378354" lon="9.541671">
        <ele>457.178853</ele>
        <time>2022-01-07T07:20:13.594Z</time>
      </trkpt>
      <trkpt lat="47.378347" lon="9.541762">
        <ele>457.049984</ele>
        <time>2022-01-07T07:20:14.706Z</time>
      </trkpt>
      <trkpt lat="47.378316" lon="9.542229">
        <ele>456.392096</ele>
        <time>2022-01-07T07:20:20.216Z</time>
      </trkpt>
      <trkpt lat="47.378261" lon="9.542382">
        <ele>456.149814</ele>
        <time>2022-01-07T07:20:22.333Z</time>
      </trkpt>
      <trkpt lat="47.378189" lon="9.542484">
        <ele>455.943730</ele>
        <time>2022-01-07T07:20:24.047Z</time>
      </trkpt>
      <trkpt lat="47.378206" lon="9.542599">
        <ele>455.779094</ele>
        <time>2022-01-07T07:20:25.359Z</time>
      </trkpt>
      <trkpt lat="47.378273" lon="9.542650">
        <ele>455.623402</ele>
        <time>2022-01-07T07:20:26.703Z</time>
      </trkpt>
      <trkpt lat="47.378395" lon="9.542847">
        <ele>455.250008</ele>
        <time>2022-01-07T07:20:29.905Z</time>
      </trkpt>
      <trkpt lat="47.378435" lon="9.542951">
        <ele>455.082719</ele>
        <time>2022-01-07T07:20:31.239Z</time>
      </trkpt>
      <trkpt lat="47.378574" lon="9.543264">
        <ele>454.559187</ele>
        <time>2022-01-07T07:20:35.700Z</time>
      </trkpt>
      <trkpt lat="47.378493" lon="9.543413">
        <ele>454.291936</ele>
        <time>2022-01-07T07:20:37.845Z</time>
      </trkpt>
      <trkpt lat="47.378155" lon="9.544588">
        <ele>452.621849</ele>
        <time>2022-01-07T07:20:53.287Z</time>
      </trkpt>
      <trkpt lat="47.377681" lon="9.546155">
        <ele>450.711697</ele>
        <time>2022-01-07T07:21:14.619Z</time>
      </trkpt>
      <trkpt lat="47.377625" lon="9.546348">
        <ele>450.478000</ele>
        <time>2022-01-07T07:21:17.266Z</time>
      </trkpt>
      <trkpt lat="47.377465" lon="9.546903">
        <ele>449.609817</ele>
        <time>2022-01-07T07:21:24.669Z</time>
      </trkpt>
      <trkpt lat="47.377418" lon="9.547064">
        <ele>449.290345</ele>
        <time>2022-01-07T07:21:26.757Z</time>
      </trkpt>
      <trkpt lat="47.377225" lon="9.547721">
        <ele>447.985368</ele>
        <time>2022-01-07T07:21:35.012Z</time>
      </trkpt>
      <trkpt lat="47.377204" lon="9.547795">
        <ele>447.839163</ele>
        <time>2022-01-07T07:21:35.926Z</time>
      </trkpt>
      <trkpt lat="47.377162" lon="9.547940">
        <ele>447.551788</ele>
        <time>2022-01-07T07:21:37.689Z</time>
      </trkpt>
      <trkpt lat="47.377008" lon="9.548468">
        <ele>446.504216</ele>
        <time>2022-01-07T07:21:44.097Z</time>
      </trkpt>
      <trkpt lat="47.376942" lon="9.548694">
        <ele>446.055733</ele>
        <time>2022-01-07T07:21:46.804Z</time>
      </trkpt>
      <trkpt lat="47.376556" lon="9.550018">
        <ele>442.991028</ele>
        <time>2022-01-07T07:22:02.478Z</time>
      </trkpt>
      <trkpt lat="47.376036" lon="9.551801">
        <ele>438.790515</ele>
        <time>2022-01-07T07:22:23.715Z</time>
      </trkpt>
      <trkpt lat="47.375978" lon="9.552015">
        <ele>438.406840</ele>
        <time>2022-01-07T07:22:26.326Z</time>
      </trkpt>
      <trkpt lat="47.375914" lon="9.552216">
        <ele>438.037135</ele>
        <time>2022-01-07T07:22:28.905Z</time>
      </trkpt>
      <trkpt lat="47.375681" lon="9.553021">
        <ele>436.579936</ele>
        <time>2022-01-07T07:22:39.102Z</time>
      </trkpt>
      <trkpt lat="47.375643" lon="9.553149">
        <ele>436.347303</ele>
        <time>2022-01-07T07:22:40.733Z</time>
      </trkpt>
      <trkpt lat="47.375564" lon="9.553423">
        <ele>435.851606</ele>
        <time>2022-01-07T07:22:44.209Z</time>
      </trkpt>
      <trkpt lat="47.375052" lon="9.555186">
        <ele>433.258411</ele>
        <time>2022-01-07T07:23:06.965Z</time>
      </trkpt>
      <trkpt lat="47.375014" lon="9.555325">
        <ele>433.076687</ele>
        <time>2022-01-07T07:23:08.795Z</time>
      </trkpt>
      <trkpt lat="47.374994" lon="9.555385">
        <ele>432.995614</ele>
        <time>2022-01-07T07:23:09.618Z</time>
      </trkpt>
      <trkpt lat="47.374901" lon="9.555705">
        <ele>432.573457</ele>
        <time>2022-01-07T07:23:13.975Z</time>
      </trkpt>
      <trkpt lat="47.374793" lon="9.556079">
        <ele>432.080549</ele>
        <time>2022-01-07T07:23:19.061Z</time>
      </trkpt>
      <trkpt lat="47.374736" lon="9.556275">
        <ele>431.821951</ele>
        <time>2022-01-07T07:23:21.681Z</time>
      </trkpt>
      <trkpt lat="47.374730" lon="9.556405">
        <ele>431.663984</ele>
        <time>2022-01-07T07:23:23.302Z</time>
      </trkpt>
      <trkpt lat="47.374910" lon="9.556665">
        <ele>431.289662</ele>
        <time>2022-01-07T07:23:27.888Z</time>
      </trkpt>
      <trkpt lat="47.375537" lon="9.557145">
        <ele>430.248384</ele>
        <time>2022-01-07T07:23:40.794Z</time>
      </trkpt>
      <trkpt lat="47.375719" lon="9.557182">
        <ele>429.977516</ele>
        <time>2022-01-07T07:23:44.184Z</time>
      </trkpt>
      <trkpt lat="47.375740" lon="9.557450">
        <ele>429.708152</ele>
        <time>2022-01-07T07:23:47.746Z</time>
      </trkpt>
      <trkpt lat="47.375502" lon="9.558154">
        <ele>428.917416</ele>
        <time>2022-01-07T07:23:58.169Z</time>
      </trkpt>
      <trkpt lat="47.375320" lon="9.558595">
        <ele>428.365188</ele>
        <time>2022-01-07T07:24:04.889Z</time>
      </trkpt>
      <trkpt lat="47.375235" lon="9.558803">
        <ele>428.105415</ele>
        <time>2022-01-07T07:24:08.002Z</time>
      </trkpt>
      <trkpt lat="47.375273" lon="9.558838">
        <ele>428.034697</ele>
        <time>2022-01-07T07:24:08.830Z</time>
      </trkpt>
      <trkpt lat="47.375316" lon="9.558876">
        <ele>427.955570</ele>
        <time>2022-01-07T07:24:09.711Z</time>
      </trkpt>
      <trkpt lat="47.375672" lon="9.559196">
        <ele>427.297488</ele>
        <time>2022-01-07T07:24:17.178Z</time>
      </trkpt>
      <trkpt lat="47.376052" lon="9.559634">
        <ele>426.536318</ele>
        <time>2022-01-07T07:24:25.878Z</time>
      </trkpt>
      <trkpt lat="47.376891" lon="9.560891">
        <ele>424.720013</ele>
        <time>2022-01-07T07:24:47.807Z</time>
      </trkpt>
      <trkpt lat="47.377099" lon="9.561197">
        <ele>424.278252</ele>
        <time>2022-01-07T07:24:53.185Z</time>
      </trkpt>
      <trkpt lat="47.377132" lon="9.561253">
        <ele>424.202614</ele>
        <time>2022-01-07T07:24:54.124Z</time>
      </trkpt>
      <trkpt lat="47.377639" lon="9.561992">
        <ele>423.198784</ele>
        <time>2022-01-07T07:25:07.306Z</time>
      </trkpt>
      <trkpt lat="47.377898" lon="9.562375">
        <ele>422.765446</ele>
        <time>2022-01-07T07:25:14.130Z</time>
      </trkpt>
      <trkpt lat="47.378454" lon="9.563198">
        <ele>421.834737</ele>
        <time>2022-01-07T07:25:28.948Z</time>
      </trkpt>
      <trkpt lat="47.378540" lon="9.563326">
        <ele>421.690381</ele>
        <time>2022-01-07T07:25:31.282Z</time>
      </trkpt>
      <trkpt lat="47.379052" lon="9.564081">
        <ele>421.006704</ele>
        <time>2022-01-07T07:25:45.310Z</time>
      </trkpt>
      <trkpt lat="47.379490" lon="9.564724">
        <ele>420.534130</ele>
        <time>2022-01-07T07:25:57.574Z</time>
      </trkpt>
      <trkpt lat="47.379752" lon="9.565110">
        <ele>420.250948</ele>
        <time>2022-01-07T07:26:04.983Z</time>
      </trkpt>
      <trkpt lat="47.379827" lon="9.565221">
        <ele>420.169700</ele>
        <time>2022-01-07T07:26:07.118Z</time>
      </trkpt>
      <trkpt lat="47.380207" lon="9.565791">
        <ele>419.863488</ele>
        <time>2022-01-07T07:26:18.129Z</time>
      </trkpt>
      <trkpt lat="47.380636" lon="9.566444">
        <ele>419.660282</ele>
        <time>2022-01-07T07:26:31.070Z</time>
      </trkpt>
      <trkpt lat="47.381010" lon="9.567007">
        <ele>419.484133</ele>
        <time>2022-01-07T07:26:42.504Z</time>
      </trkpt>
      <trkpt lat="47.381079" lon="9.567013">
        <ele>419.461335</ele>
        <time>2022-01-07T07:26:43.993Z</time>
      </trkpt>
      <trkpt lat="47.381166" lon="9.567023">
        <ele>419.432552</ele>
        <time>2022-01-07T07:26:45.885Z</time>
      </trkpt>
      <trkpt lat="47.381186" lon="9.567025">
        <ele>419.425940</ele>
        <time>2022-01-07T07:26:46.321Z</time>
      </trkpt>
      <trkpt lat="47.382337" lon="9.567120">
        <ele>419.164640</ele>
        <time>2022-01-07T07:27:11.116Z</time>
      </trkpt>
      <trkpt lat="47.382646" lon="9.567423">
        <ele>419.089769</ele>
        <time>2022-01-07T07:27:19.579Z</time>
      </trkpt>
      <trkpt lat="47.382784" lon="9.569378">
        <ele>418.626530</ele>
        <time>2022-01-07T07:27:47.896Z</time>
      </trkpt>
      <trkpt lat="47.383036" lon="9.571483">
        <ele>417.902431</ele>
        <time>2022-01-07T07:28:17.275Z</time>
      </trkpt>
      <trkpt lat="47.383060" lon="9.571816">
        <ele>417.759550</ele>
        <time>2022-01-07T07:28:21.832Z</time>
      </trkpt>
      <trkpt lat="47.382754" lon="9.572810">
        <ele>417.293672</ele>
        <time>2022-01-07T07:28:36.706Z</time>
      </trkpt>
      <trkpt lat="47.382046" lon="9.573984">
        <ele>416.664899</ele>
        <time>2022-01-07T07:28:58.246Z</time>
      </trkpt>
      <trkpt lat="47.381995" lon="9.574282">
        <ele>416.546012</ele>
        <time>2022-01-07T07:29:02.447Z</time>
      </trkpt>
      <trkpt lat="47.381976" lon="9.575201">
        <ele>416.190388</ele>
        <time>2022-01-07T07:29:15.133Z</time>
      </trkpt>
      <trkpt lat="47.381740" lon="9.575792">
        <ele>415.960268</ele>
        <time>2022-01-07T07:29:24.591Z</time>
      </trkpt>
      <trkpt lat="47.381025" lon="9.577136">
        <ele>415.493697</ele>
        <time>2022-01-07T07:29:48.660Z</time>
      </trkpt>
      <trkpt lat="47.380324" lon="9.578139">
        <ele>415.141815</ele>
        <time>2022-01-07T07:30:09.389Z</time>
      </trkpt>
      <trkpt lat="47.379672" lon="9.578861">
        <ele>414.875542</ele>
        <time>2022-01-07T07:30:26.605Z</time>
      </trkpt>
      <trkpt lat="47.379439" lon="9.579207">
        <ele>414.767579</ele>
        <time>2022-01-07T07:30:33.504Z</time>
      </trkpt>
      <trkpt lat="47.379350" lon="9.579281">
        <ele>414.734207</ele>
        <time>2022-01-07T07:30:35.661Z</time>
      </trkpt>
      <trkpt lat="47.379250" lon="9.579310">
        <ele>414.693303</ele>
        <time>2022-01-07T07:30:37.804Z</time>
      </trkpt>
      <trkpt lat="47.379202" lon="9.579318">
        <ele>414.673664</ele>
        <time>2022-01-07T07:30:38.811Z</time>
      </trkpt>
      <trkpt lat="47.378395" lon="9.580453">
        <ele>414.220577</ele>
        <time>2022-01-07T07:31:02.025Z</time>
      </trkpt>
      <trkpt lat="47.378307" lon="9.580580">
        <ele>414.170552</ele>
        <time>2022-01-07T07:31:04.555Z</time>
      </trkpt>
      <trkpt lat="47.378214" lon="9.580716">
        <ele>414.117340</ele>
        <time>2022-01-07T07:31:07.278Z</time>
      </trkpt>
      <trkpt lat="47.378127" lon="9.580819">
        <ele>414.072005</ele>
        <time>2022-01-07T07:31:09.565Z</time>
      </trkpt>
      <trkpt lat="47.377530" lon="9.581746">
        <ele>413.771476</ele>
        <time>2022-01-07T07:31:27.547Z</time>
      </trkpt>
      <trkpt lat="47.377102" lon="9.582702">
        <ele>413.513984</ele>
        <time>2022-01-07T07:31:43.997Z</time>
      </trkpt>
      <trkpt lat="47.376222" lon="9.583645">
        <ele>413.144440</ele>
        <time>2022-01-07T07:32:07.041Z</time>
      </trkpt>
      <trkpt lat="47.376122" lon="9.583753">
        <ele>413.101893</ele>
        <time>2022-01-07T07:32:09.661Z</time>
      </trkpt>
      <trkpt lat="47.376070" lon="9.583809">
        <ele>413.079791</ele>
        <time>2022-01-07T07:32:11.038Z</time>
      </trkpt>
      <trkpt lat="47.376451" lon="9.584592">
        <ele>412.855561</ele>
        <time>2022-01-07T07:32:34.337Z</time>
      </trkpt>
      <trkpt lat="47.377536" lon="9.586996">
        <ele>412.007825</ele>
        <time>2022-01-07T07:33:43.843Z</time>
      </trkpt>
      <trkpt lat="47.378099" lon="9.588107">
        <ele>411.577461</ele>
        <time>2022-01-07T07:34:17.055Z</time>
      </trkpt>
      <trkpt lat="47.380027" lon="9.590872">
        <ele>410.386878</ele>
        <time>2022-01-07T07:35:51.834Z</time>
      </trkpt>
      <trkpt lat="47.382039" lon="9.593790">
        <ele>410.047390</ele>
        <time>2022-01-07T07:37:35.318Z</time>
      </trkpt>
      <trkpt lat="47.384302" lon="9.597030">
        <ele>410.000049</ele>
        <time>2022-01-07T07:39:32.158Z</time>
      </trkpt>
      <trkpt lat="47.385315" lon="9.598529">
        <ele>410.000049</ele>
        <time>2022-01-07T07:40:25.307Z</time>
      </trkpt>
      <trkpt lat="47.385392" lon="9.598575">
        <ele>410.000049</ele>
        <time>2022-01-07T07:40:27.151Z</time>
      </trkpt>
      <trkpt lat="47.385498" lon="9.598443">
        <ele>410.000049</ele>
        <time>2022-01-07T07:40:30.237Z</time>
      </trkpt>
      <trkpt lat="47.385529" lon="9.598377">
        <ele>410.000049</ele>
        <time>2022-01-07T07:40:31.448Z</time>
      </trkpt>
      <trkpt lat="47.387828" lon="9.603201">
        <ele>410.000049</ele>
        <time>2022-01-07T07:42:00.264Z</time>
      </trkpt>
      <trkpt lat="47.389735" lon="9.607507">
        <ele>410.000049</ele>
        <time>2022-01-07T07:43:17.730Z</time>
      </trkpt>
      <trkpt lat="47.391099" lon="9.610729">
        <ele>410.000049</ele>
        <time>2022-01-07T07:44:14.939Z</time>
      </trkpt>
      <trkpt lat="47.391487" lon="9.611824">
        <ele>409.995484</ele>
        <time>2022-01-07T07:44:33.550Z</time>
      </trkpt>
      <trkpt lat="47.391526" lon="9.611942">
        <ele>409.994770</ele>
        <time>2022-01-07T07:44:35.519Z</time>
      </trkpt>
      <trkpt lat="47.391611" lon="9.612210">
        <ele>409.993161</ele>
        <time>2022-01-07T07:44:39.992Z</time>
      </trkpt>
      <trkpt lat="47.391884" lon="9.613867">
        <ele>409.950614</ele>
        <time>2022-01-07T07:45:05.560Z</time>
      </trkpt>
      <trkpt lat="47.391947" lon="9.615201">
        <ele>409.802190</ele>
        <time>2022-01-07T07:45:25.275Z</time>
      </trkpt>
      <trkpt lat="47.391917" lon="9.619573">
        <ele>408.976051</ele>
        <time>2022-01-07T07:46:27.832Z</time>
      </trkpt>
      <trkpt lat="47.391924" lon="9.621942">
        <ele>408.482425</ele>
        <time>2022-01-07T07:47:01.552Z</time>
      </trkpt>
      <trkpt lat="47.392141" lon="9.622123">
        <ele>408.450493</ele>
        <time>2022-01-07T07:47:06.844Z</time>
      </trkpt>
      <trkpt lat="47.392190" lon="9.622182">
        <ele>408.442393</ele>
        <time>2022-01-07T07:47:08.229Z</time>
      </trkpt>
      <trkpt lat="47.392519" lon="9.622600">
        <ele>408.386788</ele>
        <time>2022-01-07T07:47:17.603Z</time>
      </trkpt>
      <trkpt lat="47.398018" lon="9.628425">
        <ele>408.102701</ele>
        <time>2022-01-07T07:49:47.818Z</time>
      </trkpt>
      <trkpt lat="47.398228" lon="9.628647">
        <ele>408.057788</ele>
        <time>2022-01-07T07:49:53.395Z</time>
      </trkpt>
      <trkpt lat="47.398216" lon="9.628672">
        <ele>408.054180</ele>
        <time>2022-01-07T07:49:53.835Z</time>
      </trkpt>
      <trkpt lat="47.398076" lon="9.628957">
        <ele>408.012722</ele>
        <time>2022-01-07T07:49:58.890Z</time>
      </trkpt>
      <trkpt lat="47.398051" lon="9.629015">
        <ele>408.004626</ele>
        <time>2022-01-07T07:49:59.873Z</time>
      </trkpt>
      <trkpt lat="47.398583" lon="9.629575">
        <ele>407.888714</ele>
        <time>2022-01-07T07:50:13.680Z</time>
      </trkpt>
      <trkpt lat="47.399321" lon="9.630331">
        <ele>407.644209</ele>
        <time>2022-01-07T07:50:32.517Z</time>
      </trkpt>
      <trkpt lat="47.401156" lon="9.632262">
        <ele>407.176706</ele>
        <time>2022-01-07T07:51:20.952Z</time>
      </trkpt>
      <trkpt lat="47.401264" lon="9.632379">
        <ele>407.154445</ele>
        <time>2022-01-07T07:51:23.912Z</time>
      </trkpt>
      <trkpt lat="47.401502" lon="9.632643">
        <ele>407.106074</ele>
        <time>2022-01-07T07:51:30.462Z</time>
      </trkpt>
      <trkpt lat="47.403838" lon="9.635141">
        <ele>407.015136</ele>
        <time>2022-01-07T07:52:34.406Z</time>
      </trkpt>
      <trkpt lat="47.403890" lon="9.635284">
        <ele>407.012841</ele>
        <time>2022-01-07T07:52:36.840Z</time>
      </trkpt>
      <trkpt lat="47.403982" lon="9.635243">
        <ele>407.010835</ele>
        <time>2022-01-07T07:52:38.979Z</time>
      </trkpt>
      <trkpt lat="47.404057" lon="9.635453">
        <ele>407.007479</ele>
        <time>2022-01-07T07:52:42.533Z</time>
      </trkpt>
      <trkpt lat="47.404182" lon="9.635504">
        <ele>407.004771</ele>
        <time>2022-01-07T07:52:45.412Z</time>
      </trkpt>
      <trkpt lat="47.404685" lon="9.636021">
        <ele>407.000331</ele>
        <time>2022-01-07T07:52:59.009Z</time>
      </trkpt>
      <trkpt lat="47.405585" lon="9.636935">
        <ele>407.000110</ele>
        <time>2022-01-07T07:53:23.259Z</time>
      </trkpt>
      <trkpt lat="47.407043" lon="9.638114">
        <ele>406.919453</ele>
        <time>2022-01-07T07:54:00.006Z</time>
      </trkpt>
      <trkpt lat="47.407184" lon="9.638218">
        <ele>406.910111</ele>
        <time>2022-01-07T07:54:03.441Z</time>
      </trkpt>
      <trkpt lat="47.407342" lon="9.638336">
        <ele>406.899616</ele>
        <time>2022-01-07T07:54:07.309Z</time>
      </trkpt>
      <trkpt lat="47.407626" lon="9.638548">
        <ele>406.840941</ele>
        <time>2022-01-07T07:54:14.220Z</time>
      </trkpt>
      <trkpt lat="47.408946" lon="9.639354">
        <ele>406.490221</ele>
        <time>2022-01-07T07:54:44.587Z</time>
      </trkpt>
      <trkpt lat="47.409920" lon="9.639799">
        <ele>406.264708</ele>
        <time>2022-01-07T07:55:06.208Z</time>
      </trkpt>
      <trkpt lat="47.410194" lon="9.639924">
        <ele>406.202545</ele>
        <time>2022-01-07T07:55:12.368Z</time>
      </trkpt>
      <trkpt lat="47.410431" lon="9.640015">
        <ele>406.149462</ele>
        <time>2022-01-07T07:55:17.633Z</time>
      </trkpt>
      <trkpt lat="47.410466" lon="9.640032">
        <ele>406.141475</ele>
        <time>2022-01-07T07:55:18.439Z</time>
      </trkpt>
      <trkpt lat="47.410561" lon="9.640068">
        <ele>406.120215</ele>
        <time>2022-01-07T07:55:20.539Z</time>
      </trkpt>
      <trkpt lat="47.410721" lon="9.640126">
        <ele>406.084502</ele>
        <time>2022-01-07T07:55:24.132Z</time>
      </trkpt>
      <trkpt lat="47.411122" lon="9.640284">
        <ele>406.051180</ele>
        <time>2022-01-07T07:55:33.207Z</time>
      </trkpt>
      <trkpt lat="47.412917" lon="9.640761">
        <ele>405.996992</ele>
        <time>2022-01-07T07:56:13.700Z</time>
      </trkpt>
      <trkpt lat="47.413157" lon="9.640775">
        <ele>405.994805</ele>
        <time>2022-01-07T07:56:19.048Z</time>
      </trkpt>
      <trkpt lat="47.413279" lon="9.640788">
        <ele>405.993692</ele>
        <time>2022-01-07T07:56:21.774Z</time>
      </trkpt>
      <trkpt lat="47.413348" lon="9.640859">
        <ele>405.992926</ele>
        <time>2022-01-07T07:56:23.644Z</time>
      </trkpt>
      <trkpt lat="47.413407" lon="9.640867">
        <ele>405.992387</ele>
        <time>2022-01-07T07:56:24.959Z</time>
      </trkpt>
      <trkpt lat="47.413921" lon="9.640905">
        <ele>405.987701</ele>
        <time>2022-01-07T07:56:36.398Z</time>
      </trkpt>
      <trkpt lat="47.414200" lon="9.640916">
        <ele>405.985159</ele>
        <time>2022-01-07T07:56:42.609Z</time>
      </trkpt>
      <trkpt lat="47.416117" lon="9.640920">
        <ele>405.884330</ele>
        <time>2022-01-07T07:57:25.013Z</time>
      </trkpt>
      <trkpt lat="47.422966" lon="9.640056">
        <ele>405.085407</ele>
        <time>2022-01-07T07:59:54.505Z</time>
      </trkpt>
      <trkpt lat="47.424232" lon="9.639944">
        <ele>404.878590</ele>
        <time>2022-01-07T08:00:22.144Z</time>
      </trkpt>
      <trkpt lat="47.424488" lon="9.639860">
        <ele>404.831952</ele>
        <time>2022-01-07T08:00:27.812Z</time>
      </trkpt>
      <trkpt lat="47.425102" lon="9.639811">
        <ele>404.722594</ele>
        <time>2022-01-07T08:00:41.019Z</time>
      </trkpt>
      <trkpt lat="47.426681" lon="9.639845">
        <ele>404.415632</ele>
        <time>2022-01-07T08:01:14.779Z</time>
      </trkpt>
      <trkpt lat="47.427363" lon="9.639957">
        <ele>404.306313</ele>
        <time>2022-01-07T08:01:29.581Z</time>
      </trkpt>
      <trkpt lat="47.428511" lon="9.640283">
        <ele>404.142038</ele>
        <time>2022-01-07T08:01:55.086Z</time>
      </trkpt>
      <trkpt lat="47.429258" lon="9.640455">
        <ele>404.078667</ele>
        <time>2022-01-07T08:02:11.692Z</time>
      </trkpt>
      <trkpt lat="47.429619" lon="9.640536">
        <ele>404.054620</ele>
        <time>2022-01-07T08:02:19.712Z</time>
      </trkpt>
      <trkpt lat="47.430531" lon="9.640774">
        <ele>403.991595</ele>
        <time>2022-01-07T08:02:40.128Z</time>
      </trkpt>
      <trkpt lat="47.431127" lon="9.640930">
        <ele>403.933269</ele>
        <time>2022-01-07T08:02:53.480Z</time>
      </trkpt>
      <trkpt lat="47.431786" lon="9.641102">
        <ele>403.868784</ele>
        <time>2022-01-07T08:03:08.156Z</time>
      </trkpt>
      <trkpt lat="47.436617" lon="9.642360">
        <ele>403.117153</ele>
        <time>2022-01-07T08:04:54.093Z</time>
      </trkpt>
      <trkpt lat="47.437216" lon="9.642568">
        <ele>403.029178</ele>
        <time>2022-01-07T08:05:07.590Z</time>
      </trkpt>
      <trkpt lat="47.437432" lon="9.642643">
        <ele>402.997455</ele>
        <time>2022-01-07T08:05:12.449Z</time>
      </trkpt>
      <trkpt lat="47.438200" lon="9.643128">
        <ele>402.910128</ele>
        <time>2022-01-07T08:05:30.630Z</time>
      </trkpt>
      <trkpt lat="47.438353" lon="9.643240">
        <ele>402.893279</ele>
        <time>2022-01-07T08:05:34.328Z</time>
      </trkpt>
      <trkpt lat="47.438564" lon="9.643378">
        <ele>402.870510</ele>
        <time>2022-01-07T08:05:39.379Z</time>
      </trkpt>
      <trkpt lat="47.438572" lon="9.643455">
        <ele>402.865310</ele>
        <time>2022-01-07T08:05:40.506Z</time>
      </trkpt>
      <trkpt lat="47.438460" lon="9.643831">
        <ele>402.837886</ele>
        <time>2022-01-07T08:05:46.596Z</time>
      </trkpt>
      <trkpt lat="47.438413" lon="9.643980">
        <ele>402.826912</ele>
        <time>2022-01-07T08:05:48.991Z</time>
      </trkpt>
      <trkpt lat="47.438750" lon="9.644159">
        <ele>402.796774</ele>
        <time>2022-01-07T08:05:56.820Z</time>
      </trkpt>
      <trkpt lat="47.439492" lon="9.644814">
        <ele>402.746896</ele>
        <time>2022-01-07T08:06:15.831Z</time>
      </trkpt>
      <trkpt lat="47.440812" lon="9.646307">
        <ele>402.677174</ele>
        <time>2022-01-07T08:06:52.890Z</time>
      </trkpt>
      <trkpt lat="47.442208" lon="9.648320">
        <ele>402.539035</ele>
        <time>2022-01-07T08:07:35.727Z</time>
      </trkpt>
      <trkpt lat="47.443666" lon="9.650603">
        <ele>402.233181</ele>
        <time>2022-01-07T08:08:21.560Z</time>
      </trkpt>
      <trkpt lat="47.446540" lon="9.654558">
        <ele>401.807810</ele>
        <time>2022-01-07T08:09:47.225Z</time>
      </trkpt>
      <trkpt lat="47.447723" lon="9.655534">
        <ele>401.697652</ele>
        <time>2022-01-07T08:10:16.841Z</time>
      </trkpt>
      <trkpt lat="47.448455" lon="9.656234">
        <ele>401.664612</ele>
        <time>2022-01-07T08:10:35.930Z</time>
      </trkpt>
      <trkpt lat="47.449573" lon="9.657490">
        <ele>401.729332</ele>
        <time>2022-01-07T08:11:07.623Z</time>
      </trkpt>
      <trkpt lat="47.449878" lon="9.658005">
        <ele>401.759857</ele>
        <time>2022-01-07T08:11:18.153Z</time>
      </trkpt>
      <trkpt lat="47.451499" lon="9.660342">
        <ele>401.837203</ele>
        <time>2022-01-07T08:12:08.983Z</time>
      </trkpt>
      <trkpt lat="47.451987" lon="9.660948">
        <ele>401.816905</ele>
        <time>2022-01-07T08:12:22.944Z</time>
      </trkpt>
      <trkpt lat="47.451963" lon="9.660997">
        <ele>401.815602</ele>
        <time>2022-01-07T08:12:23.828Z</time>
      </trkpt>
      <trkpt lat="47.451985" lon="9.661128">
        <ele>401.812694</ele>
        <time>2022-01-07T08:12:25.803Z</time>
      </trkpt>
      <trkpt lat="47.452167" lon="9.661435">
        <ele>401.804398</ele>
        <time>2022-01-07T08:12:31.862Z</time>
      </trkpt>
      <trkpt lat="47.452501" lon="9.661771">
        <ele>401.794441</ele>
        <time>2022-01-07T08:12:40.675Z</time>
      </trkpt>
      <trkpt lat="47.453019" lon="9.662379">
        <ele>401.778138</ele>
        <time>2022-01-07T08:12:55.186Z</time>
      </trkpt>
      <trkpt lat="47.453838" lon="9.663203">
        <ele>401.765343</ele>
        <time>2022-01-07T08:13:17.393Z</time>
      </trkpt>
      <trkpt lat="47.454234" lon="9.663555">
        <ele>401.770409</ele>
        <time>2022-01-07T08:13:27.836Z</time>
      </trkpt>
      <trkpt lat="47.454434" lon="9.663650">
        <ele>401.772712</ele>
        <time>2022-01-07T08:13:32.583Z</time>
      </trkpt>
      <trkpt lat="47.454684" lon="9.663811">
        <ele>401.775702</ele>
        <time>2022-01-07T08:13:38.691Z</time>
      </trkpt>
      <trkpt lat="47.455479" lon="9.664275">
        <ele>401.721608</ele>
        <time>2022-01-07T08:13:57.554Z</time>
      </trkpt>
      <trkpt lat="47.456376" lon="9.664861">
        <ele>401.542113</ele>
        <time>2022-01-07T08:14:18.547Z</time>
      </trkpt>
      <trkpt lat="47.457669" lon="9.665515">
        <ele>401.245943</ele>
        <time>2022-01-07T08:14:47.508Z</time>
      </trkpt>
      <trkpt lat="47.458209" lon="9.665740">
        <ele>401.113755</ele>
        <time>2022-01-07T08:14:59.544Z</time>
      </trkpt>
      <trkpt lat="47.458323" lon="9.665778">
        <ele>401.086221</ele>
        <time>2022-01-07T08:15:02.057Z</time>
      </trkpt>
      <trkpt lat="47.458904" lon="9.665975">
        <ele>400.975567</ele>
        <time>2022-01-07T08:15:14.998Z</time>
      </trkpt>
      <trkpt lat="47.459296" lon="9.666166">
        <ele>400.913359</ele>
        <time>2022-01-07T08:15:24.027Z</time>
      </trkpt>
      <trkpt lat="47.459772" lon="9.666300">
        <ele>400.840326</ele>
        <time>2022-01-07T08:15:34.587Z</time>
      </trkpt>
      <trkpt lat="47.460994" lon="9.666539">
        <ele>400.572489</ele>
        <time>2022-01-07T08:16:01.063Z</time>
      </trkpt>
      <trkpt lat="47.466338" lon="9.666865">
        <ele>399.251816</ele>
        <time>2022-01-07T08:17:54.625Z</time>
      </trkpt>
      <trkpt lat="47.472031" lon="9.667162">
        <ele>398.985558</ele>
        <time>2022-01-07T08:20:00.818Z</time>
      </trkpt>
      <trkpt lat="47.472181" lon="9.667158">
        <ele>398.980600</ele>
        <time>2022-01-07T08:20:04.150Z</time>
      </trkpt>
      <trkpt lat="47.475538" lon="9.667374">
        <ele>398.662781</ele>
        <time>2022-01-07T08:21:17.917Z</time>
      </trkpt>
      <trkpt lat="47.477164" lon="9.667532">
        <ele>398.292675</ele>
        <time>2022-01-07T08:21:52.317Z</time>
      </trkpt>
      <trkpt lat="47.477720" lon="9.667409">
        <ele>398.160221</ele>
        <time>2022-01-07T08:22:04.311Z</time>
      </trkpt>
      <trkpt lat="47.477946" lon="9.667371">
        <ele>398.106630</ele>
        <time>2022-01-07T08:22:09.221Z</time>
      </trkpt>
      <trkpt lat="47.477973" lon="9.667367">
        <ele>398.100237</ele>
        <time>2022-01-07T08:22:09.810Z</time>
      </trkpt>
      <trkpt lat="47.477985" lon="9.666977">
        <ele>398.038069</ele>
        <time>2022-01-07T08:22:15.541Z</time>
      </trkpt>
      <trkpt lat="47.477943" lon="9.666764">
        <ele>398.009143</ele>
        <time>2022-01-07T08:22:18.845Z</time>
      </trkpt>
      <trkpt lat="47.477985" lon="9.666531">
        <ele>397.980138</ele>
        <time>2022-01-07T08:22:22.393Z</time>
      </trkpt>
      <trkpt lat="47.478380" lon="9.664780">
        <ele>397.758103</ele>
        <time>2022-01-07T08:22:49.271Z</time>
      </trkpt>
      <trkpt lat="47.478384" lon="9.664722">
        <ele>397.751090</ele>
        <time>2022-01-07T08:22:50.126Z</time>
      </trkpt>
      <trkpt lat="47.478395" lon="9.664568">
        <ele>397.732464</ele>
        <time>2022-01-07T08:22:52.409Z</time>
      </trkpt>
      <trkpt lat="47.478404" lon="9.664431">
        <ele>397.715908</ele>
        <time>2022-01-07T08:22:54.387Z</time>
      </trkpt>
      <trkpt lat="47.478387" lon="9.664228">
        <ele>397.683997</ele>
        <time>2022-01-07T08:22:57.328Z</time>
      </trkpt>
      <trkpt lat="47.478313" lon="9.664070">
        <ele>397.651235</ele>
        <time>2022-01-07T08:23:00.163Z</time>
      </trkpt>
      <trkpt lat="47.478393" lon="9.663792">
        <ele>397.599738</ele>
        <time>2022-01-07T08:23:04.512Z</time>
      </trkpt>
      <trkpt lat="47.479113" lon="9.663979">
        <ele>397.415398</ele>
        <time>2022-01-07T08:23:20.047Z</time>
      </trkpt>
      <trkpt lat="47.479835" lon="9.664075">
        <ele>397.244843</ele>
        <time>2022-01-07T08:23:35.439Z</time>
      </trkpt>
      <trkpt lat="47.479999" lon="9.664043">
        <ele>397.225668</ele>
        <time>2022-01-07T08:23:39.067Z</time>
      </trkpt>
      <trkpt lat="47.480378" lon="9.663401">
        <ele>397.158890</ele>
        <time>2022-01-07T08:23:51.632Z</time>
      </trkpt>
      <trkpt lat="47.480666" lon="9.663200">
        <ele>397.121980</ele>
        <time>2022-01-07T08:23:58.603Z</time>
      </trkpt>
      <trkpt lat="47.480911" lon="9.663247">
        <ele>397.093344</ele>
        <time>2022-01-07T08:24:04.024Z</time>
      </trkpt>
      <trkpt lat="47.480953" lon="9.663261">
        <ele>397.088353</ele>
        <time>2022-01-07T08:24:04.962Z</time>
      </trkpt>
      <trkpt lat="47.481550" lon="9.663178">
        <ele>397.040516</ele>
        <time>2022-01-07T08:24:18.066Z</time>
      </trkpt>
      <trkpt lat="47.481733" lon="9.662769">
        <ele>397.031904</ele>
        <time>2022-01-07T08:24:25.370Z</time>
      </trkpt>
      <trkpt lat="47.482786" lon="9.659906">
        <ele>397.000049</ele>
        <time>2022-01-07T08:25:14.296Z</time>
      </trkpt>
      <trkpt lat="47.482928" lon="9.659405">
        <ele>397.000049</ele>
        <time>2022-01-07T08:25:22.467Z</time>
      </trkpt>
      <trkpt lat="47.483087" lon="9.659026">
        <ele>397.000049</ele>
        <time>2022-01-07T08:25:29.160Z</time>
      </trkpt>
      <trkpt lat="47.483946" lon="9.657996">
        <ele>396.943911</ele>
        <time>2022-01-07T08:25:53.663Z</time>
      </trkpt>
      <trkpt lat="47.484341" lon="9.657664">
        <ele>396.917130</ele>
        <time>2022-01-07T08:26:03.693Z</time>
      </trkpt>
      <trkpt lat="47.485733" lon="9.656097">
        <ele>396.561288</ele>
        <time>2022-01-07T08:26:41.145Z</time>
      </trkpt>
      <trkpt lat="47.485900" lon="9.655969">
        <ele>396.515170</ele>
        <time>2022-01-07T08:26:45.143Z</time>
      </trkpt>
      <trkpt lat="47.486085" lon="9.655676">
        <ele>396.452855</ele>
        <time>2022-01-07T08:26:50.904Z</time>
      </trkpt>
      <trkpt lat="47.486353" lon="9.655011">
        <ele>396.449731</ele>
        <time>2022-01-07T08:27:02.172Z</time>
      </trkpt>
      <trkpt lat="47.486367" lon="9.654442">
        <ele>396.447434</ele>
        <time>2022-01-07T08:27:10.514Z</time>
      </trkpt>
      <trkpt lat="47.486284" lon="9.651717">
        <ele>396.608835</ele>
        <time>2022-01-07T08:27:52.604Z</time>
      </trkpt>
      <trkpt lat="47.486236" lon="9.650121">
        <ele>396.783983</ele>
        <time>2022-01-07T08:28:17.652Z</time>
      </trkpt>
      <trkpt lat="47.486308" lon="9.649228">
        <ele>396.863431</ele>
        <time>2022-01-07T08:28:31.581Z</time>
      </trkpt>
      <trkpt lat="47.486478" lon="9.648419">
        <ele>396.938275</ele>
        <time>2022-01-07T08:28:44.538Z</time>
      </trkpt>
      <trkpt lat="47.486803" lon="9.647535">
        <ele>396.988701</ele>
        <time>2022-01-07T08:28:59.718Z</time>
      </trkpt>
      <trkpt lat="47.486843" lon="9.647465">
        <ele>396.989174</ele>
        <time>2022-01-07T08:29:01.101Z</time>
      </trkpt>
      <trkpt lat="47.487290" lon="9.646699">
        <ele>396.994397</ele>
        <time>2022-01-07T08:29:16.314Z</time>
      </trkpt>
      <trkpt lat="47.487355" lon="9.646799">
        <ele>396.995113</ele>
        <time>2022-01-07T08:29:18.623Z</time>
      </trkpt>
      <trkpt lat="47.489761" lon="9.643990">
        <ele>397.000049</ele>
        <time>2022-01-07T08:30:34.342Z</time>
      </trkpt>
      <trkpt lat="47.489672" lon="9.643898">
        <ele>397.000049</ele>
        <time>2022-01-07T08:30:38.366Z</time>
      </trkpt>
      <trkpt lat="47.490059" lon="9.643460">
        <ele>397.000049</ele>
        <time>2022-01-07T08:30:49.206Z</time>
      </trkpt>
      <trkpt lat="47.491199" lon="9.641773">
        <ele>396.947771</ele>
        <time>2022-01-07T08:31:25.004Z</time>
      </trkpt>
      <trkpt lat="47.491941" lon="9.640674">
        <ele>396.845750</ele>
        <time>2022-01-07T08:31:47.912Z</time>
      </trkpt>
      <trkpt lat="47.494224" lon="9.637633">
        <ele>396.165564</ele>
        <time>2022-01-07T08:32:53.518Z</time>
      </trkpt>
      <trkpt lat="47.494501" lon="9.637462">
        <ele>396.108555</ele>
        <time>2022-01-07T08:33:00.032Z</time>
      </trkpt>
      <trkpt lat="47.495536" lon="9.637295">
        <ele>396.044406</ele>
        <time>2022-01-07T08:33:22.858Z</time>
      </trkpt>
      <trkpt lat="47.495555" lon="9.637289">
        <ele>396.043209</ele>
        <time>2022-01-07T08:33:23.287Z</time>
      </trkpt>
      <trkpt lat="47.496885" lon="9.636883">
        <ele>396.000691</ele>
        <time>2022-01-07T08:33:53.447Z</time>
      </trkpt>
      <trkpt lat="47.497172" lon="9.636668">
        <ele>396.000507</ele>
        <time>2022-01-07T08:34:00.614Z</time>
      </trkpt>
      <trkpt lat="47.497475" lon="9.636242">
        <ele>396.000268</ele>
        <time>2022-01-07T08:34:09.890Z</time>
      </trkpt>
      <trkpt lat="47.498165" lon="9.633444">
        <ele>396.000049</ele>
        <time>2022-01-07T08:34:54.649Z</time>
      </trkpt>
      <trkpt lat="47.497429" lon="9.632464">
        <ele>396.000049</ele>
        <time>2022-01-07T08:35:16.658Z</time>
      </trkpt>
      <trkpt lat="47.497243" lon="9.631841">
        <ele>396.000049</ele>
        <time>2022-01-07T08:35:26.888Z</time>
      </trkpt>
      <trkpt lat="47.497214" lon="9.631745">
        <ele>396.000049</ele>
        <time>2022-01-07T08:35:28.457Z</time>
      </trkpt>
      <trkpt lat="47.495774" lon="9.628080">
        <ele>396.000049</ele>
        <time>2022-01-07T08:36:32.171Z</time>
      </trkpt>
      <trkpt lat="47.495654" lon="9.627773">
        <ele>396.000049</ele>
        <time>2022-01-07T08:36:37.496Z</time>
      </trkpt>
      <trkpt lat="47.495630" lon="9.627802">
        <ele>396.000049</ele>
        <time>2022-01-07T08:36:38.185Z</time>
      </trkpt>
      <trkpt lat="47.495609" lon="9.627827">
        <ele>396.000049</ele>
        <time>2022-01-07T08:36:38.786Z</time>
      </trkpt>
      <trkpt lat="47.495545" lon="9.627883">
        <ele>396.000049</ele>
        <time>2022-01-07T08:36:40.430Z</time>
      </trkpt>
      <trkpt lat="47.495281" lon="9.627902">
        <ele>396.000049</ele>
        <time>2022-01-07T08:36:46.322Z</time>
      </trkpt>
      <trkpt lat="47.492191" lon="9.627355">
        <ele>396.082366</ele>
        <time>2022-01-07T08:37:55.530Z</time>
      </trkpt>
      <trkpt lat="47.492004" lon="9.627274">
        <ele>396.103245</ele>
        <time>2022-01-07T08:37:59.852Z</time>
      </trkpt>
      <trkpt lat="47.491254" lon="9.625593">
        <ele>396.425509</ele>
        <time>2022-01-07T08:38:31.161Z</time>
      </trkpt>
      <trkpt lat="47.491022" lon="9.625496">
        <ele>396.532271</ele>
        <time>2022-01-07T08:38:36.887Z</time>
      </trkpt>
      <trkpt lat="47.488749" lon="9.625692">
        <ele>397.589897</ele>
        <time>2022-01-07T08:39:32.759Z</time>
      </trkpt>
      <trkpt lat="47.487748" lon="9.625986">
        <ele>397.982981</ele>
        <time>2022-01-07T08:39:56.944Z</time>
      </trkpt>
      <trkpt lat="47.487502" lon="9.625922">
        <ele>398.050349</ele>
        <time>2022-01-07T08:40:02.746Z</time>
      </trkpt>
      <trkpt lat="47.486991" lon="9.625544">
        <ele>398.204433</ele>
        <time>2022-01-07T08:40:15.914Z</time>
      </trkpt>
      <trkpt lat="47.484699" lon="9.623765">
        <ele>398.890088</ele>
        <time>2022-01-07T08:41:16.214Z</time>
      </trkpt>
      <trkpt lat="47.483813" lon="9.623604">
        <ele>399.115530</ele>
        <time>2022-01-07T08:41:37.016Z</time>
      </trkpt>
      <trkpt lat="47.483766" lon="9.623637">
        <ele>399.128668</ele>
        <time>2022-01-07T08:41:38.225Z</time>
      </trkpt>
      <trkpt lat="47.481542" lon="9.624850">
        <ele>399.792998</ele>
        <time>2022-01-07T08:42:33.680Z</time>
      </trkpt>
      <trkpt lat="47.481432" lon="9.624788">
        <ele>399.807050</ele>
        <time>2022-01-07T08:42:36.396Z</time>
      </trkpt>
      <trkpt lat="47.481327" lon="9.624577">
        <ele>399.827210</ele>
        <time>2022-01-07T08:42:40.467Z</time>
      </trkpt>
      <trkpt lat="47.481330" lon="9.623401">
        <ele>399.917688</ele>
        <time>2022-01-07T08:42:58.531Z</time>
      </trkpt>
      <trkpt lat="47.481240" lon="9.623178">
        <ele>399.937671</ele>
        <time>2022-01-07T08:43:02.457Z</time>
      </trkpt>
      <trkpt lat="47.481166" lon="9.623130">
        <ele>399.946870</ele>
        <time>2022-01-07T08:43:04.262Z</time>
      </trkpt>
      <trkpt lat="47.480136" lon="9.623280">
        <ele>399.999223</ele>
        <time>2022-01-07T08:43:27.314Z</time>
      </trkpt>
      <trkpt lat="47.479579" lon="9.623444">
        <ele>399.999608</ele>
        <time>2022-01-07T08:43:39.934Z</time>
      </trkpt>
      <trkpt lat="47.479070" lon="9.623747">
        <ele>399.999979</ele>
        <time>2022-01-07T08:43:52.145Z</time>
      </trkpt>
      <trkpt lat="47.478722" lon="9.624056">
        <ele>400.000049</ele>
        <time>2022-01-07T08:44:01.164Z</time>
      </trkpt>
      <trkpt lat="47.478509" lon="9.624138">
        <ele>400.000049</ele>
        <time>2022-01-07T08:44:06.059Z</time>
      </trkpt>
      <trkpt lat="47.478296" lon="9.623855">
        <ele>400.000049</ele>
        <time>2022-01-07T08:44:12.433Z</time>
      </trkpt>
      <trkpt lat="47.478016" lon="9.622484">
        <ele>400.000049</ele>
        <time>2022-01-07T08:44:33.963Z</time>
      </trkpt>
      <trkpt lat="47.477645" lon="9.620982">
        <ele>400.000049</ele>
        <time>2022-01-07T08:44:58.004Z</time>
      </trkpt>
      <trkpt lat="47.477525" lon="9.620947">
        <ele>400.000049</ele>
        <time>2022-01-07T08:45:00.717Z</time>
      </trkpt>
      <trkpt lat="47.476048" lon="9.621583">
        <ele>400.000049</ele>
        <time>2022-01-07T08:45:34.937Z</time>
      </trkpt>
      <trkpt lat="47.475853" lon="9.621603">
        <ele>400.000049</ele>
        <time>2022-01-07T08:45:39.275Z</time>
      </trkpt>
      <trkpt lat="47.475783" lon="9.621534">
        <ele>400.000049</ele>
        <time>2022-01-07T08:45:41.154Z</time>
      </trkpt>
      <trkpt lat="47.475534" lon="9.620790">
        <ele>400.000049</ele>
        <time>2022-01-07T08:45:53.634Z</time>
      </trkpt>
      <trkpt lat="47.475446" lon="9.620673">
        <ele>400.000049</ele>
        <time>2022-01-07T08:45:56.266Z</time>
      </trkpt>
      <trkpt lat="47.475322" lon="9.620659">
        <ele>400.000049</ele>
        <time>2022-01-07T08:45:59.029Z</time>
      </trkpt>
      <trkpt lat="47.475607" lon="9.619665">
        <ele>400.000049</ele>
        <time>2022-01-07T08:46:15.255Z</time>
      </trkpt>
      <trkpt lat="47.475678" lon="9.618547">
        <ele>400.000049</ele>
        <time>2022-01-07T08:46:32.135Z</time>
      </trkpt>
      <trkpt lat="47.475710" lon="9.617232">
        <ele>400.000049</ele>
        <time>2022-01-07T08:46:51.908Z</time>
      </trkpt>
      <trkpt lat="47.475765" lon="9.616444">
        <ele>400.000049</ele>
        <time>2022-01-07T08:47:03.824Z</time>
      </trkpt>
      <trkpt lat="47.475944" lon="9.615953">
        <ele>400.000049</ele>
        <time>2022-01-07T08:47:12.212Z</time>
      </trkpt>
      <trkpt lat="47.477008" lon="9.614097">
        <ele>400.000049</ele>
        <time>2022-01-07T08:47:48.796Z</time>
      </trkpt>
      <trkpt lat="47.477366" lon="9.613152">
        <ele>400.000049</ele>
        <time>2022-01-07T08:48:05.060Z</time>
      </trkpt>
      <trkpt lat="47.477503" lon="9.612486">
        <ele>400.000049</ele>
        <time>2022-01-07T08:48:15.529Z</time>
      </trkpt>
      <trkpt lat="47.477578" lon="9.611042">
        <ele>400.000049</ele>
        <time>2022-01-07T08:48:37.306Z</time>
      </trkpt>
      <trkpt lat="47.477554" lon="9.610157">
        <ele>400.000049</ele>
        <time>2022-01-07T08:48:50.619Z</time>
      </trkpt>
      <trkpt lat="47.477460" lon="9.609470">
        <ele>400.000049</ele>
        <time>2022-01-07T08:49:01.150Z</time>
      </trkpt>
      <trkpt lat="47.477212" lon="9.608375">
        <ele>399.998277</ele>
        <time>2022-01-07T08:49:18.470Z</time>
      </trkpt>
      <trkpt lat="47.477121" lon="9.608137">
        <ele>399.996483</ele>
        <time>2022-01-07T08:49:22.578Z</time>
      </trkpt>
      <trkpt lat="47.476637" lon="9.607230">
        <ele>399.988898</ele>
        <time>2022-01-07T08:49:39.905Z</time>
      </trkpt>
      <trkpt lat="47.476394" lon="9.606798">
        <ele>399.985210</ele>
        <time>2022-01-07T08:49:48.335Z</time>
      </trkpt>
      <trkpt lat="47.476046" lon="9.606704">
        <ele>399.977011</ele>
        <time>2022-01-07T08:49:56.169Z</time>
      </trkpt>
      <trkpt lat="47.475054" lon="9.606152">
        <ele>399.906114</ele>
        <time>2022-01-07T08:50:19.581Z</time>
      </trkpt>
      <trkpt lat="47.473422" lon="9.605406">
        <ele>399.663621</ele>
        <time>2022-01-07T08:50:56.917Z</time>
      </trkpt>
      <trkpt lat="47.472902" lon="9.605414">
        <ele>399.565485</ele>
        <time>2022-01-07T08:51:08.071Z</time>
      </trkpt>
      <trkpt lat="47.471805" lon="9.605871">
        <ele>399.288923</ele>
        <time>2022-01-07T08:51:31.703Z</time>
      </trkpt>
      <trkpt lat="47.471687" lon="9.605922">
        <ele>399.257450</ele>
        <time>2022-01-07T08:51:34.281Z</time>
      </trkpt>
      <trkpt lat="47.470923" lon="9.605785">
        <ele>399.064015</ele>
        <time>2022-01-07T08:51:51.020Z</time>
      </trkpt>
      <trkpt lat="47.470743" lon="9.605829">
        <ele>399.103999</ele>
        <time>2022-01-07T08:51:55.056Z</time>
      </trkpt>
      <trkpt lat="47.470719" lon="9.605879">
        <ele>399.113084</ele>
        <time>2022-01-07T08:51:55.968Z</time>
      </trkpt>
      <trkpt lat="47.470379" lon="9.605821">
        <ele>399.188092</ele>
        <time>2022-01-07T08:52:03.807Z</time>
      </trkpt>
      <trkpt lat="47.470177" lon="9.605783">
        <ele>399.232719</ele>
        <time>2022-01-07T08:52:08.551Z</time>
      </trkpt>
      <trkpt lat="47.469622" lon="9.605540">
        <ele>399.359568</ele>
        <time>2022-01-07T08:52:30.597Z</time>
      </trkpt>
      <trkpt lat="47.468976" lon="9.605105">
        <ele>399.495094</ele>
        <time>2022-01-07T08:52:58.198Z</time>
      </trkpt>
      <trkpt lat="47.467168" lon="9.604448">
        <ele>399.591461</ele>
        <time>2022-01-07T08:53:40.303Z</time>
      </trkpt>
      <trkpt lat="47.466912" lon="9.604438">
        <ele>399.494964</ele>
        <time>2022-01-07T08:53:45.656Z</time>
      </trkpt>
      <trkpt lat="47.465404" lon="9.604508">
        <ele>398.876953</ele>
        <time>2022-01-07T08:54:16.614Z</time>
      </trkpt>
      <trkpt lat="47.465002" lon="9.604474">
        <ele>398.658023</ele>
        <time>2022-01-07T08:54:24.731Z</time>
      </trkpt>
      <trkpt lat="47.464619" lon="9.604360">
        <ele>398.445606</ele>
        <time>2022-01-07T08:54:32.665Z</time>
      </trkpt>
      <trkpt lat="47.464195" lon="9.604029">
        <ele>398.184935</ele>
        <time>2022-01-07T08:54:42.491Z</time>
      </trkpt>
      <trkpt lat="47.463791" lon="9.603442">
        <ele>397.913749</ele>
        <time>2022-01-07T08:54:54.088Z</time>
      </trkpt>
      <trkpt lat="47.463371" lon="9.602653">
        <ele>397.618596</ele>
        <time>2022-01-07T08:55:08.097Z</time>
      </trkpt>
      <trkpt lat="47.463026" lon="9.601822">
        <ele>397.331978</ele>
        <time>2022-01-07T08:55:21.900Z</time>
      </trkpt>
      <trkpt lat="47.462741" lon="9.602132">
        <ele>397.242831</ele>
        <time>2022-01-07T08:55:29.740Z</time>
      </trkpt>
      <trkpt lat="47.462703" lon="9.602012">
        <ele>397.229031</ele>
        <time>2022-01-07T08:55:31.754Z</time>
      </trkpt>
      <trkpt lat="47.462410" lon="9.601067">
        <ele>397.120766</ele>
        <time>2022-01-07T08:55:47.500Z</time>
      </trkpt>
      <trkpt lat="47.462388" lon="9.600839">
        <ele>397.096782</ele>
        <time>2022-01-07T08:55:51.033Z</time>
      </trkpt>
      <trkpt lat="47.462304" lon="9.599942">
        <ele>397.002478</ele>
        <time>2022-01-07T08:56:05.107Z</time>
      </trkpt>
      <trkpt lat="47.462389" lon="9.599683">
        <ele>397.001129</ele>
        <time>2022-01-07T08:56:09.624Z</time>
      </trkpt>
      <trkpt lat="47.462595" lon="9.599055">
        <ele>397.000813</ele>
        <time>2022-01-07T08:56:21.291Z</time>
      </trkpt>
      <trkpt lat="47.462798" lon="9.597947">
        <ele>397.000293</ele>
        <time>2022-01-07T08:56:38.537Z</time>
      </trkpt>
      <trkpt lat="47.463407" lon="9.596686">
        <ele>397.007484</ele>
        <time>2022-01-07T08:57:01.856Z</time>
      </trkpt>
      <trkpt lat="47.463464" lon="9.596606">
        <ele>397.008338</ele>
        <time>2022-01-07T08:57:03.596Z</time>
      </trkpt>
      <trkpt lat="47.464061" lon="9.595955">
        <ele>397.016403</ele>
        <time>2022-01-07T08:57:31.075Z</time>
      </trkpt>
      <trkpt lat="47.464332" lon="9.595715">
        <ele>397.023555</ele>
        <time>2022-01-07T08:57:42.801Z</time>
      </trkpt>
      <trkpt lat="47.464374" lon="9.595819">
        <ele>397.038770</ele>
        <time>2022-01-07T08:57:44.637Z</time>
      </trkpt>
      <trkpt lat="47.464507" lon="9.595679">
        <ele>397.069096</ele>
        <time>2022-01-07T08:57:48.283Z</time>
      </trkpt>
      <trkpt lat="47.464971" lon="9.595179">
        <ele>397.175746</ele>
        <time>2022-01-07T08:58:01.385Z</time>
      </trkpt>
      <trkpt lat="47.464715" lon="9.594394">
        <ele>397.285209</ele>
        <time>2022-01-07T08:58:15.150Z</time>
      </trkpt>
      <trkpt lat="47.464708" lon="9.594364">
        <ele>397.289195</ele>
        <time>2022-01-07T08:58:15.642Z</time>
      </trkpt>
      <trkpt lat="47.464691" lon="9.594294">
        <ele>397.298537</ele>
        <time>2022-01-07T08:58:16.778Z</time>
      </trkpt>
      <trkpt lat="47.464557" lon="9.593722">
        <ele>397.360339</ele>
        <time>2022-01-07T08:58:32.319Z</time>
      </trkpt>
      <trkpt lat="47.464543" lon="9.593654">
        <ele>397.363163</ele>
        <time>2022-01-07T08:58:33.482Z</time>
      </trkpt>
      <trkpt lat="47.465033" lon="9.593241">
        <ele>397.396299</ele>
        <time>2022-01-07T08:58:46.456Z</time>
      </trkpt>
      <trkpt lat="47.467413" lon="9.591530">
        <ele>397.415693</ele>
        <time>2022-01-07T08:59:51.488Z</time>
      </trkpt>
      <trkpt lat="47.467758" lon="9.591302">
        <ele>397.417771</ele>
        <time>2022-01-07T09:00:00.736Z</time>
      </trkpt>
      <trkpt lat="47.468031" lon="9.591125">
        <ele>397.434372</ele>
        <time>2022-01-07T09:00:08.057Z</time>
      </trkpt>
      <trkpt lat="47.470305" lon="9.589716">
        <ele>397.601046</ele>
        <time>2022-01-07T09:01:10.053Z</time>
      </trkpt>
      <trkpt lat="47.470703" lon="9.589384">
        <ele>397.638520</ele>
        <time>2022-01-07T09:01:21.477Z</time>
      </trkpt>
      <trkpt lat="47.470815" lon="9.589320">
        <ele>397.648367</ele>
        <time>2022-01-07T09:01:24.153Z</time>
      </trkpt>
      <trkpt lat="47.471114" lon="9.589267">
        <ele>397.638106</ele>
        <time>2022-01-07T09:01:31.626Z</time>
      </trkpt>
      <trkpt lat="47.472590" lon="9.588343">
        <ele>397.482403</ele>
        <time>2022-01-07T09:02:10.518Z</time>
      </trkpt>
      <trkpt lat="47.473517" lon="9.587850">
        <ele>397.263289</ele>
        <time>2022-01-07T09:02:34.091Z</time>
      </trkpt>
      <trkpt lat="47.473712" lon="9.587668">
        <ele>397.211980</ele>
        <time>2022-01-07T09:02:39.584Z</time>
      </trkpt>
      <trkpt lat="47.474624" lon="9.587146">
        <ele>397.018867</ele>
        <time>2022-01-07T09:03:02.960Z</time>
      </trkpt>
      <trkpt lat="47.474925" lon="9.586877">
        <ele>396.962475</ele>
        <time>2022-01-07T09:03:11.369Z</time>
      </trkpt>
      <trkpt lat="47.477660" lon="9.585171">
        <ele>396.658282</ele>
        <time>2022-01-07T09:04:23.346Z</time>
      </trkpt>
      <trkpt lat="47.478435" lon="9.584303">
        <ele>396.755962</ele>
        <time>2022-01-07T09:04:47.660Z</time>
      </trkpt>
      <trkpt lat="47.478749" lon="9.583936">
        <ele>396.796174</ele>
        <time>2022-01-07T09:04:57.780Z</time>
      </trkpt>
      <trkpt lat="47.478871" lon="9.583758">
        <ele>396.813393</ele>
        <time>2022-01-07T09:05:02.161Z</time>
      </trkpt>
      <trkpt lat="47.479161" lon="9.583296">
        <ele>396.894056</ele>
        <time>2022-01-07T09:05:13.073Z</time>
      </trkpt>
      <trkpt lat="47.479237" lon="9.583171">
        <ele>396.920429</ele>
        <time>2022-01-07T09:05:15.706Z</time>
      </trkpt>
      <trkpt lat="47.479308" lon="9.583035">
        <ele>396.947385</ele>
        <time>2022-01-07T09:05:20.154Z</time>
      </trkpt>
      <trkpt lat="47.479396" lon="9.582874">
        <ele>396.979863</ele>
        <time>2022-01-07T09:05:25.480Z</time>
      </trkpt>
      <trkpt lat="47.479803" lon="9.582179">
        <ele>397.124108</ele>
        <time>2022-01-07T09:05:49.243Z</time>
      </trkpt>
      <trkpt lat="47.480275" lon="9.581713">
        <ele>397.248370</ele>
        <time>2022-01-07T09:06:10.965Z</time>
      </trkpt>
      <trkpt lat="47.480888" lon="9.580934">
        <ele>397.309727</ele>
        <time>2022-01-07T09:06:41.364Z</time>
      </trkpt>
      <trkpt lat="47.481209" lon="9.580412">
        <ele>397.345944</ele>
        <time>2022-01-07T09:06:59.078Z</time>
      </trkpt>
      <trkpt lat="47.481269" lon="9.580173">
        <ele>397.359028</ele>
        <time>2022-01-07T09:07:05.543Z</time>
      </trkpt>
      <trkpt lat="47.481900" lon="9.580316">
        <ele>397.340683</ele>
        <time>2022-01-07T09:07:21.104Z</time>
      </trkpt>
      <trkpt lat="47.483133" lon="9.579429">
        <ele>397.178970</ele>
        <time>2022-01-07T09:07:53.966Z</time>
      </trkpt>
      <trkpt lat="47.483823" lon="9.578493">
        <ele>397.183546</ele>
        <time>2022-01-07T09:08:17.249Z</time>
      </trkpt>
      <trkpt lat="47.484425" lon="9.577714">
        <ele>397.197017</ele>
        <time>2022-01-07T09:08:37.097Z</time>
      </trkpt>
      <trkpt lat="47.484813" lon="9.577195">
        <ele>397.179218</ele>
        <time>2022-01-07T09:08:49.967Z</time>
      </trkpt>
      <trkpt lat="47.484969" lon="9.576848">
        <ele>397.164089</ele>
        <time>2022-01-07T09:08:57.025Z</time>
      </trkpt>
      <trkpt lat="47.485017" lon="9.576739">
        <ele>397.159367</ele>
        <time>2022-01-07T09:08:59.117Z</time>
      </trkpt>
      <trkpt lat="47.485637" lon="9.575344">
        <ele>397.098508</ele>
        <time>2022-01-07T09:09:26.757Z</time>
      </trkpt>
      <trkpt lat="47.486155" lon="9.574233">
        <ele>397.046491</ele>
        <time>2022-01-07T09:09:48.939Z</time>
      </trkpt>
      <trkpt lat="47.486706" lon="9.572787">
        <ele>397.000249</ele>
        <time>2022-01-07T09:10:16.603Z</time>
      </trkpt>
      <trkpt lat="47.486987" lon="9.572359">
        <ele>397.000195</ele>
        <time>2022-01-07T09:10:26.571Z</time>
      </trkpt>
      <trkpt lat="47.487475" lon="9.571406">
        <ele>397.000086</ele>
        <time>2022-01-07T09:10:46.530Z</time>
      </trkpt>
      <trkpt lat="47.487877" lon="9.570779">
        <ele>397.029074</ele>
        <time>2022-01-07T09:11:00.967Z</time>
      </trkpt>
      <trkpt lat="47.488217" lon="9.570029">
        <ele>397.086521</ele>
        <time>2022-01-07T09:11:16.077Z</time>
      </trkpt>
      <trkpt lat="47.488417" lon="9.569652">
        <ele>397.117009</ele>
        <time>2022-01-07T09:11:24.227Z</time>
      </trkpt>
      <trkpt lat="47.488628" lon="9.569097">
        <ele>397.157515</ele>
        <time>2022-01-07T09:11:35.214Z</time>
      </trkpt>
      <trkpt lat="47.488993" lon="9.568435">
        <ele>397.301007</ele>
        <time>2022-01-07T09:11:50.131Z</time>
      </trkpt>
      <trkpt lat="47.489316" lon="9.567680">
        <ele>397.477056</ele>
        <time>2022-01-07T09:12:04.332Z</time>
      </trkpt>
      <trkpt lat="47.489850" lon="9.566894">
        <ele>397.695408</ele>
        <time>2022-01-07T09:12:21.999Z</time>
      </trkpt>
      <trkpt lat="47.489232" lon="9.566133">
        <ele>397.829401</ele>
        <time>2022-01-07T09:12:46.346Z</time>
      </trkpt>
      <trkpt lat="47.489106" lon="9.565888">
        <ele>397.864075</ele>
        <time>2022-01-07T09:12:52.572Z</time>
      </trkpt>
      <trkpt lat="47.489093" lon="9.565573">
        <ele>397.899617</ele>
        <time>2022-01-07T09:12:58.893Z</time>
      </trkpt>
      <trkpt lat="47.489225" lon="9.565189">
        <ele>397.948138</ele>
        <time>2022-01-07T09:13:07.473Z</time>
      </trkpt>
      <trkpt lat="47.489662" lon="9.564279">
        <ele>397.969217</ele>
        <time>2022-01-07T09:13:29.463Z</time>
      </trkpt>
      <trkpt lat="47.489717" lon="9.564107">
        <ele>397.962730</ele>
        <time>2022-01-07T09:13:33.153Z</time>
      </trkpt>
      <trkpt lat="47.489935" lon="9.563418">
        <ele>397.936796</ele>
        <time>2022-01-07T09:13:47.965Z</time>
      </trkpt>
      <trkpt lat="47.490240" lon="9.562938">
        <ele>397.914335</ele>
        <time>2022-01-07T09:14:00.923Z</time>
      </trkpt>
      <trkpt lat="47.490781" lon="9.562221">
        <ele>397.906239</ele>
        <time>2022-01-07T09:14:22.125Z</time>
      </trkpt>
      <trkpt lat="47.490525" lon="9.561172">
        <ele>397.911456</ele>
        <time>2022-01-07T09:14:38.882Z</time>
      </trkpt>
      <trkpt lat="47.490068" lon="9.559761">
        <ele>397.939281</ele>
        <time>2022-01-07T09:15:02.690Z</time>
      </trkpt>
      <trkpt lat="47.490085" lon="9.559418">
        <ele>397.950238</ele>
        <time>2022-01-07T09:15:07.944Z</time>
      </trkpt>
      <trkpt lat="47.490184" lon="9.558959">
        <ele>397.965588</ele>
        <time>2022-01-07T09:15:15.264Z</time>
      </trkpt>
      <trkpt lat="47.490235" lon="9.558318">
        <ele>397.986150</ele>
        <time>2022-01-07T09:15:25.005Z</time>
      </trkpt>
      <trkpt lat="47.490182" lon="9.556557">
        <ele>397.868521</ele>
        <time>2022-01-07T09:15:51.459Z</time>
      </trkpt>
      <trkpt lat="47.490179" lon="9.556305">
        <ele>397.843530</ele>
        <time>2022-01-07T09:15:55.144Z</time>
      </trkpt>
      <trkpt lat="47.490194" lon="9.555989">
        <ele>397.812120</ele>
        <time>2022-01-07T09:15:59.684Z</time>
      </trkpt>
      <trkpt lat="47.490265" lon="9.555287">
        <ele>397.741738</ele>
        <time>2022-01-07T09:16:09.819Z</time>
      </trkpt>
      <trkpt lat="47.490264" lon="9.554928">
        <ele>397.673574</ele>
        <time>2022-01-07T09:16:14.941Z</time>
      </trkpt>
      <trkpt lat="47.490192" lon="9.554688">
        <ele>397.619246</ele>
        <time>2022-01-07T09:16:18.702Z</time>
      </trkpt>
      <trkpt lat="47.490162" lon="9.554605">
        <ele>397.599772</ele>
        <time>2022-01-07T09:16:20.055Z</time>
      </trkpt>
      <trkpt lat="47.489998" lon="9.554090">
        <ele>397.481984</ele>
        <time>2022-01-07T09:16:28.176Z</time>
      </trkpt>
      <trkpt lat="47.490006" lon="9.553979">
        <ele>397.458889</ele>
        <time>2022-01-07T09:16:29.753Z</time>
      </trkpt>
      <trkpt lat="47.490100" lon="9.553685">
        <ele>397.391598</ele>
        <time>2022-01-07T09:16:34.391Z</time>
      </trkpt>
      <trkpt lat="47.490240" lon="9.553303">
        <ele>397.301690</ele>
        <time>2022-01-07T09:16:40.586Z</time>
      </trkpt>
      <trkpt lat="47.490417" lon="9.552554">
        <ele>397.174819</ele>
        <time>2022-01-07T09:16:51.869Z</time>
      </trkpt>
      <trkpt lat="47.490426" lon="9.552440">
        <ele>397.169567</ele>
        <time>2022-01-07T09:16:53.485Z</time>
      </trkpt>
      <trkpt lat="47.490410" lon="9.552036">
        <ele>397.151049</ele>
        <time>2022-01-07T09:16:59.308Z</time>
      </trkpt>
      <trkpt lat="47.490326" lon="9.551684">
        <ele>397.133967</ele>
        <time>2022-01-07T09:17:04.791Z</time>
      </trkpt>
      <trkpt lat="47.490027" lon="9.551204">
        <ele>397.104093</ele>
        <time>2022-01-07T09:17:14.676Z</time>
      </trkpt>
      <trkpt lat="47.489961" lon="9.551144">
        <ele>397.098848</ele>
        <time>2022-01-07T09:17:16.395Z</time>
      </trkpt>
      <trkpt lat="47.489410" lon="9.551215">
        <ele>397.064186</ele>
        <time>2022-01-07T09:17:29.042Z</time>
      </trkpt>
      <trkpt lat="47.488857" lon="9.551229">
        <ele>397.073992</ele>
        <time>2022-01-07T09:17:41.483Z</time>
      </trkpt>
      <trkpt lat="47.488439" lon="9.551121">
        <ele>397.081516</ele>
        <time>2022-01-07T09:17:50.965Z</time>
      </trkpt>
      <trkpt lat="47.488383" lon="9.551101">
        <ele>397.082537</ele>
        <time>2022-01-07T09:17:52.266Z</time>
      </trkpt>
      <trkpt lat="47.488299" lon="9.551058">
        <ele>397.084113</ele>
        <time>2022-01-07T09:17:54.264Z</time>
      </trkpt>
      <trkpt lat="47.488073" lon="9.550925">
        <ele>397.088425</ele>
        <time>2022-01-07T09:17:59.701Z</time>
      </trkpt>
      <trkpt lat="47.487162" lon="9.550071">
        <ele>396.961680</ele>
        <time>2022-01-07T09:18:24.492Z</time>
      </trkpt>
      <trkpt lat="47.486678" lon="9.549572">
        <ele>396.845521</ele>
        <time>2022-01-07T09:18:37.563Z</time>
      </trkpt>
      <trkpt lat="47.486473" lon="9.549366">
        <ele>396.796725</ele>
        <time>2022-01-07T09:18:43.009Z</time>
      </trkpt>
      <trkpt lat="47.486502" lon="9.549305">
        <ele>396.786801</ele>
        <time>2022-01-07T09:18:44.082Z</time>
      </trkpt>
      <trkpt lat="47.486642" lon="9.548960">
        <ele>396.729686</ele>
        <time>2022-01-07T09:18:49.780Z</time>
      </trkpt>
      <trkpt lat="47.487083" lon="9.547342">
        <ele>396.394875</ele>
        <time>2022-01-07T09:19:14.679Z</time>
      </trkpt>
      <trkpt lat="47.487159" lon="9.546656">
        <ele>396.261470</ele>
        <time>2022-01-07T09:19:24.617Z</time>
      </trkpt>
      <trkpt lat="47.486717" lon="9.545992">
        <ele>396.164197</ele>
        <time>2022-01-07T09:19:38.142Z</time>
      </trkpt>
      <trkpt lat="47.486511" lon="9.545798">
        <ele>396.133104</ele>
        <time>2022-01-07T09:19:43.446Z</time>
      </trkpt>
      <trkpt lat="47.486515" lon="9.545607">
        <ele>396.116661</ele>
        <time>2022-01-07T09:19:46.242Z</time>
      </trkpt>
      <trkpt lat="47.486478" lon="9.545534">
        <ele>396.108809</ele>
        <time>2022-01-07T09:19:47.586Z</time>
      </trkpt>
      <trkpt lat="47.486033" lon="9.545224">
        <ele>396.046179</ele>
        <time>2022-01-07T09:19:58.403Z</time>
      </trkpt>
      <trkpt lat="47.485852" lon="9.544239">
        <ele>396.024192</ele>
        <time>2022-01-07T09:20:13.717Z</time>
      </trkpt>
      <trkpt lat="47.485796" lon="9.544242">
        <ele>396.027947</ele>
        <time>2022-01-07T09:20:14.967Z</time>
      </trkpt>
      <trkpt lat="47.485735" lon="9.544254">
        <ele>396.032070</ele>
        <time>2022-01-07T09:20:17.233Z</time>
      </trkpt>
      <trkpt lat="47.485646" lon="9.544260">
        <ele>396.038040</ele>
        <time>2022-01-07T09:20:19.205Z</time>
      </trkpt>
      <trkpt lat="47.484953" lon="9.543502">
        <ele>396.095782</ele>
        <time>2022-01-07T09:20:38.423Z</time>
      </trkpt>
      <trkpt lat="47.484427" lon="9.543610">
        <ele>396.186203</ele>
        <time>2022-01-07T09:20:50.614Z</time>
      </trkpt>
      <trkpt lat="47.484202" lon="9.543292">
        <ele>396.329219</ele>
        <time>2022-01-07T09:20:57.968Z</time>
      </trkpt>
      <trkpt lat="47.483902" lon="9.543505">
        <ele>396.482168</ele>
        <time>2022-01-07T09:21:06.072Z</time>
      </trkpt>
      <trkpt lat="47.483858" lon="9.543545">
        <ele>396.505904</ele>
        <time>2022-01-07T09:21:07.333Z</time>
      </trkpt>
      <trkpt lat="47.483893" lon="9.543622">
        <ele>396.534730</ele>
        <time>2022-01-07T09:21:08.832Z</time>
      </trkpt>
      <trkpt lat="47.483843" lon="9.543657">
        <ele>396.560155</ele>
        <time>2022-01-07T09:21:10.165Z</time>
      </trkpt>
      <trkpt lat="47.483128" lon="9.544011">
        <ele>396.906717</ele>
        <time>2022-01-07T09:21:28.578Z</time>
      </trkpt>
      <trkpt lat="47.483061" lon="9.543973">
        <ele>396.939698</ele>
        <time>2022-01-07T09:21:30.366Z</time>
      </trkpt>
      <trkpt lat="47.482832" lon="9.544027">
        <ele>397.126008</ele>
        <time>2022-01-07T09:21:35.970Z</time>
      </trkpt>
      <trkpt lat="47.482765" lon="9.544048">
        <ele>397.183220</ele>
        <time>2022-01-07T09:21:37.674Z</time>
      </trkpt>
      <trkpt lat="47.482599" lon="9.544116">
        <ele>397.327110</ele>
        <time>2022-01-07T09:21:41.937Z</time>
      </trkpt>
      <trkpt lat="47.482532" lon="9.544077">
        <ele>397.387256</ele>
        <time>2022-01-07T09:21:43.655Z</time>
      </trkpt>
      <trkpt lat="47.482189" lon="9.541856">
        <ele>398.918223</ele>
        <time>2022-01-07T09:22:23.466Z</time>
      </trkpt>
      <trkpt lat="47.482070" lon="9.541989">
        <ele>399.180048</ele>
        <time>2022-01-07T09:22:27.510Z</time>
      </trkpt>
      <trkpt lat="47.481076" lon="9.537486">
        <ele>405.508927</ele>
        <time>2022-01-07T09:24:04.789Z</time>
      </trkpt>
      <trkpt lat="47.480988" lon="9.537263">
        <ele>405.950437</ele>
        <time>2022-01-07T09:24:10.723Z</time>
      </trkpt>
      <trkpt lat="47.480953" lon="9.537291">
        <ele>406.051094</ele>
        <time>2022-01-07T09:24:12.246Z</time>
      </trkpt>
      <trkpt lat="47.480720" lon="9.536162">
        <ele>408.069396</ele>
        <time>2022-01-07T09:24:39.647Z</time>
      </trkpt>
      <trkpt lat="47.480711" lon="9.536124">
        <ele>408.138240</ele>
        <time>2022-01-07T09:24:40.479Z</time>
      </trkpt>
      <trkpt lat="47.480539" lon="9.535528">
        <ele>409.246271</ele>
        <time>2022-01-07T09:24:55.025Z</time>
      </trkpt>
      <trkpt lat="47.480233" lon="9.534856">
        <ele>410.467148</ele>
        <time>2022-01-07T09:25:12.703Z</time>
      </trkpt>
      <trkpt lat="47.479989" lon="9.533763">
        <ele>411.913951</ele>
        <time>2022-01-07T09:25:37.139Z</time>
      </trkpt>
      <trkpt lat="47.479965" lon="9.533210">
        <ele>412.610453</ele>
        <time>2022-01-07T09:25:48.570Z</time>
      </trkpt>
      <trkpt lat="47.479959" lon="9.533186">
        <ele>412.642617</ele>
        <time>2022-01-07T09:25:49.083Z</time>
      </trkpt>
      <trkpt lat="47.479929" lon="9.532927">
        <ele>412.972903</ele>
        <time>2022-01-07T09:25:54.105Z</time>
      </trkpt>
      <trkpt lat="47.479802" lon="9.532385">
        <ele>413.498291</ele>
        <time>2022-01-07T09:26:04.562Z</time>
      </trkpt>
      <trkpt lat="47.479670" lon="9.531930">
        <ele>413.760873</ele>
        <time>2022-01-07T09:26:13.455Z</time>
      </trkpt>
      <trkpt lat="47.479690" lon="9.531504">
        <ele>413.987330</ele>
        <time>2022-01-07T09:26:21.086Z</time>
      </trkpt>
      <trkpt lat="47.479452" lon="9.529901">
        <ele>414.801008</ele>
        <time>2022-01-07T09:26:48.468Z</time>
      </trkpt>
      <trkpt lat="47.479396" lon="9.528982">
        <ele>414.985112</ele>
        <time>2022-01-07T09:27:01.716Z</time>
      </trkpt>
      <trkpt lat="47.479399" lon="9.527710">
        <ele>415.238905</ele>
        <time>2022-01-07T09:27:20.508Z</time>
      </trkpt>
      <trkpt lat="47.479250" lon="9.526626">
        <ele>416.391027</ele>
        <time>2022-01-07T09:27:41.565Z</time>
      </trkpt>
      <trkpt lat="47.479250" lon="9.526626">
        <ele>416.391027</ele>
        <time>2022-01-07T09:27:41.565Z</time>
      </trkpt>
      <trkpt lat="47.479283" lon="9.526547">
        <ele>416.516218</ele>
        <time>2022-01-07T09:27:43.270Z</time>
      </trkpt>
      <trkpt lat="47.479164" lon="9.526143">
        <ele>417.110285</ele>
        <time>2022-01-07T09:27:52.705Z</time>
      </trkpt>
      <trkpt lat="47.479071" lon="9.525928">
        <ele>417.454382</ele>
        <time>2022-01-07T09:27:58.236Z</time>
      </trkpt>
      <trkpt lat="47.478882" lon="9.525796">
        <ele>417.871230</ele>
        <time>2022-01-07T09:28:04.979Z</time>
      </trkpt>
      <trkpt lat="47.478846" lon="9.525779">
        <ele>417.946601</ele>
        <time>2022-01-07T09:28:06.130Z</time>
      </trkpt>
      <trkpt lat="47.478758" lon="9.525734">
        <ele>418.132305</ele>
        <time>2022-01-07T09:28:09.369Z</time>
      </trkpt>
      <trkpt lat="47.478663" lon="9.525607">
        <ele>418.387669</ele>
        <time>2022-01-07T09:28:13.616Z</time>
      </trkpt>
      <trkpt lat="47.478449" lon="9.524985">
        <ele>418.905043</ele>
        <time>2022-01-07T09:28:28.797Z</time>
      </trkpt>
      <trkpt lat="47.478251" lon="9.524361">
        <ele>418.946606</ele>
        <time>2022-01-07T09:28:43.766Z</time>
      </trkpt>
      <trkpt lat="47.478123" lon="9.523875">
        <ele>418.978056</ele>
        <time>2022-01-07T09:28:52.854Z</time>
      </trkpt>
      <trkpt lat="47.478069" lon="9.523007">
        <ele>419.030612</ele>
        <time>2022-01-07T09:29:03.157Z</time>
      </trkpt>
      <trkpt lat="47.478089" lon="9.522352">
        <ele>418.305601</ele>
        <time>2022-01-07T09:29:10.539Z</time>
      </trkpt>
      <trkpt lat="47.478099" lon="9.522223">
        <ele>418.068865</ele>
        <time>2022-01-07T09:29:12.004Z</time>
      </trkpt>
      <trkpt lat="47.478230" lon="9.522241">
        <ele>417.713962</ele>
        <time>2022-01-07T09:29:14.064Z</time>
      </trkpt>
      <trkpt lat="47.478662" lon="9.522294">
        <ele>416.544612</ele>
        <time>2022-01-07T09:29:21.132Z</time>
      </trkpt>
      <trkpt lat="47.478882" lon="9.522193">
        <ele>415.923235</ele>
        <time>2022-01-07T09:29:24.870Z</time>
      </trkpt>
      <trkpt lat="47.478971" lon="9.522120">
        <ele>415.648729</ele>
        <time>2022-01-07T09:29:26.520Z</time>
      </trkpt>
      <trkpt lat="47.478891" lon="9.521898">
        <ele>415.190044</ele>
        <time>2022-01-07T09:29:29.422Z</time>
      </trkpt>
      <trkpt lat="47.478772" lon="9.521460">
        <ele>414.329381</ele>
        <time>2022-01-07T09:29:34.734Z</time>
      </trkpt>
      <trkpt lat="47.477963" lon="9.516484">
        <ele>409.311349</ele>
        <time>2022-01-07T09:30:40.772Z</time>
      </trkpt>
      <trkpt lat="47.478046" lon="9.516441">
        <ele>409.171663</ele>
        <time>2022-01-07T09:30:42.179Z</time>
      </trkpt>
      <trkpt lat="47.478035" lon="9.516373">
        <ele>409.096599</ele>
        <time>2022-01-07T09:30:42.877Z</time>
      </trkpt>
      <trkpt lat="47.478345" lon="9.516262">
        <ele>408.175454</ele>
        <time>2022-01-07T09:30:48.036Z</time>
      </trkpt>
      <trkpt lat="47.478855" lon="9.516056">
        <ele>406.510695</ele>
        <time>2022-01-07T09:30:56.358Z</time>
      </trkpt>
      <trkpt lat="47.478911" lon="9.515942">
        <ele>406.210755</ele>
        <time>2022-01-07T09:30:57.934Z</time>
      </trkpt>
      <trkpt lat="47.478918" lon="9.515745">
        <ele>405.790904</ele>
        <time>2022-01-07T09:30:59.978Z</time>
      </trkpt>
      <trkpt lat="47.478858" lon="9.515330">
        <ele>404.887682</ele>
        <time>2022-01-07T09:31:04.580Z</time>
      </trkpt>
      <trkpt lat="47.478865" lon="9.515182">
        <ele>404.571924</ele>
        <time>2022-01-07T09:31:06.099Z</time>
      </trkpt>
      <trkpt lat="47.478794" lon="9.514044">
        <ele>403.118954</ele>
        <time>2022-01-07T09:31:19.262Z</time>
      </trkpt>
      <trkpt lat="47.478598" lon="9.511882">
        <ele>402.288433</ele>
        <time>2022-01-07T09:31:52.584Z</time>
      </trkpt>
      <trkpt lat="47.478589" lon="9.511418">
        <ele>402.362092</ele>
        <time>2022-01-07T09:31:59.981Z</time>
      </trkpt>
      <trkpt lat="47.478517" lon="9.510706">
        <ele>402.476332</ele>
        <time>2022-01-07T09:32:11.358Z</time>
      </trkpt>
      <trkpt lat="47.478462" lon="9.509980">
        <ele>402.592257</ele>
        <time>2022-01-07T09:32:22.743Z</time>
      </trkpt>
      <trkpt lat="47.478395" lon="9.509056">
        <ele>402.731616</ele>
        <time>2022-01-07T09:32:37.333Z</time>
      </trkpt>
      <trkpt lat="47.478388" lon="9.508948">
        <ele>402.745582</ele>
        <time>2022-01-07T09:32:39.043Z</time>
      </trkpt>
      <trkpt lat="47.478385" lon="9.508909">
        <ele>402.750635</ele>
        <time>2022-01-07T09:32:39.660Z</time>
      </trkpt>
      <trkpt lat="47.478310" lon="9.507735">
        <ele>402.902432</ele>
        <time>2022-01-07T09:32:57.744Z</time>
      </trkpt>
      <trkpt lat="47.478296" lon="9.507484">
        <ele>402.934852</ele>
        <time>2022-01-07T09:33:01.543Z</time>
      </trkpt>
      <trkpt lat="47.478267" lon="9.506848">
        <ele>403.016907</ele>
        <time>2022-01-07T09:33:11.424Z</time>
      </trkpt>
      <trkpt lat="47.478271" lon="9.506801">
        <ele>403.023005</ele>
        <time>2022-01-07T09:33:12.172Z</time>
      </trkpt>
      <trkpt lat="47.478311" lon="9.506347">
        <ele>403.121324</ele>
        <time>2022-01-07T09:33:19.468Z</time>
      </trkpt>
      <trkpt lat="47.478364" lon="9.505900">
        <ele>403.233764</ele>
        <time>2022-01-07T09:33:26.816Z</time>
      </trkpt>
      <trkpt lat="47.478351" lon="9.505540">
        <ele>403.323085</ele>
        <time>2022-01-07T09:33:32.829Z</time>
      </trkpt>
      <trkpt lat="47.478347" lon="9.505432">
        <ele>403.349884</ele>
        <time>2022-01-07T09:33:34.615Z</time>
      </trkpt>
      <trkpt lat="47.478303" lon="9.504847">
        <ele>403.495719</ele>
        <time>2022-01-07T09:33:44.203Z</time>
      </trkpt>
      <trkpt lat="47.478272" lon="9.504431">
        <ele>403.599412</ele>
        <time>2022-01-07T09:33:50.935Z</time>
      </trkpt>
      <trkpt lat="47.478234" lon="9.504106">
        <ele>403.681131</ele>
        <time>2022-01-07T09:33:56.109Z</time>
      </trkpt>
      <trkpt lat="47.478225" lon="9.504073">
        <ele>403.689947</ele>
        <time>2022-01-07T09:33:56.675Z</time>
      </trkpt>
      <trkpt lat="47.478106" lon="9.503633">
        <ele>403.623095</ele>
        <time>2022-01-07T09:34:04.062Z</time>
      </trkpt>
      <trkpt lat="47.478051" lon="9.503432">
        <ele>403.585712</ele>
        <time>2022-01-07T09:34:07.390Z</time>
      </trkpt>
      <trkpt lat="47.478065" lon="9.503140">
        <ele>403.535248</ele>
        <time>2022-01-07T09:34:11.866Z</time>
      </trkpt>
      <trkpt lat="47.478063" lon="9.502735">
        <ele>403.465428</ele>
        <time>2022-01-07T09:34:17.927Z</time>
      </trkpt>
      <trkpt lat="47.478040" lon="9.502436">
        <ele>403.413551</ele>
        <time>2022-01-07T09:34:22.450Z</time>
      </trkpt>
      <trkpt lat="47.478025" lon="9.502249">
        <ele>403.381088</ele>
        <time>2022-01-07T09:34:25.082Z</time>
      </trkpt>
      <trkpt lat="47.477963" lon="9.501394">
        <ele>403.207855</ele>
        <time>2022-01-07T09:34:36.907Z</time>
      </trkpt>
      <trkpt lat="47.478005" lon="9.501286">
        <ele>403.110625</ele>
        <time>2022-01-07T09:34:38.420Z</time>
      </trkpt>
      <trkpt lat="47.477921" lon="9.500409">
        <ele>402.419442</ele>
        <time>2022-01-07T09:34:49.433Z</time>
      </trkpt>
      <trkpt lat="47.477876" lon="9.499769">
        <ele>401.917338</ele>
        <time>2022-01-07T09:34:57.607Z</time>
      </trkpt>
      <trkpt lat="47.477845" lon="9.499367">
        <ele>401.601612</ele>
        <time>2022-01-07T09:35:02.837Z</time>
      </trkpt>
      <trkpt lat="47.477806" lon="9.498805">
        <ele>401.162243</ele>
        <time>2022-01-07T09:35:10.068Z</time>
      </trkpt>
      <trkpt lat="47.477733" lon="9.498586">
        <ele>401.081818</ele>
        <time>2022-01-07T09:35:15.715Z</time>
      </trkpt>
      <trkpt lat="47.477754" lon="9.498254">
        <ele>400.971991</ele>
        <time>2022-01-07T09:35:23.099Z</time>
      </trkpt>
      <trkpt lat="47.477830" lon="9.497963">
        <ele>400.869240</ele>
        <time>2022-01-07T09:35:30.220Z</time>
      </trkpt>
      <trkpt lat="47.477982" lon="9.497415">
        <ele>400.674142</ele>
        <time>2022-01-07T09:35:43.899Z</time>
      </trkpt>
      <trkpt lat="47.478219" lon="9.496576">
        <ele>400.374645</ele>
        <time>2022-01-07T09:36:06.357Z</time>
      </trkpt>
      <trkpt lat="47.478302" lon="9.496235">
        <ele>400.347902</ele>
        <time>2022-01-07T09:36:15.863Z</time>
      </trkpt>
      <trkpt lat="47.478510" lon="9.495032">
        <ele>401.139577</ele>
        <time>2022-01-07T09:36:50.624Z</time>
      </trkpt>
      <trkpt lat="47.478524" lon="9.494982">
        <ele>401.174081</ele>
        <time>2022-01-07T09:36:52.114Z</time>
      </trkpt>
      <trkpt lat="47.478569" lon="9.494749">
        <ele>401.328577</ele>
        <time>2022-01-07T09:36:56.214Z</time>
      </trkpt>
      <trkpt lat="47.478645" lon="9.493967">
        <ele>401.832268</ele>
        <time>2022-01-07T09:37:10.635Z</time>
      </trkpt>
      <trkpt lat="47.478737" lon="9.493226">
        <ele>402.145321</ele>
        <time>2022-01-07T09:37:24.251Z</time>
      </trkpt>
      <trkpt lat="47.478768" lon="9.493001">
        <ele>402.217307</ele>
        <time>2022-01-07T09:37:28.377Z</time>
      </trkpt>
      <trkpt lat="47.478796" lon="9.492792">
        <ele>402.284101</ele>
        <time>2022-01-07T09:37:32.106Z</time>
      </trkpt>
      <trkpt lat="47.479042" lon="9.492098">
        <ele>402.529769</ele>
        <time>2022-01-07T09:37:45.269Z</time>
      </trkpt>
      <trkpt lat="47.479136" lon="9.491842">
        <ele>402.621102</ele>
        <time>2022-01-07T09:37:49.780Z</time>
      </trkpt>
      <trkpt lat="47.479197" lon="9.491647">
        <ele>402.688462</ele>
        <time>2022-01-07T09:37:59.874Z</time>
      </trkpt>
      <trkpt lat="47.479285" lon="9.491381">
        <ele>402.781304</ele>
        <time>2022-01-07T09:38:13.751Z</time>
      </trkpt>
      <trkpt lat="47.479435" lon="9.490602">
        <ele>402.620137</ele>
        <time>2022-01-07T09:38:24.682Z</time>
      </trkpt>
      <trkpt lat="47.479574" lon="9.488955">
        <ele>402.147219</ele>
        <time>2022-01-07T09:38:48.087Z</time>
      </trkpt>
      <trkpt lat="47.479671" lon="9.487443">
        <ele>401.768170</ele>
        <time>2022-01-07T09:39:09.763Z</time>
      </trkpt>
      <trkpt lat="47.479826" lon="9.486226">
        <ele>401.470227</ele>
        <time>2022-01-07T09:39:27.429Z</time>
      </trkpt>
      <trkpt lat="47.479857" lon="9.485985">
        <ele>401.404437</ele>
        <time>2022-01-07T09:39:30.807Z</time>
      </trkpt>
      <trkpt lat="47.480027" lon="9.485078">
        <ele>400.987272</ele>
        <time>2022-01-07T09:39:43.708Z</time>
      </trkpt>
      <trkpt lat="47.480178" lon="9.484410">
        <ele>400.675086</ele>
        <time>2022-01-07T09:39:53.223Z</time>
      </trkpt>
      <trkpt lat="47.480632" lon="9.482855">
        <ele>399.926437</ele>
        <time>2022-01-07T09:40:16.092Z</time>
      </trkpt>
      <trkpt lat="47.480808" lon="9.482525">
        <ele>399.741364</ele>
        <time>2022-01-07T09:40:21.752Z</time>
      </trkpt>
      <trkpt lat="47.480874" lon="9.482138">
        <ele>399.565645</ele>
        <time>2022-01-07T09:40:27.233Z</time>
      </trkpt>
      <trkpt lat="47.481128" lon="9.481490">
        <ele>399.235850</ele>
        <time>2022-01-07T09:40:37.379Z</time>
      </trkpt>
      <trkpt lat="47.481749" lon="9.480309">
        <ele>398.685876</ele>
        <time>2022-01-07T09:40:57.826Z</time>
      </trkpt>
      <trkpt lat="47.482297" lon="9.479505">
        <ele>398.294565</ele>
        <time>2022-01-07T09:41:13.766Z</time>
      </trkpt>
      <trkpt lat="47.482937" lon="9.478781">
        <ele>397.950537</ele>
        <time>2022-01-07T09:41:30.780Z</time>
      </trkpt>
      <trkpt lat="47.483773" lon="9.477960">
        <ele>397.563275</ele>
        <time>2022-01-07T09:41:51.634Z</time>
      </trkpt>
      <trkpt lat="47.484805" lon="9.476969">
        <ele>397.435142</ele>
        <time>2022-01-07T09:42:17.054Z</time>
      </trkpt>
      <trkpt lat="47.485001" lon="9.476936">
        <ele>397.429706</ele>
        <time>2022-01-07T09:42:21.354Z</time>
      </trkpt>
      <trkpt lat="47.485009" lon="9.476899">
        <ele>397.428983</ele>
        <time>2022-01-07T09:42:21.995Z</time>
      </trkpt>
      <trkpt lat="47.485022" lon="9.476844">
        <ele>397.427898</ele>
        <time>2022-01-07T09:42:22.970Z</time>
      </trkpt>
      <trkpt lat="47.485260" lon="9.476828">
        <ele>397.421333</ele>
        <time>2022-01-07T09:42:28.715Z</time>
      </trkpt>
      <trkpt lat="47.485374" lon="9.476819">
        <ele>397.418188</ele>
        <time>2022-01-07T09:42:31.468Z</time>
      </trkpt>
      <trkpt lat="47.485583" lon="9.476770">
        <ele>397.412357</ele>
        <time>2022-01-07T09:42:36.916Z</time>
      </trkpt>
      <trkpt lat="47.485848" lon="9.476607">
        <ele>397.610982</ele>
        <time>2022-01-07T09:42:44.147Z</time>
      </trkpt>
      <trkpt lat="47.486793" lon="9.475680">
        <ele>398.408394</ele>
        <time>2022-01-07T09:43:12.499Z</time>
      </trkpt>
      <trkpt lat="47.486821" lon="9.475742">
        <ele>398.443836</ele>
        <time>2022-01-07T09:43:13.925Z</time>
      </trkpt>
      <trkpt lat="47.487655" lon="9.474919">
        <ele>399.107046</ele>
        <time>2022-01-07T09:43:39.182Z</time>
      </trkpt>
      <trkpt lat="47.488146" lon="9.474444">
        <ele>399.483036</ele>
        <time>2022-01-07T09:43:53.097Z</time>
      </trkpt>
      <trkpt lat="47.488186" lon="9.474400">
        <ele>399.514981</ele>
        <time>2022-01-07T09:43:54.259Z</time>
      </trkpt>
      <trkpt lat="47.488310" lon="9.474290">
        <ele>399.607645</ele>
        <time>2022-01-07T09:43:57.666Z</time>
      </trkpt>
      <trkpt lat="47.488342" lon="9.474260">
        <ele>399.631925</ele>
        <time>2022-01-07T09:43:58.574Z</time>
      </trkpt>
      <trkpt lat="47.488543" lon="9.474066">
        <ele>399.785737</ele>
        <time>2022-01-07T09:44:04.403Z</time>
      </trkpt>
      <trkpt lat="47.489931" lon="9.472868">
        <ele>401.062166</ele>
        <time>2022-01-07T09:44:47.972Z</time>
      </trkpt>
      <trkpt lat="47.490297" lon="9.472553">
        <ele>401.180616</ele>
        <time>2022-01-07T09:44:57.006Z</time>
      </trkpt>
      <trkpt lat="47.490530" lon="9.472356">
        <ele>401.030616</ele>
        <time>2022-01-07T09:45:02.882Z</time>
      </trkpt>
      <trkpt lat="47.490738" lon="9.472196">
        <ele>400.899580</ele>
        <time>2022-01-07T09:45:07.459Z</time>
      </trkpt>
      <trkpt lat="47.490793" lon="9.472154">
        <ele>400.864985</ele>
        <time>2022-01-07T09:45:08.733Z</time>
      </trkpt>
      <trkpt lat="47.490766" lon="9.472085">
        <ele>400.834868</ele>
        <time>2022-01-07T09:45:10.229Z</time>
      </trkpt>
      <trkpt lat="47.491337" lon="9.471601">
        <ele>400.467044</ele>
        <time>2022-01-07T09:45:23.683Z</time>
      </trkpt>
      <trkpt lat="47.492485" lon="9.470596">
        <ele>399.552386</ele>
        <time>2022-01-07T09:45:50.438Z</time>
      </trkpt>
      <trkpt lat="47.492790" lon="9.470269">
        <ele>399.276485</ele>
        <time>2022-01-07T09:45:58.669Z</time>
      </trkpt>
      <trkpt lat="47.492851" lon="9.470190">
        <ele>399.217104</ele>
        <time>2022-01-07T09:46:00.568Z</time>
      </trkpt>
      <trkpt lat="47.493616" lon="9.469190">
        <ele>399.002596</ele>
        <time>2022-01-07T09:46:22.674Z</time>
      </trkpt>
      <trkpt lat="47.493735" lon="9.469032">
        <ele>399.015870</ele>
        <time>2022-01-07T09:46:26.412Z</time>
      </trkpt>
      <trkpt lat="47.493995" lon="9.468685">
        <ele>399.044940</ele>
        <time>2022-01-07T09:46:34.614Z</time>
      </trkpt>
      <trkpt lat="47.494273" lon="9.468336">
        <ele>399.075208</ele>
        <time>2022-01-07T09:46:43.488Z</time>
      </trkpt>
      <trkpt lat="47.494332" lon="9.468260">
        <ele>399.081702</ele>
        <time>2022-01-07T09:46:45.447Z</time>
      </trkpt>
      <trkpt lat="47.494412" lon="9.468147">
        <ele>399.090884</ele>
        <time>2022-01-07T09:46:48.321Z</time>
      </trkpt>
      <trkpt lat="47.494520" lon="9.467973">
        <ele>399.171971</ele>
        <time>2022-01-07T09:46:52.567Z</time>
      </trkpt>
      <trkpt lat="47.494691" lon="9.467642">
        <ele>399.439970</ele>
        <time>2022-01-07T09:47:00.155Z</time>
      </trkpt>
      <trkpt lat="47.494906" lon="9.466899">
        <ele>399.959843</ele>
        <time>2022-01-07T09:47:15.186Z</time>
      </trkpt>
      <trkpt lat="47.494925" lon="9.466823">
        <ele>400.011964</ele>
        <time>2022-01-07T09:47:16.731Z</time>
      </trkpt>
      <trkpt lat="47.495146" lon="9.465959">
        <ele>400.606167</ele>
        <time>2022-01-07T09:47:33.847Z</time>
      </trkpt>
      <trkpt lat="47.495296" lon="9.465367">
        <ele>400.842720</ele>
        <time>2022-01-07T09:47:45.724Z</time>
      </trkpt>
      <trkpt lat="47.495338" lon="9.465203">
        <ele>400.860978</ele>
        <time>2022-01-07T09:47:48.990Z</time>
      </trkpt>
      <trkpt lat="47.495688" lon="9.463672">
        <ele>401.029235</ele>
        <time>2022-01-07T09:48:14.003Z</time>
      </trkpt>
      <trkpt lat="47.495713" lon="9.463543">
        <ele>401.043206</ele>
        <time>2022-01-07T09:48:15.848Z</time>
      </trkpt>
      <trkpt lat="47.495721" lon="9.463496">
        <ele>401.048251</ele>
        <time>2022-01-07T09:48:16.508Z</time>
      </trkpt>
      <trkpt lat="47.495818" lon="9.462911">
        <ele>401.075611</ele>
        <time>2022-01-07T09:48:24.443Z</time>
      </trkpt>
      <trkpt lat="47.495849" lon="9.462682">
        <ele>401.064052</ele>
        <time>2022-01-07T09:48:27.420Z</time>
      </trkpt>
      <trkpt lat="47.495945" lon="9.462195">
        <ele>401.038943</ele>
        <time>2022-01-07T09:48:34.288Z</time>
      </trkpt>
      <trkpt lat="47.496253" lon="9.461257">
        <ele>400.987325</ele>
        <time>2022-01-07T09:48:49.893Z</time>
      </trkpt>
      <trkpt lat="47.496283" lon="9.461147">
        <ele>400.981454</ele>
        <time>2022-01-07T09:48:51.820Z</time>
      </trkpt>
      <trkpt lat="47.496314" lon="9.461024">
        <ele>400.974956</ele>
        <time>2022-01-07T09:48:54.033Z</time>
      </trkpt>
      <trkpt lat="47.496414" lon="9.460573">
        <ele>400.979151</ele>
        <time>2022-01-07T09:49:01.945Z</time>
      </trkpt>
      <trkpt lat="47.496661" lon="9.459458">
        <ele>401.346723</ele>
        <time>2022-01-07T09:49:22.375Z</time>
      </trkpt>
      <trkpt lat="47.496676" lon="9.459392">
        <ele>401.368536</ele>
        <time>2022-01-07T09:49:23.608Z</time>
      </trkpt>
      <trkpt lat="47.496825" lon="9.458747">
        <ele>401.582067</ele>
        <time>2022-01-07T09:49:34.770Z</time>
      </trkpt>
      <trkpt lat="47.496886" lon="9.458504">
        <ele>401.663272</ele>
        <time>2022-01-07T09:49:38.787Z</time>
      </trkpt>
      <trkpt lat="47.496941" lon="9.458301">
        <ele>401.731784</ele>
        <time>2022-01-07T09:49:42.326Z</time>
      </trkpt>
      <trkpt lat="47.497027" lon="9.457971">
        <ele>401.714984</ele>
        <time>2022-01-07T09:49:47.608Z</time>
      </trkpt>
      <trkpt lat="47.497044" lon="9.457904">
        <ele>401.683846</ele>
        <time>2022-01-07T09:49:48.729Z</time>
      </trkpt>
      <trkpt lat="47.497150" lon="9.457505">
        <ele>401.497310</ele>
        <time>2022-01-07T09:49:54.818Z</time>
      </trkpt>
      <trkpt lat="47.497244" lon="9.457113">
        <ele>401.316335</ele>
        <time>2022-01-07T09:50:00.521Z</time>
      </trkpt>
      <trkpt lat="47.497317" lon="9.456772">
        <ele>401.160704</ele>
        <time>2022-01-07T09:50:05.341Z</time>
      </trkpt>
      <trkpt lat="47.497325" lon="9.456737">
        <ele>401.144628</ele>
        <time>2022-01-07T09:50:05.829Z</time>
      </trkpt>
      <trkpt lat="47.497357" lon="9.456554">
        <ele>401.062385</ele>
        <time>2022-01-07T09:50:08.233Z</time>
      </trkpt>
      <trkpt lat="47.497446" lon="9.455850">
        <ele>400.750774</ele>
        <time>2022-01-07T09:50:17.562Z</time>
      </trkpt>
      <trkpt lat="47.497494" lon="9.454840">
        <ele>400.296409</ele>
        <time>2022-01-07T09:50:30.718Z</time>
      </trkpt>
      <trkpt lat="47.497563" lon="9.453760">
        <ele>399.804043</ele>
        <time>2022-01-07T09:50:45.441Z</time>
      </trkpt>
      <trkpt lat="47.497697" lon="9.452970">
        <ele>399.434359</ele>
        <time>2022-01-07T09:50:57.015Z</time>
      </trkpt>
      <trkpt lat="47.497748" lon="9.452767">
        <ele>399.352871</ele>
        <time>2022-01-07T09:51:00.069Z</time>
      </trkpt>
      <trkpt lat="47.497777" lon="9.452677">
        <ele>399.316406</ele>
        <time>2022-01-07T09:51:01.534Z</time>
      </trkpt>
      <trkpt lat="47.497912" lon="9.452255">
        <ele>399.145652</ele>
        <time>2022-01-07T09:51:08.219Z</time>
      </trkpt>
      <trkpt lat="47.498297" lon="9.451174">
        <ele>398.698760</ele>
        <time>2022-01-07T09:51:24.427Z</time>
      </trkpt>
      <trkpt lat="47.499392" lon="9.449501">
        <ele>398.413636</ele>
        <time>2022-01-07T09:51:57.229Z</time>
      </trkpt>
      <trkpt lat="47.499453" lon="9.449446">
        <ele>398.411364</ele>
        <time>2022-01-07T09:51:59.054Z</time>
      </trkpt>
      <trkpt lat="47.499778" lon="9.449154">
        <ele>398.399270</ele>
        <time>2022-01-07T09:52:08.532Z</time>
      </trkpt>
      <trkpt lat="47.500347" lon="9.448782">
        <ele>398.488687</ele>
        <time>2022-01-07T09:52:23.600Z</time>
      </trkpt>
      <trkpt lat="47.500479" lon="9.448647">
        <ele>398.528818</ele>
        <time>2022-01-07T09:52:27.614Z</time>
      </trkpt>
      <trkpt lat="47.501024" lon="9.447967">
        <ele>398.707104</ele>
        <time>2022-01-07T09:52:43.698Z</time>
      </trkpt>
      <trkpt lat="47.501751" lon="9.447052">
        <ele>398.846258</ele>
        <time>2022-01-07T09:53:05.519Z</time>
      </trkpt>
      <trkpt lat="47.501810" lon="9.446976">
        <ele>398.847117</ele>
        <time>2022-01-07T09:53:07.177Z</time>
      </trkpt>
      <trkpt lat="47.501915" lon="9.446844">
        <ele>398.848629</ele>
        <time>2022-01-07T09:53:10.255Z</time>
      </trkpt>
      <trkpt lat="47.501980" lon="9.446763">
        <ele>398.849561</ele>
        <time>2022-01-07T09:53:12.062Z</time>
      </trkpt>
      <trkpt lat="47.502075" lon="9.446643">
        <ele>398.850932</ele>
        <time>2022-01-07T09:53:14.652Z</time>
      </trkpt>
      <trkpt lat="47.502229" lon="9.446449">
        <ele>398.853152</ele>
        <time>2022-01-07T09:53:18.964Z</time>
      </trkpt>
      <trkpt lat="47.502278" lon="9.446387">
        <ele>398.853859</ele>
        <time>2022-01-07T09:53:20.288Z</time>
      </trkpt>
      <trkpt lat="47.502479" lon="9.446098">
        <ele>398.856935</ele>
        <time>2022-01-07T09:53:26.199Z</time>
      </trkpt>
      <trkpt lat="47.502568" lon="9.445942">
        <ele>398.858449</ele>
        <time>2022-01-07T09:53:29.138Z</time>
      </trkpt>
      <trkpt lat="47.502769" lon="9.445590">
        <ele>398.889587</ele>
        <time>2022-01-07T09:53:36.319Z</time>
      </trkpt>
      <trkpt lat="47.503057" lon="9.444809">
        <ele>399.317215</ele>
        <time>2022-01-07T09:53:51.713Z</time>
      </trkpt>
      <trkpt lat="47.503192" lon="9.444016">
        <ele>399.710245</ele>
        <time>2022-01-07T09:54:06.331Z</time>
      </trkpt>
      <trkpt lat="47.503217" lon="9.443321">
        <ele>400.044734</ele>
        <time>2022-01-07T09:54:17.863Z</time>
      </trkpt>
      <trkpt lat="47.503218" lon="9.443177">
        <ele>400.113943</ele>
        <time>2022-01-07T09:54:20.436Z</time>
      </trkpt>
      <trkpt lat="47.503214" lon="9.442113">
        <ele>400.324733</ele>
        <time>2022-01-07T09:54:38.489Z</time>
      </trkpt>
      <trkpt lat="47.503215" lon="9.442017">
        <ele>400.342237</ele>
        <time>2022-01-07T09:54:40.073Z</time>
      </trkpt>
      <trkpt lat="47.503216" lon="9.441889">
        <ele>400.365574</ele>
        <time>2022-01-07T09:54:41.982Z</time>
      </trkpt>
      <trkpt lat="47.503217" lon="9.441233">
        <ele>400.485172</ele>
        <time>2022-01-07T09:54:51.920Z</time>
      </trkpt>
      <trkpt lat="47.503217" lon="9.440952">
        <ele>400.536402</ele>
        <time>2022-01-07T09:54:56.201Z</time>
      </trkpt>
      <trkpt lat="47.503218" lon="9.440430">
        <ele>400.620455</ele>
        <time>2022-01-07T09:55:03.784Z</time>
      </trkpt>
      <trkpt lat="47.503217" lon="9.440213">
        <ele>400.574517</ele>
        <time>2022-01-07T09:55:06.857Z</time>
      </trkpt>
      <trkpt lat="47.503217" lon="9.439815">
        <ele>400.490265</ele>
        <time>2022-01-07T09:55:12.728Z</time>
      </trkpt>
      <trkpt lat="47.503218" lon="9.439772">
        <ele>400.481157</ele>
        <time>2022-01-07T09:55:13.342Z</time>
      </trkpt>
      <trkpt lat="47.503219" lon="9.439490">
        <ele>400.421459</ele>
        <time>2022-01-07T09:55:17.587Z</time>
      </trkpt>
      <trkpt lat="47.503221" lon="9.439215">
        <ele>400.363241</ele>
        <time>2022-01-07T09:55:21.546Z</time>
      </trkpt>
      <trkpt lat="47.503224" lon="9.438739">
        <ele>400.262472</ele>
        <time>2022-01-07T09:55:28.401Z</time>
      </trkpt>
      <trkpt lat="47.503224" lon="9.438676">
        <ele>400.249136</ele>
        <time>2022-01-07T09:55:29.291Z</time>
      </trkpt>
      <trkpt lat="47.503263" lon="9.438337">
        <ele>400.176340</ele>
        <time>2022-01-07T09:55:34.074Z</time>
      </trkpt>
      <trkpt lat="47.503366" lon="9.438032">
        <ele>400.104156</ele>
        <time>2022-01-07T09:55:38.581Z</time>
      </trkpt>
      <trkpt lat="47.503659" lon="9.437641">
        <ele>400.024287</ele>
        <time>2022-01-07T09:55:46.462Z</time>
      </trkpt>
      <trkpt lat="47.503692" lon="9.437701">
        <ele>400.016618</ele>
        <time>2022-01-07T09:55:47.601Z</time>
      </trkpt>
      <trkpt lat="47.503701" lon="9.437726">
        <ele>400.013811</ele>
        <time>2022-01-07T09:55:48.025Z</time>
      </trkpt>
      <trkpt lat="47.503859" lon="9.438117">
        <ele>399.968653</ele>
        <time>2022-01-07T09:55:55.100Z</time>
      </trkpt>
      <trkpt lat="47.503988" lon="9.438437">
        <ele>399.931718</ele>
        <time>2022-01-07T09:56:01.067Z</time>
      </trkpt>
      <trkpt lat="47.504062" lon="9.438336">
        <ele>399.916950</ele>
        <time>2022-01-07T09:56:03.568Z</time>
      </trkpt>
      <trkpt lat="47.504494" lon="9.437743">
        <ele>399.830511</ele>
        <time>2022-01-07T09:56:16.893Z</time>
      </trkpt>
      <trkpt lat="47.504709" lon="9.437457">
        <ele>399.756836</ele>
        <time>2022-01-07T09:56:23.104Z</time>
      </trkpt>
      <trkpt lat="47.504894" lon="9.437406">
        <ele>399.649355</ele>
        <time>2022-01-07T09:56:27.144Z</time>
      </trkpt>
      <trkpt lat="47.505298" lon="9.437409">
        <ele>399.418602</ele>
        <time>2022-01-07T09:56:35.413Z</time>
      </trkpt>
      <trkpt lat="47.505918" lon="9.436342">
        <ele>398.875572</ele>
        <time>2022-01-07T09:56:54.442Z</time>
      </trkpt>
      <trkpt lat="47.506150" lon="9.436029">
        <ele>398.697458</ele>
        <time>2022-01-07T09:57:00.573Z</time>
      </trkpt>
      <trkpt lat="47.506385" lon="9.435814">
        <ele>398.542121</ele>
        <time>2022-01-07T09:57:05.849Z</time>
      </trkpt>
      <trkpt lat="47.506635" lon="9.435604">
        <ele>398.380495</ele>
        <time>2022-01-07T09:57:11.493Z</time>
      </trkpt>
      <trkpt lat="47.506723" lon="9.435547">
        <ele>398.326484</ele>
        <time>2022-01-07T09:57:14.824Z</time>
      </trkpt>
      <trkpt lat="47.507649" lon="9.434946">
        <ele>397.761067</ele>
        <time>2022-01-07T09:57:50.700Z</time>
      </trkpt>
      <trkpt lat="47.507931" lon="9.434844">
        <ele>397.821009</ele>
        <time>2022-01-07T09:58:01.552Z</time>
      </trkpt>
      <trkpt lat="47.508968" lon="9.434520">
        <ele>398.039852</ele>
        <time>2022-01-07T09:58:42.843Z</time>
      </trkpt>
      <trkpt lat="47.509702" lon="9.434472">
        <ele>397.901492</ele>
        <time>2022-01-07T09:59:10.618Z</time>
      </trkpt>
      <trkpt lat="47.510047" lon="9.434450">
        <ele>397.627692</ele>
        <time>2022-01-07T09:59:23.002Z</time>
      </trkpt>
      <trkpt lat="47.510726" lon="9.434398">
        <ele>397.088602</ele>
        <time>2022-01-07T09:59:45.518Z</time>
      </trkpt>
      <trkpt lat="47.510759" lon="9.434395">
        <ele>397.062387</ele>
        <time>2022-01-07T09:59:46.585Z</time>
      </trkpt>
      <trkpt lat="47.511031" lon="9.434428">
        <ele>396.845999</ele>
        <time>2022-01-07T09:59:55.480Z</time>
      </trkpt>
      <trkpt lat="47.511199" lon="9.434474">
        <ele>396.710534</ele>
        <time>2022-01-07T10:00:01.187Z</time>
      </trkpt>
      <trkpt lat="47.511612" lon="9.434717">
        <ele>396.304108</ele>
        <time>2022-01-07T10:00:15.982Z</time>
      </trkpt>
      <trkpt lat="47.511816" lon="9.434907">
        <ele>396.083279</ele>
        <time>2022-01-07T10:00:24.155Z</time>
      </trkpt>
      <trkpt lat="47.512144" lon="9.435327">
        <ele>395.685930</ele>
        <time>2022-01-07T10:00:38.882Z</time>
      </trkpt>
      <trkpt lat="47.512351" lon="9.435388">
        <ele>395.492541</ele>
        <time>2022-01-07T10:00:46.182Z</time>
      </trkpt>
      <trkpt lat="47.512441" lon="9.435415">
        <ele>395.408401</ele>
        <time>2022-01-07T10:00:49.317Z</time>
      </trkpt>
      <trkpt lat="47.512597" lon="9.435912">
        <ele>395.069229</ele>
        <time>2022-01-07T10:00:56.496Z</time>
      </trkpt>
      <trkpt lat="47.512966" lon="9.436498">
        <ele>395.131155</ele>
        <time>2022-01-07T10:01:07.621Z</time>
      </trkpt>
      <trkpt lat="47.513982" lon="9.437779">
        <ele>395.407958</ele>
        <time>2022-01-07T10:01:39.714Z</time>
      </trkpt>
      <trkpt lat="47.514103" lon="9.437895">
        <ele>395.631843</ele>
        <time>2022-01-07T10:01:43.218Z</time>
      </trkpt>
      <trkpt lat="47.514515" lon="9.438260">
        <ele>396.377539</ele>
        <time>2022-01-07T10:01:55.338Z</time>
      </trkpt>
      <trkpt lat="47.514933" lon="9.438555">
        <ele>397.096730</ele>
        <time>2022-01-07T10:02:09.122Z</time>
      </trkpt>
      <trkpt lat="47.515476" lon="9.438959">
        <ele>398.040573</ele>
        <time>2022-01-07T10:02:28.311Z</time>
      </trkpt>
      <trkpt lat="47.515534" lon="9.439012">
        <ele>398.148718</ele>
        <time>2022-01-07T10:02:30.509Z</time>
      </trkpt>
      <trkpt lat="47.515949" lon="9.439279">
        <ele>398.887607</ele>
        <time>2022-01-07T10:02:44.885Z</time>
      </trkpt>
      <trkpt lat="47.516185" lon="9.439233">
        <ele>399.276310</ele>
        <time>2022-01-07T10:02:52.306Z</time>
      </trkpt>
      <trkpt lat="47.516275" lon="9.439186">
        <ele>399.432149</ele>
        <time>2022-01-07T10:02:55.126Z</time>
      </trkpt>
      <trkpt lat="47.516980" lon="9.438811">
        <ele>400.655415</ele>
        <time>2022-01-07T10:03:16.128Z</time>
      </trkpt>
      <trkpt lat="47.517213" lon="9.438574">
        <ele>401.025007</ele>
        <time>2022-01-07T10:03:23.594Z</time>
      </trkpt>
      <trkpt lat="47.517522" lon="9.438193">
        <ele>400.907161</ele>
        <time>2022-01-07T10:03:33.452Z</time>
      </trkpt>
      <trkpt lat="47.517774" lon="9.437875">
        <ele>400.810125</ele>
        <time>2022-01-07T10:03:40.350Z</time>
      </trkpt>
      <trkpt lat="47.517972" lon="9.437626">
        <ele>400.733993</ele>
        <time>2022-01-07T10:03:45.544Z</time>
      </trkpt>
      <trkpt lat="47.518045" lon="9.437474">
        <ele>400.697077</ele>
        <time>2022-01-07T10:03:48.095Z</time>
      </trkpt>
      <trkpt lat="47.518017" lon="9.437231">
        <ele>400.648285</ele>
        <time>2022-01-07T10:03:51.352Z</time>
      </trkpt>
      <trkpt lat="47.517992" lon="9.437150">
        <ele>400.630658</ele>
        <time>2022-01-07T10:03:52.501Z</time>
      </trkpt>
      <trkpt lat="47.517870" lon="9.436953">
        <ele>400.577755</ele>
        <time>2022-01-07T10:03:56.025Z</time>
      </trkpt>
      <trkpt lat="47.518169" lon="9.436378">
        <ele>400.432145</ele>
        <time>2022-01-07T10:04:05.319Z</time>
      </trkpt>
      <trkpt lat="47.518293" lon="9.435999">
        <ele>400.346673</ele>
        <time>2022-01-07T10:04:10.856Z</time>
      </trkpt>
      <trkpt lat="47.518299" lon="9.435734">
        <ele>400.292859</ele>
        <time>2022-01-07T10:04:14.361Z</time>
      </trkpt>
      <trkpt lat="47.518268" lon="9.435599">
        <ele>400.263920</ele>
        <time>2022-01-07T10:04:16.412Z</time>
      </trkpt>
      <trkpt lat="47.518411" lon="9.434961">
        <ele>400.127489</ele>
        <time>2022-01-07T10:04:26.731Z</time>
      </trkpt>
      <trkpt lat="47.518566" lon="9.434369">
        <ele>399.998626</ele>
        <time>2022-01-07T10:04:37.352Z</time>
      </trkpt>
      <trkpt lat="47.518619" lon="9.434245">
        <ele>399.972159</ele>
        <time>2022-01-07T10:04:39.256Z</time>
      </trkpt>
      <trkpt lat="47.518823" lon="9.433766">
        <ele>400.008878</ele>
        <time>2022-01-07T10:04:47.859Z</time>
      </trkpt>
      <trkpt lat="47.519161" lon="9.432973">
        <ele>400.069682</ele>
        <time>2022-01-07T10:05:02.735Z</time>
      </trkpt>
      <trkpt lat="47.519239" lon="9.432680">
        <ele>400.090103</ele>
        <time>2022-01-07T10:05:07.721Z</time>
      </trkpt>
      <trkpt lat="47.519266" lon="9.432550">
        <ele>400.098922</ele>
        <time>2022-01-07T10:05:09.646Z</time>
      </trkpt>
      <trkpt lat="47.519393" lon="9.432496">
        <ele>400.111608</ele>
        <time>2022-01-07T10:05:12.101Z</time>
      </trkpt>
      <trkpt lat="47.519611" lon="9.431477">
        <ele>400.088270</ele>
        <time>2022-01-07T10:05:28.437Z</time>
      </trkpt>
      <trkpt lat="47.519667" lon="9.431116">
        <ele>400.051937</ele>
        <time>2022-01-07T10:05:34.348Z</time>
      </trkpt>
      <trkpt lat="47.519607" lon="9.430874">
        <ele>400.026650</ele>
        <time>2022-01-07T10:05:37.959Z</time>
      </trkpt>
      <trkpt lat="47.519656" lon="9.430460">
        <ele>399.985421</ele>
        <time>2022-01-07T10:05:43.357Z</time>
      </trkpt>
      <trkpt lat="47.519613" lon="9.430300">
        <ele>399.968529</ele>
        <time>2022-01-07T10:05:46.172Z</time>
      </trkpt>
      <trkpt lat="47.519405" lon="9.430088">
        <ele>399.931852</ele>
        <time>2022-01-07T10:05:51.392Z</time>
      </trkpt>
      <trkpt lat="47.519401" lon="9.430020">
        <ele>399.925156</ele>
        <time>2022-01-07T10:05:52.605Z</time>
      </trkpt>
      <trkpt lat="47.519606" lon="9.429375">
        <ele>399.987875</ele>
        <time>2022-01-07T10:06:03.431Z</time>
      </trkpt>
      <trkpt lat="47.520058" lon="9.428207">
        <ele>400.491229</ele>
        <time>2022-01-07T10:06:25.206Z</time>
      </trkpt>
      <trkpt lat="47.520677" lon="9.426604">
        <ele>401.444487</ele>
        <time>2022-01-07T10:06:57.490Z</time>
      </trkpt>
      <trkpt lat="47.520929" lon="9.426102">
        <ele>401.881214</ele>
        <time>2022-01-07T10:07:08.793Z</time>
      </trkpt>
      <trkpt lat="47.520971" lon="9.425828">
        <ele>402.077388</ele>
        <time>2022-01-07T10:07:14.000Z</time>
      </trkpt>
      <trkpt lat="47.521774" lon="9.423816">
        <ele>403.354953</ele>
        <time>2022-01-07T10:07:55.393Z</time>
      </trkpt>
      <trkpt lat="47.522325" lon="9.422615">
        <ele>403.853884</ele>
        <time>2022-01-07T10:08:18.792Z</time>
      </trkpt>
      <trkpt lat="47.522465" lon="9.422311">
        <ele>403.719201</ele>
        <time>2022-01-07T10:08:24.237Z</time>
      </trkpt>
      <trkpt lat="47.522880" lon="9.421665">
        <ele>403.392849</ele>
        <time>2022-01-07T10:08:36.846Z</time>
      </trkpt>
      <trkpt lat="47.523376" lon="9.421099">
        <ele>403.053447</ele>
        <time>2022-01-07T10:08:48.797Z</time>
      </trkpt>
      <trkpt lat="47.524134" lon="9.420495">
        <ele>402.266567</ele>
        <time>2022-01-07T10:09:05.423Z</time>
      </trkpt>
      <trkpt lat="47.524332" lon="9.420402">
        <ele>402.053138</ele>
        <time>2022-01-07T10:09:09.656Z</time>
      </trkpt>
      <trkpt lat="47.524390" lon="9.420375">
        <ele>401.990669</ele>
        <time>2022-01-07T10:09:10.794Z</time>
      </trkpt>
      <trkpt lat="47.524479" lon="9.420400">
        <ele>401.897593</ele>
        <time>2022-01-07T10:09:12.567Z</time>
      </trkpt>
      <trkpt lat="47.524660" lon="9.420357">
        <ele>401.709242</ele>
        <time>2022-01-07T10:09:16.074Z</time>
      </trkpt>
      <trkpt lat="47.524699" lon="9.420330">
        <ele>401.665008</ele>
        <time>2022-01-07T10:09:16.920Z</time>
      </trkpt>
      <trkpt lat="47.524751" lon="9.420292">
        <ele>401.605428</ele>
        <time>2022-01-07T10:09:18.025Z</time>
      </trkpt>
      <trkpt lat="47.525479" lon="9.419614">
        <ele>400.963116</ele>
        <time>2022-01-07T10:09:34.166Z</time>
      </trkpt>
      <trkpt lat="47.525640" lon="9.419315">
        <ele>400.868674</ele>
        <time>2022-01-07T10:09:39.146Z</time>
      </trkpt>
      <trkpt lat="47.525801" lon="9.419060">
        <ele>400.782462</ele>
        <time>2022-01-07T10:09:43.799Z</time>
      </trkpt>
      <trkpt lat="47.525960" lon="9.418932">
        <ele>400.716276</ele>
        <time>2022-01-07T10:09:48.213Z</time>
      </trkpt>
      <trkpt lat="47.525979" lon="9.418842">
        <ele>400.692990</ele>
        <time>2022-01-07T10:09:49.528Z</time>
      </trkpt>
      <trkpt lat="47.525882" lon="9.418646">
        <ele>400.632979</ele>
        <time>2022-01-07T10:09:53.361Z</time>
      </trkpt>
      <trkpt lat="47.526297" lon="9.417931">
        <ele>400.491993</ele>
        <time>2022-01-07T10:10:08.081Z</time>
      </trkpt>
      <trkpt lat="47.527073" lon="9.416536">
        <ele>401.109440</ele>
        <time>2022-01-07T10:10:37.379Z</time>
      </trkpt>
      <trkpt lat="47.527829" lon="9.415424">
        <ele>401.500550</ele>
        <time>2022-01-07T10:11:04.247Z</time>
      </trkpt>
      <trkpt lat="47.527955" lon="9.415057">
        <ele>401.571798</ele>
        <time>2022-01-07T10:11:10.758Z</time>
      </trkpt>
      <trkpt lat="47.528114" lon="9.414902">
        <ele>401.620583</ele>
        <time>2022-01-07T10:11:15.128Z</time>
      </trkpt>
      <trkpt lat="47.529840" lon="9.412062">
        <ele>401.609932</ele>
        <time>2022-01-07T10:12:11.329Z</time>
      </trkpt>
      <trkpt lat="47.531605" lon="9.409123">
        <ele>401.253450</ele>
        <time>2022-01-07T10:13:09.837Z</time>
      </trkpt>
      <trkpt lat="47.535405" lon="9.402769">
        <ele>399.573475</ele>
        <time>2022-01-07T10:15:09.231Z</time>
      </trkpt>
      <trkpt lat="47.536191" lon="9.401441">
        <ele>399.844049</ele>
        <time>2022-01-07T10:15:39.447Z</time>
      </trkpt>
      <trkpt lat="47.536611" lon="9.400603">
        <ele>400.158378</ele>
        <time>2022-01-07T10:15:57.233Z</time>
      </trkpt>
      <trkpt lat="47.539518" lon="9.393773">
        <ele>398.735003</ele>
        <time>2022-01-07T10:17:51.387Z</time>
      </trkpt>
      <trkpt lat="47.540621" lon="9.391157">
        <ele>398.678881</ele>
        <time>2022-01-07T10:18:37.692Z</time>
      </trkpt>
      <trkpt lat="47.541919" lon="9.388049">
        <ele>399.449948</ele>
        <time>2022-01-07T10:19:35.515Z</time>
      </trkpt>
      <trkpt lat="47.543188" lon="9.384958">
        <ele>400.860585</ele>
        <time>2022-01-07T10:20:36.057Z</time>
      </trkpt>
      <trkpt lat="47.543443" lon="9.384201">
        <ele>401.215738</ele>
        <time>2022-01-07T10:20:50.185Z</time>
      </trkpt>
      <trkpt lat="47.543476" lon="9.383665">
        <ele>401.392273</ele>
        <time>2022-01-07T10:20:59.309Z</time>
      </trkpt>
      <trkpt lat="47.543468" lon="9.383579">
        <ele>401.419716</ele>
        <time>2022-01-07T10:21:00.859Z</time>
      </trkpt>
      <trkpt lat="47.543660" lon="9.383265">
        <ele>401.553645</ele>
        <time>2022-01-07T10:21:07.570Z</time>
      </trkpt>
      <trkpt lat="47.543835" lon="9.382830">
        <ele>401.713723</ele>
        <time>2022-01-07T10:21:15.388Z</time>
      </trkpt>
      <trkpt lat="47.543858" lon="9.382776">
        <ele>401.733908</ele>
        <time>2022-01-07T10:21:16.409Z</time>
      </trkpt>
      <trkpt lat="47.543887" lon="9.382707">
        <ele>401.759602</ele>
        <time>2022-01-07T10:21:17.708Z</time>
      </trkpt>
      <trkpt lat="47.544059" lon="9.382302">
        <ele>401.910858</ele>
        <time>2022-01-07T10:21:25.129Z</time>
      </trkpt>
      <trkpt lat="47.544088" lon="9.382234">
        <ele>401.936284</ele>
        <time>2022-01-07T10:21:26.451Z</time>
      </trkpt>
      <trkpt lat="47.544116" lon="9.382169">
        <ele>401.960659</ele>
        <time>2022-01-07T10:21:27.698Z</time>
      </trkpt>
      <trkpt lat="47.544242" lon="9.381871">
        <ele>402.071814</ele>
        <time>2022-01-07T10:21:33.510Z</time>
      </trkpt>
      <trkpt lat="47.544284" lon="9.381773">
        <ele>402.104692</ele>
        <time>2022-01-07T10:21:35.540Z</time>
      </trkpt>
      <trkpt lat="47.544639" lon="9.380843">
        <ele>402.389976</ele>
        <time>2022-01-07T10:21:54.102Z</time>
      </trkpt>
      <trkpt lat="47.544633" lon="9.380674">
        <ele>402.435165</ele>
        <time>2022-01-07T10:21:56.942Z</time>
      </trkpt>
      <trkpt lat="47.544423" lon="9.379416">
        <ele>402.781194</ele>
        <time>2022-01-07T10:22:17.759Z</time>
      </trkpt>
      <trkpt lat="47.544388" lon="9.379213">
        <ele>402.744359</ele>
        <time>2022-01-07T10:22:20.822Z</time>
      </trkpt>
      <trkpt lat="47.544368" lon="9.379106">
        <ele>402.708065</ele>
        <time>2022-01-07T10:22:22.423Z</time>
      </trkpt>
      <trkpt lat="47.544309" lon="9.378738">
        <ele>402.584422</ele>
        <time>2022-01-07T10:22:28.473Z</time>
      </trkpt>
      <trkpt lat="47.544282" lon="9.378599">
        <ele>402.537140</ele>
        <time>2022-01-07T10:22:30.633Z</time>
      </trkpt>
      <trkpt lat="47.544261" lon="9.378467">
        <ele>402.492808</ele>
        <time>2022-01-07T10:22:32.942Z</time>
      </trkpt>
      <trkpt lat="47.544237" lon="9.378341">
        <ele>402.450012</ele>
        <time>2022-01-07T10:22:35.145Z</time>
      </trkpt>
      <trkpt lat="47.544151" lon="9.377825">
        <ele>402.276269</ele>
        <time>2022-01-07T10:22:43.181Z</time>
      </trkpt>
      <trkpt lat="47.544314" lon="9.377823">
        <ele>402.197331</ele>
        <time>2022-01-07T10:22:46.489Z</time>
      </trkpt>
      <trkpt lat="47.544804" lon="9.377821">
        <ele>401.960037</ele>
        <time>2022-01-07T10:22:56.251Z</time>
      </trkpt>
      <trkpt lat="47.545180" lon="9.377820">
        <ele>401.610266</ele>
        <time>2022-01-07T10:23:03.551Z</time>
      </trkpt>
      <trkpt lat="47.546041" lon="9.377795">
        <ele>400.715702</ele>
        <time>2022-01-07T10:23:20.673Z</time>
      </trkpt>
      <trkpt lat="47.546071" lon="9.377793">
        <ele>400.684507</ele>
        <time>2022-01-07T10:23:21.241Z</time>
      </trkpt>
      <trkpt lat="47.546382" lon="9.377795">
        <ele>400.361443</ele>
        <time>2022-01-07T10:23:27.687Z</time>
      </trkpt>
      <trkpt lat="47.546447" lon="9.377796">
        <ele>400.293918</ele>
        <time>2022-01-07T10:23:28.950Z</time>
      </trkpt>
      <trkpt lat="47.546537" lon="9.377795">
        <ele>400.200425</ele>
        <time>2022-01-07T10:23:30.862Z</time>
      </trkpt>
      <trkpt lat="47.547384" lon="9.377787">
        <ele>399.786205</ele>
        <time>2022-01-07T10:23:48.609Z</time>
      </trkpt>
      <trkpt lat="47.547587" lon="9.377782">
        <ele>399.708836</ele>
        <time>2022-01-07T10:23:53.003Z</time>
      </trkpt>
      <trkpt lat="47.547993" lon="9.377773">
        <ele>399.554103</ele>
        <time>2022-01-07T10:24:02.257Z</time>
      </trkpt>
      <trkpt lat="47.548068" lon="9.377770">
        <ele>399.525512</ele>
        <time>2022-01-07T10:24:04.041Z</time>
      </trkpt>
      <trkpt lat="47.548646" lon="9.377683">
        <ele>399.352934</ele>
        <time>2022-01-07T10:24:17.339Z</time>
      </trkpt>
      <trkpt lat="47.548852" lon="9.377526">
        <ele>399.329492</ele>
        <time>2022-01-07T10:24:22.316Z</time>
      </trkpt>
      <trkpt lat="47.549468" lon="9.376560">
        <ele>399.238724</ele>
        <time>2022-01-07T10:24:41.884Z</time>
      </trkpt>
      <trkpt lat="47.549867" lon="9.375901">
        <ele>399.198160</ele>
        <time>2022-01-07T10:24:54.872Z</time>
      </trkpt>
      <trkpt lat="47.550723" lon="9.374951">
        <ele>399.298738</ele>
        <time>2022-01-07T10:25:18.368Z</time>
      </trkpt>
      <trkpt lat="47.551181" lon="9.374613">
        <ele>399.346856</ele>
        <time>2022-01-07T10:25:30.356Z</time>
      </trkpt>
      <trkpt lat="47.551884" lon="9.374365">
        <ele>399.650056</ele>
        <time>2022-01-07T10:25:48.122Z</time>
      </trkpt>
      <trkpt lat="47.552029" lon="9.374318">
        <ele>399.721526</ele>
        <time>2022-01-07T10:25:51.723Z</time>
      </trkpt>
      <trkpt lat="47.552526" lon="9.374209">
        <ele>399.963441</ele>
        <time>2022-01-07T10:26:03.947Z</time>
      </trkpt>
      <trkpt lat="47.552541" lon="9.374207">
        <ele>399.970692</ele>
        <time>2022-01-07T10:26:04.318Z</time>
      </trkpt>
      <trkpt lat="47.552837" lon="9.374193">
        <ele>400.113290</ele>
        <time>2022-01-07T10:26:11.643Z</time>
      </trkpt>
      <trkpt lat="47.552961" lon="9.374201">
        <ele>400.173053</ele>
        <time>2022-01-07T10:26:14.675Z</time>
      </trkpt>
      <trkpt lat="47.553334" lon="9.374225">
        <ele>400.206075</ele>
        <time>2022-01-07T10:26:23.589Z</time>
      </trkpt>
      <trkpt lat="47.553424" lon="9.374230">
        <ele>400.200127</ele>
        <time>2022-01-07T10:26:25.620Z</time>
      </trkpt>
      <trkpt lat="47.553504" lon="9.374235">
        <ele>400.194840</ele>
        <time>2022-01-07T10:26:27.472Z</time>
      </trkpt>
      <trkpt lat="47.553798" lon="9.374254">
        <ele>400.175407</ele>
        <time>2022-01-07T10:26:33.987Z</time>
      </trkpt>
      <trkpt lat="47.554256" lon="9.374296">
        <ele>400.145104</ele>
        <time>2022-01-07T10:26:43.716Z</time>
      </trkpt>
      <trkpt lat="47.554739" lon="9.374334">
        <ele>400.113164</ele>
        <time>2022-01-07T10:26:53.973Z</time>
      </trkpt>
      <trkpt lat="47.555632" lon="9.374217">
        <ele>399.603752</ele>
        <time>2022-01-07T10:27:12.598Z</time>
      </trkpt>
      <trkpt lat="47.555668" lon="9.374206">
        <ele>399.579912</ele>
        <time>2022-01-07T10:27:13.375Z</time>
      </trkpt>
      <trkpt lat="47.555991" lon="9.374196">
        <ele>399.370372</ele>
        <time>2022-01-07T10:27:19.656Z</time>
      </trkpt>
      <trkpt lat="47.556375" lon="9.374342">
        <ele>399.113246</ele>
        <time>2022-01-07T10:27:27.404Z</time>
      </trkpt>
      <trkpt lat="47.556538" lon="9.374434">
        <ele>399.000117</ele>
        <time>2022-01-07T10:27:33.254Z</time>
      </trkpt>
      <trkpt lat="47.556611" lon="9.374479">
        <ele>398.948836</ele>
        <time>2022-01-07T10:27:34.868Z</time>
      </trkpt>
      <trkpt lat="47.556618" lon="9.374466">
        <ele>398.941557</ele>
        <time>2022-01-07T10:27:35.092Z</time>
      </trkpt>
      <trkpt lat="47.556733" lon="9.374539">
        <ele>398.877294</ele>
        <time>2022-01-07T10:27:37.624Z</time>
      </trkpt>
      <trkpt lat="47.556809" lon="9.374584">
        <ele>398.835698</ele>
        <time>2022-01-07T10:27:39.218Z</time>
      </trkpt>
      <trkpt lat="47.557246" lon="9.374826">
        <ele>398.598596</ele>
        <time>2022-01-07T10:27:48.769Z</time>
      </trkpt>
      <trkpt lat="47.557474" lon="9.374968">
        <ele>398.472899</ele>
        <time>2022-01-07T10:27:53.875Z</time>
      </trkpt>
      <trkpt lat="47.557504" lon="9.374985">
        <ele>398.456575</ele>
        <time>2022-01-07T10:27:54.530Z</time>
      </trkpt>
      <trkpt lat="47.557644" lon="9.375064">
        <ele>398.380438</ele>
        <time>2022-01-07T10:27:57.613Z</time>
      </trkpt>
      <trkpt lat="47.557727" lon="9.375110">
        <ele>398.335400</ele>
        <time>2022-01-07T10:27:59.445Z</time>
      </trkpt>
      <trkpt lat="47.557793" lon="9.375147">
        <ele>398.299537</ele>
        <time>2022-01-07T10:28:00.829Z</time>
      </trkpt>
      <trkpt lat="47.557941" lon="9.375230">
        <ele>398.219111</ele>
        <time>2022-01-07T10:28:03.986Z</time>
      </trkpt>
      <trkpt lat="47.558016" lon="9.375272">
        <ele>398.178362</ele>
        <time>2022-01-07T10:28:05.648Z</time>
      </trkpt>
      <trkpt lat="47.558073" lon="9.375304">
        <ele>398.147383</ele>
        <time>2022-01-07T10:28:06.904Z</time>
      </trkpt>
      <trkpt lat="47.558165" lon="9.375356">
        <ele>398.097340</ele>
        <time>2022-01-07T10:28:08.914Z</time>
      </trkpt>
      <trkpt lat="47.558355" lon="9.375478">
        <ele>398.028995</ele>
        <time>2022-01-07T10:28:13.364Z</time>
      </trkpt>
      <trkpt lat="47.558602" lon="9.375616">
        <ele>398.048626</ele>
        <time>2022-01-07T10:28:19.445Z</time>
      </trkpt>
      <trkpt lat="47.559711" lon="9.376278">
        <ele>398.137540</ele>
        <time>2022-01-07T10:28:47.240Z</time>
      </trkpt>
      <trkpt lat="47.559941" lon="9.376388">
        <ele>398.155514</ele>
        <time>2022-01-07T10:28:52.608Z</time>
      </trkpt>
      <trkpt lat="47.560013" lon="9.376480">
        <ele>398.160076</ele>
        <time>2022-01-07T10:28:54.693Z</time>
      </trkpt>
      <trkpt lat="47.560048" lon="9.376558">
        <ele>398.162178</ele>
        <time>2022-01-07T10:28:56.025Z</time>
      </trkpt>
      <trkpt lat="47.560218" lon="9.376946">
        <ele>398.172560</ele>
        <time>2022-01-07T10:29:02.797Z</time>
      </trkpt>
      <trkpt lat="47.560456" lon="9.377405">
        <ele>398.185550</ele>
        <time>2022-01-07T10:29:11.103Z</time>
      </trkpt>
      <trkpt lat="47.560846" lon="9.377974">
        <ele>398.203752</ele>
        <time>2022-01-07T10:29:23.389Z</time>
      </trkpt>
      <trkpt lat="47.561307" lon="9.378505">
        <ele>398.300746</ele>
        <time>2022-01-07T10:29:36.793Z</time>
      </trkpt>
      <trkpt lat="47.561647" lon="9.378681">
        <ele>398.487840</ele>
        <time>2022-01-07T10:29:45.433Z</time>
      </trkpt>
      <trkpt lat="47.561912" lon="9.378740">
        <ele>398.627052</ele>
        <time>2022-01-07T10:29:51.956Z</time>
      </trkpt>
      <trkpt lat="47.562565" lon="9.379051">
        <ele>398.983371</ele>
        <time>2022-01-07T10:30:08.895Z</time>
      </trkpt>
      <trkpt lat="47.562855" lon="9.379148">
        <ele>399.137815</ele>
        <time>2022-01-07T10:30:16.269Z</time>
      </trkpt>
      <trkpt lat="47.562922" lon="9.379166">
        <ele>399.176347</ele>
        <time>2022-01-07T10:30:18.039Z</time>
      </trkpt>
      <trkpt lat="47.563226" lon="9.379193">
        <ele>399.358432</ele>
        <time>2022-01-07T10:30:25.746Z</time>
      </trkpt>
      <trkpt lat="47.563334" lon="9.379191">
        <ele>399.423008</ele>
        <time>2022-01-07T10:30:28.504Z</time>
      </trkpt>
      <trkpt lat="47.564258" lon="9.379161">
        <ele>399.975590</ele>
        <time>2022-01-07T10:30:51.020Z</time>
      </trkpt>
      <trkpt lat="47.564403" lon="9.379155">
        <ele>400.062317</ele>
        <time>2022-01-07T10:30:54.483Z</time>
      </trkpt>
      <trkpt lat="47.564532" lon="9.379150">
        <ele>400.139471</ele>
        <time>2022-01-07T10:30:57.458Z</time>
      </trkpt>
      <trkpt lat="47.564639" lon="9.379145">
        <ele>400.203477</ele>
        <time>2022-01-07T10:30:59.879Z</time>
      </trkpt>
      <trkpt lat="47.564692" lon="9.379144">
        <ele>400.232335</ele>
        <time>2022-01-07T10:31:01.231Z</time>
      </trkpt>
      <trkpt lat="47.564817" lon="9.379142">
        <ele>400.278954</ele>
        <time>2022-01-07T10:31:04.368Z</time>
      </trkpt>
      <trkpt lat="47.564846" lon="9.379115">
        <ele>400.291726</ele>
        <time>2022-01-07T10:31:05.260Z</time>
      </trkpt>
      <trkpt lat="47.564895" lon="9.379063">
        <ele>400.314201</ele>
        <time>2022-01-07T10:31:06.839Z</time>
      </trkpt>
      <trkpt lat="47.565101" lon="9.379010">
        <ele>400.392173</ele>
        <time>2022-01-07T10:31:12.458Z</time>
      </trkpt>
      <trkpt lat="47.565410" lon="9.379002">
        <ele>400.507426</ele>
        <time>2022-01-07T10:31:20.428Z</time>
      </trkpt>
      <trkpt lat="47.565675" lon="9.378995">
        <ele>400.606268</ele>
        <time>2022-01-07T10:31:26.863Z</time>
      </trkpt>
      <trkpt lat="47.565715" lon="9.378994">
        <ele>400.621187</ele>
        <time>2022-01-07T10:31:27.774Z</time>
      </trkpt>
      <trkpt lat="47.565719" lon="9.378802">
        <ele>400.669523</ele>
        <time>2022-01-07T10:31:31.200Z</time>
      </trkpt>
      <trkpt lat="47.565715" lon="9.377618">
        <ele>400.704575</ele>
        <time>2022-01-07T10:31:48.912Z</time>
      </trkpt>
      <trkpt lat="47.565757" lon="9.377649">
        <ele>400.655459</ele>
        <time>2022-01-07T10:31:49.775Z</time>
      </trkpt>
      <trkpt lat="47.565896" lon="9.377701">
        <ele>400.505390</ele>
        <time>2022-01-07T10:31:52.467Z</time>
      </trkpt>
      <trkpt lat="47.566070" lon="9.377746">
        <ele>400.320496</ele>
        <time>2022-01-07T10:31:55.932Z</time>
      </trkpt>
      <trkpt lat="47.566150" lon="9.377765">
        <ele>400.235684</ele>
        <time>2022-01-07T10:31:57.413Z</time>
      </trkpt>
      <trkpt lat="47.566242" lon="9.377788">
        <ele>400.138018</ele>
        <time>2022-01-07T10:31:59.156Z</time>
      </trkpt>
      <trkpt lat="47.566559" lon="9.377787">
        <ele>399.806184</ele>
        <time>2022-01-07T10:32:05.596Z</time>
      </trkpt>
      <trkpt lat="47.566566" lon="9.378343">
        <ele>399.413410</ele>
        <time>2022-01-07T10:32:12.674Z</time>
      </trkpt>
      <trkpt lat="47.566575" lon="9.379000">
        <ele>398.929120</ele>
        <time>2022-01-07T10:32:20.499Z</time>
      </trkpt>
      <trkpt lat="47.566576" lon="9.379069">
        <ele>398.865564</ele>
        <time>2022-01-07T10:32:21.294Z</time>
      </trkpt>
      <trkpt lat="47.566923" lon="9.379074">
        <ele>398.391947</ele>
        <time>2022-01-07T10:32:27.484Z</time>
      </trkpt>
      <trkpt lat="47.567068" lon="9.379126">
        <ele>398.188336</ele>
        <time>2022-01-07T10:32:30.269Z</time>
      </trkpt>
      <trkpt lat="47.567186" lon="9.379187">
        <ele>398.017772</ele>
        <time>2022-01-07T10:32:32.531Z</time>
      </trkpt>
      <trkpt lat="47.567330" lon="9.379261">
        <ele>397.809758</ele>
        <time>2022-01-07T10:32:35.241Z</time>
      </trkpt>
      <trkpt lat="47.567433" lon="9.379400">
        <ele>397.619636</ele>
        <time>2022-01-07T10:32:37.819Z</time>
      </trkpt>
      <trkpt lat="47.567453" lon="9.379651">
        <ele>397.386889</ele>
        <time>2022-01-07T10:32:40.843Z</time>
      </trkpt>
      <trkpt lat="47.567490" lon="9.380196">
        <ele>396.882478</ele>
        <time>2022-01-07T10:32:47.809Z</time>
      </trkpt>
      <trkpt lat="47.567496" lon="9.380254">
        <ele>396.828443</ele>
        <time>2022-01-07T10:32:48.634Z</time>
      </trkpt>
      <trkpt lat="47.567520" lon="9.380427">
        <ele>396.665799</ele>
        <time>2022-01-07T10:32:51.059Z</time>
      </trkpt>
      <trkpt lat="47.567620" lon="9.380873">
        <ele>396.650610</ele>
        <time>2022-01-07T10:32:57.571Z</time>
      </trkpt>
      <trkpt lat="47.567624" lon="9.381051">
        <ele>396.695567</ele>
        <time>2022-01-07T10:33:00.202Z</time>
      </trkpt>
      <trkpt lat="47.567663" lon="9.381631">
        <ele>396.842701</ele>
        <time>2022-01-07T10:33:09.200Z</time>
      </trkpt>
      <trkpt lat="47.567690" lon="9.382063">
        <ele>396.952217</ele>
        <time>2022-01-07T10:33:16.556Z</time>
      </trkpt>
      <trkpt lat="47.567699" lon="9.382206">
        <ele>396.988471</ele>
        <time>2022-01-07T10:33:19.142Z</time>
      </trkpt>
      <trkpt lat="47.567706" lon="9.382321">
        <ele>397.017618</ele>
        <time>2022-01-07T10:33:21.053Z</time>
      </trkpt>
      <trkpt lat="47.567708" lon="9.382354">
        <ele>397.025982</ele>
        <time>2022-01-07T10:33:21.619Z</time>
      </trkpt>
      <trkpt lat="47.567728" lon="9.382642">
        <ele>397.099065</ele>
        <time>2022-01-07T10:33:26.669Z</time>
      </trkpt>
      <trkpt lat="47.567765" lon="9.382854">
        <ele>397.154341</ele>
        <time>2022-01-07T10:33:30.410Z</time>
      </trkpt>
      <trkpt lat="47.567875" lon="9.382835">
        <ele>397.195774</ele>
        <time>2022-01-07T10:33:34.901Z</time>
      </trkpt>
      <trkpt lat="47.568014" lon="9.382801">
        <ele>397.276087</ele>
        <time>2022-01-07T10:33:40.565Z</time>
      </trkpt>
      <trkpt lat="47.568117" lon="9.382680">
        <ele>397.416978</ele>
        <time>2022-01-07T10:33:45.911Z</time>
      </trkpt>
      <trkpt lat="47.568224" lon="9.382587">
        <ele>397.549949</ele>
        <time>2022-01-07T10:33:51.122Z</time>
      </trkpt>
      <trkpt lat="47.568369" lon="9.382647">
        <ele>397.711330</ele>
        <time>2022-01-07T10:33:57.480Z</time>
      </trkpt>
      <trkpt lat="47.568685" lon="9.382851">
        <ele>398.080815</ele>
        <time>2022-01-07T10:34:12.300Z</time>
      </trkpt>
      <trkpt lat="47.569352" lon="9.382473">
        <ele>398.846313</ele>
        <time>2022-01-07T10:34:41.699Z</time>
      </trkpt>
      <trkpt lat="47.569834" lon="9.381997">
        <ele>399.487532</ele>
        <time>2022-01-07T10:35:05.243Z</time>
      </trkpt>
      <trkpt lat="47.570071" lon="9.381815">
        <ele>399.792720</ele>
        <time>2022-01-07T10:35:15.943Z</time>
      </trkpt>
      <trkpt lat="47.570081" lon="9.381807">
        <ele>399.805712</ele>
        <time>2022-01-07T10:35:16.519Z</time>
      </trkpt>
      <trkpt lat="47.570184" lon="9.381790">
        <ele>399.924206</ele>
        <time>2022-01-07T10:35:21.314Z</time>
      </trkpt>
      <trkpt lat="47.570367" lon="9.381811">
        <ele>400.134067</ele>
        <time>2022-01-07T10:35:28.465Z</time>
      </trkpt>
      <trkpt lat="47.570458" lon="9.381821">
        <ele>400.238398</ele>
        <time>2022-01-07T10:35:32.793Z</time>
      </trkpt>
      <trkpt lat="47.570557" lon="9.381846">
        <ele>400.353222</ele>
        <time>2022-01-07T10:35:37.442Z</time>
      </trkpt>
      <trkpt lat="47.570605" lon="9.381853">
        <ele>400.408368</ele>
        <time>2022-01-07T10:35:39.296Z</time>
      </trkpt>
      <trkpt lat="47.570675" lon="9.381834">
        <ele>400.489734</ele>
        <time>2022-01-07T10:35:41.756Z</time>
      </trkpt>
      <trkpt lat="47.570865" lon="9.381645">
        <ele>400.751361</ele>
        <time>2022-01-07T10:35:52.305Z</time>
      </trkpt>
      <trkpt lat="47.570970" lon="9.381363">
        <ele>400.999824</ele>
        <time>2022-01-07T10:36:00.782Z</time>
      </trkpt>
      <trkpt lat="47.570868" lon="9.380953">
        <ele>401.307846</ele>
        <time>2022-01-07T10:36:12.624Z</time>
      </trkpt>
      <trkpt lat="47.570834" lon="9.380587">
        <ele>401.523008</ele>
        <time>2022-01-07T10:36:23.470Z</time>
      </trkpt>
      <trkpt lat="47.570831" lon="9.380553">
        <ele>401.542978</ele>
        <time>2022-01-07T10:36:24.261Z</time>
      </trkpt>
      <trkpt lat="47.570934" lon="9.380090">
        <ele>401.826899</ele>
        <time>2022-01-07T10:36:37.958Z</time>
      </trkpt>
      <trkpt lat="47.570934" lon="9.380035">
        <ele>401.858930</ele>
        <time>2022-01-07T10:36:39.332Z</time>
      </trkpt>
      <trkpt lat="47.571074" lon="9.379875">
        <ele>402.011530</ele>
        <time>2022-01-07T10:36:44.160Z</time>
      </trkpt>
      <trkpt lat="47.571319" lon="9.379140">
        <ele>402.488970</ele>
        <time>2022-01-07T10:36:59.602Z</time>
      </trkpt>
      <trkpt lat="47.571361" lon="9.379010">
        <ele>402.572911</ele>
        <time>2022-01-07T10:37:01.701Z</time>
      </trkpt>
      <trkpt lat="47.571627" lon="9.378170">
        <ele>402.549293</ele>
        <time>2022-01-07T10:37:15.392Z</time>
      </trkpt>
      <trkpt lat="47.571897" lon="9.377476">
        <ele>402.247412</ele>
        <time>2022-01-07T10:37:25.999Z</time>
      </trkpt>
      <trkpt lat="47.572011" lon="9.377352">
        <ele>402.168434</ele>
        <time>2022-01-07T10:37:28.883Z</time>
      </trkpt>
      <trkpt lat="47.572039" lon="9.377328">
        <ele>402.150368</ele>
        <time>2022-01-07T10:37:29.528Z</time>
      </trkpt>
      <trkpt lat="47.572162" lon="9.377144">
        <ele>402.052762</ele>
        <time>2022-01-07T10:37:32.973Z</time>
      </trkpt>
      <trkpt lat="47.572341" lon="9.376689">
        <ele>401.854289</ele>
        <time>2022-01-07T10:37:40.080Z</time>
      </trkpt>
      <trkpt lat="47.572376" lon="9.376599">
        <ele>401.815144</ele>
        <time>2022-01-07T10:37:41.467Z</time>
      </trkpt>
      <trkpt lat="47.572815" lon="9.375471">
        <ele>401.024319</ele>
        <time>2022-01-07T10:37:58.357Z</time>
      </trkpt>
      <trkpt lat="47.573057" lon="9.375400">
        <ele>400.792936</ele>
        <time>2022-01-07T10:38:02.863Z</time>
      </trkpt>
      <trkpt lat="47.573457" lon="9.374617">
        <ele>400.171456</ele>
        <time>2022-01-07T10:38:15.773Z</time>
      </trkpt>
      <trkpt lat="47.573636" lon="9.374011">
        <ele>400.144423</ele>
        <time>2022-01-07T10:38:24.900Z</time>
      </trkpt>
      <trkpt lat="47.573801" lon="9.373247">
        <ele>400.245758</ele>
        <time>2022-01-07T10:38:36.918Z</time>
      </trkpt>
      <trkpt lat="47.573833" lon="9.373088">
        <ele>400.266718</ele>
        <time>2022-01-07T10:38:39.572Z</time>
      </trkpt>
      <trkpt lat="47.573965" lon="9.372590">
        <ele>400.334308</ele>
        <time>2022-01-07T10:38:48.150Z</time>
      </trkpt>
      <trkpt lat="47.574068" lon="9.372331">
        <ele>400.372287</ele>
        <time>2022-01-07T10:38:53.066Z</time>
      </trkpt>
      <trkpt lat="47.574333" lon="9.371691">
        <ele>400.711776</ele>
        <time>2022-01-07T10:39:06.310Z</time>
      </trkpt>
      <trkpt lat="47.574342" lon="9.371468">
        <ele>400.875096</ele>
        <time>2022-01-07T10:39:10.670Z</time>
      </trkpt>
      <trkpt lat="47.575423" lon="9.369002">
        <ele>402.583631</ele>
        <time>2022-01-07T10:40:03.741Z</time>
      </trkpt>
      <trkpt lat="47.576895" lon="9.365726">
        <ele>402.852675</ele>
        <time>2022-01-07T10:41:02.033Z</time>
      </trkpt>
      <trkpt lat="47.577264" lon="9.364904">
        <ele>402.835880</ele>
        <time>2022-01-07T10:41:16.137Z</time>
      </trkpt>
      <trkpt lat="47.578114" lon="9.362600">
        <ele>403.093787</ele>
        <time>2022-01-07T10:41:56.369Z</time>
      </trkpt>
      <trkpt lat="47.578540" lon="9.361424">
        <ele>403.606208</ele>
        <time>2022-01-07T10:42:18.866Z</time>
      </trkpt>
      <trkpt lat="47.579919" lon="9.357552">
        <ele>405.288160</ele>
        <time>2022-01-07T10:43:33.463Z</time>
      </trkpt>
      <trkpt lat="47.581693" lon="9.352588">
        <ele>404.661790</ele>
        <time>2022-01-07T10:44:54.163Z</time>
      </trkpt>
      <trkpt lat="47.582935" lon="9.348781">
        <ele>403.396412</ele>
        <time>2022-01-07T10:45:54.029Z</time>
      </trkpt>
      <trkpt lat="47.583226" lon="9.347890">
        <ele>402.305214</ele>
        <time>2022-01-07T10:46:06.032Z</time>
      </trkpt>
      <trkpt lat="47.583847" lon="9.348297">
        <ele>401.195661</ele>
        <time>2022-01-07T10:46:17.936Z</time>
      </trkpt>
      <trkpt lat="47.583983" lon="9.348235">
        <ele>400.963146</ele>
        <time>2022-01-07T10:46:20.363Z</time>
      </trkpt>
      <trkpt lat="47.584693" lon="9.346693">
        <ele>400.018506</ele>
        <time>2022-01-07T10:46:43.443Z</time>
      </trkpt>
      <trkpt lat="47.585138" lon="9.345956">
        <ele>399.702148</ele>
        <time>2022-01-07T10:46:58.823Z</time>
      </trkpt>
      <trkpt lat="47.585282" lon="9.345632">
        <ele>399.840039</ele>
        <time>2022-01-07T10:47:06.221Z</time>
      </trkpt>
      <trkpt lat="47.585400" lon="9.345143">
        <ele>400.693745</ele>
        <time>2022-01-07T10:47:16.637Z</time>
      </trkpt>
      <trkpt lat="47.585454" lon="9.344932">
        <ele>401.064712</ele>
        <time>2022-01-07T10:47:21.211Z</time>
      </trkpt>
      <trkpt lat="47.585554" lon="9.343803">
        <ele>402.936478</ele>
        <time>2022-01-07T10:47:47.285Z</time>
      </trkpt>
      <trkpt lat="47.585526" lon="9.343534">
        <ele>403.383890</ele>
        <time>2022-01-07T10:47:54.065Z</time>
      </trkpt>
      <trkpt lat="47.585081" lon="9.342398">
        <ele>405.324298</ele>
        <time>2022-01-07T10:48:23.463Z</time>
      </trkpt>
      <trkpt lat="47.585026" lon="9.342222">
        <ele>405.597777</ele>
        <time>2022-01-07T10:48:27.895Z</time>
      </trkpt>
      <trkpt lat="47.585018" lon="9.342132">
        <ele>405.725764</ele>
        <time>2022-01-07T10:48:29.875Z</time>
      </trkpt>
      <trkpt lat="47.585162" lon="9.341929">
        <ele>406.141116</ele>
        <time>2022-01-07T10:48:35.545Z</time>
      </trkpt>
      <trkpt lat="47.585502" lon="9.340911">
        <ele>407.742696</ele>
        <time>2022-01-07T10:48:57.981Z</time>
      </trkpt>
      <trkpt lat="47.585551" lon="9.340752">
        <ele>407.801903</ele>
        <time>2022-01-07T10:49:01.355Z</time>
      </trkpt>
      <trkpt lat="47.585690" lon="9.340304">
        <ele>407.919339</ele>
        <time>2022-01-07T10:49:09.822Z</time>
      </trkpt>
      <trkpt lat="47.585698" lon="9.340279">
        <ele>407.925929</ele>
        <time>2022-01-07T10:49:10.297Z</time>
      </trkpt>
      <trkpt lat="47.585799" lon="9.339970">
        <ele>408.007702</ele>
        <time>2022-01-07T10:49:15.499Z</time>
      </trkpt>
      <trkpt lat="47.585828" lon="9.339884">
        <ele>408.030599</ele>
        <time>2022-01-07T10:49:16.873Z</time>
      </trkpt>
      <trkpt lat="47.585722" lon="9.339792">
        <ele>408.073967</ele>
        <time>2022-01-07T10:49:19.662Z</time>
      </trkpt>
      <trkpt lat="47.586186" lon="9.338577">
        <ele>408.402469</ele>
        <time>2022-01-07T10:49:40.186Z</time>
      </trkpt>
      <trkpt lat="47.586339" lon="9.338539">
        <ele>408.428252</ele>
        <time>2022-01-07T10:49:43.694Z</time>
      </trkpt>
      <trkpt lat="47.586617" lon="9.338130">
        <ele>408.493345</ele>
        <time>2022-01-07T10:49:52.940Z</time>
      </trkpt>
      <trkpt lat="47.586733" lon="9.337699">
        <ele>408.545365</ele>
        <time>2022-01-07T10:50:00.158Z</time>
      </trkpt>
      <trkpt lat="47.586895" lon="9.337457">
        <ele>408.583586</ele>
        <time>2022-01-07T10:50:05.628Z</time>
      </trkpt>
      <trkpt lat="47.586987" lon="9.337065">
        <ele>408.630114</ele>
        <time>2022-01-07T10:50:11.868Z</time>
      </trkpt>
      <trkpt lat="47.587188" lon="9.336813">
        <ele>408.673863</ele>
        <time>2022-01-07T10:50:17.733Z</time>
      </trkpt>
      <trkpt lat="47.587789" lon="9.335319">
        <ele>408.373334</ele>
        <time>2022-01-07T10:50:45.054Z</time>
      </trkpt>
      <trkpt lat="47.587766" lon="9.335104">
        <ele>408.327030</ele>
        <time>2022-01-07T10:50:48.007Z</time>
      </trkpt>
      <trkpt lat="47.587656" lon="9.334969">
        <ele>408.281995</ele>
        <time>2022-01-07T10:50:50.704Z</time>
      </trkpt>
      <trkpt lat="47.587677" lon="9.334819">
        <ele>408.249408</ele>
        <time>2022-01-07T10:50:53.381Z</time>
      </trkpt>
      <trkpt lat="47.587983" lon="9.335004">
        <ele>408.145187</ele>
        <time>2022-01-07T10:50:59.500Z</time>
      </trkpt>
      <trkpt lat="47.588066" lon="9.335056">
        <ele>408.084087</ele>
        <time>2022-01-07T10:51:01.155Z</time>
      </trkpt>
      <trkpt lat="47.588219" lon="9.335122">
        <ele>407.915008</ele>
        <time>2022-01-07T10:51:03.917Z</time>
      </trkpt>
      <trkpt lat="47.588309" lon="9.334594">
        <ele>407.525259</ele>
        <time>2022-01-07T10:51:10.764Z</time>
      </trkpt>
      <trkpt lat="47.588355" lon="9.334444">
        <ele>407.407335</ele>
        <time>2022-01-07T10:51:13.217Z</time>
      </trkpt>
      <trkpt lat="47.588426" lon="9.334263">
        <ele>407.257486</ele>
        <time>2022-01-07T10:51:15.749Z</time>
      </trkpt>
      <trkpt lat="47.588544" lon="9.333974">
        <ele>407.015714</ele>
        <time>2022-01-07T10:51:20.223Z</time>
      </trkpt>
      <trkpt lat="47.588622" lon="9.333780">
        <ele>406.854079</ele>
        <time>2022-01-07T10:51:22.897Z</time>
      </trkpt>
      <trkpt lat="47.588732" lon="9.333509">
        <ele>406.627722</ele>
        <time>2022-01-07T10:51:26.768Z</time>
      </trkpt>
      <trkpt lat="47.588789" lon="9.333368">
        <ele>406.510078</ele>
        <time>2022-01-07T10:51:28.844Z</time>
      </trkpt>
      <trkpt lat="47.588907" lon="9.333079">
        <ele>406.268307</ele>
        <time>2022-01-07T10:51:33.377Z</time>
      </trkpt>
      <trkpt lat="47.589491" lon="9.331592">
        <ele>406.406029</ele>
        <time>2022-01-07T10:52:00.146Z</time>
      </trkpt>
      <trkpt lat="47.589717" lon="9.331009">
        <ele>406.480725</ele>
        <time>2022-01-07T10:52:11.434Z</time>
      </trkpt>
      <trkpt lat="47.589803" lon="9.330792">
        <ele>406.508684</ele>
        <time>2022-01-07T10:52:15.663Z</time>
      </trkpt>
      <trkpt lat="47.589822" lon="9.330745">
        <ele>406.514771</ele>
        <time>2022-01-07T10:52:16.593Z</time>
      </trkpt>
      <trkpt lat="47.590042" lon="9.330224">
        <ele>406.406825</ele>
        <time>2022-01-07T10:52:26.256Z</time>
      </trkpt>
      <trkpt lat="47.590251" lon="9.329729">
        <ele>406.295130</ele>
        <time>2022-01-07T10:52:34.981Z</time>
      </trkpt>
      <trkpt lat="47.590733" lon="9.328521">
        <ele>406.026685</ele>
        <time>2022-01-07T10:52:54.249Z</time>
      </trkpt>
      <trkpt lat="47.591280" lon="9.327183">
        <ele>405.280770</ele>
        <time>2022-01-07T10:53:14.392Z</time>
      </trkpt>
      <trkpt lat="47.591526" lon="9.326582">
        <ele>404.932427</ele>
        <time>2022-01-07T10:53:23.862Z</time>
      </trkpt>
      <trkpt lat="47.592449" lon="9.324293">
        <ele>404.300065</ele>
        <time>2022-01-07T10:54:02.685Z</time>
      </trkpt>
      <trkpt lat="47.593438" lon="9.321931">
        <ele>403.360042</ele>
        <time>2022-01-07T10:54:41.431Z</time>
      </trkpt>
      <trkpt lat="47.593743" lon="9.322212">
        <ele>403.110795</ele>
        <time>2022-01-07T10:54:48.451Z</time>
      </trkpt>
      <trkpt lat="47.594115" lon="9.322566">
        <ele>402.644437</ele>
        <time>2022-01-07T10:54:56.977Z</time>
      </trkpt>
      <trkpt lat="47.594373" lon="9.322811">
        <ele>402.321194</ele>
        <time>2022-01-07T10:55:02.809Z</time>
      </trkpt>
      <trkpt lat="47.594846" lon="9.321902">
        <ele>401.504275</ele>
        <time>2022-01-07T10:55:17.240Z</time>
      </trkpt>
      <trkpt lat="47.595100" lon="9.321438">
        <ele>401.156184</ele>
        <time>2022-01-07T10:55:25.111Z</time>
      </trkpt>
      <trkpt lat="47.595323" lon="9.321205">
        <ele>400.960623</ele>
        <time>2022-01-07T10:55:30.515Z</time>
      </trkpt>
      <trkpt lat="47.595576" lon="9.320945">
        <ele>400.739957</ele>
        <time>2022-01-07T10:55:36.897Z</time>
      </trkpt>
      <trkpt lat="47.595950" lon="9.320296">
        <ele>400.327257</ele>
        <time>2022-01-07T10:55:48.549Z</time>
      </trkpt>
      <trkpt lat="47.596364" lon="9.319532">
        <ele>399.927409</ele>
        <time>2022-01-07T10:56:01.579Z</time>
      </trkpt>
      <trkpt lat="47.597618" lon="9.317265">
        <ele>399.308646</ele>
        <time>2022-01-07T10:56:42.996Z</time>
      </trkpt>
      <trkpt lat="47.598172" lon="9.316338">
        <ele>399.364522</ele>
        <time>2022-01-07T10:57:02.191Z</time>
      </trkpt>
      <trkpt lat="47.598624" lon="9.315655">
        <ele>399.451740</ele>
        <time>2022-01-07T10:57:17.405Z</time>
      </trkpt>
      <trkpt lat="47.598936" lon="9.315178">
        <ele>399.665869</ele>
        <time>2022-01-07T10:57:28.113Z</time>
      </trkpt>
      <trkpt lat="47.599066" lon="9.314983">
        <ele>399.754226</ele>
        <time>2022-01-07T10:57:32.563Z</time>
      </trkpt>
      <trkpt lat="47.600135" lon="9.313377">
        <ele>400.629963</ele>
        <time>2022-01-07T10:58:09.475Z</time>
      </trkpt>
      <trkpt lat="47.600173" lon="9.313129">
        <ele>400.766921</ele>
        <time>2022-01-07T10:58:13.875Z</time>
      </trkpt>
      <trkpt lat="47.600079" lon="9.312903">
        <ele>400.909918</ele>
        <time>2022-01-07T10:58:18.350Z</time>
      </trkpt>
      <trkpt lat="47.599406" lon="9.312306">
        <ele>401.536217</ele>
        <time>2022-01-07T10:58:38.660Z</time>
      </trkpt>
      <trkpt lat="47.599404" lon="9.312224">
        <ele>401.580405</ele>
        <time>2022-01-07T10:58:40.213Z</time>
      </trkpt>
      <trkpt lat="47.599816" lon="9.311331">
        <ele>402.313500</ele>
        <time>2022-01-07T10:58:59.609Z</time>
      </trkpt>
      <trkpt lat="47.599200" lon="9.310463">
        <ele>403.210844</ele>
        <time>2022-01-07T10:59:22.516Z</time>
      </trkpt>
      <trkpt lat="47.601906" lon="9.305016">
        <ele>406.999124</ele>
        <time>2022-01-07T11:01:19.670Z</time>
      </trkpt>
      <trkpt lat="47.603108" lon="9.302844">
        <ele>407.276944</ele>
        <time>2022-01-07T11:02:03.395Z</time>
      </trkpt>
      <trkpt lat="47.603722" lon="9.303336">
        <ele>407.068655</ele>
        <time>2022-01-07T11:02:18.011Z</time>
      </trkpt>
      <trkpt lat="47.603916" lon="9.303265">
        <ele>407.009017</ele>
        <time>2022-01-07T11:02:22.080Z</time>
      </trkpt>
      <trkpt lat="47.604204" lon="9.302779">
        <ele>406.705343</ele>
        <time>2022-01-07T11:02:30.508Z</time>
      </trkpt>
      <trkpt lat="47.604305" lon="9.302747">
        <ele>406.597117</ele>
        <time>2022-01-07T11:02:32.309Z</time>
      </trkpt>
      <trkpt lat="47.604851" lon="9.303084">
        <ele>405.977399</ele>
        <time>2022-01-07T11:02:43.720Z</time>
      </trkpt>
      <trkpt lat="47.604976" lon="9.303261">
        <ele>405.796300</ele>
        <time>2022-01-07T11:02:46.684Z</time>
      </trkpt>
      <trkpt lat="47.605009" lon="9.303203">
        <ele>405.742681</ele>
        <time>2022-01-07T11:02:47.777Z</time>
      </trkpt>
      <trkpt lat="47.605034" lon="9.303160">
        <ele>405.702565</ele>
        <time>2022-01-07T11:02:48.582Z</time>
      </trkpt>
      <trkpt lat="47.605066" lon="9.303105">
        <ele>405.651237</ele>
        <time>2022-01-07T11:02:49.620Z</time>
      </trkpt>
      <trkpt lat="47.606707" lon="9.300247">
        <ele>403.640420</ele>
        <time>2022-01-07T11:03:38.785Z</time>
      </trkpt>
      <trkpt lat="47.607780" lon="9.298350">
        <ele>404.247054</ele>
        <time>2022-01-07T11:04:19.459Z</time>
      </trkpt>
      <trkpt lat="47.607885" lon="9.298316">
        <ele>404.366839</ele>
        <time>2022-01-07T11:04:22.235Z</time>
      </trkpt>
      <trkpt lat="47.607943" lon="9.298112">
        <ele>404.533205</ele>
        <time>2022-01-07T11:04:26.226Z</time>
      </trkpt>
      <trkpt lat="47.608640" lon="9.297103">
        <ele>405.618722</ele>
        <time>2022-01-07T11:04:52.586Z</time>
      </trkpt>
      <trkpt lat="47.608716" lon="9.296845">
        <ele>405.830287</ele>
        <time>2022-01-07T11:04:57.761Z</time>
      </trkpt>
      <trkpt lat="47.608346" lon="9.296272">
        <ele>406.453710</ele>
        <time>2022-01-07T11:05:12.333Z</time>
      </trkpt>
      <trkpt lat="47.607861" lon="9.295588">
        <ele>407.291316</ele>
        <time>2022-01-07T11:05:30.990Z</time>
      </trkpt>
      <trkpt lat="47.607707" lon="9.295374">
        <ele>407.555432</ele>
        <time>2022-01-07T11:05:36.918Z</time>
      </trkpt>
      <trkpt lat="47.607450" lon="9.295038">
        <ele>407.984205</ele>
        <time>2022-01-07T11:05:46.388Z</time>
      </trkpt>
      <trkpt lat="47.607927" lon="9.294173">
        <ele>408.742339</ele>
        <time>2022-01-07T11:06:05.860Z</time>
      </trkpt>
      <trkpt lat="47.608183" lon="9.293875">
        <ele>408.989813</ele>
        <time>2022-01-07T11:06:13.984Z</time>
      </trkpt>
      <trkpt lat="47.608411" lon="9.293481">
        <ele>409.256024</ele>
        <time>2022-01-07T11:06:22.621Z</time>
      </trkpt>
      <trkpt lat="47.608620" lon="9.293105">
        <ele>409.505871</ele>
        <time>2022-01-07T11:06:30.815Z</time>
      </trkpt>
      <trkpt lat="47.609079" lon="9.292241">
        <ele>410.142105</ele>
        <time>2022-01-07T11:06:49.480Z</time>
      </trkpt>
      <trkpt lat="47.610573" lon="9.289442">
        <ele>411.813586</ele>
        <time>2022-01-07T11:07:53.176Z</time>
      </trkpt>
      <trkpt lat="47.610414" lon="9.289218">
        <ele>411.865334</ele>
        <time>2022-01-07T11:07:58.562Z</time>
      </trkpt>
      <trkpt lat="47.612720" lon="9.285012">
        <ele>409.284785</ele>
        <time>2022-01-07T11:09:08.926Z</time>
      </trkpt>
      <trkpt lat="47.613175" lon="9.284025">
        <ele>408.882628</ele>
        <time>2022-01-07T11:09:25.450Z</time>
      </trkpt>
      <trkpt lat="47.617080" lon="9.275463">
        <ele>410.793315</ele>
        <time>2022-01-07T11:12:09.536Z</time>
      </trkpt>
      <trkpt lat="47.617662" lon="9.274170">
        <ele>410.943058</ele>
        <time>2022-01-07T11:12:33.667Z</time>
      </trkpt>
      <trkpt lat="47.618541" lon="9.272203">
        <ele>411.044371</ele>
        <time>2022-01-07T11:13:08.982Z</time>
      </trkpt>
      <trkpt lat="47.619995" lon="9.268995">
        <ele>411.272976</ele>
        <time>2022-01-07T11:14:07.147Z</time>
      </trkpt>
      <trkpt lat="47.620147" lon="9.268560">
        <ele>411.414842</ele>
        <time>2022-01-07T11:14:15.175Z</time>
      </trkpt>
      <trkpt lat="47.620157" lon="9.268528">
        <ele>411.431553</ele>
        <time>2022-01-07T11:14:15.767Z</time>
      </trkpt>
      <trkpt lat="47.620294" lon="9.268079">
        <ele>411.665071</ele>
        <time>2022-01-07T11:14:24.037Z</time>
      </trkpt>
      <trkpt lat="47.620669" lon="9.266828">
        <ele>412.313762</ele>
        <time>2022-01-07T11:14:48.485Z</time>
      </trkpt>
      <trkpt lat="47.621060" lon="9.265985">
        <ele>412.546228</ele>
        <time>2022-01-07T11:15:05.050Z</time>
      </trkpt>
      <trkpt lat="47.621182" lon="9.265695">
        <ele>412.536486</ele>
        <time>2022-01-07T11:15:10.316Z</time>
      </trkpt>
      <trkpt lat="47.621481" lon="9.265013">
        <ele>412.513302</ele>
        <time>2022-01-07T11:15:22.461Z</time>
      </trkpt>
      <trkpt lat="47.621643" lon="9.264829">
        <ele>412.504676</ele>
        <time>2022-01-07T11:15:26.927Z</time>
      </trkpt>
      <trkpt lat="47.621815" lon="9.264596">
        <ele>412.494828</ele>
        <time>2022-01-07T11:15:31.730Z</time>
      </trkpt>
      <trkpt lat="47.622081" lon="9.264004">
        <ele>412.297484</ele>
        <time>2022-01-07T11:15:41.630Z</time>
      </trkpt>
      <trkpt lat="47.622513" lon="9.263232">
        <ele>411.759945</ele>
        <time>2022-01-07T11:15:54.518Z</time>
      </trkpt>
      <trkpt lat="47.623475" lon="9.260997">
        <ele>410.572647</ele>
        <time>2022-01-07T11:16:30.108Z</time>
      </trkpt>
      <trkpt lat="47.625293" lon="9.256571">
        <ele>409.188576</ele>
        <time>2022-01-07T11:17:43.425Z</time>
      </trkpt>
      <trkpt lat="47.626127" lon="9.254715">
        <ele>408.867794</ele>
        <time>2022-01-07T11:18:14.881Z</time>
      </trkpt>
      <trkpt lat="47.627170" lon="9.251962">
        <ele>409.349615</ele>
        <time>2022-01-07T11:19:04.660Z</time>
      </trkpt>
      <trkpt lat="47.627336" lon="9.252092">
        <ele>409.436391</ele>
        <time>2022-01-07T11:19:08.956Z</time>
      </trkpt>
      <trkpt lat="47.627826" lon="9.250580">
        <ele>409.914159</ele>
        <time>2022-01-07T11:19:37.685Z</time>
      </trkpt>
      <trkpt lat="47.628304" lon="9.249180">
        <ele>410.267572</ele>
        <time>2022-01-07T11:20:03.159Z</time>
      </trkpt>
      <trkpt lat="47.628581" lon="9.248413">
        <ele>410.134469</ele>
        <time>2022-01-07T11:20:15.859Z</time>
      </trkpt>
      <trkpt lat="47.628632" lon="9.248267">
        <ele>409.985715</ele>
        <time>2022-01-07T11:20:18.169Z</time>
      </trkpt>
      <trkpt lat="47.628759" lon="9.247887">
        <ele>409.602031</ele>
        <time>2022-01-07T11:20:23.771Z</time>
      </trkpt>
      <trkpt lat="47.628975" lon="9.247244">
        <ele>408.952141</ele>
        <time>2022-01-07T11:20:32.690Z</time>
      </trkpt>
      <trkpt lat="47.629152" lon="9.246616">
        <ele>408.336397</ele>
        <time>2022-01-07T11:20:40.704Z</time>
      </trkpt>
      <trkpt lat="47.629215" lon="9.246369">
        <ele>408.097503</ele>
        <time>2022-01-07T11:20:44.942Z</time>
      </trkpt>
      <trkpt lat="47.630220" lon="9.243507">
        <ele>403.949433</ele>
        <time>2022-01-07T11:21:22.608Z</time>
      </trkpt>
      <trkpt lat="47.630749" lon="9.241939">
        <ele>402.966783</ele>
        <time>2022-01-07T11:21:46.168Z</time>
      </trkpt>
      <trkpt lat="47.631048" lon="9.240885">
        <ele>402.859328</ele>
        <time>2022-01-07T11:22:04.174Z</time>
      </trkpt>
      <trkpt lat="47.631099" lon="9.240711">
        <ele>402.906191</ele>
        <time>2022-01-07T11:22:07.207Z</time>
      </trkpt>
      <trkpt lat="47.631500" lon="9.239283">
        <ele>403.288270</ele>
        <time>2022-01-07T11:22:32.201Z</time>
      </trkpt>
      <trkpt lat="47.631614" lon="9.239205">
        <ele>403.334277</ele>
        <time>2022-01-07T11:22:35.274Z</time>
      </trkpt>
      <trkpt lat="47.632098" lon="9.239203">
        <ele>403.558973</ele>
        <time>2022-01-07T11:22:47.361Z</time>
      </trkpt>
      <trkpt lat="47.632443" lon="9.239161">
        <ele>403.724237</ele>
        <time>2022-01-07T11:22:55.786Z</time>
      </trkpt>
      <trkpt lat="47.632407" lon="9.237472">
        <ele>404.369864</ele>
        <time>2022-01-07T11:23:21.704Z</time>
      </trkpt>
      <trkpt lat="47.632838" lon="9.235444">
        <ele>406.349369</ele>
        <time>2022-01-07T11:24:02.719Z</time>
      </trkpt>
      <trkpt lat="47.632800" lon="9.235023">
        <ele>406.751479</ele>
        <time>2022-01-07T11:24:10.726Z</time>
      </trkpt>
      <trkpt lat="47.632549" lon="9.235077">
        <ele>407.152811</ele>
        <time>2022-01-07T11:24:18.979Z</time>
      </trkpt>
      <trkpt lat="47.632304" lon="9.234903">
        <ele>407.582609</ele>
        <time>2022-01-07T11:24:26.824Z</time>
      </trkpt>
      <trkpt lat="47.632233" lon="9.234643">
        <ele>407.881758</ele>
        <time>2022-01-07T11:24:31.257Z</time>
      </trkpt>
      <trkpt lat="47.632260" lon="9.234319">
        <ele>408.229887</ele>
        <time>2022-01-07T11:24:38.604Z</time>
      </trkpt>
      <trkpt lat="47.632374" lon="9.232983">
        <ele>409.545048</ele>
        <time>2022-01-07T11:25:04.856Z</time>
      </trkpt>
      <trkpt lat="47.632342" lon="9.232803">
        <ele>409.545408</ele>
        <time>2022-01-07T11:25:08.154Z</time>
      </trkpt>
      <trkpt lat="47.632399" lon="9.232743">
        <ele>409.545609</ele>
        <time>2022-01-07T11:25:09.629Z</time>
      </trkpt>
      <trkpt lat="47.632547" lon="9.232565">
        <ele>409.546157</ele>
        <time>2022-01-07T11:25:13.709Z</time>
      </trkpt>
      <trkpt lat="47.632583" lon="9.232433">
        <ele>409.546433</ele>
        <time>2022-01-07T11:25:16.108Z</time>
      </trkpt>
      <trkpt lat="47.632741" lon="9.231574">
        <ele>409.548158</ele>
        <time>2022-01-07T11:25:28.355Z</time>
      </trkpt>
      <trkpt lat="47.632786" lon="9.231525">
        <ele>409.548318</ele>
        <time>2022-01-07T11:25:29.543Z</time>
      </trkpt>
      <trkpt lat="47.632927" lon="9.230430">
        <ele>409.516354</ele>
        <time>2022-01-07T11:25:45.108Z</time>
      </trkpt>
      <trkpt lat="47.632894" lon="9.229512">
        <ele>409.391378</ele>
        <time>2022-01-07T11:25:59.083Z</time>
      </trkpt>
      <trkpt lat="47.632998" lon="9.229083">
        <ele>409.329398</ele>
        <time>2022-01-07T11:26:05.708Z</time>
      </trkpt>
      <trkpt lat="47.633108" lon="9.228567">
        <ele>409.255823</ele>
        <time>2022-01-07T11:26:13.548Z</time>
      </trkpt>
      <trkpt lat="47.633164" lon="9.228181">
        <ele>409.202146</ele>
        <time>2022-01-07T11:26:19.190Z</time>
      </trkpt>
      <trkpt lat="47.633211" lon="9.227800">
        <ele>409.110131</ele>
        <time>2022-01-07T11:26:24.650Z</time>
      </trkpt>
      <trkpt lat="47.633242" lon="9.227439">
        <ele>409.008946</ele>
        <time>2022-01-07T11:26:29.661Z</time>
      </trkpt>
      <trkpt lat="47.633255" lon="9.227283">
        <ele>408.965241</ele>
        <time>2022-01-07T11:26:31.815Z</time>
      </trkpt>
      <trkpt lat="47.633275" lon="9.227113">
        <ele>408.917259</ele>
        <time>2022-01-07T11:26:34.218Z</time>
      </trkpt>
      <trkpt lat="47.633304" lon="9.226830">
        <ele>408.837669</ele>
        <time>2022-01-07T11:26:38.273Z</time>
      </trkpt>
      <trkpt lat="47.633360" lon="9.226541">
        <ele>408.754060</ele>
        <time>2022-01-07T11:26:42.839Z</time>
      </trkpt>
      <trkpt lat="47.633498" lon="9.226389">
        <ele>408.683150</ele>
        <time>2022-01-07T11:26:46.438Z</time>
      </trkpt>
      <trkpt lat="47.633694" lon="9.225260">
        <ele>408.263009</ele>
        <time>2022-01-07T11:27:02.657Z</time>
      </trkpt>
      <trkpt lat="47.633752" lon="9.224830">
        <ele>408.005042</ele>
        <time>2022-01-07T11:27:08.350Z</time>
      </trkpt>
      <trkpt lat="47.633705" lon="9.224619">
        <ele>407.874315</ele>
        <time>2022-01-07T11:27:11.244Z</time>
      </trkpt>
      <trkpt lat="47.633684" lon="9.224572">
        <ele>407.841141</ele>
        <time>2022-01-07T11:27:12.015Z</time>
      </trkpt>
      <trkpt lat="47.633897" lon="9.223722">
        <ele>407.307671</ele>
        <time>2022-01-07T11:27:23.482Z</time>
      </trkpt>
      <trkpt lat="47.633993" lon="9.223653">
        <ele>407.214555</ele>
        <time>2022-01-07T11:27:25.700Z</time>
      </trkpt>
      <trkpt lat="47.634322" lon="9.223677">
        <ele>406.927006</ele>
        <time>2022-01-07T11:27:32.168Z</time>
      </trkpt>
      <trkpt lat="47.634435" lon="9.223574">
        <ele>406.826874</ele>
        <time>2022-01-07T11:27:34.857Z</time>
      </trkpt>
      <trkpt lat="47.634599" lon="9.223181">
        <ele>406.621745</ele>
        <time>2022-01-07T11:27:41.219Z</time>
      </trkpt>
      <trkpt lat="47.634661" lon="9.223014">
        <ele>406.537135</ele>
        <time>2022-01-07T11:27:43.689Z</time>
      </trkpt>
      <trkpt lat="47.635106" lon="9.221999">
        <ele>405.999785</ele>
        <time>2022-01-07T11:27:59.759Z</time>
      </trkpt>
      <trkpt lat="47.635122" lon="9.221702">
        <ele>405.867570</ele>
        <time>2022-01-07T11:28:03.860Z</time>
      </trkpt>
      <trkpt lat="47.635192" lon="9.221452">
        <ele>405.747436</ele>
        <time>2022-01-07T11:28:07.615Z</time>
      </trkpt>
      <trkpt lat="47.636073" lon="9.220322">
        <ele>405.614609</ele>
        <time>2022-01-07T11:28:32.962Z</time>
      </trkpt>
      <trkpt lat="47.637100" lon="9.219076">
        <ele>405.723519</ele>
        <time>2022-01-07T11:29:03.161Z</time>
      </trkpt>
      <trkpt lat="47.637667" lon="9.218404">
        <ele>405.914708</ele>
        <time>2022-01-07T11:29:20.335Z</time>
      </trkpt>
      <trkpt lat="47.637837" lon="9.218170">
        <ele>405.975801</ele>
        <time>2022-01-07T11:29:25.851Z</time>
      </trkpt>
      <trkpt lat="47.637890" lon="9.218101">
        <ele>405.994377</ele>
        <time>2022-01-07T11:29:27.518Z</time>
      </trkpt>
      <trkpt lat="47.637952" lon="9.218019">
        <ele>406.016259</ele>
        <time>2022-01-07T11:29:29.483Z</time>
      </trkpt>
      <trkpt lat="47.638317" lon="9.217577">
        <ele>406.051511</ele>
        <time>2022-01-07T11:29:40.513Z</time>
      </trkpt>
      <trkpt lat="47.639068" lon="9.216455">
        <ele>406.088976</ele>
        <time>2022-01-07T11:30:04.676Z</time>
      </trkpt>
      <trkpt lat="47.639285" lon="9.216062">
        <ele>406.101013</ele>
        <time>2022-01-07T11:30:11.881Z</time>
      </trkpt>
      <trkpt lat="47.639696" lon="9.215314">
        <ele>405.947218</ele>
        <time>2022-01-07T11:30:25.090Z</time>
      </trkpt>
      <trkpt lat="47.640026" lon="9.214712">
        <ele>405.823246</ele>
        <time>2022-01-07T11:30:36.422Z</time>
      </trkpt>
      <trkpt lat="47.640100" lon="9.214576">
        <ele>405.795321</ele>
        <time>2022-01-07T11:30:39.096Z</time>
      </trkpt>
      <trkpt lat="47.640441" lon="9.213897">
        <ele>405.631244</ele>
        <time>2022-01-07T11:30:51.874Z</time>
      </trkpt>
      <trkpt lat="47.641072" lon="9.212628">
        <ele>404.882120</ele>
        <time>2022-01-07T11:31:13.765Z</time>
      </trkpt>
      <trkpt lat="47.641894" lon="9.210713">
        <ele>403.417744</ele>
        <time>2022-01-07T11:31:42.496Z</time>
      </trkpt>
      <trkpt lat="47.642151" lon="9.210789">
        <ele>403.114794</ele>
        <time>2022-01-07T11:31:47.330Z</time>
      </trkpt>
      <trkpt lat="47.642548" lon="9.211163">
        <ele>402.571188</ele>
        <time>2022-01-07T11:31:56.262Z</time>
      </trkpt>
      <trkpt lat="47.642658" lon="9.211090">
        <ele>402.431887</ele>
        <time>2022-01-07T11:31:58.497Z</time>
      </trkpt>
      <trkpt lat="47.643108" lon="9.210807">
        <ele>402.483862</ele>
        <time>2022-01-07T11:32:08.278Z</time>
      </trkpt>
      <trkpt lat="47.643109" lon="9.210664">
        <ele>402.521737</ele>
        <time>2022-01-07T11:32:10.423Z</time>
      </trkpt>
      <trkpt lat="47.643361" lon="9.210382">
        <ele>402.645799</ele>
        <time>2022-01-07T11:32:17.593Z</time>
      </trkpt>
      <trkpt lat="47.643544" lon="9.209973">
        <ele>402.775833</ele>
        <time>2022-01-07T11:32:26.174Z</time>
      </trkpt>
      <trkpt lat="47.643566" lon="9.209818">
        <ele>402.817785</ele>
        <time>2022-01-07T11:32:28.880Z</time>
      </trkpt>
      <trkpt lat="47.643549" lon="9.209771">
        <ele>402.831913</ele>
        <time>2022-01-07T11:32:29.810Z</time>
      </trkpt>
      <trkpt lat="47.643466" lon="9.209653">
        <ele>402.877093</ele>
        <time>2022-01-07T11:32:32.947Z</time>
      </trkpt>
      <trkpt lat="47.643181" lon="9.209365">
        <ele>403.012628</ele>
        <time>2022-01-07T11:32:42.488Z</time>
      </trkpt>
      <trkpt lat="47.642941" lon="9.209103">
        <ele>403.244683</ele>
        <time>2022-01-07T11:32:50.640Z</time>
      </trkpt>
      <trkpt lat="47.642653" lon="9.208643">
        <ele>403.611392</ele>
        <time>2022-01-07T11:33:01.928Z</time>
      </trkpt>
      <trkpt lat="47.642639" lon="9.208613">
        <ele>403.632703</ele>
        <time>2022-01-07T11:33:02.586Z</time>
      </trkpt>
      <trkpt lat="47.642635" lon="9.208525">
        <ele>403.684210</ele>
        <time>2022-01-07T11:33:04.227Z</time>
      </trkpt>
      <trkpt lat="47.642709" lon="9.208442">
        <ele>403.764605</ele>
        <time>2022-01-07T11:33:06.611Z</time>
      </trkpt>
      <trkpt lat="47.643005" lon="9.207329">
        <ele>404.463376</ele>
        <time>2022-01-07T11:33:27.493Z</time>
      </trkpt>
      <trkpt lat="47.643010" lon="9.206997">
        <ele>404.563109</ele>
        <time>2022-01-07T11:33:32.855Z</time>
      </trkpt>
      <trkpt lat="47.643037" lon="9.206876">
        <ele>404.527933</ele>
        <time>2022-01-07T11:33:34.746Z</time>
      </trkpt>
      <trkpt lat="47.643343" lon="9.205452">
        <ele>404.115451</ele>
        <time>2022-01-07T11:33:55.643Z</time>
      </trkpt>
      <trkpt lat="47.643486" lon="9.204452">
        <ele>403.828881</ele>
        <time>2022-01-07T11:34:09.211Z</time>
      </trkpt>
      <trkpt lat="47.643588" lon="9.202952">
        <ele>403.333152</ele>
        <time>2022-01-07T11:34:29.228Z</time>
      </trkpt>
      <trkpt lat="47.643655" lon="9.202820">
        <ele>403.278810</ele>
        <time>2022-01-07T11:34:31.466Z</time>
      </trkpt>
      <trkpt lat="47.643955" lon="9.202700">
        <ele>403.127173</ele>
        <time>2022-01-07T11:34:38.276Z</time>
      </trkpt>
      <trkpt lat="47.643997" lon="9.202582">
        <ele>403.083291</ele>
        <time>2022-01-07T11:34:40.137Z</time>
      </trkpt>
      <trkpt lat="47.644363" lon="9.200949">
        <ele>402.981449</ele>
        <time>2022-01-07T11:35:06.859Z</time>
      </trkpt>
      <trkpt lat="47.644294" lon="9.200839">
        <ele>402.981734</ele>
        <time>2022-01-07T11:35:09.296Z</time>
      </trkpt>
      <trkpt lat="47.644596" lon="9.199354">
        <ele>402.724160</ele>
        <time>2022-01-07T11:35:31.794Z</time>
      </trkpt>
      <trkpt lat="47.644686" lon="9.198852">
        <ele>402.414032</ele>
        <time>2022-01-07T11:35:38.832Z</time>
      </trkpt>
      <trkpt lat="47.644729" lon="9.198610">
        <ele>402.264616</ele>
        <time>2022-01-07T11:35:42.121Z</time>
      </trkpt>
      <trkpt lat="47.644742" lon="9.198538">
        <ele>402.220115</ele>
        <time>2022-01-07T11:35:43.090Z</time>
      </trkpt>
      <trkpt lat="47.644812" lon="9.198316">
        <ele>402.073783</ele>
        <time>2022-01-07T11:35:46.282Z</time>
      </trkpt>
      <trkpt lat="47.644858" lon="9.198082">
        <ele>401.928258</ele>
        <time>2022-01-07T11:35:49.336Z</time>
      </trkpt>
      <trkpt lat="47.644904" lon="9.197852">
        <ele>401.785024</ele>
        <time>2022-01-07T11:35:52.399Z</time>
      </trkpt>
      <trkpt lat="47.644928" lon="9.197728">
        <ele>401.708002</ele>
        <time>2022-01-07T11:35:54.021Z</time>
      </trkpt>
      <trkpt lat="47.644951" lon="9.197622">
        <ele>401.641518</ele>
        <time>2022-01-07T11:35:55.395Z</time>
      </trkpt>
      <trkpt lat="47.645023" lon="9.197260">
        <ele>401.416182</ele>
        <time>2022-01-07T11:36:00.147Z</time>
      </trkpt>
      <trkpt lat="47.645291" lon="9.195918">
        <ele>400.488640</ele>
        <time>2022-01-07T11:36:18.045Z</time>
      </trkpt>
      <trkpt lat="47.645360" lon="9.195806">
        <ele>400.387748</ele>
        <time>2022-01-07T11:36:20.012Z</time>
      </trkpt>
      <trkpt lat="47.645972" lon="9.196101">
        <ele>399.752817</ele>
        <time>2022-01-07T11:36:32.618Z</time>
      </trkpt>
      <trkpt lat="47.646136" lon="9.195168">
        <ele>399.417579</ele>
        <time>2022-01-07T11:36:45.881Z</time>
      </trkpt>
      <trkpt lat="47.646189" lon="9.194768">
        <ele>399.311177</ele>
        <time>2022-01-07T11:36:51.656Z</time>
      </trkpt>
      <trkpt lat="47.646206" lon="9.194090">
        <ele>399.134095</ele>
        <time>2022-01-07T11:37:01.330Z</time>
      </trkpt>
      <trkpt lat="47.646241" lon="9.192329">
        <ele>399.022520</ele>
        <time>2022-01-07T11:37:26.920Z</time>
      </trkpt>
      <trkpt lat="47.646261" lon="9.191700">
        <ele>399.092607</ele>
        <time>2022-01-07T11:37:36.356Z</time>
      </trkpt>
      <trkpt lat="47.646365" lon="9.190975">
        <ele>399.175111</ele>
        <time>2022-01-07T11:37:47.719Z</time>
      </trkpt>
      <trkpt lat="47.647237" lon="9.189560">
        <ele>400.625930</ele>
        <time>2022-01-07T11:38:21.214Z</time>
      </trkpt>
      <trkpt lat="47.647265" lon="9.189162">
        <ele>400.989045</ele>
        <time>2022-01-07T11:38:29.194Z</time>
      </trkpt>
      <trkpt lat="47.647192" lon="9.188851">
        <ele>401.287889</ele>
        <time>2022-01-07T11:38:36.321Z</time>
      </trkpt>
      <trkpt lat="47.647171" lon="9.188414">
        <ele>401.697832</ele>
        <time>2022-01-07T11:38:45.364Z</time>
      </trkpt>
      <trkpt lat="47.647203" lon="9.188167">
        <ele>401.985959</ele>
        <time>2022-01-07T11:38:50.400Z</time>
      </trkpt>
      <trkpt lat="47.647345" lon="9.187723">
        <ele>402.548971</ele>
        <time>2022-01-07T11:39:00.396Z</time>
      </trkpt>
      <trkpt lat="47.647379" lon="9.187487">
        <ele>402.825425</ele>
        <time>2022-01-07T11:39:05.126Z</time>
      </trkpt>
      <trkpt lat="47.647575" lon="9.187237">
        <ele>403.264835</ele>
        <time>2022-01-07T11:39:12.798Z</time>
      </trkpt>
      <trkpt lat="47.647737" lon="9.187158">
        <ele>403.554776</ele>
        <time>2022-01-07T11:39:18.072Z</time>
      </trkpt>
      <trkpt lat="47.647785" lon="9.187025">
        <ele>403.727613</ele>
        <time>2022-01-07T11:39:21.282Z</time>
      </trkpt>
      <trkpt lat="47.647700" lon="9.186811">
        <ele>404.012186</ele>
        <time>2022-01-07T11:39:26.565Z</time>
      </trkpt>
      <trkpt lat="47.647423" lon="9.185454">
        <ele>404.744598</ele>
        <time>2022-01-07T11:39:54.485Z</time>
      </trkpt>
      <trkpt lat="47.647514" lon="9.185346">
        <ele>404.754729</ele>
        <time>2022-01-07T11:39:57.585Z</time>
      </trkpt>
      <trkpt lat="47.647974" lon="9.184423">
        <ele>404.821990</ele>
        <time>2022-01-07T11:40:15.737Z</time>
      </trkpt>
      <trkpt lat="47.649272" lon="9.182717">
        <ele>403.683005</ele>
        <time>2022-01-07T11:40:53.847Z</time>
      </trkpt>
      <trkpt lat="47.649508" lon="9.182433">
        <ele>403.425029</ele>
        <time>2022-01-07T11:41:00.441Z</time>
      </trkpt>
      <trkpt lat="47.649860" lon="9.181973">
        <ele>403.062429</ele>
        <time>2022-01-07T11:41:10.802Z</time>
      </trkpt>
      <trkpt lat="47.649907" lon="9.181748">
        <ele>402.943739</ele>
        <time>2022-01-07T11:41:14.405Z</time>
      </trkpt>
      <trkpt lat="47.650246" lon="9.181235">
        <ele>402.581671</ele>
        <time>2022-01-07T11:41:25.268Z</time>
      </trkpt>
      <trkpt lat="47.650426" lon="9.181120">
        <ele>402.435105</ele>
        <time>2022-01-07T11:41:29.719Z</time>
      </trkpt>
      <trkpt lat="47.650616" lon="9.181146">
        <ele>402.292397</ele>
        <time>2022-01-07T11:41:33.967Z</time>
      </trkpt>
      <trkpt lat="47.650724" lon="9.181059">
        <ele>402.200494</ele>
        <time>2022-01-07T11:41:36.742Z</time>
      </trkpt>
      <trkpt lat="47.650930" lon="9.181047">
        <ele>402.046303</ele>
        <time>2022-01-07T11:41:40.825Z</time>
      </trkpt>
      <trkpt lat="47.651115" lon="9.180897">
        <ele>401.867287</ele>
        <time>2022-01-07T11:41:45.099Z</time>
      </trkpt>
      <trkpt lat="47.651479" lon="9.180510">
        <ele>401.454478</ele>
        <time>2022-01-07T11:41:54.059Z</time>
      </trkpt>
      <trkpt lat="47.651531" lon="9.180456">
        <ele>401.395967</ele>
        <time>2022-01-07T11:41:55.299Z</time>
      </trkpt>
      <trkpt lat="47.652646" lon="9.179319">
        <ele>400.215170</ele>
        <time>2022-01-07T11:42:21.178Z</time>
      </trkpt>
      <trkpt lat="47.653020" lon="9.178938">
        <ele>399.957263</ele>
        <time>2022-01-07T11:42:29.903Z</time>
      </trkpt>
      <trkpt lat="47.652987" lon="9.178867">
        <ele>399.924224</ele>
        <time>2022-01-07T11:42:31.538Z</time>
      </trkpt>
      <trkpt lat="47.653223" lon="9.178623">
        <ele>399.760700</ele>
        <time>2022-01-07T11:42:37.295Z</time>
      </trkpt>
      <trkpt lat="47.653546" lon="9.178289">
        <ele>399.536883</ele>
        <time>2022-01-07T11:42:45.577Z</time>
      </trkpt>
      <trkpt lat="47.653632" lon="9.178201">
        <ele>399.477494</ele>
        <time>2022-01-07T11:42:47.945Z</time>
      </trkpt>
      <trkpt lat="47.653833" lon="9.178001">
        <ele>399.339910</ele>
        <time>2022-01-07T11:42:53.038Z</time>
      </trkpt>
      <trkpt lat="47.654473" lon="9.177416">
        <ele>399.584876</ele>
        <time>2022-01-07T11:43:10.261Z</time>
      </trkpt>
      <trkpt lat="47.654524" lon="9.177300">
        <ele>399.624043</ele>
        <time>2022-01-07T11:43:12.549Z</time>
      </trkpt>
      <trkpt lat="47.654498" lon="9.177122">
        <ele>399.675542</ele>
        <time>2022-01-07T11:43:15.436Z</time>
      </trkpt>
      <trkpt lat="47.654127" lon="9.176356">
        <ele>399.942302</ele>
        <time>2022-01-07T11:43:30.988Z</time>
      </trkpt>
      <trkpt lat="47.654111" lon="9.176319">
        <ele>399.954734</ele>
        <time>2022-01-07T11:43:31.706Z</time>
      </trkpt>
      <trkpt lat="47.653863" lon="9.175792">
        <ele>400.355061</ele>
        <time>2022-01-07T11:43:42.044Z</time>
      </trkpt>
      <trkpt lat="47.655272" lon="9.175467">
        <ele>402.545569</ele>
        <time>2022-01-07T11:44:23.163Z</time>
      </trkpt>
      <trkpt lat="47.655154" lon="9.174330">
        <ele>403.953296</ele>
        <time>2022-01-07T11:44:47.631Z</time>
      </trkpt>
      <trkpt lat="47.655149" lon="9.174275">
        <ele>404.024311</ele>
        <time>2022-01-07T11:44:48.827Z</time>
      </trkpt>
      <trkpt lat="47.655124" lon="9.174037">
        <ele>404.332531</ele>
        <time>2022-01-07T11:44:53.812Z</time>
      </trkpt>
      <trkpt lat="47.655101" lon="9.173811">
        <ele>404.624997</ele>
        <time>2022-01-07T11:44:58.577Z</time>
      </trkpt>
      <trkpt lat="47.655068" lon="9.173501">
        <ele>405.026589</ele>
        <time>2022-01-07T11:45:05.125Z</time>
      </trkpt>
      <trkpt lat="47.655069" lon="9.173366">
        <ele>405.199343</ele>
        <time>2022-01-07T11:45:07.874Z</time>
      </trkpt>
      <trkpt lat="47.655102" lon="9.173190">
        <ele>405.433110</ele>
        <time>2022-01-07T11:45:11.839Z</time>
      </trkpt>
      <trkpt lat="47.655305" lon="9.171863">
        <ele>406.062764</ele>
        <time>2022-01-07T11:45:36.838Z</time>
      </trkpt>
      <trkpt lat="47.654800" lon="9.170672">
        <ele>405.734365</ele>
        <time>2022-01-07T11:45:55.424Z</time>
      </trkpt>
      <trkpt lat="47.654768" lon="9.170602">
        <ele>405.714624</ele>
        <time>2022-01-07T11:45:56.490Z</time>
      </trkpt>
      <trkpt lat="47.654921" lon="9.170267">
        <ele>405.620176</ele>
        <time>2022-01-07T11:46:01.544Z</time>
      </trkpt>
      <trkpt lat="47.655674" lon="9.169855">
        <ele>404.472338</ele>
        <time>2022-01-07T11:46:16.259Z</time>
      </trkpt>
      <trkpt lat="47.655696" lon="9.169843">
        <ele>404.437958</ele>
        <time>2022-01-07T11:46:16.697Z</time>
      </trkpt>
      <trkpt lat="47.655942" lon="9.169699">
        <ele>404.050081</ele>
        <time>2022-01-07T11:46:21.505Z</time>
      </trkpt>
      <trkpt lat="47.655947" lon="9.169470">
        <ele>403.823703</ele>
        <time>2022-01-07T11:46:24.300Z</time>
      </trkpt>
      <trkpt lat="47.655953" lon="9.169336">
        <ele>403.691015</ele>
        <time>2022-01-07T11:46:25.937Z</time>
      </trkpt>
      <trkpt lat="47.655695" lon="9.169093">
        <ele>403.242838</ele>
        <time>2022-01-07T11:46:31.496Z</time>
      </trkpt>
      <trkpt lat="47.655739" lon="9.168992">
        <ele>403.123994</ele>
        <time>2022-01-07T11:46:32.986Z</time>
      </trkpt>
      <trkpt lat="47.655823" lon="9.168789">
        <ele>402.899015</ele>
        <time>2022-01-07T11:46:35.916Z</time>
      </trkpt>
      <trkpt lat="47.655896" lon="9.168613">
        <ele>402.720057</ele>
        <time>2022-01-07T11:46:38.520Z</time>
      </trkpt>
      <trkpt lat="47.655956" lon="9.168466">
        <ele>402.571237</ele>
        <time>2022-01-07T11:46:40.715Z</time>
      </trkpt>
      <trkpt lat="47.656502" lon="9.168924">
        <ele>401.765129</ele>
        <time>2022-01-07T11:46:52.473Z</time>
      </trkpt>
      <trkpt lat="47.657027" lon="9.168168">
        <ele>400.825001</ele>
        <time>2022-01-07T11:47:06.141Z</time>
      </trkpt>
      <trkpt lat="47.657070" lon="9.168044">
        <ele>400.704249</ele>
        <time>2022-01-07T11:47:07.988Z</time>
      </trkpt>
      <trkpt lat="47.657166" lon="9.167759">
        <ele>400.493913</ele>
        <time>2022-01-07T11:47:12.021Z</time>
      </trkpt>
      <trkpt lat="47.657500" lon="9.167234">
        <ele>400.044980</ele>
        <time>2022-01-07T11:47:21.343Z</time>
      </trkpt>
      <trkpt lat="47.657766" lon="9.166963">
        <ele>399.747236</ele>
        <time>2022-01-07T11:47:27.489Z</time>
      </trkpt>
      <trkpt lat="47.659815" lon="9.163900">
        <ele>397.862477</ele>
        <time>2022-01-07T11:48:26.045Z</time>
      </trkpt>
      <trkpt lat="47.660039" lon="9.163610">
        <ele>397.778269</ele>
        <time>2022-01-07T11:48:32.877Z</time>
      </trkpt>
      <trkpt lat="47.660271" lon="9.163431">
        <ele>397.704188</ele>
        <time>2022-01-07T11:48:38.688Z</time>
      </trkpt>
      <trkpt lat="47.661005" lon="9.162355">
        <ele>397.424152</ele>
        <time>2022-01-07T11:49:00.387Z</time>
      </trkpt>
      <trkpt lat="47.661137" lon="9.161992">
        <ele>397.382437</ele>
        <time>2022-01-07T11:49:06.486Z</time>
      </trkpt>
      <trkpt lat="47.661183" lon="9.161535">
        <ele>397.335712</ele>
        <time>2022-01-07T11:49:13.230Z</time>
      </trkpt>
      <trkpt lat="47.661217" lon="9.161086">
        <ele>397.290023</ele>
        <time>2022-01-07T11:49:19.822Z</time>
      </trkpt>
      <trkpt lat="47.661253" lon="9.160633">
        <ele>397.243897</ele>
        <time>2022-01-07T11:49:26.464Z</time>
      </trkpt>
      <trkpt lat="47.661267" lon="9.160383">
        <ele>397.218530</ele>
        <time>2022-01-07T11:49:30.206Z</time>
      </trkpt>
      <trkpt lat="47.661181" lon="9.159928">
        <ele>397.170743</ele>
        <time>2022-01-07T11:49:36.947Z</time>
      </trkpt>
      <trkpt lat="47.662831" lon="9.159145">
        <ele>397.273520</ele>
        <time>2022-01-07T11:50:16.278Z</time>
      </trkpt>
      <trkpt lat="47.662710" lon="9.158495">
        <ele>397.253703</ele>
        <time>2022-01-07T11:50:26.555Z</time>
      </trkpt>
      <trkpt lat="47.662512" lon="9.157480">
        <ele>397.205285</ele>
        <time>2022-01-07T11:50:42.297Z</time>
      </trkpt>
      <trkpt lat="47.662501" lon="9.157426">
        <ele>397.202700</ele>
        <time>2022-01-07T11:50:43.110Z</time>
      </trkpt>
      <trkpt lat="47.662459" lon="9.157251">
        <ele>397.194187</ele>
        <time>2022-01-07T11:50:45.776Z</time>
      </trkpt>
      <trkpt lat="47.662252" lon="9.156066">
        <ele>397.105194</ele>
        <time>2022-01-07T11:51:03.291Z</time>
      </trkpt>
      <trkpt lat="47.662157" lon="9.155535">
        <ele>397.034830</ele>
        <time>2022-01-07T11:51:11.280Z</time>
      </trkpt>
      <trkpt lat="47.661563" lon="9.151933">
        <ele>396.676489</ele>
        <time>2022-01-07T11:52:05.479Z</time>
      </trkpt>
      <trkpt lat="47.661010" lon="9.148291">
        <ele>396.724632</ele>
        <time>2022-01-07T11:53:01.476Z</time>
      </trkpt>
      <trkpt lat="47.660725" lon="9.146624">
        <ele>396.812738</ele>
        <time>2022-01-07T11:53:28.381Z</time>
      </trkpt>
      <trkpt lat="47.660463" lon="9.145092">
        <ele>396.802977</ele>
        <time>2022-01-07T11:53:51.412Z</time>
      </trkpt>
      <trkpt lat="47.660354" lon="9.144556">
        <ele>396.781336</ele>
        <time>2022-01-07T11:53:59.597Z</time>
      </trkpt>
      <trkpt lat="47.660289" lon="9.144401">
        <ele>396.774279</ele>
        <time>2022-01-07T11:54:02.371Z</time>
      </trkpt>
      <trkpt lat="47.660207" lon="9.144341">
        <ele>396.769033</ele>
        <time>2022-01-07T11:54:04.251Z</time>
      </trkpt>
      <trkpt lat="47.660223" lon="9.144253">
        <ele>396.765510</ele>
        <time>2022-01-07T11:54:05.671Z</time>
      </trkpt>
      <trkpt lat="47.660141" lon="9.143224">
        <ele>396.871215</ele>
        <time>2022-01-07T11:54:21.032Z</time>
      </trkpt>
      <trkpt lat="47.660109" lon="9.142229">
        <ele>397.254110</ele>
        <time>2022-01-07T11:54:36.809Z</time>
      </trkpt>
      <trkpt lat="47.660107" lon="9.142103">
        <ele>397.302555</ele>
        <time>2022-01-07T11:54:39.057Z</time>
      </trkpt>
      <trkpt lat="47.660100" lon="9.141688">
        <ele>397.462123</ele>
        <time>2022-01-07T11:54:46.333Z</time>
      </trkpt>
      <trkpt lat="47.660042" lon="9.139269">
        <ele>398.890853</ele>
        <time>2022-01-07T11:55:29.109Z</time>
      </trkpt>
      <trkpt lat="47.660004" lon="9.138228">
        <ele>399.610023</ele>
        <time>2022-01-07T11:55:48.015Z</time>
      </trkpt>
      <trkpt lat="47.659895" lon="9.136615">
        <ele>400.765659</ele>
        <time>2022-01-07T11:56:15.508Z</time>
      </trkpt>
      <trkpt lat="47.659837" lon="9.136310">
        <ele>400.991586</ele>
        <time>2022-01-07T11:56:21.118Z</time>
      </trkpt>
      <trkpt lat="47.659883" lon="9.136062">
        <ele>401.174960</ele>
        <time>2022-01-07T11:56:25.711Z</time>
      </trkpt>
      <trkpt lat="47.659900" lon="9.135878">
        <ele>401.307357</ele>
        <time>2022-01-07T11:56:29.343Z</time>
      </trkpt>
      <trkpt lat="47.659988" lon="9.134942">
        <ele>401.984996</ele>
        <time>2022-01-07T11:56:47.963Z</time>
      </trkpt>
      <trkpt lat="47.660080" lon="9.134783">
        <ele>402.135672</ele>
        <time>2022-01-07T11:56:52.227Z</time>
      </trkpt>
      <trkpt lat="47.660249" lon="9.134679">
        <ele>402.330915</ele>
        <time>2022-01-07T11:56:57.721Z</time>
      </trkpt>
      <trkpt lat="47.660957" lon="9.134695">
        <ele>403.086609</ele>
        <time>2022-01-07T11:57:16.158Z</time>
      </trkpt>
      <trkpt lat="47.661763" lon="9.134691">
        <ele>402.877278</ele>
        <time>2022-01-07T11:57:34.367Z</time>
      </trkpt>
      <trkpt lat="47.661808" lon="9.134291">
        <ele>402.564931</ele>
        <time>2022-01-07T11:57:40.063Z</time>
      </trkpt>
      <trkpt lat="47.661819" lon="9.134174">
        <ele>402.473944</ele>
        <time>2022-01-07T11:57:41.861Z</time>
      </trkpt>
      <trkpt lat="47.662160" lon="9.130472">
        <ele>398.449230</ele>
        <time>2022-01-07T11:59:00.459Z</time>
      </trkpt>
      <trkpt lat="47.662371" lon="9.128255">
        <ele>396.963352</ele>
        <time>2022-01-07T11:59:51.416Z</time>
      </trkpt>
      <trkpt lat="47.662500" lon="9.126948">
        <ele>396.510999</ele>
        <time>2022-01-07T12:00:23.597Z</time>
      </trkpt>
      <trkpt lat="47.662818" lon="9.121331">
        <ele>396.739607</ele>
        <time>2022-01-07T12:02:44.860Z</time>
      </trkpt>
      <trkpt lat="47.663043" lon="9.117489">
        <ele>397.913310</ele>
        <time>2022-01-07T12:03:55.476Z</time>
      </trkpt>
      <trkpt lat="47.663153" lon="9.116807">
        <ele>398.128790</ele>
        <time>2022-01-07T12:04:07.588Z</time>
      </trkpt>
      <trkpt lat="47.663349" lon="9.114095">
        <ele>398.327916</ele>
        <time>2022-01-07T12:04:53.071Z</time>
      </trkpt>
      <trkpt lat="47.663341" lon="9.113398">
        <ele>398.678283</ele>
        <time>2022-01-07T12:05:05.156Z</time>
      </trkpt>
      <trkpt lat="47.663247" lon="9.112564">
        <ele>399.103285</ele>
        <time>2022-01-07T12:05:20.336Z</time>
      </trkpt>
      <trkpt lat="47.663334" lon="9.111161">
        <ele>399.972904</ele>
        <time>2022-01-07T12:05:49.048Z</time>
      </trkpt>
      <trkpt lat="47.663350" lon="9.111016">
        <ele>400.109739</ele>
        <time>2022-01-07T12:05:51.944Z</time>
      </trkpt>
      <trkpt lat="47.663507" lon="9.110668">
        <ele>400.499818</ele>
        <time>2022-01-07T12:06:00.779Z</time>
      </trkpt>
      <trkpt lat="47.663525" lon="9.110557">
        <ele>400.606143</ele>
        <time>2022-01-07T12:06:02.991Z</time>
      </trkpt>
      <trkpt lat="47.663486" lon="9.110426">
        <ele>400.739528</ele>
        <time>2022-01-07T12:06:06.160Z</time>
      </trkpt>
      <trkpt lat="47.663330" lon="9.110364">
        <ele>400.962835</ele>
        <time>2022-01-07T12:06:11.056Z</time>
      </trkpt>
      <trkpt lat="47.663202" lon="9.109910">
        <ele>401.421188</ele>
        <time>2022-01-07T12:06:25.251Z</time>
      </trkpt>
      <trkpt lat="47.663082" lon="9.109089">
        <ele>402.133313</ele>
        <time>2022-01-07T12:06:49.218Z</time>
      </trkpt>
      <trkpt lat="47.663131" lon="9.108420">
        <ele>402.293392</ele>
        <time>2022-01-07T12:07:07.977Z</time>
      </trkpt>
      <trkpt lat="47.663018" lon="9.107526">
        <ele>402.509768</ele>
        <time>2022-01-07T12:07:31.634Z</time>
      </trkpt>
      <trkpt lat="47.663292" lon="9.105517">
        <ele>402.308491</ele>
        <time>2022-01-07T12:08:20.860Z</time>
      </trkpt>
      <trkpt lat="47.663719" lon="9.103445">
        <ele>401.505158</ele>
        <time>2022-01-07T12:09:11.038Z</time>
      </trkpt>
      <trkpt lat="47.664537" lon="9.101914">
        <ele>401.002088</ele>
        <time>2022-01-07T12:09:58.409Z</time>
      </trkpt>
      <trkpt lat="47.664792" lon="9.101327">
        <ele>400.989860</ele>
        <time>2022-01-07T12:10:15.831Z</time>
      </trkpt>
      <trkpt lat="47.665178" lon="9.100041">
        <ele>401.063310</ele>
        <time>2022-01-07T12:10:51.257Z</time>
      </trkpt>
      <trkpt lat="47.665255" lon="9.098761">
        <ele>401.115847</ele>
        <time>2022-01-07T12:11:24.022Z</time>
      </trkpt>
      <trkpt lat="47.665261" lon="9.096686">
        <ele>401.170701</ele>
        <time>2022-01-07T12:12:15.891Z</time>
      </trkpt>
      <trkpt lat="47.665430" lon="9.095460">
        <ele>400.909233</ele>
        <time>2022-01-07T12:12:46.663Z</time>
      </trkpt>
      <trkpt lat="47.665862" lon="9.094227">
        <ele>400.610225</ele>
        <time>2022-01-07T12:13:19.861Z</time>
      </trkpt>
      <trkpt lat="47.667278" lon="9.091489">
        <ele>398.961860</ele>
        <time>2022-01-07T12:14:40.067Z</time>
      </trkpt>
      <trkpt lat="47.667550" lon="9.091193">
        <ele>398.737984</ele>
        <time>2022-01-07T12:14:51.659Z</time>
      </trkpt>
      <trkpt lat="47.667550" lon="9.091007">
        <ele>398.654828</ele>
        <time>2022-01-07T12:14:56.011Z</time>
      </trkpt>
      <trkpt lat="47.668560" lon="9.090319">
        <ele>397.983255</ele>
        <time>2022-01-07T12:15:18.375Z</time>
      </trkpt>
      <trkpt lat="47.669884" lon="9.089310">
        <ele>397.374097</ele>
        <time>2022-01-07T12:15:49.423Z</time>
      </trkpt>
      <trkpt lat="47.670452" lon="9.088976">
        <ele>397.509623</ele>
        <time>2022-01-07T12:16:02.597Z</time>
      </trkpt>
      <trkpt lat="47.670516" lon="9.088947">
        <ele>397.528287</ele>
        <time>2022-01-07T12:16:04.104Z</time>
      </trkpt>
      <trkpt lat="47.670984" lon="9.088736">
        <ele>397.664713</ele>
        <time>2022-01-07T12:16:15.857Z</time>
      </trkpt>
      <trkpt lat="47.671889" lon="9.088404">
        <ele>398.013018</ele>
        <time>2022-01-07T12:16:39.086Z</time>
      </trkpt>
      <trkpt lat="47.671903" lon="9.087918">
        <ele>398.220147</ele>
        <time>2022-01-07T12:16:47.325Z</time>
      </trkpt>
      <trkpt lat="47.671912" lon="9.087783">
        <ele>398.277911</ele>
        <time>2022-01-07T12:16:49.603Z</time>
      </trkpt>
      <trkpt lat="47.671935" lon="9.087173">
        <ele>398.538056</ele>
        <time>2022-01-07T12:16:59.572Z</time>
      </trkpt>
      <trkpt lat="47.671943" lon="9.086801">
        <ele>398.696535</ele>
        <time>2022-01-07T12:17:05.601Z</time>
      </trkpt>
      <trkpt lat="47.671960" lon="9.086334">
        <ele>398.895674</ele>
        <time>2022-01-07T12:17:13.624Z</time>
      </trkpt>
      <trkpt lat="47.671996" lon="9.085860">
        <ele>399.043850</ele>
        <time>2022-01-07T12:17:21.955Z</time>
      </trkpt>
      <trkpt lat="47.672061" lon="9.085556">
        <ele>399.109525</ele>
        <time>2022-01-07T12:17:27.342Z</time>
      </trkpt>
      <trkpt lat="47.672485" lon="9.085114">
        <ele>399.267932</ele>
        <time>2022-01-07T12:17:39.522Z</time>
      </trkpt>
      <trkpt lat="47.672602" lon="9.084806">
        <ele>399.340747</ele>
        <time>2022-01-07T12:17:44.889Z</time>
      </trkpt>
      <trkpt lat="47.672651" lon="9.084442">
        <ele>399.417179</ele>
        <time>2022-01-07T12:17:50.469Z</time>
      </trkpt>
      <trkpt lat="47.672621" lon="9.083799">
        <ele>399.551270</ele>
        <time>2022-01-07T12:17:59.993Z</time>
      </trkpt>
      <trkpt lat="47.672622" lon="9.083783">
        <ele>399.555188</ele>
        <time>2022-01-07T12:18:00.232Z</time>
      </trkpt>
      <trkpt lat="47.672720" lon="9.082993">
        <ele>399.751014</ele>
        <time>2022-01-07T12:18:12.577Z</time>
      </trkpt>
      <trkpt lat="47.672728" lon="9.082940">
        <ele>399.764255</ele>
        <time>2022-01-07T12:18:13.466Z</time>
      </trkpt>
      <trkpt lat="47.673159" lon="9.082062">
        <ele>400.029130</ele>
        <time>2022-01-07T12:18:30.960Z</time>
      </trkpt>
      <trkpt lat="47.673139" lon="9.082051">
        <ele>400.036852</ele>
        <time>2022-01-07T12:18:31.443Z</time>
      </trkpt>
      <trkpt lat="47.672603" lon="9.081735">
        <ele>400.329938</ele>
        <time>2022-01-07T12:18:45.415Z</time>
      </trkpt>
      <trkpt lat="47.672585" lon="9.081724">
        <ele>400.348397</ele>
        <time>2022-01-07T12:18:45.914Z</time>
      </trkpt>
      <trkpt lat="47.672526" lon="9.081689">
        <ele>400.408647</ele>
        <time>2022-01-07T12:18:47.549Z</time>
      </trkpt>
      <trkpt lat="47.672169" lon="9.081400">
        <ele>400.794230</ele>
        <time>2022-01-07T12:18:57.812Z</time>
      </trkpt>
      <trkpt lat="47.671749" lon="9.080850">
        <ele>401.325260</ele>
        <time>2022-01-07T12:19:13.335Z</time>
      </trkpt>
      <trkpt lat="47.671577" lon="9.080711">
        <ele>401.510959</ele>
        <time>2022-01-07T12:19:18.610Z</time>
      </trkpt>
      <trkpt lat="47.671032" lon="9.079907">
        <ele>401.961452</ele>
        <time>2022-01-07T12:19:38.565Z</time>
      </trkpt>
      <trkpt lat="47.670853" lon="9.079640">
        <ele>402.005431</ele>
        <time>2022-01-07T12:19:44.695Z</time>
      </trkpt>
      <trkpt lat="47.670745" lon="9.079484">
        <ele>402.031547</ele>
        <time>2022-01-07T12:19:48.383Z</time>
      </trkpt>
      <trkpt lat="47.670617" lon="9.079121">
        <ele>402.079377</ele>
        <time>2022-01-07T12:19:54.712Z</time>
      </trkpt>
      <trkpt lat="47.670259" lon="9.077547">
        <ele>401.938527</ele>
        <time>2022-01-07T12:20:18.416Z</time>
      </trkpt>
      <trkpt lat="47.670190" lon="9.077018">
        <ele>401.663188</ele>
        <time>2022-01-07T12:20:25.224Z</time>
      </trkpt>
      <trkpt lat="47.670169" lon="9.076797">
        <ele>401.549139</ele>
        <time>2022-01-07T12:20:28.200Z</time>
      </trkpt>
      <trkpt lat="47.670134" lon="9.076157">
        <ele>401.221027</ele>
        <time>2022-01-07T12:20:36.521Z</time>
      </trkpt>
      <trkpt lat="47.670232" lon="9.075494">
        <ele>400.874173</ele>
        <time>2022-01-07T12:20:45.551Z</time>
      </trkpt>
      <trkpt lat="47.670320" lon="9.075174">
        <ele>400.755780</ele>
        <time>2022-01-07T12:20:50.312Z</time>
      </trkpt>
      <trkpt lat="47.670587" lon="9.074620">
        <ele>400.544044</ele>
        <time>2022-01-07T12:20:59.441Z</time>
      </trkpt>
      <trkpt lat="47.670825" lon="9.074140">
        <ele>400.358783</ele>
        <time>2022-01-07T12:21:07.667Z</time>
      </trkpt>
      <trkpt lat="47.671657" lon="9.071969">
        <ele>399.961424</ele>
        <time>2022-01-07T12:21:44.259Z</time>
      </trkpt>
      <trkpt lat="47.672506" lon="9.070769">
        <ele>399.953562</ele>
        <time>2022-01-07T12:22:10.352Z</time>
      </trkpt>
      <trkpt lat="47.673053" lon="9.069821">
        <ele>400.066635</ele>
        <time>2022-01-07T12:22:29.355Z</time>
      </trkpt>
      <trkpt lat="47.673289" lon="9.069525">
        <ele>400.108184</ele>
        <time>2022-01-07T12:22:36.370Z</time>
      </trkpt>
      <trkpt lat="47.673107" lon="9.069327">
        <ele>400.138530</ele>
        <time>2022-01-07T12:22:41.421Z</time>
      </trkpt>
      <trkpt lat="47.673348" lon="9.068704">
        <ele>400.411762</ele>
        <time>2022-01-07T12:22:52.763Z</time>
      </trkpt>
      <trkpt lat="47.673538" lon="9.067781">
        <ele>400.861631</ele>
        <time>2022-01-07T12:23:08.340Z</time>
      </trkpt>
      <trkpt lat="47.673595" lon="9.067504">
        <ele>400.996636</ele>
        <time>2022-01-07T12:23:13.015Z</time>
      </trkpt>
      <trkpt lat="47.673649" lon="9.066529">
        <ele>401.617400</ele>
        <time>2022-01-07T12:23:30.294Z</time>
      </trkpt>
      <trkpt lat="47.673592" lon="9.065234">
        <ele>404.062045</ele>
        <time>2022-01-07T12:23:57.495Z</time>
      </trkpt>
      <trkpt lat="47.673591" lon="9.065048">
        <ele>404.412431</ele>
        <time>2022-01-07T12:24:01.739Z</time>
      </trkpt>
      <trkpt lat="47.673538" lon="9.062991">
        <ele>408.912229</ele>
        <time>2022-01-07T12:24:54.804Z</time>
      </trkpt>
      <trkpt lat="47.673558" lon="9.062203">
        <ele>410.894534</ele>
        <time>2022-01-07T12:25:15.594Z</time>
      </trkpt>
      <trkpt lat="47.673562" lon="9.062052">
        <ele>411.274415</ele>
        <time>2022-01-07T12:25:20.017Z</time>
      </trkpt>
      <trkpt lat="47.673720" lon="9.060519">
        <ele>413.505765</ele>
        <time>2022-01-07T12:25:55.151Z</time>
      </trkpt>
      <trkpt lat="47.674012" lon="9.058636">
        <ele>414.229504</ele>
        <time>2022-01-07T12:26:23.991Z</time>
      </trkpt>
      <trkpt lat="47.674027" lon="9.057382">
        <ele>412.197553</ele>
        <time>2022-01-07T12:26:38.428Z</time>
      </trkpt>
      <trkpt lat="47.673929" lon="9.056803">
        <ele>411.230321</ele>
        <time>2022-01-07T12:26:45.050Z</time>
      </trkpt>
      <trkpt lat="47.673848" lon="9.056324">
        <ele>410.430183</ele>
        <time>2022-01-07T12:26:50.463Z</time>
      </trkpt>
      <trkpt lat="47.673483" lon="9.055046">
        <ele>407.913871</ele>
        <time>2022-01-07T12:27:05.840Z</time>
      </trkpt>
      <trkpt lat="47.673460" lon="9.054840">
        <ele>407.526179</ele>
        <time>2022-01-07T12:27:08.159Z</time>
      </trkpt>
      <trkpt lat="47.673417" lon="9.053654">
        <ele>405.321000</ele>
        <time>2022-01-07T12:27:21.560Z</time>
      </trkpt>
      <trkpt lat="47.673476" lon="9.052611">
        <ele>404.051424</ele>
        <time>2022-01-07T12:27:33.908Z</time>
      </trkpt>
      <trkpt lat="47.673484" lon="9.052525">
        <ele>403.955087</ele>
        <time>2022-01-07T12:27:35.004Z</time>
      </trkpt>
      <trkpt lat="47.673502" lon="9.052323">
        <ele>403.728980</ele>
        <time>2022-01-07T12:27:37.594Z</time>
      </trkpt>
      <trkpt lat="47.673693" lon="9.052198">
        <ele>403.385012</ele>
        <time>2022-01-07T12:27:41.319Z</time>
      </trkpt>
      <trkpt lat="47.673778" lon="9.051705">
        <ele>402.820301</ele>
        <time>2022-01-07T12:27:47.711Z</time>
      </trkpt>
      <trkpt lat="47.673877" lon="9.051007">
        <ele>402.088533</ele>
        <time>2022-01-07T12:27:56.832Z</time>
      </trkpt>
      <trkpt lat="47.673876" lon="9.050524">
        <ele>402.091810</ele>
        <time>2022-01-07T12:28:02.885Z</time>
      </trkpt>
      <trkpt lat="47.674061" lon="9.050592">
        <ele>402.093731</ele>
        <time>2022-01-07T12:28:06.474Z</time>
      </trkpt>
      <trkpt lat="47.674090" lon="9.050227">
        <ele>402.096224</ele>
        <time>2022-01-07T12:28:11.873Z</time>
      </trkpt>
      <trkpt lat="47.674093" lon="9.050137">
        <ele>402.096836</ele>
        <time>2022-01-07T12:28:13.332Z</time>
      </trkpt>
      <trkpt lat="47.674096" lon="9.050068">
        <ele>402.097305</ele>
        <time>2022-01-07T12:28:14.544Z</time>
      </trkpt>
      <trkpt lat="47.674206" lon="9.049786">
        <ele>402.099516</ele>
        <time>2022-01-07T12:28:19.947Z</time>
      </trkpt>
      <trkpt lat="47.674218" lon="9.049595">
        <ele>402.100818</ele>
        <time>2022-01-07T12:28:23.282Z</time>
      </trkpt>
      <trkpt lat="47.674216" lon="9.049533">
        <ele>402.101239</ele>
        <time>2022-01-07T12:28:24.398Z</time>
      </trkpt>
      <trkpt lat="47.674215" lon="9.049516">
        <ele>402.101354</ele>
        <time>2022-01-07T12:28:24.690Z</time>
      </trkpt>
      <trkpt lat="47.674216" lon="9.049387">
        <ele>402.102230</ele>
        <time>2022-01-07T12:28:26.912Z</time>
      </trkpt>
      <trkpt lat="47.674204" lon="9.049104">
        <ele>402.104154</ele>
        <time>2022-01-07T12:28:31.661Z</time>
      </trkpt>
      <trkpt lat="47.674169" lon="9.049014">
        <ele>402.104859</ele>
        <time>2022-01-07T12:28:33.542Z</time>
      </trkpt>
      <trkpt lat="47.674094" lon="9.048861">
        <ele>402.106143</ele>
        <time>2022-01-07T12:28:36.776Z</time>
      </trkpt>
      <trkpt lat="47.673619" lon="9.048758">
        <ele>402.941588</ele>
        <time>2022-01-07T12:28:48.299Z</time>
      </trkpt>
      <trkpt lat="47.673534" lon="9.048797">
        <ele>403.101372</ele>
        <time>2022-01-07T12:28:51.058Z</time>
      </trkpt>
      <trkpt lat="47.672780" lon="9.047111">
        <ele>405.550750</ele>
        <time>2022-01-07T12:29:33.863Z</time>
      </trkpt>
      <trkpt lat="47.672493" lon="9.046177">
        <ele>406.801870</ele>
        <time>2022-01-07T12:29:55.432Z</time>
      </trkpt>
      <trkpt lat="47.672357" lon="9.045226">
        <ele>407.986648</ele>
        <time>2022-01-07T12:30:14.959Z</time>
      </trkpt>
      <trkpt lat="47.672335" lon="9.044616">
        <ele>408.494820</ele>
        <time>2022-01-07T12:30:26.901Z</time>
      </trkpt>
      <trkpt lat="47.672381" lon="9.043875">
        <ele>407.862617</ele>
        <time>2022-01-07T12:30:37.909Z</time>
      </trkpt>
      <trkpt lat="47.672502" lon="9.043247">
        <ele>407.307675</ele>
        <time>2022-01-07T12:30:45.907Z</time>
      </trkpt>
      <trkpt lat="47.672640" lon="9.042528">
        <ele>406.672506</ele>
        <time>2022-01-07T12:30:54.445Z</time>
      </trkpt>
      <trkpt lat="47.673123" lon="9.040360">
        <ele>403.562195</ele>
        <time>2022-01-07T12:31:20.159Z</time>
      </trkpt>
      <trkpt lat="47.673247" lon="9.039221">
        <ele>402.444373</ele>
        <time>2022-01-07T12:31:34.390Z</time>
      </trkpt>
      <trkpt lat="47.673455" lon="9.037318">
        <ele>402.777480</ele>
        <time>2022-01-07T12:32:06.936Z</time>
      </trkpt>
      <trkpt lat="47.673588" lon="9.035980">
        <ele>403.053146</ele>
        <time>2022-01-07T12:32:30.301Z</time>
      </trkpt>
      <trkpt lat="47.673543" lon="9.035725">
        <ele>403.110178</ele>
        <time>2022-01-07T12:32:34.681Z</time>
      </trkpt>
      <trkpt lat="47.673576" lon="9.035330">
        <ele>403.196291</ele>
        <time>2022-01-07T12:32:40.635Z</time>
      </trkpt>
      <trkpt lat="47.673633" lon="9.035158">
        <ele>403.237765</ele>
        <time>2022-01-07T12:32:43.492Z</time>
      </trkpt>
      <trkpt lat="47.673669" lon="9.034923">
        <ele>403.289906</ele>
        <time>2022-01-07T12:32:46.864Z</time>
      </trkpt>
      <trkpt lat="47.673626" lon="9.034613">
        <ele>403.358382</ele>
        <time>2022-01-07T12:32:51.581Z</time>
      </trkpt>
      <trkpt lat="47.673472" lon="9.032892">
        <ele>404.284267</ele>
        <time>2022-01-07T12:33:17.475Z</time>
      </trkpt>
      <trkpt lat="47.673462" lon="9.032737">
        <ele>404.377482</ele>
        <time>2022-01-07T12:33:20.115Z</time>
      </trkpt>
      <trkpt lat="47.673445" lon="9.032518">
        <ele>404.509454</ele>
        <time>2022-01-07T12:33:23.974Z</time>
      </trkpt>
      <trkpt lat="47.673382" lon="9.031534">
        <ele>405.368993</ele>
        <time>2022-01-07T12:33:43.668Z</time>
      </trkpt>
      <trkpt lat="47.673304" lon="9.030982">
        <ele>406.843887</ele>
        <time>2022-01-07T12:33:57.258Z</time>
      </trkpt>
      <trkpt lat="47.672744" lon="9.028481">
        <ele>412.158845</ele>
        <time>2022-01-07T12:35:08.499Z</time>
      </trkpt>
      <trkpt lat="47.672681" lon="9.028040">
        <ele>412.262615</ele>
        <time>2022-01-07T12:35:19.416Z</time>
      </trkpt>
      <trkpt lat="47.672680" lon="9.027872">
        <ele>412.301287</ele>
        <time>2022-01-07T12:35:22.256Z</time>
      </trkpt>
      <trkpt lat="47.672658" lon="9.025758">
        <ele>410.385065</ele>
        <time>2022-01-07T12:35:46.330Z</time>
      </trkpt>
      <trkpt lat="47.672810" lon="9.024894">
        <ele>407.623938</ele>
        <time>2022-01-07T12:35:55.224Z</time>
      </trkpt>
      <trkpt lat="47.673049" lon="9.024043">
        <ele>404.772996</ele>
        <time>2022-01-07T12:36:04.459Z</time>
      </trkpt>
      <trkpt lat="47.673293" lon="9.023325">
        <ele>403.126026</ele>
        <time>2022-01-07T12:36:12.546Z</time>
      </trkpt>
      <trkpt lat="47.673358" lon="9.023168">
        <ele>402.786665</ele>
        <time>2022-01-07T12:36:14.479Z</time>
      </trkpt>
      <trkpt lat="47.673387" lon="9.023108">
        <ele>402.650671</ele>
        <time>2022-01-07T12:36:15.249Z</time>
      </trkpt>
      <trkpt lat="47.674034" lon="9.022113">
        <ele>400.103738</ele>
        <time>2022-01-07T12:36:31.761Z</time>
      </trkpt>
      <trkpt lat="47.674136" lon="9.021970">
        <ele>399.720164</ele>
        <time>2022-01-07T12:36:34.666Z</time>
      </trkpt>
      <trkpt lat="47.674166" lon="9.021928">
        <ele>399.607423</ele>
        <time>2022-01-07T12:36:35.512Z</time>
      </trkpt>
      <trkpt lat="47.674410" lon="9.021593">
        <ele>399.426371</ele>
        <time>2022-01-07T12:36:42.626Z</time>
      </trkpt>
      <trkpt lat="47.674549" lon="9.021398">
        <ele>399.414037</ele>
        <time>2022-01-07T12:36:46.860Z</time>
      </trkpt>
      <trkpt lat="47.674745" lon="9.020992">
        <ele>399.392339</ele>
        <time>2022-01-07T12:36:54.572Z</time>
      </trkpt>
      <trkpt lat="47.674769" lon="9.020888">
        <ele>399.387564</ele>
        <time>2022-01-07T12:36:56.251Z</time>
      </trkpt>
      <trkpt lat="47.674829" lon="9.020059">
        <ele>399.351350</ele>
        <time>2022-01-07T12:37:08.950Z</time>
      </trkpt>
      <trkpt lat="47.674824" lon="9.019799">
        <ele>399.340053</ele>
        <time>2022-01-07T12:37:12.932Z</time>
      </trkpt>
      <trkpt lat="47.674809" lon="9.019543">
        <ele>399.328892</ele>
        <time>2022-01-07T12:37:16.875Z</time>
      </trkpt>
      <trkpt lat="47.674791" lon="9.019234">
        <ele>399.449678</ele>
        <time>2022-01-07T12:37:21.718Z</time>
      </trkpt>
      <trkpt lat="47.674778" lon="9.018998">
        <ele>399.549792</ele>
        <time>2022-01-07T12:37:25.463Z</time>
      </trkpt>
      <trkpt lat="47.674747" lon="9.018565">
        <ele>399.733895</ele>
        <time>2022-01-07T12:37:32.479Z</time>
      </trkpt>
      <trkpt lat="47.674697" lon="9.018097">
        <ele>399.934239</ele>
        <time>2022-01-07T12:37:40.099Z</time>
      </trkpt>
      <trkpt lat="47.674678" lon="9.017973">
        <ele>399.988006</ele>
        <time>2022-01-07T12:37:42.144Z</time>
      </trkpt>
      <trkpt lat="47.674580" lon="9.017327">
        <ele>400.267980</ele>
        <time>2022-01-07T12:37:52.985Z</time>
      </trkpt>
      <trkpt lat="47.674527" lon="9.016963">
        <ele>400.425436</ele>
        <time>2022-01-07T12:37:59.726Z</time>
      </trkpt>
      <trkpt lat="47.674454" lon="9.016717">
        <ele>400.833914</ele>
        <time>2022-01-07T12:38:04.710Z</time>
      </trkpt>
      <trkpt lat="47.674323" lon="9.016502">
        <ele>401.398461</ele>
        <time>2022-01-07T12:38:10.302Z</time>
      </trkpt>
      <trkpt lat="47.674126" lon="9.016212">
        <ele>402.200514</ele>
        <time>2022-01-07T12:38:18.569Z</time>
      </trkpt>
      <trkpt lat="47.673966" lon="9.016011">
        <ele>402.806481</ele>
        <time>2022-01-07T12:38:25.380Z</time>
      </trkpt>
      <trkpt lat="47.673656" lon="9.015816">
        <ele>403.779949</ele>
        <time>2022-01-07T12:38:37.313Z</time>
      </trkpt>
      <trkpt lat="47.673290" lon="9.015544">
        <ele>404.963365</ele>
        <time>2022-01-07T12:38:53.018Z</time>
      </trkpt>
      <trkpt lat="47.673184" lon="9.015407">
        <ele>405.369686</ele>
        <time>2022-01-07T12:38:58.649Z</time>
      </trkpt>
      <trkpt lat="47.672936" lon="9.014976">
        <ele>406.773647</ele>
        <time>2022-01-07T12:39:13.621Z</time>
      </trkpt>
      <trkpt lat="47.672823" lon="9.014661">
        <ele>407.724372</ele>
        <time>2022-01-07T12:39:23.332Z</time>
      </trkpt>
      <trkpt lat="47.672532" lon="9.013528">
        <ele>410.954500</ele>
        <time>2022-01-07T12:39:55.155Z</time>
      </trkpt>
      <trkpt lat="47.672551" lon="9.013420">
        <ele>411.251842</ele>
        <time>2022-01-07T12:39:57.698Z</time>
      </trkpt>
      <trkpt lat="47.672376" lon="9.012641">
        <ele>413.360181</ele>
        <time>2022-01-07T12:40:16.940Z</time>
      </trkpt>
      <trkpt lat="47.672326" lon="9.012136">
        <ele>414.558212</ele>
        <time>2022-01-07T12:40:29.360Z</time>
      </trkpt>
      <trkpt lat="47.672316" lon="9.012034">
        <ele>414.800141</ele>
        <time>2022-01-07T12:40:32.151Z</time>
      </trkpt>
      <trkpt lat="47.672319" lon="9.011465">
        <ele>416.135684</ele>
        <time>2022-01-07T12:40:46.804Z</time>
      </trkpt>
      <trkpt lat="47.672280" lon="9.010863">
        <ele>417.555166</ele>
        <time>2022-01-07T12:41:01.401Z</time>
      </trkpt>
      <trkpt lat="47.672262" lon="9.010583">
        <ele>418.215344</ele>
        <time>2022-01-07T12:41:07.906Z</time>
      </trkpt>
      <trkpt lat="47.672251" lon="9.010521">
        <ele>418.365831</ele>
        <time>2022-01-07T12:41:09.509Z</time>
      </trkpt>
      <trkpt lat="47.672217" lon="9.010330">
        <ele>418.829529</ele>
        <time>2022-01-07T12:41:14.285Z</time>
      </trkpt>
      <trkpt lat="47.672061" lon="9.009394">
        <ele>421.717662</ele>
        <time>2022-01-07T12:41:36.391Z</time>
      </trkpt>
      <trkpt lat="47.671960" lon="9.007887">
        <ele>426.355885</ele>
        <time>2022-01-07T12:42:18.395Z</time>
      </trkpt>
      <trkpt lat="47.671859" lon="9.007122">
        <ele>428.980155</ele>
        <time>2022-01-07T12:42:44.272Z</time>
      </trkpt>
      <trkpt lat="47.671722" lon="9.006529">
        <ele>431.199263</ele>
        <time>2022-01-07T12:43:05.655Z</time>
      </trkpt>
      <trkpt lat="47.671501" lon="9.005546">
        <ele>434.867547</ele>
        <time>2022-01-07T12:43:37.530Z</time>
      </trkpt>
      <trkpt lat="47.671293" lon="9.004283">
        <ele>435.317908</ele>
        <time>2022-01-07T12:44:06.590Z</time>
      </trkpt>
      <trkpt lat="47.671058" lon="9.002676">
        <ele>432.482082</ele>
        <time>2022-01-07T12:44:23.952Z</time>
      </trkpt>
      <trkpt lat="47.671049" lon="9.002521">
        <ele>432.213796</ele>
        <time>2022-01-07T12:44:25.398Z</time>
      </trkpt>
      <trkpt lat="47.670987" lon="9.000999">
        <ele>425.795620</ele>
        <time>2022-01-07T12:44:39.636Z</time>
      </trkpt>
      <trkpt lat="47.671017" lon="9.000547">
        <ele>423.819446</ele>
        <time>2022-01-07T12:44:44.052Z</time>
      </trkpt>
      <trkpt lat="47.671000" lon="8.999143">
        <ele>419.821329</ele>
        <time>2022-01-07T12:44:58.775Z</time>
      </trkpt>
      <trkpt lat="47.670783" lon="8.997838">
        <ele>418.479182</ele>
        <time>2022-01-07T12:45:16.217Z</time>
      </trkpt>
      <trkpt lat="47.669051" lon="8.992242">
        <ele>419.162487</ele>
        <time>2022-01-07T12:46:58.820Z</time>
      </trkpt>
      <trkpt lat="47.668696" lon="8.991267">
        <ele>416.927850</ele>
        <time>2022-01-07T12:47:11.632Z</time>
      </trkpt>
      <trkpt lat="47.668641" lon="8.991252">
        <ele>416.760433</ele>
        <time>2022-01-07T12:47:12.470Z</time>
      </trkpt>
      <trkpt lat="47.668523" lon="8.990947">
        <ele>416.051259</ele>
        <time>2022-01-07T12:47:16.537Z</time>
      </trkpt>
      <trkpt lat="47.668131" lon="8.989883">
        <ele>413.342634</ele>
        <time>2022-01-07T12:47:28.954Z</time>
      </trkpt>
      <trkpt lat="47.668043" lon="8.989529">
        <ele>412.096812</ele>
        <time>2022-01-07T12:47:32.740Z</time>
      </trkpt>
      <trkpt lat="47.667840" lon="8.988411">
        <ele>408.273896</ele>
        <time>2022-01-07T12:47:44.353Z</time>
      </trkpt>
      <trkpt lat="47.667829" lon="8.988059">
        <ele>407.110507</ele>
        <time>2022-01-07T12:47:47.924Z</time>
      </trkpt>
      <trkpt lat="47.667847" lon="8.987881">
        <ele>406.516246</ele>
        <time>2022-01-07T12:47:49.867Z</time>
      </trkpt>
      <trkpt lat="47.667910" lon="8.987657">
        <ele>405.714799</ele>
        <time>2022-01-07T12:47:52.357Z</time>
      </trkpt>
      <trkpt lat="47.668040" lon="8.987297">
        <ele>404.765068</ele>
        <time>2022-01-07T12:47:56.723Z</time>
      </trkpt>
      <trkpt lat="47.668231" lon="8.986769">
        <ele>403.731531</ele>
        <time>2022-01-07T12:48:03.058Z</time>
      </trkpt>
      <trkpt lat="47.668372" lon="8.986378">
        <ele>402.966702</ele>
        <time>2022-01-07T12:48:07.859Z</time>
      </trkpt>
      <trkpt lat="47.668774" lon="8.985268">
        <ele>400.793375</ele>
        <time>2022-01-07T12:48:23.114Z</time>
      </trkpt>
      <trkpt lat="47.668926" lon="8.984785">
        <ele>400.591364</ele>
        <time>2022-01-07T12:48:30.664Z</time>
      </trkpt>
      <trkpt lat="47.668959" lon="8.984799">
        <ele>400.590858</ele>
        <time>2022-01-07T12:48:33.096Z</time>
      </trkpt>
      <trkpt lat="47.668926" lon="8.984785">
        <ele>400.590352</ele>
        <time>2022-01-07T12:48:35.528Z</time>
      </trkpt>
      <trkpt lat="47.668949" lon="8.984599">
        <ele>400.588474</ele>
        <time>2022-01-07T12:48:38.240Z</time>
      </trkpt>
      <trkpt lat="47.668951" lon="8.984501">
        <ele>400.587500</ele>
        <time>2022-01-07T12:48:39.733Z</time>
      </trkpt>
      <trkpt lat="47.668845" lon="8.983849">
        <ele>400.580839</ele>
        <time>2022-01-07T12:48:50.136Z</time>
      </trkpt>
      <trkpt lat="47.668647" lon="8.983267">
        <ele>400.574364</ele>
        <time>2022-01-07T12:49:00.593Z</time>
      </trkpt>
      <trkpt lat="47.668621" lon="8.983208">
        <ele>400.573664</ele>
        <time>2022-01-07T12:49:01.651Z</time>
      </trkpt>
      <trkpt lat="47.668421" lon="8.982824">
        <ele>400.575092</ele>
        <time>2022-01-07T12:49:09.374Z</time>
      </trkpt>
      <trkpt lat="47.668045" lon="8.982287">
        <ele>400.883831</ele>
        <time>2022-01-07T12:49:21.953Z</time>
      </trkpt>
      <trkpt lat="47.667677" lon="8.981845">
        <ele>401.163944</ele>
        <time>2022-01-07T12:49:33.705Z</time>
      </trkpt>
      <trkpt lat="47.667486" lon="8.981526">
        <ele>401.334064</ele>
        <time>2022-01-07T12:49:41.003Z</time>
      </trkpt>
      <trkpt lat="47.666972" lon="8.981360">
        <ele>401.642355</ele>
        <time>2022-01-07T12:49:54.480Z</time>
      </trkpt>
      <trkpt lat="47.666939" lon="8.981355">
        <ele>401.657017</ele>
        <time>2022-01-07T12:49:55.323Z</time>
      </trkpt>
      <trkpt lat="47.666886" lon="8.981346">
        <ele>401.680597</ele>
        <time>2022-01-07T12:49:56.663Z</time>
      </trkpt>
      <trkpt lat="47.666546" lon="8.981370">
        <ele>401.831052</ele>
        <time>2022-01-07T12:50:04.633Z</time>
      </trkpt>
      <trkpt lat="47.666037" lon="8.981493">
        <ele>402.058997</ele>
        <time>2022-01-07T12:50:16.460Z</time>
      </trkpt>
      <trkpt lat="47.665852" lon="8.981560">
        <ele>402.143167</ele>
        <time>2022-01-07T12:50:20.941Z</time>
      </trkpt>
      <trkpt lat="47.665793" lon="8.981483">
        <ele>402.177888</ele>
        <time>2022-01-07T12:50:22.857Z</time>
      </trkpt>
      <trkpt lat="47.665717" lon="8.981515">
        <ele>402.212805</ele>
        <time>2022-01-07T12:50:24.796Z</time>
      </trkpt>
      <trkpt lat="47.665655" lon="8.981410">
        <ele>402.254374</ele>
        <time>2022-01-07T12:50:27.017Z</time>
      </trkpt>
      <trkpt lat="47.665525" lon="8.981186">
        <ele>402.342398</ele>
        <time>2022-01-07T12:50:31.939Z</time>
      </trkpt>
      <trkpt lat="47.665098" lon="8.980539">
        <ele>402.561731</ele>
        <time>2022-01-07T12:50:46.931Z</time>
      </trkpt>
      <trkpt lat="47.664811" lon="8.980166">
        <ele>402.684099</ele>
        <time>2022-01-07T12:50:55.898Z</time>
      </trkpt>
      <trkpt lat="47.664454" lon="8.979529">
        <ele>402.863159</ele>
        <time>2022-01-07T12:51:08.436Z</time>
      </trkpt>
      <trkpt lat="47.663873" lon="8.978446">
        <ele>403.844823</ele>
        <time>2022-01-07T12:51:30.172Z</time>
      </trkpt>
      <trkpt lat="47.663582" lon="8.977889">
        <ele>404.660210</ele>
        <time>2022-01-07T12:51:43.304Z</time>
      </trkpt>
      <trkpt lat="47.663495" lon="8.977719">
        <ele>404.907173</ele>
        <time>2022-01-07T12:51:47.797Z</time>
      </trkpt>
      <trkpt lat="47.663143" lon="8.977061">
        <ele>405.879148</ele>
        <time>2022-01-07T12:52:05.749Z</time>
      </trkpt>
      <trkpt lat="47.663054" lon="8.976872">
        <ele>406.202532</ele>
        <time>2022-01-07T12:52:11.561Z</time>
      </trkpt>
      <trkpt lat="47.663007" lon="8.976901">
        <ele>406.386506</ele>
        <time>2022-01-07T12:52:13.462Z</time>
      </trkpt>
      <trkpt lat="47.662726" lon="8.977007">
        <ele>407.434489</ele>
        <time>2022-01-07T12:52:24.048Z</time>
      </trkpt>
      <trkpt lat="47.662302" lon="8.977186">
        <ele>409.027846</ele>
        <time>2022-01-07T12:52:40.900Z</time>
      </trkpt>
      <trkpt lat="47.661733" lon="8.977411">
        <ele>411.156271</ele>
        <time>2022-01-07T12:53:02.805Z</time>
      </trkpt>
      <trkpt lat="47.661678" lon="8.977514">
        <ele>411.476272</ele>
        <time>2022-01-07T12:53:06.649Z</time>
      </trkpt>
      <trkpt lat="47.661640" lon="8.977436">
        <ele>411.710633</ele>
        <time>2022-01-07T12:53:09.116Z</time>
      </trkpt>
      <trkpt lat="47.661532" lon="8.977396">
        <ele>412.112977</ele>
        <time>2022-01-07T12:53:13.064Z</time>
      </trkpt>
      <trkpt lat="47.661262" lon="8.977106">
        <ele>412.881818</ele>
        <time>2022-01-07T12:53:25.509Z</time>
      </trkpt>
      <trkpt lat="47.660749" lon="8.976288">
        <ele>413.959517</ele>
        <time>2022-01-07T12:53:50.075Z</time>
      </trkpt>
      <trkpt lat="47.660450" lon="8.976007">
        <ele>414.466110</ele>
        <time>2022-01-07T12:53:59.538Z</time>
      </trkpt>
      <trkpt lat="47.660437" lon="8.975988">
        <ele>414.492225</ele>
        <time>2022-01-07T12:53:59.911Z</time>
      </trkpt>
      <trkpt lat="47.660390" lon="8.975924">
        <ele>414.583523</ele>
        <time>2022-01-07T12:54:01.159Z</time>
      </trkpt>
      <trkpt lat="47.660219" lon="8.975641">
        <ele>414.950114</ele>
        <time>2022-01-07T12:54:06.394Z</time>
      </trkpt>
      <trkpt lat="47.660237" lon="8.975528">
        <ele>415.062076</ele>
        <time>2022-01-07T12:54:07.725Z</time>
      </trkpt>
      <trkpt lat="47.660241" lon="8.974699">
        <ele>414.997560</ele>
        <time>2022-01-07T12:54:17.765Z</time>
      </trkpt>
      <trkpt lat="47.660236" lon="8.974580">
        <ele>414.968675</ele>
        <time>2022-01-07T12:54:19.299Z</time>
      </trkpt>
      <trkpt lat="47.660153" lon="8.973953">
        <ele>414.813870</ele>
        <time>2022-01-07T12:54:28.013Z</time>
      </trkpt>
      <trkpt lat="47.659944" lon="8.973076">
        <ele>414.588498</ele>
        <time>2022-01-07T12:54:42.225Z</time>
      </trkpt>
      <trkpt lat="47.659814" lon="8.973056">
        <ele>414.541487</ele>
        <time>2022-01-07T12:54:45.679Z</time>
      </trkpt>
      <trkpt lat="47.659408" lon="8.972623">
        <ele>415.379909</ele>
        <time>2022-01-07T12:54:58.154Z</time>
      </trkpt>
      <trkpt lat="47.659073" lon="8.972255">
        <ele>416.169905</ele>
        <time>2022-01-07T12:55:10.145Z</time>
      </trkpt>
      <trkpt lat="47.658901" lon="8.971978">
        <ele>416.650958</ele>
        <time>2022-01-07T12:55:18.316Z</time>
      </trkpt>
      <trkpt lat="47.658352" lon="8.970740">
        <ele>418.458541</ele>
        <time>2022-01-07T12:55:52.901Z</time>
      </trkpt>
      <trkpt lat="47.657451" lon="8.968060">
        <ele>421.859123</ele>
        <time>2022-01-07T12:56:47.317Z</time>
      </trkpt>
      <trkpt lat="47.657337" lon="8.967802">
        <ele>422.240178</ele>
        <time>2022-01-07T12:56:53.188Z</time>
      </trkpt>
      <trkpt lat="47.657230" lon="8.967320">
        <ele>422.866919</ele>
        <time>2022-01-07T12:57:02.960Z</time>
      </trkpt>
      <trkpt lat="47.656512" lon="8.965178">
        <ele>425.782257</ele>
        <time>2022-01-07T12:57:55.118Z</time>
      </trkpt>
      <trkpt lat="47.655942" lon="8.963244">
        <ele>426.224035</ele>
        <time>2022-01-07T12:58:33.935Z</time>
      </trkpt>
      <trkpt lat="47.655805" lon="8.962286">
        <ele>424.768989</ele>
        <time>2022-01-07T12:58:45.065Z</time>
      </trkpt>
      <trkpt lat="47.655798" lon="8.961891">
        <ele>424.181925</ele>
        <time>2022-01-07T12:58:49.195Z</time>
      </trkpt>
      <trkpt lat="47.655786" lon="8.961228">
        <ele>422.902072</ele>
        <time>2022-01-07T12:58:56.015Z</time>
      </trkpt>
      <trkpt lat="47.655754" lon="8.960869">
        <ele>421.648195</ele>
        <time>2022-01-07T12:58:59.583Z</time>
      </trkpt>
      <trkpt lat="47.655681" lon="8.959909">
        <ele>418.303069</ele>
        <time>2022-01-07T12:59:09.070Z</time>
      </trkpt>
      <trkpt lat="47.655521" lon="8.958066">
        <ele>413.280519</ele>
        <time>2022-01-07T12:59:28.261Z</time>
      </trkpt>
      <trkpt lat="47.655432" lon="8.957240">
        <ele>412.159362</ele>
        <time>2022-01-07T12:59:38.019Z</time>
      </trkpt>
      <trkpt lat="47.655526" lon="8.957084">
        <ele>411.878825</ele>
        <time>2022-01-07T12:59:40.610Z</time>
      </trkpt>
      <trkpt lat="47.655619" lon="8.956933">
        <ele>411.604594</ele>
        <time>2022-01-07T12:59:43.279Z</time>
      </trkpt>
      <trkpt lat="47.655635" lon="8.956807">
        <ele>411.432743</ele>
        <time>2022-01-07T12:59:44.903Z</time>
      </trkpt>
      <trkpt lat="47.655965" lon="8.956735">
        <ele>410.769060</ele>
        <time>2022-01-07T12:59:51.869Z</time>
      </trkpt>
      <trkpt lat="47.655982" lon="8.956731">
        <ele>410.734812</ele>
        <time>2022-01-07T12:59:52.282Z</time>
      </trkpt>
      <trkpt lat="47.655727" lon="8.955905">
        <ele>412.229383</ele>
        <time>2022-01-07T13:00:17.412Z</time>
      </trkpt>
      <trkpt lat="47.655424" lon="8.955131">
        <ele>414.053757</ele>
        <time>2022-01-07T13:00:44.360Z</time>
      </trkpt>
      <trkpt lat="47.654529" lon="8.953484">
        <ele>419.835632</ele>
        <time>2022-01-07T13:02:12.384Z</time>
      </trkpt>
      <trkpt lat="47.654465" lon="8.953366">
        <ele>420.338953</ele>
        <time>2022-01-07T13:02:20.401Z</time>
      </trkpt>
      <trkpt lat="47.654218" lon="8.952741">
        <ele>422.746398</ele>
        <time>2022-01-07T13:02:47.420Z</time>
      </trkpt>
      <trkpt lat="47.654053" lon="8.951916">
        <ele>424.857228</ele>
        <time>2022-01-07T13:03:18.031Z</time>
      </trkpt>
      <trkpt lat="47.653815" lon="8.949380">
        <ele>424.190251</ele>
        <time>2022-01-07T13:04:16.177Z</time>
      </trkpt>
      <trkpt lat="47.653714" lon="8.949464">
        <ele>424.026054</ele>
        <time>2022-01-07T13:04:18.366Z</time>
      </trkpt>
      <trkpt lat="47.653596" lon="8.948378">
        <ele>422.975096</ele>
        <time>2022-01-07T13:04:30.542Z</time>
      </trkpt>
      <trkpt lat="47.653423" lon="8.947467">
        <ele>422.070813</ele>
        <time>2022-01-07T13:04:42.459Z</time>
      </trkpt>
      <trkpt lat="47.653171" lon="8.946731">
        <ele>422.542385</ele>
        <time>2022-01-07T13:04:55.085Z</time>
      </trkpt>
      <trkpt lat="47.652605" lon="8.945401">
        <ele>425.215788</ele>
        <time>2022-01-07T13:05:31.222Z</time>
      </trkpt>
      <trkpt lat="47.652196" lon="8.944072">
        <ele>427.595727</ele>
        <time>2022-01-07T13:06:09.581Z</time>
      </trkpt>
      <trkpt lat="47.652050" lon="8.943326">
        <ele>428.820455</ele>
        <time>2022-01-07T13:06:26.750Z</time>
      </trkpt>
      <trkpt lat="47.651872" lon="8.942003">
        <ele>430.266279</ele>
        <time>2022-01-07T13:06:51.239Z</time>
      </trkpt>
      <trkpt lat="47.651508" lon="8.940418">
        <ele>429.037900</ele>
        <time>2022-01-07T13:07:13.061Z</time>
      </trkpt>
      <trkpt lat="47.651062" lon="8.938173">
        <ele>425.087762</ele>
        <time>2022-01-07T13:07:39.393Z</time>
      </trkpt>
      <trkpt lat="47.650979" lon="8.936796">
        <ele>422.213727</ele>
        <time>2022-01-07T13:07:54.097Z</time>
      </trkpt>
      <trkpt lat="47.650915" lon="8.935705">
        <ele>419.989662</ele>
        <time>2022-01-07T13:08:05.855Z</time>
      </trkpt>
      <trkpt lat="47.650948" lon="8.934977">
        <ele>418.507844</ele>
        <time>2022-01-07T13:08:14.083Z</time>
      </trkpt>
      <trkpt lat="47.650885" lon="8.934174">
        <ele>417.314804</ele>
        <time>2022-01-07T13:08:23.754Z</time>
      </trkpt>
      <trkpt lat="47.650852" lon="8.933936">
        <ele>417.166809</ele>
        <time>2022-01-07T13:08:26.860Z</time>
      </trkpt>
      <trkpt lat="47.650720" lon="8.933236">
        <ele>416.724079</ele>
        <time>2022-01-07T13:08:36.251Z</time>
      </trkpt>
      <trkpt lat="47.650453" lon="8.932246">
        <ele>416.074580</ele>
        <time>2022-01-07T13:08:50.693Z</time>
      </trkpt>
      <trkpt lat="47.650107" lon="8.931378">
        <ele>416.214713</ele>
        <time>2022-01-07T13:09:05.945Z</time>
      </trkpt>
      <trkpt lat="47.649406" lon="8.930090">
        <ele>417.015326</ele>
        <time>2022-01-07T13:09:34.706Z</time>
      </trkpt>
      <trkpt lat="47.648533" lon="8.928556">
        <ele>418.752720</ele>
        <time>2022-01-07T13:10:12.390Z</time>
      </trkpt>
      <trkpt lat="47.647944" lon="8.927561">
        <ele>419.931440</ele>
        <time>2022-01-07T13:10:37.867Z</time>
      </trkpt>
      <trkpt lat="47.646460" lon="8.925732">
        <ele>421.791611</ele>
        <time>2022-01-07T13:11:28.695Z</time>
      </trkpt>
      <trkpt lat="47.645954" lon="8.924902">
        <ele>422.034239</ele>
        <time>2022-01-07T13:11:46.771Z</time>
      </trkpt>
      <trkpt lat="47.645571" lon="8.923956">
        <ele>422.171640</ele>
        <time>2022-01-07T13:12:03.208Z</time>
      </trkpt>
      <trkpt lat="47.645134" lon="8.922648">
        <ele>420.753248</ele>
        <time>2022-01-07T13:12:23.027Z</time>
      </trkpt>
      <trkpt lat="47.644977" lon="8.922035">
        <ele>420.116133</ele>
        <time>2022-01-07T13:12:30.722Z</time>
      </trkpt>
      <trkpt lat="47.644754" lon="8.920766">
        <ele>417.634069</ele>
        <time>2022-01-07T13:12:45.149Z</time>
      </trkpt>
      <trkpt lat="47.644934" lon="8.920454">
        <ele>416.646573</ele>
        <time>2022-01-07T13:12:49.520Z</time>
      </trkpt>
      <trkpt lat="47.644971" lon="8.920105">
        <ele>415.797232</ele>
        <time>2022-01-07T13:12:53.282Z</time>
      </trkpt>
      <trkpt lat="47.644982" lon="8.919873">
        <ele>415.238111</ele>
        <time>2022-01-07T13:12:55.762Z</time>
      </trkpt>
      <trkpt lat="47.645061" lon="8.919407">
        <ele>414.082899</ele>
        <time>2022-01-07T13:13:00.791Z</time>
      </trkpt>
      <trkpt lat="47.645130" lon="8.919121">
        <ele>413.352585</ele>
        <time>2022-01-07T13:13:03.965Z</time>
      </trkpt>
      <trkpt lat="47.645292" lon="8.918513">
        <ele>412.648251</ele>
        <time>2022-01-07T13:13:10.908Z</time>
      </trkpt>
      <trkpt lat="47.645352" lon="8.918318">
        <ele>412.438609</ele>
        <time>2022-01-07T13:13:13.268Z</time>
      </trkpt>
      <trkpt lat="47.645587" lon="8.917115">
        <ele>411.213712</ele>
        <time>2022-01-07T13:13:29.154Z</time>
      </trkpt>
      <trkpt lat="47.645624" lon="8.916894">
        <ele>410.991019</ele>
        <time>2022-01-07T13:13:33.090Z</time>
      </trkpt>
      <trkpt lat="47.645679" lon="8.916564">
        <ele>410.658577</ele>
        <time>2022-01-07T13:13:39.473Z</time>
      </trkpt>
      <trkpt lat="47.645727" lon="8.916284">
        <ele>410.886078</ele>
        <time>2022-01-07T13:13:44.791Z</time>
      </trkpt>
      <trkpt lat="47.645440" lon="8.916301">
        <ele>411.298908</ele>
        <time>2022-01-07T13:13:52.712Z</time>
      </trkpt>
      <trkpt lat="47.644962" lon="8.916375">
        <ele>411.989658</ele>
        <time>2022-01-07T13:14:06.108Z</time>
      </trkpt>
      <trkpt lat="47.644858" lon="8.916393">
        <ele>412.140149</ele>
        <time>2022-01-07T13:14:09.151Z</time>
      </trkpt>
      <trkpt lat="47.644430" lon="8.916471">
        <ele>412.759928</ele>
        <time>2022-01-07T13:14:22.362Z</time>
      </trkpt>
      <trkpt lat="47.644435" lon="8.916122">
        <ele>413.097956</ele>
        <time>2022-01-07T13:14:29.597Z</time>
      </trkpt>
      <trkpt lat="47.644444" lon="8.915529">
        <ele>413.488945</ele>
        <time>2022-01-07T13:14:42.107Z</time>
      </trkpt>
      <trkpt lat="47.644391" lon="8.915535">
        <ele>413.534540</ele>
        <time>2022-01-07T13:14:43.767Z</time>
      </trkpt>
      <trkpt lat="47.644363" lon="8.915140">
        <ele>413.764082</ele>
        <time>2022-01-07T13:14:50.712Z</time>
      </trkpt>
      <trkpt lat="47.643351" lon="8.912455">
        <ele>415.343507</ele>
        <time>2022-01-07T13:15:40.933Z</time>
      </trkpt>
      <trkpt lat="47.642976" lon="8.911354">
        <ele>415.875340</ele>
        <time>2022-01-07T13:16:01.830Z</time>
      </trkpt>
      <trkpt lat="47.642805" lon="8.910834">
        <ele>416.237105</ele>
        <time>2022-01-07T13:16:11.824Z</time>
      </trkpt>
      <trkpt lat="47.642727" lon="8.910879">
        <ele>416.318810</ele>
        <time>2022-01-07T13:16:14.640Z</time>
      </trkpt>
      <trkpt lat="47.642805" lon="8.910834">
        <ele>416.400516</ele>
        <time>2022-01-07T13:16:16.260Z</time>
      </trkpt>
      <trkpt lat="47.642524" lon="8.909485">
        <ele>417.329350</ele>
        <time>2022-01-07T13:16:41.811Z</time>
      </trkpt>
      <trkpt lat="47.642401" lon="8.908671">
        <ele>417.771487</ele>
        <time>2022-01-07T13:16:56.653Z</time>
      </trkpt>
      <trkpt lat="47.642410" lon="8.904720">
        <ele>418.247505</ele>
        <time>2022-01-07T13:17:59.588Z</time>
      </trkpt>
      <trkpt lat="47.642480" lon="8.903016">
        <ele>418.054873</ele>
        <time>2022-01-07T13:18:21.098Z</time>
      </trkpt>
      <trkpt lat="47.642629" lon="8.898662">
        <ele>419.367822</ele>
        <time>2022-01-07T13:19:31.739Z</time>
      </trkpt>
      <trkpt lat="47.642830" lon="8.896373">
        <ele>423.115214</ele>
        <time>2022-01-07T13:20:20.777Z</time>
      </trkpt>
      <trkpt lat="47.642883" lon="8.895315">
        <ele>425.178790</ele>
        <time>2022-01-07T13:20:48.455Z</time>
      </trkpt>
      <trkpt lat="47.642854" lon="8.895169">
        <ele>425.516056</ele>
        <time>2022-01-07T13:20:52.084Z</time>
      </trkpt>
      <trkpt lat="47.642765" lon="8.895129">
        <ele>425.821874</ele>
        <time>2022-01-07T13:20:55.579Z</time>
      </trkpt>
      <trkpt lat="47.642463" lon="8.895282">
        <ele>426.871324</ele>
        <time>2022-01-07T13:21:07.666Z</time>
      </trkpt>
      <trkpt lat="47.642406" lon="8.895150">
        <ele>427.218722</ele>
        <time>2022-01-07T13:21:12.095Z</time>
      </trkpt>
      <trkpt lat="47.642229" lon="8.895049">
        <ele>427.842358</ele>
        <time>2022-01-07T13:21:18.536Z</time>
      </trkpt>
      <trkpt lat="47.642208" lon="8.894924">
        <ele>428.127812</ele>
        <time>2022-01-07T13:21:21.391Z</time>
      </trkpt>
      <trkpt lat="47.642466" lon="8.893079">
        <ele>430.677296</ele>
        <time>2022-01-07T13:22:03.342Z</time>
      </trkpt>
      <trkpt lat="47.642769" lon="8.891921">
        <ele>431.198945</ele>
        <time>2022-01-07T13:22:22.090Z</time>
      </trkpt>
      <trkpt lat="47.642759" lon="8.891781">
        <ele>431.258063</ele>
        <time>2022-01-07T13:22:23.792Z</time>
      </trkpt>
      <trkpt lat="47.642706" lon="8.891721">
        <ele>431.299607</ele>
        <time>2022-01-07T13:22:25.050Z</time>
      </trkpt>
      <trkpt lat="47.642487" lon="8.891615">
        <ele>431.357814</ele>
        <time>2022-01-07T13:22:29.573Z</time>
      </trkpt>
      <trkpt lat="47.642832" lon="8.888920">
        <ele>428.589208</ele>
        <time>2022-01-07T13:23:02.913Z</time>
      </trkpt>
      <trkpt lat="47.643127" lon="8.885494">
        <ele>425.417459</ele>
        <time>2022-01-07T13:23:46.435Z</time>
      </trkpt>
      <trkpt lat="47.643289" lon="8.884638">
        <ele>424.636372</ele>
        <time>2022-01-07T13:23:57.440Z</time>
      </trkpt>
      <trkpt lat="47.643702" lon="8.883294">
        <ele>423.864632</ele>
        <time>2022-01-07T13:24:16.009Z</time>
      </trkpt>
      <trkpt lat="47.644096" lon="8.881756">
        <ele>423.828268</ele>
        <time>2022-01-07T13:24:40.772Z</time>
      </trkpt>
      <trkpt lat="47.644062" lon="8.881345">
        <ele>423.820928</ele>
        <time>2022-01-07T13:24:48.520Z</time>
      </trkpt>
      <trkpt lat="47.643732" lon="8.881263">
        <ele>424.034135</ele>
        <time>2022-01-07T13:24:58.229Z</time>
      </trkpt>
      <trkpt lat="47.643652" lon="8.881163">
        <ele>424.100782</ele>
        <time>2022-01-07T13:25:00.752Z</time>
      </trkpt>
      <trkpt lat="47.643765" lon="8.880282">
        <ele>424.485803</ele>
        <time>2022-01-07T13:25:16.957Z</time>
      </trkpt>
      <trkpt lat="47.643809" lon="8.879559">
        <ele>424.797463</ele>
        <time>2022-01-07T13:25:29.354Z</time>
      </trkpt>
      <trkpt lat="47.643820" lon="8.879380">
        <ele>424.874629</ele>
        <time>2022-01-07T13:25:32.595Z</time>
      </trkpt>
      <trkpt lat="47.644071" lon="8.879341">
        <ele>424.785007</ele>
        <time>2022-01-07T13:25:37.718Z</time>
      </trkpt>
      <trkpt lat="47.644070" lon="8.879055">
        <ele>424.469235</ele>
        <time>2022-01-07T13:25:41.692Z</time>
      </trkpt>
      <trkpt lat="47.644088" lon="8.878920">
        <ele>424.317293</ele>
        <time>2022-01-07T13:25:43.362Z</time>
      </trkpt>
      <trkpt lat="47.644120" lon="8.878645">
        <ele>424.009175</ele>
        <time>2022-01-07T13:25:46.876Z</time>
      </trkpt>
      <trkpt lat="47.644208" lon="8.877888">
        <ele>423.161035</ele>
        <time>2022-01-07T13:25:55.773Z</time>
      </trkpt>
      <trkpt lat="47.644664" lon="8.877744">
        <ele>422.397039</ele>
        <time>2022-01-07T13:26:03.652Z</time>
      </trkpt>
      <trkpt lat="47.645031" lon="8.877407">
        <ele>421.861186</ele>
        <time>2022-01-07T13:26:11.392Z</time>
      </trkpt>
      <trkpt lat="47.645219" lon="8.877093">
        <ele>421.639718</ele>
        <time>2022-01-07T13:26:16.798Z</time>
      </trkpt>
      <trkpt lat="47.645252" lon="8.876703">
        <ele>421.432491</ele>
        <time>2022-01-07T13:26:22.005Z</time>
      </trkpt>
      <trkpt lat="47.645263" lon="8.876627">
        <ele>421.391509</ele>
        <time>2022-01-07T13:26:23.048Z</time>
      </trkpt>
      <trkpt lat="47.645410" lon="8.876098">
        <ele>421.089823</ele>
        <time>2022-01-07T13:26:30.748Z</time>
      </trkpt>
      <trkpt lat="47.645505" lon="8.875852">
        <ele>420.940335</ele>
        <time>2022-01-07T13:26:34.596Z</time>
      </trkpt>
      <trkpt lat="47.645700" lon="8.875320">
        <ele>420.621038</ele>
        <time>2022-01-07T13:26:43.537Z</time>
      </trkpt>
      <trkpt lat="47.645763" lon="8.875142">
        <ele>420.537291</ele>
        <time>2022-01-07T13:26:46.814Z</time>
      </trkpt>
      <trkpt lat="47.645743" lon="8.874859">
        <ele>420.422324</ele>
        <time>2022-01-07T13:26:51.446Z</time>
      </trkpt>
      <trkpt lat="47.645561" lon="8.874898">
        <ele>420.312046</ele>
        <time>2022-01-07T13:26:56.081Z</time>
      </trkpt>
      <trkpt lat="47.645533" lon="8.874537">
        <ele>420.165229</ele>
        <time>2022-01-07T13:27:01.201Z</time>
      </trkpt>
      <trkpt lat="47.645573" lon="8.874034">
        <ele>419.960592</ele>
        <time>2022-01-07T13:27:07.884Z</time>
      </trkpt>
      <trkpt lat="47.645577" lon="8.873977">
        <ele>419.937438</ele>
        <time>2022-01-07T13:27:08.632Z</time>
      </trkpt>
      <trkpt lat="47.645572" lon="8.873510">
        <ele>419.748733</ele>
        <time>2022-01-07T13:27:14.590Z</time>
      </trkpt>
      <trkpt lat="47.645650" lon="8.872676">
        <ele>419.291594</ele>
        <time>2022-01-07T13:27:25.445Z</time>
      </trkpt>
      <trkpt lat="47.645701" lon="8.872537">
        <ele>419.166895</ele>
        <time>2022-01-07T13:27:27.293Z</time>
      </trkpt>
      <trkpt lat="47.646101" lon="8.872604">
        <ele>418.696157</ele>
        <time>2022-01-07T13:27:34.881Z</time>
      </trkpt>
      <trkpt lat="47.646173" lon="8.872541">
        <ele>418.598417</ele>
        <time>2022-01-07T13:27:36.498Z</time>
      </trkpt>
      <trkpt lat="47.646391" lon="8.871483">
        <ele>417.726761</ele>
        <time>2022-01-07T13:27:50.589Z</time>
      </trkpt>
      <trkpt lat="47.646710" lon="8.870412">
        <ele>416.933666</ele>
        <time>2022-01-07T13:28:05.574Z</time>
      </trkpt>
      <trkpt lat="47.646686" lon="8.870243">
        <ele>416.825825</ele>
        <time>2022-01-07T13:28:08.346Z</time>
      </trkpt>
      <trkpt lat="47.646881" lon="8.870076">
        <ele>416.617172</ele>
        <time>2022-01-07T13:28:12.773Z</time>
      </trkpt>
      <trkpt lat="47.646942" lon="8.870044">
        <ele>416.557210</ele>
        <time>2022-01-07T13:28:14.072Z</time>
      </trkpt>
      <trkpt lat="47.647275" lon="8.869456">
        <ele>416.077581</ele>
        <time>2022-01-07T13:28:24.554Z</time>
      </trkpt>
      <trkpt lat="47.648399" lon="8.867768">
        <ele>414.196994</ele>
        <time>2022-01-07T13:28:54.243Z</time>
      </trkpt>
      <trkpt lat="47.649586" lon="8.866044">
        <ele>412.294289</ele>
        <time>2022-01-07T13:29:26.139Z</time>
      </trkpt>
      <trkpt lat="47.650501" lon="8.864718">
        <ele>410.778021</ele>
        <time>2022-01-07T13:29:50.484Z</time>
      </trkpt>
      <trkpt lat="47.650727" lon="8.864315">
        <ele>410.324209</ele>
        <time>2022-01-07T13:29:57.065Z</time>
      </trkpt>
      <trkpt lat="47.650912" lon="8.863782">
        <ele>409.805297</ele>
        <time>2022-01-07T13:30:04.522Z</time>
      </trkpt>
      <trkpt lat="47.650689" lon="8.863494">
        <ele>409.425557</ele>
        <time>2022-01-07T13:30:09.892Z</time>
      </trkpt>
      <trkpt lat="47.651313" lon="8.860826">
        <ele>407.306588</ele>
        <time>2022-01-07T13:30:45.653Z</time>
      </trkpt>
      <trkpt lat="47.651447" lon="8.860518">
        <ele>407.307316</ele>
        <time>2022-01-07T13:30:50.792Z</time>
      </trkpt>
      <trkpt lat="47.652746" lon="8.858941">
        <ele>407.792871</ele>
        <time>2022-01-07T13:31:30.695Z</time>
      </trkpt>
      <trkpt lat="47.653679" lon="8.858103">
        <ele>409.321103</ele>
        <time>2022-01-07T13:32:01.226Z</time>
      </trkpt>
      <trkpt lat="47.654071" lon="8.857613">
        <ele>410.039273</ele>
        <time>2022-01-07T13:32:16.065Z</time>
      </trkpt>
      <trkpt lat="47.654556" lon="8.856987">
        <ele>410.868600</ele>
        <time>2022-01-07T13:32:34.813Z</time>
      </trkpt>
      <trkpt lat="47.654758" lon="8.856764">
        <ele>411.187567</ele>
        <time>2022-01-07T13:32:42.274Z</time>
      </trkpt>
      <trkpt lat="47.655758" lon="8.854977">
        <ele>412.229995</ele>
        <time>2022-01-07T13:33:23.032Z</time>
      </trkpt>
      <trkpt lat="47.655752" lon="8.854756">
        <ele>412.163597</ele>
        <time>2022-01-07T13:33:26.147Z</time>
      </trkpt>
      <trkpt lat="47.655712" lon="8.854658">
        <ele>412.129198</ele>
        <time>2022-01-07T13:33:27.839Z</time>
      </trkpt>
      <trkpt lat="47.655853" lon="8.854375">
        <ele>412.023527</ele>
        <time>2022-01-07T13:33:32.533Z</time>
      </trkpt>
      <trkpt lat="47.655986" lon="8.853553">
        <ele>411.769747</ele>
        <time>2022-01-07T13:33:43.324Z</time>
      </trkpt>
      <trkpt lat="47.656287" lon="8.852927">
        <ele>411.244466</ele>
        <time>2022-01-07T13:33:52.526Z</time>
      </trkpt>
      <trkpt lat="47.656588" lon="8.852444">
        <ele>410.613763</ele>
        <time>2022-01-07T13:34:00.663Z</time>
      </trkpt>
      <trkpt lat="47.657011" lon="8.851215">
        <ele>409.290900</ele>
        <time>2022-01-07T13:34:17.901Z</time>
      </trkpt>
      <trkpt lat="47.657078" lon="8.851119">
        <ele>409.158398</ele>
        <time>2022-01-07T13:34:19.586Z</time>
      </trkpt>
      <trkpt lat="47.657212" lon="8.851083">
        <ele>409.056726</ele>
        <time>2022-01-07T13:34:22.117Z</time>
      </trkpt>
      <trkpt lat="47.657706" lon="8.851327">
        <ele>408.773807</ele>
        <time>2022-01-07T13:34:32.333Z</time>
      </trkpt>
      <trkpt lat="47.657786" lon="8.851310">
        <ele>408.729890</ele>
        <time>2022-01-07T13:34:33.804Z</time>
      </trkpt>
      <trkpt lat="47.657869" lon="8.851193">
        <ele>408.667694</ele>
        <time>2022-01-07T13:34:36.148Z</time>
      </trkpt>
      <trkpt lat="47.658013" lon="8.850617">
        <ele>408.442809</ele>
        <time>2022-01-07T13:34:44.745Z</time>
      </trkpt>
      <trkpt lat="47.658088" lon="8.850033">
        <ele>408.225199</ele>
        <time>2022-01-07T13:34:53.934Z</time>
      </trkpt>
      <trkpt lat="47.658084" lon="8.849334">
        <ele>408.154187</ele>
        <time>2022-01-07T13:35:04.758Z</time>
      </trkpt>
      <trkpt lat="47.657938" lon="8.848567">
        <ele>408.185628</ele>
        <time>2022-01-07T13:35:16.212Z</time>
      </trkpt>
      <trkpt lat="47.658080" lon="8.848552">
        <ele>408.193965</ele>
        <time>2022-01-07T13:35:19.616Z</time>
      </trkpt>
      <trkpt lat="47.658122" lon="8.848552">
        <ele>408.196425</ele>
        <time>2022-01-07T13:35:20.541Z</time>
      </trkpt>
      <trkpt lat="47.658594" lon="8.848970">
        <ele>408.228611</ele>
        <time>2022-01-07T13:35:32.582Z</time>
      </trkpt>
      <trkpt lat="47.658728" lon="8.849010">
        <ele>408.236616</ele>
        <time>2022-01-07T13:35:35.897Z</time>
      </trkpt>
      <trkpt lat="47.658730" lon="8.848019">
        <ele>408.372921</ele>
        <time>2022-01-07T13:35:51.534Z</time>
      </trkpt>
      <trkpt lat="47.658737" lon="8.846701">
        <ele>408.572844</ele>
        <time>2022-01-07T13:36:12.306Z</time>
      </trkpt>
      <trkpt lat="47.658716" lon="8.846074">
        <ele>408.680603</ele>
        <time>2022-01-07T13:36:21.791Z</time>
      </trkpt>
      <trkpt lat="47.658704" lon="8.845266">
        <ele>408.874770</ele>
        <time>2022-01-07T13:36:34.630Z</time>
      </trkpt>
      <trkpt lat="47.659360" lon="8.841878">
        <ele>409.399281</ele>
        <time>2022-01-07T13:37:31.287Z</time>
      </trkpt>
      <trkpt lat="47.659482" lon="8.841247">
        <ele>409.439709</ele>
        <time>2022-01-07T13:37:40.690Z</time>
      </trkpt>
      <trkpt lat="47.661225" lon="8.842818">
        <ele>407.900967</ele>
        <time>2022-01-07T13:38:20.554Z</time>
      </trkpt>
      <trkpt lat="47.661244" lon="8.842762">
        <ele>407.864141</ele>
        <time>2022-01-07T13:38:21.388Z</time>
      </trkpt>
      <trkpt lat="47.661560" lon="8.841832">
        <ele>407.252394</ele>
        <time>2022-01-07T13:38:35.211Z</time>
      </trkpt>
      <trkpt lat="47.662078" lon="8.840320">
        <ele>406.289866</ele>
        <time>2022-01-07T13:38:57.604Z</time>
      </trkpt>
      <trkpt lat="47.662341" lon="8.839560">
        <ele>405.891837</ele>
        <time>2022-01-07T13:39:08.607Z</time>
      </trkpt>
      <trkpt lat="47.662458" lon="8.839022">
        <ele>405.628481</ele>
        <time>2022-01-07T13:39:16.166Z</time>
      </trkpt>
      <trkpt lat="47.662905" lon="8.837679">
        <ele>405.243620</ele>
        <time>2022-01-07T13:39:37.419Z</time>
      </trkpt>
      <trkpt lat="47.662974" lon="8.837732">
        <ele>405.258662</ele>
        <time>2022-01-07T13:39:39.125Z</time>
      </trkpt>
      <trkpt lat="47.663043" lon="8.837782">
        <ele>405.273528</ele>
        <time>2022-01-07T13:39:40.743Z</time>
      </trkpt>
      <trkpt lat="47.663124" lon="8.837503">
        <ele>405.313146</ele>
        <time>2022-01-07T13:39:45.207Z</time>
      </trkpt>
      <trkpt lat="47.663421" lon="8.837722">
        <ele>405.377352</ele>
        <time>2022-01-07T13:39:52.826Z</time>
      </trkpt>
      <trkpt lat="47.663437" lon="8.837734">
        <ele>405.380823</ele>
        <time>2022-01-07T13:39:53.243Z</time>
      </trkpt>
      <trkpt lat="47.663824" lon="8.838031">
        <ele>405.465172</ele>
        <time>2022-01-07T13:40:03.775Z</time>
      </trkpt>
      <trkpt lat="47.664097" lon="8.838208">
        <ele>405.522850</ele>
        <time>2022-01-07T13:40:11.151Z</time>
      </trkpt>
      <trkpt lat="47.665051" lon="8.837760">
        <ele>406.963376</ele>
        <time>2022-01-07T13:40:37.593Z</time>
      </trkpt>
      <trkpt lat="47.665652" lon="8.837476">
        <ele>407.873737</ele>
        <time>2022-01-07T13:40:55.827Z</time>
      </trkpt>
      <trkpt lat="47.666006" lon="8.837113">
        <ele>408.809105</ele>
        <time>2022-01-07T13:41:09.754Z</time>
      </trkpt>
      <trkpt lat="47.667514" lon="8.835244">
        <ele>413.264902</ele>
        <time>2022-01-07T13:42:16.156Z</time>
      </trkpt>
      <trkpt lat="47.669083" lon="8.832463">
        <ele>414.705317</ele>
        <time>2022-01-07T13:43:11.881Z</time>
      </trkpt>
      <trkpt lat="47.669289" lon="8.832192">
        <ele>414.766186</ele>
        <time>2022-01-07T13:43:18.095Z</time>
      </trkpt>
      <trkpt lat="47.669531" lon="8.831967">
        <ele>414.829335</ele>
        <time>2022-01-07T13:43:25.016Z</time>
      </trkpt>
      <trkpt lat="47.669834" lon="8.831902">
        <ele>415.000084</ele>
        <time>2022-01-07T13:43:32.363Z</time>
      </trkpt>
      <trkpt lat="47.669977" lon="8.831890">
        <ele>415.138523</ele>
        <time>2022-01-07T13:43:35.653Z</time>
      </trkpt>
      <trkpt lat="47.670355" lon="8.831532">
        <ele>415.571865</ele>
        <time>2022-01-07T13:43:46.312Z</time>
      </trkpt>
      <trkpt lat="47.670434" lon="8.831383">
        <ele>415.695299</ele>
        <time>2022-01-07T13:43:49.405Z</time>
      </trkpt>
      <trkpt lat="47.670641" lon="8.830872">
        <ele>416.083439</ele>
        <time>2022-01-07T13:43:59.448Z</time>
      </trkpt>
      <trkpt lat="47.671280" lon="8.829207">
        <ele>419.243127</ele>
        <time>2022-01-07T13:44:38.116Z</time>
      </trkpt>
      <trkpt lat="47.672154" lon="8.826882">
        <ele>427.157943</ele>
        <time>2022-01-07T13:45:51.528Z</time>
      </trkpt>
      <trkpt lat="47.672248" lon="8.826507">
        <ele>428.688574</ele>
        <time>2022-01-07T13:46:05.266Z</time>
      </trkpt>
      <trkpt lat="47.672214" lon="8.826120">
        <ele>430.181486</ele>
        <time>2022-01-07T13:46:19.042Z</time>
      </trkpt>
      <trkpt lat="47.671857" lon="8.823794">
        <ele>437.543381</ele>
        <time>2022-01-07T13:47:30.956Z</time>
      </trkpt>
      <trkpt lat="47.671791" lon="8.823186">
        <ele>439.225235</ele>
        <time>2022-01-07T13:47:44.400Z</time>
      </trkpt>
      <trkpt lat="47.672280" lon="8.821865">
        <ele>439.811713</ele>
        <time>2022-01-07T13:48:10.840Z</time>
      </trkpt>
      <trkpt lat="47.671412" lon="8.821327">
        <ele>438.991926</ele>
        <time>2022-01-07T13:48:27.922Z</time>
      </trkpt>
      <trkpt lat="47.672334" lon="8.818681">
        <ele>431.562663</ele>
        <time>2022-01-07T13:48:59.453Z</time>
      </trkpt>
      <trkpt lat="47.672537" lon="8.818100">
        <ele>429.545192</ele>
        <time>2022-01-07T13:49:06.002Z</time>
      </trkpt>
      <trkpt lat="47.671358" lon="8.817196">
        <ele>423.534074</ele>
        <time>2022-01-07T13:49:26.197Z</time>
      </trkpt>
      <trkpt lat="47.671247" lon="8.817048">
        <ele>423.117546</ele>
        <time>2022-01-07T13:49:28.529Z</time>
      </trkpt>
      <trkpt lat="47.671218" lon="8.816719">
        <ele>422.493674</ele>
        <time>2022-01-07T13:49:32.413Z</time>
      </trkpt>
      <trkpt lat="47.671336" lon="8.816497">
        <ele>421.961896</ele>
        <time>2022-01-07T13:49:35.561Z</time>
      </trkpt>
      <trkpt lat="47.671795" lon="8.816253">
        <ele>420.600635</ele>
        <time>2022-01-07T13:49:43.899Z</time>
      </trkpt>
      <trkpt lat="47.672065" lon="8.815859">
        <ele>419.543685</ele>
        <time>2022-01-07T13:49:50.317Z</time>
      </trkpt>
      <trkpt lat="47.673013" lon="8.813130">
        <ele>415.168221</ele>
        <time>2022-01-07T13:50:26.154Z</time>
      </trkpt>
      <trkpt lat="47.673213" lon="8.812354">
        <ele>414.996430</ele>
        <time>2022-01-07T13:50:37.101Z</time>
      </trkpt>
      <trkpt lat="47.673209" lon="8.811500">
        <ele>414.947848</ele>
        <time>2022-01-07T13:50:50.459Z</time>
      </trkpt>
      <trkpt lat="47.673058" lon="8.810378">
        <ele>414.869650</ele>
        <time>2022-01-07T13:51:10.100Z</time>
      </trkpt>
      <trkpt lat="47.672967" lon="8.810125">
        <ele>414.791369</ele>
        <time>2022-01-07T13:51:14.927Z</time>
      </trkpt>
      <trkpt lat="47.672860" lon="8.809941">
        <ele>414.725018</ele>
        <time>2022-01-07T13:51:18.644Z</time>
      </trkpt>
      <trkpt lat="47.673110" lon="8.809162">
        <ele>414.489504</ele>
        <time>2022-01-07T13:51:31.092Z</time>
      </trkpt>
      <trkpt lat="47.673394" lon="8.808721">
        <ele>414.322965</ele>
        <time>2022-01-07T13:51:39.221Z</time>
      </trkpt>
      <trkpt lat="47.673566" lon="8.808557">
        <ele>414.240122</ele>
        <time>2022-01-07T13:51:43.089Z</time>
      </trkpt>
      <trkpt lat="47.674009" lon="8.808153">
        <ele>413.896359</ele>
        <time>2022-01-07T13:51:52.653Z</time>
      </trkpt>
      <trkpt lat="47.674462" lon="8.807600">
        <ele>413.411218</ele>
        <time>2022-01-07T13:52:03.953Z</time>
      </trkpt>
      <trkpt lat="47.674889" lon="8.807325">
        <ele>413.026163</ele>
        <time>2022-01-07T13:52:12.770Z</time>
      </trkpt>
      <trkpt lat="47.674962" lon="8.807208">
        <ele>412.937306</ele>
        <time>2022-01-07T13:52:14.994Z</time>
      </trkpt>
      <trkpt lat="47.675001" lon="8.806895">
        <ele>412.759984</ele>
        <time>2022-01-07T13:52:19.405Z</time>
      </trkpt>
      <trkpt lat="47.675095" lon="8.805956">
        <ele>412.858155</ele>
        <time>2022-01-07T13:52:34.322Z</time>
      </trkpt>
      <trkpt lat="47.675102" lon="8.805712">
        <ele>412.916863</ele>
        <time>2022-01-07T13:52:38.127Z</time>
      </trkpt>
      <trkpt lat="47.675189" lon="8.804964">
        <ele>413.099336</ele>
        <time>2022-01-07T13:52:51.570Z</time>
      </trkpt>
      <trkpt lat="47.675580" lon="8.803170">
        <ele>413.179735</ele>
        <time>2022-01-07T13:53:21.134Z</time>
      </trkpt>
      <trkpt lat="47.675634" lon="8.802541">
        <ele>413.096649</ele>
        <time>2022-01-07T13:53:30.044Z</time>
      </trkpt>
      <trkpt lat="47.675511" lon="8.801986">
        <ele>413.020089</ele>
        <time>2022-01-07T13:53:38.005Z</time>
      </trkpt>
      <trkpt lat="47.674996" lon="8.800617">
        <ele>412.830862</ele>
        <time>2022-01-07T13:53:59.686Z</time>
      </trkpt>
      <trkpt lat="47.674975" lon="8.800005">
        <ele>412.759465</ele>
        <time>2022-01-07T13:54:08.492Z</time>
      </trkpt>
      <trkpt lat="47.674859" lon="8.799911">
        <ele>412.736599</ele>
        <time>2022-01-07T13:54:11.331Z</time>
      </trkpt>
      <trkpt lat="47.674841" lon="8.799819">
        <ele>412.725437</ele>
        <time>2022-01-07T13:54:12.727Z</time>
      </trkpt>
      <trkpt lat="47.674749" lon="8.799758">
        <ele>412.708003</ele>
        <time>2022-01-07T13:54:15.165Z</time>
      </trkpt>
      <trkpt lat="47.674702" lon="8.799592">
        <ele>412.687022</ele>
        <time>2022-01-07T13:54:17.804Z</time>
      </trkpt>
      <trkpt lat="47.674452" lon="8.798399">
        <ele>413.497524</ele>
        <time>2022-01-07T13:54:37.823Z</time>
      </trkpt>
      <trkpt lat="47.673934" lon="8.795747">
        <ele>416.712909</ele>
        <time>2022-01-07T13:55:33.600Z</time>
      </trkpt>
      <trkpt lat="47.673793" lon="8.794052">
        <ele>419.361470</ele>
        <time>2022-01-07T13:56:12.289Z</time>
      </trkpt>
      <trkpt lat="47.673837" lon="8.792407">
        <ele>419.710410</ele>
        <time>2022-01-07T13:56:44.714Z</time>
      </trkpt>
      <trkpt lat="47.674111" lon="8.790226">
        <ele>417.034729</ele>
        <time>2022-01-07T13:57:10.147Z</time>
      </trkpt>
      <trkpt lat="47.674588" lon="8.787642">
        <ele>411.892842</ele>
        <time>2022-01-07T13:57:38.051Z</time>
      </trkpt>
      <trkpt lat="47.674796" lon="8.786744">
        <ele>410.477118</ele>
        <time>2022-01-07T13:57:50.002Z</time>
      </trkpt>
      <trkpt lat="47.674901" lon="8.786400">
        <ele>409.914056</ele>
        <time>2022-01-07T13:57:55.855Z</time>
      </trkpt>
      <trkpt lat="47.675004" lon="8.786250">
        <ele>409.954271</ele>
        <time>2022-01-07T13:57:59.113Z</time>
      </trkpt>
      <trkpt lat="47.674991" lon="8.786084">
        <ele>410.163736</ele>
        <time>2022-01-07T13:58:02.145Z</time>
      </trkpt>
      <trkpt lat="47.674971" lon="8.785882">
        <ele>410.419643</ele>
        <time>2022-01-07T13:58:06.254Z</time>
      </trkpt>
      <trkpt lat="47.675220" lon="8.784925">
        <ele>411.705570</ele>
        <time>2022-01-07T13:58:28.197Z</time>
      </trkpt>
      <trkpt lat="47.676062" lon="8.781886">
        <ele>415.790956</ele>
        <time>2022-01-07T13:59:37.687Z</time>
      </trkpt>
      <trkpt lat="47.676853" lon="8.779318">
        <ele>416.493617</ele>
        <time>2022-01-07T14:00:24.059Z</time>
      </trkpt>
      <trkpt lat="47.677804" lon="8.776007">
        <ele>412.228026</ele>
        <time>2022-01-07T14:01:05.762Z</time>
      </trkpt>
      <trkpt lat="47.677878" lon="8.775803">
        <ele>412.007745</ele>
        <time>2022-01-07T14:01:08.487Z</time>
      </trkpt>
      <trkpt lat="47.677958" lon="8.775583">
        <ele>411.770057</ele>
        <time>2022-01-07T14:01:11.423Z</time>
      </trkpt>
      <trkpt lat="47.678083" lon="8.775384">
        <ele>411.511342</ele>
        <time>2022-01-07T14:01:14.720Z</time>
      </trkpt>
      <trkpt lat="47.678061" lon="8.775245">
        <ele>411.375605</ele>
        <time>2022-01-07T14:01:16.498Z</time>
      </trkpt>
      <trkpt lat="47.678146" lon="8.775091">
        <ele>411.186307</ele>
        <time>2022-01-07T14:01:18.924Z</time>
      </trkpt>
      <trkpt lat="47.678589" lon="8.774315">
        <ele>410.219163</ele>
        <time>2022-01-07T14:01:32.440Z</time>
      </trkpt>
      <trkpt lat="47.679320" lon="8.773080">
        <ele>410.639553</ele>
        <time>2022-01-07T14:01:57.882Z</time>
      </trkpt>
      <trkpt lat="47.680296" lon="8.771209">
        <ele>411.246488</ele>
        <time>2022-01-07T14:02:39.686Z</time>
      </trkpt>
      <trkpt lat="47.680376" lon="8.771055">
        <ele>411.295903</ele>
        <time>2022-01-07T14:02:43.109Z</time>
      </trkpt>
      <trkpt lat="47.680778" lon="8.770471">
        <ele>411.508084</ele>
        <time>2022-01-07T14:02:54.764Z</time>
      </trkpt>
      <trkpt lat="47.681809" lon="8.769312">
        <ele>411.157258</ele>
        <time>2022-01-07T14:03:22.220Z</time>
      </trkpt>
      <trkpt lat="47.682234" lon="8.768781">
        <ele>410.937966</ele>
        <time>2022-01-07T14:03:33.092Z</time>
      </trkpt>
      <trkpt lat="47.683082" lon="8.767699">
        <ele>410.834369</ele>
        <time>2022-01-07T14:03:57.185Z</time>
      </trkpt>
      <trkpt lat="47.683106" lon="8.767668">
        <ele>410.832994</ele>
        <time>2022-01-07T14:03:57.891Z</time>
      </trkpt>
      <trkpt lat="47.683290" lon="8.767445">
        <ele>410.822724</ele>
        <time>2022-01-07T14:04:03.462Z</time>
      </trkpt>
      <trkpt lat="47.683450" lon="8.767224">
        <ele>410.813276</ele>
        <time>2022-01-07T14:04:08.506Z</time>
      </trkpt>
      <trkpt lat="47.683599" lon="8.766881">
        <ele>410.801391</ele>
        <time>2022-01-07T14:04:14.798Z</time>
      </trkpt>
      <trkpt lat="47.683550" lon="8.766847">
        <ele>410.799052</ele>
        <time>2022-01-07T14:04:16.056Z</time>
      </trkpt>
      <trkpt lat="47.684153" lon="8.764845">
        <ele>411.106110</ele>
        <time>2022-01-07T14:04:50.117Z</time>
      </trkpt>
      <trkpt lat="47.684534" lon="8.763876">
        <ele>411.222949</ele>
        <time>2022-01-07T14:05:07.710Z</time>
      </trkpt>
      <trkpt lat="47.685208" lon="8.762193">
        <ele>411.364292</ele>
        <time>2022-01-07T14:05:37.297Z</time>
      </trkpt>
      <trkpt lat="47.685747" lon="8.760784">
        <ele>411.465469</ele>
        <time>2022-01-07T14:06:02.760Z</time>
      </trkpt>
      <trkpt lat="47.686122" lon="8.759771">
        <ele>411.535836</ele>
        <time>2022-01-07T14:06:19.972Z</time>
      </trkpt>
      <trkpt lat="47.686635" lon="8.758362">
        <ele>411.163389</ele>
        <time>2022-01-07T14:06:42.965Z</time>
      </trkpt>
      <trkpt lat="47.686672" lon="8.758279">
        <ele>411.140243</ele>
        <time>2022-01-07T14:06:44.315Z</time>
      </trkpt>
      <trkpt lat="47.686758" lon="8.758245">
        <ele>411.109506</ele>
        <time>2022-01-07T14:06:46.059Z</time>
      </trkpt>
      <trkpt lat="47.687236" lon="8.756969">
        <ele>410.678701</ele>
        <time>2022-01-07T14:07:06.208Z</time>
      </trkpt>
      <trkpt lat="47.687418" lon="8.756487">
        <ele>410.469572</ele>
        <time>2022-01-07T14:07:13.886Z</time>
      </trkpt>
      <trkpt lat="47.687635" lon="8.755902">
        <ele>410.216817</ele>
        <time>2022-01-07T14:07:23.096Z</time>
      </trkpt>
      <trkpt lat="47.687682" lon="8.755776">
        <ele>410.162307</ele>
        <time>2022-01-07T14:07:25.041Z</time>
      </trkpt>
      <trkpt lat="47.687807" lon="8.755439">
        <ele>410.016705</ele>
        <time>2022-01-07T14:07:30.270Z</time>
      </trkpt>
      <trkpt lat="47.687999" lon="8.754931">
        <ele>409.841507</ele>
        <time>2022-01-07T14:07:37.971Z</time>
      </trkpt>
      <trkpt lat="47.688031" lon="8.754846">
        <ele>409.820080</ele>
        <time>2022-01-07T14:07:39.259Z</time>
      </trkpt>
      <trkpt lat="47.688040" lon="8.754824">
        <ele>409.814416</ele>
        <time>2022-01-07T14:07:39.595Z</time>
      </trkpt>
      <trkpt lat="47.688174" lon="8.754462">
        <ele>409.723524</ele>
        <time>2022-01-07T14:07:45.281Z</time>
      </trkpt>
      <trkpt lat="47.688390" lon="8.754015">
        <ele>409.602463</ele>
        <time>2022-01-07T14:07:53.074Z</time>
      </trkpt>
      <trkpt lat="47.688448" lon="8.753901">
        <ele>409.571024</ele>
        <time>2022-01-07T14:07:55.125Z</time>
      </trkpt>
      <trkpt lat="47.688425" lon="8.753794">
        <ele>409.546312</ele>
        <time>2022-01-07T14:07:56.894Z</time>
      </trkpt>
      <trkpt lat="47.688714" lon="8.753567">
        <ele>409.439466</ele>
        <time>2022-01-07T14:08:03.961Z</time>
      </trkpt>
      <trkpt lat="47.688862" lon="8.753374">
        <ele>409.375101</ele>
        <time>2022-01-07T14:08:08.222Z</time>
      </trkpt>
      <trkpt lat="47.688974" lon="8.753112">
        <ele>409.298481</ele>
        <time>2022-01-07T14:08:12.877Z</time>
      </trkpt>
      <trkpt lat="47.689124" lon="8.752438">
        <ele>409.008075</ele>
        <time>2022-01-07T14:08:23.369Z</time>
      </trkpt>
      <trkpt lat="47.689187" lon="8.752071">
        <ele>408.853133</ele>
        <time>2022-01-07T14:08:28.999Z</time>
      </trkpt>
      <trkpt lat="47.689222" lon="8.751861">
        <ele>408.764630</ele>
        <time>2022-01-07T14:08:31.985Z</time>
      </trkpt>
      <trkpt lat="47.689230" lon="8.751793">
        <ele>408.736390</ele>
        <time>2022-01-07T14:08:32.963Z</time>
      </trkpt>
      <trkpt lat="47.689234" lon="8.751776">
        <ele>408.729023</ele>
        <time>2022-01-07T14:08:33.213Z</time>
      </trkpt>
      <trkpt lat="47.689292" lon="8.751461">
        <ele>408.595426</ele>
        <time>2022-01-07T14:08:37.778Z</time>
      </trkpt>
      <trkpt lat="47.689404" lon="8.750614">
        <ele>408.242305</ele>
        <time>2022-01-07T14:08:49.320Z</time>
      </trkpt>
      <trkpt lat="47.689501" lon="8.749833">
        <ele>406.720890</ele>
        <time>2022-01-07T14:08:58.590Z</time>
      </trkpt>
      <trkpt lat="47.689552" lon="8.749425">
        <ele>405.887378</ele>
        <time>2022-01-07T14:09:03.150Z</time>
      </trkpt>
      <trkpt lat="47.689457" lon="8.749123">
        <ele>405.217820</ele>
        <time>2022-01-07T14:09:06.722Z</time>
      </trkpt>
      <trkpt lat="47.689301" lon="8.748883">
        <ele>404.547703</ele>
        <time>2022-01-07T14:09:10.213Z</time>
      </trkpt>
      <trkpt lat="47.689245" lon="8.748818">
        <ele>404.335649</ele>
        <time>2022-01-07T14:09:11.347Z</time>
      </trkpt>
      <trkpt lat="47.689031" lon="8.748569">
        <ele>403.524548</ele>
        <time>2022-01-07T14:09:15.576Z</time>
      </trkpt>
      <trkpt lat="47.688797" lon="8.748270">
        <ele>402.809718</ele>
        <time>2022-01-07T14:09:20.483Z</time>
      </trkpt>
      <trkpt lat="47.688754" lon="8.748213">
        <ele>402.777898</ele>
        <time>2022-01-07T14:09:21.410Z</time>
      </trkpt>
      <trkpt lat="47.688526" lon="8.747797">
        <ele>402.578513</ele>
        <time>2022-01-07T14:09:27.419Z</time>
      </trkpt>
      <trkpt lat="47.688393" lon="8.747267">
        <ele>402.368282</ele>
        <time>2022-01-07T14:09:34.375Z</time>
      </trkpt>
      <trkpt lat="47.688258" lon="8.746738">
        <ele>402.158009</ele>
        <time>2022-01-07T14:09:42.485Z</time>
      </trkpt>
      <trkpt lat="47.688396" lon="8.746608">
        <ele>402.067785</ele>
        <time>2022-01-07T14:09:46.643Z</time>
      </trkpt>
      <trkpt lat="47.688687" lon="8.746108">
        <ele>402.114445</ele>
        <time>2022-01-07T14:10:01.018Z</time>
      </trkpt>
      <trkpt lat="47.689054" lon="8.745378">
        <ele>404.172314</ele>
        <time>2022-01-07T14:10:24.093Z</time>
      </trkpt>
      <trkpt lat="47.689279" lon="8.744946">
        <ele>405.405989</ele>
        <time>2022-01-07T14:10:38.113Z</time>
      </trkpt>
      <trkpt lat="47.689632" lon="8.744221">
        <ele>407.426923</ele>
        <time>2022-01-07T14:11:00.562Z</time>
      </trkpt>
      <trkpt lat="47.690200" lon="8.743067">
        <ele>409.328584</ele>
        <time>2022-01-07T14:11:32.397Z</time>
      </trkpt>
      <trkpt lat="47.690265" lon="8.742822">
        <ele>409.637086</ele>
        <time>2022-01-07T14:11:37.155Z</time>
      </trkpt>
      <trkpt lat="47.690361" lon="8.742698">
        <ele>409.858479</ele>
        <time>2022-01-07T14:11:40.980Z</time>
      </trkpt>
      <trkpt lat="47.690647" lon="8.739973">
        <ele>411.357662</ele>
        <time>2022-01-07T14:12:25.117Z</time>
      </trkpt>
      <trkpt lat="47.690660" lon="8.739881">
        <ele>411.375247</ele>
        <time>2022-01-07T14:12:26.648Z</time>
      </trkpt>
      <trkpt lat="47.690839" lon="8.738300">
        <ele>411.676475</ele>
        <time>2022-01-07T14:12:51.238Z</time>
      </trkpt>
      <trkpt lat="47.690868" lon="8.737934">
        <ele>411.746036</ele>
        <time>2022-01-07T14:12:56.413Z</time>
      </trkpt>
      <trkpt lat="47.690856" lon="8.737642">
        <ele>411.801255</ele>
        <time>2022-01-07T14:13:00.786Z</time>
      </trkpt>
      <trkpt lat="47.690850" lon="8.737433">
        <ele>411.840741</ele>
        <time>2022-01-07T14:13:03.818Z</time>
      </trkpt>
      <trkpt lat="47.690938" lon="8.736734">
        <ele>411.974968</ele>
        <time>2022-01-07T14:13:14.881Z</time>
      </trkpt>
      <trkpt lat="47.691128" lon="8.736345">
        <ele>412.134790</ele>
        <time>2022-01-07T14:13:23.261Z</time>
      </trkpt>
      <trkpt lat="47.691259" lon="8.735891">
        <ele>412.423976</ele>
        <time>2022-01-07T14:13:32.780Z</time>
      </trkpt>
      <trkpt lat="47.691189" lon="8.735864">
        <ele>412.486877</ele>
        <time>2022-01-07T14:13:35.063Z</time>
      </trkpt>
      <trkpt lat="47.691132" lon="8.735844">
        <ele>412.537817</ele>
        <time>2022-01-07T14:13:36.903Z</time>
      </trkpt>
      <trkpt lat="47.690894" lon="8.735734">
        <ele>412.754604</ele>
        <time>2022-01-07T14:13:44.024Z</time>
      </trkpt>
      <trkpt lat="47.690581" lon="8.735443">
        <ele>413.075751</ele>
        <time>2022-01-07T14:13:53.125Z</time>
      </trkpt>
      <trkpt lat="47.690020" lon="8.735200">
        <ele>413.583998</ele>
        <time>2022-01-07T14:14:07.484Z</time>
      </trkpt>
      <trkpt lat="47.689629" lon="8.735062">
        <ele>413.335593</ele>
        <time>2022-01-07T14:14:16.757Z</time>
      </trkpt>
      <trkpt lat="47.689775" lon="8.734577">
        <ele>413.093692</ele>
        <time>2022-01-07T14:14:24.396Z</time>
      </trkpt>
      <trkpt lat="47.689926" lon="8.733807">
        <ele>412.728528</ele>
        <time>2022-01-07T14:14:35.144Z</time>
      </trkpt>
      <trkpt lat="47.690049" lon="8.733149">
        <ele>412.417598</ele>
        <time>2022-01-07T14:14:43.405Z</time>
      </trkpt>
      <trkpt lat="47.690189" lon="8.730672">
        <ele>409.925476</ele>
        <time>2022-01-07T14:15:13.583Z</time>
      </trkpt>
      <trkpt lat="47.690250" lon="8.728338">
        <ele>408.505426</ele>
        <time>2022-01-07T14:15:44.424Z</time>
      </trkpt>
      <trkpt lat="47.690362" lon="8.726867">
        <ele>407.941245</ele>
        <time>2022-01-07T14:16:05.002Z</time>
      </trkpt>
      <trkpt lat="47.690347" lon="8.726077">
        <ele>407.734464</ele>
        <time>2022-01-07T14:16:16.155Z</time>
      </trkpt>
      <trkpt lat="47.690210" lon="8.724948">
        <ele>407.461316</ele>
        <time>2022-01-07T14:16:32.271Z</time>
      </trkpt>
      <trkpt lat="47.689669" lon="8.722829">
        <ele>407.299426</ele>
        <time>2022-01-07T14:17:04.973Z</time>
      </trkpt>
      <trkpt lat="47.689329" lon="8.721871">
        <ele>407.825680</ele>
        <time>2022-01-07T14:17:22.617Z</time>
      </trkpt>
      <trkpt lat="47.689045" lon="8.720586">
        <ele>408.725536</ele>
        <time>2022-01-07T14:17:46.471Z</time>
      </trkpt>
      <trkpt lat="47.688444" lon="8.717737">
        <ele>412.333551</ele>
        <time>2022-01-07T14:19:16.790Z</time>
      </trkpt>
      <trkpt lat="47.688274" lon="8.716657">
        <ele>413.431599</ele>
        <time>2022-01-07T14:19:51.106Z</time>
      </trkpt>
      <trkpt lat="47.688184" lon="8.715841">
        <ele>414.195418</ele>
        <time>2022-01-07T14:20:14.795Z</time>
      </trkpt>
      <trkpt lat="47.688192" lon="8.715590">
        <ele>414.427535</ele>
        <time>2022-01-07T14:20:22.439Z</time>
      </trkpt>
      <trkpt lat="47.688237" lon="8.713421">
        <ele>414.644053</ele>
        <time>2022-01-07T14:21:18.158Z</time>
      </trkpt>
      <trkpt lat="47.687887" lon="8.712507">
        <ele>414.361002</ele>
        <time>2022-01-07T14:21:41.678Z</time>
      </trkpt>
      <trkpt lat="47.687326" lon="8.711829">
        <ele>413.513312</ele>
        <time>2022-01-07T14:22:04.854Z</time>
      </trkpt>
      <trkpt lat="47.687010" lon="8.711243">
        <ele>412.871089</ele>
        <time>2022-01-07T14:22:21.234Z</time>
      </trkpt>
      <trkpt lat="47.687073" lon="8.710933">
        <ele>412.594111</ele>
        <time>2022-01-07T14:22:28.360Z</time>
      </trkpt>
      <trkpt lat="47.687348" lon="8.710600">
        <ele>412.143309</ele>
        <time>2022-01-07T14:22:40.492Z</time>
      </trkpt>
      <trkpt lat="47.687476" lon="8.710563">
        <ele>412.040469</ele>
        <time>2022-01-07T14:22:45.168Z</time>
      </trkpt>
      <trkpt lat="47.687796" lon="8.710711">
        <ele>412.024544</ele>
        <time>2022-01-07T14:22:57.255Z</time>
      </trkpt>
      <trkpt lat="47.687982" lon="8.710631">
        <ele>412.015344</ele>
        <time>2022-01-07T14:23:04.333Z</time>
      </trkpt>
      <trkpt lat="47.688049" lon="8.710396">
        <ele>412.007181</ele>
        <time>2022-01-07T14:23:10.543Z</time>
      </trkpt>
      <trkpt lat="47.688025" lon="8.709947">
        <ele>411.992774</ele>
        <time>2022-01-07T14:23:21.682Z</time>
      </trkpt>
      <trkpt lat="47.687942" lon="8.709042">
        <ele>411.963561</ele>
        <time>2022-01-07T14:23:45.373Z</time>
      </trkpt>
      <trkpt lat="47.688055" lon="8.708055">
        <ele>411.733827</ele>
        <time>2022-01-07T14:24:11.256Z</time>
      </trkpt>
      <trkpt lat="47.688302" lon="8.707325">
        <ele>411.508294</ele>
        <time>2022-01-07T14:24:31.386Z</time>
      </trkpt>
      <trkpt lat="47.688513" lon="8.705316">
        <ele>410.565221</ele>
        <time>2022-01-07T14:25:16.756Z</time>
      </trkpt>
      <trkpt lat="47.688592" lon="8.703410">
        <ele>409.435384</ele>
        <time>2022-01-07T14:26:00.362Z</time>
      </trkpt>
      <trkpt lat="47.688538" lon="8.702156">
        <ele>409.352350</ele>
        <time>2022-01-07T14:26:31.225Z</time>
      </trkpt>
      <trkpt lat="47.688453" lon="8.701492">
        <ele>409.307686</ele>
        <time>2022-01-07T14:26:48.301Z</time>
      </trkpt>
      <trkpt lat="47.688434" lon="8.700084">
        <ele>409.620196</ele>
        <time>2022-01-07T14:27:24.977Z</time>
      </trkpt>
      <trkpt lat="47.688253" lon="8.699014">
        <ele>410.047243</ele>
        <time>2022-01-07T14:27:54.953Z</time>
      </trkpt>
      <trkpt lat="47.687888" lon="8.697714">
        <ele>410.323305</ele>
        <time>2022-01-07T14:28:32.108Z</time>
      </trkpt>
      <trkpt lat="47.687775" lon="8.696919">
        <ele>410.340224</ele>
        <time>2022-01-07T14:28:52.818Z</time>
      </trkpt>
      <trkpt lat="47.687095" lon="8.694770">
        <ele>409.093452</ele>
        <time>2022-01-07T14:29:49.532Z</time>
      </trkpt>
      <trkpt lat="47.686946" lon="8.693816">
        <ele>408.098351</ele>
        <time>2022-01-07T14:30:10.252Z</time>
      </trkpt>
      <trkpt lat="47.686944" lon="8.693315">
        <ele>407.517281</ele>
        <time>2022-01-07T14:30:20.492Z</time>
      </trkpt>
      <trkpt lat="47.687004" lon="8.692989">
        <ele>406.758344</ele>
        <time>2022-01-07T14:30:27.140Z</time>
      </trkpt>
      <trkpt lat="47.687437" lon="8.691261">
        <ele>402.617835</ele>
        <time>2022-01-07T14:30:46.943Z</time>
      </trkpt>
      <trkpt lat="47.687536" lon="8.690681">
        <ele>401.448196</ele>
        <time>2022-01-07T14:30:53.367Z</time>
      </trkpt>
      <trkpt lat="47.687650" lon="8.689697">
        <ele>400.247507</ele>
        <time>2022-01-07T14:31:04.703Z</time>
      </trkpt>
      <trkpt lat="47.687521" lon="8.688277">
        <ele>398.524430</ele>
        <time>2022-01-07T14:31:23.071Z</time>
      </trkpt>
      <trkpt lat="47.687292" lon="8.687448">
        <ele>398.249877</ele>
        <time>2022-01-07T14:31:36.469Z</time>
      </trkpt>
      <trkpt lat="47.687028" lon="8.686844">
        <ele>398.087076</ele>
        <time>2022-01-07T14:31:47.457Z</time>
      </trkpt>
      <trkpt lat="47.685468" lon="8.683415">
        <ele>396.368165</ele>
        <time>2022-01-07T14:32:44.062Z</time>
      </trkpt>
      <trkpt lat="47.685399" lon="8.683261">
        <ele>396.247645</ele>
        <time>2022-01-07T14:32:46.280Z</time>
      </trkpt>
      <trkpt lat="47.685307" lon="8.683081">
        <ele>396.100407</ele>
        <time>2022-01-07T14:32:48.962Z</time>
      </trkpt>
      <trkpt lat="47.685245" lon="8.682955">
        <ele>395.998727</ele>
        <time>2022-01-07T14:32:50.810Z</time>
      </trkpt>
      <trkpt lat="47.684992" lon="8.682525">
        <ele>395.626667</ele>
        <time>2022-01-07T14:32:57.594Z</time>
      </trkpt>
      <trkpt lat="47.684105" lon="8.681547">
        <ele>395.184632</ele>
        <time>2022-01-07T14:33:19.867Z</time>
      </trkpt>
      <trkpt lat="47.684014" lon="8.681450">
        <ele>395.310818</ele>
        <time>2022-01-07T14:33:22.688Z</time>
      </trkpt>
      <trkpt lat="47.684049" lon="8.681296">
        <ele>395.434094</ele>
        <time>2022-01-07T14:33:25.264Z</time>
      </trkpt>
      <trkpt lat="47.683688" lon="8.679343">
        <ele>397.002271</ele>
        <time>2022-01-07T14:34:04.897Z</time>
      </trkpt>
      <trkpt lat="47.683591" lon="8.678342">
        <ele>398.024616</ele>
        <time>2022-01-07T14:34:26.499Z</time>
      </trkpt>
      <trkpt lat="47.683458" lon="8.678011">
        <ele>398.414293</ele>
        <time>2022-01-07T14:34:33.877Z</time>
      </trkpt>
      <trkpt lat="47.683549" lon="8.677237">
        <ele>399.208578</ele>
        <time>2022-01-07T14:34:47.869Z</time>
      </trkpt>
      <trkpt lat="47.683575" lon="8.677110">
        <ele>399.342768</ele>
        <time>2022-01-07T14:34:50.079Z</time>
      </trkpt>
      <trkpt lat="47.683777" lon="8.676290">
        <ele>399.464416</ele>
        <time>2022-01-07T14:35:04.873Z</time>
      </trkpt>
      <trkpt lat="47.683863" lon="8.675704">
        <ele>399.361861</ele>
        <time>2022-01-07T14:35:13.964Z</time>
      </trkpt>
      <trkpt lat="47.683948" lon="8.675483">
        <ele>399.318339</ele>
        <time>2022-01-07T14:35:18.151Z</time>
      </trkpt>
      <trkpt lat="47.684042" lon="8.675409">
        <ele>399.291318</ele>
        <time>2022-01-07T14:35:20.745Z</time>
      </trkpt>
      <trkpt lat="47.684253" lon="8.675395">
        <ele>399.237673</ele>
        <time>2022-01-07T14:35:24.817Z</time>
      </trkpt>
      <trkpt lat="47.684599" lon="8.675607">
        <ele>399.142609</ele>
        <time>2022-01-07T14:35:31.654Z</time>
      </trkpt>
      <trkpt lat="47.684756" lon="8.675700">
        <ele>399.049231</ele>
        <time>2022-01-07T14:35:34.927Z</time>
      </trkpt>
      <trkpt lat="47.684807" lon="8.675683">
        <ele>398.998755</ele>
        <time>2022-01-07T14:35:35.761Z</time>
      </trkpt>
      <trkpt lat="47.685163" lon="8.675082">
        <ele>398.478310</ele>
        <time>2022-01-07T14:35:45.511Z</time>
      </trkpt>
      <trkpt lat="47.685174" lon="8.674828">
        <ele>398.312837</ele>
        <time>2022-01-07T14:35:48.625Z</time>
      </trkpt>
      <trkpt lat="47.685096" lon="8.674435">
        <ele>398.046466</ele>
        <time>2022-01-07T14:35:53.589Z</time>
      </trkpt>
      <trkpt lat="47.685050" lon="8.674317">
        <ele>397.957817</ele>
        <time>2022-01-07T14:35:55.123Z</time>
      </trkpt>
      <trkpt lat="47.684961" lon="8.674066">
        <ele>397.773384</ele>
        <time>2022-01-07T14:35:58.432Z</time>
      </trkpt>
      <trkpt lat="47.683929" lon="8.670908">
        <ele>400.764941</ele>
        <time>2022-01-07T14:37:02.073Z</time>
      </trkpt>
      <trkpt lat="47.683702" lon="8.670089">
        <ele>403.713295</ele>
        <time>2022-01-07T14:37:29.946Z</time>
      </trkpt>
      <trkpt lat="47.683704" lon="8.669832">
        <ele>404.568872</ele>
        <time>2022-01-07T14:37:37.017Z</time>
      </trkpt>
      <trkpt lat="47.684120" lon="8.668349">
        <ele>409.060432</ele>
        <time>2022-01-07T14:38:28.327Z</time>
      </trkpt>
      <trkpt lat="47.684029" lon="8.668192">
        <ele>409.181801</ele>
        <time>2022-01-07T14:38:34.486Z</time>
      </trkpt>
      <trkpt lat="47.684066" lon="8.667643">
        <ele>409.505034</ele>
        <time>2022-01-07T14:38:44.614Z</time>
      </trkpt>
      <trkpt lat="47.683993" lon="8.666424">
        <ele>410.221990</ele>
        <time>2022-01-07T14:39:01.451Z</time>
      </trkpt>
      <trkpt lat="47.683870" lon="8.664326">
        <ele>408.386102</ele>
        <time>2022-01-07T14:39:27.468Z</time>
      </trkpt>
      <trkpt lat="47.683877" lon="8.663980">
        <ele>407.974415</ele>
        <time>2022-01-07T14:39:31.809Z</time>
      </trkpt>
      <trkpt lat="47.683926" lon="8.663279">
        <ele>407.238701</ele>
        <time>2022-01-07T14:39:40.955Z</time>
      </trkpt>
      <trkpt lat="47.683930" lon="8.663246">
        <ele>407.230506</ele>
        <time>2022-01-07T14:39:41.389Z</time>
      </trkpt>
      <trkpt lat="47.683984" lon="8.662815">
        <ele>407.123365</ele>
        <time>2022-01-07T14:39:47.240Z</time>
      </trkpt>
      <trkpt lat="47.684051" lon="8.662345">
        <ele>407.005954</ele>
        <time>2022-01-07T14:39:53.926Z</time>
      </trkpt>
      <trkpt lat="47.684074" lon="8.662215">
        <ele>406.973105</ele>
        <time>2022-01-07T14:39:55.869Z</time>
      </trkpt>
      <trkpt lat="47.684226" lon="8.661480">
        <ele>406.785194</ele>
        <time>2022-01-07T14:40:08.381Z</time>
      </trkpt>
      <trkpt lat="47.684286" lon="8.661219">
        <ele>406.717792</ele>
        <time>2022-01-07T14:40:13.544Z</time>
      </trkpt>
      <trkpt lat="47.684381" lon="8.660805">
        <ele>406.611917</ele>
        <time>2022-01-07T14:40:20.715Z</time>
      </trkpt>
      <trkpt lat="47.684410" lon="8.660684">
        <ele>406.603958</ele>
        <time>2022-01-07T14:40:22.936Z</time>
      </trkpt>
      <trkpt lat="47.684447" lon="8.660520">
        <ele>406.593240</ele>
        <time>2022-01-07T14:40:25.322Z</time>
      </trkpt>
      <trkpt lat="47.684714" lon="8.659527">
        <ele>406.526979</ele>
        <time>2022-01-07T14:40:41.019Z</time>
      </trkpt>
      <trkpt lat="47.684843" lon="8.659212">
        <ele>406.504132</ele>
        <time>2022-01-07T14:40:46.465Z</time>
      </trkpt>
      <trkpt lat="47.685896" lon="8.657250">
        <ele>406.585186</ele>
        <time>2022-01-07T14:41:26.037Z</time>
      </trkpt>
      <trkpt lat="47.686969" lon="8.655411">
        <ele>406.650107</ele>
        <time>2022-01-07T14:42:05.687Z</time>
      </trkpt>
      <trkpt lat="47.687240" lon="8.655009">
        <ele>406.637235</ele>
        <time>2022-01-07T14:42:14.284Z</time>
      </trkpt>
      <trkpt lat="47.687617" lon="8.654585">
        <ele>406.621343</ele>
        <time>2022-01-07T14:42:24.657Z</time>
      </trkpt>
      <trkpt lat="47.688283" lon="8.654054">
        <ele>406.553275</ele>
        <time>2022-01-07T14:42:40.955Z</time>
      </trkpt>
      <trkpt lat="47.688352" lon="8.653999">
        <ele>406.545990</ele>
        <time>2022-01-07T14:42:42.592Z</time>
      </trkpt>
      <trkpt lat="47.688923" lon="8.653457">
        <ele>406.482951</ele>
        <time>2022-01-07T14:42:57.443Z</time>
      </trkpt>
      <trkpt lat="47.689578" lon="8.652729">
        <ele>407.171216</ele>
        <time>2022-01-07T14:43:18.892Z</time>
      </trkpt>
      <trkpt lat="47.690296" lon="8.651664">
        <ele>408.649028</ele>
        <time>2022-01-07T14:43:50.858Z</time>
      </trkpt>
      <trkpt lat="47.690406" lon="8.651429">
        <ele>408.929659</ele>
        <time>2022-01-07T14:43:56.761Z</time>
      </trkpt>
      <trkpt lat="47.690620" lon="8.650872">
        <ele>409.140579</ele>
        <time>2022-01-07T14:44:09.073Z</time>
      </trkpt>
      <trkpt lat="47.690727" lon="8.650348">
        <ele>409.215808</ele>
        <time>2022-01-07T14:44:18.309Z</time>
      </trkpt>
      <trkpt lat="47.690735" lon="8.650012">
        <ele>409.261998</ele>
        <time>2022-01-07T14:44:23.243Z</time>
      </trkpt>
      <trkpt lat="47.690758" lon="8.649679">
        <ele>409.307987</ele>
        <time>2022-01-07T14:44:28.004Z</time>
      </trkpt>
      <trkpt lat="47.690937" lon="8.648948">
        <ele>409.414854</ele>
        <time>2022-01-07T14:44:38.924Z</time>
      </trkpt>
      <trkpt lat="47.691154" lon="8.648132">
        <ele>409.148411</ele>
        <time>2022-01-07T14:44:50.678Z</time>
      </trkpt>
      <trkpt lat="47.691206" lon="8.647949">
        <ele>409.065478</ele>
        <time>2022-01-07T14:44:53.197Z</time>
      </trkpt>
      <trkpt lat="47.691438" lon="8.647117">
        <ele>408.689486</ele>
        <time>2022-01-07T14:45:05.045Z</time>
      </trkpt>
      <trkpt lat="47.691520" lon="8.646858">
        <ele>408.569988</ele>
        <time>2022-01-07T14:45:08.969Z</time>
      </trkpt>
      <trkpt lat="47.691591" lon="8.646629">
        <ele>408.464725</ele>
        <time>2022-01-07T14:45:12.437Z</time>
      </trkpt>
      <trkpt lat="47.691710" lon="8.646305">
        <ele>408.331741</ele>
        <time>2022-01-07T14:45:17.693Z</time>
      </trkpt>
      <trkpt lat="47.691866" lon="8.646010">
        <ele>408.423032</ele>
        <time>2022-01-07T14:45:23.308Z</time>
      </trkpt>
      <trkpt lat="47.692003" lon="8.645752">
        <ele>408.502999</ele>
        <time>2022-01-07T14:45:28.585Z</time>
      </trkpt>
      <trkpt lat="47.691798" lon="8.645389">
        <ele>408.618306</ele>
        <time>2022-01-07T14:45:36.047Z</time>
      </trkpt>
      <trkpt lat="47.691664" lon="8.645202">
        <ele>408.684770</ele>
        <time>2022-01-07T14:45:40.285Z</time>
      </trkpt>
      <trkpt lat="47.692208" lon="8.643681">
        <ele>409.826184</ele>
        <time>2022-01-07T14:46:08.922Z</time>
      </trkpt>
      <trkpt lat="47.692255" lon="8.643551">
        <ele>410.062078</ele>
        <time>2022-01-07T14:46:11.652Z</time>
      </trkpt>
      <trkpt lat="47.692317" lon="8.643377">
        <ele>410.376799</ele>
        <time>2022-01-07T14:46:15.575Z</time>
      </trkpt>
      <trkpt lat="47.692397" lon="8.643185">
        <ele>410.737770</ele>
        <time>2022-01-07T14:46:20.102Z</time>
      </trkpt>
      <trkpt lat="47.692447" lon="8.643068">
        <ele>410.959314</ele>
        <time>2022-01-07T14:46:22.912Z</time>
      </trkpt>
      <trkpt lat="47.692296" lon="8.642747">
        <ele>411.585345</ele>
        <time>2022-01-07T14:46:31.860Z</time>
      </trkpt>
      <trkpt lat="47.692245" lon="8.642428">
        <ele>412.109477</ele>
        <time>2022-01-07T14:46:39.714Z</time>
      </trkpt>
      <trkpt lat="47.692229" lon="8.642108">
        <ele>412.622431</ele>
        <time>2022-01-07T14:46:47.358Z</time>
      </trkpt>
      <trkpt lat="47.692271" lon="8.641769">
        <ele>413.173451</ele>
        <time>2022-01-07T14:46:55.729Z</time>
      </trkpt>
      <trkpt lat="47.692433" lon="8.641361">
        <ele>414.299203</ele>
        <time>2022-01-07T14:47:07.877Z</time>
      </trkpt>
      <trkpt lat="47.692451" lon="8.641320">
        <ele>414.419558</ele>
        <time>2022-01-07T14:47:09.155Z</time>
      </trkpt>
      <trkpt lat="47.692803" lon="8.640664">
        <ele>416.482253</ele>
        <time>2022-01-07T14:47:31.202Z</time>
      </trkpt>
      <trkpt lat="47.692987" lon="8.640210">
        <ele>417.785228</ele>
        <time>2022-01-07T14:47:44.947Z</time>
      </trkpt>
      <trkpt lat="47.693083" lon="8.639728">
        <ele>419.021110</ele>
        <time>2022-01-07T14:47:57.236Z</time>
      </trkpt>
      <trkpt lat="47.693094" lon="8.639455">
        <ele>419.693534</ele>
        <time>2022-01-07T14:48:03.708Z</time>
      </trkpt>
      <trkpt lat="47.693092" lon="8.639299">
        <ele>420.027938</ele>
        <time>2022-01-07T14:48:07.100Z</time>
      </trkpt>
      <trkpt lat="47.693027" lon="8.638844">
        <ele>420.956148</ele>
        <time>2022-01-07T14:48:17.238Z</time>
      </trkpt>
      <trkpt lat="47.692889" lon="8.638434">
        <ele>421.870927</ele>
        <time>2022-01-07T14:48:26.414Z</time>
      </trkpt>
      <trkpt lat="47.691764" lon="8.636564">
        <ele>428.325332</ele>
        <time>2022-01-07T14:49:25.154Z</time>
      </trkpt>
      <trkpt lat="47.691621" lon="8.636313">
        <ele>429.532098</ele>
        <time>2022-01-07T14:49:35.344Z</time>
      </trkpt>
      <trkpt lat="47.691387" lon="8.635643">
        <ele>432.302143</ele>
        <time>2022-01-07T14:49:59.836Z</time>
      </trkpt>
      <trkpt lat="47.691314" lon="8.635049">
        <ele>434.518058</ele>
        <time>2022-01-07T14:50:20.324Z</time>
      </trkpt>
      <trkpt lat="47.691331" lon="8.633901">
        <ele>438.836378</ele>
        <time>2022-01-07T14:50:59.096Z</time>
      </trkpt>
      <trkpt lat="47.691341" lon="8.632897">
        <ele>442.623066</ele>
        <time>2022-01-07T14:51:31.570Z</time>
      </trkpt>
      <trkpt lat="47.691158" lon="8.630816">
        <ele>446.274991</ele>
        <time>2022-01-07T14:52:19.465Z</time>
      </trkpt>
      <trkpt lat="47.691120" lon="8.629975">
        <ele>446.992924</ele>
        <time>2022-01-07T14:52:31.965Z</time>
      </trkpt>
      <trkpt lat="47.691112" lon="8.629776">
        <ele>447.162724</ele>
        <time>2022-01-07T14:52:34.893Z</time>
      </trkpt>
      <trkpt lat="47.691103" lon="8.629545">
        <ele>447.206567</ele>
        <time>2022-01-07T14:52:37.981Z</time>
      </trkpt>
      <trkpt lat="47.691102" lon="8.629489">
        <ele>447.115005</ele>
        <time>2022-01-07T14:52:38.710Z</time>
      </trkpt>
      <trkpt lat="47.691086" lon="8.629340">
        <ele>446.868392</ele>
        <time>2022-01-07T14:52:40.797Z</time>
      </trkpt>
      <trkpt lat="47.691068" lon="8.629233">
        <ele>446.688127</ele>
        <time>2022-01-07T14:52:42.283Z</time>
      </trkpt>
      <trkpt lat="47.691046" lon="8.629158">
        <ele>446.554409</ele>
        <time>2022-01-07T14:52:43.337Z</time>
      </trkpt>
      <trkpt lat="47.690845" lon="8.628878">
        <ele>445.885348</ele>
        <time>2022-01-07T14:52:48.349Z</time>
      </trkpt>
      <trkpt lat="47.690635" lon="8.628796">
        <ele>445.358118</ele>
        <time>2022-01-07T14:52:52.073Z</time>
      </trkpt>
      <trkpt lat="47.690368" lon="8.628876">
        <ele>444.696747</ele>
        <time>2022-01-07T14:52:56.928Z</time>
      </trkpt>
      <trkpt lat="47.689508" lon="8.629566">
        <ele>441.758085</ele>
        <time>2022-01-07T14:53:13.624Z</time>
      </trkpt>
      <trkpt lat="47.689389" lon="8.629440">
        <ele>441.077843</ele>
        <time>2022-01-07T14:53:15.858Z</time>
      </trkpt>
      <trkpt lat="47.689312" lon="8.629438">
        <ele>440.719357</ele>
        <time>2022-01-07T14:53:17.090Z</time>
      </trkpt>
      <trkpt lat="47.689090" lon="8.629622">
        <ele>439.535999</ele>
        <time>2022-01-07T14:53:21.113Z</time>
      </trkpt>
      <trkpt lat="47.688858" lon="8.629721">
        <ele>438.412378</ele>
        <time>2022-01-07T14:53:24.898Z</time>
      </trkpt>
      <trkpt lat="47.688818" lon="8.629731">
        <ele>438.223562</ele>
        <time>2022-01-07T14:53:25.502Z</time>
      </trkpt>
      <trkpt lat="47.687907" lon="8.629983">
        <ele>433.586051</ele>
        <time>2022-01-07T14:53:39.276Z</time>
      </trkpt>
      <trkpt lat="47.686897" lon="8.629684">
        <ele>426.429468</ele>
        <time>2022-01-07T14:53:54.085Z</time>
      </trkpt>
      <trkpt lat="47.686717" lon="8.629626">
        <ele>425.149546</ele>
        <time>2022-01-07T14:53:56.681Z</time>
      </trkpt>
      <trkpt lat="47.686503" lon="8.629557">
        <ele>423.627816</ele>
        <time>2022-01-07T14:53:59.747Z</time>
      </trkpt>
      <trkpt lat="47.685345" lon="8.629425">
        <ele>414.752032</ele>
        <time>2022-01-07T14:54:16.126Z</time>
      </trkpt>
      <trkpt lat="47.684933" lon="8.629433">
        <ele>411.534737</ele>
        <time>2022-01-07T14:54:21.928Z</time>
      </trkpt>
      <trkpt lat="47.684420" lon="8.629703">
        <ele>407.364167</ele>
        <time>2022-01-07T14:54:29.535Z</time>
      </trkpt>
      <trkpt lat="47.684040" lon="8.629936">
        <ele>404.497728</ele>
        <time>2022-01-07T14:54:35.352Z</time>
      </trkpt>
      <trkpt lat="47.684055" lon="8.629518">
        <ele>402.532824</ele>
        <time>2022-01-07T14:54:39.318Z</time>
      </trkpt>
      <trkpt lat="47.684058" lon="8.629471">
        <ele>402.311213</ele>
        <time>2022-01-07T14:54:39.770Z</time>
      </trkpt>
      <trkpt lat="47.684072" lon="8.629319">
        <ele>401.591069</ele>
        <time>2022-01-07T14:54:41.245Z</time>
      </trkpt>
      <trkpt lat="47.684087" lon="8.629159">
        <ele>400.832772</ele>
        <time>2022-01-07T14:54:42.796Z</time>
      </trkpt>
      <trkpt lat="47.684101" lon="8.628991">
        <ele>400.038151</ele>
        <time>2022-01-07T14:54:44.431Z</time>
      </trkpt>
      <trkpt lat="47.684106" lon="8.628936">
        <ele>399.777634</ele>
        <time>2022-01-07T14:54:44.974Z</time>
      </trkpt>
      <trkpt lat="47.684129" lon="8.628621">
        <ele>398.290335</ele>
        <time>2022-01-07T14:54:48.076Z</time>
      </trkpt>
      <trkpt lat="47.684122" lon="8.628046">
        <ele>395.590810</ele>
        <time>2022-01-07T14:54:53.791Z</time>
      </trkpt>
      <trkpt lat="47.684136" lon="8.627901">
        <ele>395.171435</ele>
        <time>2022-01-07T14:54:55.266Z</time>
      </trkpt>
      <trkpt lat="47.684024" lon="8.627646">
        <ele>394.403516</ele>
        <time>2022-01-07T14:54:58.440Z</time>
      </trkpt>
      <trkpt lat="47.683918" lon="8.627406">
        <ele>393.679561</ele>
        <time>2022-01-07T14:55:01.376Z</time>
      </trkpt>
      <trkpt lat="47.683557" lon="8.627425">
        <ele>392.326261</ele>
        <time>2022-01-07T14:55:07.067Z</time>
      </trkpt>
      <trkpt lat="47.683429" lon="8.627491">
        <ele>391.818650</ele>
        <time>2022-01-07T14:55:09.359Z</time>
      </trkpt>
      <trkpt lat="47.683361" lon="8.627552">
        <ele>391.521041</ele>
        <time>2022-01-07T14:55:10.694Z</time>
      </trkpt>
      <trkpt lat="47.683003" lon="8.627805">
        <ele>390.035767</ele>
        <time>2022-01-07T14:55:17.697Z</time>
      </trkpt>
      <trkpt lat="47.682736" lon="8.627889">
        <ele>389.013287</ele>
        <time>2022-01-07T14:55:22.879Z</time>
      </trkpt>
      <trkpt lat="47.682567" lon="8.627194">
        <ele>388.727944</ele>
        <time>2022-01-07T14:55:32.675Z</time>
      </trkpt>
      <trkpt lat="47.682217" lon="8.625929">
        <ele>388.692193</ele>
        <time>2022-01-07T14:55:54.960Z</time>
      </trkpt>
      <trkpt lat="47.682197" lon="8.625839">
        <ele>388.689716</ele>
        <time>2022-01-07T14:55:56.319Z</time>
      </trkpt>
      <trkpt lat="47.682173" lon="8.625879">
        <ele>388.688315</ele>
        <time>2022-01-07T14:55:57.107Z</time>
      </trkpt>
      <trkpt lat="47.682021" lon="8.625688">
        <ele>388.680585</ele>
        <time>2022-01-07T14:56:01.983Z</time>
      </trkpt>
      <trkpt lat="47.681897" lon="8.625648">
        <ele>388.675658</ele>
        <time>2022-01-07T14:56:04.796Z</time>
      </trkpt>
      <trkpt lat="47.681013" lon="8.625560">
        <ele>389.352437</ele>
        <time>2022-01-07T14:56:26.527Z</time>
      </trkpt>
      <trkpt lat="47.680682" lon="8.625539">
        <ele>389.613639</ele>
        <time>2022-01-07T14:56:35.356Z</time>
      </trkpt>
      <trkpt lat="47.680369" lon="8.625518">
        <ele>389.860663</ele>
        <time>2022-01-07T14:56:43.799Z</time>
      </trkpt>
      <trkpt lat="47.680025" lon="8.625502">
        <ele>390.160448</ele>
        <time>2022-01-07T14:56:52.935Z</time>
      </trkpt>
      <trkpt lat="47.679869" lon="8.625494">
        <ele>390.372562</ele>
        <time>2022-01-07T14:56:56.935Z</time>
      </trkpt>
      <trkpt lat="47.679767" lon="8.625402">
        <ele>390.534726</ele>
        <time>2022-01-07T14:56:59.903Z</time>
      </trkpt>
      <trkpt lat="47.679764" lon="8.625308">
        <ele>390.620824</ele>
        <time>2022-01-07T14:57:01.623Z</time>
      </trkpt>
      <trkpt lat="47.679823" lon="8.625151">
        <ele>390.785325</ele>
        <time>2022-01-07T14:57:04.796Z</time>
      </trkpt>
      <trkpt lat="47.680059" lon="8.624538">
        <ele>391.431382</ele>
        <time>2022-01-07T14:57:16.802Z</time>
      </trkpt>
      <trkpt lat="47.680498" lon="8.624854">
        <ele>392.094302</ele>
        <time>2022-01-07T14:57:30.431Z</time>
      </trkpt>
      <trkpt lat="47.680885" lon="8.625015">
        <ele>392.723397</ele>
        <time>2022-01-07T14:57:43.176Z</time>
      </trkpt>
      <trkpt lat="47.681755" lon="8.624980">
        <ele>394.853588</ele>
        <time>2022-01-07T14:58:10.920Z</time>
      </trkpt>
      <trkpt lat="47.681677" lon="8.624860">
        <ele>395.128451</ele>
        <time>2022-01-07T14:58:14.618Z</time>
      </trkpt>
      <trkpt lat="47.681026" lon="8.624315">
        <ele>396.960293</ele>
        <time>2022-01-07T14:58:38.510Z</time>
      </trkpt>
      <trkpt lat="47.680407" lon="8.623718">
        <ele>399.042866</ele>
        <time>2022-01-07T14:59:04.138Z</time>
      </trkpt>
      <trkpt lat="47.680325" lon="8.623604">
        <ele>399.359792</ele>
        <time>2022-01-07T14:59:08.086Z</time>
      </trkpt>
      <trkpt lat="47.680013" lon="8.623127">
        <ele>400.623225</ele>
        <time>2022-01-07T14:59:22.470Z</time>
      </trkpt>
      <trkpt lat="47.679732" lon="8.622708">
        <ele>401.746764</ele>
        <time>2022-01-07T14:59:35.435Z</time>
      </trkpt>
      <trkpt lat="47.679497" lon="8.622348">
        <ele>402.673827</ele>
        <time>2022-01-07T14:59:47.326Z</time>
      </trkpt>
      <trkpt lat="47.679310" lon="8.622061">
        <ele>403.404284</ele>
        <time>2022-01-07T14:59:56.410Z</time>
      </trkpt>
      <trkpt lat="47.679156" lon="8.621743">
        <ele>404.120711</ele>
        <time>2022-01-07T15:00:05.379Z</time>
      </trkpt>
      <trkpt lat="47.679052" lon="8.621381">
        <ele>404.840545</ele>
        <time>2022-01-07T15:00:14.589Z</time>
      </trkpt>
      <trkpt lat="47.679109" lon="8.621233">
        <ele>405.152386</ele>
        <time>2022-01-07T15:00:18.450Z</time>
      </trkpt>
      <trkpt lat="47.679391" lon="8.620950">
        <ele>406.076898</ele>
        <time>2022-01-07T15:00:29.777Z</time>
      </trkpt>
      <trkpt lat="47.679455" lon="8.620884">
        <ele>406.288548</ele>
        <time>2022-01-07T15:00:32.396Z</time>
      </trkpt>
      <trkpt lat="47.679470" lon="8.620868">
        <ele>406.338714</ele>
        <time>2022-01-07T15:00:33.028Z</time>
      </trkpt>
      <trkpt lat="47.679549" lon="8.620781">
        <ele>406.605869</ele>
        <time>2022-01-07T15:00:36.341Z</time>
      </trkpt>
      <trkpt lat="47.679632" lon="8.620489">
        <ele>406.816177</ele>
        <time>2022-01-07T15:00:42.627Z</time>
      </trkpt>
      <trkpt lat="47.679580" lon="8.619634">
        <ele>406.351869</ele>
        <time>2022-01-07T15:00:59.262Z</time>
      </trkpt>
      <trkpt lat="47.679577" lon="8.619574">
        <ele>406.319329</ele>
        <time>2022-01-07T15:01:00.306Z</time>
      </trkpt>
      <trkpt lat="47.679522" lon="8.618753">
        <ele>405.873100</ele>
        <time>2022-01-07T15:01:12.736Z</time>
      </trkpt>
      <trkpt lat="47.679544" lon="8.618561">
        <ele>405.767764</ele>
        <time>2022-01-07T15:01:14.942Z</time>
      </trkpt>
      <trkpt lat="47.679489" lon="8.618533">
        <ele>405.721059</ele>
        <time>2022-01-07T15:01:15.872Z</time>
      </trkpt>
      <trkpt lat="47.679300" lon="8.618446">
        <ele>405.562109</ele>
        <time>2022-01-07T15:01:18.949Z</time>
      </trkpt>
      <trkpt lat="47.679265" lon="8.618285">
        <ele>405.470606</ele>
        <time>2022-01-07T15:01:20.646Z</time>
      </trkpt>
      <trkpt lat="47.679384" lon="8.617983">
        <ele>404.126975</ele>
        <time>2022-01-07T15:01:24.057Z</time>
      </trkpt>
      <trkpt lat="47.679404" lon="8.617849">
        <ele>403.560999</ele>
        <time>2022-01-07T15:01:25.338Z</time>
      </trkpt>
      <trkpt lat="47.679186" lon="8.617121">
        <ele>400.275489</ele>
        <time>2022-01-07T15:01:33.112Z</time>
      </trkpt>
      <trkpt lat="47.678850" lon="8.616122">
        <ele>395.670585</ele>
        <time>2022-01-07T15:01:44.403Z</time>
      </trkpt>
      <trkpt lat="47.678789" lon="8.615969">
        <ele>394.937349</ele>
        <time>2022-01-07T15:01:46.069Z</time>
      </trkpt>
      <trkpt lat="47.678782" lon="8.615856">
        <ele>394.469410</ele>
        <time>2022-01-07T15:01:47.087Z</time>
      </trkpt>
      <trkpt lat="47.678888" lon="8.615788">
        <ele>393.594223</ele>
        <time>2022-01-07T15:01:48.768Z</time>
      </trkpt>
      <trkpt lat="47.678913" lon="8.615801">
        <ele>393.391755</ele>
        <time>2022-01-07T15:01:49.184Z</time>
      </trkpt>
      <trkpt lat="47.679248" lon="8.616409">
        <ele>389.348505</ele>
        <time>2022-01-07T15:01:56.486Z</time>
      </trkpt>
      <trkpt lat="47.679323" lon="8.616413">
        <ele>388.774851</ele>
        <time>2022-01-07T15:01:57.481Z</time>
      </trkpt>
      <trkpt lat="47.679439" lon="8.616277">
        <ele>387.645216</ele>
        <time>2022-01-07T15:01:59.665Z</time>
      </trkpt>
      <trkpt lat="47.679664" lon="8.615834">
        <ele>384.789413</ele>
        <time>2022-01-07T15:02:04.888Z</time>
      </trkpt>
      <trkpt lat="47.679748" lon="8.615609">
        <ele>383.465376</ele>
        <time>2022-01-07T15:02:07.283Z</time>
      </trkpt>
      <trkpt lat="47.679771" lon="8.615110">
        <ele>380.891329</ele>
        <time>2022-01-07T15:02:12.427Z</time>
      </trkpt>
      <trkpt lat="47.679805" lon="8.614880">
        <ele>379.692039</ele>
        <time>2022-01-07T15:02:14.729Z</time>
      </trkpt>
      <trkpt lat="47.679902" lon="8.614214">
        <ele>376.228854</ele>
        <time>2022-01-07T15:02:21.165Z</time>
      </trkpt>
      <trkpt lat="47.679907" lon="8.613798">
        <ele>374.114234</ele>
        <time>2022-01-07T15:02:24.938Z</time>
      </trkpt>
      <trkpt lat="47.679889" lon="8.613392">
        <ele>372.046306</ele>
        <time>2022-01-07T15:02:44.082Z</time>
      </trkpt>
      <trkpt lat="47.679808" lon="8.612939">
        <ele>369.664159</ele>
        <time>2022-01-07T15:03:06.034Z</time>
      </trkpt>
      <trkpt lat="47.679646" lon="8.612563">
        <ele>367.395370</ele>
        <time>2022-01-07T15:03:26.945Z</time>
      </trkpt>
      <trkpt lat="47.679537" lon="8.612394">
        <ele>366.882451</ele>
        <time>2022-01-07T15:03:37.910Z</time>
      </trkpt>
      <trkpt lat="47.679242" lon="8.611989">
        <ele>366.110541</ele>
        <time>2022-01-07T15:04:05.848Z</time>
      </trkpt>
      <trkpt lat="47.679213" lon="8.611947">
        <ele>366.032710</ele>
        <time>2022-01-07T15:04:08.684Z</time>
      </trkpt>
      <trkpt lat="47.678767" lon="8.611557">
        <ele>365.038216</ele>
        <time>2022-01-07T15:04:44.668Z</time>
      </trkpt>
      <trkpt lat="47.678621" lon="8.611463">
        <ele>364.732450</ele>
        <time>2022-01-07T15:04:55.680Z</time>
      </trkpt>
      <trkpt lat="47.678370" lon="8.611272">
        <ele>364.190533</ele>
        <time>2022-01-07T15:05:02.060Z</time>
      </trkpt>
      <trkpt lat="47.678274" lon="8.611209">
        <ele>363.988862</ele>
        <time>2022-01-07T15:05:04.898Z</time>
      </trkpt>
      <trkpt lat="47.678230" lon="8.611190">
        <ele>363.900815</ele>
        <time>2022-01-07T15:05:06.200Z</time>
      </trkpt>
      <trkpt lat="47.677866" lon="8.610858">
        <ele>364.666901</ele>
        <time>2022-01-07T15:05:18.887Z</time>
      </trkpt>
      <trkpt lat="47.677781" lon="8.610744">
        <ele>365.051736</ele>
        <time>2022-01-07T15:05:22.635Z</time>
      </trkpt>
      <trkpt lat="47.677203" lon="8.610315">
        <ele>367.222952</ele>
        <time>2022-01-07T15:05:45.211Z</time>
      </trkpt>
      <trkpt lat="47.677062" lon="8.610201">
        <ele>367.762395</ele>
        <time>2022-01-07T15:05:51.594Z</time>
      </trkpt>
      <trkpt lat="47.676998" lon="8.610014">
        <ele>368.236994</ele>
        <time>2022-01-07T15:05:57.140Z</time>
      </trkpt>
      <trkpt lat="47.677034" lon="8.609832">
        <ele>368.666163</ele>
        <time>2022-01-07T15:06:02.918Z</time>
      </trkpt>
      <trkpt lat="47.676571" lon="8.609595">
        <ele>370.499337</ele>
        <time>2022-01-07T15:06:22.846Z</time>
      </trkpt>
      <trkpt lat="47.676281" lon="8.609421">
        <ele>371.873195</ele>
        <time>2022-01-07T15:06:36.127Z</time>
      </trkpt>
      <trkpt lat="47.675950" lon="8.609290">
        <ele>373.377861</ele>
        <time>2022-01-07T15:06:50.675Z</time>
      </trkpt>
      <trkpt lat="47.675321" lon="8.609001">
        <ele>376.269958</ele>
        <time>2022-01-07T15:07:16.732Z</time>
      </trkpt>
      <trkpt lat="47.674962" lon="8.608836">
        <ele>377.661670</ele>
        <time>2022-01-07T15:07:31.003Z</time>
      </trkpt>
      <trkpt lat="47.674619" lon="8.608527">
        <ele>377.992753</ele>
        <time>2022-01-07T15:07:45.152Z</time>
      </trkpt>
      <trkpt lat="47.674404" lon="8.608452">
        <ele>378.175019</ele>
        <time>2022-01-07T15:07:52.386Z</time>
      </trkpt>
      <trkpt lat="47.674146" lon="8.608419">
        <ele>378.388732</ele>
        <time>2022-01-07T15:07:59.617Z</time>
      </trkpt>
      <trkpt lat="47.673808" lon="8.608373">
        <ele>378.668849</ele>
        <time>2022-01-07T15:08:06.961Z</time>
      </trkpt>
      <trkpt lat="47.672884" lon="8.608070">
        <ele>377.723684</ele>
        <time>2022-01-07T15:08:23.523Z</time>
      </trkpt>
      <trkpt lat="47.672565" lon="8.608052">
        <ele>376.736553</ele>
        <time>2022-01-07T15:08:28.556Z</time>
      </trkpt>
      <trkpt lat="47.672497" lon="8.608220">
        <ele>376.328410</ele>
        <time>2022-01-07T15:08:30.585Z</time>
      </trkpt>
      <trkpt lat="47.672412" lon="8.608381">
        <ele>375.902422</ele>
        <time>2022-01-07T15:08:32.804Z</time>
      </trkpt>
      <trkpt lat="47.672319" lon="8.608391">
        <ele>375.614092</ele>
        <time>2022-01-07T15:08:34.313Z</time>
      </trkpt>
      <trkpt lat="47.671860" lon="8.608224">
        <ele>374.152787</ele>
        <time>2022-01-07T15:08:41.812Z</time>
      </trkpt>
      <trkpt lat="47.671132" lon="8.608118">
        <ele>373.672226</ele>
        <time>2022-01-07T15:08:53.574Z</time>
      </trkpt>
      <trkpt lat="47.670052" lon="8.607777">
        <ele>373.981310</ele>
        <time>2022-01-07T15:09:23.420Z</time>
      </trkpt>
      <trkpt lat="47.669864" lon="8.607711">
        <ele>374.192539</ele>
        <time>2022-01-07T15:09:30.277Z</time>
      </trkpt>
      <trkpt lat="47.669687" lon="8.607630">
        <ele>375.324829</ele>
        <time>2022-01-07T15:09:37.500Z</time>
      </trkpt>
      <trkpt lat="47.669617" lon="8.607529">
        <ele>375.921502</ele>
        <time>2022-01-07T15:09:41.473Z</time>
      </trkpt>
      <trkpt lat="47.669431" lon="8.607281">
        <ele>377.449691</ele>
        <time>2022-01-07T15:09:52.690Z</time>
      </trkpt>
      <trkpt lat="47.669181" lon="8.607136">
        <ele>379.090485</ele>
        <time>2022-01-07T15:10:05.541Z</time>
      </trkpt>
      <trkpt lat="47.668594" lon="8.607130">
        <ele>382.679145</ele>
        <time>2022-01-07T15:10:35.417Z</time>
      </trkpt>
      <trkpt lat="47.667849" lon="8.607075">
        <ele>387.521901</ele>
        <time>2022-01-07T15:11:15.920Z</time>
      </trkpt>
      <trkpt lat="47.666947" lon="8.607123">
        <ele>393.743646</ele>
        <time>2022-01-07T15:12:01.516Z</time>
      </trkpt>
      <trkpt lat="47.665397" lon="8.607474">
        <ele>402.302214</ele>
        <time>2022-01-07T15:13:13.732Z</time>
      </trkpt>
      <trkpt lat="47.665281" lon="8.607431">
        <ele>402.866329</ele>
        <time>2022-01-07T15:13:17.934Z</time>
      </trkpt>
      <trkpt lat="47.665235" lon="8.607155">
        <ele>403.769792</ele>
        <time>2022-01-07T15:13:25.671Z</time>
      </trkpt>
      <trkpt lat="47.665160" lon="8.607120">
        <ele>404.140726</ele>
        <time>2022-01-07T15:13:28.292Z</time>
      </trkpt>
      <trkpt lat="47.664373" lon="8.606654">
        <ele>406.454852</ele>
        <time>2022-01-07T15:13:56.345Z</time>
      </trkpt>
      <trkpt lat="47.662755" lon="8.605866">
        <ele>408.010349</ele>
        <time>2022-01-07T15:14:37.296Z</time>
      </trkpt>
      <trkpt lat="47.662234" lon="8.605565">
        <ele>408.044415</ele>
        <time>2022-01-07T15:14:49.732Z</time>
      </trkpt>
      <trkpt lat="47.661631" lon="8.605121">
        <ele>408.085429</ele>
        <time>2022-01-07T15:15:04.853Z</time>
      </trkpt>
      <trkpt lat="47.660902" lon="8.604577">
        <ele>407.262242</ele>
        <time>2022-01-07T15:15:22.089Z</time>
      </trkpt>
      <trkpt lat="47.660756" lon="8.604477">
        <ele>407.047871</ele>
        <time>2022-01-07T15:15:25.162Z</time>
      </trkpt>
      <trkpt lat="47.660322" lon="8.604176">
        <ele>406.409217</ele>
        <time>2022-01-07T15:15:33.871Z</time>
      </trkpt>
      <trkpt lat="47.660117" lon="8.603941">
        <ele>406.063911</ele>
        <time>2022-01-07T15:15:38.396Z</time>
      </trkpt>
      <trkpt lat="47.659774" lon="8.603332">
        <ele>405.095733</ele>
        <time>2022-01-07T15:15:47.486Z</time>
      </trkpt>
      <trkpt lat="47.659450" lon="8.602546">
        <ele>403.660970</ele>
        <time>2022-01-07T15:15:57.705Z</time>
      </trkpt>
      <trkpt lat="47.659285" lon="8.602094">
        <ele>402.860510</ele>
        <time>2022-01-07T15:16:03.457Z</time>
      </trkpt>
      <trkpt lat="47.659235" lon="8.601946">
        <ele>402.602718</ele>
        <time>2022-01-07T15:16:05.344Z</time>
      </trkpt>
      <trkpt lat="47.659171" lon="8.601711">
        <ele>402.208053</ele>
        <time>2022-01-07T15:16:08.317Z</time>
      </trkpt>
      <trkpt lat="47.659044" lon="8.601161">
        <ele>401.602898</ele>
        <time>2022-01-07T15:16:15.540Z</time>
      </trkpt>
      <trkpt lat="47.658743" lon="8.600425">
        <ele>401.950167</ele>
        <time>2022-01-07T15:16:27.612Z</time>
      </trkpt>
      <trkpt lat="47.658468" lon="8.599930">
        <ele>402.208953</ele>
        <time>2022-01-07T15:16:39.378Z</time>
      </trkpt>
      <trkpt lat="47.658009" lon="8.599491">
        <ele>402.535889</ele>
        <time>2022-01-07T15:16:55.100Z</time>
      </trkpt>
      <trkpt lat="47.657741" lon="8.599278">
        <ele>403.109526</ele>
        <time>2022-01-07T15:17:03.563Z</time>
      </trkpt>
      <trkpt lat="47.658145" lon="8.598911">
        <ele>404.506496</ele>
        <time>2022-01-07T15:17:18.741Z</time>
      </trkpt>
      <trkpt lat="47.657812" lon="8.597934">
        <ele>406.681829</ele>
        <time>2022-01-07T15:17:44.405Z</time>
      </trkpt>
      <trkpt lat="47.657655" lon="8.597720">
        <ele>407.310470</ele>
        <time>2022-01-07T15:17:52.122Z</time>
      </trkpt>
      <trkpt lat="47.657954" lon="8.596792">
        <ele>411.334583</ele>
        <time>2022-01-07T15:18:20.955Z</time>
      </trkpt>
      <trkpt lat="47.658026" lon="8.596434">
        <ele>413.104154</ele>
        <time>2022-01-07T15:18:32.355Z</time>
      </trkpt>
      <trkpt lat="47.658018" lon="8.596073">
        <ele>414.814884</ele>
        <time>2022-01-07T15:18:45.087Z</time>
      </trkpt>
      <trkpt lat="47.657632" lon="8.594651">
        <ele>422.254079</ele>
        <time>2022-01-07T15:19:46.674Z</time>
      </trkpt>
      <trkpt lat="47.657396" lon="8.593878">
        <ele>426.748562</ele>
        <time>2022-01-07T15:20:21.178Z</time>
      </trkpt>
      <trkpt lat="47.657180" lon="8.593354">
        <ele>430.001947</ele>
        <time>2022-01-07T15:20:43.775Z</time>
      </trkpt>
      <trkpt lat="47.656510" lon="8.591610">
        <ele>437.607108</ele>
        <time>2022-01-07T15:21:49.137Z</time>
      </trkpt>
      <trkpt lat="47.656442" lon="8.591417">
        <ele>438.170927</ele>
        <time>2022-01-07T15:21:54.691Z</time>
      </trkpt>
      <trkpt lat="47.656348" lon="8.591119">
        <ele>439.022726</ele>
        <time>2022-01-07T15:22:01.953Z</time>
      </trkpt>
      <trkpt lat="47.655843" lon="8.590063">
        <ele>441.704956</ele>
        <time>2022-01-07T15:22:28.282Z</time>
      </trkpt>
      <trkpt lat="47.655323" lon="8.589029">
        <ele>442.061960</ele>
        <time>2022-01-07T15:22:51.190Z</time>
      </trkpt>
      <trkpt lat="47.654756" lon="8.588497">
        <ele>442.337457</ele>
        <time>2022-01-07T15:23:06.069Z</time>
      </trkpt>
      <trkpt lat="47.654522" lon="8.588170">
        <ele>442.020376</ele>
        <time>2022-01-07T15:23:12.501Z</time>
      </trkpt>
      <trkpt lat="47.654437" lon="8.587950">
        <ele>441.793100</ele>
        <time>2022-01-07T15:23:15.902Z</time>
      </trkpt>
      <trkpt lat="47.654263" lon="8.586766">
        <ele>440.707123</ele>
        <time>2022-01-07T15:23:31.712Z</time>
      </trkpt>
      <trkpt lat="47.653849" lon="8.584904">
        <ele>438.740215</ele>
        <time>2022-01-07T15:23:56.708Z</time>
      </trkpt>
      <trkpt lat="47.653724" lon="8.584369">
        <ele>438.128476</ele>
        <time>2022-01-07T15:24:03.863Z</time>
      </trkpt>
      <trkpt lat="47.653395" lon="8.582935">
        <ele>436.765550</ele>
        <time>2022-01-07T15:24:23.497Z</time>
      </trkpt>
      <trkpt lat="47.653382" lon="8.582810">
        <ele>436.691834</ele>
        <time>2022-01-07T15:24:25.190Z</time>
      </trkpt>
      <trkpt lat="47.653295" lon="8.582390">
        <ele>436.435736</ele>
        <time>2022-01-07T15:24:32.893Z</time>
      </trkpt>
      <trkpt lat="47.652995" lon="8.581179">
        <ele>435.683718</ele>
        <time>2022-01-07T15:24:51.504Z</time>
      </trkpt>
      <trkpt lat="47.652794" lon="8.580341">
        <ele>435.183154</ele>
        <time>2022-01-07T15:25:04.096Z</time>
      </trkpt>
      <trkpt lat="47.652738" lon="8.580076">
        <ele>435.029223</ele>
        <time>2022-01-07T15:25:07.973Z</time>
      </trkpt>
      <trkpt lat="47.652472" lon="8.578814">
        <ele>434.296329</ele>
        <time>2022-01-07T15:25:26.221Z</time>
      </trkpt>
      <trkpt lat="47.652241" lon="8.577844">
        <ele>433.767165</ele>
        <time>2022-01-07T15:25:40.355Z</time>
      </trkpt>
      <trkpt lat="47.651857" lon="8.576235">
        <ele>432.941002</ele>
        <time>2022-01-07T15:26:04.187Z</time>
      </trkpt>
      <trkpt lat="47.651634" lon="8.575216">
        <ele>432.686400</ele>
        <time>2022-01-07T15:26:19.946Z</time>
      </trkpt>
      <trkpt lat="47.651524" lon="8.574682">
        <ele>432.628906</ele>
        <time>2022-01-07T15:26:28.329Z</time>
      </trkpt>
      <trkpt lat="47.651418" lon="8.574218">
        <ele>432.578460</ele>
        <time>2022-01-07T15:26:35.911Z</time>
      </trkpt>
      <trkpt lat="47.650996" lon="8.572451">
        <ele>431.875299</ele>
        <time>2022-01-07T15:27:05.821Z</time>
      </trkpt>
      <trkpt lat="47.650680" lon="8.571172">
        <ele>431.000264</ele>
        <time>2022-01-07T15:27:23.924Z</time>
      </trkpt>
      <trkpt lat="47.650214" lon="8.571146">
        <ele>430.273127</ele>
        <time>2022-01-07T15:27:32.329Z</time>
      </trkpt>
      <trkpt lat="47.650141" lon="8.571117">
        <ele>430.105148</ele>
        <time>2022-01-07T15:27:33.650Z</time>
      </trkpt>
      <trkpt lat="47.649803" lon="8.569258">
        <ele>427.221800</ele>
        <time>2022-01-07T15:27:56.802Z</time>
      </trkpt>
      <trkpt lat="47.649680" lon="8.568845">
        <ele>426.736474</ele>
        <time>2022-01-07T15:28:02.428Z</time>
      </trkpt>
      <trkpt lat="47.649571" lon="8.568665">
        <ele>426.682720</ele>
        <time>2022-01-07T15:28:05.457Z</time>
      </trkpt>
      <trkpt lat="47.649625" lon="8.568246">
        <ele>426.587975</ele>
        <time>2022-01-07T15:28:10.893Z</time>
      </trkpt>
      <trkpt lat="47.649680" lon="8.567974">
        <ele>426.524903</ele>
        <time>2022-01-07T15:28:14.709Z</time>
      </trkpt>
      <trkpt lat="47.649481" lon="8.567670">
        <ele>426.430761</ele>
        <time>2022-01-07T15:28:20.643Z</time>
      </trkpt>
      <trkpt lat="47.648447" lon="8.566087">
        <ele>426.641510</ele>
        <time>2022-01-07T15:28:58.880Z</time>
      </trkpt>
      <trkpt lat="47.648099" lon="8.565412">
        <ele>427.013799</ele>
        <time>2022-01-07T15:29:12.948Z</time>
      </trkpt>
      <trkpt lat="47.647741" lon="8.564599">
        <ele>427.428276</ele>
        <time>2022-01-07T15:29:28.764Z</time>
      </trkpt>
      <trkpt lat="47.647715" lon="8.564540">
        <ele>427.455527</ele>
        <time>2022-01-07T15:29:29.925Z</time>
      </trkpt>
      <trkpt lat="47.647370" lon="8.563813">
        <ele>427.799252</ele>
        <time>2022-01-07T15:29:44.344Z</time>
      </trkpt>
      <trkpt lat="47.647349" lon="8.563784">
        <ele>427.815709</ele>
        <time>2022-01-07T15:29:45.012Z</time>
      </trkpt>
      <trkpt lat="47.647106" lon="8.563469">
        <ele>428.000813</ele>
        <time>2022-01-07T15:29:52.780Z</time>
      </trkpt>
      <trkpt lat="47.647031" lon="8.563383">
        <ele>428.055188</ele>
        <time>2022-01-07T15:29:55.030Z</time>
      </trkpt>
      <trkpt lat="47.647064" lon="8.563214">
        <ele>428.123201</ele>
        <time>2022-01-07T15:29:57.977Z</time>
      </trkpt>
      <trkpt lat="47.647024" lon="8.563081">
        <ele>428.179500</ele>
        <time>2022-01-07T15:30:00.433Z</time>
      </trkpt>
      <trkpt lat="47.646897" lon="8.563018">
        <ele>428.256328</ele>
        <time>2022-01-07T15:30:03.771Z</time>
      </trkpt>
      <trkpt lat="47.646870" lon="8.562898">
        <ele>428.305231</ele>
        <time>2022-01-07T15:30:05.926Z</time>
      </trkpt>
      <trkpt lat="47.646780" lon="8.562570">
        <ele>428.553867</ele>
        <time>2022-01-07T15:30:12.128Z</time>
      </trkpt>
      <trkpt lat="47.646553" lon="8.562048">
        <ele>429.213184</ele>
        <time>2022-01-07T15:30:22.829Z</time>
      </trkpt>
      <trkpt lat="47.645950" lon="8.562226">
        <ele>430.181607</ele>
        <time>2022-01-07T15:30:39.848Z</time>
      </trkpt>
      <trkpt lat="47.645218" lon="8.562558">
        <ele>431.487702</ele>
        <time>2022-01-07T15:31:05.580Z</time>
      </trkpt>
      <trkpt lat="47.644699" lon="8.562895">
        <ele>432.889312</ele>
        <time>2022-01-07T15:31:24.366Z</time>
      </trkpt>
      <trkpt lat="47.644291" lon="8.563284">
        <ele>434.089109</ele>
        <time>2022-01-07T15:31:40.874Z</time>
      </trkpt>
      <trkpt lat="47.643410" lon="8.564420">
        <ele>436.354727</ele>
        <time>2022-01-07T15:32:18.907Z</time>
      </trkpt>
      <trkpt lat="47.642451" lon="8.566153">
        <ele>438.102674</ele>
        <time>2022-01-07T15:32:59.055Z</time>
      </trkpt>
      <trkpt lat="47.641624" lon="8.567441">
        <ele>438.570967</ele>
        <time>2022-01-07T15:33:27.833Z</time>
      </trkpt>
      <trkpt lat="47.640972" lon="8.568153">
        <ele>439.304028</ele>
        <time>2022-01-07T15:33:47.713Z</time>
      </trkpt>
      <trkpt lat="47.640178" lon="8.568710">
        <ele>440.454497</ele>
        <time>2022-01-07T15:34:13.250Z</time>
      </trkpt>
      <trkpt lat="47.638723" lon="8.569469">
        <ele>442.331536</ele>
        <time>2022-01-07T15:35:01.475Z</time>
      </trkpt>
      <trkpt lat="47.635619" lon="8.571070">
        <ele>443.196914</ele>
        <time>2022-01-07T15:36:17.639Z</time>
      </trkpt>
      <trkpt lat="47.634852" lon="8.571976">
        <ele>443.193558</ele>
        <time>2022-01-07T15:36:39.780Z</time>
      </trkpt>
      <trkpt lat="47.634572" lon="8.572399">
        <ele>443.337505</ele>
        <time>2022-01-07T15:36:49.421Z</time>
      </trkpt>
      <trkpt lat="47.634401" lon="8.572783">
        <ele>443.466963</ele>
        <time>2022-01-07T15:36:57.148Z</time>
      </trkpt>
      <trkpt lat="47.634122" lon="8.573139">
        <ele>443.620543</ele>
        <time>2022-01-07T15:37:06.499Z</time>
      </trkpt>
      <trkpt lat="47.633630" lon="8.573498">
        <ele>443.849380</ele>
        <time>2022-01-07T15:37:20.566Z</time>
      </trkpt>
      <trkpt lat="47.633051" lon="8.573807">
        <ele>443.950569</ele>
        <time>2022-01-07T15:37:36.183Z</time>
      </trkpt>
      <trkpt lat="47.632597" lon="8.573980">
        <ele>443.958370</ele>
        <time>2022-01-07T15:37:47.797Z</time>
      </trkpt>
      <trkpt lat="47.632170" lon="8.574044">
        <ele>443.965512</ele>
        <time>2022-01-07T15:37:57.733Z</time>
      </trkpt>
      <trkpt lat="47.631889" lon="8.574046">
        <ele>443.970188</ele>
        <time>2022-01-07T15:38:04.042Z</time>
      </trkpt>
      <trkpt lat="47.631195" lon="8.574086">
        <ele>443.252225</ele>
        <time>2022-01-07T15:38:18.265Z</time>
      </trkpt>
      <trkpt lat="47.631031" lon="8.574030">
        <ele>442.989947</ele>
        <time>2022-01-07T15:38:21.431Z</time>
      </trkpt>
      <trkpt lat="47.630522" lon="8.573664">
        <ele>442.108429</ele>
        <time>2022-01-07T15:38:32.029Z</time>
      </trkpt>
      <trkpt lat="47.629917" lon="8.573018">
        <ele>440.963920</ele>
        <time>2022-01-07T15:38:45.679Z</time>
      </trkpt>
      <trkpt lat="47.629688" lon="8.572732">
        <ele>440.533120</ele>
        <time>2022-01-07T15:38:51.169Z</time>
      </trkpt>
      <trkpt lat="47.628859" lon="8.571695">
        <ele>438.972547</ele>
        <time>2022-01-07T15:39:11.629Z</time>
      </trkpt>
      <trkpt lat="47.627955" lon="8.570249">
        <ele>439.178034</ele>
        <time>2022-01-07T15:39:42.324Z</time>
      </trkpt>
      <trkpt lat="47.627892" lon="8.570139">
        <ele>439.232839</ele>
        <time>2022-01-07T15:39:45.368Z</time>
      </trkpt>
      <trkpt lat="47.627772" lon="8.570089">
        <ele>439.303054</ele>
        <time>2022-01-07T15:39:48.844Z</time>
      </trkpt>
      <trkpt lat="47.627701" lon="8.569979">
        <ele>439.360880</ele>
        <time>2022-01-07T15:39:51.552Z</time>
      </trkpt>
      <trkpt lat="47.627060" lon="8.568712">
        <ele>440.687876</ele>
        <time>2022-01-07T15:40:23.838Z</time>
      </trkpt>
      <trkpt lat="47.627133" lon="8.568426">
        <ele>441.033481</ele>
        <time>2022-01-07T15:40:30.463Z</time>
      </trkpt>
      <trkpt lat="47.626985" lon="8.568367">
        <ele>441.290447</ele>
        <time>2022-01-07T15:40:34.263Z</time>
      </trkpt>
      <trkpt lat="47.626948" lon="8.568303">
        <ele>441.385737</ele>
        <time>2022-01-07T15:40:36.139Z</time>
      </trkpt>
      <trkpt lat="47.626631" lon="8.567759">
        <ele>442.198433</ele>
        <time>2022-01-07T15:40:50.851Z</time>
      </trkpt>
      <trkpt lat="47.626130" lon="8.567046">
        <ele>443.087983</ele>
        <time>2022-01-07T15:41:09.683Z</time>
      </trkpt>
      <trkpt lat="47.624841" lon="8.564713">
        <ele>446.279188</ele>
        <time>2022-01-07T15:42:04.236Z</time>
      </trkpt>
      <trkpt lat="47.624501" lon="8.563439">
        <ele>448.652333</ele>
        <time>2022-01-07T15:42:37.072Z</time>
      </trkpt>
      <trkpt lat="47.624231" lon="8.562483">
        <ele>451.211021</ele>
        <time>2022-01-07T15:43:06.420Z</time>
      </trkpt>
      <trkpt lat="47.623645" lon="8.562699">
        <ele>453.673576</ele>
        <time>2022-01-07T15:43:32.765Z</time>
      </trkpt>
      <trkpt lat="47.623537" lon="8.562661">
        <ele>454.126252</ele>
        <time>2022-01-07T15:43:36.979Z</time>
      </trkpt>
      <trkpt lat="47.623021" lon="8.562162">
        <ele>456.449634</ele>
        <time>2022-01-07T15:44:01.501Z</time>
      </trkpt>
      <trkpt lat="47.622463" lon="8.561762">
        <ele>455.913808</ele>
        <time>2022-01-07T15:44:18.644Z</time>
      </trkpt>
      <trkpt lat="47.621730" lon="8.561526">
        <ele>455.265283</ele>
        <time>2022-01-07T15:44:32.271Z</time>
      </trkpt>
      <trkpt lat="47.620554" lon="8.561234">
        <ele>453.046005</ele>
        <time>2022-01-07T15:44:51.426Z</time>
      </trkpt>
      <trkpt lat="47.620106" lon="8.561082">
        <ele>451.967406</ele>
        <time>2022-01-07T15:44:59.413Z</time>
      </trkpt>
      <trkpt lat="47.619588" lon="8.560768">
        <ele>450.692573</ele>
        <time>2022-01-07T15:45:09.537Z</time>
      </trkpt>
      <trkpt lat="47.619076" lon="8.560101">
        <ele>450.277507</ele>
        <time>2022-01-07T15:45:24.918Z</time>
      </trkpt>
      <trkpt lat="47.618691" lon="8.559498">
        <ele>449.936472</ele>
        <time>2022-01-07T15:45:38.198Z</time>
      </trkpt>
      <trkpt lat="47.617984" lon="8.558113">
        <ele>447.684305</ele>
        <time>2022-01-07T15:45:59.437Z</time>
      </trkpt>
      <trkpt lat="47.617482" lon="8.556913">
        <ele>444.800324</ele>
        <time>2022-01-07T15:46:14.522Z</time>
      </trkpt>
      <trkpt lat="47.616622" lon="8.554832">
        <ele>438.492869</ele>
        <time>2022-01-07T15:46:40.161Z</time>
      </trkpt>
      <trkpt lat="47.616025" lon="8.553396">
        <ele>434.688400</ele>
        <time>2022-01-07T15:46:58.538Z</time>
      </trkpt>
      <trkpt lat="47.615782" lon="8.552784">
        <ele>433.223426</ele>
        <time>2022-01-07T15:47:06.587Z</time>
      </trkpt>
      <trkpt lat="47.615116" lon="8.551179">
        <ele>429.734086</ele>
        <time>2022-01-07T15:47:27.762Z</time>
      </trkpt>
      <trkpt lat="47.614348" lon="8.549323">
        <ele>426.503872</ele>
        <time>2022-01-07T15:47:52.858Z</time>
      </trkpt>
      <trkpt lat="47.612589" lon="8.544982">
        <ele>422.623440</ele>
        <time>2022-01-07T15:48:58.697Z</time>
      </trkpt>
      <trkpt lat="47.612519" lon="8.544626">
        <ele>422.389101</ele>
        <time>2022-01-07T15:49:03.609Z</time>
      </trkpt>
      <trkpt lat="47.612449" lon="8.544087">
        <ele>422.042231</ele>
        <time>2022-01-07T15:49:10.851Z</time>
      </trkpt>
      <trkpt lat="47.612360" lon="8.543393">
        <ele>421.595810</ele>
        <time>2022-01-07T15:49:20.112Z</time>
      </trkpt>
      <trkpt lat="47.612302" lon="8.542935">
        <ele>421.301326</ele>
        <time>2022-01-07T15:49:26.175Z</time>
      </trkpt>
      <trkpt lat="47.612384" lon="8.542837">
        <ele>421.202617</ele>
        <time>2022-01-07T15:49:28.244Z</time>
      </trkpt>
      <trkpt lat="47.612418" lon="8.542447">
        <ele>420.953587</ele>
        <time>2022-01-07T15:49:33.328Z</time>
      </trkpt>
      <trkpt lat="47.612392" lon="8.541810">
        <ele>420.549137</ele>
        <time>2022-01-07T15:49:41.787Z</time>
      </trkpt>
      <trkpt lat="47.612367" lon="8.540996">
        <ele>420.032713</ele>
        <time>2022-01-07T15:49:52.650Z</time>
      </trkpt>
      <trkpt lat="47.612363" lon="8.540182">
        <ele>419.516811</ele>
        <time>2022-01-07T15:50:03.161Z</time>
      </trkpt>
      <trkpt lat="47.612345" lon="8.539978">
        <ele>419.391515</ele>
        <time>2022-01-07T15:50:05.793Z</time>
      </trkpt>
      <trkpt lat="47.612320" lon="8.539451">
        <ele>419.086489</ele>
        <time>2022-01-07T15:50:12.633Z</time>
      </trkpt>
      <trkpt lat="47.612312" lon="8.538972">
        <ele>418.809845</ele>
        <time>2022-01-07T15:50:18.963Z</time>
      </trkpt>
      <trkpt lat="47.612307" lon="8.538517">
        <ele>418.547107</ele>
        <time>2022-01-07T15:50:24.946Z</time>
      </trkpt>
      <trkpt lat="47.612305" lon="8.538291">
        <ele>418.416610</ele>
        <time>2022-01-07T15:50:27.872Z</time>
      </trkpt>
      <trkpt lat="47.612307" lon="8.538191">
        <ele>418.358848</ele>
        <time>2022-01-07T15:50:29.179Z</time>
      </trkpt>
      <trkpt lat="47.612278" lon="8.537860">
        <ele>418.166132</ele>
        <time>2022-01-07T15:50:33.592Z</time>
      </trkpt>
      <trkpt lat="47.612138" lon="8.537233">
        <ele>417.901636</ele>
        <time>2022-01-07T15:50:42.492Z</time>
      </trkpt>
      <trkpt lat="47.612086" lon="8.537001">
        <ele>417.899730</ele>
        <time>2022-01-07T15:50:45.939Z</time>
      </trkpt>
      <trkpt lat="47.612447" lon="8.536924">
        <ele>417.895512</ele>
        <time>2022-01-07T15:50:53.782Z</time>
      </trkpt>
      <trkpt lat="47.612759" lon="8.536865">
        <ele>417.891875</ele>
        <time>2022-01-07T15:51:00.861Z</time>
      </trkpt>
      <trkpt lat="47.613130" lon="8.536728">
        <ele>417.887453</ele>
        <time>2022-01-07T15:51:09.950Z</time>
      </trkpt>
      <trkpt lat="47.613190" lon="8.536682">
        <ele>417.886672</ele>
        <time>2022-01-07T15:51:11.590Z</time>
      </trkpt>
      <trkpt lat="47.613355" lon="8.536591">
        <ele>417.884636</ele>
        <time>2022-01-07T15:51:15.774Z</time>
      </trkpt>
      <trkpt lat="47.613678" lon="8.536493">
        <ele>417.810325</ele>
        <time>2022-01-07T15:51:23.496Z</time>
      </trkpt>
      <trkpt lat="47.613985" lon="8.536386">
        <ele>417.647089</ele>
        <time>2022-01-07T15:51:30.741Z</time>
      </trkpt>
      <trkpt lat="47.614214" lon="8.536152">
        <ele>417.503154</ele>
        <time>2022-01-07T15:51:36.757Z</time>
      </trkpt>
      <trkpt lat="47.614447" lon="8.535700">
        <ele>417.304608</ele>
        <time>2022-01-07T15:51:44.778Z</time>
      </trkpt>
      <trkpt lat="47.614197" lon="8.535236">
        <ele>417.097342</ele>
        <time>2022-01-07T15:51:52.643Z</time>
      </trkpt>
      <trkpt lat="47.614117" lon="8.534952">
        <ele>416.989940</ele>
        <time>2022-01-07T15:51:56.484Z</time>
      </trkpt>
      <trkpt lat="47.614106" lon="8.534912">
        <ele>416.974866</ele>
        <time>2022-01-07T15:51:57.027Z</time>
      </trkpt>
      <trkpt lat="47.614099" lon="8.534769">
        <ele>416.863148</ele>
        <time>2022-01-07T15:51:58.843Z</time>
      </trkpt>
      <trkpt lat="47.614038" lon="8.534335">
        <ele>416.349530</ele>
        <time>2022-01-07T15:52:04.188Z</time>
      </trkpt>
      <trkpt lat="47.613858" lon="8.533627">
        <ele>415.472889</ele>
        <time>2022-01-07T15:52:13.302Z</time>
      </trkpt>
      <trkpt lat="47.613577" lon="8.532438">
        <ele>414.013180</ele>
        <time>2022-01-07T15:52:28.292Z</time>
      </trkpt>
      <trkpt lat="47.613276" lon="8.530808">
        <ele>412.491060</ele>
        <time>2022-01-07T15:52:49.192Z</time>
      </trkpt>
      <trkpt lat="47.611861" lon="8.528149">
        <ele>410.311675</ele>
        <time>2022-01-07T15:53:33.648Z</time>
      </trkpt>
      <trkpt lat="47.611300" lon="8.526664">
        <ele>409.909895</ele>
        <time>2022-01-07T15:53:58.193Z</time>
      </trkpt>
      <trkpt lat="47.611117" lon="8.525840">
        <ele>409.780667</ele>
        <time>2022-01-07T15:54:11.429Z</time>
      </trkpt>
      <trkpt lat="47.610828" lon="8.524490">
        <ele>409.297656</ele>
        <time>2022-01-07T15:54:31.326Z</time>
      </trkpt>
      <trkpt lat="47.610799" lon="8.524356">
        <ele>409.235431</ele>
        <time>2022-01-07T15:54:33.276Z</time>
      </trkpt>
      <trkpt lat="47.610729" lon="8.524280">
        <ele>409.178539</ele>
        <time>2022-01-07T15:54:35.032Z</time>
      </trkpt>
      <trkpt lat="47.609471" lon="8.524973">
        <ele>408.269528</ele>
        <time>2022-01-07T15:55:02.352Z</time>
      </trkpt>
      <trkpt lat="47.607508" lon="8.518343">
        <ele>404.690478</ele>
        <time>2022-01-07T15:56:44.302Z</time>
      </trkpt>
      <trkpt lat="47.606768" lon="8.515803">
        <ele>403.385594</ele>
        <time>2022-01-07T15:57:23.018Z</time>
      </trkpt>
      <trkpt lat="47.606625" lon="8.514989">
        <ele>403.254016</ele>
        <time>2022-01-07T15:57:35.362Z</time>
      </trkpt>
      <trkpt lat="47.606076" lon="8.512160">
        <ele>403.265042</ele>
        <time>2022-01-07T15:58:21.702Z</time>
      </trkpt>
      <trkpt lat="47.605542" lon="8.510119">
        <ele>403.723691</ele>
        <time>2022-01-07T15:58:56.802Z</time>
      </trkpt>
      <trkpt lat="47.605366" lon="8.509232">
        <ele>403.955655</ele>
        <time>2022-01-07T15:59:12.478Z</time>
      </trkpt>
      <trkpt lat="47.605290" lon="8.508848">
        <ele>404.056057</ele>
        <time>2022-01-07T15:59:19.052Z</time>
      </trkpt>
      <trkpt lat="47.605132" lon="8.507891">
        <ele>404.213615</ele>
        <time>2022-01-07T15:59:34.139Z</time>
      </trkpt>
      <trkpt lat="47.605059" lon="8.507911">
        <ele>404.169687</ele>
        <time>2022-01-07T15:59:35.726Z</time>
      </trkpt>
      <trkpt lat="47.604941" lon="8.507950">
        <ele>404.098150</ele>
        <time>2022-01-07T15:59:38.321Z</time>
      </trkpt>
      <trkpt lat="47.604503" lon="8.508120">
        <ele>403.830241</ele>
        <time>2022-01-07T15:59:47.702Z</time>
      </trkpt>
      <trkpt lat="47.604476" lon="8.508133">
        <ele>403.813444</ele>
        <time>2022-01-07T15:59:48.280Z</time>
      </trkpt>
      <trkpt lat="47.604185" lon="8.508269">
        <ele>403.632902</ele>
        <time>2022-01-07T15:59:54.497Z</time>
      </trkpt>
      <trkpt lat="47.604005" lon="8.508344">
        <ele>403.522266</ele>
        <time>2022-01-07T15:59:58.230Z</time>
      </trkpt>
      <trkpt lat="47.603846" lon="8.508341">
        <ele>403.428172</ele>
        <time>2022-01-07T16:00:01.421Z</time>
      </trkpt>
      <trkpt lat="47.603309" lon="8.508266">
        <ele>402.962672</ele>
        <time>2022-01-07T16:00:11.833Z</time>
      </trkpt>
      <trkpt lat="47.603172" lon="8.508248">
        <ele>402.756339</ele>
        <time>2022-01-07T16:00:14.394Z</time>
      </trkpt>
      <trkpt lat="47.603142" lon="8.508244">
        <ele>402.711151</ele>
        <time>2022-01-07T16:00:14.957Z</time>
      </trkpt>
      <trkpt lat="47.602086" lon="8.508097">
        <ele>401.119973</ele>
        <time>2022-01-07T16:00:33.985Z</time>
      </trkpt>
      <trkpt lat="47.601985" lon="8.508084">
        <ele>400.967882</ele>
        <time>2022-01-07T16:00:35.798Z</time>
      </trkpt>
      <trkpt lat="47.600924" lon="8.507940">
        <ele>399.496232</ele>
        <time>2022-01-07T16:00:55.540Z</time>
      </trkpt>
      <trkpt lat="47.600810" lon="8.507923">
        <ele>399.343512</ele>
        <time>2022-01-07T16:00:57.682Z</time>
      </trkpt>
      <trkpt lat="47.600311" lon="8.507853">
        <ele>398.675412</ele>
        <time>2022-01-07T16:01:07.106Z</time>
      </trkpt>
      <trkpt lat="47.600106" lon="8.507829">
        <ele>398.401311</ele>
        <time>2022-01-07T16:01:11.019Z</time>
      </trkpt>
      <trkpt lat="47.600103" lon="8.507559">
        <ele>398.158603</ele>
        <time>2022-01-07T16:01:14.753Z</time>
      </trkpt>
      <trkpt lat="47.600073" lon="8.506941">
        <ele>397.452511</ele>
        <time>2022-01-07T16:01:22.778Z</time>
      </trkpt>
      <trkpt lat="47.600049" lon="8.506605">
        <ele>397.059424</ele>
        <time>2022-01-07T16:01:27.175Z</time>
      </trkpt>
      <trkpt lat="47.600046" lon="8.506567">
        <ele>397.014914</ele>
        <time>2022-01-07T16:01:27.702Z</time>
      </trkpt>
      <trkpt lat="47.599722" lon="8.506428">
        <ele>396.432987</ele>
        <time>2022-01-07T16:01:34.091Z</time>
      </trkpt>
      <trkpt lat="47.599315" lon="8.506253">
        <ele>395.701860</ele>
        <time>2022-01-07T16:01:42.105Z</time>
      </trkpt>
      <trkpt lat="47.599147" lon="8.506181">
        <ele>395.400144</ele>
        <time>2022-01-07T16:01:45.247Z</time>
      </trkpt>
      <trkpt lat="47.598283" lon="8.505519">
        <ele>393.450957</ele>
        <time>2022-01-07T16:02:02.700Z</time>
      </trkpt>
      <trkpt lat="47.597804" lon="8.505371">
        <ele>392.428276</ele>
        <time>2022-01-07T16:02:11.489Z</time>
      </trkpt>
      <trkpt lat="47.597584" lon="8.505477">
        <ele>391.944782</ele>
        <time>2022-01-07T16:02:15.777Z</time>
      </trkpt>
      <trkpt lat="47.597383" lon="8.505257">
        <ele>391.422622</ele>
        <time>2022-01-07T16:02:20.494Z</time>
      </trkpt>
      <trkpt lat="47.597526" lon="8.504031">
        <ele>390.378711</ele>
        <time>2022-01-07T16:02:36.793Z</time>
      </trkpt>
      <trkpt lat="47.597497" lon="8.503655">
        <ele>390.085386</ele>
        <time>2022-01-07T16:02:41.846Z</time>
      </trkpt>
      <trkpt lat="47.596893" lon="8.501847">
        <ele>389.033470</ele>
        <time>2022-01-07T16:03:09.965Z</time>
      </trkpt>
      <trkpt lat="47.596626" lon="8.501558">
        <ele>388.949589</ele>
        <time>2022-01-07T16:03:17.292Z</time>
      </trkpt>
      <trkpt lat="47.596348" lon="8.501084">
        <ele>388.842095</ele>
        <time>2022-01-07T16:03:26.722Z</time>
      </trkpt>
      <trkpt lat="47.595733" lon="8.499961">
        <ele>388.818578</ele>
        <time>2022-01-07T16:03:50.854Z</time>
      </trkpt>
      <trkpt lat="47.595425" lon="8.499772">
        <ele>388.882544</ele>
        <time>2022-01-07T16:03:59.174Z</time>
      </trkpt>
      <trkpt lat="47.595297" lon="8.499608">
        <ele>388.915006</ele>
        <time>2022-01-07T16:04:03.279Z</time>
      </trkpt>
      <trkpt lat="47.595067" lon="8.499041">
        <ele>389.000635</ele>
        <time>2022-01-07T16:04:14.508Z</time>
      </trkpt>
      <trkpt lat="47.594843" lon="8.498526">
        <ele>389.021056</ele>
        <time>2022-01-07T16:04:24.005Z</time>
      </trkpt>
      <trkpt lat="47.594690" lon="8.498153">
        <ele>388.815018</ele>
        <time>2022-01-07T16:04:30.035Z</time>
      </trkpt>
      <trkpt lat="47.594655" lon="8.498028">
        <ele>388.751143</ele>
        <time>2022-01-07T16:04:31.827Z</time>
      </trkpt>
      <trkpt lat="47.594612" lon="8.497880">
        <ele>388.675090</ele>
        <time>2022-01-07T16:04:34.051Z</time>
      </trkpt>
      <trkpt lat="47.594558" lon="8.497576">
        <ele>388.526728</ele>
        <time>2022-01-07T16:04:38.309Z</time>
      </trkpt>
      <trkpt lat="47.594388" lon="8.496628">
        <ele>388.063784</ele>
        <time>2022-01-07T16:04:51.642Z</time>
      </trkpt>
      <trkpt lat="47.594079" lon="8.496200">
        <ele>387.797963</ele>
        <time>2022-01-07T16:05:00.421Z</time>
      </trkpt>
      <trkpt lat="47.594163" lon="8.495890">
        <ele>387.756919</ele>
        <time>2022-01-07T16:05:05.236Z</time>
      </trkpt>
      <trkpt lat="47.594351" lon="8.495197">
        <ele>387.665151</ele>
        <time>2022-01-07T16:05:16.444Z</time>
      </trkpt>
      <trkpt lat="47.594406" lon="8.495009">
        <ele>387.639975</ele>
        <time>2022-01-07T16:05:19.685Z</time>
      </trkpt>
      <trkpt lat="47.594696" lon="8.494322">
        <ele>387.540404</ele>
        <time>2022-01-07T16:05:31.296Z</time>
      </trkpt>
      <trkpt lat="47.594711" lon="8.494287">
        <ele>387.535310</ele>
        <time>2022-01-07T16:05:31.883Z</time>
      </trkpt>
      <trkpt lat="47.594935" lon="8.493858">
        <ele>387.417210</ele>
        <time>2022-01-07T16:05:40.347Z</time>
      </trkpt>
      <trkpt lat="47.595207" lon="8.493405">
        <ele>387.029291</ele>
        <time>2022-01-07T16:05:49.510Z</time>
      </trkpt>
      <trkpt lat="47.594822" lon="8.492810">
        <ele>386.501913</ele>
        <time>2022-01-07T16:06:00.453Z</time>
      </trkpt>
      <trkpt lat="47.594234" lon="8.492041">
        <ele>385.752460</ele>
        <time>2022-01-07T16:06:14.622Z</time>
      </trkpt>
      <trkpt lat="47.593820" lon="8.490945">
        <ele>384.665242</ele>
        <time>2022-01-07T16:06:29.640Z</time>
      </trkpt>
      <trkpt lat="47.593619" lon="8.490259">
        <ele>384.017912</ele>
        <time>2022-01-07T16:06:39.180Z</time>
      </trkpt>
      <trkpt lat="47.593117" lon="8.487904">
        <ele>383.137494</ele>
        <time>2022-01-07T16:07:13.765Z</time>
      </trkpt>
      <trkpt lat="47.592634" lon="8.485646">
        <ele>383.096786</ele>
        <time>2022-01-07T16:07:50.203Z</time>
      </trkpt>
      <trkpt lat="47.591756" lon="8.483024">
        <ele>383.036087</ele>
        <time>2022-01-07T16:08:34.813Z</time>
      </trkpt>
      <trkpt lat="47.591034" lon="8.481709">
        <ele>382.600374</ele>
        <time>2022-01-07T16:08:58.183Z</time>
      </trkpt>
      <trkpt lat="47.589953" lon="8.479932">
        <ele>381.450913</ele>
        <time>2022-01-07T16:09:30.300Z</time>
      </trkpt>
      <trkpt lat="47.589330" lon="8.479421">
        <ele>380.821108</ele>
        <time>2022-01-07T16:09:44.548Z</time>
      </trkpt>
      <trkpt lat="47.588504" lon="8.478383">
        <ele>379.818700</ele>
        <time>2022-01-07T16:10:05.270Z</time>
      </trkpt>
      <trkpt lat="47.588240" lon="8.478212">
        <ele>379.528850</ele>
        <time>2022-01-07T16:10:10.679Z</time>
      </trkpt>
      <trkpt lat="47.588019" lon="8.476711">
        <ele>378.486330</ele>
        <time>2022-01-07T16:10:30.682Z</time>
      </trkpt>
      <trkpt lat="47.587961" lon="8.476029">
        <ele>378.303745</ele>
        <time>2022-01-07T16:10:39.805Z</time>
      </trkpt>
      <trkpt lat="47.587964" lon="8.475377">
        <ele>378.211629</ele>
        <time>2022-01-07T16:10:49.045Z</time>
      </trkpt>
      <trkpt lat="47.587977" lon="8.473985">
        <ele>378.014950</ele>
        <time>2022-01-07T16:11:10.313Z</time>
      </trkpt>
      <trkpt lat="47.587913" lon="8.473985">
        <ele>378.001736</ele>
        <time>2022-01-07T16:11:11.673Z</time>
      </trkpt>
      <trkpt lat="47.587924" lon="8.472635">
        <ele>378.271362</ele>
        <time>2022-01-07T16:11:32.956Z</time>
      </trkpt>
      <trkpt lat="47.588022" lon="8.470311">
        <ele>378.511431</ele>
        <time>2022-01-07T16:12:10.188Z</time>
      </trkpt>
      <trkpt lat="47.587994" lon="8.469776">
        <ele>378.499360</ele>
        <time>2022-01-07T16:12:18.281Z</time>
      </trkpt>
      <trkpt lat="47.587915" lon="8.469298">
        <ele>378.488289</ele>
        <time>2022-01-07T16:12:25.570Z</time>
      </trkpt>
      <trkpt lat="47.586921" lon="8.466067">
        <ele>377.692323</ele>
        <time>2022-01-07T16:13:14.757Z</time>
      </trkpt>
      <trkpt lat="47.586694" lon="8.465513">
        <ele>377.752856</ele>
        <time>2022-01-07T16:13:24.238Z</time>
      </trkpt>
      <trkpt lat="47.585857" lon="8.464181">
        <ele>377.930426</ele>
        <time>2022-01-07T16:13:53.288Z</time>
      </trkpt>
      <trkpt lat="47.585512" lon="8.463443">
        <ele>378.125934</ele>
        <time>2022-01-07T16:14:07.807Z</time>
      </trkpt>
      <trkpt lat="47.585375" lon="8.462903">
        <ele>378.251552</ele>
        <time>2022-01-07T16:14:16.947Z</time>
      </trkpt>
      <trkpt lat="47.585224" lon="8.461896">
        <ele>378.476163</ele>
        <time>2022-01-07T16:14:33.239Z</time>
      </trkpt>
      <trkpt lat="47.585128" lon="8.461701">
        <ele>378.505055</ele>
        <time>2022-01-07T16:14:37.050Z</time>
      </trkpt>
      <trkpt lat="47.585014" lon="8.461603">
        <ele>378.515028</ele>
        <time>2022-01-07T16:14:39.903Z</time>
      </trkpt>
      <trkpt lat="47.584901" lon="8.461456">
        <ele>378.526404</ele>
        <time>2022-01-07T16:14:43.492Z</time>
      </trkpt>
      <trkpt lat="47.584656" lon="8.460560">
        <ele>378.575753</ele>
        <time>2022-01-07T16:14:58.248Z</time>
      </trkpt>
      <trkpt lat="47.584525" lon="8.460081">
        <ele>378.602136</ele>
        <time>2022-01-07T16:15:06.134Z</time>
      </trkpt>
      <trkpt lat="47.584304" lon="8.459659">
        <ele>378.629407</ele>
        <time>2022-01-07T16:15:14.019Z</time>
      </trkpt>
      <trkpt lat="47.584130" lon="8.459061">
        <ele>378.522035</ele>
        <time>2022-01-07T16:15:23.704Z</time>
      </trkpt>
      <trkpt lat="47.583860" lon="8.458237">
        <ele>378.339941</ele>
        <time>2022-01-07T16:15:36.648Z</time>
      </trkpt>
      <trkpt lat="47.583083" lon="8.456527">
        <ele>377.796850</ele>
        <time>2022-01-07T16:16:05.731Z</time>
      </trkpt>
      <trkpt lat="47.582974" lon="8.456110">
        <ele>377.639784</ele>
        <time>2022-01-07T16:16:11.788Z</time>
      </trkpt>
      <trkpt lat="47.582983" lon="8.456057">
        <ele>377.620589</ele>
        <time>2022-01-07T16:16:12.561Z</time>
      </trkpt>
      <trkpt lat="47.582833" lon="8.455903">
        <ele>377.525588</ele>
        <time>2022-01-07T16:16:16.242Z</time>
      </trkpt>
      <trkpt lat="47.582585" lon="8.455461">
        <ele>377.323666</ele>
        <time>2022-01-07T16:16:24.097Z</time>
      </trkpt>
      <trkpt lat="47.582427" lon="8.455240">
        <ele>377.210563</ele>
        <time>2022-01-07T16:16:28.477Z</time>
      </trkpt>
      <trkpt lat="47.581668" lon="8.454474">
        <ele>376.670633</ele>
        <time>2022-01-07T16:16:47.267Z</time>
      </trkpt>
      <trkpt lat="47.580777" lon="8.453602">
        <ele>376.099823</ele>
        <time>2022-01-07T16:17:08.423Z</time>
      </trkpt>
      <trkpt lat="47.579516" lon="8.452564">
        <ele>376.130231</ele>
        <time>2022-01-07T16:17:40.389Z</time>
      </trkpt>
      <trkpt lat="47.579199" lon="8.452408">
        <ele>376.195660</ele>
        <time>2022-01-07T16:17:48.884Z</time>
      </trkpt>
      <trkpt lat="47.578521" lon="8.452274">
        <ele>376.697662</ele>
        <time>2022-01-07T16:18:06.502Z</time>
      </trkpt>
      <trkpt lat="47.577690" lon="8.451987">
        <ele>377.323885</ele>
        <time>2022-01-07T16:18:28.611Z</time>
      </trkpt>
      <trkpt lat="47.576330" lon="8.451341">
        <ele>376.995271</ele>
        <time>2022-01-07T16:19:01.892Z</time>
      </trkpt>
      <trkpt lat="47.574430" lon="8.450583">
        <ele>373.548079</ele>
        <time>2022-01-07T16:19:36.830Z</time>
      </trkpt>
      <trkpt lat="47.574015" lon="8.450313">
        <ele>372.443656</ele>
        <time>2022-01-07T16:19:44.059Z</time>
      </trkpt>
      <trkpt lat="47.573811" lon="8.450098">
        <ele>371.637848</ele>
        <time>2022-01-07T16:19:48.095Z</time>
      </trkpt>
      <trkpt lat="47.573598" lon="8.449720">
        <ele>370.568196</ele>
        <time>2022-01-07T16:19:53.350Z</time>
      </trkpt>
      <trkpt lat="47.573297" lon="8.448426">
        <ele>367.595460</ele>
        <time>2022-01-07T16:20:08.074Z</time>
      </trkpt>
      <trkpt lat="47.573242" lon="8.448132">
        <ele>366.932839</ele>
        <time>2022-01-07T16:20:11.631Z</time>
      </trkpt>
      <trkpt lat="47.572932" lon="8.446152">
        <ele>364.805842</ele>
        <time>2022-01-07T16:20:36.417Z</time>
      </trkpt>
      <trkpt lat="47.572785" lon="8.444920">
        <ele>364.053463</ele>
        <time>2022-01-07T16:20:53.568Z</time>
      </trkpt>
      <trkpt lat="47.572812" lon="8.444666">
        <ele>364.021194</ele>
        <time>2022-01-07T16:20:57.303Z</time>
      </trkpt>
      <trkpt lat="47.572727" lon="8.444479">
        <ele>363.992898</ele>
        <time>2022-01-07T16:21:00.460Z</time>
      </trkpt>
      <trkpt lat="47.572519" lon="8.443155">
        <ele>363.822298</ele>
        <time>2022-01-07T16:21:20.882Z</time>
      </trkpt>
      <trkpt lat="47.572141" lon="8.441285">
        <ele>364.157938</ele>
        <time>2022-01-07T16:21:51.628Z</time>
      </trkpt>
      <trkpt lat="47.572030" lon="8.440762">
        <ele>364.273768</ele>
        <time>2022-01-07T16:22:00.445Z</time>
      </trkpt>
      <trkpt lat="47.571997" lon="8.440375">
        <ele>364.356177</ele>
        <time>2022-01-07T16:22:07.109Z</time>
      </trkpt>
      <trkpt lat="47.571921" lon="8.440421">
        <ele>364.393449</ele>
        <time>2022-01-07T16:22:09.285Z</time>
      </trkpt>
      <trkpt lat="47.571774" lon="8.439720">
        <ele>364.620376</ele>
        <time>2022-01-07T16:22:21.294Z</time>
      </trkpt>
      <trkpt lat="47.571486" lon="8.438881">
        <ele>364.911378</ele>
        <time>2022-01-07T16:22:36.197Z</time>
      </trkpt>
      <trkpt lat="47.571177" lon="8.437987">
        <ele>365.290039</ele>
        <time>2022-01-07T16:22:52.576Z</time>
      </trkpt>
      <trkpt lat="47.570882" lon="8.437132">
        <ele>366.082130</ele>
        <time>2022-01-07T16:23:09.503Z</time>
      </trkpt>
      <trkpt lat="47.570875" lon="8.437113">
        <ele>366.099986</ele>
        <time>2022-01-07T16:23:09.896Z</time>
      </trkpt>
      <trkpt lat="47.570653" lon="8.436458">
        <ele>366.704587</ele>
        <time>2022-01-07T16:23:23.892Z</time>
      </trkpt>
      <trkpt lat="47.570587" lon="8.436102">
        <ele>367.009110</ele>
        <time>2022-01-07T16:23:31.090Z</time>
      </trkpt>
      <trkpt lat="47.570581" lon="8.435590">
        <ele>367.342872</ele>
        <time>2022-01-07T16:23:41.033Z</time>
      </trkpt>
      <trkpt lat="47.570578" lon="8.435324">
        <ele>367.184806</ele>
        <time>2022-01-07T16:23:46.162Z</time>
      </trkpt>
      <trkpt lat="47.570585" lon="8.435051">
        <ele>367.022486</ele>
        <time>2022-01-07T16:23:51.383Z</time>
      </trkpt>
      <trkpt lat="47.570598" lon="8.434821">
        <ele>366.885353</ele>
        <time>2022-01-07T16:23:55.462Z</time>
      </trkpt>
      <trkpt lat="47.570602" lon="8.434740">
        <ele>366.837098</ele>
        <time>2022-01-07T16:23:56.829Z</time>
      </trkpt>
      <trkpt lat="47.570606" lon="8.434588">
        <ele>366.746719</ele>
        <time>2022-01-07T16:23:59.380Z</time>
      </trkpt>
      <trkpt lat="47.570593" lon="8.434387">
        <ele>366.626748</ele>
        <time>2022-01-07T16:24:02.600Z</time>
      </trkpt>
      <trkpt lat="47.570451" lon="8.434127">
        <ele>366.427998</ele>
        <time>2022-01-07T16:24:07.252Z</time>
      </trkpt>
      <trkpt lat="47.570395" lon="8.434081">
        <ele>366.371615</ele>
        <time>2022-01-07T16:24:08.562Z</time>
      </trkpt>
      <trkpt lat="47.570274" lon="8.434009">
        <ele>366.256792</ele>
        <time>2022-01-07T16:24:10.962Z</time>
      </trkpt>
      <trkpt lat="47.570154" lon="8.433951">
        <ele>366.145639</ele>
        <time>2022-01-07T16:24:13.162Z</time>
      </trkpt>
      <trkpt lat="47.569947" lon="8.433851">
        <ele>365.953908</ele>
        <time>2022-01-07T16:24:16.825Z</time>
      </trkpt>
      <trkpt lat="47.569681" lon="8.433705">
        <ele>365.210201</ele>
        <time>2022-01-07T16:24:21.163Z</time>
      </trkpt>
      <trkpt lat="47.569358" lon="8.433527">
        <ele>363.275957</ele>
        <time>2022-01-07T16:24:26.274Z</time>
      </trkpt>
      <trkpt lat="47.568960" lon="8.433306">
        <ele>360.890374</ele>
        <time>2022-01-07T16:24:32.464Z</time>
      </trkpt>
      <trkpt lat="47.568573" lon="8.433028">
        <ele>358.476476</ele>
        <time>2022-01-07T16:24:38.699Z</time>
      </trkpt>
      <trkpt lat="47.568466" lon="8.432895">
        <ele>357.692639</ele>
        <time>2022-01-07T16:24:40.682Z</time>
      </trkpt>
      <trkpt lat="47.568233" lon="8.432392">
        <ele>355.551244</ele>
        <time>2022-01-07T16:24:46.693Z</time>
      </trkpt>
      <trkpt lat="47.568158" lon="8.432135">
        <ele>355.054601</ele>
        <time>2022-01-07T16:24:49.524Z</time>
      </trkpt>
      <trkpt lat="47.568155" lon="8.431049">
        <ele>353.128381</ele>
        <time>2022-01-07T16:25:01.051Z</time>
      </trkpt>
      <trkpt lat="47.568195" lon="8.430590">
        <ele>352.307505</ele>
        <time>2022-01-07T16:25:06.684Z</time>
      </trkpt>
      <trkpt lat="47.568402" lon="8.429627">
        <ele>351.042084</ele>
        <time>2022-01-07T16:25:23.340Z</time>
      </trkpt>
      <trkpt lat="47.568953" lon="8.427929">
        <ele>351.553520</ele>
        <time>2022-01-07T16:25:56.726Z</time>
      </trkpt>
      <trkpt lat="47.569299" lon="8.426551">
        <ele>350.727768</ele>
        <time>2022-01-07T16:26:16.000Z</time>
      </trkpt>
      <trkpt lat="47.569245" lon="8.425872">
        <ele>350.028560</ele>
        <time>2022-01-07T16:26:24.110Z</time>
      </trkpt>
      <trkpt lat="47.569357" lon="8.424436">
        <ele>348.885467</ele>
        <time>2022-01-07T16:26:41.294Z</time>
      </trkpt>
      <trkpt lat="47.569549" lon="8.423732">
        <ele>348.729980</ele>
        <time>2022-01-07T16:26:50.500Z</time>
      </trkpt>
      <trkpt lat="47.569989" lon="8.422615">
        <ele>348.465130</ele>
        <time>2022-01-07T16:27:11.367Z</time>
      </trkpt>
      <trkpt lat="47.570073" lon="8.422503">
        <ele>348.430839</ele>
        <time>2022-01-07T16:27:14.649Z</time>
      </trkpt>
      <trkpt lat="47.570347" lon="8.422104">
        <ele>349.136848</ele>
        <time>2022-01-07T16:27:26.188Z</time>
      </trkpt>
      <trkpt lat="47.570779" lon="8.421337">
        <ele>350.472510</ele>
        <time>2022-01-07T16:27:48.091Z</time>
      </trkpt>
      <trkpt lat="47.571458" lon="8.419940">
        <ele>352.185968</ele>
        <time>2022-01-07T16:28:23.495Z</time>
      </trkpt>
      <trkpt lat="47.571796" lon="8.419137">
        <ele>352.505343</ele>
        <time>2022-01-07T16:28:39.649Z</time>
      </trkpt>
      <trkpt lat="47.572514" lon="8.417150">
        <ele>352.082553</ele>
        <time>2022-01-07T16:29:10.251Z</time>
      </trkpt>
      <trkpt lat="47.573123" lon="8.415408">
        <ele>350.622050</ele>
        <time>2022-01-07T16:29:34.838Z</time>
      </trkpt>
      <trkpt lat="47.573473" lon="8.413503">
        <ele>348.947481</ele>
        <time>2022-01-07T16:29:59.430Z</time>
      </trkpt>
      <trkpt lat="47.573618" lon="8.412964">
        <ele>348.776378</ele>
        <time>2022-01-07T16:30:07.129Z</time>
      </trkpt>
      <trkpt lat="47.573855" lon="8.412342">
        <ele>348.915854</ele>
        <time>2022-01-07T16:30:17.058Z</time>
      </trkpt>
      <trkpt lat="47.575217" lon="8.409497">
        <ele>350.610254</ele>
        <time>2022-01-07T16:31:18.370Z</time>
      </trkpt>
      <trkpt lat="47.575657" lon="8.408673">
        <ele>351.407609</ele>
        <time>2022-01-07T16:31:38.345Z</time>
      </trkpt>
      <trkpt lat="47.576490" lon="8.407588">
        <ele>352.738179</ele>
        <time>2022-01-07T16:32:08.505Z</time>
      </trkpt>
      <trkpt lat="47.577566" lon="8.405555">
        <ele>354.878458</ele>
        <time>2022-01-07T16:32:54.836Z</time>
      </trkpt>
      <trkpt lat="47.578853" lon="8.403344">
        <ele>357.476842</ele>
        <time>2022-01-07T16:33:50.374Z</time>
      </trkpt>
      <trkpt lat="47.578909" lon="8.403362">
        <ele>357.554354</ele>
        <time>2022-01-07T16:33:52.778Z</time>
      </trkpt>
      <trkpt lat="47.578998" lon="8.403185">
        <ele>357.755800</ele>
        <time>2022-01-07T16:33:56.926Z</time>
      </trkpt>
      <trkpt lat="47.579235" lon="8.402715">
        <ele>358.090666</ele>
        <time>2022-01-07T16:34:07.343Z</time>
      </trkpt>
      <trkpt lat="47.579176" lon="8.402677">
        <ele>358.107123</ele>
        <time>2022-01-07T16:34:09.251Z</time>
      </trkpt>
      <trkpt lat="47.579366" lon="8.402144">
        <ele>358.211157</ele>
        <time>2022-01-07T16:34:19.528Z</time>
      </trkpt>
      <trkpt lat="47.579545" lon="8.401403">
        <ele>358.346984</ele>
        <time>2022-01-07T16:34:32.342Z</time>
      </trkpt>
      <trkpt lat="47.579664" lon="8.400538">
        <ele>358.499330</ele>
        <time>2022-01-07T16:34:44.682Z</time>
      </trkpt>
      <trkpt lat="47.579680" lon="8.399408">
        <ele>357.937146</ele>
        <time>2022-01-07T16:34:59.629Z</time>
      </trkpt>
      <trkpt lat="47.579501" lon="8.397379">
        <ele>356.987603</ele>
        <time>2022-01-07T16:35:26.740Z</time>
      </trkpt>
      <trkpt lat="47.579076" lon="8.394648">
        <ele>356.159792</ele>
        <time>2022-01-07T16:36:06.555Z</time>
      </trkpt>
      <trkpt lat="47.578461" lon="8.392658">
        <ele>355.600019</ele>
        <time>2022-01-07T16:36:37.192Z</time>
      </trkpt>
      <trkpt lat="47.578246" lon="8.392130">
        <ele>355.567597</ele>
        <time>2022-01-07T16:36:45.553Z</time>
      </trkpt>
      <trkpt lat="47.577729" lon="8.391181">
        <ele>355.503469</ele>
        <time>2022-01-07T16:37:03.483Z</time>
      </trkpt>
      <trkpt lat="47.577448" lon="8.390418">
        <ele>355.587074</ele>
        <time>2022-01-07T16:37:17.278Z</time>
      </trkpt>
      <trkpt lat="47.577273" lon="8.389395">
        <ele>356.283612</ele>
        <time>2022-01-07T16:37:35.577Z</time>
      </trkpt>
      <trkpt lat="47.576813" lon="8.387732">
        <ele>357.643793</ele>
        <time>2022-01-07T16:38:08.732Z</time>
      </trkpt>
      <trkpt lat="47.576436" lon="8.385973">
        <ele>359.734323</ele>
        <time>2022-01-07T16:38:43.922Z</time>
      </trkpt>
      <trkpt lat="47.576157" lon="8.384646">
        <ele>362.079293</ele>
        <time>2022-01-07T16:39:13.784Z</time>
      </trkpt>
      <trkpt lat="47.576100" lon="8.384072">
        <ele>363.213435</ele>
        <time>2022-01-07T16:39:27.215Z</time>
      </trkpt>
      <trkpt lat="47.575972" lon="8.383333">
        <ele>364.704885</ele>
        <time>2022-01-07T16:39:45.617Z</time>
      </trkpt>
      <trkpt lat="47.575631" lon="8.381919">
        <ele>367.428373</ele>
        <time>2022-01-07T16:40:21.777Z</time>
      </trkpt>
      <trkpt lat="47.575680" lon="8.381883">
        <ele>367.571448</ele>
        <time>2022-01-07T16:40:24.501Z</time>
      </trkpt>
      <trkpt lat="47.575348" lon="8.380814">
        <ele>369.648475</ele>
        <time>2022-01-07T16:40:49.351Z</time>
      </trkpt>
      <trkpt lat="47.575224" lon="8.380419">
        <ele>370.270594</ele>
        <time>2022-01-07T16:40:57.926Z</time>
      </trkpt>
      <trkpt lat="47.575059" lon="8.380024">
        <ele>370.614707</ele>
        <time>2022-01-07T16:41:06.737Z</time>
      </trkpt>
      <trkpt lat="47.574409" lon="8.379361">
        <ele>371.480988</ele>
        <time>2022-01-07T16:41:27.256Z</time>
      </trkpt>
      <trkpt lat="47.574190" lon="8.378822">
        <ele>371.947035</ele>
        <time>2022-01-07T16:41:37.873Z</time>
      </trkpt>
      <trkpt lat="47.573526" lon="8.377193">
        <ele>372.718544</ele>
        <time>2022-01-07T16:42:10.627Z</time>
      </trkpt>
      <trkpt lat="47.573433" lon="8.376974">
        <ele>372.809748</ele>
        <time>2022-01-07T16:42:15.166Z</time>
      </trkpt>
      <trkpt lat="47.573373" lon="8.376836">
        <ele>372.867611</ele>
        <time>2022-01-07T16:42:17.811Z</time>
      </trkpt>
      <trkpt lat="47.573088" lon="8.376185">
        <ele>372.892418</ele>
        <time>2022-01-07T16:42:29.485Z</time>
      </trkpt>
      <trkpt lat="47.573066" lon="8.376134">
        <ele>372.828575</ele>
        <time>2022-01-07T16:42:30.383Z</time>
      </trkpt>
      <trkpt lat="47.572817" lon="8.375536">
        <ele>372.087442</ele>
        <time>2022-01-07T16:42:40.063Z</time>
      </trkpt>
      <trkpt lat="47.572638" lon="8.375263">
        <ele>371.685944</ele>
        <time>2022-01-07T16:42:45.007Z</time>
      </trkpt>
      <trkpt lat="47.572231" lon="8.374804">
        <ele>370.886472</ele>
        <time>2022-01-07T16:42:54.185Z</time>
      </trkpt>
      <trkpt lat="47.571766" lon="8.374092">
        <ele>368.889433</ele>
        <time>2022-01-07T16:43:05.209Z</time>
      </trkpt>
      <trkpt lat="47.571464" lon="8.373820">
        <ele>367.101840</ele>
        <time>2022-01-07T16:43:10.473Z</time>
      </trkpt>
      <trkpt lat="47.571124" lon="8.373601">
        <ele>365.226566</ele>
        <time>2022-01-07T16:43:16.009Z</time>
      </trkpt>
      <trkpt lat="47.571083" lon="8.373672">
        <ele>364.907616</ele>
        <time>2022-01-07T16:43:16.910Z</time>
      </trkpt>
      <trkpt lat="47.570552" lon="8.373405">
        <ele>362.071190</ele>
        <time>2022-01-07T16:43:25.371Z</time>
      </trkpt>
      <trkpt lat="47.570321" lon="8.373231">
        <ele>360.667158</ele>
        <time>2022-01-07T16:43:29.058Z</time>
      </trkpt>
      <trkpt lat="47.570047" lon="8.372887">
        <ele>358.435643</ele>
        <time>2022-01-07T16:43:34.255Z</time>
      </trkpt>
      <trkpt lat="47.569769" lon="8.372333">
        <ele>355.540797</ele>
        <time>2022-01-07T16:43:41.050Z</time>
      </trkpt>
      <trkpt lat="47.569635" lon="8.371865">
        <ele>353.409165</ele>
        <time>2022-01-07T16:43:45.985Z</time>
      </trkpt>
      <trkpt lat="47.569568" lon="8.371212">
        <ele>350.639763</ele>
        <time>2022-01-07T16:43:52.408Z</time>
      </trkpt>
      <trkpt lat="47.569644" lon="8.369036">
        <ele>344.115873</ele>
        <time>2022-01-07T16:44:14.643Z</time>
      </trkpt>
      <trkpt lat="47.569624" lon="8.367390">
        <ele>341.823336</ele>
        <time>2022-01-07T16:44:34.219Z</time>
      </trkpt>
      <trkpt lat="47.569714" lon="8.365603">
        <ele>341.171459</ele>
        <time>2022-01-07T16:45:02.159Z</time>
      </trkpt>
      <trkpt lat="47.569805" lon="8.365230">
        <ele>341.351705</ele>
        <time>2022-01-07T16:45:08.942Z</time>
      </trkpt>
      <trkpt lat="47.570208" lon="8.364223">
        <ele>341.883769</ele>
        <time>2022-01-07T16:45:30.508Z</time>
      </trkpt>
      <trkpt lat="47.570379" lon="8.363528">
        <ele>342.219945</ele>
        <time>2022-01-07T16:45:42.611Z</time>
      </trkpt>
      <trkpt lat="47.570700" lon="8.361666">
        <ele>342.541961</ele>
        <time>2022-01-07T16:46:11.218Z</time>
      </trkpt>
      <trkpt lat="47.570541" lon="8.361424">
        <ele>342.585520</ele>
        <time>2022-01-07T16:46:15.956Z</time>
      </trkpt>
      <trkpt lat="47.570483" lon="8.361078">
        <ele>342.631494</ele>
        <time>2022-01-07T16:46:22.142Z</time>
      </trkpt>
      <trkpt lat="47.570630" lon="8.360206">
        <ele>342.937466</ele>
        <time>2022-01-07T16:46:37.105Z</time>
      </trkpt>
      <trkpt lat="47.570774" lon="8.358757">
        <ele>343.574547</ele>
        <time>2022-01-07T16:47:01.454Z</time>
      </trkpt>
      <trkpt lat="47.570774" lon="8.357383">
        <ele>343.962553</ele>
        <time>2022-01-07T16:47:25.536Z</time>
      </trkpt>
      <trkpt lat="47.571003" lon="8.355190">
        <ele>344.102550</ele>
        <time>2022-01-07T16:47:59.181Z</time>
      </trkpt>
      <trkpt lat="47.571130" lon="8.354422">
        <ele>343.692617</ele>
        <time>2022-01-07T16:48:09.716Z</time>
      </trkpt>
      <trkpt lat="47.571365" lon="8.351105">
        <ele>341.670056</ele>
        <time>2022-01-07T16:48:52.944Z</time>
      </trkpt>
      <trkpt lat="47.571525" lon="8.348803">
        <ele>340.240670</ele>
        <time>2022-01-07T16:49:23.387Z</time>
      </trkpt>
      <trkpt lat="47.571532" lon="8.348465">
        <ele>340.044413</ele>
        <time>2022-01-07T16:49:27.845Z</time>
      </trkpt>
      <trkpt lat="47.571535" lon="8.348277">
        <ele>339.935273</ele>
        <time>2022-01-07T16:49:30.383Z</time>
      </trkpt>
      <trkpt lat="47.571602" lon="8.347417">
        <ele>339.459703</ele>
        <time>2022-01-07T16:49:41.840Z</time>
      </trkpt>
      <trkpt lat="47.571542" lon="8.346998">
        <ele>339.274611</ele>
        <time>2022-01-07T16:49:47.514Z</time>
      </trkpt>
      <trkpt lat="47.571227" lon="8.342475">
        <ele>337.365212</ele>
        <time>2022-01-07T16:50:49.873Z</time>
      </trkpt>
      <trkpt lat="47.571297" lon="8.341515">
        <ele>336.647271</ele>
        <time>2022-01-07T16:51:02.926Z</time>
      </trkpt>
      <trkpt lat="47.571339" lon="8.339827">
        <ele>335.266294</ele>
        <time>2022-01-07T16:51:24.078Z</time>
      </trkpt>
      <trkpt lat="47.571446" lon="8.338506">
        <ele>333.918234</ele>
        <time>2022-01-07T16:51:40.109Z</time>
      </trkpt>
      <trkpt lat="47.571707" lon="8.336547">
        <ele>332.191936</ele>
        <time>2022-01-07T16:52:04.744Z</time>
      </trkpt>
      <trkpt lat="47.572081" lon="8.334188">
        <ele>331.692342</ele>
        <time>2022-01-07T16:52:40.013Z</time>
      </trkpt>
      <trkpt lat="47.572118" lon="8.333931">
        <ele>331.835266</ele>
        <time>2022-01-07T16:52:44.320Z</time>
      </trkpt>
      <trkpt lat="47.572270" lon="8.333055">
        <ele>332.327211</ele>
        <time>2022-01-07T16:52:59.690Z</time>
      </trkpt>
      <trkpt lat="47.572480" lon="8.332202">
        <ele>332.821063</ele>
        <time>2022-01-07T16:53:15.992Z</time>
      </trkpt>
      <trkpt lat="47.572697" lon="8.331355">
        <ele>333.383140</ele>
        <time>2022-01-07T16:53:32.941Z</time>
      </trkpt>
      <trkpt lat="47.572826" lon="8.331129">
        <ele>333.581631</ele>
        <time>2022-01-07T16:53:38.686Z</time>
      </trkpt>
      <trkpt lat="47.572976" lon="8.330929">
        <ele>333.782146</ele>
        <time>2022-01-07T16:53:44.455Z</time>
      </trkpt>
      <trkpt lat="47.573134" lon="8.331011">
        <ele>333.948520</ele>
        <time>2022-01-07T16:53:49.032Z</time>
      </trkpt>
      <trkpt lat="47.573186" lon="8.331038">
        <ele>334.003279</ele>
        <time>2022-01-07T16:53:50.531Z</time>
      </trkpt>
      <trkpt lat="47.573431" lon="8.329974">
        <ele>334.757090</ele>
        <time>2022-01-07T16:54:09.655Z</time>
      </trkpt>
      <trkpt lat="47.573512" lon="8.329803">
        <ele>334.752032</ele>
        <time>2022-01-07T16:54:12.978Z</time>
      </trkpt>
      <trkpt lat="47.573617" lon="8.329597">
        <ele>334.656459</ele>
        <time>2022-01-07T16:54:16.888Z</time>
      </trkpt>
      <trkpt lat="47.573754" lon="8.329346">
        <ele>334.536945</ele>
        <time>2022-01-07T16:54:21.605Z</time>
      </trkpt>
      <trkpt lat="47.573897" lon="8.329016">
        <ele>334.391760</ele>
        <time>2022-01-07T16:54:27.006Z</time>
      </trkpt>
      <trkpt lat="47.574084" lon="8.328497">
        <ele>334.173958</ele>
        <time>2022-01-07T16:54:34.930Z</time>
      </trkpt>
      <trkpt lat="47.574288" lon="8.328005">
        <ele>333.960186</ele>
        <time>2022-01-07T16:54:42.470Z</time>
      </trkpt>
      <trkpt lat="47.574832" lon="8.326960">
        <ele>333.356653</ele>
        <time>2022-01-07T16:54:59.091Z</time>
      </trkpt>
      <trkpt lat="47.575315" lon="8.325785">
        <ele>332.677735</ele>
        <time>2022-01-07T16:55:17.844Z</time>
      </trkpt>
      <trkpt lat="47.575557" lon="8.325336">
        <ele>332.524097</ele>
        <time>2022-01-07T16:55:26.380Z</time>
      </trkpt>
      <trkpt lat="47.576740" lon="8.324378">
        <ele>332.734718</ele>
        <time>2022-01-07T16:55:57.345Z</time>
      </trkpt>
      <trkpt lat="47.577308" lon="8.322429">
        <ele>333.320308</ele>
        <time>2022-01-07T16:56:31.946Z</time>
      </trkpt>
      <trkpt lat="47.577421" lon="8.322087">
        <ele>333.442849</ele>
        <time>2022-01-07T16:56:38.176Z</time>
      </trkpt>
      <trkpt lat="47.577969" lon="8.320913">
        <ele>333.742538</ele>
        <time>2022-01-07T16:57:01.146Z</time>
      </trkpt>
      <trkpt lat="47.580055" lon="8.317080">
        <ele>334.139313</ele>
        <time>2022-01-07T16:58:16.107Z</time>
      </trkpt>
      <trkpt lat="47.580533" lon="8.316309">
        <ele>334.260214</ele>
        <time>2022-01-07T16:58:32.078Z</time>
      </trkpt>
      <trkpt lat="47.580597" lon="8.316215">
        <ele>334.275634</ele>
        <time>2022-01-07T16:58:34.045Z</time>
      </trkpt>
      <trkpt lat="47.584019" lon="8.312098">
        <ele>335.330493</ele>
        <time>2022-01-07T17:00:16.950Z</time>
      </trkpt>
      <trkpt lat="47.584476" lon="8.311410">
        <ele>335.162957</ele>
        <time>2022-01-07T17:00:31.923Z</time>
      </trkpt>
      <trkpt lat="47.584936" lon="8.310496">
        <ele>334.965096</ele>
        <time>2022-01-07T17:00:47.872Z</time>
      </trkpt>
      <trkpt lat="47.585401" lon="8.309565">
        <ele>333.928977</ele>
        <time>2022-01-07T17:01:03.307Z</time>
      </trkpt>
      <trkpt lat="47.585374" lon="8.309331">
        <ele>333.612096</ele>
        <time>2022-01-07T17:01:06.148Z</time>
      </trkpt>
      <trkpt lat="47.585450" lon="8.309040">
        <ele>333.195567</ele>
        <time>2022-01-07T17:01:10.041Z</time>
      </trkpt>
      <trkpt lat="47.586084" lon="8.308119">
        <ele>331.439012</ele>
        <time>2022-01-07T17:01:24.845Z</time>
      </trkpt>
      <trkpt lat="47.586080" lon="8.307934">
        <ele>331.151755</ele>
        <time>2022-01-07T17:01:33.506Z</time>
      </trkpt>
      <trkpt lat="47.586139" lon="8.307735">
        <ele>330.776751</ele>
        <time>2022-01-07T17:01:43.693Z</time>
      </trkpt>
      <trkpt lat="47.586171" lon="8.307478">
        <ele>330.325900</ele>
        <time>2022-01-07T17:01:55.980Z</time>
      </trkpt>
      <trkpt lat="47.586129" lon="8.307218">
        <ele>329.864682</ele>
        <time>2022-01-07T17:02:08.485Z</time>
      </trkpt>
      <trkpt lat="47.586191" lon="8.307159">
        <ele>329.676249</ele>
        <time>2022-01-07T17:02:13.582Z</time>
      </trkpt>
      <trkpt lat="47.586314" lon="8.306630">
        <ele>328.710952</ele>
        <time>2022-01-07T17:02:19.938Z</time>
      </trkpt>
      <trkpt lat="47.586413" lon="8.306351">
        <ele>328.167099</ele>
        <time>2022-01-07T17:02:23.525Z</time>
      </trkpt>
      <trkpt lat="47.586724" lon="8.305820">
        <ele>326.953894</ele>
        <time>2022-01-07T17:02:31.483Z</time>
      </trkpt>
      <trkpt lat="47.586834" lon="8.305761">
        <ele>326.701877</ele>
        <time>2022-01-07T17:02:33.447Z</time>
      </trkpt>
      <trkpt lat="47.586899" lon="8.305755">
        <ele>326.641104</ele>
        <time>2022-01-07T17:02:34.656Z</time>
      </trkpt>
      <trkpt lat="47.587344" lon="8.305483">
        <ele>326.191943</ele>
        <time>2022-01-07T17:02:43.627Z</time>
      </trkpt>
      <trkpt lat="47.587700" lon="8.305435">
        <ele>325.858366</ele>
        <time>2022-01-07T17:02:50.829Z</time>
      </trkpt>
      <trkpt lat="47.588061" lon="8.305022">
        <ele>325.432869</ele>
        <time>2022-01-07T17:03:00.364Z</time>
      </trkpt>
      <trkpt lat="47.587938" lon="8.305004">
        <ele>325.317532</ele>
        <time>2022-01-07T17:03:02.895Z</time>
      </trkpt>
      <trkpt lat="47.587948" lon="8.304854">
        <ele>325.222665</ele>
        <time>2022-01-07T17:03:05.164Z</time>
      </trkpt>
      <trkpt lat="47.588201" lon="8.304547">
        <ele>324.993870</ele>
        <time>2022-01-07T17:03:11.986Z</time>
      </trkpt>
      <trkpt lat="47.588427" lon="8.304236">
        <ele>324.871214</ele>
        <time>2022-01-07T17:03:18.341Z</time>
      </trkpt>
      <trkpt lat="47.588758" lon="8.303780">
        <ele>324.691480</ele>
        <time>2022-01-07T17:03:27.857Z</time>
      </trkpt>
      <trkpt lat="47.588797" lon="8.303726">
        <ele>324.670254</ele>
        <time>2022-01-07T17:03:28.945Z</time>
      </trkpt>
      <trkpt lat="47.589203" lon="8.303294">
        <ele>324.471465</ele>
        <time>2022-01-07T17:03:39.599Z</time>
      </trkpt>
      <trkpt lat="47.589401" lon="8.303077">
        <ele>324.373521</ele>
        <time>2022-01-07T17:03:44.663Z</time>
      </trkpt>
      <trkpt lat="47.589725" lon="8.302725">
        <ele>324.105661</ele>
        <time>2022-01-07T17:03:52.793Z</time>
      </trkpt>
      <trkpt lat="47.589885" lon="8.302552">
        <ele>323.956711</ele>
        <time>2022-01-07T17:03:56.735Z</time>
      </trkpt>
      <trkpt lat="47.589944" lon="8.302496">
        <ele>323.904019</ele>
        <time>2022-01-07T17:03:58.124Z</time>
      </trkpt>
      <trkpt lat="47.590456" lon="8.302201">
        <ele>323.490849</ele>
        <time>2022-01-07T17:04:08.966Z</time>
      </trkpt>
      <trkpt lat="47.591100" lon="8.301840">
        <ele>322.974774</ele>
        <time>2022-01-07T17:04:22.407Z</time>
      </trkpt>
      <trkpt lat="47.591155" lon="8.301775">
        <ele>322.932185</ele>
        <time>2022-01-07T17:04:23.754Z</time>
      </trkpt>
      <trkpt lat="47.591596" lon="8.301552">
        <ele>322.650042</ele>
        <time>2022-01-07T17:04:32.911Z</time>
      </trkpt>
      <trkpt lat="47.592626" lon="8.301039">
        <ele>321.992096</ele>
        <time>2022-01-07T17:04:55.042Z</time>
      </trkpt>
      <trkpt lat="47.593244" lon="8.300895">
        <ele>321.787238</ele>
        <time>2022-01-07T17:05:08.356Z</time>
      </trkpt>
      <trkpt lat="47.594037" lon="8.300891">
        <ele>321.605659</ele>
        <time>2022-01-07T17:05:25.621Z</time>
      </trkpt>
      <trkpt lat="47.594068" lon="8.300880">
        <ele>321.598360</ele>
        <time>2022-01-07T17:05:26.362Z</time>
      </trkpt>
      <trkpt lat="47.594186" lon="8.300838">
        <ele>321.570574</ele>
        <time>2022-01-07T17:05:29.174Z</time>
      </trkpt>
      <trkpt lat="47.595026" lon="8.300463">
        <ele>321.241574</ele>
        <time>2022-01-07T17:05:48.927Z</time>
      </trkpt>
      <trkpt lat="47.595817" lon="8.300115">
        <ele>320.835476</ele>
        <time>2022-01-07T17:06:06.342Z</time>
      </trkpt>
      <trkpt lat="47.596223" lon="8.299788">
        <ele>320.608072</ele>
        <time>2022-01-07T17:06:15.939Z</time>
      </trkpt>
      <trkpt lat="47.597391" lon="8.298336">
        <ele>319.737026</ele>
        <time>2022-01-07T17:06:48.255Z</time>
      </trkpt>
      <trkpt lat="47.597645" lon="8.298669">
        <ele>319.553755</ele>
        <time>2022-01-07T17:06:55.163Z</time>
      </trkpt>
      <trkpt lat="47.598062" lon="8.299082">
        <ele>319.404380</ele>
        <time>2022-01-07T17:07:05.507Z</time>
      </trkpt>
      <trkpt lat="47.598942" lon="8.299555">
        <ele>319.125552</ele>
        <time>2022-01-07T17:07:25.266Z</time>
      </trkpt>
      <trkpt lat="47.600175" lon="8.300027">
        <ele>319.188211</ele>
        <time>2022-01-07T17:07:53.647Z</time>
      </trkpt>
      <trkpt lat="47.600623" lon="8.300292">
        <ele>319.268467</ele>
        <time>2022-01-07T17:08:04.999Z</time>
      </trkpt>
      <trkpt lat="47.601333" lon="8.300400">
        <ele>319.445548</ele>
        <time>2022-01-07T17:08:22.248Z</time>
      </trkpt>
      <trkpt lat="47.602277" lon="8.300671">
        <ele>319.766036</ele>
        <time>2022-01-07T17:08:45.738Z</time>
      </trkpt>
      <trkpt lat="47.602680" lon="8.300654">
        <ele>319.900416</ele>
        <time>2022-01-07T17:08:54.853Z</time>
      </trkpt>
      <trkpt lat="47.602831" lon="8.300452">
        <ele>319.914615</ele>
        <time>2022-01-07T17:08:59.085Z</time>
      </trkpt>
      <trkpt lat="47.602961" lon="8.300548">
        <ele>319.897516</ele>
        <time>2022-01-07T17:09:02.291Z</time>
      </trkpt>
      <trkpt lat="47.602989" lon="8.300446">
        <ele>319.888773</ele>
        <time>2022-01-07T17:09:03.852Z</time>
      </trkpt>
      <trkpt lat="47.603536" lon="8.298734">
        <ele>319.738372</ele>
        <time>2022-01-07T17:09:31.284Z</time>
      </trkpt>
      <trkpt lat="47.604098" lon="8.298889">
        <ele>319.879312</ele>
        <time>2022-01-07T17:09:43.622Z</time>
      </trkpt>
      <trkpt lat="47.605221" lon="8.298923">
        <ele>320.348926</ele>
        <time>2022-01-07T17:10:10.966Z</time>
      </trkpt>
      <trkpt lat="47.605567" lon="8.298851">
        <ele>320.517889</ele>
        <time>2022-01-07T17:10:19.953Z</time>
      </trkpt>
      <trkpt lat="47.605929" lon="8.298684">
        <ele>320.814945</ele>
        <time>2022-01-07T17:10:29.735Z</time>
      </trkpt>
      <trkpt lat="47.606511" lon="8.298031">
        <ele>321.386769</ele>
        <time>2022-01-07T17:10:48.261Z</time>
      </trkpt>
      <trkpt lat="47.607034" lon="8.296955">
        <ele>322.058134</ele>
        <time>2022-01-07T17:11:10.710Z</time>
      </trkpt>
      <trkpt lat="47.607542" lon="8.296156">
        <ele>322.556844</ele>
        <time>2022-01-07T17:11:30.514Z</time>
      </trkpt>
      <trkpt lat="47.607773" lon="8.295862">
        <ele>322.761857</ele>
        <time>2022-01-07T17:11:37.817Z</time>
      </trkpt>
      <trkpt lat="47.608103" lon="8.295506">
        <ele>323.036693</ele>
        <time>2022-01-07T17:11:47.121Z</time>
      </trkpt>
      <trkpt lat="47.608150" lon="8.295465">
        <ele>323.073418</ele>
        <time>2022-01-07T17:11:48.525Z</time>
      </trkpt>
      <trkpt lat="47.608365" lon="8.295401">
        <ele>323.087744</ele>
        <time>2022-01-07T17:11:53.429Z</time>
      </trkpt>
      <trkpt lat="47.608538" lon="8.295454">
        <ele>323.086040</ele>
        <time>2022-01-07T17:11:57.752Z</time>
      </trkpt>
      <trkpt lat="47.608603" lon="8.294941">
        <ele>323.082647</ele>
        <time>2022-01-07T17:12:05.853Z</time>
      </trkpt>
      <trkpt lat="47.608960" lon="8.294197">
        <ele>323.076711</ele>
        <time>2022-01-07T17:12:19.919Z</time>
      </trkpt>
      <trkpt lat="47.609072" lon="8.294182">
        <ele>323.075627</ele>
        <time>2022-01-07T17:12:22.739Z</time>
      </trkpt>
      <trkpt lat="47.609170" lon="8.294261">
        <ele>323.074551</ele>
        <time>2022-01-07T17:12:25.053Z</time>
      </trkpt>
      <trkpt lat="47.609480" lon="8.293635">
        <ele>322.891074</ele>
        <time>2022-01-07T17:12:35.161Z</time>
      </trkpt>
      <trkpt lat="47.609912" lon="8.292611">
        <ele>322.379492</ele>
        <time>2022-01-07T17:12:51.496Z</time>
      </trkpt>
      <trkpt lat="47.610131" lon="8.291965">
        <ele>322.073266</ele>
        <time>2022-01-07T17:13:01.431Z</time>
      </trkpt>
      <trkpt lat="47.610305" lon="8.291515">
        <ele>321.853330</ele>
        <time>2022-01-07T17:13:08.433Z</time>
      </trkpt>
      <trkpt lat="47.610402" lon="8.291598">
        <ele>321.782794</ele>
        <time>2022-01-07T17:13:10.861Z</time>
      </trkpt>
      <trkpt lat="47.610759" lon="8.291904">
        <ele>321.523084</ele>
        <time>2022-01-07T17:13:19.271Z</time>
      </trkpt>
      <trkpt lat="47.611110" lon="8.292188">
        <ele>321.271244</ele>
        <time>2022-01-07T17:13:27.356Z</time>
      </trkpt>
      <trkpt lat="47.611290" lon="8.292335">
        <ele>321.141818</ele>
        <time>2022-01-07T17:13:31.415Z</time>
      </trkpt>
      <trkpt lat="47.611574" lon="8.292560">
        <ele>320.939016</ele>
        <time>2022-01-07T17:13:37.842Z</time>
      </trkpt>
      <trkpt lat="47.611564" lon="8.292639">
        <ele>320.904884</ele>
        <time>2022-01-07T17:13:39.045Z</time>
      </trkpt>
      <trkpt lat="47.611555" lon="8.292997">
        <ele>320.737908</ele>
        <time>2022-01-07T17:13:43.993Z</time>
      </trkpt>
      <trkpt lat="47.611538" lon="8.293239">
        <ele>320.607538</ele>
        <time>2022-01-07T17:13:47.275Z</time>
      </trkpt>
      <trkpt lat="47.611956" lon="8.293241">
        <ele>320.275310</ele>
        <time>2022-01-07T17:13:55.527Z</time>
      </trkpt>
      <trkpt lat="47.612471" lon="8.293105">
        <ele>319.859553</ele>
        <time>2022-01-07T17:14:05.780Z</time>
      </trkpt>
      <trkpt lat="47.612574" lon="8.293048">
        <ele>319.772177</ele>
        <time>2022-01-07T17:14:07.972Z</time>
      </trkpt>
      <trkpt lat="47.612847" lon="8.292853">
        <ele>319.531352</ele>
        <time>2022-01-07T17:14:13.958Z</time>
      </trkpt>
      <trkpt lat="47.612985" lon="8.292682">
        <ele>319.388436</ele>
        <time>2022-01-07T17:14:17.506Z</time>
      </trkpt>
      <trkpt lat="47.613028" lon="8.292466">
        <ele>319.278344</ele>
        <time>2022-01-07T17:14:20.443Z</time>
      </trkpt>
      <trkpt lat="47.613156" lon="8.292425">
        <ele>319.184084</ele>
        <time>2022-01-07T17:14:23.012Z</time>
      </trkpt>
      <trkpt lat="47.613206" lon="8.292317">
        <ele>319.120509</ele>
        <time>2022-01-07T17:14:24.718Z</time>
      </trkpt>
      <trkpt lat="47.613461" lon="8.291800">
        <ele>318.809657</ele>
        <time>2022-01-07T17:14:33.032Z</time>
      </trkpt>
      <trkpt lat="47.614092" lon="8.290999">
        <ele>318.211851</ele>
        <time>2022-01-07T17:14:49.625Z</time>
      </trkpt>
      <trkpt lat="47.614510" lon="8.289794">
        <ele>318.062354</ele>
        <time>2022-01-07T17:15:09.012Z</time>
      </trkpt>
      <trkpt lat="47.614719" lon="8.288390">
        <ele>318.032295</ele>
        <time>2022-01-07T17:15:31.016Z</time>
      </trkpt>
      <trkpt lat="47.614680" lon="8.287811">
        <ele>318.136730</ele>
        <time>2022-01-07T17:15:40.378Z</time>
      </trkpt>
      <trkpt lat="47.614597" lon="8.286579">
        <ele>318.434691</ele>
        <time>2022-01-07T17:16:00.935Z</time>
      </trkpt>
      <trkpt lat="47.614435" lon="8.285137">
        <ele>318.667687</ele>
        <time>2022-01-07T17:16:23.539Z</time>
      </trkpt>
      <trkpt lat="47.614348" lon="8.284722">
        <ele>318.664174</ele>
        <time>2022-01-07T17:16:30.179Z</time>
      </trkpt>
      <trkpt lat="47.614067" lon="8.283552">
        <ele>318.654134</ele>
        <time>2022-01-07T17:16:48.596Z</time>
      </trkpt>
      <trkpt lat="47.613990" lon="8.283222">
        <ele>318.651311</ele>
        <time>2022-01-07T17:16:53.777Z</time>
      </trkpt>
      <trkpt lat="47.614370" lon="8.283012">
        <ele>318.670542</ele>
        <time>2022-01-07T17:17:02.382Z</time>
      </trkpt>
      <trkpt lat="47.614924" lon="8.282470">
        <ele>318.716874</ele>
        <time>2022-01-07T17:17:16.721Z</time>
      </trkpt>
      <trkpt lat="47.615328" lon="8.281945">
        <ele>318.754370</ele>
        <time>2022-01-07T17:17:29.302Z</time>
      </trkpt>
      <trkpt lat="47.615524" lon="8.281557">
        <ele>318.784061</ele>
        <time>2022-01-07T17:17:37.098Z</time>
      </trkpt>
      <trkpt lat="47.615514" lon="8.279529">
        <ele>319.280162</ele>
        <time>2022-01-07T17:18:09.633Z</time>
      </trkpt>
      <trkpt lat="47.615711" lon="8.277240">
        <ele>319.599735</ele>
        <time>2022-01-07T17:18:46.010Z</time>
      </trkpt>
      <trkpt lat="47.615997" lon="8.274219">
        <ele>319.455648</ele>
        <time>2022-01-07T17:19:30.720Z</time>
      </trkpt>
      <trkpt lat="47.615981" lon="8.273963">
        <ele>319.425876</ele>
        <time>2022-01-07T17:19:34.434Z</time>
      </trkpt>
      <trkpt lat="47.616307" lon="8.272158">
        <ele>319.445686</ele>
        <time>2022-01-07T17:20:01.692Z</time>
      </trkpt>
      <trkpt lat="47.616781" lon="8.270561">
        <ele>319.800414</ele>
        <time>2022-01-07T17:20:29.238Z</time>
      </trkpt>
      <trkpt lat="47.616568" lon="8.269842">
        <ele>320.197174</ele>
        <time>2022-01-07T17:20:42.616Z</time>
      </trkpt>
      <trkpt lat="47.616431" lon="8.269422">
        <ele>320.432890</ele>
        <time>2022-01-07T17:20:50.731Z</time>
      </trkpt>
      <trkpt lat="47.616736" lon="8.269094">
        <ele>320.715212</ele>
        <time>2022-01-07T17:21:00.534Z</time>
      </trkpt>
      <trkpt lat="47.616954" lon="8.268651">
        <ele>321.222232</ele>
        <time>2022-01-07T17:21:10.319Z</time>
      </trkpt>
      <trkpt lat="47.617018" lon="8.268216">
        <ele>321.777481</ele>
        <time>2022-01-07T17:21:18.401Z</time>
      </trkpt>
      <trkpt lat="47.617015" lon="8.267911">
        <ele>322.157880</ele>
        <time>2022-01-07T17:21:23.999Z</time>
      </trkpt>
      <trkpt lat="47.616989" lon="8.267637">
        <ele>322.502948</ele>
        <time>2022-01-07T17:21:29.016Z</time>
      </trkpt>
      <trkpt lat="47.617250" lon="8.267531">
        <ele>323.003575</ele>
        <time>2022-01-07T17:21:36.644Z</time>
      </trkpt>
      <trkpt lat="47.617377" lon="8.267479">
        <ele>323.247314</ele>
        <time>2022-01-07T17:21:40.475Z</time>
      </trkpt>
      <trkpt lat="47.617674" lon="8.267354">
        <ele>323.818458</ele>
        <time>2022-01-07T17:21:49.988Z</time>
      </trkpt>
      <trkpt lat="47.617348" lon="8.266175">
        <ele>327.220356</ele>
        <time>2022-01-07T17:22:22.647Z</time>
      </trkpt>
      <trkpt lat="47.617832" lon="8.265719">
        <ele>329.826303</ele>
        <time>2022-01-07T17:22:47.702Z</time>
      </trkpt>
      <trkpt lat="47.618211" lon="8.265664">
        <ele>331.557107</ele>
        <time>2022-01-07T17:23:04.041Z</time>
      </trkpt>
      <trkpt lat="47.618218" lon="8.265526">
        <ele>331.981091</ele>
        <time>2022-01-07T17:23:07.644Z</time>
      </trkpt>
      <trkpt lat="47.618305" lon="8.265338">
        <ele>332.569002</ele>
        <time>2022-01-07T17:23:14.939Z</time>
      </trkpt>
      <trkpt lat="47.618441" lon="8.265211">
        <ele>333.062555</ele>
        <time>2022-01-07T17:23:20.864Z</time>
      </trkpt>
      <trkpt lat="47.618546" lon="8.264928">
        <ele>333.731320</ele>
        <time>2022-01-07T17:23:30.599Z</time>
      </trkpt>
      <trkpt lat="47.618632" lon="8.264251">
        <ele>335.157537</ele>
        <time>2022-01-07T17:23:48.346Z</time>
      </trkpt>
      <trkpt lat="47.618465" lon="8.261468">
        <ele>337.745083</ele>
        <time>2022-01-07T17:24:41.162Z</time>
      </trkpt>
      <trkpt lat="47.618681" lon="8.259101">
        <ele>334.461982</ele>
        <time>2022-01-07T17:25:09.338Z</time>
      </trkpt>
      <trkpt lat="47.618838" lon="8.258389">
        <ele>332.483262</ele>
        <time>2022-01-07T17:25:16.942Z</time>
      </trkpt>
      <trkpt lat="47.618994" lon="8.258277">
        <ele>331.804144</ele>
        <time>2022-01-07T17:25:19.464Z</time>
      </trkpt>
      <trkpt lat="47.619309" lon="8.258056">
        <ele>330.420486</ele>
        <time>2022-01-07T17:25:24.634Z</time>
      </trkpt>
      <trkpt lat="47.619388" lon="8.257995">
        <ele>330.032954</ele>
        <time>2022-01-07T17:25:26.460Z</time>
      </trkpt>
      <trkpt lat="47.619429" lon="8.258100">
        <ele>329.677040</ele>
        <time>2022-01-07T17:25:27.699Z</time>
      </trkpt>
      <trkpt lat="47.619471" lon="8.258207">
        <ele>329.313869</ele>
        <time>2022-01-07T17:25:28.945Z</time>
      </trkpt>
      <trkpt lat="47.619505" lon="8.258474">
        <ele>328.516892</ele>
        <time>2022-01-07T17:25:31.608Z</time>
      </trkpt>
      <trkpt lat="47.619583" lon="8.258618">
        <ele>327.975059</ele>
        <time>2022-01-07T17:25:33.472Z</time>
      </trkpt>
      <trkpt lat="47.619638" lon="8.258706">
        <ele>327.623070</ele>
        <time>2022-01-07T17:25:34.669Z</time>
      </trkpt>
      <trkpt lat="47.619726" lon="8.258750">
        <ele>327.218986</ele>
        <time>2022-01-07T17:25:35.970Z</time>
      </trkpt>
      <trkpt lat="47.620213" lon="8.258296">
        <ele>324.716228</ele>
        <time>2022-01-07T17:25:44.788Z</time>
      </trkpt>
      <trkpt lat="47.620477" lon="8.257918">
        <ele>323.119728</ele>
        <time>2022-01-07T17:25:51.051Z</time>
      </trkpt>
      <trkpt lat="47.620726" lon="8.257731">
        <ele>322.608411</ele>
        <time>2022-01-07T17:25:56.229Z</time>
      </trkpt>
      <trkpt lat="47.621113" lon="8.257567">
        <ele>322.269238</ele>
        <time>2022-01-07T17:26:03.846Z</time>
      </trkpt>
      <trkpt lat="47.621173" lon="8.257478">
        <ele>322.197739</ele>
        <time>2022-01-07T17:26:05.827Z</time>
      </trkpt>
      <trkpt lat="47.620723" lon="8.256512">
        <ele>321.530745</ele>
        <time>2022-01-07T17:26:22.842Z</time>
      </trkpt>
      <trkpt lat="47.620494" lon="8.255992">
        <ele>321.158551</ele>
        <time>2022-01-07T17:26:31.409Z</time>
      </trkpt>
      <trkpt lat="47.620514" lon="8.255800">
        <ele>321.022634</ele>
        <time>2022-01-07T17:26:33.886Z</time>
      </trkpt>
      <trkpt lat="47.620562" lon="8.255760">
        <ele>320.965492</ele>
        <time>2022-01-07T17:26:35.045Z</time>
      </trkpt>
      <trkpt lat="47.620715" lon="8.255614">
        <ele>320.776678</ele>
        <time>2022-01-07T17:26:38.814Z</time>
      </trkpt>
      <trkpt lat="47.620737" lon="8.255574">
        <ele>320.740560</ele>
        <time>2022-01-07T17:26:39.438Z</time>
      </trkpt>
      <trkpt lat="47.620605" lon="8.255270">
        <ele>320.487574</ele>
        <time>2022-01-07T17:26:44.260Z</time>
      </trkpt>
      <trkpt lat="47.620379" lon="8.254804">
        <ele>320.085943</ele>
        <time>2022-01-07T17:26:51.615Z</time>
      </trkpt>
      <trkpt lat="47.618071" lon="8.251276">
        <ele>316.248307</ele>
        <time>2022-01-07T17:27:53.152Z</time>
      </trkpt>
      <trkpt lat="47.616484" lon="8.248952">
        <ele>314.926432</ele>
        <time>2022-01-07T17:28:39.757Z</time>
      </trkpt>
      <trkpt lat="47.616321" lon="8.248606">
        <ele>314.807992</ele>
        <time>2022-01-07T17:28:45.653Z</time>
      </trkpt>
      <trkpt lat="47.616250" lon="8.248249">
        <ele>314.706711</ele>
        <time>2022-01-07T17:28:50.865Z</time>
      </trkpt>
      <trkpt lat="47.616230" lon="8.247649">
        <ele>314.611623</ele>
        <time>2022-01-07T17:28:59.196Z</time>
      </trkpt>
      <trkpt lat="47.616139" lon="8.247372">
        <ele>314.562848</ele>
        <time>2022-01-07T17:29:03.457Z</time>
      </trkpt>
      <trkpt lat="47.615644" lon="8.246804">
        <ele>314.415901</ele>
        <time>2022-01-07T17:29:16.402Z</time>
      </trkpt>
      <trkpt lat="47.615416" lon="8.246331">
        <ele>314.323858</ele>
        <time>2022-01-07T17:29:25.100Z</time>
      </trkpt>
      <trkpt lat="47.615197" lon="8.245309">
        <ele>315.065834</ele>
        <time>2022-01-07T17:29:42.145Z</time>
      </trkpt>
      <trkpt lat="47.614734" lon="8.241946">
        <ele>318.404598</ele>
        <time>2022-01-07T17:30:51.451Z</time>
      </trkpt>
      <trkpt lat="47.614684" lon="8.241328">
        <ele>319.049893</ele>
        <time>2022-01-07T17:31:03.430Z</time>
      </trkpt>
      <trkpt lat="47.614576" lon="8.240882">
        <ele>319.495473</ele>
        <time>2022-01-07T17:31:11.947Z</time>
      </trkpt>
      <trkpt lat="47.614247" lon="8.238632">
        <ele>319.321219</ele>
        <time>2022-01-07T17:31:46.089Z</time>
      </trkpt>
      <trkpt lat="47.614299" lon="8.238443">
        <ele>319.305768</ele>
        <time>2022-01-07T17:31:48.816Z</time>
      </trkpt>
      <trkpt lat="47.614283" lon="8.238347">
        <ele>319.298284</ele>
        <time>2022-01-07T17:31:50.144Z</time>
      </trkpt>
      <trkpt lat="47.614268" lon="8.238247">
        <ele>319.216114</ele>
        <time>2022-01-07T17:31:51.294Z</time>
      </trkpt>
      <trkpt lat="47.614083" lon="8.238185">
        <ele>318.935546</ele>
        <time>2022-01-07T17:31:54.897Z</time>
      </trkpt>
      <trkpt lat="47.613486" lon="8.237129">
        <ele>317.561173</ele>
        <time>2022-01-07T17:32:11.696Z</time>
      </trkpt>
      <trkpt lat="47.613059" lon="8.236501">
        <ele>316.671676</ele>
        <time>2022-01-07T17:32:22.539Z</time>
      </trkpt>
      <trkpt lat="47.612372" lon="8.235660">
        <ele>315.546204</ele>
        <time>2022-01-07T17:32:39.084Z</time>
      </trkpt>
      <trkpt lat="47.611933" lon="8.235214">
        <ele>314.877088</ele>
        <time>2022-01-07T17:32:48.867Z</time>
      </trkpt>
      <trkpt lat="47.611621" lon="8.234904">
        <ele>314.404858</ele>
        <time>2022-01-07T17:32:56.074Z</time>
      </trkpt>
      <trkpt lat="47.610895" lon="8.234255">
        <ele>314.260259</ele>
        <time>2022-01-07T17:33:13.816Z</time>
      </trkpt>
      <trkpt lat="47.610626" lon="8.233851">
        <ele>314.207323</ele>
        <time>2022-01-07T17:33:22.837Z</time>
      </trkpt>
      <trkpt lat="47.610458" lon="8.233277">
        <ele>314.148987</ele>
        <time>2022-01-07T17:33:32.722Z</time>
      </trkpt>
      <trkpt lat="47.610264" lon="8.232680">
        <ele>314.112322</ele>
        <time>2022-01-07T17:33:42.726Z</time>
      </trkpt>
      <trkpt lat="47.610118" lon="8.232312">
        <ele>314.098714</ele>
        <time>2022-01-07T17:33:49.043Z</time>
      </trkpt>
      <trkpt lat="47.610076" lon="8.231885">
        <ele>314.084961</ele>
        <time>2022-01-07T17:33:55.491Z</time>
      </trkpt>
      <trkpt lat="47.610179" lon="8.231621">
        <ele>314.075240</ele>
        <time>2022-01-07T17:34:00.139Z</time>
      </trkpt>
      <trkpt lat="47.610056" lon="8.231545">
        <ele>314.068941</ele>
        <time>2022-01-07T17:34:02.983Z</time>
      </trkpt>
      <trkpt lat="47.609957" lon="8.231505">
        <ele>314.064090</ele>
        <time>2022-01-07T17:34:05.342Z</time>
      </trkpt>
      <trkpt lat="47.609895" lon="8.231475">
        <ele>314.061007</ele>
        <time>2022-01-07T17:34:06.877Z</time>
      </trkpt>
      <trkpt lat="47.609803" lon="8.231400">
        <ele>314.056044</ele>
        <time>2022-01-07T17:34:09.227Z</time>
      </trkpt>
      <trkpt lat="47.609776" lon="8.231324">
        <ele>314.053306</ele>
        <time>2022-01-07T17:34:10.500Z</time>
      </trkpt>
      <trkpt lat="47.609731" lon="8.231181">
        <ele>314.048277</ele>
        <time>2022-01-07T17:34:12.848Z</time>
      </trkpt>
      <trkpt lat="47.609718" lon="8.231143">
        <ele>314.046918</ele>
        <time>2022-01-07T17:34:13.481Z</time>
      </trkpt>
      <trkpt lat="47.609538" lon="8.231123">
        <ele>314.017348</ele>
        <time>2022-01-07T17:34:17.379Z</time>
      </trkpt>
      <trkpt lat="47.609537" lon="8.231001">
        <ele>313.971634</ele>
        <time>2022-01-07T17:34:19.088Z</time>
      </trkpt>
      <trkpt lat="47.609544" lon="8.229971">
        <ele>313.585697</ele>
        <time>2022-01-07T17:34:33.145Z</time>
      </trkpt>
      <trkpt lat="47.609878" lon="8.229912">
        <ele>313.398764</ele>
        <time>2022-01-07T17:34:39.741Z</time>
      </trkpt>
      <trkpt lat="47.609938" lon="8.228823">
        <ele>312.981687</ele>
        <time>2022-01-07T17:34:54.852Z</time>
      </trkpt>
      <trkpt lat="47.610189" lon="8.227461">
        <ele>312.373373</ele>
        <time>2022-01-07T17:35:14.092Z</time>
      </trkpt>
      <trkpt lat="47.610702" lon="8.226095">
        <ele>311.792122</ele>
        <time>2022-01-07T17:35:35.144Z</time>
      </trkpt>
      <trkpt lat="47.610685" lon="8.225789">
        <ele>311.723634</ele>
        <time>2022-01-07T17:35:39.288Z</time>
      </trkpt>
      <trkpt lat="47.610771" lon="8.225501">
        <ele>311.653373</ele>
        <time>2022-01-07T17:35:43.498Z</time>
      </trkpt>
      <trkpt lat="47.611038" lon="8.225263">
        <ele>311.550307</ele>
        <time>2022-01-07T17:35:50.040Z</time>
      </trkpt>
      <trkpt lat="47.611114" lon="8.225208">
        <ele>311.522328</ele>
        <time>2022-01-07T17:35:51.705Z</time>
      </trkpt>
      <trkpt lat="47.611201" lon="8.225146">
        <ele>311.490393</ele>
        <time>2022-01-07T17:35:53.856Z</time>
      </trkpt>
      <trkpt lat="47.611327" lon="8.225057">
        <ele>311.444218</ele>
        <time>2022-01-07T17:35:56.934Z</time>
      </trkpt>
      <trkpt lat="47.611845" lon="8.224642">
        <ele>311.371070</ele>
        <time>2022-01-07T17:36:10.031Z</time>
      </trkpt>
      <trkpt lat="47.612062" lon="8.224442">
        <ele>311.506314</ele>
        <time>2022-01-07T17:36:16.062Z</time>
      </trkpt>
      <trkpt lat="47.612816" lon="8.223882">
        <ele>311.952701</ele>
        <time>2022-01-07T17:36:37.090Z</time>
      </trkpt>
      <trkpt lat="47.613081" lon="8.223776">
        <ele>312.097997</ele>
        <time>2022-01-07T17:36:43.556Z</time>
      </trkpt>
      <trkpt lat="47.613768" lon="8.223527">
        <ele>312.960368</ele>
        <time>2022-01-07T17:37:01.322Z</time>
      </trkpt>
      <trkpt lat="47.614353" lon="8.223327">
        <ele>313.970508</ele>
        <time>2022-01-07T17:37:18.538Z</time>
      </trkpt>
      <trkpt lat="47.614567" lon="8.223276">
        <ele>314.335208</ele>
        <time>2022-01-07T17:37:25.456Z</time>
      </trkpt>
      <trkpt lat="47.614666" lon="8.223344">
        <ele>314.518779</ele>
        <time>2022-01-07T17:37:28.859Z</time>
      </trkpt>
      <trkpt lat="47.615082" lon="8.224334">
        <ele>315.932269</ele>
        <time>2022-01-07T17:37:53.796Z</time>
      </trkpt>
      <trkpt lat="47.615183" lon="8.224564">
        <ele>316.293169</ele>
        <time>2022-01-07T17:37:59.805Z</time>
      </trkpt>
      <trkpt lat="47.615280" lon="8.224635">
        <ele>316.504133</ele>
        <time>2022-01-07T17:38:03.247Z</time>
      </trkpt>
      <trkpt lat="47.615547" lon="8.224548">
        <ele>317.037301</ele>
        <time>2022-01-07T17:38:11.921Z</time>
      </trkpt>
      <trkpt lat="47.616182" lon="8.224016">
        <ele>318.459658</ele>
        <time>2022-01-07T17:38:34.410Z</time>
      </trkpt>
      <trkpt lat="47.617088" lon="8.223000">
        <ele>319.039787</ele>
        <time>2022-01-07T17:39:01.314Z</time>
      </trkpt>
      <trkpt lat="47.617624" lon="8.222247">
        <ele>319.235302</ele>
        <time>2022-01-07T17:39:18.668Z</time>
      </trkpt>
      <trkpt lat="47.617744" lon="8.222145">
        <ele>319.293846</ele>
        <time>2022-01-07T17:39:21.666Z</time>
      </trkpt>
      <trkpt lat="47.617850" lon="8.221716">
        <ele>319.516411</ele>
        <time>2022-01-07T17:39:29.770Z</time>
      </trkpt>
      <trkpt lat="47.618257" lon="8.221163">
        <ele>319.915234</ele>
        <time>2022-01-07T17:39:45.140Z</time>
      </trkpt>
      <trkpt lat="47.618637" lon="8.220421">
        <ele>320.369146</ele>
        <time>2022-01-07T17:40:02.887Z</time>
      </trkpt>
      <trkpt lat="47.619183" lon="8.219596">
        <ele>320.594389</ele>
        <time>2022-01-07T17:40:27.368Z</time>
      </trkpt>
      <trkpt lat="47.619807" lon="8.217957">
        <ele>320.681284</ele>
        <time>2022-01-07T17:40:57.589Z</time>
      </trkpt>
      <trkpt lat="47.620094" lon="8.216945">
        <ele>319.192447</ele>
        <time>2022-01-07T17:41:12.175Z</time>
      </trkpt>
      <trkpt lat="47.620413" lon="8.216053">
        <ele>317.797374</ele>
        <time>2022-01-07T17:41:25.673Z</time>
      </trkpt>
      <trkpt lat="47.620439" lon="8.215906">
        <ele>317.587409</ele>
        <time>2022-01-07T17:41:27.313Z</time>
      </trkpt>
      <trkpt lat="47.620470" lon="8.215806">
        <ele>317.435341</ele>
        <time>2022-01-07T17:41:28.522Z</time>
      </trkpt>
      <trkpt lat="47.620491" lon="8.215738">
        <ele>317.332004</ele>
        <time>2022-01-07T17:41:29.437Z</time>
      </trkpt>
      <trkpt lat="47.620908" lon="8.214286">
        <ele>315.811216</ele>
        <time>2022-01-07T17:41:49.648Z</time>
      </trkpt>
      <trkpt lat="47.621249" lon="8.213022">
        <ele>314.649526</ele>
        <time>2022-01-07T17:42:09.570Z</time>
      </trkpt>
      <trkpt lat="47.621459" lon="8.212230">
        <ele>315.314103</ele>
        <time>2022-01-07T17:42:24.855Z</time>
      </trkpt>
      <trkpt lat="47.621663" lon="8.210869">
        <ele>316.402819</ele>
        <time>2022-01-07T17:42:53.249Z</time>
      </trkpt>
      <trkpt lat="47.621802" lon="8.210013">
        <ele>317.016457</ele>
        <time>2022-01-07T17:43:13.763Z</time>
      </trkpt>
      <trkpt lat="47.621930" lon="8.209170">
        <ele>317.559569</ele>
        <time>2022-01-07T17:43:31.708Z</time>
      </trkpt>
      <trkpt lat="47.622071" lon="8.207317">
        <ele>318.129641</ele>
        <time>2022-01-07T17:44:03.378Z</time>
      </trkpt>
      <trkpt lat="47.622017" lon="8.203777">
        <ele>316.468406</ele>
        <time>2022-01-07T17:44:55.330Z</time>
      </trkpt>
      <trkpt lat="47.622017" lon="8.203045">
        <ele>316.131484</ele>
        <time>2022-01-07T17:45:06.934Z</time>
      </trkpt>
      <trkpt lat="47.621825" lon="8.202078">
        <ele>315.581909</ele>
        <time>2022-01-07T17:45:22.662Z</time>
      </trkpt>
      <trkpt lat="47.621774" lon="8.201806">
        <ele>315.402588</ele>
        <time>2022-01-07T17:45:26.812Z</time>
      </trkpt>
      <trkpt lat="47.621784" lon="8.201609">
        <ele>315.277109</ele>
        <time>2022-01-07T17:45:29.721Z</time>
      </trkpt>
      <trkpt lat="47.621028" lon="8.198929">
        <ele>313.531496</ele>
        <time>2022-01-07T17:46:08.302Z</time>
      </trkpt>
      <trkpt lat="47.620270" lon="8.196824">
        <ele>312.587874</ele>
        <time>2022-01-07T17:46:43.093Z</time>
      </trkpt>
      <trkpt lat="47.619979" lon="8.195890">
        <ele>312.436925</ele>
        <time>2022-01-07T17:46:59.193Z</time>
      </trkpt>
      <trkpt lat="47.619858" lon="8.195391">
        <ele>312.359128</ele>
        <time>2022-01-07T17:47:07.430Z</time>
      </trkpt>
      <trkpt lat="47.619501" lon="8.193633">
        <ele>311.872006</ele>
        <time>2022-01-07T17:47:34.562Z</time>
      </trkpt>
      <trkpt lat="47.619449" lon="8.193404">
        <ele>311.804681</ele>
        <time>2022-01-07T17:47:37.985Z</time>
      </trkpt>
      <trkpt lat="47.619175" lon="8.192505">
        <ele>311.525528</ele>
        <time>2022-01-07T17:47:52.002Z</time>
      </trkpt>
      <trkpt lat="47.618966" lon="8.192036">
        <ele>311.357506</ele>
        <time>2022-01-07T17:48:00.076Z</time>
      </trkpt>
      <trkpt lat="47.618878" lon="8.192061">
        <ele>311.317781</ele>
        <time>2022-01-07T17:48:01.823Z</time>
      </trkpt>
      <trkpt lat="47.618806" lon="8.191992">
        <ele>311.279778</ele>
        <time>2022-01-07T17:48:03.610Z</time>
      </trkpt>
      <trkpt lat="47.618608" lon="8.191685">
        <ele>311.152798</ele>
        <time>2022-01-07T17:48:09.514Z</time>
      </trkpt>
      <trkpt lat="47.617852" lon="8.190938">
        <ele>310.786392</ele>
        <time>2022-01-07T17:48:28.648Z</time>
      </trkpt>
      <trkpt lat="47.617698" lon="8.190897">
        <ele>310.778474</ele>
        <time>2022-01-07T17:48:31.916Z</time>
      </trkpt>
      <trkpt lat="47.617579" lon="8.191019">
        <ele>310.771154</ele>
        <time>2022-01-07T17:48:35.234Z</time>
      </trkpt>
      <trkpt lat="47.617292" lon="8.191444">
        <ele>310.750632</ele>
        <time>2022-01-07T17:48:44.340Z</time>
      </trkpt>
      <trkpt lat="47.617206" lon="8.191493">
        <ele>310.745970</ele>
        <time>2022-01-07T17:48:46.305Z</time>
      </trkpt>
      <trkpt lat="47.617020" lon="8.191358">
        <ele>310.735491</ele>
        <time>2022-01-07T17:48:51.014Z</time>
      </trkpt>
      <trkpt lat="47.616265" lon="8.190326">
        <ele>310.696845</ele>
        <time>2022-01-07T17:49:13.943Z</time>
      </trkpt>
      <trkpt lat="47.615751" lon="8.189499">
        <ele>310.689400</ele>
        <time>2022-01-07T17:49:30.688Z</time>
      </trkpt>
      <trkpt lat="47.615606" lon="8.189239">
        <ele>310.687166</ele>
        <time>2022-01-07T17:49:35.656Z</time>
      </trkpt>
      <trkpt lat="47.615459" lon="8.188940">
        <ele>310.684717</ele>
        <time>2022-01-07T17:49:41.137Z</time>
      </trkpt>
      <trkpt lat="47.615204" lon="8.188359">
        <ele>310.594520</ele>
        <time>2022-01-07T17:49:51.560Z</time>
      </trkpt>
      <trkpt lat="47.614663" lon="8.187689">
        <ele>310.325500</ele>
        <time>2022-01-07T17:50:06.793Z</time>
      </trkpt>
      <trkpt lat="47.614537" lon="8.187418">
        <ele>310.240787</ele>
        <time>2022-01-07T17:50:11.398Z</time>
      </trkpt>
      <trkpt lat="47.614409" lon="8.187020">
        <ele>310.127313</ele>
        <time>2022-01-07T17:50:17.352Z</time>
      </trkpt>
      <trkpt lat="47.614357" lon="8.186890">
        <ele>310.088415</ele>
        <time>2022-01-07T17:50:19.351Z</time>
      </trkpt>
      <trkpt lat="47.614236" lon="8.186621">
        <ele>310.005199</ele>
        <time>2022-01-07T17:50:23.731Z</time>
      </trkpt>
      <trkpt lat="47.613962" lon="8.186126">
        <ele>309.664971</ele>
        <time>2022-01-07T17:50:32.232Z</time>
      </trkpt>
      <trkpt lat="47.613551" lon="8.185094">
        <ele>309.008410</ele>
        <time>2022-01-07T17:50:48.135Z</time>
      </trkpt>
      <trkpt lat="47.613219" lon="8.184913">
        <ele>308.721003</ele>
        <time>2022-01-07T17:50:54.943Z</time>
      </trkpt>
      <trkpt lat="47.613174" lon="8.184736">
        <ele>308.617384</ele>
        <time>2022-01-07T17:50:57.388Z</time>
      </trkpt>
      <trkpt lat="47.612172" lon="8.183300">
        <ele>308.096067</ele>
        <time>2022-01-07T17:51:26.106Z</time>
      </trkpt>
      <trkpt lat="47.611812" lon="8.182666">
        <ele>307.947689</ele>
        <time>2022-01-07T17:51:38.522Z</time>
      </trkpt>
      <trkpt lat="47.610888" lon="8.181594">
        <ele>308.495991</ele>
        <time>2022-01-07T17:52:06.978Z</time>
      </trkpt>
      <trkpt lat="47.610222" lon="8.180706">
        <ele>308.863780</ele>
        <time>2022-01-07T17:52:29.151Z</time>
      </trkpt>
      <trkpt lat="47.609806" lon="8.180316">
        <ele>309.015980</ele>
        <time>2022-01-07T17:52:40.958Z</time>
      </trkpt>
      <trkpt lat="47.608437" lon="8.179111">
        <ele>309.295485</ele>
        <time>2022-01-07T17:53:17.046Z</time>
      </trkpt>
      <trkpt lat="47.608241" lon="8.178905">
        <ele>309.285488</ele>
        <time>2022-01-07T17:53:22.325Z</time>
      </trkpt>
      <trkpt lat="47.607744" lon="8.178388">
        <ele>309.260224</ele>
        <time>2022-01-07T17:53:35.512Z</time>
      </trkpt>
      <trkpt lat="47.607306" lon="8.177927">
        <ele>309.197274</ele>
        <time>2022-01-07T17:53:47.163Z</time>
      </trkpt>
      <trkpt lat="47.607105" lon="8.177720">
        <ele>309.135407</ele>
        <time>2022-01-07T17:53:52.504Z</time>
      </trkpt>
      <trkpt lat="47.606166" lon="8.176446">
        <ele>308.813656</ele>
        <time>2022-01-07T17:54:19.627Z</time>
      </trkpt>
      <trkpt lat="47.605847" lon="8.175886">
        <ele>308.714480</ele>
        <time>2022-01-07T17:54:29.845Z</time>
      </trkpt>
      <trkpt lat="47.605665" lon="8.175973">
        <ele>308.678308</ele>
        <time>2022-01-07T17:54:33.737Z</time>
      </trkpt>
      <trkpt lat="47.605270" lon="8.175782">
        <ele>308.599716</ele>
        <time>2022-01-07T17:54:42.427Z</time>
      </trkpt>
      <trkpt lat="47.604775" lon="8.175197">
        <ele>308.479987</ele>
        <time>2022-01-07T17:54:56.256Z</time>
      </trkpt>
      <trkpt lat="47.603952" lon="8.174409">
        <ele>308.785056</ele>
        <time>2022-01-07T17:55:19.662Z</time>
      </trkpt>
      <trkpt lat="47.602973" lon="8.173246">
        <ele>309.115057</ele>
        <time>2022-01-07T17:55:50.318Z</time>
      </trkpt>
      <trkpt lat="47.602587" lon="8.172915">
        <ele>309.014061</ele>
        <time>2022-01-07T17:56:00.235Z</time>
      </trkpt>
      <trkpt lat="47.602426" lon="8.172858">
        <ele>308.976568</ele>
        <time>2022-01-07T17:56:03.481Z</time>
      </trkpt>
      <trkpt lat="47.602213" lon="8.172604">
        <ele>308.914660</ele>
        <time>2022-01-07T17:56:09.316Z</time>
      </trkpt>
      <trkpt lat="47.601309" lon="8.171467">
        <ele>308.569056</ele>
        <time>2022-01-07T17:56:33.121Z</time>
      </trkpt>
      <trkpt lat="47.600653" lon="8.170514">
        <ele>308.232948</ele>
        <time>2022-01-07T17:56:51.922Z</time>
      </trkpt>
      <trkpt lat="47.600262" lon="8.169762">
        <ele>308.181508</ele>
        <time>2022-01-07T17:57:06.812Z</time>
      </trkpt>
      <trkpt lat="47.599885" lon="8.168779">
        <ele>308.348376</ele>
        <time>2022-01-07T17:57:25.699Z</time>
      </trkpt>
      <trkpt lat="47.599605" lon="8.167671">
        <ele>308.450696</ele>
        <time>2022-01-07T17:57:43.880Z</time>
      </trkpt>
      <trkpt lat="47.599657" lon="8.167478">
        <ele>308.345500</ele>
        <time>2022-01-07T17:57:46.814Z</time>
      </trkpt>
      <trkpt lat="47.599934" lon="8.167201">
        <ele>308.094724</ele>
        <time>2022-01-07T17:57:53.424Z</time>
      </trkpt>
      <trkpt lat="47.599980" lon="8.167128">
        <ele>308.044153</ele>
        <time>2022-01-07T17:57:54.703Z</time>
      </trkpt>
      <trkpt lat="47.599964" lon="8.167067">
        <ele>308.011024</ele>
        <time>2022-01-07T17:57:55.575Z</time>
      </trkpt>
      <trkpt lat="47.599407" lon="8.167443">
        <ele>307.551651</ele>
        <time>2022-01-07T17:58:07.684Z</time>
      </trkpt>
      <trkpt lat="47.598600" lon="8.167686">
        <ele>306.917647</ele>
        <time>2022-01-07T17:58:23.425Z</time>
      </trkpt>
      <trkpt lat="47.598388" lon="8.167785">
        <ele>306.738925</ele>
        <time>2022-01-07T17:58:27.651Z</time>
      </trkpt>
      <trkpt lat="47.598242" lon="8.167955">
        <ele>306.589662</ele>
        <time>2022-01-07T17:58:31.154Z</time>
      </trkpt>
      <trkpt lat="47.598008" lon="8.168249">
        <ele>306.343050</ele>
        <time>2022-01-07T17:58:37.029Z</time>
      </trkpt>
      <trkpt lat="47.597881" lon="8.168350">
        <ele>306.227171</ele>
        <time>2022-01-07T17:58:39.895Z</time>
      </trkpt>
      <trkpt lat="47.597793" lon="8.168341">
        <ele>306.156242</ele>
        <time>2022-01-07T17:58:41.628Z</time>
      </trkpt>
      <trkpt lat="47.597510" lon="8.168129">
        <ele>305.901293</ele>
        <time>2022-01-07T17:58:48.888Z</time>
      </trkpt>
      <trkpt lat="47.597284" lon="8.167844">
        <ele>305.702351</ele>
        <time>2022-01-07T17:58:56.031Z</time>
      </trkpt>
      <trkpt lat="47.595340" lon="8.165139">
        <ele>305.524022</ele>
        <time>2022-01-07T18:00:01.030Z</time>
      </trkpt>
      <trkpt lat="47.594760" lon="8.163685">
        <ele>305.646249</ele>
        <time>2022-01-07T18:00:30.053Z</time>
      </trkpt>
      <trkpt lat="47.594579" lon="8.162954">
        <ele>305.785808</ele>
        <time>2022-01-07T18:00:43.512Z</time>
      </trkpt>
      <trkpt lat="47.594439" lon="8.161969">
        <ele>305.966216</ele>
        <time>2022-01-07T18:01:00.873Z</time>
      </trkpt>
      <trkpt lat="47.594426" lon="8.160968">
        <ele>306.181717</ele>
        <time>2022-01-07T18:01:18.542Z</time>
      </trkpt>
      <trkpt lat="47.594472" lon="8.160270">
        <ele>306.356518</ele>
        <time>2022-01-07T18:01:30.917Z</time>
      </trkpt>
      <trkpt lat="47.594569" lon="8.159599">
        <ele>306.527561</ele>
        <time>2022-01-07T18:01:43.032Z</time>
      </trkpt>
      <trkpt lat="47.594797" lon="8.158680">
        <ele>306.770372</ele>
        <time>2022-01-07T18:02:00.476Z</time>
      </trkpt>
      <trkpt lat="47.595818" lon="8.155609">
        <ele>307.355330</ele>
        <time>2022-01-07T18:03:00.925Z</time>
      </trkpt>
      <trkpt lat="47.595920" lon="8.155407">
        <ele>307.352217</ele>
        <time>2022-01-07T18:03:05.091Z</time>
      </trkpt>
      <trkpt lat="47.596419" lon="8.155089">
        <ele>307.342281</ele>
        <time>2022-01-07T18:03:18.273Z</time>
      </trkpt>
      <trkpt lat="47.596654" lon="8.154182">
        <ele>307.178522</ele>
        <time>2022-01-07T18:03:33.533Z</time>
      </trkpt>
      <trkpt lat="47.596683" lon="8.153808">
        <ele>307.002657</ele>
        <time>2022-01-07T18:03:39.299Z</time>
      </trkpt>
      <trkpt lat="47.596696" lon="8.149552">
        <ele>305.113219</ele>
        <time>2022-01-07T18:04:42.983Z</time>
      </trkpt>
      <trkpt lat="47.596496" lon="8.147962">
        <ele>305.038955</ele>
        <time>2022-01-07T18:05:09.481Z</time>
      </trkpt>
      <trkpt lat="47.596285" lon="8.147053">
        <ele>305.102026</ele>
        <time>2022-01-07T18:05:26.260Z</time>
      </trkpt>
      <trkpt lat="47.596119" lon="8.146575">
        <ele>305.168045</ele>
        <time>2022-01-07T18:05:35.915Z</time>
      </trkpt>
      <trkpt lat="47.595588" lon="8.145795">
        <ele>305.661840</ele>
        <time>2022-01-07T18:05:56.187Z</time>
      </trkpt>
      <trkpt lat="47.593817" lon="8.141629">
        <ele>307.804230</ele>
        <time>2022-01-07T18:07:28.017Z</time>
      </trkpt>
      <trkpt lat="47.593310" lon="8.140578">
        <ele>308.141127</ele>
        <time>2022-01-07T18:07:50.468Z</time>
      </trkpt>
      <trkpt lat="47.592788" lon="8.139631">
        <ele>308.374832</ele>
        <time>2022-01-07T18:08:11.485Z</time>
      </trkpt>
      <trkpt lat="47.591792" lon="8.138132">
        <ele>308.621069</ele>
        <time>2022-01-07T18:08:47.719Z</time>
      </trkpt>
      <trkpt lat="47.591659" lon="8.137796">
        <ele>308.568587</ele>
        <time>2022-01-07T18:08:54.214Z</time>
      </trkpt>
      <trkpt lat="47.591583" lon="8.136990">
        <ele>308.458956</ele>
        <time>2022-01-07T18:09:07.338Z</time>
      </trkpt>
      <trkpt lat="47.591216" lon="8.136608">
        <ele>308.369393</ele>
        <time>2022-01-07T18:09:17.732Z</time>
      </trkpt>
      <trkpt lat="47.590886" lon="8.136395">
        <ele>308.297503</ele>
        <time>2022-01-07T18:09:25.953Z</time>
      </trkpt>
      <trkpt lat="47.590309" lon="8.136191">
        <ele>308.558193</ele>
        <time>2022-01-07T18:09:40.393Z</time>
      </trkpt>
      <trkpt lat="47.589285" lon="8.136024">
        <ele>309.204647</ele>
        <time>2022-01-07T18:10:07.625Z</time>
      </trkpt>
      <trkpt lat="47.589127" lon="8.135859">
        <ele>309.325919</ele>
        <time>2022-01-07T18:10:14.878Z</time>
      </trkpt>
      <trkpt lat="47.589701" lon="8.135884">
        <ele>310.117389</ele>
        <time>2022-01-07T18:10:31.456Z</time>
      </trkpt>
      <trkpt lat="47.589737" lon="8.135793">
        <ele>310.229106</ele>
        <time>2022-01-07T18:10:33.711Z</time>
      </trkpt>
      <trkpt lat="47.589858" lon="8.134671">
        <ele>311.432316</ele>
        <time>2022-01-07T18:10:55.949Z</time>
      </trkpt>
      <trkpt lat="47.589882" lon="8.134609">
        <ele>311.508015</ele>
        <time>2022-01-07T18:10:57.509Z</time>
      </trkpt>
      <trkpt lat="47.590681" lon="8.134711">
        <ele>312.562411</ele>
        <time>2022-01-07T18:11:19.235Z</time>
      </trkpt>
      <trkpt lat="47.590725" lon="8.134777">
        <ele>312.623684</ele>
        <time>2022-01-07T18:11:20.783Z</time>
      </trkpt>
      <trkpt lat="47.591308" lon="8.134946">
        <ele>313.205238</ele>
        <time>2022-01-07T18:11:37.103Z</time>
      </trkpt>
      <trkpt lat="47.591371" lon="8.134928">
        <ele>313.268049</ele>
        <time>2022-01-07T18:11:38.428Z</time>
      </trkpt>
      <trkpt lat="47.591410" lon="8.134811">
        <ele>313.354217</ele>
        <time>2022-01-07T18:11:40.132Z</time>
      </trkpt>
      <trkpt lat="47.591473" lon="8.134499">
        <ele>313.569248</ele>
        <time>2022-01-07T18:11:45.540Z</time>
      </trkpt>
      <trkpt lat="47.591569" lon="8.134046">
        <ele>313.882755</ele>
        <time>2022-01-07T18:11:53.330Z</time>
      </trkpt>
      <trkpt lat="47.592031" lon="8.133513">
        <ele>314.651280</ele>
        <time>2022-01-07T18:12:09.092Z</time>
      </trkpt>
      <trkpt lat="47.592062" lon="8.133399">
        <ele>314.766065</ele>
        <time>2022-01-07T18:12:11.948Z</time>
      </trkpt>
      <trkpt lat="47.592009" lon="8.133338">
        <ele>314.858966</ele>
        <time>2022-01-07T18:12:13.773Z</time>
      </trkpt>
      <trkpt lat="47.591957" lon="8.133278">
        <ele>314.950201</ele>
        <time>2022-01-07T18:12:15.595Z</time>
      </trkpt>
      <trkpt lat="47.591906" lon="8.133207">
        <ele>315.047066</ele>
        <time>2022-01-07T18:12:17.582Z</time>
      </trkpt>
      <trkpt lat="47.591517" lon="8.132683">
        <ele>315.774785</ele>
        <time>2022-01-07T18:12:33.456Z</time>
      </trkpt>
      <trkpt lat="47.591282" lon="8.132378">
        <ele>316.207228</ele>
        <time>2022-01-07T18:12:42.165Z</time>
      </trkpt>
      <trkpt lat="47.591151" lon="8.131994">
        <ele>316.565988</ele>
        <time>2022-01-07T18:12:49.978Z</time>
      </trkpt>
      <trkpt lat="47.591144" lon="8.131580">
        <ele>316.828699</ele>
        <time>2022-01-07T18:12:57.224Z</time>
      </trkpt>
      <trkpt lat="47.591247" lon="8.131228">
        <ele>317.072109</ele>
        <time>2022-01-07T18:13:03.024Z</time>
      </trkpt>
      <trkpt lat="47.591347" lon="8.130977">
        <ele>317.257043</ele>
        <time>2022-01-07T18:13:08.030Z</time>
      </trkpt>
      <trkpt lat="47.591364" lon="8.130933">
        <ele>317.289211</ele>
        <time>2022-01-07T18:13:08.812Z</time>
      </trkpt>
      <trkpt lat="47.591479" lon="8.130581">
        <ele>317.537329</ele>
        <time>2022-01-07T18:13:15.620Z</time>
      </trkpt>
      <trkpt lat="47.591483" lon="8.130025">
        <ele>317.890056</ele>
        <time>2022-01-07T18:13:25.350Z</time>
      </trkpt>
      <trkpt lat="47.591460" lon="8.129923">
        <ele>317.958282</ele>
        <time>2022-01-07T18:13:27.243Z</time>
      </trkpt>
      <trkpt lat="47.591365" lon="8.129632">
        <ele>318.163373</ele>
        <time>2022-01-07T18:13:33.183Z</time>
      </trkpt>
      <trkpt lat="47.591214" lon="8.129277">
        <ele>318.697575</ele>
        <time>2022-01-07T18:13:41.165Z</time>
      </trkpt>
      <trkpt lat="47.590649" lon="8.127923">
        <ele>320.736307</ele>
        <time>2022-01-07T18:14:13.603Z</time>
      </trkpt>
      <trkpt lat="47.590625" lon="8.127864">
        <ele>320.824531</ele>
        <time>2022-01-07T18:14:15.165Z</time>
      </trkpt>
      <trkpt lat="47.590409" lon="8.127398">
        <ele>321.548556</ele>
        <time>2022-01-07T18:14:28.057Z</time>
      </trkpt>
      <trkpt lat="47.589672" lon="8.126374">
        <ele>323.923389</ele>
        <time>2022-01-07T18:15:03.323Z</time>
      </trkpt>
      <trkpt lat="47.589591" lon="8.126262">
        <ele>324.184681</ele>
        <time>2022-01-07T18:15:06.977Z</time>
      </trkpt>
      <trkpt lat="47.589090" lon="8.125455">
        <ele>325.855127</ele>
        <time>2022-01-07T18:15:29.982Z</time>
      </trkpt>
      <trkpt lat="47.589078" lon="8.125315">
        <ele>325.920072</ele>
        <time>2022-01-07T18:15:32.918Z</time>
      </trkpt>
      <trkpt lat="47.588922" lon="8.125160">
        <ele>326.048207</ele>
        <time>2022-01-07T18:15:37.956Z</time>
      </trkpt>
      <trkpt lat="47.588669" lon="8.124663">
        <ele>326.334763</ele>
        <time>2022-01-07T18:15:49.009Z</time>
      </trkpt>
      <trkpt lat="47.588469" lon="8.124106">
        <ele>326.625159</ele>
        <time>2022-01-07T18:15:59.681Z</time>
      </trkpt>
      <trkpt lat="47.588307" lon="8.123639">
        <ele>326.866834</ele>
        <time>2022-01-07T18:16:08.203Z</time>
      </trkpt>
      <trkpt lat="47.588080" lon="8.122981">
        <ele>327.040640</ele>
        <time>2022-01-07T18:16:19.816Z</time>
      </trkpt>
      <trkpt lat="47.587930" lon="8.122557">
        <ele>327.024510</ele>
        <time>2022-01-07T18:16:27.130Z</time>
      </trkpt>
      <trkpt lat="47.587823" lon="8.122266">
        <ele>327.013345</ele>
        <time>2022-01-07T18:16:32.168Z</time>
      </trkpt>
      <trkpt lat="47.587722" lon="8.121983">
        <ele>327.002559</ele>
        <time>2022-01-07T18:16:36.928Z</time>
      </trkpt>
      <trkpt lat="47.587613" lon="8.121661">
        <ele>326.990422</ele>
        <time>2022-01-07T18:16:42.466Z</time>
      </trkpt>
      <trkpt lat="47.587553" lon="8.121454">
        <ele>326.982832</ele>
        <time>2022-01-07T18:16:45.926Z</time>
      </trkpt>
      <trkpt lat="47.587457" lon="8.121156">
        <ele>326.971707</ele>
        <time>2022-01-07T18:16:51.071Z</time>
      </trkpt>
      <trkpt lat="47.587370" lon="8.120885">
        <ele>326.964512</ele>
        <time>2022-01-07T18:16:55.802Z</time>
      </trkpt>
      <trkpt lat="47.587280" lon="8.120590">
        <ele>327.011386</ele>
        <time>2022-01-07T18:17:00.990Z</time>
      </trkpt>
      <trkpt lat="47.587273" lon="8.120566">
        <ele>327.015171</ele>
        <time>2022-01-07T18:17:01.403Z</time>
      </trkpt>
      <trkpt lat="47.587132" lon="8.120084">
        <ele>327.091232</ele>
        <time>2022-01-07T18:17:09.961Z</time>
      </trkpt>
      <trkpt lat="47.587014" lon="8.119574">
        <ele>327.169290</ele>
        <time>2022-01-07T18:17:18.842Z</time>
      </trkpt>
      <trkpt lat="47.586808" lon="8.118617">
        <ele>327.314723</ele>
        <time>2022-01-07T18:17:35.083Z</time>
      </trkpt>
      <trkpt lat="47.586785" lon="8.118468">
        <ele>327.336852</ele>
        <time>2022-01-07T18:17:37.521Z</time>
      </trkpt>
      <trkpt lat="47.586696" lon="8.117684">
        <ele>327.279639</ele>
        <time>2022-01-07T18:17:50.744Z</time>
      </trkpt>
      <trkpt lat="47.586657" lon="8.116185">
        <ele>327.136053</ele>
        <time>2022-01-07T18:18:13.944Z</time>
      </trkpt>
      <trkpt lat="47.586617" lon="8.115878">
        <ele>327.106125</ele>
        <time>2022-01-07T18:18:18.457Z</time>
      </trkpt>
      <trkpt lat="47.586495" lon="8.115468">
        <ele>326.683029</ele>
        <time>2022-01-07T18:18:24.725Z</time>
      </trkpt>
      <trkpt lat="47.586309" lon="8.115027">
        <ele>325.996739</ele>
        <time>2022-01-07T18:18:31.692Z</time>
      </trkpt>
      <trkpt lat="47.586124" lon="8.114616">
        <ele>325.344761</ele>
        <time>2022-01-07T18:18:38.033Z</time>
      </trkpt>
      <trkpt lat="47.586040" lon="8.114419">
        <ele>325.037237</ele>
        <time>2022-01-07T18:18:40.958Z</time>
      </trkpt>
      <trkpt lat="47.585978" lon="8.114276">
        <ele>324.812930</ele>
        <time>2022-01-07T18:18:43.072Z</time>
      </trkpt>
      <trkpt lat="47.585864" lon="8.114008">
        <ele>324.394857</ele>
        <time>2022-01-07T18:18:46.927Z</time>
      </trkpt>
      <trkpt lat="47.585808" lon="8.113882">
        <ele>324.195753</ele>
        <time>2022-01-07T18:18:48.719Z</time>
      </trkpt>
      <trkpt lat="47.585692" lon="8.113620">
        <ele>323.782220</ele>
        <time>2022-01-07T18:18:52.395Z</time>
      </trkpt>
      <trkpt lat="47.585557" lon="8.113319">
        <ele>323.001656</ele>
        <time>2022-01-07T18:18:56.448Z</time>
      </trkpt>
      <trkpt lat="47.585485" lon="8.113157">
        <ele>322.456789</ele>
        <time>2022-01-07T18:18:58.617Z</time>
      </trkpt>
      <trkpt lat="47.585352" lon="8.112867">
        <ele>321.471886</ele>
        <time>2022-01-07T18:19:02.469Z</time>
      </trkpt>
      <trkpt lat="47.585221" lon="8.112571">
        <ele>320.477595</ele>
        <time>2022-01-07T18:19:06.196Z</time>
      </trkpt>
      <trkpt lat="47.585157" lon="8.112430">
        <ele>320.000279</ele>
        <time>2022-01-07T18:19:07.962Z</time>
      </trkpt>
      <trkpt lat="47.585029" lon="8.112132">
        <ele>319.008050</ele>
        <time>2022-01-07T18:19:11.645Z</time>
      </trkpt>
      <trkpt lat="47.584878" lon="8.111799">
        <ele>317.881116</ele>
        <time>2022-01-07T18:19:15.806Z</time>
      </trkpt>
      <trkpt lat="47.584806" lon="8.111649">
        <ele>317.364053</ele>
        <time>2022-01-07T18:19:17.722Z</time>
      </trkpt>
      <trkpt lat="47.584716" lon="8.111496">
        <ele>316.793895</ele>
        <time>2022-01-07T18:19:19.803Z</time>
      </trkpt>
      <trkpt lat="47.584050" lon="8.110692">
        <ele>313.372487</ele>
        <time>2022-01-07T18:19:32.956Z</time>
      </trkpt>
      <trkpt lat="47.583721" lon="8.110209">
        <ele>311.548645</ele>
        <time>2022-01-07T18:19:40.084Z</time>
      </trkpt>
      <trkpt lat="47.583498" lon="8.109664">
        <ele>309.854992</ele>
        <time>2022-01-07T18:19:46.998Z</time>
      </trkpt>
      <trkpt lat="47.583452" lon="8.109511">
        <ele>309.409920</ele>
        <time>2022-01-07T18:19:48.869Z</time>
      </trkpt>
      <trkpt lat="47.583405" lon="8.109406">
        <ele>309.075095</ele>
        <time>2022-01-07T18:19:50.278Z</time>
      </trkpt>
      <trkpt lat="47.583348" lon="8.109308">
        <ele>308.918336</ele>
        <time>2022-01-07T18:19:51.793Z</time>
      </trkpt>
      <trkpt lat="47.583309" lon="8.109254">
        <ele>308.854463</ele>
        <time>2022-01-07T18:19:52.699Z</time>
      </trkpt>
      <trkpt lat="47.583159" lon="8.109095">
        <ele>308.633754</ele>
        <time>2022-01-07T18:19:55.889Z</time>
      </trkpt>
      <trkpt lat="47.583054" lon="8.108964">
        <ele>308.469497</ele>
        <time>2022-01-07T18:19:58.359Z</time>
      </trkpt>
      <trkpt lat="47.583007" lon="8.108919">
        <ele>308.402529</ele>
        <time>2022-01-07T18:19:59.349Z</time>
      </trkpt>
      <trkpt lat="47.582864" lon="8.108709">
        <ele>308.161612</ele>
        <time>2022-01-07T18:20:03.019Z</time>
      </trkpt>
      <trkpt lat="47.582663" lon="8.108397">
        <ele>307.813287</ele>
        <time>2022-01-07T18:20:08.547Z</time>
      </trkpt>
      <trkpt lat="47.581778" lon="8.107126">
        <ele>306.836412</ele>
        <time>2022-01-07T18:20:34.773Z</time>
      </trkpt>
      <trkpt lat="47.581422" lon="8.106635">
        <ele>306.824133</ele>
        <time>2022-01-07T18:20:46.301Z</time>
      </trkpt>
      <trkpt lat="47.581015" lon="8.105965">
        <ele>306.808774</ele>
        <time>2022-01-07T18:20:59.865Z</time>
      </trkpt>
      <trkpt lat="47.580667" lon="8.105519">
        <ele>306.747889</ele>
        <time>2022-01-07T18:21:09.837Z</time>
      </trkpt>
      <trkpt lat="47.580610" lon="8.105447">
        <ele>306.725591</ele>
        <time>2022-01-07T18:21:11.364Z</time>
      </trkpt>
      <trkpt lat="47.579609" lon="8.104304">
        <ele>306.349353</ele>
        <time>2022-01-07T18:21:37.650Z</time>
      </trkpt>
      <trkpt lat="47.578724" lon="8.103411">
        <ele>306.282943</ele>
        <time>2022-01-07T18:22:00.670Z</time>
      </trkpt>
      <trkpt lat="47.578708" lon="8.103462">
        <ele>306.283749</ele>
        <time>2022-01-07T18:22:01.508Z</time>
      </trkpt>
      <trkpt lat="47.577683" lon="8.102486">
        <ele>306.475437</ele>
        <time>2022-01-07T18:22:29.728Z</time>
      </trkpt>
      <trkpt lat="47.576218" lon="8.100768">
        <ele>307.787433</ele>
        <time>2022-01-07T18:23:17.188Z</time>
      </trkpt>
      <trkpt lat="47.576013" lon="8.100551">
        <ele>307.981856</ele>
        <time>2022-01-07T18:23:23.689Z</time>
      </trkpt>
      <trkpt lat="47.575369" lon="8.100216">
        <ele>308.508624</ele>
        <time>2022-01-07T18:23:40.995Z</time>
      </trkpt>
      <trkpt lat="47.575097" lon="8.100142">
        <ele>308.722065</ele>
        <time>2022-01-07T18:23:47.988Z</time>
      </trkpt>
      <trkpt lat="47.574935" lon="8.100096">
        <ele>308.849372</ele>
        <time>2022-01-07T18:23:52.170Z</time>
      </trkpt>
      <trkpt lat="47.574162" lon="8.099817">
        <ele>309.378334</ele>
        <time>2022-01-07T18:24:11.836Z</time>
      </trkpt>
      <trkpt lat="47.573629" lon="8.099543">
        <ele>309.744269</ele>
        <time>2022-01-07T18:24:25.954Z</time>
      </trkpt>
      <trkpt lat="47.572640" lon="8.098942">
        <ele>310.379429</ele>
        <time>2022-01-07T18:24:52.291Z</time>
      </trkpt>
      <trkpt lat="47.572281" lon="8.098632">
        <ele>310.602909</ele>
        <time>2022-01-07T18:25:02.288Z</time>
      </trkpt>
      <trkpt lat="47.572027" lon="8.098686">
        <ele>310.740929</ele>
        <time>2022-01-07T18:25:08.468Z</time>
      </trkpt>
      <trkpt lat="47.571693" lon="8.098627">
        <ele>310.921854</ele>
        <time>2022-01-07T18:25:16.872Z</time>
      </trkpt>
      <trkpt lat="47.571201" lon="8.098650">
        <ele>311.085543</ele>
        <time>2022-01-07T18:25:29.510Z</time>
      </trkpt>
      <trkpt lat="47.570751" lon="8.098488">
        <ele>311.128666</ele>
        <time>2022-01-07T18:25:40.642Z</time>
      </trkpt>
      <trkpt lat="47.570401" lon="8.098130">
        <ele>311.168267</ele>
        <time>2022-01-07T18:25:50.454Z</time>
      </trkpt>
      <trkpt lat="47.570112" lon="8.097781">
        <ele>311.202981</ele>
        <time>2022-01-07T18:25:59.028Z</time>
      </trkpt>
      <trkpt lat="47.569951" lon="8.097605">
        <ele>311.221610</ele>
        <time>2022-01-07T18:26:03.527Z</time>
      </trkpt>
      <trkpt lat="47.569851" lon="8.097494">
        <ele>311.225339</ele>
        <time>2022-01-07T18:26:06.415Z</time>
      </trkpt>
      <trkpt lat="47.569511" lon="8.097117">
        <ele>311.037023</ele>
        <time>2022-01-07T18:26:15.961Z</time>
      </trkpt>
      <trkpt lat="47.569007" lon="8.096408">
        <ele>310.728849</ele>
        <time>2022-01-07T18:26:30.722Z</time>
      </trkpt>
      <trkpt lat="47.567914" lon="8.094262">
        <ele>309.991366</ele>
        <time>2022-01-07T18:27:09.373Z</time>
      </trkpt>
      <trkpt lat="47.567669" lon="8.093912">
        <ele>309.860307</ele>
        <time>2022-01-07T18:27:17.106Z</time>
      </trkpt>
      <trkpt lat="47.567273" lon="8.093521">
        <ele>309.699629</ele>
        <time>2022-01-07T18:27:27.839Z</time>
      </trkpt>
      <trkpt lat="47.567180" lon="8.093460">
        <ele>309.674197</ele>
        <time>2022-01-07T18:27:30.111Z</time>
      </trkpt>
      <trkpt lat="47.567183" lon="8.093326">
        <ele>309.651576</ele>
        <time>2022-01-07T18:27:32.256Z</time>
      </trkpt>
      <trkpt lat="47.566924" lon="8.092578">
        <ele>309.509725</ele>
        <time>2022-01-07T18:27:44.988Z</time>
      </trkpt>
      <trkpt lat="47.566679" lon="8.091877">
        <ele>309.376525</ele>
        <time>2022-01-07T18:27:57.020Z</time>
      </trkpt>
      <trkpt lat="47.566573" lon="8.091581">
        <ele>309.319985</ele>
        <time>2022-01-07T18:28:01.965Z</time>
      </trkpt>
      <trkpt lat="47.565868" lon="8.089778">
        <ele>308.588749</ele>
        <time>2022-01-07T18:28:31.756Z</time>
      </trkpt>
      <trkpt lat="47.565588" lon="8.088914">
        <ele>308.273757</ele>
        <time>2022-01-07T18:28:45.502Z</time>
      </trkpt>
      <trkpt lat="47.565560" lon="8.087565">
        <ele>308.015394</ele>
        <time>2022-01-07T18:29:05.303Z</time>
      </trkpt>
      <trkpt lat="47.565468" lon="8.085998">
        <ele>307.872308</ele>
        <time>2022-01-07T18:29:29.571Z</time>
      </trkpt>
      <trkpt lat="47.565440" lon="8.085670">
        <ele>307.921188</ele>
        <time>2022-01-07T18:29:34.878Z</time>
      </trkpt>
      <trkpt lat="47.565404" lon="8.085242">
        <ele>307.984956</ele>
        <time>2022-01-07T18:29:41.869Z</time>
      </trkpt>
      <trkpt lat="47.565248" lon="8.084549">
        <ele>308.092965</ele>
        <time>2022-01-07T18:29:53.828Z</time>
      </trkpt>
      <trkpt lat="47.565256" lon="8.084219">
        <ele>308.141786</ele>
        <time>2022-01-07T18:29:59.158Z</time>
      </trkpt>
      <trkpt lat="47.565146" lon="8.083418">
        <ele>308.308703</ele>
        <time>2022-01-07T18:30:12.422Z</time>
      </trkpt>
      <trkpt lat="47.564675" lon="8.082844">
        <ele>308.536882</ele>
        <time>2022-01-07T18:30:27.094Z</time>
      </trkpt>
      <trkpt lat="47.564480" lon="8.082476">
        <ele>308.655025</ele>
        <time>2022-01-07T18:30:34.651Z</time>
      </trkpt>
      <trkpt lat="47.564413" lon="8.082292">
        <ele>308.707816</ele>
        <time>2022-01-07T18:30:37.999Z</time>
      </trkpt>
      <trkpt lat="47.564346" lon="8.081687">
        <ele>308.862616</ele>
        <time>2022-01-07T18:30:47.671Z</time>
      </trkpt>
      <trkpt lat="47.564180" lon="8.081083">
        <ele>308.879464</ele>
        <time>2022-01-07T18:30:57.721Z</time>
      </trkpt>
      <trkpt lat="47.564133" lon="8.080456">
        <ele>308.888484</ele>
        <time>2022-01-07T18:31:07.290Z</time>
      </trkpt>
      <trkpt lat="47.563772" lon="8.079727">
        <ele>308.901413</ele>
        <time>2022-01-07T18:31:20.754Z</time>
      </trkpt>
      <trkpt lat="47.563526" lon="8.079457">
        <ele>308.907900</ele>
        <time>2022-01-07T18:31:27.473Z</time>
      </trkpt>
      <trkpt lat="47.563775" lon="8.079031">
        <ele>308.770869</ele>
        <time>2022-01-07T18:31:35.736Z</time>
      </trkpt>
      <trkpt lat="47.563747" lon="8.078999">
        <ele>308.756634</ele>
        <time>2022-01-07T18:31:36.442Z</time>
      </trkpt>
      <trkpt lat="47.563789" lon="8.078624">
        <ele>308.653370</ele>
        <time>2022-01-07T18:31:42.009Z</time>
      </trkpt>
      <trkpt lat="47.563744" lon="8.078310">
        <ele>308.566167</ele>
        <time>2022-01-07T18:31:46.537Z</time>
      </trkpt>
      <trkpt lat="47.563899" lon="8.077660">
        <ele>308.378890</ele>
        <time>2022-01-07T18:31:56.191Z</time>
      </trkpt>
      <trkpt lat="47.563846" lon="8.077156">
        <ele>308.240323</ele>
        <time>2022-01-07T18:32:03.198Z</time>
      </trkpt>
      <trkpt lat="47.563656" lon="8.076540">
        <ele>307.812829</ele>
        <time>2022-01-07T18:32:12.150Z</time>
      </trkpt>
      <trkpt lat="47.563248" lon="8.075170">
        <ele>306.633699</ele>
        <time>2022-01-07T18:32:31.321Z</time>
      </trkpt>
      <trkpt lat="47.563181" lon="8.075110">
        <ele>306.542350</ele>
        <time>2022-01-07T18:32:32.786Z</time>
      </trkpt>
      <trkpt lat="47.563066" lon="8.075123">
        <ele>306.407766</ele>
        <time>2022-01-07T18:32:34.902Z</time>
      </trkpt>
      <trkpt lat="47.563062" lon="8.074998">
        <ele>306.309229</ele>
        <time>2022-01-07T18:32:36.462Z</time>
      </trkpt>
      <trkpt lat="47.563178" lon="8.074866">
        <ele>306.138567</ele>
        <time>2022-01-07T18:32:39.190Z</time>
      </trkpt>
      <trkpt lat="47.563245" lon="8.074789">
        <ele>306.029974</ele>
        <time>2022-01-07T18:32:40.734Z</time>
      </trkpt>
      <trkpt lat="47.563524" lon="8.074359">
        <ele>305.461881</ele>
        <time>2022-01-07T18:32:50.776Z</time>
      </trkpt>
      <trkpt lat="47.564379" lon="8.073089">
        <ele>303.753442</ele>
        <time>2022-01-07T18:33:21.271Z</time>
      </trkpt>
      <trkpt lat="47.564723" lon="8.072416">
        <ele>303.194854</ele>
        <time>2022-01-07T18:33:35.732Z</time>
      </trkpt>
      <trkpt lat="47.565110" lon="8.071238">
        <ele>302.459355</ele>
        <time>2022-01-07T18:33:58.245Z</time>
      </trkpt>
      <trkpt lat="47.565380" lon="8.069410">
        <ele>302.774580</ele>
        <time>2022-01-07T18:34:36.083Z</time>
      </trkpt>
      <trkpt lat="47.565466" lon="8.069050">
        <ele>303.016227</ele>
        <time>2022-01-07T18:34:45.792Z</time>
      </trkpt>
      <trkpt lat="47.565462" lon="8.068798">
        <ele>303.175725</ele>
        <time>2022-01-07T18:34:52.045Z</time>
      </trkpt>
      <trkpt lat="47.565525" lon="8.068401">
        <ele>303.433783</ele>
        <time>2022-01-07T18:35:01.422Z</time>
      </trkpt>
      <trkpt lat="47.565762" lon="8.068143">
        <ele>303.709547</ele>
        <time>2022-01-07T18:35:11.691Z</time>
      </trkpt>
      <trkpt lat="47.565808" lon="8.068104">
        <ele>303.784326</ele>
        <time>2022-01-07T18:35:13.071Z</time>
      </trkpt>
      <trkpt lat="47.566209" lon="8.067920">
        <ele>304.634472</ele>
        <time>2022-01-07T18:35:25.672Z</time>
      </trkpt>
      <trkpt lat="47.566255" lon="8.067913">
        <ele>304.728122</ele>
        <time>2022-01-07T18:35:27.216Z</time>
      </trkpt>
      <trkpt lat="47.566322" lon="8.067903">
        <ele>304.864499</ele>
        <time>2022-01-07T18:35:29.464Z</time>
      </trkpt>
      <trkpt lat="47.566307" lon="8.067528">
        <ele>305.377832</ele>
        <time>2022-01-07T18:35:36.717Z</time>
      </trkpt>
      <trkpt lat="47.566279" lon="8.067141">
        <ele>305.909696</ele>
        <time>2022-01-07T18:35:44.792Z</time>
      </trkpt>
      <trkpt lat="47.566220" lon="8.067001">
        <ele>306.135255</ele>
        <time>2022-01-07T18:35:48.523Z</time>
      </trkpt>
      <trkpt lat="47.566212" lon="8.066988">
        <ele>306.159298</ele>
        <time>2022-01-07T18:35:48.976Z</time>
      </trkpt>
      <trkpt lat="47.566165" lon="8.066919">
        <ele>306.293277</ele>
        <time>2022-01-07T18:35:51.483Z</time>
      </trkpt>
      <trkpt lat="47.566059" lon="8.066813">
        <ele>306.552248</ele>
        <time>2022-01-07T18:35:55.389Z</time>
      </trkpt>
      <trkpt lat="47.565961" lon="8.066765">
        <ele>306.761277</ele>
        <time>2022-01-07T18:35:59.021Z</time>
      </trkpt>
      <trkpt lat="47.565729" lon="8.066662">
        <ele>307.251758</ele>
        <time>2022-01-07T18:36:07.107Z</time>
      </trkpt>
      <trkpt lat="47.565561" lon="8.066525">
        <ele>307.571448</ele>
        <time>2022-01-07T18:36:13.619Z</time>
      </trkpt>
      <trkpt lat="47.565462" lon="8.066328">
        <ele>307.818423</ele>
        <time>2022-01-07T18:36:18.387Z</time>
      </trkpt>
      <trkpt lat="47.565410" lon="8.065319">
        <ele>308.835887</ele>
        <time>2022-01-07T18:36:36.594Z</time>
      </trkpt>
      <trkpt lat="47.565364" lon="8.064976">
        <ele>309.187507</ele>
        <time>2022-01-07T18:36:43.352Z</time>
      </trkpt>
      <trkpt lat="47.565183" lon="8.064619">
        <ele>309.636495</ele>
        <time>2022-01-07T18:36:51.841Z</time>
      </trkpt>
      <trkpt lat="47.564991" lon="8.064380">
        <ele>310.010130</ele>
        <time>2022-01-07T18:36:58.834Z</time>
      </trkpt>
      <trkpt lat="47.564785" lon="8.064145">
        <ele>309.945834</ele>
        <time>2022-01-07T18:37:06.234Z</time>
      </trkpt>
      <trkpt lat="47.564655" lon="8.064226">
        <ele>309.874354</ele>
        <time>2022-01-07T18:37:09.758Z</time>
      </trkpt>
      <trkpt lat="47.564608" lon="8.064004">
        <ele>309.794778</ele>
        <time>2022-01-07T18:37:13.694Z</time>
      </trkpt>
      <trkpt lat="47.564602" lon="8.063880">
        <ele>309.752260</ele>
        <time>2022-01-07T18:37:15.594Z</time>
      </trkpt>
      <trkpt lat="47.564601" lon="8.063840">
        <ele>309.738570</ele>
        <time>2022-01-07T18:37:16.185Z</time>
      </trkpt>
      <trkpt lat="47.564567" lon="8.063743">
        <ele>309.701185</ele>
        <time>2022-01-07T18:37:17.707Z</time>
      </trkpt>
      <trkpt lat="47.564498" lon="8.063540">
        <ele>309.623446</ele>
        <time>2022-01-07T18:37:21.029Z</time>
      </trkpt>
      <trkpt lat="47.564429" lon="8.063358">
        <ele>309.552047</ele>
        <time>2022-01-07T18:37:23.808Z</time>
      </trkpt>
      <trkpt lat="47.564346" lon="8.063093">
        <ele>309.452125</ele>
        <time>2022-01-07T18:37:27.564Z</time>
      </trkpt>
      <trkpt lat="47.564343" lon="8.063080">
        <ele>309.447426</ele>
        <time>2022-01-07T18:37:27.739Z</time>
      </trkpt>
      <trkpt lat="47.564167" lon="8.062408">
        <ele>309.200887</ele>
        <time>2022-01-07T18:37:36.747Z</time>
      </trkpt>
      <trkpt lat="47.564028" lon="8.061275">
        <ele>308.875214</ele>
        <time>2022-01-07T18:37:52.472Z</time>
      </trkpt>
      <trkpt lat="47.564023" lon="8.061134">
        <ele>308.836557</ele>
        <time>2022-01-07T18:37:54.449Z</time>
      </trkpt>
      <trkpt lat="47.564255" lon="8.060657">
        <ele>308.675572</ele>
        <time>2022-01-07T18:38:03.232Z</time>
      </trkpt>
      <trkpt lat="47.564285" lon="8.060578">
        <ele>308.650754</ele>
        <time>2022-01-07T18:38:04.563Z</time>
      </trkpt>
      <trkpt lat="47.564374" lon="8.060302">
        <ele>308.567004</ele>
        <time>2022-01-07T18:38:09.201Z</time>
      </trkpt>
      <trkpt lat="47.564460" lon="8.060008">
        <ele>308.479274</ele>
        <time>2022-01-07T18:38:14.438Z</time>
      </trkpt>
      <trkpt lat="47.564506" lon="8.059851">
        <ele>308.432413</ele>
        <time>2022-01-07T18:38:17.391Z</time>
      </trkpt>
      <trkpt lat="47.564489" lon="8.059674">
        <ele>308.512218</ele>
        <time>2022-01-07T18:38:20.485Z</time>
      </trkpt>
      <trkpt lat="47.564484" lon="8.059589">
        <ele>308.573476</ele>
        <time>2022-01-07T18:38:22.054Z</time>
      </trkpt>
      <trkpt lat="47.564450" lon="8.059358">
        <ele>308.743223</ele>
        <time>2022-01-07T18:38:26.557Z</time>
      </trkpt>
      <trkpt lat="47.564301" lon="8.059083">
        <ele>308.996433</ele>
        <time>2022-01-07T18:38:34.748Z</time>
      </trkpt>
      <trkpt lat="47.563871" lon="8.058567">
        <ele>309.585139</ele>
        <time>2022-01-07T18:38:53.928Z</time>
      </trkpt>
      <trkpt lat="47.563819" lon="8.058440">
        <ele>309.691794</ele>
        <time>2022-01-07T18:38:57.599Z</time>
      </trkpt>
      <trkpt lat="47.563757" lon="8.058285">
        <ele>309.821161</ele>
        <time>2022-01-07T18:39:02.156Z</time>
      </trkpt>
      <trkpt lat="47.563475" lon="8.058014">
        <ele>310.178775</ele>
        <time>2022-01-07T18:39:13.462Z</time>
      </trkpt>
      <trkpt lat="47.563134" lon="8.057775">
        <ele>310.410475</ele>
        <time>2022-01-07T18:39:25.459Z</time>
      </trkpt>
      <trkpt lat="47.562712" lon="8.057362">
        <ele>310.579483</ele>
        <time>2022-01-07T18:39:41.026Z</time>
      </trkpt>
      <trkpt lat="47.562515" lon="8.057022">
        <ele>310.680544</ele>
        <time>2022-01-07T18:39:48.550Z</time>
      </trkpt>
      <trkpt lat="47.562238" lon="8.056830">
        <ele>310.782741</ele>
        <time>2022-01-07T18:39:55.422Z</time>
      </trkpt>
      <trkpt lat="47.561842" lon="8.056498">
        <ele>310.933878</ele>
        <time>2022-01-07T18:40:04.968Z</time>
      </trkpt>
      <trkpt lat="47.561515" lon="8.055929">
        <ele>310.932898</ele>
        <time>2022-01-07T18:40:16.457Z</time>
      </trkpt>
      <trkpt lat="47.561262" lon="8.055257">
        <ele>310.931888</ele>
        <time>2022-01-07T18:40:27.696Z</time>
      </trkpt>
      <trkpt lat="47.561222" lon="8.054553">
        <ele>310.930961</ele>
        <time>2022-01-07T18:40:38.345Z</time>
      </trkpt>
      <trkpt lat="47.561130" lon="8.054038">
        <ele>310.936703</ele>
        <time>2022-01-07T18:40:46.391Z</time>
      </trkpt>
      <trkpt lat="47.560555" lon="8.052345">
        <ele>311.063097</ele>
        <time>2022-01-07T18:41:15.573Z</time>
      </trkpt>
      <trkpt lat="47.560522" lon="8.052253">
        <ele>311.070045</ele>
        <time>2022-01-07T18:41:17.238Z</time>
      </trkpt>
      <trkpt lat="47.560412" lon="8.051873">
        <ele>311.097619</ele>
        <time>2022-01-07T18:41:23.390Z</time>
      </trkpt>
      <trkpt lat="47.560001" lon="8.049444">
        <ele>311.020990</ele>
        <time>2022-01-07T18:42:01.446Z</time>
      </trkpt>
      <trkpt lat="47.559901" lon="8.048757">
        <ele>310.748515</ele>
        <time>2022-01-07T18:42:11.228Z</time>
      </trkpt>
      <trkpt lat="47.559874" lon="8.048078">
        <ele>310.286775</ele>
        <time>2022-01-07T18:42:20.399Z</time>
      </trkpt>
      <trkpt lat="47.559829" lon="8.047957">
        <ele>310.192985</ele>
        <time>2022-01-07T18:42:22.130Z</time>
      </trkpt>
      <trkpt lat="47.559453" lon="8.047764">
        <ele>309.792689</ele>
        <time>2022-01-07T18:42:29.754Z</time>
      </trkpt>
      <trkpt lat="47.559412" lon="8.047669">
        <ele>309.716136</ele>
        <time>2022-01-07T18:42:31.160Z</time>
      </trkpt>
      <trkpt lat="47.559170" lon="8.047446">
        <ele>309.429459</ele>
        <time>2022-01-07T18:42:36.519Z</time>
      </trkpt>
      <trkpt lat="47.558252" lon="8.046322">
        <ele>307.364285</ele>
        <time>2022-01-07T18:42:58.173Z</time>
      </trkpt>
      <trkpt lat="47.557962" lon="8.045978">
        <ele>306.655884</ele>
        <time>2022-01-07T18:43:04.854Z</time>
      </trkpt>
      <trkpt lat="47.557735" lon="8.045686">
        <ele>306.082640</ele>
        <time>2022-01-07T18:43:10.014Z</time>
      </trkpt>
      <trkpt lat="47.557674" lon="8.045596">
        <ele>305.918484</ele>
        <time>2022-01-07T18:43:11.431Z</time>
      </trkpt>
      <trkpt lat="47.557597" lon="8.045470">
        <ele>305.695617</ele>
        <time>2022-01-07T18:43:13.287Z</time>
      </trkpt>
      <trkpt lat="47.557516" lon="8.045314">
        <ele>305.427446</ele>
        <time>2022-01-07T18:43:15.486Z</time>
      </trkpt>
      <trkpt lat="47.557359" lon="8.044947">
        <ele>304.835430</ele>
        <time>2022-01-07T18:43:20.292Z</time>
      </trkpt>
      <trkpt lat="47.557314" lon="8.044812">
        <ele>304.630286</ele>
        <time>2022-01-07T18:43:22.037Z</time>
      </trkpt>
      <trkpt lat="47.556934" lon="8.044969">
        <ele>303.833848</ele>
        <time>2022-01-07T18:43:28.705Z</time>
      </trkpt>
      <trkpt lat="47.556806" lon="8.045024">
        <ele>303.564786</ele>
        <time>2022-01-07T18:43:30.990Z</time>
      </trkpt>
      <trkpt lat="47.556722" lon="8.045060">
        <ele>303.388249</ele>
        <time>2022-01-07T18:43:32.518Z</time>
      </trkpt>
      <trkpt lat="47.556217" lon="8.045213">
        <ele>302.347621</ele>
        <time>2022-01-07T18:43:42.057Z</time>
      </trkpt>
      <trkpt lat="47.556131" lon="8.045130">
        <ele>302.140417</ele>
        <time>2022-01-07T18:43:44.062Z</time>
      </trkpt>
      <trkpt lat="47.556160" lon="8.044674">
        <ele>302.194690</ele>
        <time>2022-01-07T18:43:50.118Z</time>
      </trkpt>
      <trkpt lat="47.555139" lon="8.041163">
        <ele>301.983186</ele>
        <time>2022-01-07T18:44:53.419Z</time>
      </trkpt>
      <trkpt lat="47.554683" lon="8.039551">
        <ele>300.837647</ele>
        <time>2022-01-07T18:45:14.282Z</time>
      </trkpt>
      <trkpt lat="47.554451" lon="8.038434">
        <ele>299.444811</ele>
        <time>2022-01-07T18:45:27.759Z</time>
      </trkpt>
      <trkpt lat="47.554151" lon="8.037656">
        <ele>298.464754</ele>
        <time>2022-01-07T18:45:39.218Z</time>
      </trkpt>
      <trkpt lat="47.553426" lon="8.032275">
        <ele>297.277905</ele>
        <time>2022-01-07T18:46:57.949Z</time>
      </trkpt>
      <trkpt lat="47.553217" lon="8.030153">
        <ele>297.208658</ele>
        <time>2022-01-07T18:47:29.874Z</time>
      </trkpt>
      <trkpt lat="47.553117" lon="8.028417">
        <ele>296.972935</ele>
        <time>2022-01-07T18:47:56.118Z</time>
      </trkpt>
      <trkpt lat="47.553165" lon="8.023763">
        <ele>295.557059</ele>
        <time>2022-01-07T18:49:00.671Z</time>
      </trkpt>
      <trkpt lat="47.552816" lon="8.023929">
        <ele>295.342075</ele>
        <time>2022-01-07T18:49:08.034Z</time>
      </trkpt>
      <trkpt lat="47.552589" lon="8.024021">
        <ele>295.204044</ele>
        <time>2022-01-07T18:49:12.541Z</time>
      </trkpt>
      <trkpt lat="47.552400" lon="8.024382">
        <ele>295.023186</ele>
        <time>2022-01-07T18:49:18.621Z</time>
      </trkpt>
      <trkpt lat="47.552230" lon="8.024577">
        <ele>294.897090</ele>
        <time>2022-01-07T18:49:23.103Z</time>
      </trkpt>
      <trkpt lat="47.552085" lon="8.024520">
        <ele>294.816581</ele>
        <time>2022-01-07T18:49:26.124Z</time>
      </trkpt>
      <trkpt lat="47.551663" lon="8.023698">
        <ele>294.720837</ele>
        <time>2022-01-07T18:49:41.307Z</time>
      </trkpt>
      <trkpt lat="47.551611" lon="8.023479">
        <ele>294.699314</ele>
        <time>2022-01-07T18:49:44.753Z</time>
      </trkpt>
      <trkpt lat="47.551567" lon="8.023304">
        <ele>294.682002</ele>
        <time>2022-01-07T18:49:47.949Z</time>
      </trkpt>
      <trkpt lat="47.551513" lon="8.022967">
        <ele>294.649891</ele>
        <time>2022-01-07T18:49:53.038Z</time>
      </trkpt>
      <trkpt lat="47.551506" lon="8.022934">
        <ele>294.646684</ele>
        <time>2022-01-07T18:49:53.662Z</time>
      </trkpt>
      <trkpt lat="47.551274" lon="8.022434">
        <ele>294.590434</ele>
        <time>2022-01-07T18:50:02.520Z</time>
      </trkpt>
      <trkpt lat="47.551221" lon="8.022148">
        <ele>294.551624</ele>
        <time>2022-01-07T18:50:06.829Z</time>
      </trkpt>
      <trkpt lat="47.551152" lon="8.021557">
        <ele>294.425117</ele>
        <time>2022-01-07T18:50:15.289Z</time>
      </trkpt>
      <trkpt lat="47.551162" lon="8.021180">
        <ele>294.345537</ele>
        <time>2022-01-07T18:50:20.998Z</time>
      </trkpt>
      <trkpt lat="47.551380" lon="8.019869">
        <ele>294.060747</ele>
        <time>2022-01-07T18:50:40.073Z</time>
      </trkpt>
      <trkpt lat="47.551624" lon="8.018430">
        <ele>293.719511</ele>
        <time>2022-01-07T18:51:00.554Z</time>
      </trkpt>
      <trkpt lat="47.551953" lon="8.016469">
        <ele>293.291814</ele>
        <time>2022-01-07T18:51:29.765Z</time>
      </trkpt>
      <trkpt lat="47.552235" lon="8.015344">
        <ele>293.100808</ele>
        <time>2022-01-07T18:51:47.190Z</time>
      </trkpt>
      <trkpt lat="47.552498" lon="8.014545">
        <ele>292.959618</ele>
        <time>2022-01-07T18:52:00.106Z</time>
      </trkpt>
      <trkpt lat="47.553253" lon="8.012813">
        <ele>292.659813</ele>
        <time>2022-01-07T18:52:29.140Z</time>
      </trkpt>
      <trkpt lat="47.553510" lon="8.012231">
        <ele>292.601483</ele>
        <time>2022-01-07T18:52:39.574Z</time>
      </trkpt>
      <trkpt lat="47.554182" lon="8.010869">
        <ele>292.990130</ele>
        <time>2022-01-07T18:53:06.171Z</time>
      </trkpt>
      <trkpt lat="47.554581" lon="8.010252">
        <ele>293.186974</ele>
        <time>2022-01-07T18:53:19.924Z</time>
      </trkpt>
      <trkpt lat="47.554712" lon="8.010162">
        <ele>293.267333</ele>
        <time>2022-01-07T18:53:24.115Z</time>
      </trkpt>
      <trkpt lat="47.554816" lon="8.010225">
        <ele>293.330983</ele>
        <time>2022-01-07T18:53:27.099Z</time>
      </trkpt>
      <trkpt lat="47.554953" lon="8.010661">
        <ele>293.514860</ele>
        <time>2022-01-07T18:53:35.716Z</time>
      </trkpt>
      <trkpt lat="47.555069" lon="8.010772">
        <ele>293.593087</ele>
        <time>2022-01-07T18:53:38.634Z</time>
      </trkpt>
      <trkpt lat="47.555492" lon="8.008854">
        <ele>294.369624</ele>
        <time>2022-01-07T18:54:11.358Z</time>
      </trkpt>
      <trkpt lat="47.555827" lon="8.007493">
        <ele>294.941468</ele>
        <time>2022-01-07T18:54:35.747Z</time>
      </trkpt>
      <trkpt lat="47.556414" lon="8.004608">
        <ele>296.066256</ele>
        <time>2022-01-07T18:55:25.294Z</time>
      </trkpt>
      <trkpt lat="47.556859" lon="8.003033">
        <ele>296.463181</ele>
        <time>2022-01-07T18:55:53.850Z</time>
      </trkpt>
      <trkpt lat="47.557552" lon="7.999488">
        <ele>296.400470</ele>
        <time>2022-01-07T18:56:48.640Z</time>
      </trkpt>
      <trkpt lat="47.557569" lon="7.999330">
        <ele>296.377756</ele>
        <time>2022-01-07T18:56:50.784Z</time>
      </trkpt>
      <trkpt lat="47.557590" lon="7.999121">
        <ele>296.347759</ele>
        <time>2022-01-07T18:56:55.685Z</time>
      </trkpt>
      <trkpt lat="47.557595" lon="7.999065">
        <ele>296.331469</ele>
        <time>2022-01-07T18:56:56.436Z</time>
      </trkpt>
      <trkpt lat="47.557666" lon="7.996934">
        <ele>295.542887</ele>
        <time>2022-01-07T18:57:25.180Z</time>
      </trkpt>
      <trkpt lat="47.557377" lon="7.991413">
        <ele>294.464279</ele>
        <time>2022-01-07T18:58:45.050Z</time>
      </trkpt>
      <trkpt lat="47.557298" lon="7.990679">
        <ele>294.328466</ele>
        <time>2022-01-07T18:58:55.463Z</time>
      </trkpt>
      <trkpt lat="47.556669" lon="7.978159">
        <ele>291.747369</ele>
        <time>2022-01-07T19:01:55.781Z</time>
      </trkpt>
      <trkpt lat="47.556770" lon="7.976421">
        <ele>290.714655</ele>
        <time>2022-01-07T19:02:18.154Z</time>
      </trkpt>
      <trkpt lat="47.557109" lon="7.974186">
        <ele>289.695213</ele>
        <time>2022-01-07T19:02:48.046Z</time>
      </trkpt>
      <trkpt lat="47.557323" lon="7.972992">
        <ele>289.455511</ele>
        <time>2022-01-07T19:03:06.623Z</time>
      </trkpt>
      <trkpt lat="47.557419" lon="7.972637">
        <ele>289.383774</ele>
        <time>2022-01-07T19:03:12.718Z</time>
      </trkpt>
      <trkpt lat="47.557756" lon="7.971140">
        <ele>289.712102</ele>
        <time>2022-01-07T19:03:38.935Z</time>
      </trkpt>
      <trkpt lat="47.558045" lon="7.969704">
        <ele>289.919352</ele>
        <time>2022-01-07T19:04:01.697Z</time>
      </trkpt>
      <trkpt lat="47.558313" lon="7.968259">
        <ele>289.855955</ele>
        <time>2022-01-07T19:04:23.546Z</time>
      </trkpt>
      <trkpt lat="47.558448" lon="7.967701">
        <ele>289.830878</ele>
        <time>2022-01-07T19:04:32.201Z</time>
      </trkpt>
      <trkpt lat="47.558606" lon="7.966985">
        <ele>289.916251</ele>
        <time>2022-01-07T19:04:43.815Z</time>
      </trkpt>
      <trkpt lat="47.558732" lon="7.966356">
        <ele>290.017381</ele>
        <time>2022-01-07T19:04:54.114Z</time>
      </trkpt>
      <trkpt lat="47.559029" lon="7.964894">
        <ele>290.209278</ele>
        <time>2022-01-07T19:05:18.667Z</time>
      </trkpt>
      <trkpt lat="47.559290" lon="7.963411">
        <ele>289.863993</ele>
        <time>2022-01-07T19:05:41.074Z</time>
      </trkpt>
      <trkpt lat="47.559390" lon="7.962415">
        <ele>289.637132</ele>
        <time>2022-01-07T19:05:54.537Z</time>
      </trkpt>
      <trkpt lat="47.559406" lon="7.960731">
        <ele>288.891587</ele>
        <time>2022-01-07T19:06:16.563Z</time>
      </trkpt>
      <trkpt lat="47.559324" lon="7.959601">
        <ele>288.483598</ele>
        <time>2022-01-07T19:06:32.742Z</time>
      </trkpt>
      <trkpt lat="47.559224" lon="7.958738">
        <ele>288.683118</ele>
        <time>2022-01-07T19:06:46.188Z</time>
      </trkpt>
      <trkpt lat="47.559067" lon="7.957869">
        <ele>288.888101</ele>
        <time>2022-01-07T19:07:00.675Z</time>
      </trkpt>
      <trkpt lat="47.558659" lon="7.956055">
        <ele>289.308249</ele>
        <time>2022-01-07T19:07:33.319Z</time>
      </trkpt>
      <trkpt lat="47.558360" lon="7.955074">
        <ele>289.539173</ele>
        <time>2022-01-07T19:07:49.785Z</time>
      </trkpt>
      <trkpt lat="47.558197" lon="7.954577">
        <ele>289.590807</ele>
        <time>2022-01-07T19:07:57.925Z</time>
      </trkpt>
      <trkpt lat="47.558161" lon="7.954466">
        <ele>289.553708</ele>
        <time>2022-01-07T19:07:59.745Z</time>
      </trkpt>
      <trkpt lat="47.558107" lon="7.954411">
        <ele>289.524457</ele>
        <time>2022-01-07T19:08:01.152Z</time>
      </trkpt>
      <trkpt lat="47.557900" lon="7.954581">
        <ele>289.418810</ele>
        <time>2022-01-07T19:08:06.177Z</time>
      </trkpt>
      <trkpt lat="47.557763" lon="7.954480">
        <ele>289.350503</ele>
        <time>2022-01-07T19:08:09.404Z</time>
      </trkpt>
      <trkpt lat="47.557517" lon="7.954117">
        <ele>289.195527</ele>
        <time>2022-01-07T19:08:16.567Z</time>
      </trkpt>
      <trkpt lat="47.556400" lon="7.952468">
        <ele>288.579547</ele>
        <time>2022-01-07T19:08:48.093Z</time>
      </trkpt>
      <trkpt lat="47.556386" lon="7.952449">
        <ele>288.573293</ele>
        <time>2022-01-07T19:08:48.488Z</time>
      </trkpt>
      <trkpt lat="47.555474" lon="7.951144">
        <ele>288.419740</ele>
        <time>2022-01-07T19:09:16.062Z</time>
      </trkpt>
      <trkpt lat="47.555176" lon="7.950829">
        <ele>288.703128</ele>
        <time>2022-01-07T19:09:24.975Z</time>
      </trkpt>
      <trkpt lat="47.554648" lon="7.950448">
        <ele>289.157780</ele>
        <time>2022-01-07T19:09:40.294Z</time>
      </trkpt>
      <trkpt lat="47.554536" lon="7.950370">
        <ele>289.253586</ele>
        <time>2022-01-07T19:09:43.660Z</time>
      </trkpt>
      <trkpt lat="47.554311" lon="7.950308">
        <ele>289.430760</ele>
        <time>2022-01-07T19:09:50.119Z</time>
      </trkpt>
      <trkpt lat="47.554178" lon="7.950284">
        <ele>289.534484</ele>
        <time>2022-01-07T19:09:53.928Z</time>
      </trkpt>
      <trkpt lat="47.553918" lon="7.950362">
        <ele>289.737396</ele>
        <time>2022-01-07T19:10:01.430Z</time>
      </trkpt>
      <trkpt lat="47.553702" lon="7.949849">
        <ele>290.046446</ele>
        <time>2022-01-07T19:10:12.931Z</time>
      </trkpt>
      <trkpt lat="47.553591" lon="7.949501">
        <ele>290.243181</ele>
        <time>2022-01-07T19:10:20.134Z</time>
      </trkpt>
      <trkpt lat="47.553488" lon="7.949175">
        <ele>290.427163</ele>
        <time>2022-01-07T19:10:26.739Z</time>
      </trkpt>
      <trkpt lat="47.553243" lon="7.948595">
        <ele>290.776895</ele>
        <time>2022-01-07T19:10:38.622Z</time>
      </trkpt>
      <trkpt lat="47.553198" lon="7.948543">
        <ele>290.820114</ele>
        <time>2022-01-07T19:10:39.969Z</time>
      </trkpt>
      <trkpt lat="47.552931" lon="7.948808">
        <ele>290.970846</ele>
        <time>2022-01-07T19:10:47.452Z</time>
      </trkpt>
      <trkpt lat="47.552518" lon="7.949236">
        <ele>290.877183</ele>
        <time>2022-01-07T19:10:57.973Z</time>
      </trkpt>
      <trkpt lat="47.552382" lon="7.949119">
        <ele>290.847957</ele>
        <time>2022-01-07T19:11:01.330Z</time>
      </trkpt>
      <trkpt lat="47.552094" lon="7.948926">
        <ele>290.789215</ele>
        <time>2022-01-07T19:11:07.939Z</time>
      </trkpt>
      <trkpt lat="47.552003" lon="7.949043">
        <ele>290.766824</ele>
        <time>2022-01-07T19:11:10.556Z</time>
      </trkpt>
      <trkpt lat="47.551586" lon="7.949820">
        <ele>290.749525</ele>
        <time>2022-01-07T19:11:25.718Z</time>
      </trkpt>
      <trkpt lat="47.551525" lon="7.950028">
        <ele>290.964499</ele>
        <time>2022-01-07T19:11:29.269Z</time>
      </trkpt>
      <trkpt lat="47.551339" lon="7.952761">
        <ele>293.746251</ele>
        <time>2022-01-07T19:12:50.677Z</time>
      </trkpt>
      <trkpt lat="47.551334" lon="7.952777">
        <ele>293.770645</ele>
        <time>2022-01-07T19:12:51.131Z</time>
      </trkpt>
      <trkpt lat="47.551296" lon="7.952900">
        <ele>293.957795</ele>
        <time>2022-01-07T19:12:54.504Z</time>
      </trkpt>
      <trkpt lat="47.551254" lon="7.952986">
        <ele>294.104657</ele>
        <time>2022-01-07T19:12:56.987Z</time>
      </trkpt>
      <trkpt lat="47.551101" lon="7.953047">
        <ele>294.429439</ele>
        <time>2022-01-07T19:13:02.015Z</time>
      </trkpt>
      <trkpt lat="47.550657" lon="7.953072">
        <ele>295.340225</ele>
        <time>2022-01-07T19:13:16.852Z</time>
      </trkpt>
      <trkpt lat="47.549673" lon="7.953076">
        <ele>297.108706</ele>
        <time>2022-01-07T19:13:47.039Z</time>
      </trkpt>
      <trkpt lat="47.549442" lon="7.953195">
        <ele>297.355394</ele>
        <time>2022-01-07T19:13:53.816Z</time>
      </trkpt>
      <trkpt lat="47.548335" lon="7.953779">
        <ele>298.540680</ele>
        <time>2022-01-07T19:14:25.002Z</time>
      </trkpt>
      <trkpt lat="47.548251" lon="7.953895">
        <ele>298.656508</ele>
        <time>2022-01-07T19:14:27.878Z</time>
      </trkpt>
      <trkpt lat="47.547871" lon="7.953437">
        <ele>298.887670</ele>
        <time>2022-01-07T19:14:39.458Z</time>
      </trkpt>
      <trkpt lat="47.547797" lon="7.953356">
        <ele>298.928384</ele>
        <time>2022-01-07T19:14:41.612Z</time>
      </trkpt>
      <trkpt lat="47.547624" lon="7.953160">
        <ele>299.024757</ele>
        <time>2022-01-07T19:14:46.750Z</time>
      </trkpt>
      <trkpt lat="47.547550" lon="7.953078">
        <ele>299.065649</ele>
        <time>2022-01-07T19:14:48.948Z</time>
      </trkpt>
      <trkpt lat="47.547458" lon="7.952975">
        <ele>299.116677</ele>
        <time>2022-01-07T19:14:51.706Z</time>
      </trkpt>
      <trkpt lat="47.547400" lon="7.952910">
        <ele>299.148858</ele>
        <time>2022-01-07T19:14:53.460Z</time>
      </trkpt>
      <trkpt lat="47.547090" lon="7.952543">
        <ele>299.324455</ele>
        <time>2022-01-07T19:15:02.870Z</time>
      </trkpt>
      <trkpt lat="47.546776" lon="7.952185">
        <ele>299.485146</ele>
        <time>2022-01-07T19:15:12.378Z</time>
      </trkpt>
      <trkpt lat="47.546695" lon="7.952091">
        <ele>299.499984</ele>
        <time>2022-01-07T19:15:14.909Z</time>
      </trkpt>
      <trkpt lat="47.546634" lon="7.952024">
        <ele>299.510935</ele>
        <time>2022-01-07T19:15:16.833Z</time>
      </trkpt>
      <trkpt lat="47.546421" lon="7.951793">
        <ele>299.549002</ele>
        <time>2022-01-07T19:15:23.322Z</time>
      </trkpt>
      <trkpt lat="47.546212" lon="7.951535">
        <ele>299.588235</ele>
        <time>2022-01-07T19:15:29.934Z</time>
      </trkpt>
      <trkpt lat="47.545886" lon="7.951110">
        <ele>299.650858</ele>
        <time>2022-01-07T19:15:39.874Z</time>
      </trkpt>
      <trkpt lat="47.545759" lon="7.950983">
        <ele>299.672955</ele>
        <time>2022-01-07T19:15:43.357Z</time>
      </trkpt>
      <trkpt lat="47.545567" lon="7.950765">
        <ele>299.707840</ele>
        <time>2022-01-07T19:15:48.474Z</time>
      </trkpt>
      <trkpt lat="47.545434" lon="7.950668">
        <ele>299.729219</ele>
        <time>2022-01-07T19:15:51.700Z</time>
      </trkpt>
      <trkpt lat="47.545166" lon="7.950366">
        <ele>299.610268</ele>
        <time>2022-01-07T19:15:58.487Z</time>
      </trkpt>
      <trkpt lat="47.544521" lon="7.949558">
        <ele>299.226058</ele>
        <time>2022-01-07T19:16:14.873Z</time>
      </trkpt>
      <trkpt lat="47.544239" lon="7.949202">
        <ele>299.057533</ele>
        <time>2022-01-07T19:16:22.456Z</time>
      </trkpt>
      <trkpt lat="47.543760" lon="7.948549">
        <ele>299.466207</ele>
        <time>2022-01-07T19:16:37.338Z</time>
      </trkpt>
      <trkpt lat="47.543579" lon="7.948287">
        <ele>299.864899</ele>
        <time>2022-01-07T19:16:44.240Z</time>
      </trkpt>
      <trkpt lat="47.543532" lon="7.948214">
        <ele>299.972185</ele>
        <time>2022-01-07T19:16:46.080Z</time>
      </trkpt>
      <trkpt lat="47.543436" lon="7.948000">
        <ele>300.245448</ele>
        <time>2022-01-07T19:16:51.097Z</time>
      </trkpt>
      <trkpt lat="47.543142" lon="7.947250">
        <ele>301.167813</ele>
        <time>2022-01-07T19:17:08.768Z</time>
      </trkpt>
      <trkpt lat="47.543086" lon="7.947052">
        <ele>301.396123</ele>
        <time>2022-01-07T19:17:13.559Z</time>
      </trkpt>
      <trkpt lat="47.543056" lon="7.946935">
        <ele>301.529228</ele>
        <time>2022-01-07T19:17:16.327Z</time>
      </trkpt>
      <trkpt lat="47.542974" lon="7.946495">
        <ele>302.124496</ele>
        <time>2022-01-07T19:17:26.816Z</time>
      </trkpt>
      <trkpt lat="47.542913" lon="7.945267">
        <ele>303.983721</ele>
        <time>2022-01-07T19:17:55.604Z</time>
      </trkpt>
      <trkpt lat="47.543161" lon="7.942214">
        <ele>306.632730</ele>
        <time>2022-01-07T19:18:52.970Z</time>
      </trkpt>
      <trkpt lat="47.543237" lon="7.941782">
        <ele>306.835251</ele>
        <time>2022-01-07T19:18:59.188Z</time>
      </trkpt>
      <trkpt lat="47.543435" lon="7.940670">
        <ele>306.109832</ele>
        <time>2022-01-07T19:19:14.081Z</time>
      </trkpt>
      <trkpt lat="47.543826" lon="7.939433">
        <ele>304.651519</ele>
        <time>2022-01-07T19:19:30.421Z</time>
      </trkpt>
      <trkpt lat="47.544705" lon="7.937395">
        <ele>301.632249</ele>
        <time>2022-01-07T19:19:59.161Z</time>
      </trkpt>
      <trkpt lat="47.545074" lon="7.936484">
        <ele>300.390651</ele>
        <time>2022-01-07T19:20:12.023Z</time>
      </trkpt>
      <trkpt lat="47.545457" lon="7.935110">
        <ele>299.050628</ele>
        <time>2022-01-07T19:20:30.109Z</time>
      </trkpt>
      <trkpt lat="47.545702" lon="7.933290">
        <ele>298.686483</ele>
        <time>2022-01-07T19:20:55.490Z</time>
      </trkpt>
      <trkpt lat="47.545696" lon="7.931497">
        <ele>299.500399</ele>
        <time>2022-01-07T19:21:27.756Z</time>
      </trkpt>
      <trkpt lat="47.545584" lon="7.929957">
        <ele>301.381797</ele>
        <time>2022-01-07T19:22:01.508Z</time>
      </trkpt>
      <trkpt lat="47.545475" lon="7.928419">
        <ele>302.119443</ele>
        <time>2022-01-07T19:22:30.657Z</time>
      </trkpt>
      <trkpt lat="47.545421" lon="7.927686">
        <ele>301.550477</ele>
        <time>2022-01-07T19:22:40.517Z</time>
      </trkpt>
      <trkpt lat="47.545409" lon="7.926773">
        <ele>300.845843</ele>
        <time>2022-01-07T19:22:51.466Z</time>
      </trkpt>
      <trkpt lat="47.545417" lon="7.925848">
        <ele>299.268292</ele>
        <time>2022-01-07T19:23:01.580Z</time>
      </trkpt>
      <trkpt lat="47.545482" lon="7.924396">
        <ele>295.555423</ele>
        <time>2022-01-07T19:23:16.728Z</time>
      </trkpt>
      <trkpt lat="47.545536" lon="7.923407">
        <ele>293.378848</ele>
        <time>2022-01-07T19:23:27.345Z</time>
      </trkpt>
      <trkpt lat="47.545587" lon="7.922895">
        <ele>292.743854</ele>
        <time>2022-01-07T19:23:33.281Z</time>
      </trkpt>
      <trkpt lat="47.545699" lon="7.922325">
        <ele>292.015474</ele>
        <time>2022-01-07T19:23:40.380Z</time>
      </trkpt>
      <trkpt lat="47.545810" lon="7.921755">
        <ele>291.287602</ele>
        <time>2022-01-07T19:23:47.907Z</time>
      </trkpt>
      <trkpt lat="47.545913" lon="7.920765">
        <ele>290.395607</ele>
        <time>2022-01-07T19:24:01.285Z</time>
      </trkpt>
      <trkpt lat="47.546128" lon="7.919617">
        <ele>290.230876</ele>
        <time>2022-01-07T19:24:19.338Z</time>
      </trkpt>
      <trkpt lat="47.546568" lon="7.917768">
        <ele>290.137893</ele>
        <time>2022-01-07T19:24:48.217Z</time>
      </trkpt>
      <trkpt lat="47.547033" lon="7.916218">
        <ele>290.282489</ele>
        <time>2022-01-07T19:25:11.996Z</time>
      </trkpt>
      <trkpt lat="47.547091" lon="7.916039">
        <ele>290.371761</ele>
        <time>2022-01-07T19:25:15.370Z</time>
      </trkpt>
      <trkpt lat="47.547423" lon="7.915081">
        <ele>293.364623</ele>
        <time>2022-01-07T19:25:40.201Z</time>
      </trkpt>
      <trkpt lat="47.547057" lon="7.914734">
        <ele>295.153746</ele>
        <time>2022-01-07T19:25:59.915Z</time>
      </trkpt>
      <trkpt lat="47.546695" lon="7.914336">
        <ele>297.009837</ele>
        <time>2022-01-07T19:26:20.468Z</time>
      </trkpt>
      <trkpt lat="47.546432" lon="7.914049">
        <ele>298.443669</ele>
        <time>2022-01-07T19:26:35.243Z</time>
      </trkpt>
      <trkpt lat="47.546064" lon="7.913662">
        <ele>300.555201</ele>
        <time>2022-01-07T19:26:56.947Z</time>
      </trkpt>
      <trkpt lat="47.546526" lon="7.912513">
        <ele>304.779052</ele>
        <time>2022-01-07T19:27:35.106Z</time>
      </trkpt>
      <trkpt lat="47.547256" lon="7.911209">
        <ele>306.962743</ele>
        <time>2022-01-07T19:28:09.458Z</time>
      </trkpt>
      <trkpt lat="47.547648" lon="7.910267">
        <ele>307.698369</ele>
        <time>2022-01-07T19:28:26.128Z</time>
      </trkpt>
      <trkpt lat="47.547859" lon="7.909845">
        <ele>307.723988</ele>
        <time>2022-01-07T19:28:33.667Z</time>
      </trkpt>
      <trkpt lat="47.548222" lon="7.909154">
        <ele>307.111350</ele>
        <time>2022-01-07T19:28:45.978Z</time>
      </trkpt>
      <trkpt lat="47.548814" lon="7.908292">
        <ele>306.250938</ele>
        <time>2022-01-07T19:29:01.939Z</time>
      </trkpt>
      <trkpt lat="47.549519" lon="7.906378">
        <ele>305.094685</ele>
        <time>2022-01-07T19:29:31.270Z</time>
      </trkpt>
      <trkpt lat="47.549674" lon="7.905336">
        <ele>304.897866</ele>
        <time>2022-01-07T19:29:47.906Z</time>
      </trkpt>
      <trkpt lat="47.549867" lon="7.905155">
        <ele>305.167296</ele>
        <time>2022-01-07T19:29:53.384Z</time>
      </trkpt>
      <trkpt lat="47.549868" lon="7.905010">
        <ele>305.282743</ele>
        <time>2022-01-07T19:29:56.043Z</time>
      </trkpt>
      <trkpt lat="47.550025" lon="7.904774">
        <ele>305.546558</ele>
        <time>2022-01-07T19:30:01.728Z</time>
      </trkpt>
      <trkpt lat="47.550302" lon="7.904164">
        <ele>306.131886</ele>
        <time>2022-01-07T19:30:15.779Z</time>
      </trkpt>
      <trkpt lat="47.550498" lon="7.903445">
        <ele>306.749233</ele>
        <time>2022-01-07T19:30:31.586Z</time>
      </trkpt>
      <trkpt lat="47.550688" lon="7.902451">
        <ele>309.275830</ele>
        <time>2022-01-07T19:30:55.591Z</time>
      </trkpt>
      <trkpt lat="47.550769" lon="7.901362">
        <ele>312.105170</ele>
        <time>2022-01-07T19:31:24.899Z</time>
      </trkpt>
      <trkpt lat="47.550801" lon="7.900244">
        <ele>315.251889</ele>
        <time>2022-01-07T19:31:58.106Z</time>
      </trkpt>
      <trkpt lat="47.550820" lon="7.898109">
        <ele>321.855115</ele>
        <time>2022-01-07T19:32:58.302Z</time>
      </trkpt>
      <trkpt lat="47.550639" lon="7.896346">
        <ele>323.955832</ele>
        <time>2022-01-07T19:33:34.954Z</time>
      </trkpt>
      <trkpt lat="47.550759" lon="7.895908">
        <ele>324.499266</ele>
        <time>2022-01-07T19:33:42.373Z</time>
      </trkpt>
      <trkpt lat="47.550878" lon="7.895158">
        <ele>325.258795</ele>
        <time>2022-01-07T19:33:53.326Z</time>
      </trkpt>
      <trkpt lat="47.550892" lon="7.893176">
        <ele>326.791894</ele>
        <time>2022-01-07T19:34:26.347Z</time>
      </trkpt>
      <trkpt lat="47.550904" lon="7.891725">
        <ele>330.698157</ele>
        <time>2022-01-07T19:35:03.580Z</time>
      </trkpt>
      <trkpt lat="47.550916" lon="7.890600">
        <ele>334.406180</ele>
        <time>2022-01-07T19:35:37.891Z</time>
      </trkpt>
      <trkpt lat="47.550834" lon="7.889069">
        <ele>340.358373</ele>
        <time>2022-01-07T19:36:27.148Z</time>
      </trkpt>
      <trkpt lat="47.550789" lon="7.887816">
        <ele>345.509875</ele>
        <time>2022-01-07T19:37:06.618Z</time>
      </trkpt>
      <trkpt lat="47.550677" lon="7.886476">
        <ele>350.495173</ele>
        <time>2022-01-07T19:37:47.890Z</time>
      </trkpt>
      <trkpt lat="47.550391" lon="7.885109">
        <ele>355.602772</ele>
        <time>2022-01-07T19:38:29.719Z</time>
      </trkpt>
      <trkpt lat="47.550151" lon="7.882605">
        <ele>362.649518</ele>
        <time>2022-01-07T19:39:36.145Z</time>
      </trkpt>
      <trkpt lat="47.549927" lon="7.881490">
        <ele>365.067666</ele>
        <time>2022-01-07T19:40:02.756Z</time>
      </trkpt>
      <trkpt lat="47.549726" lon="7.880787">
        <ele>366.460691</ele>
        <time>2022-01-07T19:40:20.245Z</time>
      </trkpt>
      <trkpt lat="47.549327" lon="7.879547">
        <ele>368.444925</ele>
        <time>2022-01-07T19:40:49.541Z</time>
      </trkpt>
      <trkpt lat="47.549318" lon="7.879398">
        <ele>368.462654</ele>
        <time>2022-01-07T19:40:53.066Z</time>
      </trkpt>
      <trkpt lat="47.549266" lon="7.879037">
        <ele>368.506401</ele>
        <time>2022-01-07T19:41:00.592Z</time>
      </trkpt>
      <trkpt lat="47.548798" lon="7.877156">
        <ele>368.342254</ele>
        <time>2022-01-07T19:41:28.115Z</time>
      </trkpt>
      <trkpt lat="47.548727" lon="7.877055">
        <ele>368.003876</ele>
        <time>2022-01-07T19:41:29.962Z</time>
      </trkpt>
      <trkpt lat="47.548708" lon="7.876784">
        <ele>367.371670</ele>
        <time>2022-01-07T19:41:32.965Z</time>
      </trkpt>
      <trkpt lat="47.548277" lon="7.875301">
        <ele>363.625098</ele>
        <time>2022-01-07T19:41:50.236Z</time>
      </trkpt>
      <trkpt lat="47.547717" lon="7.873338">
        <ele>356.850467</ele>
        <time>2022-01-07T19:42:12.000Z</time>
      </trkpt>
      <trkpt lat="47.547564" lon="7.872777">
        <ele>354.781191</ele>
        <time>2022-01-07T19:42:18.139Z</time>
      </trkpt>
      <trkpt lat="47.547160" lon="7.870743">
        <ele>346.728920</ele>
        <time>2022-01-07T19:42:39.340Z</time>
      </trkpt>
      <trkpt lat="47.547003" lon="7.869819">
        <ele>343.042694</ele>
        <time>2022-01-07T19:42:48.710Z</time>
      </trkpt>
      <trkpt lat="47.547016" lon="7.869159">
        <ele>341.266433</ele>
        <time>2022-01-07T19:42:55.280Z</time>
      </trkpt>
      <trkpt lat="47.546945" lon="7.868817">
        <ele>340.303866</ele>
        <time>2022-01-07T19:42:58.900Z</time>
      </trkpt>
      <trkpt lat="47.546980" lon="7.868796">
        <ele>340.153367</ele>
        <time>2022-01-07T19:42:59.476Z</time>
      </trkpt>
      <trkpt lat="47.546918" lon="7.868519">
        <ele>339.368291</ele>
        <time>2022-01-07T19:43:02.474Z</time>
      </trkpt>
      <trkpt lat="47.546782" lon="7.867657">
        <ele>336.986862</ele>
        <time>2022-01-07T19:43:12.077Z</time>
      </trkpt>
      <trkpt lat="47.546696" lon="7.867144">
        <ele>336.008053</ele>
        <time>2022-01-07T19:43:18.364Z</time>
      </trkpt>
      <trkpt lat="47.546632" lon="7.866788">
        <ele>336.296550</ele>
        <time>2022-01-07T19:43:23.317Z</time>
      </trkpt>
      <trkpt lat="47.546587" lon="7.866619">
        <ele>336.438817</ele>
        <time>2022-01-07T19:43:26.204Z</time>
      </trkpt>
      <trkpt lat="47.546327" lon="7.865959">
        <ele>337.037238</ele>
        <time>2022-01-07T19:43:40.809Z</time>
      </trkpt>
      <trkpt lat="47.546819" lon="7.865489">
        <ele>337.716403</ele>
        <time>2022-01-07T19:44:00.496Z</time>
      </trkpt>
      <trkpt lat="47.546889" lon="7.865225">
        <ele>337.938516</ele>
        <time>2022-01-07T19:44:06.886Z</time>
      </trkpt>
      <trkpt lat="47.546885" lon="7.864500">
        <ele>338.773988</ele>
        <time>2022-01-07T19:44:23.781Z</time>
      </trkpt>
      <trkpt lat="47.546823" lon="7.863974">
        <ele>339.410997</ele>
        <time>2022-01-07T19:44:35.528Z</time>
      </trkpt>
      <trkpt lat="47.546592" lon="7.863006">
        <ele>340.635861</ele>
        <time>2022-01-07T19:44:56.463Z</time>
      </trkpt>
      <trkpt lat="47.546491" lon="7.860306">
        <ele>341.319522</ele>
        <time>2022-01-07T19:45:39.665Z</time>
      </trkpt>
      <trkpt lat="47.546537" lon="7.857497">
        <ele>340.877607</ele>
        <time>2022-01-07T19:46:21.152Z</time>
      </trkpt>
      <trkpt lat="47.546618" lon="7.855763">
        <ele>340.626516</ele>
        <time>2022-01-07T19:46:47.727Z</time>
      </trkpt>
      <trkpt lat="47.546945" lon="7.851720">
        <ele>339.597519</ele>
        <time>2022-01-07T19:47:48.524Z</time>
      </trkpt>
      <trkpt lat="47.547141" lon="7.850355">
        <ele>338.366699</ele>
        <time>2022-01-07T19:48:07.031Z</time>
      </trkpt>
      <trkpt lat="47.547124" lon="7.848795">
        <ele>336.739031</ele>
        <time>2022-01-07T19:48:26.822Z</time>
      </trkpt>
      <trkpt lat="47.547237" lon="7.846106">
        <ele>333.198235</ele>
        <time>2022-01-07T19:48:59.936Z</time>
      </trkpt>
      <trkpt lat="47.547295" lon="7.844722">
        <ele>331.743282</ele>
        <time>2022-01-07T19:49:18.030Z</time>
      </trkpt>
      <trkpt lat="47.547313" lon="7.843735">
        <ele>330.684911</ele>
        <time>2022-01-07T19:49:31.294Z</time>
      </trkpt>
      <trkpt lat="47.547355" lon="7.842839">
        <ele>329.660162</ele>
        <time>2022-01-07T19:49:42.928Z</time>
      </trkpt>
      <trkpt lat="47.547448" lon="7.842262">
        <ele>328.983330</ele>
        <time>2022-01-07T19:49:50.607Z</time>
      </trkpt>
      <trkpt lat="47.547549" lon="7.842268">
        <ele>328.812468</ele>
        <time>2022-01-07T19:49:52.515Z</time>
      </trkpt>
      <trkpt lat="47.547674" lon="7.842266">
        <ele>328.601164</ele>
        <time>2022-01-07T19:49:54.876Z</time>
      </trkpt>
      <trkpt lat="47.548105" lon="7.842285">
        <ele>327.863676</ele>
        <time>2022-01-07T19:50:02.713Z</time>
      </trkpt>
      <trkpt lat="47.549582" lon="7.842702">
        <ele>324.890822</ele>
        <time>2022-01-07T19:50:29.726Z</time>
      </trkpt>
      <trkpt lat="47.550734" lon="7.842833">
        <ele>324.024688</ele>
        <time>2022-01-07T19:50:53.566Z</time>
      </trkpt>
      <trkpt lat="47.551454" lon="7.842816">
        <ele>323.747922</ele>
        <time>2022-01-07T19:51:10.664Z</time>
      </trkpt>
      <trkpt lat="47.551922" lon="7.842704">
        <ele>323.815795</ele>
        <time>2022-01-07T19:51:22.224Z</time>
      </trkpt>
      <trkpt lat="47.552380" lon="7.842592">
        <ele>324.043379</ele>
        <time>2022-01-07T19:51:33.879Z</time>
      </trkpt>
      <trkpt lat="47.552833" lon="7.842495">
        <ele>324.267782</ele>
        <time>2022-01-07T19:51:45.798Z</time>
      </trkpt>
      <trkpt lat="47.553133" lon="7.842431">
        <ele>324.416382</ele>
        <time>2022-01-07T19:51:53.574Z</time>
      </trkpt>
      <trkpt lat="47.553449" lon="7.842365">
        <ele>324.543718</ele>
        <time>2022-01-07T19:52:01.671Z</time>
      </trkpt>
      <trkpt lat="47.554289" lon="7.842424">
        <ele>324.176094</ele>
        <time>2022-01-07T19:52:21.322Z</time>
      </trkpt>
      <trkpt lat="47.554783" lon="7.842488">
        <ele>323.959315</ele>
        <time>2022-01-07T19:52:31.757Z</time>
      </trkpt>
      <trkpt lat="47.555123" lon="7.842678">
        <ele>323.800463</ele>
        <time>2022-01-07T19:52:38.415Z</time>
      </trkpt>
      <trkpt lat="47.555642" lon="7.843487">
        <ele>321.706660</ele>
        <time>2022-01-07T19:52:51.304Z</time>
      </trkpt>
      <trkpt lat="47.555933" lon="7.843754">
        <ele>320.676990</ele>
        <time>2022-01-07T19:52:56.825Z</time>
      </trkpt>
      <trkpt lat="47.556084" lon="7.843775">
        <ele>320.220733</ele>
        <time>2022-01-07T19:52:59.140Z</time>
      </trkpt>
      <trkpt lat="47.556133" lon="7.843776">
        <ele>320.073310</ele>
        <time>2022-01-07T19:53:00.000Z</time>
      </trkpt>
      <trkpt lat="47.556372" lon="7.843758">
        <ele>319.353388</ele>
        <time>2022-01-07T19:53:03.794Z</time>
      </trkpt>
      <trkpt lat="47.556914" lon="7.843392">
        <ele>317.644247</ele>
        <time>2022-01-07T19:53:13.434Z</time>
      </trkpt>
      <trkpt lat="47.557087" lon="7.843406">
        <ele>317.177006</ele>
        <time>2022-01-07T19:53:16.020Z</time>
      </trkpt>
      <trkpt lat="47.557208" lon="7.843154">
        <ele>316.614140</ele>
        <time>2022-01-07T19:53:19.515Z</time>
      </trkpt>
      <trkpt lat="47.557481" lon="7.842900">
        <ele>315.744821</ele>
        <time>2022-01-07T19:53:24.845Z</time>
      </trkpt>
      <trkpt lat="47.557551" lon="7.842810">
        <ele>315.494892</ele>
        <time>2022-01-07T19:53:26.319Z</time>
      </trkpt>
      <trkpt lat="47.558197" lon="7.842240">
        <ele>313.482020</ele>
        <time>2022-01-07T19:53:39.898Z</time>
      </trkpt>
      <trkpt lat="47.558490" lon="7.841946">
        <ele>312.859432</ele>
        <time>2022-01-07T19:53:46.414Z</time>
      </trkpt>
      <trkpt lat="47.558786" lon="7.841479">
        <ele>312.098719</ele>
        <time>2022-01-07T19:53:54.080Z</time>
      </trkpt>
      <trkpt lat="47.558866" lon="7.841362">
        <ele>311.900955</ele>
        <time>2022-01-07T19:53:56.135Z</time>
      </trkpt>
      <trkpt lat="47.559056" lon="7.841071">
        <ele>311.420193</ele>
        <time>2022-01-07T19:54:00.917Z</time>
      </trkpt>
      <trkpt lat="47.559088" lon="7.840873">
        <ele>311.178454</ele>
        <time>2022-01-07T19:54:03.557Z</time>
      </trkpt>
      <trkpt lat="47.559389" lon="7.840644">
        <ele>310.583141</ele>
        <time>2022-01-07T19:54:09.688Z</time>
      </trkpt>
      <trkpt lat="47.559835" lon="7.840242">
        <ele>309.569295</ele>
        <time>2022-01-07T19:54:18.921Z</time>
      </trkpt>
      <trkpt lat="47.559946" lon="7.840142">
        <ele>309.308698</ele>
        <time>2022-01-07T19:54:21.195Z</time>
      </trkpt>
      <trkpt lat="47.560181" lon="7.839898">
        <ele>308.733065</ele>
        <time>2022-01-07T19:54:26.125Z</time>
      </trkpt>
      <trkpt lat="47.560322" lon="7.839748">
        <ele>308.384865</ele>
        <time>2022-01-07T19:54:29.173Z</time>
      </trkpt>
      <trkpt lat="47.560452" lon="7.839468">
        <ele>307.924770</ele>
        <time>2022-01-07T19:54:33.000Z</time>
      </trkpt>
      <trkpt lat="47.560573" lon="7.839269">
        <ele>307.562150</ele>
        <time>2022-01-07T19:54:36.119Z</time>
      </trkpt>
      <trkpt lat="47.560740" lon="7.839093">
        <ele>307.151051</ele>
        <time>2022-01-07T19:54:39.749Z</time>
      </trkpt>
      <trkpt lat="47.560947" lon="7.838937">
        <ele>306.702538</ele>
        <time>2022-01-07T19:54:43.924Z</time>
      </trkpt>
      <trkpt lat="47.561033" lon="7.838873">
        <ele>306.574422</ele>
        <time>2022-01-07T19:54:45.694Z</time>
      </trkpt>
      <trkpt lat="47.561114" lon="7.838812">
        <ele>306.453463</ele>
        <time>2022-01-07T19:54:47.364Z</time>
      </trkpt>
      <trkpt lat="47.561611" lon="7.838440">
        <ele>305.712210</ele>
        <time>2022-01-07T19:54:57.808Z</time>
      </trkpt>
      <trkpt lat="47.561925" lon="7.838205">
        <ele>305.243905</ele>
        <time>2022-01-07T19:55:04.285Z</time>
      </trkpt>
      <trkpt lat="47.562129" lon="7.838050">
        <ele>304.938709</ele>
        <time>2022-01-07T19:55:08.524Z</time>
      </trkpt>
      <trkpt lat="47.562173" lon="7.838016">
        <ele>304.872648</ele>
        <time>2022-01-07T19:55:09.449Z</time>
      </trkpt>
      <trkpt lat="47.562271" lon="7.837716">
        <ele>304.573229</ele>
        <time>2022-01-07T19:55:13.654Z</time>
      </trkpt>
      <trkpt lat="47.562444" lon="7.836601">
        <ele>304.005689</ele>
        <time>2022-01-07T19:55:28.951Z</time>
      </trkpt>
      <trkpt lat="47.562458" lon="7.836344">
        <ele>303.907848</ele>
        <time>2022-01-07T19:55:32.450Z</time>
      </trkpt>
      <trkpt lat="47.562376" lon="7.835937">
        <ele>303.746665</ele>
        <time>2022-01-07T19:55:38.253Z</time>
      </trkpt>
      <trkpt lat="47.562265" lon="7.835520">
        <ele>303.576557</ele>
        <time>2022-01-07T19:55:44.484Z</time>
      </trkpt>
      <trkpt lat="47.562185" lon="7.835448">
        <ele>303.523921</ele>
        <time>2022-01-07T19:55:46.605Z</time>
      </trkpt>
      <trkpt lat="47.561750" lon="7.834510">
        <ele>303.216657</ele>
        <time>2022-01-07T19:56:04.236Z</time>
      </trkpt>
      <trkpt lat="47.561735" lon="7.834461">
        <ele>303.206896</ele>
        <time>2022-01-07T19:56:05.082Z</time>
      </trkpt>
      <trkpt lat="47.561418" lon="7.833298">
        <ele>302.979365</ele>
        <time>2022-01-07T19:56:24.262Z</time>
      </trkpt>
      <trkpt lat="47.561391" lon="7.833218">
        <ele>302.963139</ele>
        <time>2022-01-07T19:56:25.596Z</time>
      </trkpt>
      <trkpt lat="47.561365" lon="7.833117">
        <ele>302.943529</ele>
        <time>2022-01-07T19:56:27.157Z</time>
      </trkpt>
      <trkpt lat="47.561263" lon="7.832705">
        <ele>302.863920</ele>
        <time>2022-01-07T19:56:33.422Z</time>
      </trkpt>
      <trkpt lat="47.561206" lon="7.832225">
        <ele>302.762145</ele>
        <time>2022-01-07T19:56:40.269Z</time>
      </trkpt>
      <trkpt lat="47.561101" lon="7.831780">
        <ele>302.660706</ele>
        <time>2022-01-07T19:56:46.904Z</time>
      </trkpt>
      <trkpt lat="47.560860" lon="7.830710">
        <ele>302.417977</ele>
        <time>2022-01-07T19:57:03.063Z</time>
      </trkpt>
      <trkpt lat="47.560831" lon="7.830045">
        <ele>302.274585</ele>
        <time>2022-01-07T19:57:12.792Z</time>
      </trkpt>
      <trkpt lat="47.560158" lon="7.827457">
        <ele>304.721184</ele>
        <time>2022-01-07T19:58:07.937Z</time>
      </trkpt>
      <trkpt lat="47.560116" lon="7.827024">
        <ele>304.965433</ele>
        <time>2022-01-07T19:58:16.764Z</time>
      </trkpt>
      <trkpt lat="47.560102" lon="7.826892">
        <ele>305.040039</ele>
        <time>2022-01-07T19:58:19.461Z</time>
      </trkpt>
      <trkpt lat="47.560040" lon="7.826644">
        <ele>305.187706</ele>
        <time>2022-01-07T19:58:24.900Z</time>
      </trkpt>
      <trkpt lat="47.560018" lon="7.826576">
        <ele>305.229812</ele>
        <time>2022-01-07T19:58:26.448Z</time>
      </trkpt>
      <trkpt lat="47.559897" lon="7.826334">
        <ele>305.397980</ele>
        <time>2022-01-07T19:58:32.293Z</time>
      </trkpt>
      <trkpt lat="47.559747" lon="7.826181">
        <ele>305.548650</ele>
        <time>2022-01-07T19:58:37.595Z</time>
      </trkpt>
      <trkpt lat="47.559502" lon="7.826845">
        <ele>305.971196</ele>
        <time>2022-01-07T19:58:50.281Z</time>
      </trkpt>
      <trkpt lat="47.560000" lon="7.826743">
        <ele>306.182141</ele>
        <time>2022-01-07T19:59:02.765Z</time>
      </trkpt>
      <trkpt lat="47.560417" lon="7.826611">
        <ele>306.228387</ele>
        <time>2022-01-07T19:59:12.156Z</time>
      </trkpt>
      <trkpt lat="47.560696" lon="7.826541">
        <ele>306.259077</ele>
        <time>2022-01-07T19:59:17.580Z</time>
      </trkpt>
      <trkpt lat="47.561103" lon="7.826562">
        <ele>306.303245</ele>
        <time>2022-01-07T19:59:26.684Z</time>
      </trkpt>
      <trkpt lat="47.561121" lon="7.826323">
        <ele>306.320845</ele>
        <time>2022-01-07T19:59:30.934Z</time>
      </trkpt>
      <trkpt lat="47.561101" lon="7.826072">
        <ele>306.339342</ele>
        <time>2022-01-07T19:59:38.260Z</time>
      </trkpt>
      <trkpt lat="47.561320" lon="7.826027">
        <ele>306.541352</ele>
        <time>2022-01-07T19:59:47.459Z</time>
      </trkpt>
      <trkpt lat="47.562167" lon="7.825951">
        <ele>307.595140</ele>
        <time>2022-01-07T20:00:25.304Z</time>
      </trkpt>
      <trkpt lat="47.562566" lon="7.825923">
        <ele>308.091201</ele>
        <time>2022-01-07T20:00:42.944Z</time>
      </trkpt>
      <trkpt lat="47.563474" lon="7.825836">
        <ele>308.772512</ele>
        <time>2022-01-07T20:01:17.320Z</time>
      </trkpt>
      <trkpt lat="47.563823" lon="7.825802">
        <ele>308.902943</ele>
        <time>2022-01-07T20:01:30.693Z</time>
      </trkpt>
      <trkpt lat="47.564096" lon="7.825557">
        <ele>309.021962</ele>
        <time>2022-01-07T20:01:43.352Z</time>
      </trkpt>
      <trkpt lat="47.564528" lon="7.824704">
        <ele>309.307867</ele>
        <time>2022-01-07T20:02:10.771Z</time>
      </trkpt>
      <trkpt lat="47.564621" lon="7.824630">
        <ele>309.364647</ele>
        <time>2022-01-07T20:02:13.277Z</time>
      </trkpt>
      <trkpt lat="47.564552" lon="7.823574">
        <ele>309.749726</ele>
        <time>2022-01-07T20:02:30.657Z</time>
      </trkpt>
      <trkpt lat="47.565167" lon="7.823103">
        <ele>310.122102</ele>
        <time>2022-01-07T20:03:00.590Z</time>
      </trkpt>
      <trkpt lat="47.565335" lon="7.822759">
        <ele>309.994901</ele>
        <time>2022-01-07T20:03:11.744Z</time>
      </trkpt>
      <trkpt lat="47.565451" lon="7.822330">
        <ele>309.349067</ele>
        <time>2022-01-07T20:03:22.892Z</time>
      </trkpt>
      <trkpt lat="47.565532" lon="7.821270">
        <ele>307.858345</ele>
        <time>2022-01-07T20:03:45.384Z</time>
      </trkpt>
      <trkpt lat="47.565968" lon="7.821413">
        <ele>306.933537</ele>
        <time>2022-01-07T20:03:52.973Z</time>
      </trkpt>
      <trkpt lat="47.566112" lon="7.820429">
        <ele>304.331578</ele>
        <time>2022-01-07T20:04:03.562Z</time>
      </trkpt>
      <trkpt lat="47.567917" lon="7.821057">
        <ele>296.992746</ele>
        <time>2022-01-07T20:04:54.548Z</time>
      </trkpt>
      <trkpt lat="47.568030" lon="7.821147">
        <ele>296.705118</ele>
        <time>2022-01-07T20:04:58.297Z</time>
      </trkpt>
      <trkpt lat="47.568111" lon="7.821136">
        <ele>296.522745</ele>
        <time>2022-01-07T20:05:00.781Z</time>
      </trkpt>
      <trkpt lat="47.568408" lon="7.820883">
        <ele>295.754676</ele>
        <time>2022-01-07T20:05:11.664Z</time>
      </trkpt>
      <trkpt lat="47.568443" lon="7.820342">
        <ele>294.932503</ele>
        <time>2022-01-07T20:05:24.385Z</time>
      </trkpt>
      <trkpt lat="47.568417" lon="7.819773">
        <ele>294.130848</ele>
        <time>2022-01-07T20:05:38.503Z</time>
      </trkpt>
      <trkpt lat="47.568311" lon="7.819210">
        <ele>294.131927</ele>
        <time>2022-01-07T20:05:53.860Z</time>
      </trkpt>
      <trkpt lat="47.568128" lon="7.818869">
        <ele>294.132732</ele>
        <time>2022-01-07T20:06:05.928Z</time>
      </trkpt>
      <trkpt lat="47.568063" lon="7.818312">
        <ele>294.133775</ele>
        <time>2022-01-07T20:06:21.046Z</time>
      </trkpt>
      <trkpt lat="47.568146" lon="7.818228">
        <ele>294.134050</ele>
        <time>2022-01-07T20:06:24.632Z</time>
      </trkpt>
      <trkpt lat="47.568049" lon="7.817619">
        <ele>294.135206</ele>
        <time>2022-01-07T20:06:33.448Z</time>
      </trkpt>
      <trkpt lat="47.567988" lon="7.816752">
        <ele>293.357435</ele>
        <time>2022-01-07T20:06:44.937Z</time>
      </trkpt>
      <trkpt lat="47.568245" lon="7.815274">
        <ele>291.398684</ele>
        <time>2022-01-07T20:07:03.896Z</time>
      </trkpt>
      <trkpt lat="47.568480" lon="7.814364">
        <ele>289.190800</ele>
        <time>2022-01-07T20:07:14.390Z</time>
      </trkpt>
      <trkpt lat="47.568572" lon="7.814114">
        <ele>288.207544</ele>
        <time>2022-01-07T20:07:17.261Z</time>
      </trkpt>
      <trkpt lat="47.568249" lon="7.813814">
        <ele>286.256835</ele>
        <time>2022-01-07T20:07:22.864Z</time>
      </trkpt>
      <trkpt lat="47.568430" lon="7.813371">
        <ele>284.468628</ele>
        <time>2022-01-07T20:07:28.039Z</time>
      </trkpt>
      <trkpt lat="47.568525" lon="7.813167">
        <ele>283.612763</ele>
        <time>2022-01-07T20:07:30.463Z</time>
      </trkpt>
      <trkpt lat="47.568896" lon="7.812282">
        <ele>280.336664</ele>
        <time>2022-01-07T20:07:40.799Z</time>
      </trkpt>
      <trkpt lat="47.570259" lon="7.809051">
        <ele>271.797250</ele>
        <time>2022-01-07T20:08:22.108Z</time>
      </trkpt>
      <trkpt lat="47.570299" lon="7.808969">
        <ele>271.637706</ele>
        <time>2022-01-07T20:08:23.502Z</time>
      </trkpt>
      <trkpt lat="47.569198" lon="7.807861">
        <ele>269.783530</ele>
        <time>2022-01-07T20:08:50.192Z</time>
      </trkpt>
      <trkpt lat="47.568803" lon="7.807323">
        <ele>269.543199</ele>
        <time>2022-01-07T20:09:01.402Z</time>
      </trkpt>
      <trkpt lat="47.567677" lon="7.804308">
        <ele>268.920008</ele>
        <time>2022-01-07T20:09:51.048Z</time>
      </trkpt>
      <trkpt lat="47.567287" lon="7.803523">
        <ele>268.859160</ele>
        <time>2022-01-07T20:10:05.420Z</time>
      </trkpt>
      <trkpt lat="47.566532" lon="7.802465">
        <ele>268.777256</ele>
        <time>2022-01-07T20:10:28.293Z</time>
      </trkpt>
      <trkpt lat="47.566411" lon="7.802422">
        <ele>268.767447</ele>
        <time>2022-01-07T20:10:30.951Z</time>
      </trkpt>
      <trkpt lat="47.565463" lon="7.801181">
        <ele>268.882544</ele>
        <time>2022-01-07T20:11:02.430Z</time>
      </trkpt>
      <trkpt lat="47.565238" lon="7.800886">
        <ele>268.911905</ele>
        <time>2022-01-07T20:11:10.015Z</time>
      </trkpt>
      <trkpt lat="47.565137" lon="7.800808">
        <ele>268.923036</ele>
        <time>2022-01-07T20:11:12.983Z</time>
      </trkpt>
      <trkpt lat="47.564830" lon="7.800747">
        <ele>269.004181</ele>
        <time>2022-01-07T20:11:21.004Z</time>
      </trkpt>
      <trkpt lat="47.564341" lon="7.800207">
        <ele>269.282305</ele>
        <time>2022-01-07T20:11:35.574Z</time>
      </trkpt>
      <trkpt lat="47.563437" lon="7.799121">
        <ele>269.754914</ele>
        <time>2022-01-07T20:12:06.978Z</time>
      </trkpt>
      <trkpt lat="47.562609" lon="7.798160">
        <ele>269.711427</ele>
        <time>2022-01-07T20:12:33.815Z</time>
      </trkpt>
      <trkpt lat="47.560002" lon="7.795939">
        <ele>268.727458</ele>
        <time>2022-01-07T20:13:41.924Z</time>
      </trkpt>
      <trkpt lat="47.559369" lon="7.795672">
        <ele>268.866427</ele>
        <time>2022-01-07T20:14:00.231Z</time>
      </trkpt>
      <trkpt lat="47.558835" lon="7.795603">
        <ele>268.979610</ele>
        <time>2022-01-07T20:14:14.809Z</time>
      </trkpt>
      <trkpt lat="47.558765" lon="7.795512">
        <ele>269.004493</ele>
        <time>2022-01-07T20:14:17.194Z</time>
      </trkpt>
      <trkpt lat="47.558652" lon="7.795310">
        <ele>269.055674</ele>
        <time>2022-01-07T20:14:21.105Z</time>
      </trkpt>
      <trkpt lat="47.558639" lon="7.795168">
        <ele>269.083627</ele>
        <time>2022-01-07T20:14:23.461Z</time>
      </trkpt>
      <trkpt lat="47.558574" lon="7.795054">
        <ele>269.112739</ele>
        <time>2022-01-07T20:14:25.857Z</time>
      </trkpt>
      <trkpt lat="47.558309" lon="7.794678">
        <ele>269.218792</ele>
        <time>2022-01-07T20:14:34.508Z</time>
      </trkpt>
      <trkpt lat="47.558355" lon="7.794623">
        <ele>269.235877</ele>
        <time>2022-01-07T20:14:36.061Z</time>
      </trkpt>
      <trkpt lat="47.558194" lon="7.794189">
        <ele>269.332484</ele>
        <time>2022-01-07T20:14:44.185Z</time>
      </trkpt>
      <trkpt lat="47.558053" lon="7.793496">
        <ele>269.473676</ele>
        <time>2022-01-07T20:14:55.856Z</time>
      </trkpt>
      <trkpt lat="47.557742" lon="7.791800">
        <ele>269.205125</ele>
        <time>2022-01-07T20:15:20.316Z</time>
      </trkpt>
      <trkpt lat="47.557654" lon="7.790550">
        <ele>269.092585</ele>
        <time>2022-01-07T20:15:38.349Z</time>
      </trkpt>
      <trkpt lat="47.557594" lon="7.790260">
        <ele>269.234596</ele>
        <time>2022-01-07T20:15:42.790Z</time>
      </trkpt>
      <trkpt lat="47.557403" lon="7.789513">
        <ele>269.608594</ele>
        <time>2022-01-07T20:15:54.729Z</time>
      </trkpt>
      <trkpt lat="47.556987" lon="7.788736">
        <ele>270.072956</ele>
        <time>2022-01-07T20:16:12.022Z</time>
      </trkpt>
      <trkpt lat="47.556947" lon="7.787908">
        <ele>271.074856</ele>
        <time>2022-01-07T20:16:29.394Z</time>
      </trkpt>
      <trkpt lat="47.556658" lon="7.787468">
        <ele>272.204439</ele>
        <time>2022-01-07T20:16:43.024Z</time>
      </trkpt>
      <trkpt lat="47.556783" lon="7.787207">
        <ele>272.793237</ele>
        <time>2022-01-07T20:16:50.410Z</time>
      </trkpt>
      <trkpt lat="47.556917" lon="7.786943">
        <ele>273.400967</ele>
        <time>2022-01-07T20:16:58.055Z</time>
      </trkpt>
      <trkpt lat="47.557020" lon="7.786803">
        <ele>273.781993</ele>
        <time>2022-01-07T20:17:02.900Z</time>
      </trkpt>
      <trkpt lat="47.557118" lon="7.786638">
        <ele>274.186367</ele>
        <time>2022-01-07T20:17:08.038Z</time>
      </trkpt>
      <trkpt lat="47.557180" lon="7.786638">
        <ele>274.355385</ele>
        <time>2022-01-07T20:17:10.209Z</time>
      </trkpt>
      <trkpt lat="47.557490" lon="7.786586">
        <ele>275.194578</ele>
        <time>2022-01-07T20:17:21.117Z</time>
      </trkpt>
      <trkpt lat="47.557562" lon="7.786575">
        <ele>275.347607</ele>
        <time>2022-01-07T20:17:23.694Z</time>
      </trkpt>
      <trkpt lat="47.557824" lon="7.786486">
        <ele>275.915895</ele>
        <time>2022-01-07T20:17:33.021Z</time>
      </trkpt>
      <trkpt lat="47.557901" lon="7.786428">
        <ele>276.098513</ele>
        <time>2022-01-07T20:17:36.056Z</time>
      </trkpt>
      <trkpt lat="47.558006" lon="7.786349">
        <ele>276.347479</ele>
        <time>2022-01-07T20:17:40.131Z</time>
      </trkpt>
      <trkpt lat="47.558166" lon="7.786166">
        <ele>276.774793</ele>
        <time>2022-01-07T20:17:46.879Z</time>
      </trkpt>
      <trkpt lat="47.558577" lon="7.785598">
        <ele>277.962975</ele>
        <time>2022-01-07T20:18:04.007Z</time>
      </trkpt>
      <trkpt lat="47.558660" lon="7.785434">
        <ele>278.255450</ele>
        <time>2022-01-07T20:18:07.762Z</time>
      </trkpt>
      <trkpt lat="47.558747" lon="7.785215">
        <ele>278.618023</ele>
        <time>2022-01-07T20:18:12.411Z</time>
      </trkpt>
      <trkpt lat="47.558782" lon="7.785128">
        <ele>278.762531</ele>
        <time>2022-01-07T20:18:14.077Z</time>
      </trkpt>
      <trkpt lat="47.558920" lon="7.784817">
        <ele>278.965888</ele>
        <time>2022-01-07T20:18:20.393Z</time>
      </trkpt>
      <trkpt lat="47.558986" lon="7.784674">
        <ele>278.971530</ele>
        <time>2022-01-07T20:18:23.097Z</time>
      </trkpt>
      <trkpt lat="47.558900" lon="7.784465">
        <ele>278.979501</ele>
        <time>2022-01-07T20:18:26.890Z</time>
      </trkpt>
      <trkpt lat="47.558878" lon="7.784352">
        <ele>278.983331</ele>
        <time>2022-01-07T20:18:28.745Z</time>
      </trkpt>
      <trkpt lat="47.558835" lon="7.784082">
        <ele>278.992364</ele>
        <time>2022-01-07T20:18:32.762Z</time>
      </trkpt>
      <trkpt lat="47.558788" lon="7.783783">
        <ele>279.002361</ele>
        <time>2022-01-07T20:18:37.453Z</time>
      </trkpt>
      <trkpt lat="47.558609" lon="7.782690">
        <ele>279.038986</ele>
        <time>2022-01-07T20:18:53.640Z</time>
      </trkpt>
      <trkpt lat="47.558538" lon="7.782086">
        <ele>278.877460</ele>
        <time>2022-01-07T20:19:02.408Z</time>
      </trkpt>
      <trkpt lat="47.558529" lon="7.781999">
        <ele>278.842969</ele>
        <time>2022-01-07T20:19:03.642Z</time>
      </trkpt>
      <trkpt lat="47.558488" lon="7.781576">
        <ele>278.675509</ele>
        <time>2022-01-07T20:19:09.484Z</time>
      </trkpt>
      <trkpt lat="47.558475" lon="7.781460">
        <ele>278.629430</ele>
        <time>2022-01-07T20:19:11.032Z</time>
      </trkpt>
      <trkpt lat="47.558415" lon="7.780958">
        <ele>278.429651</ele>
        <time>2022-01-07T20:19:17.778Z</time>
      </trkpt>
      <trkpt lat="47.558406" lon="7.780884">
        <ele>278.400185</ele>
        <time>2022-01-07T20:19:18.802Z</time>
      </trkpt>
      <trkpt lat="47.558365" lon="7.780533">
        <ele>278.260594</ele>
        <time>2022-01-07T20:19:23.589Z</time>
      </trkpt>
      <trkpt lat="47.558090" lon="7.777904">
        <ele>277.119360</ele>
        <time>2022-01-07T20:20:01.990Z</time>
      </trkpt>
      <trkpt lat="47.557796" lon="7.775255">
        <ele>275.401303</ele>
        <time>2022-01-07T20:20:38.673Z</time>
      </trkpt>
      <trkpt lat="47.557718" lon="7.774680">
        <ele>274.987328</ele>
        <time>2022-01-07T20:20:46.470Z</time>
      </trkpt>
      <trkpt lat="47.557497" lon="7.773518">
        <ele>274.374739</ele>
        <time>2022-01-07T20:21:02.486Z</time>
      </trkpt>
      <trkpt lat="47.556998" lon="7.771574">
        <ele>273.750747</ele>
        <time>2022-01-07T20:21:32.705Z</time>
      </trkpt>
      <trkpt lat="47.556970" lon="7.771489">
        <ele>273.772915</ele>
        <time>2022-01-07T20:21:34.344Z</time>
      </trkpt>
      <trkpt lat="47.556644" lon="7.770245">
        <ele>274.085676</ele>
        <time>2022-01-07T20:21:56.641Z</time>
      </trkpt>
      <trkpt lat="47.556588" lon="7.770024">
        <ele>274.141001</ele>
        <time>2022-01-07T20:22:00.781Z</time>
      </trkpt>
      <trkpt lat="47.556325" lon="7.769016">
        <ele>274.669819</ele>
        <time>2022-01-07T20:22:20.663Z</time>
      </trkpt>
      <trkpt lat="47.556181" lon="7.768445">
        <ele>275.075133</ele>
        <time>2022-01-07T20:22:32.200Z</time>
      </trkpt>
      <trkpt lat="47.555779" lon="7.766907">
        <ele>276.113015</ele>
        <time>2022-01-07T20:23:02.346Z</time>
      </trkpt>
      <trkpt lat="47.555705" lon="7.766564">
        <ele>276.261847</ele>
        <time>2022-01-07T20:23:08.784Z</time>
      </trkpt>
      <trkpt lat="47.555683" lon="7.766459">
        <ele>276.307288</ele>
        <time>2022-01-07T20:23:10.692Z</time>
      </trkpt>
      <trkpt lat="47.555631" lon="7.766213">
        <ele>276.413832</ele>
        <time>2022-01-07T20:23:15.096Z</time>
      </trkpt>
      <trkpt lat="47.555496" lon="7.765461">
        <ele>276.735448</ele>
        <time>2022-01-07T20:23:27.836Z</time>
      </trkpt>
      <trkpt lat="47.555426" lon="7.764999">
        <ele>276.931150</ele>
        <time>2022-01-07T20:23:35.752Z</time>
      </trkpt>
      <trkpt lat="47.555256" lon="7.763536">
        <ele>277.150037</ele>
        <time>2022-01-07T20:23:59.163Z</time>
      </trkpt>
      <trkpt lat="47.555215" lon="7.763047">
        <ele>277.165341</ele>
        <time>2022-01-07T20:24:06.564Z</time>
      </trkpt>
      <trkpt lat="47.555178" lon="7.762514">
        <ele>277.181982</ele>
        <time>2022-01-07T20:24:14.566Z</time>
      </trkpt>
      <trkpt lat="47.555151" lon="7.762144">
        <ele>277.193540</ele>
        <time>2022-01-07T20:24:20.047Z</time>
      </trkpt>
      <trkpt lat="47.555137" lon="7.761951">
        <ele>277.199569</ele>
        <time>2022-01-07T20:24:22.889Z</time>
      </trkpt>
      <trkpt lat="47.555025" lon="7.760185">
        <ele>276.604550</ele>
        <time>2022-01-07T20:24:47.725Z</time>
      </trkpt>
      <trkpt lat="47.555058" lon="7.757801">
        <ele>275.469186</ele>
        <time>2022-01-07T20:25:19.633Z</time>
      </trkpt>
      <trkpt lat="47.555070" lon="7.757022">
        <ele>275.032155</ele>
        <time>2022-01-07T20:25:29.907Z</time>
      </trkpt>
      <trkpt lat="47.555067" lon="7.756625">
        <ele>274.809476</ele>
        <time>2022-01-07T20:25:35.122Z</time>
      </trkpt>
      <trkpt lat="47.554914" lon="7.755680">
        <ele>274.335145</ele>
        <time>2022-01-07T20:25:47.951Z</time>
      </trkpt>
      <trkpt lat="47.554452" lon="7.754585">
        <ele>273.708193</ele>
        <time>2022-01-07T20:26:05.403Z</time>
      </trkpt>
      <trkpt lat="47.554176" lon="7.753799">
        <ele>273.429153</ele>
        <time>2022-01-07T20:26:17.629Z</time>
      </trkpt>
      <trkpt lat="47.554075" lon="7.752001">
        <ele>273.158322</ele>
        <time>2022-01-07T20:26:43.708Z</time>
      </trkpt>
      <trkpt lat="47.554302" lon="7.750411">
        <ele>273.326612</ele>
        <time>2022-01-07T20:27:08.618Z</time>
      </trkpt>
      <trkpt lat="47.554358" lon="7.749663">
        <ele>273.469010</ele>
        <time>2022-01-07T20:27:20.435Z</time>
      </trkpt>
      <trkpt lat="47.554786" lon="7.747259">
        <ele>274.355563</ele>
        <time>2022-01-07T20:28:01.611Z</time>
      </trkpt>
      <trkpt lat="47.554871" lon="7.745667">
        <ele>274.911165</ele>
        <time>2022-01-07T20:28:28.804Z</time>
      </trkpt>
      <trkpt lat="47.555092" lon="7.744936">
        <ele>275.117788</ele>
        <time>2022-01-07T20:28:41.796Z</time>
      </trkpt>
      <trkpt lat="47.555227" lon="7.744660">
        <ele>275.205717</ele>
        <time>2022-01-07T20:28:47.301Z</time>
      </trkpt>
      <trkpt lat="47.555495" lon="7.744269">
        <ele>275.349474</ele>
        <time>2022-01-07T20:28:55.971Z</time>
      </trkpt>
      <trkpt lat="47.555660" lon="7.743922">
        <ele>275.401898</ele>
        <time>2022-01-07T20:29:02.401Z</time>
      </trkpt>
      <trkpt lat="47.556093" lon="7.741619">
        <ele>275.256497</ele>
        <time>2022-01-07T20:29:36.911Z</time>
      </trkpt>
      <trkpt lat="47.556109" lon="7.741529">
        <ele>275.250836</ele>
        <time>2022-01-07T20:29:38.196Z</time>
      </trkpt>
      <trkpt lat="47.556198" lon="7.740232">
        <ele>275.644218</ele>
        <time>2022-01-07T20:29:59.433Z</time>
      </trkpt>
      <trkpt lat="47.556492" lon="7.739412">
        <ele>275.925009</ele>
        <time>2022-01-07T20:30:14.700Z</time>
      </trkpt>
      <trkpt lat="47.556427" lon="7.738558">
        <ele>276.082607</ele>
        <time>2022-01-07T20:30:29.341Z</time>
      </trkpt>
      <trkpt lat="47.556423" lon="7.738362">
        <ele>276.094609</ele>
        <time>2022-01-07T20:30:32.315Z</time>
      </trkpt>
      <trkpt lat="47.556422" lon="7.737881">
        <ele>276.124051</ele>
        <time>2022-01-07T20:30:39.847Z</time>
      </trkpt>
      <trkpt lat="47.556447" lon="7.737561">
        <ele>276.143768</ele>
        <time>2022-01-07T20:30:45.069Z</time>
      </trkpt>
      <trkpt lat="47.556486" lon="7.737232">
        <ele>276.164214</ele>
        <time>2022-01-07T20:30:49.883Z</time>
      </trkpt>
      <trkpt lat="47.556535" lon="7.736980">
        <ele>276.180266</ele>
        <time>2022-01-07T20:30:54.033Z</time>
      </trkpt>
      <trkpt lat="47.556578" lon="7.736762">
        <ele>276.194167</ele>
        <time>2022-01-07T20:30:57.154Z</time>
      </trkpt>
      <trkpt lat="47.556658" lon="7.736525">
        <ele>276.210387</ele>
        <time>2022-01-07T20:31:01.322Z</time>
      </trkpt>
      <trkpt lat="47.556571" lon="7.736538">
        <ele>276.218318</ele>
        <time>2022-01-07T20:31:02.980Z</time>
      </trkpt>
      <trkpt lat="47.556130" lon="7.736354">
        <ele>276.006911</ele>
        <time>2022-01-07T20:31:12.159Z</time>
      </trkpt>
      <trkpt lat="47.556016" lon="7.736313">
        <ele>275.950417</ele>
        <time>2022-01-07T20:31:14.688Z</time>
      </trkpt>
      <trkpt lat="47.555902" lon="7.736298">
        <ele>275.895301</ele>
        <time>2022-01-07T20:31:16.913Z</time>
      </trkpt>
      <trkpt lat="47.555811" lon="7.736315">
        <ele>275.851130</ele>
        <time>2022-01-07T20:31:18.666Z</time>
      </trkpt>
      <trkpt lat="47.555729" lon="7.736338">
        <ele>275.810939</ele>
        <time>2022-01-07T20:31:20.401Z</time>
      </trkpt>
      <trkpt lat="47.555681" lon="7.736351">
        <ele>275.787440</ele>
        <time>2022-01-07T20:31:21.469Z</time>
      </trkpt>
      <trkpt lat="47.555665" lon="7.736360">
        <ele>275.779198</ele>
        <time>2022-01-07T20:31:21.851Z</time>
      </trkpt>
      <trkpt lat="47.555504" lon="7.736446">
        <ele>275.696780</ele>
        <time>2022-01-07T20:31:25.171Z</time>
      </trkpt>
      <trkpt lat="47.555253" lon="7.736581">
        <ele>275.568186</ele>
        <time>2022-01-07T20:31:30.751Z</time>
      </trkpt>
      <trkpt lat="47.555111" lon="7.736678">
        <ele>275.492884</ele>
        <time>2022-01-07T20:31:33.708Z</time>
      </trkpt>
      <trkpt lat="47.554823" lon="7.736888">
        <ele>275.358734</ele>
        <time>2022-01-07T20:31:40.389Z</time>
      </trkpt>
      <trkpt lat="47.554133" lon="7.737381">
        <ele>275.482957</ele>
        <time>2022-01-07T20:31:58.813Z</time>
      </trkpt>
      <trkpt lat="47.553701" lon="7.737699">
        <ele>275.561181</ele>
        <time>2022-01-07T20:32:10.814Z</time>
      </trkpt>
      <trkpt lat="47.553314" lon="7.737984">
        <ele>275.631263</ele>
        <time>2022-01-07T20:32:21.413Z</time>
      </trkpt>
      <trkpt lat="47.552897" lon="7.736933">
        <ele>275.437313</ele>
        <time>2022-01-07T20:32:40.948Z</time>
      </trkpt>
      <trkpt lat="47.552764" lon="7.736705">
        <ele>275.379884</ele>
        <time>2022-01-07T20:32:48.165Z</time>
      </trkpt>
      <trkpt lat="47.552323" lon="7.735946">
        <ele>275.189028</ele>
        <time>2022-01-07T20:33:12.165Z</time>
      </trkpt>
      <trkpt lat="47.552113" lon="7.735191">
        <ele>274.765830</ele>
        <time>2022-01-07T20:33:30.881Z</time>
      </trkpt>
      <trkpt lat="47.551773" lon="7.734905">
        <ele>274.371387</ele>
        <time>2022-01-07T20:33:43.647Z</time>
      </trkpt>
      <trkpt lat="47.551529" lon="7.734789">
        <ele>274.112860</ele>
        <time>2022-01-07T20:33:52.156Z</time>
      </trkpt>
      <trkpt lat="47.550714" lon="7.734576">
        <ele>273.299709</ele>
        <time>2022-01-07T20:34:20.204Z</time>
      </trkpt>
      <trkpt lat="47.549689" lon="7.734524">
        <ele>272.767235</ele>
        <time>2022-01-07T20:34:56.088Z</time>
      </trkpt>
      <trkpt lat="47.549412" lon="7.734510">
        <ele>272.623338</ele>
        <time>2022-01-07T20:35:05.943Z</time>
      </trkpt>
      <trkpt lat="47.549401" lon="7.734211">
        <ele>272.518405</ele>
        <time>2022-01-07T20:35:13.078Z</time>
      </trkpt>
      <trkpt lat="47.549607" lon="7.732528">
        <ele>272.306001</ele>
        <time>2022-01-07T20:35:54.918Z</time>
      </trkpt>
      <trkpt lat="47.549793" lon="7.731580">
        <ele>272.244923</ele>
        <time>2022-01-07T20:36:19.604Z</time>
      </trkpt>
      <trkpt lat="47.549809" lon="7.731304">
        <ele>272.227784</ele>
        <time>2022-01-07T20:36:26.653Z</time>
      </trkpt>
      <trkpt lat="47.549739" lon="7.730959">
        <ele>272.238416</ele>
        <time>2022-01-07T20:36:35.751Z</time>
      </trkpt>
      <trkpt lat="47.549697" lon="7.730753">
        <ele>272.248657</ele>
        <time>2022-01-07T20:36:41.165Z</time>
      </trkpt>
      <trkpt lat="47.549876" lon="7.730523">
        <ele>272.265364</ele>
        <time>2022-01-07T20:36:46.815Z</time>
      </trkpt>
      <trkpt lat="47.549389" lon="7.730261">
        <ele>272.301897</ele>
        <time>2022-01-07T20:36:58.956Z</time>
      </trkpt>
      <trkpt lat="47.549000" lon="7.729798">
        <ele>272.337081</ele>
        <time>2022-01-07T20:37:10.706Z</time>
      </trkpt>
      <trkpt lat="47.548818" lon="7.729469">
        <ele>272.330896</ele>
        <time>2022-01-07T20:37:17.337Z</time>
      </trkpt>
      <trkpt lat="47.548441" lon="7.728484">
        <ele>272.162176</ele>
        <time>2022-01-07T20:37:34.780Z</time>
      </trkpt>
      <trkpt lat="47.547601" lon="7.726913">
        <ele>271.840275</ele>
        <time>2022-01-07T20:38:04.489Z</time>
      </trkpt>
      <trkpt lat="47.547445" lon="7.726543">
        <ele>271.758526</ele>
        <time>2022-01-07T20:38:10.926Z</time>
      </trkpt>
      <trkpt lat="47.547343" lon="7.726045">
        <ele>271.661004</ele>
        <time>2022-01-07T20:38:18.620Z</time>
      </trkpt>
      <trkpt lat="47.545792" lon="7.716515">
        <ele>270.286220</ele>
        <time>2022-01-07T20:40:47.185Z</time>
      </trkpt>
      <trkpt lat="47.545821" lon="7.715958">
        <ele>270.193528</ele>
        <time>2022-01-07T20:40:55.709Z</time>
      </trkpt>
      <trkpt lat="47.545741" lon="7.715890">
        <ele>270.170857</ele>
        <time>2022-01-07T20:40:57.647Z</time>
      </trkpt>
      <trkpt lat="47.545690" lon="7.715834">
        <ele>270.155252</ele>
        <time>2022-01-07T20:40:59.929Z</time>
      </trkpt>
      <trkpt lat="47.545656" lon="7.714174">
        <ele>269.576424</ele>
        <time>2022-01-07T20:41:40.710Z</time>
      </trkpt>
      <trkpt lat="47.545743" lon="7.712605">
        <ele>268.346019</ele>
        <time>2022-01-07T20:42:15.625Z</time>
      </trkpt>
      <trkpt lat="47.545226" lon="7.712635">
        <ele>267.722692</ele>
        <time>2022-01-07T20:42:25.357Z</time>
      </trkpt>
      <trkpt lat="47.545122" lon="7.712718">
        <ele>267.560764</ele>
        <time>2022-01-07T20:42:28.280Z</time>
      </trkpt>
      <trkpt lat="47.544934" lon="7.712768">
        <ele>267.298944</ele>
        <time>2022-01-07T20:42:31.870Z</time>
      </trkpt>
      <trkpt lat="47.544600" lon="7.712802">
        <ele>266.840034</ele>
        <time>2022-01-07T20:42:38.196Z</time>
      </trkpt>
      <trkpt lat="47.544066" lon="7.712292">
        <ele>265.969127</ele>
        <time>2022-01-07T20:42:50.167Z</time>
      </trkpt>
      <trkpt lat="47.543928" lon="7.712099">
        <ele>265.708985</ele>
        <time>2022-01-07T20:42:53.964Z</time>
      </trkpt>
      <trkpt lat="47.543666" lon="7.711301">
        <ele>265.563275</ele>
        <time>2022-01-07T20:43:06.946Z</time>
      </trkpt>
      <trkpt lat="47.543345" lon="7.710843">
        <ele>265.737584</ele>
        <time>2022-01-07T20:43:18.751Z</time>
      </trkpt>
      <trkpt lat="47.543155" lon="7.710689">
        <ele>265.822291</ele>
        <time>2022-01-07T20:43:24.423Z</time>
      </trkpt>
      <trkpt lat="47.543057" lon="7.710486">
        <ele>265.888182</ele>
        <time>2022-01-07T20:43:28.951Z</time>
      </trkpt>
      <trkpt lat="47.543077" lon="7.710090">
        <ele>265.993024</ele>
        <time>2022-01-07T20:43:36.081Z</time>
      </trkpt>
      <trkpt lat="47.543040" lon="7.709852">
        <ele>266.057505</ele>
        <time>2022-01-07T20:43:40.252Z</time>
      </trkpt>
      <trkpt lat="47.542948" lon="7.709738">
        <ele>266.104416</ele>
        <time>2022-01-07T20:43:43.291Z</time>
      </trkpt>
      <trkpt lat="47.542797" lon="7.709757">
        <ele>266.188548</ele>
        <time>2022-01-07T20:43:47.258Z</time>
      </trkpt>
      <trkpt lat="47.542954" lon="7.709500">
        <ele>266.328608</ele>
        <time>2022-01-07T20:43:52.983Z</time>
      </trkpt>
      <trkpt lat="47.543080" lon="7.709103">
        <ele>266.505874</ele>
        <time>2022-01-07T20:44:00.321Z</time>
      </trkpt>
      <trkpt lat="47.543343" lon="7.707367">
        <ele>267.217613</ele>
        <time>2022-01-07T20:44:29.909Z</time>
      </trkpt>
      <trkpt lat="47.543341" lon="7.706363">
        <ele>267.530165</ele>
        <time>2022-01-07T20:44:46.074Z</time>
      </trkpt>
      <trkpt lat="47.543192" lon="7.705107">
        <ele>267.927156</ele>
        <time>2022-01-07T20:45:07.182Z</time>
      </trkpt>
      <trkpt lat="47.543166" lon="7.704863">
        <ele>268.004055</ele>
        <time>2022-01-07T20:45:11.352Z</time>
      </trkpt>
      <trkpt lat="47.543153" lon="7.704763">
        <ele>268.027903</ele>
        <time>2022-01-07T20:45:13.018Z</time>
      </trkpt>
      <trkpt lat="47.542922" lon="7.702619">
        <ele>268.288442</ele>
        <time>2022-01-07T20:45:46.560Z</time>
      </trkpt>
      <trkpt lat="47.542792" lon="7.702555">
        <ele>268.312795</ele>
        <time>2022-01-07T20:45:49.577Z</time>
      </trkpt>
      <trkpt lat="47.542766" lon="7.702209">
        <ele>268.327985</ele>
        <time>2022-01-07T20:45:54.837Z</time>
      </trkpt>
      <trkpt lat="47.542651" lon="7.699916">
        <ele>267.984909</ele>
        <time>2022-01-07T20:46:28.154Z</time>
      </trkpt>
      <trkpt lat="47.542740" lon="7.698914">
        <ele>267.779368</ele>
        <time>2022-01-07T20:46:42.152Z</time>
      </trkpt>
      <trkpt lat="47.542902" lon="7.697537">
        <ele>267.467992</ele>
        <time>2022-01-07T20:47:01.676Z</time>
      </trkpt>
      <trkpt lat="47.542960" lon="7.696989">
        <ele>267.356555</ele>
        <time>2022-01-07T20:47:09.629Z</time>
      </trkpt>
      <trkpt lat="47.543315" lon="7.694525">
        <ele>267.745452</ele>
        <time>2022-01-07T20:47:49.763Z</time>
      </trkpt>
      <trkpt lat="47.543515" lon="7.693372">
        <ele>267.656732</ele>
        <time>2022-01-07T20:48:08.035Z</time>
      </trkpt>
      <trkpt lat="47.543627" lon="7.692460">
        <ele>267.565430</ele>
        <time>2022-01-07T20:48:21.496Z</time>
      </trkpt>
      <trkpt lat="47.543695" lon="7.691028">
        <ele>267.371685</ele>
        <time>2022-01-07T20:48:41.509Z</time>
      </trkpt>
      <trkpt lat="47.543718" lon="7.690373">
        <ele>267.262812</ele>
        <time>2022-01-07T20:48:50.478Z</time>
      </trkpt>
      <trkpt lat="47.543719" lon="7.690293">
        <ele>267.249530</ele>
        <time>2022-01-07T20:48:51.608Z</time>
      </trkpt>
      <trkpt lat="47.543747" lon="7.689674">
        <ele>267.146550</ele>
        <time>2022-01-07T20:49:00.672Z</time>
      </trkpt>
      <trkpt lat="47.543887" lon="7.688428">
        <ele>267.045738</ele>
        <time>2022-01-07T20:49:20.806Z</time>
      </trkpt>
      <trkpt lat="47.543979" lon="7.687928">
        <ele>267.036949</ele>
        <time>2022-01-07T20:49:28.583Z</time>
      </trkpt>
      <trkpt lat="47.544058" lon="7.687517">
        <ele>267.029701</ele>
        <time>2022-01-07T20:49:34.922Z</time>
      </trkpt>
      <trkpt lat="47.544128" lon="7.687068">
        <ele>267.021886</ele>
        <time>2022-01-07T20:49:41.589Z</time>
      </trkpt>
      <trkpt lat="47.544310" lon="7.686004">
        <ele>266.767079</ele>
        <time>2022-01-07T20:49:57.555Z</time>
      </trkpt>
      <trkpt lat="47.544438" lon="7.684734">
        <ele>266.213145</ele>
        <time>2022-01-07T20:50:14.713Z</time>
      </trkpt>
      <trkpt lat="47.544494" lon="7.684341">
        <ele>266.039875</ele>
        <time>2022-01-07T20:50:19.865Z</time>
      </trkpt>
      <trkpt lat="47.544559" lon="7.684001">
        <ele>265.887435</ele>
        <time>2022-01-07T20:50:24.559Z</time>
      </trkpt>
      <trkpt lat="47.544626" lon="7.683667">
        <ele>265.739103</ele>
        <time>2022-01-07T20:50:29.274Z</time>
      </trkpt>
      <trkpt lat="47.544706" lon="7.683296">
        <ele>265.573722</ele>
        <time>2022-01-07T20:50:34.599Z</time>
      </trkpt>
      <trkpt lat="47.544988" lon="7.682143">
        <ele>265.052976</ele>
        <time>2022-01-07T20:50:51.816Z</time>
      </trkpt>
      <trkpt lat="47.545006" lon="7.682078">
        <ele>265.023143</ele>
        <time>2022-01-07T20:50:52.783Z</time>
      </trkpt>
      <trkpt lat="47.545303" lon="7.680972">
        <ele>264.359779</ele>
        <time>2022-01-07T20:51:08.642Z</time>
      </trkpt>
      <trkpt lat="47.545449" lon="7.680428">
        <ele>263.927998</ele>
        <time>2022-01-07T20:51:16.301Z</time>
      </trkpt>
      <trkpt lat="47.545417" lon="7.680396">
        <ele>263.885812</ele>
        <time>2022-01-07T20:51:17.640Z</time>
      </trkpt>
      <trkpt lat="47.545897" lon="7.679077">
        <ele>262.780609</ele>
        <time>2022-01-07T20:51:36.654Z</time>
      </trkpt>
      <trkpt lat="47.546195" lon="7.677846">
        <ele>261.891560</ele>
        <time>2022-01-07T20:51:53.015Z</time>
      </trkpt>
      <trkpt lat="47.547157" lon="7.674036">
        <ele>259.833358</ele>
        <time>2022-01-07T20:52:48.028Z</time>
      </trkpt>
      <trkpt lat="47.547490" lon="7.672735">
        <ele>259.540535</ele>
        <time>2022-01-07T20:53:08.365Z</time>
      </trkpt>
      <trkpt lat="47.547947" lon="7.671147">
        <ele>259.323460</ele>
        <time>2022-01-07T20:53:32.640Z</time>
      </trkpt>
      <trkpt lat="47.548006" lon="7.671213">
        <ele>259.333753</ele>
        <time>2022-01-07T20:53:34.239Z</time>
      </trkpt>
      <trkpt lat="47.548427" lon="7.671318">
        <ele>259.393196</ele>
        <time>2022-01-07T20:53:43.664Z</time>
      </trkpt>
      <trkpt lat="47.548434" lon="7.671440">
        <ele>259.404703</ele>
        <time>2022-01-07T20:53:45.518Z</time>
      </trkpt>
      <trkpt lat="47.548525" lon="7.671556">
        <ele>259.421418</ele>
        <time>2022-01-07T20:53:48.318Z</time>
      </trkpt>
      <trkpt lat="47.548639" lon="7.671523">
        <ele>259.437591</ele>
        <time>2022-01-07T20:53:50.989Z</time>
      </trkpt>
      <trkpt lat="47.548686" lon="7.671428">
        <ele>259.448660</ele>
        <time>2022-01-07T20:53:52.780Z</time>
      </trkpt>
      <trkpt lat="47.548685" lon="7.671294">
        <ele>259.461254</ele>
        <time>2022-01-07T20:53:54.986Z</time>
      </trkpt>
      <trkpt lat="47.548627" lon="7.671191">
        <ele>259.473860</ele>
        <time>2022-01-07T20:53:57.319Z</time>
      </trkpt>
      <trkpt lat="47.549071" lon="7.670216">
        <ele>259.971174</ele>
        <time>2022-01-07T20:54:16.563Z</time>
      </trkpt>
      <trkpt lat="47.549235" lon="7.669708">
        <ele>260.391964</ele>
        <time>2022-01-07T20:54:26.921Z</time>
      </trkpt>
      <trkpt lat="47.549302" lon="7.669268">
        <ele>260.729018</ele>
        <time>2022-01-07T20:54:35.633Z</time>
      </trkpt>
      <trkpt lat="47.549326" lon="7.669106">
        <ele>260.852954</ele>
        <time>2022-01-07T20:54:38.836Z</time>
      </trkpt>
      <trkpt lat="47.549361" lon="7.668877">
        <ele>261.028406</ele>
        <time>2022-01-07T20:54:43.420Z</time>
      </trkpt>
      <trkpt lat="47.549386" lon="7.668719">
        <ele>261.149672</ele>
        <time>2022-01-07T20:54:46.584Z</time>
      </trkpt>
      <trkpt lat="47.549674" lon="7.667139">
        <ele>261.542832</ele>
        <time>2022-01-07T20:55:15.695Z</time>
      </trkpt>
      <trkpt lat="47.550626" lon="7.660796">
        <ele>261.254257</ele>
        <time>2022-01-07T20:56:48.827Z</time>
      </trkpt>
      <trkpt lat="47.550667" lon="7.660245">
        <ele>261.187427</ele>
        <time>2022-01-07T20:56:57.032Z</time>
      </trkpt>
      <trkpt lat="47.550671" lon="7.660018">
        <ele>261.176581</ele>
        <time>2022-01-07T20:57:00.467Z</time>
      </trkpt>
      <trkpt lat="47.550745" lon="7.659104">
        <ele>261.132611</ele>
        <time>2022-01-07T20:57:14.318Z</time>
      </trkpt>
      <trkpt lat="47.550853" lon="7.657854">
        <ele>261.072419</ele>
        <time>2022-01-07T20:57:33.173Z</time>
      </trkpt>
      <trkpt lat="47.550868" lon="7.657668">
        <ele>261.038556</ele>
        <time>2022-01-07T20:57:35.915Z</time>
      </trkpt>
      <trkpt lat="47.550899" lon="7.657475">
        <ele>260.990719</ele>
        <time>2022-01-07T20:57:38.784Z</time>
      </trkpt>
      <trkpt lat="47.551583" lon="7.653791">
        <ele>260.210835</ele>
        <time>2022-01-07T20:58:32.339Z</time>
      </trkpt>
      <trkpt lat="47.551870" lon="7.653156">
        <ele>260.099430</ele>
        <time>2022-01-07T20:58:43.979Z</time>
      </trkpt>
      <trkpt lat="47.552114" lon="7.652563">
        <ele>259.984293</ele>
        <time>2022-01-07T20:58:54.567Z</time>
      </trkpt>
      <trkpt lat="47.552145" lon="7.652559">
        <ele>259.975259</ele>
        <time>2022-01-07T20:58:55.274Z</time>
      </trkpt>
      <trkpt lat="47.552403" lon="7.652691">
        <ele>259.896016</ele>
        <time>2022-01-07T20:59:01.344Z</time>
      </trkpt>
      <trkpt lat="47.552842" lon="7.651517">
        <ele>259.633033</ele>
        <time>2022-01-07T20:59:21.422Z</time>
      </trkpt>
      <trkpt lat="47.553063" lon="7.650945">
        <ele>259.478342</ele>
        <time>2022-01-07T20:59:30.923Z</time>
      </trkpt>
      <trkpt lat="47.553305" lon="7.650395">
        <ele>259.086532</ele>
        <time>2022-01-07T20:59:39.966Z</time>
      </trkpt>
      <trkpt lat="47.553610" lon="7.649765">
        <ele>258.623850</ele>
        <time>2022-01-07T20:59:50.519Z</time>
      </trkpt>
      <trkpt lat="47.553918" lon="7.649185">
        <ele>258.183435</ele>
        <time>2022-01-07T21:00:00.539Z</time>
      </trkpt>
      <trkpt lat="47.554093" lon="7.648936">
        <ele>257.968905</ele>
        <time>2022-01-07T21:00:05.512Z</time>
      </trkpt>
      <trkpt lat="47.554474" lon="7.648723">
        <ele>257.597098</ele>
        <time>2022-01-07T21:00:13.937Z</time>
      </trkpt>
      <trkpt lat="47.554118" lon="7.648113">
        <ele>257.098041</ele>
        <time>2022-01-07T21:00:24.540Z</time>
      </trkpt>
      <trkpt lat="47.554475" lon="7.647537">
        <ele>256.614083</ele>
        <time>2022-01-07T21:00:34.640Z</time>
      </trkpt>
      <trkpt lat="47.554232" lon="7.647030">
        <ele>256.249556</ele>
        <time>2022-01-07T21:00:42.866Z</time>
      </trkpt>
      <trkpt lat="47.554196" lon="7.646719">
        <ele>256.137759</ele>
        <time>2022-01-07T21:00:46.957Z</time>
      </trkpt>
      <trkpt lat="47.554427" lon="7.646195">
        <ele>255.916007</ele>
        <time>2022-01-07T21:00:56.486Z</time>
      </trkpt>
      <trkpt lat="47.554596" lon="7.645896">
        <ele>255.777827</ele>
        <time>2022-01-07T21:01:02.309Z</time>
      </trkpt>
      <trkpt lat="47.554660" lon="7.645539">
        <ele>255.646956</ele>
        <time>2022-01-07T21:01:08.110Z</time>
      </trkpt>
      <trkpt lat="47.554739" lon="7.645386">
        <ele>255.578703</ele>
        <time>2022-01-07T21:01:10.944Z</time>
      </trkpt>
      <trkpt lat="47.554864" lon="7.645299">
        <ele>255.506202</ele>
        <time>2022-01-07T21:01:14.347Z</time>
      </trkpt>
      <trkpt lat="47.554967" lon="7.645028">
        <ele>255.396008</ele>
        <time>2022-01-07T21:01:19.139Z</time>
      </trkpt>
      <trkpt lat="47.556478" lon="7.643802">
        <ele>256.395562</ele>
        <time>2022-01-07T21:02:04.799Z</time>
      </trkpt>
      <trkpt lat="47.557373" lon="7.642945">
        <ele>257.870422</ele>
        <time>2022-01-07T21:02:39.769Z</time>
      </trkpt>
      <trkpt lat="47.557501" lon="7.643132">
        <ele>258.148559</ele>
        <time>2022-01-07T21:02:45.754Z</time>
      </trkpt>
      <trkpt lat="47.557635" lon="7.643137">
        <ele>258.355971</ele>
        <time>2022-01-07T21:02:48.897Z</time>
      </trkpt>
      <trkpt lat="47.558243" lon="7.642690">
        <ele>259.312466</ele>
        <time>2022-01-07T21:03:07.145Z</time>
      </trkpt>
      <trkpt lat="47.558848" lon="7.641782">
        <ele>259.354372</ele>
        <time>2022-01-07T21:03:29.855Z</time>
      </trkpt>
      <trkpt lat="47.558886" lon="7.641826">
        <ele>259.356719</ele>
        <time>2022-01-07T21:03:30.707Z</time>
      </trkpt>
      <trkpt lat="47.559838" lon="7.640255">
        <ele>258.961699</ele>
        <time>2022-01-07T21:03:58.334Z</time>
      </trkpt>
      <trkpt lat="47.560246" lon="7.639588">
        <ele>258.519588</ele>
        <time>2022-01-07T21:04:10.477Z</time>
      </trkpt>
      <trkpt lat="47.560897" lon="7.638442">
        <ele>257.889050</ele>
        <time>2022-01-07T21:04:31.018Z</time>
      </trkpt>
      <trkpt lat="47.561175" lon="7.637862">
        <ele>257.660467</ele>
        <time>2022-01-07T21:04:41.524Z</time>
      </trkpt>
      <trkpt lat="47.561822" lon="7.636510">
        <ele>257.033671</ele>
        <time>2022-01-07T21:05:04.385Z</time>
      </trkpt>
      <trkpt lat="47.562010" lon="7.636013">
        <ele>256.684152</ele>
        <time>2022-01-07T21:05:11.694Z</time>
      </trkpt>
      <trkpt lat="47.562186" lon="7.635271">
        <ele>256.201675</ele>
        <time>2022-01-07T21:05:22.126Z</time>
      </trkpt>
      <trkpt lat="47.562211" lon="7.635159">
        <ele>256.129307</ele>
        <time>2022-01-07T21:05:23.645Z</time>
      </trkpt>
      <trkpt lat="47.562278" lon="7.634866">
        <ele>255.939529</ele>
        <time>2022-01-07T21:05:27.815Z</time>
      </trkpt>
      <trkpt lat="47.562290" lon="7.634813">
        <ele>255.905235</ele>
        <time>2022-01-07T21:05:28.604Z</time>
      </trkpt>
      <trkpt lat="47.562299" lon="7.634771">
        <ele>255.878203</ele>
        <time>2022-01-07T21:05:29.236Z</time>
      </trkpt>
      <trkpt lat="47.562356" lon="7.634468">
        <ele>255.685242</ele>
        <time>2022-01-07T21:05:33.299Z</time>
      </trkpt>
      <trkpt lat="47.562559" lon="7.633349">
        <ele>255.157398</ele>
        <time>2022-01-07T21:05:47.992Z</time>
      </trkpt>
      <trkpt lat="47.562626" lon="7.632913">
        <ele>254.963781</ele>
        <time>2022-01-07T21:05:53.549Z</time>
      </trkpt>
      <trkpt lat="47.562681" lon="7.632442">
        <ele>254.756811</ele>
        <time>2022-01-07T21:06:00.153Z</time>
      </trkpt>
      <trkpt lat="47.562728" lon="7.631823">
        <ele>254.487099</ele>
        <time>2022-01-07T21:06:10.440Z</time>
      </trkpt>
      <trkpt lat="47.562762" lon="7.631137">
        <ele>254.411512</ele>
        <time>2022-01-07T21:06:21.516Z</time>
      </trkpt>
      <trkpt lat="47.562789" lon="7.630549">
        <ele>254.380460</ele>
        <time>2022-01-07T21:06:30.170Z</time>
      </trkpt>
      <trkpt lat="47.562806" lon="7.630144">
        <ele>254.359081</ele>
        <time>2022-01-07T21:06:35.927Z</time>
      </trkpt>
      <trkpt lat="47.562839" lon="7.629381">
        <ele>254.318799</ele>
        <time>2022-01-07T21:06:47.374Z</time>
      </trkpt>
      <trkpt lat="47.562842" lon="7.629230">
        <ele>254.310839</ele>
        <time>2022-01-07T21:06:49.669Z</time>
      </trkpt>
      <trkpt lat="47.562775" lon="7.628180">
        <ele>253.408095</ele>
        <time>2022-01-07T21:07:04.146Z</time>
      </trkpt>
      <trkpt lat="47.562627" lon="7.627096">
        <ele>252.290317</ele>
        <time>2022-01-07T21:07:17.844Z</time>
      </trkpt>
      <trkpt lat="47.562488" lon="7.626614">
        <ele>251.760546</ele>
        <time>2022-01-07T21:07:23.912Z</time>
      </trkpt>
      <trkpt lat="47.562444" lon="7.626443">
        <ele>251.577532</ele>
        <time>2022-01-07T21:07:26.140Z</time>
      </trkpt>
      <trkpt lat="47.562286" lon="7.625834">
        <ele>250.957945</ele>
        <time>2022-01-07T21:07:34.058Z</time>
      </trkpt>
      <trkpt lat="47.562090" lon="7.625087">
        <ele>250.196841</ele>
        <time>2022-01-07T21:07:43.726Z</time>
      </trkpt>
      <trkpt lat="47.562047" lon="7.624925">
        <ele>250.031529</ele>
        <time>2022-01-07T21:07:45.836Z</time>
      </trkpt>
      <trkpt lat="47.562037" lon="7.624888">
        <ele>249.993680</ele>
        <time>2022-01-07T21:07:46.332Z</time>
      </trkpt>
      <trkpt lat="47.561870" lon="7.624275">
        <ele>249.365910</ele>
        <time>2022-01-07T21:07:54.768Z</time>
      </trkpt>
      <trkpt lat="47.561191" lon="7.621849">
        <ele>249.200692</ele>
        <time>2022-01-07T21:08:36.977Z</time>
      </trkpt>
      <trkpt lat="47.561054" lon="7.621378">
        <ele>249.254822</ele>
        <time>2022-01-07T21:08:45.626Z</time>
      </trkpt>
      <trkpt lat="47.560994" lon="7.621184">
        <ele>249.299926</ele>
        <time>2022-01-07T21:08:49.296Z</time>
      </trkpt>
      <trkpt lat="47.560364" lon="7.618844">
        <ele>249.714921</ele>
        <time>2022-01-07T21:09:31.537Z</time>
      </trkpt>
      <trkpt lat="47.560284" lon="7.618782">
        <ele>249.676772</ele>
        <time>2022-01-07T21:09:33.424Z</time>
      </trkpt>
      <trkpt lat="47.559856" lon="7.617150">
        <ele>249.177493</ele>
        <time>2022-01-07T21:09:56.837Z</time>
      </trkpt>
      <trkpt lat="47.559623" lon="7.615774">
        <ele>248.798938</ele>
        <time>2022-01-07T21:10:17.144Z</time>
      </trkpt>
      <trkpt lat="47.559616" lon="7.615638">
        <ele>248.764096</ele>
        <time>2022-01-07T21:10:19.169Z</time>
      </trkpt>
      <trkpt lat="47.559382" lon="7.614129">
        <ele>248.368577</ele>
        <time>2022-01-07T21:10:40.670Z</time>
      </trkpt>
      <trkpt lat="47.559318" lon="7.613922">
        <ele>248.335527</ele>
        <time>2022-01-07T21:10:43.962Z</time>
      </trkpt>
      <trkpt lat="47.559230" lon="7.613595">
        <ele>248.318260</ele>
        <time>2022-01-07T21:10:48.989Z</time>
      </trkpt>
      <trkpt lat="47.559219" lon="7.613558">
        <ele>248.316277</ele>
        <time>2022-01-07T21:10:49.616Z</time>
      </trkpt>
      <trkpt lat="47.559212" lon="7.613537">
        <ele>248.315128</ele>
        <time>2022-01-07T21:10:49.968Z</time>
      </trkpt>
      <trkpt lat="47.559208" lon="7.613523">
        <ele>248.314382</ele>
        <time>2022-01-07T21:10:50.214Z</time>
      </trkpt>
      <trkpt lat="47.558994" lon="7.612825">
        <ele>248.276779</ele>
        <time>2022-01-07T21:11:01.724Z</time>
      </trkpt>
      <trkpt lat="47.558955" lon="7.612748">
        <ele>248.272057</ele>
        <time>2022-01-07T21:11:03.133Z</time>
      </trkpt>
      <trkpt lat="47.558871" lon="7.612697">
        <ele>248.265459</ele>
        <time>2022-01-07T21:11:05.119Z</time>
      </trkpt>
      <trkpt lat="47.558772" lon="7.612496">
        <ele>248.253253</ele>
        <time>2022-01-07T21:11:08.801Z</time>
      </trkpt>
      <trkpt lat="47.558734" lon="7.612310">
        <ele>248.243721</ele>
        <time>2022-01-07T21:11:11.768Z</time>
      </trkpt>
      <trkpt lat="47.558718" lon="7.612173">
        <ele>248.236902</ele>
        <time>2022-01-07T21:11:13.975Z</time>
      </trkpt>
      <trkpt lat="47.558742" lon="7.611985">
        <ele>248.227517</ele>
        <time>2022-01-07T21:11:16.828Z</time>
      </trkpt>
      <trkpt lat="47.558648" lon="7.611785">
        <ele>248.215563</ele>
        <time>2022-01-07T21:11:20.631Z</time>
      </trkpt>
      <trkpt lat="47.558568" lon="7.611309">
        <ele>248.646246</ele>
        <time>2022-01-07T21:11:27.805Z</time>
      </trkpt>
      <trkpt lat="47.558522" lon="7.610993">
        <ele>249.004716</ele>
        <time>2022-01-07T21:11:33.411Z</time>
      </trkpt>
      <trkpt lat="47.558373" lon="7.610373">
        <ele>249.734526</ele>
        <time>2022-01-07T21:11:45.807Z</time>
      </trkpt>
      <trkpt lat="47.558268" lon="7.609724">
        <ele>250.474594</ele>
        <time>2022-01-07T21:12:00.778Z</time>
      </trkpt>
      <trkpt lat="47.558254" lon="7.609572">
        <ele>250.644709</ele>
        <time>2022-01-07T21:12:04.783Z</time>
      </trkpt>
      <trkpt lat="47.558234" lon="7.609350">
        <ele>250.893069</ele>
        <time>2022-01-07T21:12:10.370Z</time>
      </trkpt>
      <trkpt lat="47.558150" lon="7.609364">
        <ele>251.031968</ele>
        <time>2022-01-07T21:12:13.230Z</time>
      </trkpt>
      <trkpt lat="47.557730" lon="7.607116">
        <ele>253.003051</ele>
        <time>2022-01-07T21:12:58.815Z</time>
      </trkpt>
      <trkpt lat="47.557511" lon="7.605951">
        <ele>252.312002</ele>
        <time>2022-01-07T21:13:14.848Z</time>
      </trkpt>
      <trkpt lat="47.557522" lon="7.605834">
        <ele>252.145010</ele>
        <time>2022-01-07T21:13:16.060Z</time>
      </trkpt>
      <trkpt lat="47.557448" lon="7.605291">
        <ele>251.361914</ele>
        <time>2022-01-07T21:13:22.411Z</time>
      </trkpt>
      <trkpt lat="47.557438" lon="7.605212">
        <ele>251.248289</ele>
        <time>2022-01-07T21:13:23.399Z</time>
      </trkpt>
      <trkpt lat="47.557349" lon="7.605159">
        <ele>251.047367</ele>
        <time>2022-01-07T21:13:25.047Z</time>
      </trkpt>
      <trkpt lat="47.557316" lon="7.604850">
        <ele>250.605118</ele>
        <time>2022-01-07T21:13:28.319Z</time>
      </trkpt>
      <trkpt lat="47.557216" lon="7.603856">
        <ele>249.359330</ele>
        <time>2022-01-07T21:13:39.492Z</time>
      </trkpt>
      <trkpt lat="47.557190" lon="7.603599">
        <ele>249.142119</ele>
        <time>2022-01-07T21:13:42.654Z</time>
      </trkpt>
      <trkpt lat="47.557095" lon="7.602587">
        <ele>248.288103</ele>
        <time>2022-01-07T21:13:56.098Z</time>
      </trkpt>
      <trkpt lat="47.557072" lon="7.602343">
        <ele>248.082177</ele>
        <time>2022-01-07T21:13:59.325Z</time>
      </trkpt>
      <trkpt lat="47.557029" lon="7.600820">
        <ele>247.427715</ele>
        <time>2022-01-07T21:14:20.469Z</time>
      </trkpt>
      <trkpt lat="47.557013" lon="7.599037">
        <ele>247.539118</ele>
        <time>2022-01-07T21:14:48.350Z</time>
      </trkpt>
      <trkpt lat="47.557162" lon="7.597463">
        <ele>248.228539</ele>
        <time>2022-01-07T21:15:14.924Z</time>
      </trkpt>
      <trkpt lat="47.557195" lon="7.597262">
        <ele>248.328839</ele>
        <time>2022-01-07T21:15:18.391Z</time>
      </trkpt>
      <trkpt lat="47.557272" lon="7.597007">
        <ele>248.464290</ele>
        <time>2022-01-07T21:15:23.122Z</time>
      </trkpt>
      <trkpt lat="47.557411" lon="7.596634">
        <ele>248.670883</ele>
        <time>2022-01-07T21:15:30.424Z</time>
      </trkpt>
      <trkpt lat="47.557440" lon="7.596555">
        <ele>248.714487</ele>
        <time>2022-01-07T21:15:32.037Z</time>
      </trkpt>
      <trkpt lat="47.557766" lon="7.595643">
        <ele>249.337333</ele>
        <time>2022-01-07T21:15:50.669Z</time>
      </trkpt>
      <trkpt lat="47.558130" lon="7.594802">
        <ele>249.981439</ele>
        <time>2022-01-07T21:16:08.250Z</time>
      </trkpt>
      <trkpt lat="47.558340" lon="7.594363">
        <ele>250.328344</ele>
        <time>2022-01-07T21:16:17.612Z</time>
      </trkpt>
      <trkpt lat="47.558962" lon="7.593190">
        <ele>251.227439</ele>
        <time>2022-01-07T21:16:44.833Z</time>
      </trkpt>
      <trkpt lat="47.559520" lon="7.592309">
        <ele>251.939391</ele>
        <time>2022-01-07T21:17:07.587Z</time>
      </trkpt>
      <trkpt lat="47.559976" lon="7.591728">
        <ele>252.086420</ele>
        <time>2022-01-07T21:17:22.005Z</time>
      </trkpt>
      <trkpt lat="47.559980" lon="7.591624">
        <ele>252.077971</ele>
        <time>2022-01-07T21:17:23.859Z</time>
      </trkpt>
      <trkpt lat="47.560284" lon="7.591256">
        <ele>252.030792</ele>
        <time>2022-01-07T21:17:32.872Z</time>
      </trkpt>
      <trkpt lat="47.560355" lon="7.591171">
        <ele>252.019822</ele>
        <time>2022-01-07T21:17:35.303Z</time>
      </trkpt>
      <trkpt lat="47.560399" lon="7.591058">
        <ele>252.009241</ele>
        <time>2022-01-07T21:17:37.591Z</time>
      </trkpt>
      <trkpt lat="47.560491" lon="7.590961">
        <ele>251.995670</ele>
        <time>2022-01-07T21:17:40.568Z</time>
      </trkpt>
      <trkpt lat="47.560862" lon="7.590572">
        <ele>251.941047</ele>
        <time>2022-01-07T21:17:53.152Z</time>
      </trkpt>
      <trkpt lat="47.560904" lon="7.590528">
        <ele>251.934865</ele>
        <time>2022-01-07T21:17:54.698Z</time>
      </trkpt>
      <trkpt lat="47.561034" lon="7.590401">
        <ele>251.916151</ele>
        <time>2022-01-07T21:17:57.784Z</time>
      </trkpt>
      <trkpt lat="47.561096" lon="7.590340">
        <ele>251.874195</ele>
        <time>2022-01-07T21:17:59.411Z</time>
      </trkpt>
      <trkpt lat="47.562114" lon="7.589363">
        <ele>251.180353</ele>
        <time>2022-01-07T21:18:24.750Z</time>
      </trkpt>
      <trkpt lat="47.562363" lon="7.589149">
        <ele>251.015682</ele>
        <time>2022-01-07T21:18:32.702Z</time>
      </trkpt>
      <trkpt lat="47.562586" lon="7.588957">
        <ele>250.903650</ele>
        <time>2022-01-07T21:18:39.875Z</time>
      </trkpt>
      <trkpt lat="47.562778" lon="7.588781">
        <ele>251.017492</ele>
        <time>2022-01-07T21:18:46.387Z</time>
      </trkpt>
      <trkpt lat="47.563024" lon="7.588597">
        <ele>251.156443</ele>
        <time>2022-01-07T21:18:54.431Z</time>
      </trkpt>
      <trkpt lat="47.563164" lon="7.588573">
        <ele>251.227510</ele>
        <time>2022-01-07T21:18:58.900Z</time>
      </trkpt>
      <trkpt lat="47.563336" lon="7.588454">
        <ele>251.323228</ele>
        <time>2022-01-07T21:19:03.428Z</time>
      </trkpt>
      <trkpt lat="47.563808" lon="7.588127">
        <ele>251.585960</ele>
        <time>2022-01-07T21:19:17.081Z</time>
      </trkpt>
      <trkpt lat="47.563862" lon="7.588089">
        <ele>251.616104</ele>
        <time>2022-01-07T21:19:18.568Z</time>
      </trkpt>
      <trkpt lat="47.564004" lon="7.587995">
        <ele>251.694527</ele>
        <time>2022-01-07T21:19:22.534Z</time>
      </trkpt>
      <trkpt lat="47.565458" lon="7.587141">
        <ele>252.941004</ele>
        <time>2022-01-07T21:20:03.410Z</time>
      </trkpt>
      <trkpt lat="47.566047" lon="7.586906">
        <ele>253.280409</ele>
        <time>2022-01-07T21:20:19.049Z</time>
      </trkpt>
      <trkpt lat="47.567251" lon="7.586581">
        <ele>253.122199</ele>
        <time>2022-01-07T21:20:45.432Z</time>
      </trkpt>
      <trkpt lat="47.567270" lon="7.586578">
        <ele>253.119729</ele>
        <time>2022-01-07T21:20:45.817Z</time>
      </trkpt>
      <trkpt lat="47.567939" lon="7.586472">
        <ele>252.940944</ele>
        <time>2022-01-07T21:20:59.285Z</time>
      </trkpt>
      <trkpt lat="47.568450" lon="7.586434">
        <ele>252.715673</ele>
        <time>2022-01-07T21:21:09.348Z</time>
      </trkpt>
      <trkpt lat="47.569152" lon="7.586465">
        <ele>252.406453</ele>
        <time>2022-01-07T21:21:23.402Z</time>
      </trkpt>
      <trkpt lat="47.569384" lon="7.586479">
        <ele>252.304221</ele>
        <time>2022-01-07T21:21:28.933Z</time>
      </trkpt>
      <trkpt lat="47.569985" lon="7.586551">
        <ele>252.228350</ele>
        <time>2022-01-07T21:21:43.788Z</time>
      </trkpt>
      <trkpt lat="47.570106" lon="7.586535">
        <ele>252.217077</ele>
        <time>2022-01-07T21:21:46.587Z</time>
      </trkpt>
      <trkpt lat="47.570516" lon="7.586600">
        <ele>252.178811</ele>
        <time>2022-01-07T21:21:55.990Z</time>
      </trkpt>
      <trkpt lat="47.570786" lon="7.586670">
        <ele>252.153374</ele>
        <time>2022-01-07T21:22:01.926Z</time>
      </trkpt>
      <trkpt lat="47.570865" lon="7.586685">
        <ele>252.145983</ele>
        <time>2022-01-07T21:22:03.688Z</time>
      </trkpt>
      <trkpt lat="47.573143" lon="7.587063">
        <ele>250.509812</ele>
        <time>2022-01-07T21:22:48.529Z</time>
      </trkpt>
      <trkpt lat="47.573763" lon="7.587223">
        <ele>250.201591</ele>
        <time>2022-01-07T21:23:00.502Z</time>
      </trkpt>
      <trkpt lat="47.573953" lon="7.587246">
        <ele>250.108227</ele>
        <time>2022-01-07T21:23:04.208Z</time>
      </trkpt>
      <trkpt lat="47.575819" lon="7.587473">
        <ele>249.977331</ele>
        <time>2022-01-07T21:23:46.564Z</time>
      </trkpt>
      <trkpt lat="47.576453" lon="7.587617">
        <ele>250.156656</ele>
        <time>2022-01-07T21:24:02.491Z</time>
      </trkpt>
      <trkpt lat="47.577006" lon="7.587756">
        <ele>250.226660</ele>
        <time>2022-01-07T21:24:15.675Z</time>
      </trkpt>
      <trkpt lat="47.577644" lon="7.587944">
        <ele>250.275777</ele>
        <time>2022-01-07T21:24:30.618Z</time>
      </trkpt>
      <trkpt lat="47.578582" lon="7.588288">
        <ele>250.299974</ele>
        <time>2022-01-07T21:24:51.485Z</time>
      </trkpt>
      <trkpt lat="47.579414" lon="7.588609">
        <ele>250.192727</ele>
        <time>2022-01-07T21:25:09.623Z</time>
      </trkpt>
      <trkpt lat="47.580737" lon="7.589312">
        <ele>250.245188</ele>
        <time>2022-01-07T21:25:41.499Z</time>
      </trkpt>
      <trkpt lat="47.581776" lon="7.589867">
        <ele>250.465022</ele>
        <time>2022-01-07T21:26:07.272Z</time>
      </trkpt>
      <trkpt lat="47.581819" lon="7.589916">
        <ele>250.487006</ele>
        <time>2022-01-07T21:26:08.431Z</time>
      </trkpt>
      <trkpt lat="47.581819" lon="7.590021">
        <ele>250.515715</ele>
        <time>2022-01-07T21:26:10.038Z</time>
      </trkpt>
      <trkpt lat="47.581769" lon="7.590238">
        <ele>250.578412</ele>
        <time>2022-01-07T21:26:13.644Z</time>
      </trkpt>
      <trkpt lat="47.581468" lon="7.591541">
        <ele>250.954989</ele>
        <time>2022-01-07T21:26:35.047Z</time>
      </trkpt>
      <trkpt lat="47.581395" lon="7.591794">
        <ele>251.030227</ele>
        <time>2022-01-07T21:26:39.829Z</time>
      </trkpt>
      <trkpt lat="47.581447" lon="7.591830">
        <ele>251.053489</ele>
        <time>2022-01-07T21:26:41.206Z</time>
      </trkpt>
      <trkpt lat="47.581675" lon="7.591981">
        <ele>251.154710</ele>
        <time>2022-01-07T21:26:48.017Z</time>
      </trkpt>
      <trkpt lat="47.581745" lon="7.592032">
        <ele>251.186325</ele>
        <time>2022-01-07T21:26:49.958Z</time>
      </trkpt>
      <trkpt lat="47.581774" lon="7.592054">
        <ele>251.196975</ele>
        <time>2022-01-07T21:26:50.741Z</time>
      </trkpt>
      <trkpt lat="47.581773" lon="7.592181">
        <ele>251.224201</ele>
        <time>2022-01-07T21:26:52.977Z</time>
      </trkpt>
      <trkpt lat="47.581826" lon="7.592238">
        <ele>251.245010</ele>
        <time>2022-01-07T21:26:54.668Z</time>
      </trkpt>
      <trkpt lat="47.581922" lon="7.592157">
        <ele>251.280114</ele>
        <time>2022-01-07T21:26:57.406Z</time>
      </trkpt>
      <trkpt lat="47.581997" lon="7.592202">
        <ele>251.305828</ele>
        <time>2022-01-07T21:26:59.283Z</time>
      </trkpt>
      <trkpt lat="47.582021" lon="7.592220">
        <ele>251.314375</ele>
        <time>2022-01-07T21:26:59.919Z</time>
      </trkpt>
      <trkpt lat="47.582623" lon="7.592656">
        <ele>251.527302</ele>
        <time>2022-01-07T21:27:15.478Z</time>
      </trkpt>
      <trkpt lat="47.582765" lon="7.592682">
        <ele>251.572772</ele>
        <time>2022-01-07T21:27:18.639Z</time>
      </trkpt>
      <trkpt lat="47.582937" lon="7.592722">
        <ele>251.628103</ele>
        <time>2022-01-07T21:27:22.578Z</time>
      </trkpt>
      <trkpt lat="47.583341" lon="7.592795">
        <ele>251.757445</ele>
        <time>2022-01-07T21:27:31.858Z</time>
      </trkpt>
      <trkpt lat="47.583612" lon="7.592848">
        <ele>251.696899</ele>
        <time>2022-01-07T21:27:38.224Z</time>
      </trkpt>
      <trkpt lat="47.583893" lon="7.592833">
        <ele>251.631288</ele>
        <time>2022-01-07T21:27:44.468Z</time>
      </trkpt>
      <trkpt lat="47.584095" lon="7.592799">
        <ele>251.583850</ele>
        <time>2022-01-07T21:27:48.822Z</time>
      </trkpt>
      <trkpt lat="47.584348" lon="7.592731">
        <ele>251.523853</ele>
        <time>2022-01-07T21:27:54.432Z</time>
      </trkpt>
      <trkpt lat="47.584785" lon="7.592583">
        <ele>251.419256</ele>
        <time>2022-01-07T21:28:03.573Z</time>
      </trkpt>
      <trkpt lat="47.584961" lon="7.593745">
        <ele>250.928253</ele>
        <time>2022-01-07T21:28:20.130Z</time>
      </trkpt>
      <trkpt lat="47.585178" lon="7.593771">
        <ele>250.734397</ele>
        <time>2022-01-07T21:28:24.693Z</time>
      </trkpt>
      <trkpt lat="47.585948" lon="7.593302">
        <ele>249.993149</ele>
        <time>2022-01-07T21:28:40.995Z</time>
      </trkpt>
      <trkpt lat="47.586024" lon="7.593252">
        <ele>249.919112</ele>
        <time>2022-01-07T21:28:42.526Z</time>
      </trkpt>
      <trkpt lat="47.586167" lon="7.593153">
        <ele>249.778581</ele>
        <time>2022-01-07T21:28:45.480Z</time>
      </trkpt>
      <trkpt lat="47.586407" lon="7.593002">
        <ele>249.415593</ele>
        <time>2022-01-07T21:28:50.138Z</time>
      </trkpt>
      <trkpt lat="47.586803" lon="7.592788">
        <ele>248.783997</ele>
        <time>2022-01-07T21:28:57.575Z</time>
      </trkpt>
      <trkpt lat="47.587284" lon="7.592665">
        <ele>248.052576</ele>
        <time>2022-01-07T21:29:06.239Z</time>
      </trkpt>
      <trkpt lat="47.587551" lon="7.592659">
        <ele>247.652430</ele>
        <time>2022-01-07T21:29:11.082Z</time>
      </trkpt>
      <trkpt lat="47.587967" lon="7.592736">
        <ele>247.044589</ele>
        <time>2022-01-07T21:29:19.012Z</time>
      </trkpt>
      <trkpt lat="47.588184" lon="7.592809">
        <ele>247.077579</ele>
        <time>2022-01-07T21:29:23.395Z</time>
      </trkpt>
      <trkpt lat="47.588530" lon="7.593025">
        <ele>247.133239</ele>
        <time>2022-01-07T21:29:31.299Z</time>
      </trkpt>
      <trkpt lat="47.588704" lon="7.593255">
        <ele>247.167800</ele>
        <time>2022-01-07T21:29:36.285Z</time>
      </trkpt>
      <trkpt lat="47.588923" lon="7.593366">
        <ele>247.202113</ele>
        <time>2022-01-07T21:29:41.441Z</time>
      </trkpt>
      <trkpt lat="47.588958" lon="7.593382">
        <ele>247.207543</ele>
        <time>2022-01-07T21:29:42.299Z</time>
      </trkpt>
      <trkpt lat="47.589463" lon="7.593642">
        <ele>247.286800</ele>
        <time>2022-01-07T21:29:56.143Z</time>
      </trkpt>
      <trkpt lat="47.589545" lon="7.593519">
        <ele>247.304094</ele>
        <time>2022-01-07T21:29:59.369Z</time>
      </trkpt>
      <trkpt lat="47.589857" lon="7.593611">
        <ele>247.552331</ele>
        <time>2022-01-07T21:30:08.416Z</time>
      </trkpt>
      <trkpt lat="47.589824" lon="7.593734">
        <ele>247.629187</ele>
        <time>2022-01-07T21:30:10.838Z</time>
      </trkpt>
      <trkpt lat="47.589771" lon="7.593931">
        <ele>247.752327</ele>
        <time>2022-01-07T21:30:14.836Z</time>
      </trkpt>
      <trkpt lat="47.589710" lon="7.594165">
        <ele>247.897981</ele>
        <time>2022-01-07T21:30:19.479Z</time>
      </trkpt>
      <trkpt lat="47.589497" lon="7.595090">
        <ele>248.465470</ele>
        <time>2022-01-07T21:30:36.724Z</time>
      </trkpt>
      <trkpt lat="47.589383" lon="7.595552">
        <ele>248.751094</ele>
        <time>2022-01-07T21:30:44.708Z</time>
      </trkpt>
      <trkpt lat="47.589297" lon="7.595920">
        <ele>248.841376</ele>
        <time>2022-01-07T21:30:50.521Z</time>
      </trkpt>
      <trkpt lat="47.589082" lon="7.596818">
        <ele>248.765302</ele>
        <time>2022-01-07T21:31:04.585Z</time>
      </trkpt>
      <trkpt lat="47.589061" lon="7.596905">
        <ele>248.757925</ele>
        <time>2022-01-07T21:31:05.978Z</time>
      </trkpt>
      <trkpt lat="47.588857" lon="7.597781">
        <ele>248.683939</ele>
        <time>2022-01-07T21:31:19.253Z</time>
      </trkpt>
      <trkpt lat="47.588643" lon="7.598655">
        <ele>248.770416</ele>
        <time>2022-01-07T21:31:32.477Z</time>
      </trkpt>
      <trkpt lat="47.588451" lon="7.599452">
        <ele>249.011472</ele>
        <time>2022-01-07T21:31:45.380Z</time>
      </trkpt>
      <trkpt lat="47.589190" lon="7.599863">
        <ele>249.344796</ele>
        <time>2022-01-07T21:32:05.326Z</time>
      </trkpt>
      <trkpt lat="47.589485" lon="7.600031">
        <ele>249.522747</ele>
        <time>2022-01-07T21:32:13.872Z</time>
      </trkpt>
      <trkpt lat="47.590114" lon="7.600384">
        <ele>249.978095</ele>
        <time>2022-01-07T21:32:31.271Z</time>
      </trkpt>
      <trkpt lat="47.590174" lon="7.600416">
        <ele>250.021266</ele>
        <time>2022-01-07T21:32:32.840Z</time>
      </trkpt>
      <trkpt lat="47.590232" lon="7.600447">
        <ele>250.063009</ele>
        <time>2022-01-07T21:32:34.367Z</time>
      </trkpt>
      <trkpt lat="47.590309" lon="7.600485">
        <ele>250.117953</ele>
        <time>2022-01-07T21:32:36.376Z</time>
      </trkpt>
      <trkpt lat="47.590570" lon="7.600615">
        <ele>250.304367</ele>
        <time>2022-01-07T21:32:43.198Z</time>
      </trkpt>
      <trkpt lat="47.590714" lon="7.600693">
        <ele>250.408164</ele>
        <time>2022-01-07T21:32:47.039Z</time>
      </trkpt>
      <trkpt lat="47.590879" lon="7.600781">
        <ele>250.526884</ele>
        <time>2022-01-07T21:32:51.291Z</time>
      </trkpt>
      <trkpt lat="47.590921" lon="7.600804">
        <ele>250.557197</ele>
        <time>2022-01-07T21:32:52.319Z</time>
      </trkpt>
      <trkpt lat="47.591115" lon="7.600908">
        <ele>250.614428</ele>
        <time>2022-01-07T21:32:57.172Z</time>
      </trkpt>
      <trkpt lat="47.591160" lon="7.600932">
        <ele>250.611031</ele>
        <time>2022-01-07T21:32:58.272Z</time>
      </trkpt>
      <trkpt lat="47.591274" lon="7.600994">
        <ele>250.602405</ele>
        <time>2022-01-07T21:33:00.985Z</time>
      </trkpt>
      <trkpt lat="47.591619" lon="7.601182">
        <ele>250.576297</ele>
        <time>2022-01-07T21:33:09.043Z</time>
      </trkpt>
      <trkpt lat="47.592183" lon="7.601561">
        <ele>250.532313</ele>
        <time>2022-01-07T21:33:22.498Z</time>
      </trkpt>
      <trkpt lat="47.592454" lon="7.601745">
        <ele>250.511142</ele>
        <time>2022-01-07T21:33:28.946Z</time>
      </trkpt>
      <trkpt lat="47.592466" lon="7.601753">
        <ele>250.510207</ele>
        <time>2022-01-07T21:33:29.229Z</time>
      </trkpt>
      <trkpt lat="47.592990" lon="7.602137">
        <ele>250.368034</ele>
        <time>2022-01-07T21:33:41.528Z</time>
      </trkpt>
      <trkpt lat="47.593634" lon="7.602888">
        <ele>250.082845</ele>
        <time>2022-01-07T21:33:58.953Z</time>
      </trkpt>
      <trkpt lat="47.593765" lon="7.602932">
        <ele>250.036090</ele>
        <time>2022-01-07T21:34:01.784Z</time>
      </trkpt>
      <trkpt lat="47.593956" lon="7.602822">
        <ele>249.964766</ele>
        <time>2022-01-07T21:34:06.177Z</time>
      </trkpt>
      <trkpt lat="47.594170" lon="7.602640">
        <ele>249.878892</ele>
        <time>2022-01-07T21:34:11.424Z</time>
      </trkpt>
      <trkpt lat="47.595652" lon="7.601412">
        <ele>248.548365</ele>
        <time>2022-01-07T21:34:44.763Z</time>
      </trkpt>
      <trkpt lat="47.595715" lon="7.601358">
        <ele>248.490762</ele>
        <time>2022-01-07T21:34:46.164Z</time>
      </trkpt>
      <trkpt lat="47.595904" lon="7.601200">
        <ele>248.326350</ele>
        <time>2022-01-07T21:34:50.359Z</time>
      </trkpt>
      <trkpt lat="47.596465" lon="7.600734">
        <ele>247.847076</ele>
        <time>2022-01-07T21:35:02.930Z</time>
      </trkpt>
      <trkpt lat="47.596653" lon="7.600579">
        <ele>247.686750</ele>
        <time>2022-01-07T21:35:07.230Z</time>
      </trkpt>
      <trkpt lat="47.596739" lon="7.600507">
        <ele>247.613140</ele>
        <time>2022-01-07T21:35:09.110Z</time>
      </trkpt>
      <trkpt lat="47.596902" lon="7.600372">
        <ele>247.473984</ele>
        <time>2022-01-07T21:35:12.802Z</time>
      </trkpt>
      <trkpt lat="47.597014" lon="7.600279">
        <ele>247.378308</ele>
        <time>2022-01-07T21:35:15.283Z</time>
      </trkpt>
      <trkpt lat="47.597473" lon="7.599898">
        <ele>247.098889</ele>
        <time>2022-01-07T21:35:25.934Z</time>
      </trkpt>
      <trkpt lat="47.597578" lon="7.599812">
        <ele>247.095030</ele>
        <time>2022-01-07T21:35:28.558Z</time>
      </trkpt>
      <trkpt lat="47.597854" lon="7.599580">
        <ele>247.084824</ele>
        <time>2022-01-07T21:35:35.567Z</time>
      </trkpt>
      <trkpt lat="47.597940" lon="7.599505">
        <ele>247.081615</ele>
        <time>2022-01-07T21:35:37.790Z</time>
      </trkpt>
      <trkpt lat="47.598074" lon="7.599390">
        <ele>247.076634</ele>
        <time>2022-01-07T21:35:41.217Z</time>
      </trkpt>
      <trkpt lat="47.598556" lon="7.598978">
        <ele>247.058738</ele>
        <time>2022-01-07T21:35:53.707Z</time>
      </trkpt>
      <trkpt lat="47.598942" lon="7.598704">
        <ele>247.054953</ele>
        <time>2022-01-07T21:36:03.705Z</time>
      </trkpt>
      <trkpt lat="47.598994" lon="7.598674">
        <ele>247.068902</ele>
        <time>2022-01-07T21:36:05.025Z</time>
      </trkpt>
      <trkpt lat="47.599114" lon="7.598658">
        <ele>247.099023</ele>
        <time>2022-01-07T21:36:07.951Z</time>
      </trkpt>
      <trkpt lat="47.599226" lon="7.598657">
        <ele>247.127023</ele>
        <time>2022-01-07T21:36:10.622Z</time>
      </trkpt>
      <trkpt lat="47.599278" lon="7.598688">
        <ele>247.141034</ele>
        <time>2022-01-07T21:36:11.968Z</time>
      </trkpt>
      <trkpt lat="47.599404" lon="7.598598">
        <ele>247.175998</ele>
        <time>2022-01-07T21:36:15.294Z</time>
      </trkpt>
      <trkpt lat="47.599421" lon="7.598498">
        <ele>247.193383</ele>
        <time>2022-01-07T21:36:16.933Z</time>
      </trkpt>
      <trkpt lat="47.599467" lon="7.598336">
        <ele>247.223015</ele>
        <time>2022-01-07T21:36:19.749Z</time>
      </trkpt>
      <trkpt lat="47.599568" lon="7.598161">
        <ele>247.261846</ele>
        <time>2022-01-07T21:36:23.433Z</time>
      </trkpt>
      <trkpt lat="47.599786" lon="7.597989">
        <ele>247.323579</ele>
        <time>2022-01-07T21:36:29.113Z</time>
      </trkpt>
      <trkpt lat="47.600318" lon="7.597612">
        <ele>247.470982</ele>
        <time>2022-01-07T21:36:42.566Z</time>
      </trkpt>
      <trkpt lat="47.600512" lon="7.597480">
        <ele>247.493588</ele>
        <time>2022-01-07T21:36:47.356Z</time>
      </trkpt>
      <trkpt lat="47.600987" lon="7.597119">
        <ele>247.483406</ele>
        <time>2022-01-07T21:36:59.599Z</time>
      </trkpt>
      <trkpt lat="47.601110" lon="7.597019">
        <ele>247.480730</ele>
        <time>2022-01-07T21:37:02.745Z</time>
      </trkpt>
      <trkpt lat="47.601742" lon="7.596425">
        <ele>247.466456</ele>
        <time>2022-01-07T21:37:19.385Z</time>
      </trkpt>
      <trkpt lat="47.601800" lon="7.596368">
        <ele>247.465129</ele>
        <time>2022-01-07T21:37:20.815Z</time>
      </trkpt>
      <trkpt lat="47.602917" lon="7.595356">
        <ele>247.267611</ele>
        <time>2022-01-07T21:37:48.826Z</time>
      </trkpt>
      <trkpt lat="47.603093" lon="7.595313">
        <ele>247.236640</ele>
        <time>2022-01-07T21:37:53.056Z</time>
      </trkpt>
      <trkpt lat="47.603575" lon="7.594999">
        <ele>247.144116</ele>
        <time>2022-01-07T21:38:05.967Z</time>
      </trkpt>
      <trkpt lat="47.605834" lon="7.593894">
        <ele>246.536048</ele>
        <time>2022-01-07T21:39:02.507Z</time>
      </trkpt>
      <trkpt lat="47.607337" lon="7.592811">
        <ele>246.027133</ele>
        <time>2022-01-07T21:39:41.301Z</time>
      </trkpt>
      <trkpt lat="47.608268" lon="7.591942">
        <ele>245.822617</ele>
        <time>2022-01-07T21:40:08.227Z</time>
      </trkpt>
      <trkpt lat="47.609192" lon="7.590933">
        <ele>245.588061</ele>
        <time>2022-01-07T21:40:36.291Z</time>
      </trkpt>
      <trkpt lat="47.609712" lon="7.590493">
        <ele>245.462998</ele>
        <time>2022-01-07T21:40:50.734Z</time>
      </trkpt>
      <trkpt lat="47.609772" lon="7.590430">
        <ele>245.447641</ele>
        <time>2022-01-07T21:40:52.163Z</time>
      </trkpt>
      <trkpt lat="47.609796" lon="7.590224">
        <ele>245.418198</ele>
        <time>2022-01-07T21:40:55.182Z</time>
      </trkpt>
      <trkpt lat="47.609888" lon="7.590032">
        <ele>245.337223</ele>
        <time>2022-01-07T21:40:58.522Z</time>
      </trkpt>
      <trkpt lat="47.610777" lon="7.588694">
        <ele>244.448559</ele>
        <time>2022-01-07T21:41:23.413Z</time>
      </trkpt>
      <trkpt lat="47.612100" lon="7.586306">
        <ele>243.353799</ele>
        <time>2022-01-07T21:42:05.540Z</time>
      </trkpt>
      <trkpt lat="47.613444" lon="7.583774">
        <ele>243.569803</ele>
        <time>2022-01-07T21:42:56.366Z</time>
      </trkpt>
      <trkpt lat="47.614297" lon="7.582176">
        <ele>243.421474</ele>
        <time>2022-01-07T21:43:26.408Z</time>
      </trkpt>
      <trkpt lat="47.614270" lon="7.582086">
        <ele>243.414305</ele>
        <time>2022-01-07T21:43:27.906Z</time>
      </trkpt>
      <trkpt lat="47.614236" lon="7.582044">
        <ele>243.409529</ele>
        <time>2022-01-07T21:43:28.801Z</time>
      </trkpt>
      <trkpt lat="47.613560" lon="7.581225">
        <ele>243.007298</ele>
        <time>2022-01-07T21:43:46.517Z</time>
      </trkpt>
      <trkpt lat="47.613614" lon="7.581125">
        <ele>242.963985</ele>
        <time>2022-01-07T21:43:48.470Z</time>
      </trkpt>
      <trkpt lat="47.613813" lon="7.580746">
        <ele>242.801591</ele>
        <time>2022-01-07T21:43:55.976Z</time>
      </trkpt>
      <trkpt lat="47.614928" lon="7.578673">
        <ele>242.368399</ele>
        <time>2022-01-07T21:44:36.992Z</time>
      </trkpt>
      <trkpt lat="47.616058" lon="7.576588">
        <ele>243.360818</ele>
        <time>2022-01-07T21:45:25.891Z</time>
      </trkpt>
      <trkpt lat="47.616912" lon="7.575412">
        <ele>244.482924</ele>
        <time>2022-01-07T21:46:01.528Z</time>
      </trkpt>
      <trkpt lat="47.617479" lon="7.574837">
        <ele>245.197423</ele>
        <time>2022-01-07T21:46:22.250Z</time>
      </trkpt>
      <trkpt lat="47.617745" lon="7.574767">
        <ele>245.478464</ele>
        <time>2022-01-07T21:46:30.054Z</time>
      </trkpt>
      <trkpt lat="47.619035" lon="7.574116">
        <ele>245.343215</ele>
        <time>2022-01-07T21:47:03.482Z</time>
      </trkpt>
      <trkpt lat="47.619084" lon="7.574091">
        <ele>245.322230</ele>
        <time>2022-01-07T21:47:04.532Z</time>
      </trkpt>
      <trkpt lat="47.619494" lon="7.573927">
        <ele>245.150259</ele>
        <time>2022-01-07T21:47:12.777Z</time>
      </trkpt>
      <trkpt lat="47.619594" lon="7.573931">
        <ele>245.109746</ele>
        <time>2022-01-07T21:47:14.666Z</time>
      </trkpt>
      <trkpt lat="47.620176" lon="7.573392">
        <ele>244.375273</ele>
        <time>2022-01-07T21:47:27.536Z</time>
      </trkpt>
      <trkpt lat="47.624072" lon="7.572307">
        <ele>239.900624</ele>
        <time>2022-01-07T21:48:51.214Z</time>
      </trkpt>
      <trkpt lat="47.624129" lon="7.572295">
        <ele>239.859849</ele>
        <time>2022-01-07T21:48:53.252Z</time>
      </trkpt>
      <trkpt lat="47.624259" lon="7.572250">
        <ele>239.765303</ele>
        <time>2022-01-07T21:48:56.334Z</time>
      </trkpt>
      <trkpt lat="47.627781" lon="7.571096">
        <ele>239.006944</ele>
        <time>2022-01-07T21:50:24.656Z</time>
      </trkpt>
      <trkpt lat="47.629194" lon="7.570399">
        <ele>238.523440</ele>
        <time>2022-01-07T21:50:59.974Z</time>
      </trkpt>
      <trkpt lat="47.630017" lon="7.569904">
        <ele>238.092036</ele>
        <time>2022-01-07T21:51:20.018Z</time>
      </trkpt>
      <trkpt lat="47.630482" lon="7.569712">
        <ele>237.923366</ele>
        <time>2022-01-07T21:51:30.807Z</time>
      </trkpt>
      <trkpt lat="47.630799" lon="7.569683">
        <ele>237.825849</ele>
        <time>2022-01-07T21:51:37.940Z</time>
      </trkpt>
      <trkpt lat="47.630903" lon="7.569632">
        <ele>237.792219</ele>
        <time>2022-01-07T21:51:45.589Z</time>
      </trkpt>
      <trkpt lat="47.630968" lon="7.569597">
        <ele>237.770988</ele>
        <time>2022-01-07T21:51:47.983Z</time>
      </trkpt>
      <trkpt lat="47.631280" lon="7.569184">
        <ele>237.642615</ele>
        <time>2022-01-07T21:52:02.605Z</time>
      </trkpt>
      <trkpt lat="47.632952" lon="7.567646">
        <ele>238.370910</ele>
        <time>2022-01-07T21:53:19.219Z</time>
      </trkpt>
      <trkpt lat="47.632990" lon="7.567611">
        <ele>238.398242</ele>
        <time>2022-01-07T21:53:21.284Z</time>
      </trkpt>
      <trkpt lat="47.633347" lon="7.567341">
        <ele>238.591638</ele>
        <time>2022-01-07T21:53:38.020Z</time>
      </trkpt>
      <trkpt lat="47.633471" lon="7.567307">
        <ele>238.602350</ele>
        <time>2022-01-07T21:53:43.443Z</time>
      </trkpt>
      <trkpt lat="47.633642" lon="7.567291">
        <ele>238.616904</ele>
        <time>2022-01-07T21:53:55.366Z</time>
      </trkpt>
      <trkpt lat="47.633851" lon="7.567233">
        <ele>238.634965</ele>
        <time>2022-01-07T21:54:04.097Z</time>
      </trkpt>
      <trkpt lat="47.634114" lon="7.567052">
        <ele>238.659591</ele>
        <time>2022-01-07T21:54:15.561Z</time>
      </trkpt>
      <trkpt lat="47.634140" lon="7.566644">
        <ele>238.683050</ele>
        <time>2022-01-07T21:54:25.928Z</time>
      </trkpt>
      <trkpt lat="47.634189" lon="7.566505">
        <ele>238.692029</ele>
        <time>2022-01-07T21:54:30.242Z</time>
      </trkpt>
      <trkpt lat="47.636146" lon="7.564080">
        <ele>236.201893</ele>
        <time>2022-01-07T21:55:54.065Z</time>
      </trkpt>
      <trkpt lat="47.636503" lon="7.563746">
        <ele>235.837113</ele>
        <time>2022-01-07T21:56:07.989Z</time>
      </trkpt>
      <trkpt lat="47.636609" lon="7.563582">
        <ele>235.704754</ele>
        <time>2022-01-07T21:56:12.956Z</time>
      </trkpt>
      <trkpt lat="47.637973" lon="7.561467">
        <ele>235.374865</ele>
        <time>2022-01-07T21:57:22.818Z</time>
      </trkpt>
      <trkpt lat="47.638409" lon="7.560728">
        <ele>235.730521</ele>
        <time>2022-01-07T21:57:51.303Z</time>
      </trkpt>
      <trkpt lat="47.637973" lon="7.561467">
        <ele>236.848474</ele>
        <time>2022-01-07T21:58:21.273Z</time>
      </trkpt>
      <trkpt lat="47.638290" lon="7.561819">
        <ele>237.657482</ele>
        <time>2022-01-07T21:58:35.165Z</time>
      </trkpt>
      <trkpt lat="47.638390" lon="7.561870">
        <ele>237.873552</ele>
        <time>2022-01-07T21:58:38.488Z</time>
      </trkpt>
      <trkpt lat="47.638663" lon="7.561825">
        <ele>238.434836</ele>
        <time>2022-01-07T21:58:48.015Z</time>
      </trkpt>
      <trkpt lat="47.638861" lon="7.561349">
        <ele>239.205050</ele>
        <time>2022-01-07T21:59:04.917Z</time>
      </trkpt>
      <trkpt lat="47.639058" lon="7.561094">
        <ele>239.463034</ele>
        <time>2022-01-07T21:59:16.780Z</time>
      </trkpt>
      <trkpt lat="47.639171" lon="7.560995">
        <ele>239.434533</ele>
        <time>2022-01-07T21:59:22.789Z</time>
      </trkpt>
      <trkpt lat="47.639302" lon="7.561041">
        <ele>239.405295</ele>
        <time>2022-01-07T21:59:29.173Z</time>
      </trkpt>
      <trkpt lat="47.645850" lon="7.547861">
        <ele>236.179026</ele>
        <time>2022-01-07T22:03:48.107Z</time>
      </trkpt>
      <trkpt lat="47.645885" lon="7.547433">
        <ele>235.848178</ele>
        <time>2022-01-07T22:03:54.136Z</time>
      </trkpt>
      <trkpt lat="47.645774" lon="7.546635">
        <ele>235.222895</ele>
        <time>2022-01-07T22:04:05.496Z</time>
      </trkpt>
      <trkpt lat="47.645700" lon="7.546288">
        <ele>234.943593</ele>
        <time>2022-01-07T22:04:10.395Z</time>
      </trkpt>
      <trkpt lat="47.646263" lon="7.545134">
        <ele>234.115313</ele>
        <time>2022-01-07T22:04:29.798Z</time>
      </trkpt>
      <trkpt lat="47.646504" lon="7.544813">
        <ele>233.844558</ele>
        <time>2022-01-07T22:04:36.503Z</time>
      </trkpt>
      <trkpt lat="47.646633" lon="7.544518">
        <ele>233.646437</ele>
        <time>2022-01-07T22:04:42.019Z</time>
      </trkpt>
      <trkpt lat="47.646833" lon="7.543995">
        <ele>233.400359</ele>
        <time>2022-01-07T22:04:54.016Z</time>
      </trkpt>
      <trkpt lat="47.647371" lon="7.543011">
        <ele>234.548224</ele>
        <time>2022-01-07T22:05:19.865Z</time>
      </trkpt>
      <trkpt lat="47.647780" lon="7.543296">
        <ele>235.155696</ele>
        <time>2022-01-07T22:05:33.848Z</time>
      </trkpt>
      <trkpt lat="47.647939" lon="7.543460">
        <ele>235.416012</ele>
        <time>2022-01-07T22:05:39.465Z</time>
      </trkpt>
      <trkpt lat="47.648108" lon="7.543579">
        <ele>235.667499</ele>
        <time>2022-01-07T22:05:45.288Z</time>
      </trkpt>
      <trkpt lat="47.649135" lon="7.541690">
        <ele>237.539658</ele>
        <time>2022-01-07T22:06:34.221Z</time>
      </trkpt>
      <trkpt lat="47.650479" lon="7.539444">
        <ele>238.168206</ele>
        <time>2022-01-07T22:07:25.861Z</time>
      </trkpt>
      <trkpt lat="47.650655" lon="7.539162">
        <ele>238.046478</ele>
        <time>2022-01-07T22:07:31.327Z</time>
      </trkpt>
      <trkpt lat="47.651225" lon="7.538308">
        <ele>237.648172</ele>
        <time>2022-01-07T22:07:50.122Z</time>
      </trkpt>
      <trkpt lat="47.653405" lon="7.535212">
        <ele>235.539030</ele>
        <time>2022-01-07T22:09:33.480Z</time>
      </trkpt>
      <trkpt lat="47.653690" lon="7.533733">
        <ele>234.953885</ele>
        <time>2022-01-07T22:10:09.995Z</time>
      </trkpt>
      <trkpt lat="47.657757" lon="7.528851">
        <ele>234.067702</ele>
        <time>2022-01-07T22:13:20.216Z</time>
      </trkpt>
      <trkpt lat="47.657873" lon="7.528774">
        <ele>234.061607</ele>
        <time>2022-01-07T22:13:25.049Z</time>
      </trkpt>
      <trkpt lat="47.657984" lon="7.528687">
        <ele>234.055586</ele>
        <time>2022-01-07T22:13:29.757Z</time>
      </trkpt>
      <trkpt lat="47.658060" lon="7.528748">
        <ele>234.051442</ele>
        <time>2022-01-07T22:13:33.088Z</time>
      </trkpt>
      <trkpt lat="47.658598" lon="7.528796">
        <ele>234.194472</ele>
        <time>2022-01-07T22:13:53.707Z</time>
      </trkpt>
      <trkpt lat="47.658692" lon="7.528861">
        <ele>234.230214</ele>
        <time>2022-01-07T22:13:57.697Z</time>
      </trkpt>
      <trkpt lat="47.658884" lon="7.529071">
        <ele>234.312413</ele>
        <time>2022-01-07T22:14:06.961Z</time>
      </trkpt>
      <trkpt lat="47.658991" lon="7.529275">
        <ele>234.372440</ele>
        <time>2022-01-07T22:14:13.694Z</time>
      </trkpt>
      <trkpt lat="47.659520" lon="7.530266">
        <ele>234.666002</ele>
        <time>2022-01-07T22:14:34.788Z</time>
      </trkpt>
      <trkpt lat="47.659752" lon="7.531145">
        <ele>234.941453</ele>
        <time>2022-01-07T22:14:50.523Z</time>
      </trkpt>
      <trkpt lat="47.659869" lon="7.531544">
        <ele>235.068444</ele>
        <time>2022-01-07T22:14:57.626Z</time>
      </trkpt>
      <trkpt lat="47.660122" lon="7.531150">
        <ele>235.227298</ele>
        <time>2022-01-07T22:15:06.353Z</time>
      </trkpt>
      <trkpt lat="47.660728" lon="7.530257">
        <ele>235.688490</ele>
        <time>2022-01-07T22:15:27.206Z</time>
      </trkpt>
      <trkpt lat="47.660894" lon="7.529996">
        <ele>235.856247</ele>
        <time>2022-01-07T22:15:33.156Z</time>
      </trkpt>
      <trkpt lat="47.661001" lon="7.529825">
        <ele>235.965323</ele>
        <time>2022-01-07T22:15:36.912Z</time>
      </trkpt>
      <trkpt lat="47.661162" lon="7.530166">
        <ele>236.159933</ele>
        <time>2022-01-07T22:15:44.157Z</time>
      </trkpt>
      <trkpt lat="47.661224" lon="7.529634">
        <ele>236.412238</ele>
        <time>2022-01-07T22:15:53.308Z</time>
      </trkpt>
      <trkpt lat="47.661328" lon="7.529434">
        <ele>236.530316</ele>
        <time>2022-01-07T22:15:57.609Z</time>
      </trkpt>
      <trkpt lat="47.662000" lon="7.528623">
        <ele>237.835021</ele>
        <time>2022-01-07T22:16:20.491Z</time>
      </trkpt>
      <trkpt lat="47.662264" lon="7.528177">
        <ele>238.558657</ele>
        <time>2022-01-07T22:16:31.684Z</time>
      </trkpt>
      <trkpt lat="47.662823" lon="7.527741">
        <ele>239.701242</ele>
        <time>2022-01-07T22:16:51.144Z</time>
      </trkpt>
      <trkpt lat="47.663746" lon="7.527452">
        <ele>243.407044</ele>
        <time>2022-01-07T22:17:25.678Z</time>
      </trkpt>
      <trkpt lat="47.665487" lon="7.527475">
        <ele>250.713369</ele>
        <time>2022-01-07T22:18:40.018Z</time>
      </trkpt>
      <trkpt lat="47.667572" lon="7.527893">
        <ele>257.279244</ele>
        <time>2022-01-07T22:19:54.676Z</time>
      </trkpt>
      <trkpt lat="47.668379" lon="7.528159">
        <ele>258.957572</ele>
        <time>2022-01-07T22:20:15.229Z</time>
      </trkpt>
      <trkpt lat="47.669341" lon="7.528591">
        <ele>259.737368</ele>
        <time>2022-01-07T22:20:38.905Z</time>
      </trkpt>
      <trkpt lat="47.670743" lon="7.529500">
        <ele>260.569742</ele>
        <time>2022-01-07T22:21:20.482Z</time>
      </trkpt>
      <trkpt lat="47.671727" lon="7.530023">
        <ele>260.769084</ele>
        <time>2022-01-07T22:21:43.558Z</time>
      </trkpt>
      <trkpt lat="47.672458" lon="7.530136">
        <ele>259.230420</ele>
        <time>2022-01-07T22:21:56.851Z</time>
      </trkpt>
      <trkpt lat="47.673953" lon="7.529951">
        <ele>255.696041</ele>
        <time>2022-01-07T22:22:21.746Z</time>
      </trkpt>
      <trkpt lat="47.675016" lon="7.529957">
        <ele>252.636518</ele>
        <time>2022-01-07T22:22:39.438Z</time>
      </trkpt>
      <trkpt lat="47.675728" lon="7.529734">
        <ele>250.488638</ele>
        <time>2022-01-07T22:22:51.430Z</time>
      </trkpt>
      <trkpt lat="47.676523" lon="7.529235">
        <ele>247.910935</ele>
        <time>2022-01-07T22:23:05.586Z</time>
      </trkpt>
      <trkpt lat="47.677394" lon="7.528326">
        <ele>245.269459</ele>
        <time>2022-01-07T22:23:23.242Z</time>
      </trkpt>
      <trkpt lat="47.678459" lon="7.527017">
        <ele>242.663593</ele>
        <time>2022-01-07T22:23:47.621Z</time>
      </trkpt>
      <trkpt lat="47.679764" lon="7.526075">
        <ele>241.893715</ele>
        <time>2022-01-07T22:24:20.514Z</time>
      </trkpt>
      <trkpt lat="47.679958" lon="7.525781">
        <ele>241.585328</ele>
        <time>2022-01-07T22:24:26.116Z</time>
      </trkpt>
      <trkpt lat="47.680079" lon="7.525709">
        <ele>241.361470</ele>
        <time>2022-01-07T22:24:28.368Z</time>
      </trkpt>
      <trkpt lat="47.680226" lon="7.525807">
        <ele>241.084751</ele>
        <time>2022-01-07T22:24:31.817Z</time>
      </trkpt>
      <trkpt lat="47.680420" lon="7.525823">
        <ele>240.751067</ele>
        <time>2022-01-07T22:24:35.230Z</time>
      </trkpt>
      <trkpt lat="47.680767" lon="7.525742">
        <ele>240.147822</ele>
        <time>2022-01-07T22:24:41.729Z</time>
      </trkpt>
      <trkpt lat="47.680696" lon="7.525206">
        <ele>239.516194</ele>
        <time>2022-01-07T22:24:48.498Z</time>
      </trkpt>
      <trkpt lat="47.680606" lon="7.524284">
        <ele>238.370687</ele>
        <time>2022-01-07T22:25:00.308Z</time>
      </trkpt>
      <trkpt lat="47.680707" lon="7.524114">
        <ele>238.046971</ele>
        <time>2022-01-07T22:25:02.964Z</time>
      </trkpt>
      <trkpt lat="47.680988" lon="7.523957">
        <ele>237.410291</ele>
        <time>2022-01-07T22:25:08.121Z</time>
      </trkpt>
      <trkpt lat="47.681192" lon="7.523894">
        <ele>236.968418</ele>
        <time>2022-01-07T22:25:11.536Z</time>
      </trkpt>
      <trkpt lat="47.681678" lon="7.524023">
        <ele>235.921435</ele>
        <time>2022-01-07T22:25:20.254Z</time>
      </trkpt>
      <trkpt lat="47.682148" lon="7.523999">
        <ele>234.924122</ele>
        <time>2022-01-07T22:25:29.784Z</time>
      </trkpt>
      <trkpt lat="47.682974" lon="7.523801">
        <ele>234.633583</ele>
        <time>2022-01-07T22:25:48.851Z</time>
      </trkpt>
      <trkpt lat="47.683864" lon="7.523588">
        <ele>234.328382</ele>
        <time>2022-01-07T22:26:09.110Z</time>
      </trkpt>
      <trkpt lat="47.684775" lon="7.523207">
        <ele>233.743277</ele>
        <time>2022-01-07T22:26:29.246Z</time>
      </trkpt>
      <trkpt lat="47.684937" lon="7.523129">
        <ele>233.634507</ele>
        <time>2022-01-07T22:26:32.808Z</time>
      </trkpt>
      <trkpt lat="47.685104" lon="7.523052">
        <ele>233.522823</ele>
        <time>2022-01-07T22:26:36.221Z</time>
      </trkpt>
      <trkpt lat="47.686835" lon="7.522229">
        <ele>232.385090</ele>
        <time>2022-01-07T22:27:12.383Z</time>
      </trkpt>
      <trkpt lat="47.687434" lon="7.521929">
        <ele>232.030452</ele>
        <time>2022-01-07T22:27:25.550Z</time>
      </trkpt>
      <trkpt lat="47.688036" lon="7.521766">
        <ele>231.939159</ele>
        <time>2022-01-07T22:27:38.602Z</time>
      </trkpt>
      <trkpt lat="47.688578" lon="7.521649">
        <ele>231.857447</ele>
        <time>2022-01-07T22:27:52.048Z</time>
      </trkpt>
      <trkpt lat="47.689088" lon="7.521642">
        <ele>231.781356</ele>
        <time>2022-01-07T22:28:04.693Z</time>
      </trkpt>
      <trkpt lat="47.689063" lon="7.521341">
        <ele>231.750316</ele>
        <time>2022-01-07T22:28:09.088Z</time>
      </trkpt>
      <trkpt lat="47.689647" lon="7.521473">
        <ele>231.659964</ele>
        <time>2022-01-07T22:28:21.884Z</time>
      </trkpt>
      <trkpt lat="47.690202" lon="7.521787">
        <ele>231.569128</ele>
        <time>2022-01-07T22:28:34.604Z</time>
      </trkpt>
      <trkpt lat="47.690614" lon="7.522190">
        <ele>231.493087</ele>
        <time>2022-01-07T22:28:45.255Z</time>
      </trkpt>
      <trkpt lat="47.691268" lon="7.523020">
        <ele>231.346467</ele>
        <time>2022-01-07T22:29:03.606Z</time>
      </trkpt>
      <trkpt lat="47.696452" lon="7.523916">
        <ele>230.315041</ele>
        <time>2022-01-07T22:30:56.635Z</time>
      </trkpt>
      <trkpt lat="47.697412" lon="7.524163">
        <ele>229.918802</ele>
        <time>2022-01-07T22:31:16.790Z</time>
      </trkpt>
      <trkpt lat="47.698286" lon="7.523740">
        <ele>229.325459</ele>
        <time>2022-01-07T22:31:35.044Z</time>
      </trkpt>
      <trkpt lat="47.698993" lon="7.523482">
        <ele>228.832525</ele>
        <time>2022-01-07T22:31:49.512Z</time>
      </trkpt>
      <trkpt lat="47.699506" lon="7.523383">
        <ele>228.521925</ele>
        <time>2022-01-07T22:31:59.971Z</time>
      </trkpt>
      <trkpt lat="47.700306" lon="7.523489">
        <ele>228.101368</ele>
        <time>2022-01-07T22:32:16.229Z</time>
      </trkpt>
      <trkpt lat="47.700929" lon="7.523770">
        <ele>227.760454</ele>
        <time>2022-01-07T22:32:29.680Z</time>
      </trkpt>
      <trkpt lat="47.701578" lon="7.524168">
        <ele>227.678207</ele>
        <time>2022-01-07T22:32:44.759Z</time>
      </trkpt>
      <trkpt lat="47.701904" lon="7.524474">
        <ele>227.654895</ele>
        <time>2022-01-07T22:32:53.280Z</time>
      </trkpt>
      <trkpt lat="47.702140" lon="7.524816">
        <ele>227.634965</ele>
        <time>2022-01-07T22:33:00.599Z</time>
      </trkpt>
      <trkpt lat="47.702617" lon="7.525797">
        <ele>227.626249</ele>
        <time>2022-01-07T22:33:19.251Z</time>
      </trkpt>
      <trkpt lat="47.703696" lon="7.524654">
        <ele>227.700774</ele>
        <time>2022-01-07T22:33:49.049Z</time>
      </trkpt>
      <trkpt lat="47.703734" lon="7.524748">
        <ele>227.704924</ele>
        <time>2022-01-07T22:33:50.863Z</time>
      </trkpt>
      <trkpt lat="47.703775" lon="7.524744">
        <ele>227.707235</ele>
        <time>2022-01-07T22:33:51.812Z</time>
      </trkpt>
      <trkpt lat="47.703903" lon="7.524979">
        <ele>227.693754</ele>
        <time>2022-01-07T22:33:56.359Z</time>
      </trkpt>
      <trkpt lat="47.704058" lon="7.525296">
        <ele>227.674366</ele>
        <time>2022-01-07T22:34:02.438Z</time>
      </trkpt>
      <trkpt lat="47.704190" lon="7.525170">
        <ele>227.662831</ele>
        <time>2022-01-07T22:34:06.044Z</time>
      </trkpt>
      <trkpt lat="47.704275" lon="7.525242">
        <ele>227.655637</ele>
        <time>2022-01-07T22:34:08.355Z</time>
      </trkpt>
      <trkpt lat="47.704626" lon="7.524805">
        <ele>227.621969</ele>
        <time>2022-01-07T22:34:18.533Z</time>
      </trkpt>
      <trkpt lat="47.704943" lon="7.523895">
        <ele>227.593417</ele>
        <time>2022-01-07T22:34:38.274Z</time>
      </trkpt>
      <trkpt lat="47.705095" lon="7.523383">
        <ele>227.706313</ele>
        <time>2022-01-07T22:34:47.184Z</time>
      </trkpt>
      <trkpt lat="47.705300" lon="7.522906">
        <ele>227.820494</ele>
        <time>2022-01-07T22:34:56.944Z</time>
      </trkpt>
      <trkpt lat="47.705336" lon="7.522569">
        <ele>227.889332</ele>
        <time>2022-01-07T22:35:02.947Z</time>
      </trkpt>
      <trkpt lat="47.705615" lon="7.521765">
        <ele>228.071826</ele>
        <time>2022-01-07T22:35:19.222Z</time>
      </trkpt>
      <trkpt lat="47.705866" lon="7.521719">
        <ele>228.173829</ele>
        <time>2022-01-07T22:35:26.050Z</time>
      </trkpt>
      <trkpt lat="47.707698" lon="7.524992">
        <ele>229.863279</ele>
        <time>2022-01-07T22:36:42.981Z</time>
      </trkpt>
      <trkpt lat="47.708889" lon="7.527126">
        <ele>232.194554</ele>
        <time>2022-01-07T22:37:35.887Z</time>
      </trkpt>
      <trkpt lat="47.709255" lon="7.527762">
        <ele>233.070098</ele>
        <time>2022-01-07T22:37:55.795Z</time>
      </trkpt>
      <trkpt lat="47.709410" lon="7.528040">
        <ele>233.654875</ele>
        <time>2022-01-07T22:38:04.172Z</time>
      </trkpt>
      <trkpt lat="47.709589" lon="7.528391">
        <ele>234.368229</ele>
        <time>2022-01-07T22:38:14.637Z</time>
      </trkpt>
      <trkpt lat="47.710264" lon="7.529558">
        <ele>236.860795</ele>
        <time>2022-01-07T22:38:50.984Z</time>
      </trkpt>
      <trkpt lat="47.711288" lon="7.531489">
        <ele>236.398225</ele>
        <time>2022-01-07T22:39:25.882Z</time>
      </trkpt>
      <trkpt lat="47.711290" lon="7.531493">
        <ele>236.395928</ele>
        <time>2022-01-07T22:39:26.063Z</time>
      </trkpt>
      <trkpt lat="47.711499" lon="7.531755">
        <ele>236.208671</ele>
        <time>2022-01-07T22:39:30.605Z</time>
      </trkpt>
      <trkpt lat="47.712375" lon="7.533342">
        <ele>232.582253</ele>
        <time>2022-01-07T22:39:53.244Z</time>
      </trkpt>
      <trkpt lat="47.712498" lon="7.533554">
        <ele>232.063932</ele>
        <time>2022-01-07T22:39:56.276Z</time>
      </trkpt>
      <trkpt lat="47.712735" lon="7.533956">
        <ele>231.139135</ele>
        <time>2022-01-07T22:40:02.103Z</time>
      </trkpt>
      <trkpt lat="47.714433" lon="7.536877">
        <ele>228.672364</ele>
        <time>2022-01-07T22:40:58.387Z</time>
      </trkpt>
      <trkpt lat="47.715391" lon="7.538302">
        <ele>228.837692</ele>
        <time>2022-01-07T22:41:35.350Z</time>
      </trkpt>
      <trkpt lat="47.716360" lon="7.539593">
        <ele>229.766175</ele>
        <time>2022-01-07T22:42:12.348Z</time>
      </trkpt>
      <trkpt lat="47.718149" lon="7.541715">
        <ele>229.327719</ele>
        <time>2022-01-07T22:43:08.802Z</time>
      </trkpt>
      <trkpt lat="47.719599" lon="7.543076">
        <ele>227.129299</ele>
        <time>2022-01-07T22:43:43.263Z</time>
      </trkpt>
      <trkpt lat="47.719799" lon="7.543272">
        <ele>226.917028</ele>
        <time>2022-01-07T22:43:47.564Z</time>
      </trkpt>
      <trkpt lat="47.719953" lon="7.543398">
        <ele>226.761262</ele>
        <time>2022-01-07T22:43:50.750Z</time>
      </trkpt>
      <trkpt lat="47.720043" lon="7.543474">
        <ele>226.669542</ele>
        <time>2022-01-07T22:43:52.689Z</time>
      </trkpt>
      <trkpt lat="47.721840" lon="7.544934">
        <ele>225.904301</ele>
        <time>2022-01-07T22:44:41.989Z</time>
      </trkpt>
      <trkpt lat="47.723466" lon="7.546073">
        <ele>226.283597</ele>
        <time>2022-01-07T22:45:29.974Z</time>
      </trkpt>
      <trkpt lat="47.725134" lon="7.547020">
        <ele>226.468222</ele>
        <time>2022-01-07T22:46:13.780Z</time>
      </trkpt>
      <trkpt lat="47.725614" lon="7.547355">
        <ele>226.454571</ele>
        <time>2022-01-07T22:46:26.544Z</time>
      </trkpt>
      <trkpt lat="47.728184" lon="7.548428">
        <ele>226.514704</ele>
        <time>2022-01-07T22:47:33.576Z</time>
      </trkpt>
      <trkpt lat="47.728222" lon="7.548442">
        <ele>226.512771</ele>
        <time>2022-01-07T22:47:34.545Z</time>
      </trkpt>
      <trkpt lat="47.731249" lon="7.549402">
        <ele>226.060976</ele>
        <time>2022-01-07T22:48:49.499Z</time>
      </trkpt>
      <trkpt lat="47.731493" lon="7.549908">
        <ele>225.822186</ele>
        <time>2022-01-07T22:48:59.096Z</time>
      </trkpt>
      <trkpt lat="47.731591" lon="7.549948">
        <ele>225.764237</ele>
        <time>2022-01-07T22:49:01.375Z</time>
      </trkpt>
      <trkpt lat="47.731720" lon="7.549913">
        <ele>225.689463</ele>
        <time>2022-01-07T22:49:04.244Z</time>
      </trkpt>
      <trkpt lat="47.731987" lon="7.549647">
        <ele>225.506194</ele>
        <time>2022-01-07T22:49:11.515Z</time>
      </trkpt>
      <trkpt lat="47.732144" lon="7.549630">
        <ele>225.416432</ele>
        <time>2022-01-07T22:49:15.143Z</time>
      </trkpt>
      <trkpt lat="47.734263" lon="7.549910">
        <ele>223.760614</ele>
        <time>2022-01-07T22:50:01.808Z</time>
      </trkpt>
      <trkpt lat="47.735617" lon="7.550005">
        <ele>223.129401</ele>
        <time>2022-01-07T22:50:32.546Z</time>
      </trkpt>
      <trkpt lat="47.736269" lon="7.550033">
        <ele>222.906649</ele>
        <time>2022-01-07T22:50:48.472Z</time>
      </trkpt>
      <trkpt lat="47.737148" lon="7.550016">
        <ele>223.181422</ele>
        <time>2022-01-07T22:51:11.487Z</time>
      </trkpt>
      <trkpt lat="47.737534" lon="7.549994">
        <ele>223.302163</ele>
        <time>2022-01-07T22:51:21.991Z</time>
      </trkpt>
      <trkpt lat="47.737596" lon="7.549991">
        <ele>223.321552</ele>
        <time>2022-01-07T22:51:23.660Z</time>
      </trkpt>
      <trkpt lat="47.738180" lon="7.549916">
        <ele>223.431507</ele>
        <time>2022-01-07T22:51:39.131Z</time>
      </trkpt>
      <trkpt lat="47.739332" lon="7.549584">
        <ele>223.341671</ele>
        <time>2022-01-07T22:52:07.648Z</time>
      </trkpt>
      <trkpt lat="47.740351" lon="7.549220">
        <ele>222.982051</ele>
        <time>2022-01-07T22:52:32.066Z</time>
      </trkpt>
      <trkpt lat="47.741163" lon="7.548834">
        <ele>222.527021</ele>
        <time>2022-01-07T22:52:51.359Z</time>
      </trkpt>
      <trkpt lat="47.743186" lon="7.547644">
        <ele>221.542115</ele>
        <time>2022-01-07T22:53:41.164Z</time>
      </trkpt>
      <trkpt lat="47.743358" lon="7.547626">
        <ele>221.661266</ele>
        <time>2022-01-07T22:53:45.231Z</time>
      </trkpt>
      <trkpt lat="47.743626" lon="7.547748">
        <ele>221.854945</ele>
        <time>2022-01-07T22:53:51.994Z</time>
      </trkpt>
      <trkpt lat="47.744093" lon="7.547244">
        <ele>222.253681</ele>
        <time>2022-01-07T22:54:07.766Z</time>
      </trkpt>
      <trkpt lat="47.744539" lon="7.546975">
        <ele>222.586264</ele>
        <time>2022-01-07T22:54:22.390Z</time>
      </trkpt>
      <trkpt lat="47.744634" lon="7.547082">
        <ele>222.668615</ele>
        <time>2022-01-07T22:54:26.058Z</time>
      </trkpt>
      <trkpt lat="47.744795" lon="7.547731">
        <ele>223.228911</ele>
        <time>2022-01-07T22:54:40.376Z</time>
      </trkpt>
      <trkpt lat="47.745010" lon="7.547945">
        <ele>223.590253</ele>
        <time>2022-01-07T22:54:48.621Z</time>
      </trkpt>
      <trkpt lat="47.745155" lon="7.547879">
        <ele>223.802047</ele>
        <time>2022-01-07T22:54:53.297Z</time>
      </trkpt>
      <trkpt lat="47.746870" lon="7.546908">
        <ele>225.492770</ele>
        <time>2022-01-07T22:55:48.056Z</time>
      </trkpt>
      <trkpt lat="47.746958" lon="7.546719">
        <ele>225.536955</ele>
        <time>2022-01-07T22:55:51.866Z</time>
      </trkpt>
      <trkpt lat="47.747033" lon="7.546679">
        <ele>225.559731</ele>
        <time>2022-01-07T22:55:53.791Z</time>
      </trkpt>
      <trkpt lat="47.747277" lon="7.546339">
        <ele>225.655308</ele>
        <time>2022-01-07T22:56:01.726Z</time>
      </trkpt>
      <trkpt lat="47.747428" lon="7.545359">
        <ele>225.521775</ele>
        <time>2022-01-07T22:56:16.962Z</time>
      </trkpt>
      <trkpt lat="47.750141" lon="7.543829">
        <ele>222.408979</ele>
        <time>2022-01-07T22:57:18.357Z</time>
      </trkpt>
      <trkpt lat="47.753586" lon="7.541921">
        <ele>220.599468</ele>
        <time>2022-01-07T22:58:43.502Z</time>
      </trkpt>
      <trkpt lat="47.754773" lon="7.541333">
        <ele>220.619908</ele>
        <time>2022-01-07T22:59:13.572Z</time>
      </trkpt>
      <trkpt lat="47.759397" lon="7.538725">
        <ele>221.767148</ele>
        <time>2022-01-07T23:01:21.964Z</time>
      </trkpt>
      <trkpt lat="47.767525" lon="7.534221">
        <ele>223.509968</ele>
        <time>2022-01-07T23:05:04.250Z</time>
      </trkpt>
      <trkpt lat="47.767812" lon="7.534204">
        <ele>223.259790</ele>
        <time>2022-01-07T23:05:10.510Z</time>
      </trkpt>
      <trkpt lat="47.768027" lon="7.534586">
        <ele>222.968101</ele>
        <time>2022-01-07T23:05:17.935Z</time>
      </trkpt>
      <trkpt lat="47.768205" lon="7.534600">
        <ele>222.812845</ele>
        <time>2022-01-07T23:05:22.826Z</time>
      </trkpt>
      <trkpt lat="47.768299" lon="7.534494">
        <ele>222.710111</ele>
        <time>2022-01-07T23:05:24.981Z</time>
      </trkpt>
      <trkpt lat="47.768318" lon="7.533883">
        <ele>222.352029</ele>
        <time>2022-01-07T23:05:33.626Z</time>
      </trkpt>
      <trkpt lat="47.768571" lon="7.533670">
        <ele>222.098830</ele>
        <time>2022-01-07T23:05:39.816Z</time>
      </trkpt>
      <trkpt lat="47.769749" lon="7.533082">
        <ele>220.932299</ele>
        <time>2022-01-07T23:06:06.069Z</time>
      </trkpt>
      <trkpt lat="47.770981" lon="7.532595">
        <ele>220.355752</ele>
        <time>2022-01-07T23:06:35.671Z</time>
      </trkpt>
      <trkpt lat="47.773226" lon="7.531873">
        <ele>220.811367</ele>
        <time>2022-01-07T23:07:35.566Z</time>
      </trkpt>
      <trkpt lat="47.774811" lon="7.531534">
        <ele>221.313349</ele>
        <time>2022-01-07T23:08:17.414Z</time>
      </trkpt>
      <trkpt lat="47.776436" lon="7.531269">
        <ele>221.492208</ele>
        <time>2022-01-07T23:08:59.080Z</time>
      </trkpt>
      <trkpt lat="47.777601" lon="7.531171">
        <ele>221.351833</ele>
        <time>2022-01-07T23:09:41.119Z</time>
      </trkpt>
      <trkpt lat="47.779651" lon="7.531195">
        <ele>220.641183</ele>
        <time>2022-01-07T23:10:54.055Z</time>
      </trkpt>
      <trkpt lat="47.781665" lon="7.531438">
        <ele>220.400814</ele>
        <time>2022-01-07T23:12:08.262Z</time>
      </trkpt>
      <trkpt lat="47.783371" lon="7.531776">
        <ele>220.441401</ele>
        <time>2022-01-07T23:13:11.772Z</time>
      </trkpt>
      <trkpt lat="47.784720" lon="7.532146">
        <ele>220.691983</ele>
        <time>2022-01-07T23:14:04.223Z</time>
      </trkpt>
      <trkpt lat="47.785989" lon="7.532610">
        <ele>220.946357</ele>
        <time>2022-01-07T23:14:54.294Z</time>
      </trkpt>
      <trkpt lat="47.788309" lon="7.533671">
        <ele>220.749220</ele>
        <time>2022-01-07T23:16:22.926Z</time>
      </trkpt>
      <trkpt lat="47.791905" lon="7.535750">
        <ele>219.599365</ele>
        <time>2022-01-07T23:18:41.909Z</time>
      </trkpt>
      <trkpt lat="47.793398" lon="7.536684">
        <ele>218.885090</ele>
        <time>2022-01-07T23:19:38.860Z</time>
      </trkpt>
      <trkpt lat="47.795145" lon="7.537741">
        <ele>218.338389</ele>
        <time>2022-01-07T23:20:46.437Z</time>
      </trkpt>
      <trkpt lat="47.795699" lon="7.537969">
        <ele>218.318617</ele>
        <time>2022-01-07T23:21:07.692Z</time>
      </trkpt>
      <trkpt lat="47.803203" lon="7.542330">
        <ele>218.990993</ele>
        <time>2022-01-07T23:26:09.957Z</time>
      </trkpt>
      <trkpt lat="47.805430" lon="7.543619">
        <ele>218.363353</ele>
        <time>2022-01-07T23:26:59.995Z</time>
      </trkpt>
      <trkpt lat="47.805977" lon="7.543951">
        <ele>218.226759</ele>
        <time>2022-01-07T23:27:12.366Z</time>
      </trkpt>
      <trkpt lat="47.808758" lon="7.545541">
        <ele>218.436593</ele>
        <time>2022-01-07T23:28:20.170Z</time>
      </trkpt>
      <trkpt lat="47.809164" lon="7.545860">
        <ele>218.524130</ele>
        <time>2022-01-07T23:28:30.533Z</time>
      </trkpt>
      <trkpt lat="47.809484" lon="7.545982">
        <ele>218.587119</ele>
        <time>2022-01-07T23:28:38.081Z</time>
      </trkpt>
      <trkpt lat="47.809912" lon="7.546036">
        <ele>218.676922</ele>
        <time>2022-01-07T23:28:48.199Z</time>
      </trkpt>
      <trkpt lat="47.810192" lon="7.546165">
        <ele>218.799644</ele>
        <time>2022-01-07T23:28:55.052Z</time>
      </trkpt>
      <trkpt lat="47.812754" lon="7.547298">
        <ele>219.827442</ele>
        <time>2022-01-07T23:29:59.329Z</time>
      </trkpt>
      <trkpt lat="47.814005" lon="7.547766">
        <ele>219.851481</ele>
        <time>2022-01-07T23:30:28.762Z</time>
      </trkpt>
      <trkpt lat="47.814397" lon="7.547893">
        <ele>219.746929</ele>
        <time>2022-01-07T23:30:37.573Z</time>
      </trkpt>
      <trkpt lat="47.814299" lon="7.548396">
        <ele>219.655267</ele>
        <time>2022-01-07T23:30:49.982Z</time>
      </trkpt>
      <trkpt lat="47.814334" lon="7.549158">
        <ele>219.386184</ele>
        <time>2022-01-07T23:31:07.971Z</time>
      </trkpt>
      <trkpt lat="47.814550" lon="7.549030">
        <ele>219.128923</ele>
        <time>2022-01-07T23:31:24.129Z</time>
      </trkpt>
      <trkpt lat="47.814807" lon="7.549054">
        <ele>218.843963</ele>
        <time>2022-01-07T23:31:42.024Z</time>
      </trkpt>
      <trkpt lat="47.816472" lon="7.549652">
        <ele>216.732644</ele>
        <time>2022-01-07T23:32:13.800Z</time>
      </trkpt>
      <trkpt lat="47.816615" lon="7.549798">
        <ele>216.474404</ele>
        <time>2022-01-07T23:32:16.888Z</time>
      </trkpt>
      <trkpt lat="47.816696" lon="7.549977">
        <ele>216.258518</ele>
        <time>2022-01-07T23:32:19.322Z</time>
      </trkpt>
      <trkpt lat="47.816847" lon="7.549747">
        <ele>215.936804</ele>
        <time>2022-01-07T23:32:24.682Z</time>
      </trkpt>
      <trkpt lat="47.816891" lon="7.549712">
        <ele>215.862505</ele>
        <time>2022-01-07T23:32:25.884Z</time>
      </trkpt>
      <trkpt lat="47.817095" lon="7.549701">
        <ele>215.558460</ele>
        <time>2022-01-07T23:32:30.913Z</time>
      </trkpt>
      <trkpt lat="47.817441" lon="7.549834">
        <ele>215.026222</ele>
        <time>2022-01-07T23:32:39.969Z</time>
      </trkpt>
      <trkpt lat="47.817454" lon="7.549841">
        <ele>215.005633</ele>
        <time>2022-01-07T23:32:40.329Z</time>
      </trkpt>
      <trkpt lat="47.817712" lon="7.549987">
        <ele>214.765140</ele>
        <time>2022-01-07T23:32:47.514Z</time>
      </trkpt>
      <trkpt lat="47.818011" lon="7.550162">
        <ele>214.559303</ele>
        <time>2022-01-07T23:32:54.941Z</time>
      </trkpt>
      <trkpt lat="47.818242" lon="7.550284">
        <ele>214.402268</ele>
        <time>2022-01-07T23:33:00.909Z</time>
      </trkpt>
      <trkpt lat="47.818709" lon="7.550412">
        <ele>214.098030</ele>
        <time>2022-01-07T23:33:11.220Z</time>
      </trkpt>
      <trkpt lat="47.819005" lon="7.550476">
        <ele>213.906391</ele>
        <time>2022-01-07T23:33:17.875Z</time>
      </trkpt>
      <trkpt lat="47.819527" lon="7.550717">
        <ele>213.773681</ele>
        <time>2022-01-07T23:33:31.267Z</time>
      </trkpt>
      <trkpt lat="47.820462" lon="7.551136">
        <ele>213.882310</ele>
        <time>2022-01-07T23:33:56.658Z</time>
      </trkpt>
      <trkpt lat="47.820515" lon="7.551158">
        <ele>213.888431</ele>
        <time>2022-01-07T23:33:58.082Z</time>
      </trkpt>
      <trkpt lat="47.820680" lon="7.551177">
        <ele>213.906843</ele>
        <time>2022-01-07T23:34:02.229Z</time>
      </trkpt>
      <trkpt lat="47.820765" lon="7.551210">
        <ele>213.916615</ele>
        <time>2022-01-07T23:34:04.173Z</time>
      </trkpt>
      <trkpt lat="47.820798" lon="7.551060">
        <ele>213.928407</ele>
        <time>2022-01-07T23:34:06.566Z</time>
      </trkpt>
      <trkpt lat="47.820847" lon="7.551187">
        <ele>213.939348</ele>
        <time>2022-01-07T23:34:08.773Z</time>
      </trkpt>
      <trkpt lat="47.820814" lon="7.551378">
        <ele>213.948277</ele>
        <time>2022-01-07T23:34:11.570Z</time>
      </trkpt>
      <trkpt lat="47.819799" lon="7.553104">
        <ele>214.039864</ele>
        <time>2022-01-07T23:34:46.384Z</time>
      </trkpt>
      <trkpt lat="47.819609" lon="7.553749">
        <ele>213.954253</ele>
        <time>2022-01-07T23:34:56.960Z</time>
      </trkpt>
      <trkpt lat="47.819534" lon="7.554057">
        <ele>213.890801</ele>
        <time>2022-01-07T23:35:01.632Z</time>
      </trkpt>
      <trkpt lat="47.819545" lon="7.555024">
        <ele>213.703495</ele>
        <time>2022-01-07T23:35:15.495Z</time>
      </trkpt>
      <trkpt lat="47.819512" lon="7.555619">
        <ele>213.587869</ele>
        <time>2022-01-07T23:35:23.784Z</time>
      </trkpt>
      <trkpt lat="47.819411" lon="7.555989">
        <ele>213.498447</ele>
        <time>2022-01-07T23:35:29.144Z</time>
      </trkpt>
      <trkpt lat="47.818990" lon="7.557255">
        <ele>213.053297</ele>
        <time>2022-01-07T23:35:48.330Z</time>
      </trkpt>
      <trkpt lat="47.819622" lon="7.557719">
        <ele>212.722645</ele>
        <time>2022-01-07T23:36:03.064Z</time>
      </trkpt>
      <trkpt lat="47.819594" lon="7.557781">
        <ele>212.699102</ele>
        <time>2022-01-07T23:36:04.098Z</time>
      </trkpt>
      <trkpt lat="47.819579" lon="7.557835">
        <ele>212.684454</ele>
        <time>2022-01-07T23:36:04.917Z</time>
      </trkpt>
      <trkpt lat="47.822063" lon="7.559699">
        <ele>212.543715</ele>
        <time>2022-01-07T23:37:05.866Z</time>
      </trkpt>
      <trkpt lat="47.822594" lon="7.560267">
        <ele>212.591235</ele>
        <time>2022-01-07T23:37:20.748Z</time>
      </trkpt>
      <trkpt lat="47.822994" lon="7.560938">
        <ele>212.848132</ele>
        <time>2022-01-07T23:37:35.002Z</time>
      </trkpt>
      <trkpt lat="47.823129" lon="7.561201">
        <ele>212.969272</ele>
        <time>2022-01-07T23:37:40.659Z</time>
      </trkpt>
      <trkpt lat="47.823243" lon="7.561625">
        <ele>213.136401</ele>
        <time>2022-01-07T23:37:48.125Z</time>
      </trkpt>
      <trkpt lat="47.823327" lon="7.561939">
        <ele>213.260084</ele>
        <time>2022-01-07T23:37:53.653Z</time>
      </trkpt>
      <trkpt lat="47.823409" lon="7.562712">
        <ele>213.546449</ele>
        <time>2022-01-07T23:38:07.132Z</time>
      </trkpt>
      <trkpt lat="47.823398" lon="7.563115">
        <ele>213.711952</ele>
        <time>2022-01-07T23:38:13.862Z</time>
      </trkpt>
      <trkpt lat="47.823302" lon="7.563805">
        <ele>214.011210</ele>
        <time>2022-01-07T23:38:25.420Z</time>
      </trkpt>
      <trkpt lat="47.823192" lon="7.564216">
        <ele>214.199112</ele>
        <time>2022-01-07T23:38:32.534Z</time>
      </trkpt>
      <trkpt lat="47.822854" lon="7.565183">
        <ele>214.662102</ele>
        <time>2022-01-07T23:38:49.617Z</time>
      </trkpt>
      <trkpt lat="47.822047" lon="7.566889">
        <ele>216.653200</ele>
        <time>2022-01-07T23:39:28.640Z</time>
      </trkpt>
      <trkpt lat="47.821951" lon="7.567122">
        <ele>216.924173</ele>
        <time>2022-01-07T23:39:33.784Z</time>
      </trkpt>
      <trkpt lat="47.821714" lon="7.567786">
        <ele>217.744800</ele>
        <time>2022-01-07T23:39:50.052Z</time>
      </trkpt>
      <trkpt lat="47.821391" lon="7.569487">
        <ele>219.945243</ele>
        <time>2022-01-07T23:40:26.267Z</time>
      </trkpt>
      <trkpt lat="47.821295" lon="7.569627">
        <ele>220.194333</ele>
        <time>2022-01-07T23:40:30.429Z</time>
      </trkpt>
      <trkpt lat="47.821189" lon="7.569743">
        <ele>220.438195</ele>
        <time>2022-01-07T23:40:34.145Z</time>
      </trkpt>
      <trkpt lat="47.821138" lon="7.569796">
        <ele>220.553487</ele>
        <time>2022-01-07T23:40:35.621Z</time>
      </trkpt>
      <trkpt lat="47.821084" lon="7.569829">
        <ele>220.661699</ele>
        <time>2022-01-07T23:40:37.095Z</time>
      </trkpt>
      <trkpt lat="47.821085" lon="7.570245">
        <ele>220.903209</ele>
        <time>2022-01-07T23:40:44.186Z</time>
      </trkpt>
      <trkpt lat="47.821118" lon="7.570322">
        <ele>220.950000</ele>
        <time>2022-01-07T23:40:45.683Z</time>
      </trkpt>
      <trkpt lat="47.821160" lon="7.570401">
        <ele>221.001614</ele>
        <time>2022-01-07T23:40:47.465Z</time>
      </trkpt>
      <trkpt lat="47.821367" lon="7.570471">
        <ele>221.163548</ele>
        <time>2022-01-07T23:40:52.868Z</time>
      </trkpt>
      <trkpt lat="47.821680" lon="7.571140">
        <ele>221.581210</ele>
        <time>2022-01-07T23:41:06.745Z</time>
      </trkpt>
      <trkpt lat="47.822354" lon="7.572472">
        <ele>222.230770</ele>
        <time>2022-01-07T23:41:33.623Z</time>
      </trkpt>
      <trkpt lat="47.823121" lon="7.573538">
        <ele>222.567387</ele>
        <time>2022-01-07T23:41:58.691Z</time>
      </trkpt>
      <trkpt lat="47.824073" lon="7.574355">
        <ele>222.380996</ele>
        <time>2022-01-07T23:42:23.223Z</time>
      </trkpt>
      <trkpt lat="47.824479" lon="7.574582">
        <ele>222.232470</ele>
        <time>2022-01-07T23:42:32.254Z</time>
      </trkpt>
      <trkpt lat="47.825206" lon="7.574836">
        <ele>221.915277</ele>
        <time>2022-01-07T23:42:46.974Z</time>
      </trkpt>
      <trkpt lat="47.826064" lon="7.574929">
        <ele>221.348452</ele>
        <time>2022-01-07T23:43:03.782Z</time>
      </trkpt>
      <trkpt lat="47.826737" lon="7.574820">
        <ele>220.902403</ele>
        <time>2022-01-07T23:43:17.392Z</time>
      </trkpt>
      <trkpt lat="47.828389" lon="7.574317">
        <ele>220.893612</ele>
        <time>2022-01-07T23:43:55.130Z</time>
      </trkpt>
      <trkpt lat="47.829262" lon="7.574185">
        <ele>220.947647</ele>
        <time>2022-01-07T23:44:15.863Z</time>
      </trkpt>
      <trkpt lat="47.832262" lon="7.574290">
        <ele>220.930791</ele>
        <time>2022-01-07T23:45:21.788Z</time>
      </trkpt>
      <trkpt lat="47.834043" lon="7.574475">
        <ele>220.956782</ele>
        <time>2022-01-07T23:46:02.012Z</time>
      </trkpt>
      <trkpt lat="47.835164" lon="7.574834">
        <ele>220.798750</ele>
        <time>2022-01-07T23:46:26.894Z</time>
      </trkpt>
      <trkpt lat="47.836455" lon="7.575119">
        <ele>220.551168</ele>
        <time>2022-01-07T23:46:54.591Z</time>
      </trkpt>
      <trkpt lat="47.837894" lon="7.575250">
        <ele>220.351562</ele>
        <time>2022-01-07T23:47:25.737Z</time>
      </trkpt>
      <trkpt lat="47.838437" lon="7.575365">
        <ele>220.412637</ele>
        <time>2022-01-07T23:47:38.180Z</time>
      </trkpt>
      <trkpt lat="47.838904" lon="7.575547">
        <ele>220.466391</ele>
        <time>2022-01-07T23:47:49.234Z</time>
      </trkpt>
      <trkpt lat="47.840289" lon="7.576286">
        <ele>220.734519</ele>
        <time>2022-01-07T23:48:23.747Z</time>
      </trkpt>
      <trkpt lat="47.840394" lon="7.576238">
        <ele>220.757281</ele>
        <time>2022-01-07T23:48:26.295Z</time>
      </trkpt>
      <trkpt lat="47.840935" lon="7.576524">
        <ele>220.876249</ele>
        <time>2022-01-07T23:48:39.379Z</time>
      </trkpt>
      <trkpt lat="47.841416" lon="7.576776">
        <ele>220.782209</ele>
        <time>2022-01-07T23:48:50.731Z</time>
      </trkpt>
      <trkpt lat="47.841607" lon="7.576878">
        <ele>220.740348</ele>
        <time>2022-01-07T23:48:55.167Z</time>
      </trkpt>
      <trkpt lat="47.842207" lon="7.577191">
        <ele>220.609190</ele>
        <time>2022-01-07T23:49:08.866Z</time>
      </trkpt>
      <trkpt lat="47.842775" lon="7.577619">
        <ele>220.412191</ele>
        <time>2022-01-07T23:49:21.995Z</time>
      </trkpt>
      <trkpt lat="47.843346" lon="7.578027">
        <ele>220.020577</ele>
        <time>2022-01-07T23:49:34.579Z</time>
      </trkpt>
      <trkpt lat="47.843420" lon="7.578145">
        <ele>219.953549</ele>
        <time>2022-01-07T23:49:36.680Z</time>
      </trkpt>
      <trkpt lat="47.843904" lon="7.578490">
        <ele>219.621755</ele>
        <time>2022-01-07T23:49:47.475Z</time>
      </trkpt>
      <trkpt lat="47.844436" lon="7.578890">
        <ele>219.366131</ele>
        <time>2022-01-07T23:49:59.479Z</time>
      </trkpt>
      <trkpt lat="47.844675" lon="7.579085">
        <ele>219.328609</ele>
        <time>2022-01-07T23:50:05.110Z</time>
      </trkpt>
      <trkpt lat="47.845759" lon="7.580239">
        <ele>219.159029</ele>
        <time>2022-01-07T23:50:34.585Z</time>
      </trkpt>
      <trkpt lat="47.845893" lon="7.580371">
        <ele>219.191359</ele>
        <time>2022-01-07T23:50:38.564Z</time>
      </trkpt>
      <trkpt lat="47.846188" lon="7.580715">
        <ele>219.266751</ele>
        <time>2022-01-07T23:50:47.862Z</time>
      </trkpt>
      <trkpt lat="47.847391" lon="7.582025">
        <ele>219.413609</ele>
        <time>2022-01-07T23:51:21.979Z</time>
      </trkpt>
      <trkpt lat="47.847897" lon="7.582530">
        <ele>219.187821</ele>
        <time>2022-01-07T23:51:34.740Z</time>
      </trkpt>
      <trkpt lat="47.848315" lon="7.582861">
        <ele>219.012326</ele>
        <time>2022-01-07T23:51:44.461Z</time>
      </trkpt>
      <trkpt lat="47.848779" lon="7.583154">
        <ele>218.815483</ele>
        <time>2022-01-07T23:51:54.465Z</time>
      </trkpt>
      <trkpt lat="47.849163" lon="7.583311">
        <ele>218.595648</ele>
        <time>2022-01-07T23:52:02.379Z</time>
      </trkpt>
      <trkpt lat="47.852674" lon="7.583913">
        <ele>216.967971</ele>
        <time>2022-01-07T23:53:15.197Z</time>
      </trkpt>
      <trkpt lat="47.853397" lon="7.583889">
        <ele>216.867067</ele>
        <time>2022-01-07T23:53:31.408Z</time>
      </trkpt>
      <trkpt lat="47.853401" lon="7.583802">
        <ele>216.858902</ele>
        <time>2022-01-07T23:53:32.717Z</time>
      </trkpt>
      <trkpt lat="47.852679" lon="7.583817">
        <ele>216.736045</ele>
        <time>2022-01-07T23:53:48.794Z</time>
      </trkpt>
      <trkpt lat="47.852017" lon="7.583713">
        <ele>216.488882</ele>
        <time>2022-01-07T23:54:03.122Z</time>
      </trkpt>
      <trkpt lat="47.852679" lon="7.583817">
        <ele>216.241719</ele>
        <time>2022-01-07T23:54:16.960Z</time>
      </trkpt>
      <trkpt lat="47.853401" lon="7.583802">
        <ele>215.970148</ele>
        <time>2022-01-07T23:54:31.307Z</time>
      </trkpt>
      <trkpt lat="47.853397" lon="7.583889">
        <ele>215.947842</ele>
        <time>2022-01-07T23:54:32.487Z</time>
      </trkpt>
      <trkpt lat="47.853928" lon="7.583723">
        <ele>215.741020</ele>
        <time>2022-01-07T23:54:43.184Z</time>
      </trkpt>
      <trkpt lat="47.854954" lon="7.583270">
        <ele>215.544328</ele>
        <time>2022-01-07T23:55:06.586Z</time>
      </trkpt>
      <trkpt lat="47.855835" lon="7.582988">
        <ele>216.055628</ele>
        <time>2022-01-07T23:55:29.262Z</time>
      </trkpt>
      <trkpt lat="47.856361" lon="7.582946">
        <ele>216.354521</ele>
        <time>2022-01-07T23:55:42.693Z</time>
      </trkpt>
      <trkpt lat="47.856940" lon="7.583025">
        <ele>216.546253</ele>
        <time>2022-01-07T23:55:57.179Z</time>
      </trkpt>
      <trkpt lat="47.857704" lon="7.583360">
        <ele>216.744161</ele>
        <time>2022-01-07T23:56:15.965Z</time>
      </trkpt>
      <trkpt lat="47.859751" lon="7.584727">
        <ele>216.556991</ele>
        <time>2022-01-07T23:57:04.299Z</time>
      </trkpt>
      <trkpt lat="47.861156" lon="7.585502">
        <ele>216.191255</ele>
        <time>2022-01-07T23:57:35.925Z</time>
      </trkpt>
      <trkpt lat="47.863826" lon="7.586571">
        <ele>215.999976</ele>
        <time>2022-01-07T23:58:36.473Z</time>
      </trkpt>
      <trkpt lat="47.865119" lon="7.587183">
        <ele>216.109103</ele>
        <time>2022-01-07T23:59:07.983Z</time>
      </trkpt>
      <trkpt lat="47.866620" lon="7.588135">
        <ele>215.979657</ele>
        <time>2022-01-07T23:59:43.396Z</time>
      </trkpt>
      <trkpt lat="47.868093" lon="7.588998">
        <ele>215.808065</ele>
        <time>2022-01-08T00:00:17.257Z</time>
      </trkpt>
      <trkpt lat="47.868292" lon="7.589061">
        <ele>215.785742</ele>
        <time>2022-01-08T00:00:21.815Z</time>
      </trkpt>
      <trkpt lat="47.868349" lon="7.589007">
        <ele>215.778331</ele>
        <time>2022-01-08T00:00:23.386Z</time>
      </trkpt>
      <trkpt lat="47.869141" lon="7.589375">
        <ele>215.973315</ele>
        <time>2022-01-08T00:00:42.881Z</time>
      </trkpt>
      <trkpt lat="47.869755" lon="7.589628">
        <ele>216.126660</ele>
        <time>2022-01-08T00:00:58.724Z</time>
      </trkpt>
      <trkpt lat="47.869782" lon="7.589634">
        <ele>216.133231</ele>
        <time>2022-01-08T00:00:59.432Z</time>
      </trkpt>
      <trkpt lat="47.869879" lon="7.589648">
        <ele>216.156690</ele>
        <time>2022-01-08T00:01:01.839Z</time>
      </trkpt>
      <trkpt lat="47.870051" lon="7.589673">
        <ele>216.198291</ele>
        <time>2022-01-08T00:01:05.829Z</time>
      </trkpt>
      <trkpt lat="47.871016" lon="7.589735">
        <ele>214.959606</ele>
        <time>2022-01-08T00:01:25.083Z</time>
      </trkpt>
      <trkpt lat="47.871268" lon="7.589743">
        <ele>214.616322</ele>
        <time>2022-01-08T00:01:29.497Z</time>
      </trkpt>
      <trkpt lat="47.871336" lon="7.589744">
        <ele>214.523706</ele>
        <time>2022-01-08T00:01:30.696Z</time>
      </trkpt>
      <trkpt lat="47.871383" lon="7.589465">
        <ele>214.260903</ele>
        <time>2022-01-08T00:01:33.995Z</time>
      </trkpt>
      <trkpt lat="47.871462" lon="7.589302">
        <ele>214.077188</ele>
        <time>2022-01-08T00:01:36.382Z</time>
      </trkpt>
      <trkpt lat="47.871691" lon="7.589028">
        <ele>213.600098</ele>
        <time>2022-01-08T00:01:41.384Z</time>
      </trkpt>
      <trkpt lat="47.871857" lon="7.588883">
        <ele>213.094199</ele>
        <time>2022-01-08T00:01:44.662Z</time>
      </trkpt>
      <trkpt lat="47.871941" lon="7.588029">
        <ele>211.571794</ele>
        <time>2022-01-08T00:01:54.349Z</time>
      </trkpt>
      <trkpt lat="47.872135" lon="7.587141">
        <ele>209.924556</ele>
        <time>2022-01-08T00:02:04.621Z</time>
      </trkpt>
      <trkpt lat="47.872410" lon="7.586286">
        <ele>208.625968</ele>
        <time>2022-01-08T00:02:15.502Z</time>
      </trkpt>
      <trkpt lat="47.872448" lon="7.586169">
        <ele>208.506775</ele>
        <time>2022-01-08T00:02:17.064Z</time>
      </trkpt>
      <trkpt lat="47.872754" lon="7.585440">
        <ele>207.718258</ele>
        <time>2022-01-08T00:02:27.790Z</time>
      </trkpt>
      <trkpt lat="47.873928" lon="7.584210">
        <ele>206.487520</ele>
        <time>2022-01-08T00:02:56.102Z</time>
      </trkpt>
      <trkpt lat="47.874181" lon="7.583607">
        <ele>206.419849</ele>
        <time>2022-01-08T00:03:06.340Z</time>
      </trkpt>
      <trkpt lat="47.874518" lon="7.582775">
        <ele>206.327376</ele>
        <time>2022-01-08T00:03:21.487Z</time>
      </trkpt>
      <trkpt lat="47.874641" lon="7.582468">
        <ele>206.507466</ele>
        <time>2022-01-08T00:03:27.404Z</time>
      </trkpt>
      <trkpt lat="47.874826" lon="7.582001">
        <ele>206.923212</ele>
        <time>2022-01-08T00:03:36.948Z</time>
      </trkpt>
      <trkpt lat="47.875486" lon="7.580373">
        <ele>208.376235</ele>
        <time>2022-01-08T00:04:12.550Z</time>
      </trkpt>
      <trkpt lat="47.875970" lon="7.579183">
        <ele>208.825555</ele>
        <time>2022-01-08T00:04:37.060Z</time>
      </trkpt>
      <trkpt lat="47.876367" lon="7.578087">
        <ele>209.227709</ele>
        <time>2022-01-08T00:04:55.703Z</time>
      </trkpt>
      <trkpt lat="47.877013" lon="7.575890">
        <ele>208.542576</ele>
        <time>2022-01-08T00:05:28.048Z</time>
      </trkpt>
      <trkpt lat="47.877277" lon="7.574913">
        <ele>208.516304</ele>
        <time>2022-01-08T00:05:43.807Z</time>
      </trkpt>
      <trkpt lat="47.877364" lon="7.574571">
        <ele>208.549270</ele>
        <time>2022-01-08T00:05:49.676Z</time>
      </trkpt>
      <trkpt lat="47.877635" lon="7.573648">
        <ele>208.640081</ele>
        <time>2022-01-08T00:06:05.822Z</time>
      </trkpt>
      <trkpt lat="47.878031" lon="7.572568">
        <ele>208.530225</ele>
        <time>2022-01-08T00:06:24.434Z</time>
      </trkpt>
      <trkpt lat="47.878285" lon="7.571654">
        <ele>208.288582</ele>
        <time>2022-01-08T00:06:38.001Z</time>
      </trkpt>
      <trkpt lat="47.878608" lon="7.570148">
        <ele>207.997487</ele>
        <time>2022-01-08T00:06:59.378Z</time>
      </trkpt>
      <trkpt lat="47.878981" lon="7.568863">
        <ele>207.897970</ele>
        <time>2022-01-08T00:07:19.502Z</time>
      </trkpt>
      <trkpt lat="47.879146" lon="7.568252">
        <ele>207.851156</ele>
        <time>2022-01-08T00:07:29.971Z</time>
      </trkpt>
      <trkpt lat="47.879265" lon="7.567814">
        <ele>207.993034</ele>
        <time>2022-01-08T00:07:37.891Z</time>
      </trkpt>
      <trkpt lat="47.879300" lon="7.567690">
        <ele>208.042670</ele>
        <time>2022-01-08T00:07:40.188Z</time>
      </trkpt>
      <trkpt lat="47.879783" lon="7.565902">
        <ele>208.753841</ele>
        <time>2022-01-08T00:08:12.118Z</time>
      </trkpt>
      <trkpt lat="47.880044" lon="7.564599">
        <ele>209.061027</ele>
        <time>2022-01-08T00:08:33.974Z</time>
      </trkpt>
      <trkpt lat="47.880277" lon="7.560913">
        <ele>209.634574</ele>
        <time>2022-01-08T00:09:30.735Z</time>
      </trkpt>
      <trkpt lat="47.880451" lon="7.560216">
        <ele>209.702492</ele>
        <time>2022-01-08T00:09:42.466Z</time>
      </trkpt>
      <trkpt lat="47.880535" lon="7.559936">
        <ele>209.706841</ele>
        <time>2022-01-08T00:09:48.652Z</time>
      </trkpt>
      <trkpt lat="47.880780" lon="7.560082">
        <ele>209.712418</ele>
        <time>2022-01-08T00:09:54.897Z</time>
      </trkpt>
      <trkpt lat="47.881827" lon="7.561014">
        <ele>209.710684</ele>
        <time>2022-01-08T00:10:21.725Z</time>
      </trkpt>
      <trkpt lat="47.881994" lon="7.561076">
        <ele>209.592348</ele>
        <time>2022-01-08T00:10:25.392Z</time>
      </trkpt>
      <trkpt lat="47.882284" lon="7.561121">
        <ele>209.391864</ele>
        <time>2022-01-08T00:10:35.673Z</time>
      </trkpt>
      <trkpt lat="47.882495" lon="7.561283">
        <ele>209.228674</ele>
        <time>2022-01-08T00:10:43.899Z</time>
      </trkpt>
      <trkpt lat="47.883381" lon="7.562309">
        <ele>208.466988</ele>
        <time>2022-01-08T00:11:22.068Z</time>
      </trkpt>
      <trkpt lat="47.883843" lon="7.562929">
        <ele>208.135153</ele>
        <time>2022-01-08T00:11:43.278Z</time>
      </trkpt>
      <trkpt lat="47.884629" lon="7.564107">
        <ele>207.540383</ele>
        <time>2022-01-08T00:12:22.900Z</time>
      </trkpt>
      <trkpt lat="47.885362" lon="7.565412">
        <ele>207.656494</ele>
        <time>2022-01-08T00:13:06.013Z</time>
      </trkpt>
      <trkpt lat="47.885859" lon="7.566429">
        <ele>207.721052</ele>
        <time>2022-01-08T00:13:38.118Z</time>
      </trkpt>
      <trkpt lat="47.886556" lon="7.568138">
        <ele>207.704964</ele>
        <time>2022-01-08T00:14:27.825Z</time>
      </trkpt>
      <trkpt lat="47.887270" lon="7.570184">
        <ele>207.321440</ele>
        <time>2022-01-08T00:15:23.646Z</time>
      </trkpt>
      <trkpt lat="47.888250" lon="7.572504">
        <ele>206.729803</ele>
        <time>2022-01-08T00:16:28.900Z</time>
      </trkpt>
      <trkpt lat="47.888393" lon="7.572841">
        <ele>206.641220</ele>
        <time>2022-01-08T00:16:38.421Z</time>
      </trkpt>
      <trkpt lat="47.889586" lon="7.575000">
        <ele>206.673825</ele>
        <time>2022-01-08T00:17:48.015Z</time>
      </trkpt>
      <trkpt lat="47.890261" lon="7.576065">
        <ele>206.784692</ele>
        <time>2022-01-08T00:18:25.665Z</time>
      </trkpt>
      <trkpt lat="47.891689" lon="7.578026">
        <ele>206.680777</ele>
        <time>2022-01-08T00:19:37.741Z</time>
      </trkpt>
      <trkpt lat="47.892999" lon="7.579467">
        <ele>206.192549</ele>
        <time>2022-01-08T00:20:35.233Z</time>
      </trkpt>
      <trkpt lat="47.894007" lon="7.580454">
        <ele>205.815726</ele>
        <time>2022-01-08T00:21:18.323Z</time>
      </trkpt>
      <trkpt lat="47.895963" lon="7.581995">
        <ele>205.770148</ele>
        <time>2022-01-08T00:22:40.960Z</time>
      </trkpt>
      <trkpt lat="47.897155" lon="7.582722">
        <ele>205.752072</ele>
        <time>2022-01-08T00:23:28.399Z</time>
      </trkpt>
      <trkpt lat="47.898722" lon="7.583458">
        <ele>205.523063</ele>
        <time>2022-01-08T00:24:28.082Z</time>
      </trkpt>
      <trkpt lat="47.899920" lon="7.583873">
        <ele>205.464221</ele>
        <time>2022-01-08T00:25:13.570Z</time>
      </trkpt>
      <trkpt lat="47.901687" lon="7.584282">
        <ele>205.285239</ele>
        <time>2022-01-08T00:26:20.035Z</time>
      </trkpt>
      <trkpt lat="47.903420" lon="7.584452">
        <ele>204.554461</ele>
        <time>2022-01-08T00:27:21.433Z</time>
      </trkpt>
      <trkpt lat="47.904804" lon="7.584419">
        <ele>203.813421</ele>
        <time>2022-01-08T00:28:08.993Z</time>
      </trkpt>
      <trkpt lat="47.906104" lon="7.584246">
        <ele>203.318144</ele>
        <time>2022-01-08T00:28:55.529Z</time>
      </trkpt>
      <trkpt lat="47.907862" lon="7.583950">
        <ele>203.601781</ele>
        <time>2022-01-08T00:30:03.498Z</time>
      </trkpt>
      <trkpt lat="47.908100" lon="7.584169">
        <ele>203.586855</ele>
        <time>2022-01-08T00:30:14.399Z</time>
      </trkpt>
      <trkpt lat="47.908227" lon="7.585160">
        <ele>203.550756</ele>
        <time>2022-01-08T00:30:39.152Z</time>
      </trkpt>
      <trkpt lat="47.908322" lon="7.585133">
        <ele>203.545594</ele>
        <time>2022-01-08T00:30:42.758Z</time>
      </trkpt>
      <trkpt lat="47.908374" lon="7.585081">
        <ele>203.542253</ele>
        <time>2022-01-08T00:30:44.078Z</time>
      </trkpt>
      <trkpt lat="47.908439" lon="7.585023">
        <ele>203.538210</ele>
        <time>2022-01-08T00:30:45.874Z</time>
      </trkpt>
      <trkpt lat="47.908418" lon="7.584207">
        <ele>203.496747</ele>
        <time>2022-01-08T00:30:58.859Z</time>
      </trkpt>
      <trkpt lat="47.908473" lon="7.583976">
        <ele>203.472605</ele>
        <time>2022-01-08T00:31:02.542Z</time>
      </trkpt>
      <trkpt lat="47.908672" lon="7.583814">
        <ele>203.439299</ele>
        <time>2022-01-08T00:31:07.731Z</time>
      </trkpt>
      <trkpt lat="47.919853" lon="7.581987">
        <ele>202.225016</ele>
        <time>2022-01-08T00:35:39.942Z</time>
      </trkpt>
      <trkpt lat="47.922178" lon="7.581912">
        <ele>203.534177</ele>
        <time>2022-01-08T00:36:45.052Z</time>
      </trkpt>
      <trkpt lat="47.924394" lon="7.582127">
        <ele>204.280505</ele>
        <time>2022-01-08T00:37:42.900Z</time>
      </trkpt>
      <trkpt lat="47.925863" lon="7.582422">
        <ele>204.225945</ele>
        <time>2022-01-08T00:38:18.590Z</time>
      </trkpt>
      <trkpt lat="47.927315" lon="7.582859">
        <ele>204.299547</ele>
        <time>2022-01-08T00:38:55.139Z</time>
      </trkpt>
      <trkpt lat="47.929734" lon="7.583877">
        <ele>204.594977</ele>
        <time>2022-01-08T00:39:59.878Z</time>
      </trkpt>
      <trkpt lat="47.931463" lon="7.584815">
        <ele>203.987279</ele>
        <time>2022-01-08T00:40:42.371Z</time>
      </trkpt>
      <trkpt lat="47.932592" lon="7.585582">
        <ele>203.459739</ele>
        <time>2022-01-08T00:41:10.719Z</time>
      </trkpt>
      <trkpt lat="47.933974" lon="7.586627">
        <ele>203.511152</ele>
        <time>2022-01-08T00:41:48.630Z</time>
      </trkpt>
      <trkpt lat="47.935662" lon="7.588119">
        <ele>204.629776</ele>
        <time>2022-01-08T00:42:42.032Z</time>
      </trkpt>
      <trkpt lat="47.937191" lon="7.589776">
        <ele>205.999147</ele>
        <time>2022-01-08T00:43:36.620Z</time>
      </trkpt>
      <trkpt lat="47.938682" lon="7.591635">
        <ele>205.495313</ele>
        <time>2022-01-08T00:44:22.910Z</time>
      </trkpt>
      <trkpt lat="47.939671" lon="7.592976">
        <ele>203.450307</ele>
        <time>2022-01-08T00:44:49.679Z</time>
      </trkpt>
      <trkpt lat="47.940536" lon="7.594074">
        <ele>202.007258</ele>
        <time>2022-01-08T00:45:12.774Z</time>
      </trkpt>
      <trkpt lat="47.940712" lon="7.594411">
        <ele>201.784663</ele>
        <time>2022-01-08T00:45:19.108Z</time>
      </trkpt>
      <trkpt lat="47.940985" lon="7.594676">
        <ele>201.531439</ele>
        <time>2022-01-08T00:45:26.691Z</time>
      </trkpt>
      <trkpt lat="47.941306" lon="7.595114">
        <ele>201.193261</ele>
        <time>2022-01-08T00:45:36.973Z</time>
      </trkpt>
      <trkpt lat="47.941413" lon="7.595298">
        <ele>201.066336</ele>
        <time>2022-01-08T00:45:40.826Z</time>
      </trkpt>
      <trkpt lat="47.941596" lon="7.596258">
        <ele>200.825180</ele>
        <time>2022-01-08T00:45:56.927Z</time>
      </trkpt>
      <trkpt lat="47.941732" lon="7.596579">
        <ele>200.746836</ele>
        <time>2022-01-08T00:46:02.937Z</time>
      </trkpt>
      <trkpt lat="47.942142" lon="7.597061">
        <ele>200.586142</ele>
        <time>2022-01-08T00:46:15.141Z</time>
      </trkpt>
      <trkpt lat="47.942335" lon="7.597129">
        <ele>200.525081</ele>
        <time>2022-01-08T00:46:19.781Z</time>
      </trkpt>
      <trkpt lat="47.942706" lon="7.597635">
        <ele>200.468274</ele>
        <time>2022-01-08T00:46:37.736Z</time>
      </trkpt>
      <trkpt lat="47.942758" lon="7.597839">
        <ele>200.475892</ele>
        <time>2022-01-08T00:46:42.980Z</time>
      </trkpt>
      <trkpt lat="47.942919" lon="7.597785">
        <ele>200.484489</ele>
        <time>2022-01-08T00:46:48.859Z</time>
      </trkpt>
      <trkpt lat="47.943124" lon="7.597867">
        <ele>200.495547</ele>
        <time>2022-01-08T00:46:56.595Z</time>
      </trkpt>
      <trkpt lat="47.943482" lon="7.598358">
        <ele>200.520876</ele>
        <time>2022-01-08T00:47:14.838Z</time>
      </trkpt>
      <trkpt lat="47.944052" lon="7.599146">
        <ele>200.664084</ele>
        <time>2022-01-08T00:47:35.255Z</time>
      </trkpt>
      <trkpt lat="47.944529" lon="7.599501">
        <ele>200.902576</ele>
        <time>2022-01-08T00:47:50.056Z</time>
      </trkpt>
      <trkpt lat="47.944859" lon="7.599734">
        <ele>201.065920</ele>
        <time>2022-01-08T00:48:04.628Z</time>
      </trkpt>
      <trkpt lat="47.948201" lon="7.604134">
        <ele>202.120571</ele>
        <time>2022-01-08T00:50:54.054Z</time>
      </trkpt>
      <trkpt lat="47.950858" lon="7.607562">
        <ele>201.184175</ele>
        <time>2022-01-08T00:52:59.727Z</time>
      </trkpt>
      <trkpt lat="47.951994" lon="7.608925">
        <ele>200.997323</ele>
        <time>2022-01-08T00:53:53.656Z</time>
      </trkpt>
      <trkpt lat="47.953703" lon="7.610771">
        <ele>200.212381</ele>
        <time>2022-01-08T00:54:43.041Z</time>
      </trkpt>
      <trkpt lat="47.955028" lon="7.612032">
        <ele>199.312415</ele>
        <time>2022-01-08T00:55:17.969Z</time>
      </trkpt>
      <trkpt lat="47.956920" lon="7.613711">
        <ele>199.291608</ele>
        <time>2022-01-08T00:56:13.004Z</time>
      </trkpt>
      <trkpt lat="47.957851" lon="7.614442">
        <ele>199.511353</ele>
        <time>2022-01-08T00:56:40.981Z</time>
      </trkpt>
      <trkpt lat="47.964860" lon="7.619844">
        <ele>198.902273</ele>
        <time>2022-01-08T00:59:52.004Z</time>
      </trkpt>
      <trkpt lat="47.965437" lon="7.620329">
        <ele>199.143156</ele>
        <time>2022-01-08T01:00:18.057Z</time>
      </trkpt>
      <trkpt lat="47.966558" lon="7.621098">
        <ele>199.449658</ele>
        <time>2022-01-08T01:01:06.013Z</time>
      </trkpt>
      <trkpt lat="47.968055" lon="7.621906">
        <ele>199.301192</ele>
        <time>2022-01-08T01:02:03.668Z</time>
      </trkpt>
      <trkpt lat="47.969609" lon="7.622595">
        <ele>198.899049</ele>
        <time>2022-01-08T01:03:02.111Z</time>
      </trkpt>
      <trkpt lat="47.971570" lon="7.623121">
        <ele>198.617353</ele>
        <time>2022-01-08T01:04:14.204Z</time>
      </trkpt>
      <trkpt lat="47.973812" lon="7.623382">
        <ele>200.052324</ele>
        <time>2022-01-08T01:05:42.423Z</time>
      </trkpt>
      <trkpt lat="47.973821" lon="7.623564">
        <ele>200.203301</ele>
        <time>2022-01-08T01:05:47.947Z</time>
      </trkpt>
      <trkpt lat="47.973764" lon="7.624478">
        <ele>200.962717</ele>
        <time>2022-01-08T01:06:07.072Z</time>
      </trkpt>
      <trkpt lat="47.973695" lon="7.625207">
        <ele>201.562535</ele>
        <time>2022-01-08T01:06:22.127Z</time>
      </trkpt>
      <trkpt lat="47.973492" lon="7.625856">
        <ele>201.706211</ele>
        <time>2022-01-08T01:06:36.767Z</time>
      </trkpt>
      <trkpt lat="47.973405" lon="7.626491">
        <ele>201.836213</ele>
        <time>2022-01-08T01:06:48.981Z</time>
      </trkpt>
      <trkpt lat="47.973353" lon="7.626927">
        <ele>201.925039</ele>
        <time>2022-01-08T01:06:56.034Z</time>
      </trkpt>
      <trkpt lat="47.973359" lon="7.627314">
        <ele>202.002681</ele>
        <time>2022-01-08T01:07:01.956Z</time>
      </trkpt>
      <trkpt lat="47.973427" lon="7.627636">
        <ele>202.070401</ele>
        <time>2022-01-08T01:07:06.916Z</time>
      </trkpt>
      <trkpt lat="47.973629" lon="7.627859">
        <ele>201.937365</ele>
        <time>2022-01-08T01:07:12.412Z</time>
      </trkpt>
      <trkpt lat="47.973931" lon="7.627805">
        <ele>201.626587</ele>
        <time>2022-01-08T01:07:19.101Z</time>
      </trkpt>
      <trkpt lat="47.974688" lon="7.627198">
        <ele>200.748707</ele>
        <time>2022-01-08T01:07:38.034Z</time>
      </trkpt>
      <trkpt lat="47.975382" lon="7.626342">
        <ele>199.597137</ele>
        <time>2022-01-08T01:07:56.712Z</time>
      </trkpt>
      <trkpt lat="47.975888" lon="7.624794">
        <ele>197.785391</ele>
        <time>2022-01-08T01:08:20.019Z</time>
      </trkpt>
      <trkpt lat="47.975963" lon="7.624666">
        <ele>197.606492</ele>
        <time>2022-01-08T01:08:22.327Z</time>
      </trkpt>
      <trkpt lat="47.976231" lon="7.624406">
        <ele>197.305251</ele>
        <time>2022-01-08T01:08:28.980Z</time>
      </trkpt>
      <trkpt lat="47.976430" lon="7.624364">
        <ele>197.181345</ele>
        <time>2022-01-08T01:08:33.269Z</time>
      </trkpt>
      <trkpt lat="47.976932" lon="7.624305">
        <ele>196.870896</ele>
        <time>2022-01-08T01:08:44.194Z</time>
      </trkpt>
      <trkpt lat="47.978208" lon="7.623930">
        <ele>196.453972</ele>
        <time>2022-01-08T01:09:16.408Z</time>
      </trkpt>
      <trkpt lat="47.977914" lon="7.623327">
        <ele>196.607275</ele>
        <time>2022-01-08T01:09:28.281Z</time>
      </trkpt>
      <trkpt lat="47.977892" lon="7.623169">
        <ele>196.640440</ele>
        <time>2022-01-08T01:09:30.895Z</time>
      </trkpt>
      <trkpt lat="47.977845" lon="7.622998">
        <ele>196.678428</ele>
        <time>2022-01-08T01:09:35.655Z</time>
      </trkpt>
      <trkpt lat="47.977974" lon="7.622865">
        <ele>196.726545</ele>
        <time>2022-01-08T01:09:41.712Z</time>
      </trkpt>
      <trkpt lat="47.978318" lon="7.622755">
        <ele>196.834542</ele>
        <time>2022-01-08T01:09:55.393Z</time>
      </trkpt>
      <trkpt lat="47.978679" lon="7.622639">
        <ele>196.987405</ele>
        <time>2022-01-08T01:10:09.822Z</time>
      </trkpt>
      <trkpt lat="47.978889" lon="7.622492">
        <ele>197.098959</ele>
        <time>2022-01-08T01:10:16.060Z</time>
      </trkpt>
      <trkpt lat="47.980639" lon="7.621870">
        <ele>197.746333</ele>
        <time>2022-01-08T01:11:04.166Z</time>
      </trkpt>
      <trkpt lat="47.980900" lon="7.622291">
        <ele>197.748796</ele>
        <time>2022-01-08T01:11:13.742Z</time>
      </trkpt>
      <trkpt lat="47.981140" lon="7.622276">
        <ele>197.750336</ele>
        <time>2022-01-08T01:11:19.609Z</time>
      </trkpt>
      <trkpt lat="47.981225" lon="7.622233">
        <ele>197.750912</ele>
        <time>2022-01-08T01:11:21.795Z</time>
      </trkpt>
      <trkpt lat="47.981421" lon="7.621777">
        <ele>197.753238</ele>
        <time>2022-01-08T01:11:30.442Z</time>
      </trkpt>
      <trkpt lat="47.981611" lon="7.621544">
        <ele>197.754814</ele>
        <time>2022-01-08T01:11:36.177Z</time>
      </trkpt>
      <trkpt lat="47.985825" lon="7.619933">
        <ele>195.890307</ele>
        <time>2022-01-08T01:13:16.198Z</time>
      </trkpt>
      <trkpt lat="47.987756" lon="7.619057">
        <ele>195.808711</ele>
        <time>2022-01-08T01:14:05.788Z</time>
      </trkpt>
      <trkpt lat="47.990252" lon="7.617747">
        <ele>196.662151</ele>
        <time>2022-01-08T01:15:15.575Z</time>
      </trkpt>
      <trkpt lat="47.993612" lon="7.615706">
        <ele>197.261623</ele>
        <time>2022-01-08T01:16:48.779Z</time>
      </trkpt>
      <trkpt lat="47.995974" lon="7.613978">
        <ele>195.008884</ele>
        <time>2022-01-08T01:17:44.735Z</time>
      </trkpt>
      <trkpt lat="47.997916" lon="7.612500">
        <ele>194.496708</ele>
        <time>2022-01-08T01:19:05.210Z</time>
      </trkpt>
      <trkpt lat="47.999272" lon="7.611341">
        <ele>194.305220</ele>
        <time>2022-01-08T01:20:04.455Z</time>
      </trkpt>
      <trkpt lat="48.000971" lon="7.609790">
        <ele>193.513981</ele>
        <time>2022-01-08T01:21:13.289Z</time>
      </trkpt>
      <trkpt lat="48.002761" lon="7.608028">
        <ele>193.165938</ele>
        <time>2022-01-08T01:22:31.046Z</time>
      </trkpt>
      <trkpt lat="48.004653" lon="7.606012">
        <ele>194.245424</ele>
        <time>2022-01-08T01:24:03.372Z</time>
      </trkpt>
      <trkpt lat="48.006109" lon="7.604348">
        <ele>194.391659</ele>
        <time>2022-01-08T01:25:12.793Z</time>
      </trkpt>
      <trkpt lat="48.010601" lon="7.598720">
        <ele>189.883115</ele>
        <time>2022-01-08T01:28:32.776Z</time>
      </trkpt>
      <trkpt lat="48.011764" lon="7.597271">
        <ele>189.371642</ele>
        <time>2022-01-08T01:29:04.843Z</time>
      </trkpt>
      <trkpt lat="48.018425" lon="7.588903">
        <ele>189.917450</ele>
        <time>2022-01-08T01:32:21.204Z</time>
      </trkpt>
      <trkpt lat="48.019175" lon="7.587952">
        <ele>189.998647</ele>
        <time>2022-01-08T01:32:43.745Z</time>
      </trkpt>
      <trkpt lat="48.019508" lon="7.587696">
        <ele>190.029563</ele>
        <time>2022-01-08T01:32:52.173Z</time>
      </trkpt>
      <trkpt lat="48.020186" lon="7.586750">
        <ele>189.576644</ele>
        <time>2022-01-08T01:33:12.362Z</time>
      </trkpt>
      <trkpt lat="48.020953" lon="7.586205">
        <ele>188.986272</ele>
        <time>2022-01-08T01:33:29.573Z</time>
      </trkpt>
      <trkpt lat="48.022698" lon="7.583791">
        <ele>185.389787</ele>
        <time>2022-01-08T01:34:11.374Z</time>
      </trkpt>
      <trkpt lat="48.022830" lon="7.583584">
        <ele>185.369987</ele>
        <time>2022-01-08T01:34:14.907Z</time>
      </trkpt>
      <trkpt lat="48.022905" lon="7.583595">
        <ele>185.362186</ele>
        <time>2022-01-08T01:34:16.294Z</time>
      </trkpt>
      <trkpt lat="48.023340" lon="7.582793">
        <ele>185.290701</ele>
        <time>2022-01-08T01:34:31.204Z</time>
      </trkpt>
      <trkpt lat="48.023725" lon="7.582208">
        <ele>185.277073</ele>
        <time>2022-01-08T01:34:46.310Z</time>
      </trkpt>
      <trkpt lat="48.025246" lon="7.580241">
        <ele>189.625925</ele>
        <time>2022-01-08T01:35:52.350Z</time>
      </trkpt>
      <trkpt lat="48.025459" lon="7.579970">
        <ele>189.837712</ele>
        <time>2022-01-08T01:35:59.487Z</time>
      </trkpt>
      <trkpt lat="48.025511" lon="7.579932">
        <ele>189.881540</ele>
        <time>2022-01-08T01:36:01.116Z</time>
      </trkpt>
      <trkpt lat="48.025583" lon="7.579879">
        <ele>189.942312</ele>
        <time>2022-01-08T01:36:03.274Z</time>
      </trkpt>
      <trkpt lat="48.025760" lon="7.579732">
        <ele>190.095634</ele>
        <time>2022-01-08T01:36:08.071Z</time>
      </trkpt>
      <trkpt lat="48.026428" lon="7.578835">
        <ele>190.775527</ele>
        <time>2022-01-08T01:36:29.463Z</time>
      </trkpt>
      <trkpt lat="48.026619" lon="7.578524">
        <ele>190.849279</ele>
        <time>2022-01-08T01:36:34.909Z</time>
      </trkpt>
      <trkpt lat="48.026852" lon="7.578449">
        <ele>190.885763</ele>
        <time>2022-01-08T01:36:39.416Z</time>
      </trkpt>
      <trkpt lat="48.026935" lon="7.578468">
        <ele>190.898616</ele>
        <time>2022-01-08T01:36:41.230Z</time>
      </trkpt>
      <trkpt lat="48.027034" lon="7.578543">
        <ele>190.915604</ele>
        <time>2022-01-08T01:36:43.710Z</time>
      </trkpt>
      <trkpt lat="48.027178" lon="7.578789">
        <ele>190.949073</ele>
        <time>2022-01-08T01:36:48.779Z</time>
      </trkpt>
      <trkpt lat="48.027566" lon="7.579497">
        <ele>191.042779</ele>
        <time>2022-01-08T01:37:04.226Z</time>
      </trkpt>
      <trkpt lat="48.027627" lon="7.579614">
        <ele>191.057967</ele>
        <time>2022-01-08T01:37:06.939Z</time>
      </trkpt>
      <trkpt lat="48.028031" lon="7.580364">
        <ele>190.885980</ele>
        <time>2022-01-08T01:37:22.178Z</time>
      </trkpt>
      <trkpt lat="48.028094" lon="7.580245">
        <ele>190.839180</ele>
        <time>2022-01-08T01:37:24.273Z</time>
      </trkpt>
      <trkpt lat="48.028154" lon="7.580102">
        <ele>190.787125</ele>
        <time>2022-01-08T01:37:26.328Z</time>
      </trkpt>
      <trkpt lat="48.028264" lon="7.579804">
        <ele>190.682168</ele>
        <time>2022-01-08T01:37:30.588Z</time>
      </trkpt>
      <trkpt lat="48.028627" lon="7.578436">
        <ele>190.240763</ele>
        <time>2022-01-08T01:37:50.345Z</time>
      </trkpt>
      <trkpt lat="48.028800" lon="7.577840">
        <ele>190.119491</ele>
        <time>2022-01-08T01:37:59.073Z</time>
      </trkpt>
      <trkpt lat="48.029024" lon="7.577053">
        <ele>189.959846</ele>
        <time>2022-01-08T01:38:10.762Z</time>
      </trkpt>
      <trkpt lat="48.029350" lon="7.576555">
        <ele>189.829773</ele>
        <time>2022-01-08T01:38:20.894Z</time>
      </trkpt>
      <trkpt lat="48.029753" lon="7.576042">
        <ele>189.923786</ele>
        <time>2022-01-08T01:38:33.398Z</time>
      </trkpt>
      <trkpt lat="48.029905" lon="7.575854">
        <ele>190.044456</ele>
        <time>2022-01-08T01:38:38.618Z</time>
      </trkpt>
      <trkpt lat="48.030613" lon="7.574972">
        <ele>190.608174</ele>
        <time>2022-01-08T01:39:02.069Z</time>
      </trkpt>
      <trkpt lat="48.031002" lon="7.574480">
        <ele>190.806913</ele>
        <time>2022-01-08T01:39:15.259Z</time>
      </trkpt>
      <trkpt lat="48.031853" lon="7.573308">
        <ele>190.220320</ele>
        <time>2022-01-08T01:39:39.279Z</time>
      </trkpt>
      <trkpt lat="48.032200" lon="7.572920">
        <ele>190.000634</ele>
        <time>2022-01-08T01:39:47.611Z</time>
      </trkpt>
      <trkpt lat="48.032347" lon="7.572882">
        <ele>189.887711</ele>
        <time>2022-01-08T01:39:50.177Z</time>
      </trkpt>
      <trkpt lat="48.032836" lon="7.572485">
        <ele>189.107767</ele>
        <time>2022-01-08T01:40:00.611Z</time>
      </trkpt>
      <trkpt lat="48.033616" lon="7.572034">
        <ele>187.935540</ele>
        <time>2022-01-08T01:40:15.499Z</time>
      </trkpt>
      <trkpt lat="48.034483" lon="7.571714">
        <ele>187.373337</ele>
        <time>2022-01-08T01:40:33.074Z</time>
      </trkpt>
      <trkpt lat="48.034885" lon="7.571622">
        <ele>187.333663</ele>
        <time>2022-01-08T01:40:41.914Z</time>
      </trkpt>
      <trkpt lat="48.035867" lon="7.571484">
        <ele>187.303038</ele>
        <time>2022-01-08T01:41:05.573Z</time>
      </trkpt>
      <trkpt lat="48.036909" lon="7.571467">
        <ele>187.756671</ele>
        <time>2022-01-08T01:41:31.474Z</time>
      </trkpt>
      <trkpt lat="48.037728" lon="7.571576">
        <ele>187.988389</ele>
        <time>2022-01-08T01:41:50.781Z</time>
      </trkpt>
      <trkpt lat="48.038988" lon="7.572017">
        <ele>187.686383</ele>
        <time>2022-01-08T01:42:18.190Z</time>
      </trkpt>
      <trkpt lat="48.040255" lon="7.572604">
        <ele>187.252713</ele>
        <time>2022-01-08T01:42:45.418Z</time>
      </trkpt>
      <trkpt lat="48.040365" lon="7.572655">
        <ele>187.211692</ele>
        <time>2022-01-08T01:42:47.790Z</time>
      </trkpt>
      <trkpt lat="48.041881" lon="7.573359">
        <ele>186.804947</ele>
        <time>2022-01-08T01:43:22.109Z</time>
      </trkpt>
      <trkpt lat="48.042792" lon="7.574023">
        <ele>186.583345</ele>
        <time>2022-01-08T01:43:44.206Z</time>
      </trkpt>
      <trkpt lat="48.043074" lon="7.574352">
        <ele>186.417061</ele>
        <time>2022-01-08T01:43:51.592Z</time>
      </trkpt>
      <trkpt lat="48.043359" lon="7.574921">
        <ele>186.196056</ele>
        <time>2022-01-08T01:44:01.366Z</time>
      </trkpt>
      <trkpt lat="48.043531" lon="7.575528">
        <ele>185.991123</ele>
        <time>2022-01-08T01:44:10.365Z</time>
      </trkpt>
      <trkpt lat="48.043526" lon="7.575824">
        <ele>185.899083</ele>
        <time>2022-01-08T01:44:14.232Z</time>
      </trkpt>
      <trkpt lat="48.043637" lon="7.575805">
        <ele>185.847136</ele>
        <time>2022-01-08T01:44:16.597Z</time>
      </trkpt>
      <trkpt lat="48.044030" lon="7.575742">
        <ele>185.706678</ele>
        <time>2022-01-08T01:44:24.586Z</time>
      </trkpt>
      <trkpt lat="48.044502" lon="7.575743">
        <ele>185.553328</ele>
        <time>2022-01-08T01:44:34.114Z</time>
      </trkpt>
      <trkpt lat="48.045007" lon="7.576041">
        <ele>185.376950</ele>
        <time>2022-01-08T01:44:45.476Z</time>
      </trkpt>
      <trkpt lat="48.045672" lon="7.576548">
        <ele>185.396780</ele>
        <time>2022-01-08T01:45:02.571Z</time>
      </trkpt>
      <trkpt lat="48.045964" lon="7.576430">
        <ele>185.590343</ele>
        <time>2022-01-08T01:45:14.190Z</time>
      </trkpt>
      <trkpt lat="48.046730" lon="7.576110">
        <ele>186.099297</ele>
        <time>2022-01-08T01:45:45.994Z</time>
      </trkpt>
      <trkpt lat="48.047336" lon="7.575773">
        <ele>186.636994</ele>
        <time>2022-01-08T01:46:12.330Z</time>
      </trkpt>
      <trkpt lat="48.047476" lon="7.575695">
        <ele>186.817723</ele>
        <time>2022-01-08T01:46:18.794Z</time>
      </trkpt>
      <trkpt lat="48.047523" lon="7.575197">
        <ele>187.224462</ele>
        <time>2022-01-08T01:46:33.271Z</time>
      </trkpt>
      <trkpt lat="48.048129" lon="7.574795">
        <ele>188.026414</ele>
        <time>2022-01-08T01:47:01.519Z</time>
      </trkpt>
      <trkpt lat="48.048516" lon="7.574912">
        <ele>188.504047</ele>
        <time>2022-01-08T01:47:17.858Z</time>
      </trkpt>
      <trkpt lat="48.048651" lon="7.574984">
        <ele>188.601786</ele>
        <time>2022-01-08T01:47:23.958Z</time>
      </trkpt>
      <trkpt lat="48.048989" lon="7.575164">
        <ele>188.778787</ele>
        <time>2022-01-08T01:47:38.239Z</time>
      </trkpt>
      <trkpt lat="48.049230" lon="7.575175">
        <ele>188.897738</ele>
        <time>2022-01-08T01:47:47.545Z</time>
      </trkpt>
      <trkpt lat="48.049537" lon="7.575091">
        <ele>189.051707</ele>
        <time>2022-01-08T01:47:59.780Z</time>
      </trkpt>
      <trkpt lat="48.050267" lon="7.575268">
        <ele>189.416547</ele>
        <time>2022-01-08T01:48:19.349Z</time>
      </trkpt>
      <trkpt lat="48.051505" lon="7.575452">
        <ele>189.183421</ele>
        <time>2022-01-08T01:48:48.734Z</time>
      </trkpt>
      <trkpt lat="48.053153" lon="7.575614">
        <ele>188.799333</ele>
        <time>2022-01-08T01:49:28.001Z</time>
      </trkpt>
      <trkpt lat="48.055187" lon="7.575698">
        <ele>188.527447</ele>
        <time>2022-01-08T01:50:16.368Z</time>
      </trkpt>
      <trkpt lat="48.057305" lon="7.575571">
        <ele>189.077071</ele>
        <time>2022-01-08T01:51:11.567Z</time>
      </trkpt>
      <trkpt lat="48.058668" lon="7.575363">
        <ele>189.487319</ele>
        <time>2022-01-08T01:51:48.397Z</time>
      </trkpt>
      <trkpt lat="48.063850" lon="7.574231">
        <ele>188.784847</ele>
        <time>2022-01-08T01:53:54.046Z</time>
      </trkpt>
      <trkpt lat="48.064508" lon="7.573897">
        <ele>188.641864</ele>
        <time>2022-01-08T01:54:10.673Z</time>
      </trkpt>
      <trkpt lat="48.075841" lon="7.571333">
        <ele>186.931028</ele>
        <time>2022-01-08T01:58:49.186Z</time>
      </trkpt>
      <trkpt lat="48.078169" lon="7.570895">
        <ele>184.738251</ele>
        <time>2022-01-08T01:59:38.809Z</time>
      </trkpt>
      <trkpt lat="48.079432" lon="7.570793">
        <ele>183.989839</ele>
        <time>2022-01-08T02:00:07.305Z</time>
      </trkpt>
      <trkpt lat="48.080455" lon="7.570793">
        <ele>183.869890</ele>
        <time>2022-01-08T02:00:33.241Z</time>
      </trkpt>
      <trkpt lat="48.081666" lon="7.570896">
        <ele>183.917542</ele>
        <time>2022-01-08T02:01:04.557Z</time>
      </trkpt>
      <trkpt lat="48.083384" lon="7.571219">
        <ele>183.971691</ele>
        <time>2022-01-08T02:01:46.083Z</time>
      </trkpt>
      <trkpt lat="48.085224" lon="7.571788">
        <ele>184.582704</ele>
        <time>2022-01-08T02:02:34.111Z</time>
      </trkpt>
      <trkpt lat="48.086532" lon="7.572356">
        <ele>185.418108</ele>
        <time>2022-01-08T02:03:14.025Z</time>
      </trkpt>
      <trkpt lat="48.088270" lon="7.573333">
        <ele>186.075509</ele>
        <time>2022-01-08T02:04:03.068Z</time>
      </trkpt>
      <trkpt lat="48.089099" lon="7.573892">
        <ele>185.912928</ele>
        <time>2022-01-08T02:04:23.934Z</time>
      </trkpt>
      <trkpt lat="48.089362" lon="7.574069">
        <ele>185.810068</ele>
        <time>2022-01-08T02:04:30.436Z</time>
      </trkpt>
      <trkpt lat="48.091157" lon="7.575540">
        <ele>184.239268</ele>
        <time>2022-01-08T02:05:15.182Z</time>
      </trkpt>
      <trkpt lat="48.091507" lon="7.576085">
        <ele>184.095847</ele>
        <time>2022-01-08T02:05:26.604Z</time>
      </trkpt>
      <trkpt lat="48.091661" lon="7.576238">
        <ele>184.043356</ele>
        <time>2022-01-08T02:05:30.830Z</time>
      </trkpt>
      <trkpt lat="48.093578" lon="7.577760">
        <ele>184.353554</ele>
        <time>2022-01-08T02:06:26.995Z</time>
      </trkpt>
      <trkpt lat="48.094059" lon="7.578142">
        <ele>184.575931</ele>
        <time>2022-01-08T02:06:42.176Z</time>
      </trkpt>
      <trkpt lat="48.095267" lon="7.578942">
        <ele>185.212776</ele>
        <time>2022-01-08T02:07:17.819Z</time>
      </trkpt>
      <trkpt lat="48.097856" lon="7.580270">
        <ele>185.750982</ele>
        <time>2022-01-08T02:08:26.141Z</time>
      </trkpt>
      <trkpt lat="48.099863" lon="7.580939">
        <ele>186.167844</ele>
        <time>2022-01-08T02:09:20.477Z</time>
      </trkpt>
      <trkpt lat="48.101487" lon="7.581310">
        <ele>186.051861</ele>
        <time>2022-01-08T02:09:59.413Z</time>
      </trkpt>
      <trkpt lat="48.103644" lon="7.581593">
        <ele>185.285773</ele>
        <time>2022-01-08T02:10:51.245Z</time>
      </trkpt>
      <trkpt lat="48.105641" lon="7.581786">
        <ele>183.868855</ele>
        <time>2022-01-08T02:11:35.211Z</time>
      </trkpt>
      <trkpt lat="48.105856" lon="7.581916">
        <ele>183.673876</ele>
        <time>2022-01-08T02:11:40.306Z</time>
      </trkpt>
      <trkpt lat="48.105863" lon="7.581984">
        <ele>183.635240</ele>
        <time>2022-01-08T02:11:41.911Z</time>
      </trkpt>
      <trkpt lat="48.105851" lon="7.582225">
        <ele>183.499535</ele>
        <time>2022-01-08T02:11:47.497Z</time>
      </trkpt>
      <trkpt lat="48.105853" lon="7.582406">
        <ele>183.403803</ele>
        <time>2022-01-08T02:11:51.673Z</time>
      </trkpt>
      <trkpt lat="48.105917" lon="7.582588">
        <ele>183.324322</ele>
        <time>2022-01-08T02:11:56.499Z</time>
      </trkpt>
      <trkpt lat="48.106487" lon="7.582730">
        <ele>182.989952</ele>
        <time>2022-01-08T02:12:08.164Z</time>
      </trkpt>
      <trkpt lat="48.106846" lon="7.582691">
        <ele>182.781667</ele>
        <time>2022-01-08T02:12:15.420Z</time>
      </trkpt>
      <trkpt lat="48.107000" lon="7.582646">
        <ele>182.690872</ele>
        <time>2022-01-08T02:12:20.957Z</time>
      </trkpt>
      <trkpt lat="48.107407" lon="7.582502">
        <ele>182.448873</ele>
        <time>2022-01-08T02:12:35.868Z</time>
      </trkpt>
      <trkpt lat="48.108758" lon="7.581078">
        <ele>181.550056</ele>
        <time>2022-01-08T02:13:33.796Z</time>
      </trkpt>
      <trkpt lat="48.109373" lon="7.580578">
        <ele>181.483529</ele>
        <time>2022-01-08T02:13:58.269Z</time>
      </trkpt>
      <trkpt lat="48.114743" lon="7.578952">
        <ele>183.125655</ele>
        <time>2022-01-08T02:17:28.013Z</time>
      </trkpt>
      <trkpt lat="48.114975" lon="7.578877">
        <ele>183.332521</ele>
        <time>2022-01-08T02:17:35.091Z</time>
      </trkpt>
      <trkpt lat="48.116450" lon="7.578427">
        <ele>184.423250</ele>
        <time>2022-01-08T02:18:19.197Z</time>
      </trkpt>
      <trkpt lat="48.117606" lon="7.578277">
        <ele>184.869136</ele>
        <time>2022-01-08T02:18:49.706Z</time>
      </trkpt>
      <trkpt lat="48.118381" lon="7.578316">
        <ele>184.418908</ele>
        <time>2022-01-08T02:19:06.862Z</time>
      </trkpt>
      <trkpt lat="48.119782" lon="7.578581">
        <ele>183.225501</ele>
        <time>2022-01-08T02:19:37.273Z</time>
      </trkpt>
      <trkpt lat="48.120987" lon="7.579204">
        <ele>182.420739</ele>
        <time>2022-01-08T02:20:05.568Z</time>
      </trkpt>
      <trkpt lat="48.121927" lon="7.579637">
        <ele>182.386881</ele>
        <time>2022-01-08T02:20:30.226Z</time>
      </trkpt>
      <trkpt lat="48.122707" lon="7.580178">
        <ele>182.603872</ele>
        <time>2022-01-08T02:20:52.638Z</time>
      </trkpt>
      <trkpt lat="48.123337" lon="7.580719">
        <ele>182.864816</ele>
        <time>2022-01-08T02:21:12.049Z</time>
      </trkpt>
      <trkpt lat="48.124225" lon="7.581671">
        <ele>183.328308</ele>
        <time>2022-01-08T02:21:41.417Z</time>
      </trkpt>
      <trkpt lat="48.125377" lon="7.583259">
        <ele>183.342924</ele>
        <time>2022-01-08T02:22:20.278Z</time>
      </trkpt>
      <trkpt lat="48.126248" lon="7.584889">
        <ele>183.309708</ele>
        <time>2022-01-08T02:22:53.001Z</time>
      </trkpt>
      <trkpt lat="48.126862" lon="7.586389">
        <ele>183.546046</ele>
        <time>2022-01-08T02:23:22.915Z</time>
      </trkpt>
      <trkpt lat="48.127671" lon="7.589009">
        <ele>184.948662</ele>
        <time>2022-01-08T02:24:18.588Z</time>
      </trkpt>
      <trkpt lat="48.128572" lon="7.591492">
        <ele>185.171771</ele>
        <time>2022-01-08T02:25:05.916Z</time>
      </trkpt>
      <trkpt lat="48.129166" lon="7.592831">
        <ele>184.659433</ele>
        <time>2022-01-08T02:25:29.963Z</time>
      </trkpt>
      <trkpt lat="48.129680" lon="7.593773">
        <ele>184.385543</ele>
        <time>2022-01-08T02:25:48.063Z</time>
      </trkpt>
      <trkpt lat="48.130544" lon="7.595164">
        <ele>184.025158</ele>
        <time>2022-01-08T02:26:18.928Z</time>
      </trkpt>
      <trkpt lat="48.131191" lon="7.596067">
        <ele>183.737550</ele>
        <time>2022-01-08T02:26:41.276Z</time>
      </trkpt>
      <trkpt lat="48.132755" lon="7.597962">
        <ele>182.400241</ele>
        <time>2022-01-08T02:27:26.225Z</time>
      </trkpt>
      <trkpt lat="48.133446" lon="7.598651">
        <ele>181.791061</ele>
        <time>2022-01-08T02:27:43.653Z</time>
      </trkpt>
      <trkpt lat="48.133951" lon="7.599091">
        <ele>181.749007</ele>
        <time>2022-01-08T02:28:03.680Z</time>
      </trkpt>
      <trkpt lat="48.134966" lon="7.599825">
        <ele>181.785654</ele>
        <time>2022-01-08T02:28:47.173Z</time>
      </trkpt>
      <trkpt lat="48.135694" lon="7.600288">
        <ele>182.719157</ele>
        <time>2022-01-08T02:29:21.669Z</time>
      </trkpt>
      <trkpt lat="48.136841" lon="7.600884">
        <ele>183.834206</ele>
        <time>2022-01-08T02:30:12.746Z</time>
      </trkpt>
      <trkpt lat="48.138033" lon="7.601361">
        <ele>183.984230</ele>
        <time>2022-01-08T02:30:58.069Z</time>
      </trkpt>
      <trkpt lat="48.138995" lon="7.601638">
        <ele>183.647792</ele>
        <time>2022-01-08T02:31:32.558Z</time>
      </trkpt>
      <trkpt lat="48.140932" lon="7.601989">
        <ele>182.630001</ele>
        <time>2022-01-08T02:32:40.968Z</time>
      </trkpt>
      <trkpt lat="48.142527" lon="7.601953">
        <ele>181.914186</ele>
        <time>2022-01-08T02:33:37.197Z</time>
      </trkpt>
      <trkpt lat="48.145061" lon="7.601512">
        <ele>182.277120</ele>
        <time>2022-01-08T02:35:09.576Z</time>
      </trkpt>
      <trkpt lat="48.146179" lon="7.601308">
        <ele>184.422288</ele>
        <time>2022-01-08T02:36:03.903Z</time>
      </trkpt>
      <trkpt lat="48.146450" lon="7.601258">
        <ele>185.135873</ele>
        <time>2022-01-08T02:36:17.298Z</time>
      </trkpt>
      <trkpt lat="48.146596" lon="7.601317">
        <ele>185.531060</ele>
        <time>2022-01-08T02:36:24.632Z</time>
      </trkpt>
      <trkpt lat="48.146619" lon="7.601489">
        <ele>185.836949</ele>
        <time>2022-01-08T02:36:30.135Z</time>
      </trkpt>
      <trkpt lat="48.146627" lon="7.601582">
        <ele>186.000459</ele>
        <time>2022-01-08T02:36:32.669Z</time>
      </trkpt>
      <trkpt lat="48.146732" lon="7.601859">
        <ele>186.555983</ele>
        <time>2022-01-08T02:36:40.840Z</time>
      </trkpt>
      <trkpt lat="48.146901" lon="7.601994">
        <ele>187.056470</ele>
        <time>2022-01-08T02:36:48.569Z</time>
      </trkpt>
      <trkpt lat="48.146941" lon="7.602057">
        <ele>187.191083</ele>
        <time>2022-01-08T02:36:50.728Z</time>
      </trkpt>
      <trkpt lat="48.146975" lon="7.602036">
        <ele>187.231896</ele>
        <time>2022-01-08T02:36:51.715Z</time>
      </trkpt>
      <trkpt lat="48.147181" lon="7.601907">
        <ele>187.479671</ele>
        <time>2022-01-08T02:36:58.834Z</time>
      </trkpt>
      <trkpt lat="48.147388" lon="7.601777">
        <ele>187.728756</ele>
        <time>2022-01-08T02:37:06.112Z</time>
      </trkpt>
      <trkpt lat="48.147532" lon="7.601675">
        <ele>187.905519</ele>
        <time>2022-01-08T02:37:11.454Z</time>
      </trkpt>
      <trkpt lat="48.148030" lon="7.601348">
        <ele>188.508921</ele>
        <time>2022-01-08T02:37:28.571Z</time>
      </trkpt>
      <trkpt lat="48.148641" lon="7.600995">
        <ele>189.057772</ele>
        <time>2022-01-08T02:37:41.225Z</time>
      </trkpt>
      <trkpt lat="48.148979" lon="7.600863">
        <ele>188.314630</ele>
        <time>2022-01-08T02:37:47.175Z</time>
      </trkpt>
      <trkpt lat="48.149114" lon="7.600811">
        <ele>188.018069</ele>
        <time>2022-01-08T02:37:49.563Z</time>
      </trkpt>
      <trkpt lat="48.149589" lon="7.600716">
        <ele>186.998498</ele>
        <time>2022-01-08T02:37:57.941Z</time>
      </trkpt>
      <trkpt lat="48.149997" lon="7.600643">
        <ele>186.124271</ele>
        <time>2022-01-08T02:38:04.993Z</time>
      </trkpt>
      <trkpt lat="48.151409" lon="7.600536">
        <ele>183.054936</ele>
        <time>2022-01-08T02:38:28.649Z</time>
      </trkpt>
      <trkpt lat="48.151425" lon="7.600545">
        <ele>183.017577</ele>
        <time>2022-01-08T02:38:28.934Z</time>
      </trkpt>
      <trkpt lat="48.152013" lon="7.600867">
        <ele>181.649068</ele>
        <time>2022-01-08T02:38:40.287Z</time>
      </trkpt>
      <trkpt lat="48.152022" lon="7.600806">
        <ele>181.557953</ele>
        <time>2022-01-08T02:38:41.317Z</time>
      </trkpt>
      <trkpt lat="48.152079" lon="7.600394">
        <ele>181.343936</ele>
        <time>2022-01-08T02:38:48.559Z</time>
      </trkpt>
      <trkpt lat="48.152139" lon="7.600392">
        <ele>181.323913</ele>
        <time>2022-01-08T02:38:50.143Z</time>
      </trkpt>
      <trkpt lat="48.152712" lon="7.600394">
        <ele>181.132743</ele>
        <time>2022-01-08T02:39:01.513Z</time>
      </trkpt>
      <trkpt lat="48.153904" lon="7.600576">
        <ele>181.023557</ele>
        <time>2022-01-08T02:39:28.976Z</time>
      </trkpt>
      <trkpt lat="48.154154" lon="7.600629">
        <ele>181.234800</ele>
        <time>2022-01-08T02:39:35.748Z</time>
      </trkpt>
      <trkpt lat="48.154232" lon="7.600645">
        <ele>181.300667</ele>
        <time>2022-01-08T02:39:37.874Z</time>
      </trkpt>
      <trkpt lat="48.155753" lon="7.601178">
        <ele>182.511904</ele>
        <time>2022-01-08T02:40:42.001Z</time>
      </trkpt>
      <trkpt lat="48.156575" lon="7.601562">
        <ele>182.992152</ele>
        <time>2022-01-08T02:41:16.484Z</time>
      </trkpt>
      <trkpt lat="48.157941" lon="7.602429">
        <ele>183.292142</ele>
        <time>2022-01-08T02:42:11.658Z</time>
      </trkpt>
      <trkpt lat="48.158367" lon="7.602764">
        <ele>183.274941</ele>
        <time>2022-01-08T02:42:29.594Z</time>
      </trkpt>
      <trkpt lat="48.159283" lon="7.603639">
        <ele>182.956433</ele>
        <time>2022-01-08T02:43:08.716Z</time>
      </trkpt>
      <trkpt lat="48.160650" lon="7.605203">
        <ele>182.165577</ele>
        <time>2022-01-08T02:43:47.727Z</time>
      </trkpt>
      <trkpt lat="48.160878" lon="7.605645">
        <ele>181.995211</ele>
        <time>2022-01-08T02:43:56.195Z</time>
      </trkpt>
      <trkpt lat="48.167819" lon="7.613743">
        <ele>179.694339</ele>
        <time>2022-01-08T02:47:26.000Z</time>
      </trkpt>
      <trkpt lat="48.178115" lon="7.625756">
        <ele>174.902557</ele>
        <time>2022-01-08T02:52:30.664Z</time>
      </trkpt>
      <trkpt lat="48.179865" lon="7.627667">
        <ele>174.487602</ele>
        <time>2022-01-08T02:53:21.313Z</time>
      </trkpt>
      <trkpt lat="48.181948" lon="7.629653">
        <ele>176.204049</ele>
        <time>2022-01-08T02:54:31.229Z</time>
      </trkpt>
      <trkpt lat="48.183840" lon="7.631319">
        <ele>177.183832</ele>
        <time>2022-01-08T02:55:30.899Z</time>
      </trkpt>
      <trkpt lat="48.185398" lon="7.632518">
        <ele>176.999168</ele>
        <time>2022-01-08T02:56:11.136Z</time>
      </trkpt>
      <trkpt lat="48.185577" lon="7.632792">
        <ele>176.931835</ele>
        <time>2022-01-08T02:56:17.240Z</time>
      </trkpt>
      <trkpt lat="48.185605" lon="7.632867">
        <ele>176.916748</ele>
        <time>2022-01-08T02:56:18.878Z</time>
      </trkpt>
      <trkpt lat="48.185707" lon="7.632980">
        <ele>176.883364</ele>
        <time>2022-01-08T02:56:22.455Z</time>
      </trkpt>
      <trkpt lat="48.185681" lon="7.633062">
        <ele>176.867427</ele>
        <time>2022-01-08T02:56:24.461Z</time>
      </trkpt>
      <trkpt lat="48.185479" lon="7.633711">
        <ele>176.741711</ele>
        <time>2022-01-08T02:56:38.318Z</time>
      </trkpt>
      <trkpt lat="48.185649" lon="7.633817">
        <ele>176.720465</ele>
        <time>2022-01-08T02:56:42.561Z</time>
      </trkpt>
      <trkpt lat="48.186525" lon="7.634418">
        <ele>176.634822</ele>
        <time>2022-01-08T02:57:18.930Z</time>
      </trkpt>
      <trkpt lat="48.187251" lon="7.634831">
        <ele>176.540768</ele>
        <time>2022-01-08T02:57:46.550Z</time>
      </trkpt>
      <trkpt lat="48.189553" lon="7.636142">
        <ele>176.076151</ele>
        <time>2022-01-08T02:59:14.672Z</time>
      </trkpt>
      <trkpt lat="48.190833" lon="7.636937">
        <ele>176.459805</ele>
        <time>2022-01-08T03:00:08.888Z</time>
      </trkpt>
      <trkpt lat="48.191076" lon="7.637042">
        <ele>176.615402</ele>
        <time>2022-01-08T03:00:19.026Z</time>
      </trkpt>
      <trkpt lat="48.192025" lon="7.637618">
        <ele>177.245307</ele>
        <time>2022-01-08T03:00:59.929Z</time>
      </trkpt>
      <trkpt lat="48.192078" lon="7.639824">
        <ele>177.851400</ele>
        <time>2022-01-08T03:01:57.033Z</time>
      </trkpt>
      <trkpt lat="48.191914" lon="7.640415">
        <ele>178.015500</ele>
        <time>2022-01-08T03:02:13.184Z</time>
      </trkpt>
      <trkpt lat="48.191454" lon="7.641237">
        <ele>178.043842</ele>
        <time>2022-01-08T03:02:39.981Z</time>
      </trkpt>
      <trkpt lat="48.189608" lon="7.642530">
        <ele>177.769476</ele>
        <time>2022-01-08T03:03:54.802Z</time>
      </trkpt>
      <trkpt lat="48.188746" lon="7.643134">
        <ele>177.461044</ele>
        <time>2022-01-08T03:04:28.544Z</time>
      </trkpt>
      <trkpt lat="48.188608" lon="7.643284">
        <ele>177.342703</ele>
        <time>2022-01-08T03:04:34.341Z</time>
      </trkpt>
      <trkpt lat="48.188527" lon="7.643354">
        <ele>177.277790</ele>
        <time>2022-01-08T03:04:37.652Z</time>
      </trkpt>
      <trkpt lat="48.188631" lon="7.643576">
        <ele>177.152181</ele>
        <time>2022-01-08T03:04:43.706Z</time>
      </trkpt>
      <trkpt lat="48.189503" lon="7.644035">
        <ele>176.510469</ele>
        <time>2022-01-08T03:05:15.482Z</time>
      </trkpt>
      <trkpt lat="48.189720" lon="7.644302">
        <ele>176.315576</ele>
        <time>2022-01-08T03:05:25.060Z</time>
      </trkpt>
      <trkpt lat="48.190523" lon="7.644772">
        <ele>176.128786</ele>
        <time>2022-01-08T03:05:55.874Z</time>
      </trkpt>
      <trkpt lat="48.190862" lon="7.645183">
        <ele>176.066968</ele>
        <time>2022-01-08T03:06:11.959Z</time>
      </trkpt>
      <trkpt lat="48.191515" lon="7.646291">
        <ele>176.041826</ele>
        <time>2022-01-08T03:06:49.265Z</time>
      </trkpt>
      <trkpt lat="48.191982" lon="7.647073">
        <ele>176.160495</ele>
        <time>2022-01-08T03:07:15.810Z</time>
      </trkpt>
      <trkpt lat="48.192130" lon="7.647150">
        <ele>176.187056</ele>
        <time>2022-01-08T03:07:21.695Z</time>
      </trkpt>
      <trkpt lat="48.192477" lon="7.647169">
        <ele>176.245930</ele>
        <time>2022-01-08T03:07:34.777Z</time>
      </trkpt>
      <trkpt lat="48.192613" lon="7.647129">
        <ele>176.269428</ele>
        <time>2022-01-08T03:07:39.917Z</time>
      </trkpt>
      <trkpt lat="48.192950" lon="7.646936">
        <ele>176.298603</ele>
        <time>2022-01-08T03:07:53.476Z</time>
      </trkpt>
      <trkpt lat="48.193551" lon="7.646232">
        <ele>176.338463</ele>
        <time>2022-01-08T03:08:21.870Z</time>
      </trkpt>
      <trkpt lat="48.193808" lon="7.646147">
        <ele>176.352220</ele>
        <time>2022-01-08T03:08:31.697Z</time>
      </trkpt>
      <trkpt lat="48.194552" lon="7.646250">
        <ele>176.304637</ele>
        <time>2022-01-08T03:08:59.532Z</time>
      </trkpt>
      <trkpt lat="48.194684" lon="7.646190">
        <ele>176.263459</ele>
        <time>2022-01-08T03:09:04.547Z</time>
      </trkpt>
      <trkpt lat="48.194734" lon="7.646305">
        <ele>176.236135</ele>
        <time>2022-01-08T03:09:07.942Z</time>
      </trkpt>
      <trkpt lat="48.197052" lon="7.647022">
        <ele>175.891088</ele>
        <time>2022-01-08T03:10:32.110Z</time>
      </trkpt>
      <trkpt lat="48.197499" lon="7.647365">
        <ele>175.914980</ele>
        <time>2022-01-08T03:10:51.645Z</time>
      </trkpt>
      <trkpt lat="48.198729" lon="7.648653">
        <ele>177.261877</ele>
        <time>2022-01-08T03:11:53.023Z</time>
      </trkpt>
      <trkpt lat="48.199565" lon="7.649657">
        <ele>178.228760</ele>
        <time>2022-01-08T03:12:38.605Z</time>
      </trkpt>
      <trkpt lat="48.199544" lon="7.651569">
        <ele>179.154563</ele>
        <time>2022-01-08T03:13:28.782Z</time>
      </trkpt>
      <trkpt lat="48.199579" lon="7.651704">
        <ele>179.116273</ele>
        <time>2022-01-08T03:13:32.633Z</time>
      </trkpt>
      <trkpt lat="48.199760" lon="7.651880">
        <ele>179.020590</ele>
        <time>2022-01-08T03:13:40.810Z</time>
      </trkpt>
      <trkpt lat="48.203465" lon="7.654182">
        <ele>176.643364</ele>
        <time>2022-01-08T03:15:59.786Z</time>
      </trkpt>
      <trkpt lat="48.203576" lon="7.654251">
        <ele>176.569023</ele>
        <time>2022-01-08T03:16:03.398Z</time>
      </trkpt>
      <trkpt lat="48.204234" lon="7.660216">
        <ele>174.426003</ele>
        <time>2022-01-08T03:18:25.242Z</time>
      </trkpt>
      <trkpt lat="48.204256" lon="7.660422">
        <ele>174.378208</ele>
        <time>2022-01-08T03:18:30.338Z</time>
      </trkpt>
      <trkpt lat="48.204309" lon="7.661061">
        <ele>174.236663</ele>
        <time>2022-01-08T03:18:46.673Z</time>
      </trkpt>
      <trkpt lat="48.205995" lon="7.660200">
        <ele>173.858582</ele>
        <time>2022-01-08T03:19:25.242Z</time>
      </trkpt>
      <trkpt lat="48.206806" lon="7.659604">
        <ele>173.258014</ele>
        <time>2022-01-08T03:19:42.933Z</time>
      </trkpt>
      <trkpt lat="48.207069" lon="7.659400">
        <ele>173.061119</ele>
        <time>2022-01-08T03:19:48.788Z</time>
      </trkpt>
      <trkpt lat="48.207548" lon="7.659031">
        <ele>172.703033</ele>
        <time>2022-01-08T03:19:59.628Z</time>
      </trkpt>
      <trkpt lat="48.207958" lon="7.658716">
        <ele>172.482468</ele>
        <time>2022-01-08T03:20:08.915Z</time>
      </trkpt>
      <trkpt lat="48.208998" lon="7.657912">
        <ele>171.940446</ele>
        <time>2022-01-08T03:20:32.937Z</time>
      </trkpt>
      <trkpt lat="48.209435" lon="7.657572">
        <ele>171.913055</ele>
        <time>2022-01-08T03:20:43.638Z</time>
      </trkpt>
      <trkpt lat="48.209819" lon="7.657274">
        <ele>172.013310</ele>
        <time>2022-01-08T03:20:53.424Z</time>
      </trkpt>
      <trkpt lat="48.209836" lon="7.657308">
        <ele>172.019879</ele>
        <time>2022-01-08T03:20:54.209Z</time>
      </trkpt>
      <trkpt lat="48.211196" lon="7.660027">
        <ele>172.795988</ele>
        <time>2022-01-08T03:21:54.294Z</time>
      </trkpt>
      <trkpt lat="48.212103" lon="7.662045">
        <ele>173.370971</ele>
        <time>2022-01-08T03:22:37.041Z</time>
      </trkpt>
      <trkpt lat="48.212387" lon="7.662677">
        <ele>173.527248</ele>
        <time>2022-01-08T03:22:49.963Z</time>
      </trkpt>
      <trkpt lat="48.213918" lon="7.665758">
        <ele>173.984839</ele>
        <time>2022-01-08T03:23:54.264Z</time>
      </trkpt>
      <trkpt lat="48.214965" lon="7.670750">
        <ele>175.130840</ele>
        <time>2022-01-08T03:25:28.110Z</time>
      </trkpt>
      <trkpt lat="48.213872" lon="7.670657">
        <ele>174.448782</ele>
        <time>2022-01-08T03:26:05.149Z</time>
      </trkpt>
      <trkpt lat="48.212996" lon="7.670721">
        <ele>173.835251</ele>
        <time>2022-01-08T03:26:34.133Z</time>
      </trkpt>
      <trkpt lat="48.212819" lon="7.670734">
        <ele>173.704139</ele>
        <time>2022-01-08T03:26:40.118Z</time>
      </trkpt>
      <trkpt lat="48.212663" lon="7.670746">
        <ele>173.588569</ele>
        <time>2022-01-08T03:26:45.503Z</time>
      </trkpt>
      <trkpt lat="48.212361" lon="7.670934">
        <ele>173.346669</ele>
        <time>2022-01-08T03:26:57.054Z</time>
      </trkpt>
      <trkpt lat="48.212222" lon="7.671143">
        <ele>173.201089</ele>
        <time>2022-01-08T03:27:03.994Z</time>
      </trkpt>
      <trkpt lat="48.212119" lon="7.671471">
        <ele>173.022321</ele>
        <time>2022-01-08T03:27:09.704Z</time>
      </trkpt>
      <trkpt lat="48.211978" lon="7.672332">
        <ele>172.817963</ele>
        <time>2022-01-08T03:27:23.945Z</time>
      </trkpt>
      <trkpt lat="48.211851" lon="7.672488">
        <ele>172.778622</ele>
        <time>2022-01-08T03:27:27.983Z</time>
      </trkpt>
      <trkpt lat="48.211606" lon="7.672633">
        <ele>172.715492</ele>
        <time>2022-01-08T03:27:34.551Z</time>
      </trkpt>
      <trkpt lat="48.211019" lon="7.672839">
        <ele>172.570988</ele>
        <time>2022-01-08T03:27:49.105Z</time>
      </trkpt>
      <trkpt lat="48.209919" lon="7.672986">
        <ele>172.138297</ele>
        <time>2022-01-08T03:28:14.231Z</time>
      </trkpt>
      <trkpt lat="48.209306" lon="7.673329">
        <ele>171.844355</ele>
        <time>2022-01-08T03:28:29.476Z</time>
      </trkpt>
      <trkpt lat="48.209259" lon="7.673549">
        <ele>171.775181</ele>
        <time>2022-01-08T03:28:32.962Z</time>
      </trkpt>
      <trkpt lat="48.209889" lon="7.674227">
        <ele>171.434435</ele>
        <time>2022-01-08T03:28:51.267Z</time>
      </trkpt>
      <trkpt lat="48.210520" lon="7.675042">
        <ele>171.071140</ele>
        <time>2022-01-08T03:29:11.203Z</time>
      </trkpt>
      <trkpt lat="48.211797" lon="7.675559">
        <ele>169.742676</ele>
        <time>2022-01-08T03:29:40.041Z</time>
      </trkpt>
      <trkpt lat="48.212108" lon="7.676001">
        <ele>169.214431</ele>
        <time>2022-01-08T03:29:48.855Z</time>
      </trkpt>
      <trkpt lat="48.212385" lon="7.676756">
        <ele>168.572498</ele>
        <time>2022-01-08T03:30:00.514Z</time>
      </trkpt>
      <trkpt lat="48.212513" lon="7.677171">
        <ele>168.334401</ele>
        <time>2022-01-08T03:30:06.742Z</time>
      </trkpt>
      <trkpt lat="48.212717" lon="7.677533">
        <ele>168.087561</ele>
        <time>2022-01-08T03:30:13.276Z</time>
      </trkpt>
      <trkpt lat="48.213434" lon="7.678033">
        <ele>167.469810</ele>
        <time>2022-01-08T03:30:30.771Z</time>
      </trkpt>
      <trkpt lat="48.213537" lon="7.678096">
        <ele>167.382904</ele>
        <time>2022-01-08T03:30:33.650Z</time>
      </trkpt>
      <trkpt lat="48.213810" lon="7.678247">
        <ele>167.535656</ele>
        <time>2022-01-08T03:30:41.878Z</time>
      </trkpt>
      <trkpt lat="48.213983" lon="7.678266">
        <ele>167.807995</ele>
        <time>2022-01-08T03:30:47.041Z</time>
      </trkpt>
      <trkpt lat="48.215103" lon="7.677951">
        <ele>169.597024</ele>
        <time>2022-01-08T03:31:23.037Z</time>
      </trkpt>
      <trkpt lat="48.215245" lon="7.677906">
        <ele>169.824882</ele>
        <time>2022-01-08T03:31:28.010Z</time>
      </trkpt>
      <trkpt lat="48.215558" lon="7.677797">
        <ele>170.359484</ele>
        <time>2022-01-08T03:31:39.021Z</time>
      </trkpt>
      <trkpt lat="48.215898" lon="7.677778">
        <ele>170.965644</ele>
        <time>2022-01-08T03:31:50.613Z</time>
      </trkpt>
      <trkpt lat="48.216034" lon="7.677887">
        <ele>171.240327</ele>
        <time>2022-01-08T03:31:55.608Z</time>
      </trkpt>
      <trkpt lat="48.216199" lon="7.678020">
        <ele>171.574007</ele>
        <time>2022-01-08T03:32:02.083Z</time>
      </trkpt>
      <trkpt lat="48.216383" lon="7.678264">
        <ele>172.011455</ele>
        <time>2022-01-08T03:32:09.906Z</time>
      </trkpt>
      <trkpt lat="48.216450" lon="7.678251">
        <ele>172.131815</ele>
        <time>2022-01-08T03:32:12.451Z</time>
      </trkpt>
      <trkpt lat="48.217571" lon="7.680035">
        <ele>173.712770</ele>
        <time>2022-01-08T03:32:59.829Z</time>
      </trkpt>
      <trkpt lat="48.218014" lon="7.680736">
        <ele>173.979250</ele>
        <time>2022-01-08T03:33:15.599Z</time>
      </trkpt>
      <trkpt lat="48.218547" lon="7.682184">
        <ele>173.147559</ele>
        <time>2022-01-08T03:33:39.955Z</time>
      </trkpt>
      <trkpt lat="48.219440" lon="7.684540">
        <ele>171.671337</ele>
        <time>2022-01-08T03:34:18.041Z</time>
      </trkpt>
      <trkpt lat="48.219527" lon="7.685127">
        <ele>171.407976</ele>
        <time>2022-01-08T03:34:27.142Z</time>
      </trkpt>
      <trkpt lat="48.219561" lon="7.685539">
        <ele>171.226161</ele>
        <time>2022-01-08T03:34:33.672Z</time>
      </trkpt>
      <trkpt lat="48.220934" lon="7.689361">
        <ele>172.844878</ele>
        <time>2022-01-08T03:35:53.816Z</time>
      </trkpt>
      <trkpt lat="48.221420" lon="7.690676">
        <ele>173.417966</ele>
        <time>2022-01-08T03:36:21.517Z</time>
      </trkpt>
      <trkpt lat="48.222014" lon="7.691902">
        <ele>173.183478</ele>
        <time>2022-01-08T03:36:45.833Z</time>
      </trkpt>
      <trkpt lat="48.222118" lon="7.692101">
        <ele>173.144355</ele>
        <time>2022-01-08T03:36:49.606Z</time>
      </trkpt>
      <trkpt lat="48.221786" lon="7.692382">
        <ele>173.055863</ele>
        <time>2022-01-08T03:36:58.255Z</time>
      </trkpt>
      <trkpt lat="48.221085" lon="7.692964">
        <ele>172.485697</ele>
        <time>2022-01-08T03:37:16.008Z</time>
      </trkpt>
      <trkpt lat="48.220994" lon="7.693121">
        <ele>172.373474</ele>
        <time>2022-01-08T03:37:19.083Z</time>
      </trkpt>
      <trkpt lat="48.221042" lon="7.693725">
        <ele>172.045436</ele>
        <time>2022-01-08T03:37:27.831Z</time>
      </trkpt>
      <trkpt lat="48.221338" lon="7.695110">
        <ele>171.551174</ele>
        <time>2022-01-08T03:37:49.290Z</time>
      </trkpt>
      <trkpt lat="48.221313" lon="7.695394">
        <ele>171.542460</ele>
        <time>2022-01-08T03:37:53.943Z</time>
      </trkpt>
      <trkpt lat="48.221219" lon="7.695465">
        <ele>171.537656</ele>
        <time>2022-01-08T03:37:56.420Z</time>
      </trkpt>
      <trkpt lat="48.220874" lon="7.695391">
        <ele>171.521744</ele>
        <time>2022-01-08T03:38:05.169Z</time>
      </trkpt>
      <trkpt lat="48.220422" lon="7.695125">
        <ele>171.499578</ele>
        <time>2022-01-08T03:38:17.801Z</time>
      </trkpt>
      <trkpt lat="48.220303" lon="7.695115">
        <ele>171.494137</ele>
        <time>2022-01-08T03:38:20.973Z</time>
      </trkpt>
      <trkpt lat="48.220141" lon="7.695179">
        <ele>171.486488</ele>
        <time>2022-01-08T03:38:25.284Z</time>
      </trkpt>
      <trkpt lat="48.219906" lon="7.695394">
        <ele>171.532482</ele>
        <time>2022-01-08T03:38:32.614Z</time>
      </trkpt>
      <trkpt lat="48.219805" lon="7.695578">
        <ele>171.559270</ele>
        <time>2022-01-08T03:38:36.893Z</time>
      </trkpt>
      <trkpt lat="48.219672" lon="7.696144">
        <ele>171.626708</ele>
        <time>2022-01-08T03:38:47.682Z</time>
      </trkpt>
      <trkpt lat="48.219087" lon="7.697131">
        <ele>171.775144</ele>
        <time>2022-01-08T03:39:10.310Z</time>
      </trkpt>
      <trkpt lat="48.219045" lon="7.697292">
        <ele>171.748256</ele>
        <time>2022-01-08T03:39:12.996Z</time>
      </trkpt>
      <trkpt lat="48.219060" lon="7.697433">
        <ele>171.610724</ele>
        <time>2022-01-08T03:39:15.132Z</time>
      </trkpt>
      <trkpt lat="48.219203" lon="7.697821">
        <ele>171.183638</ele>
        <time>2022-01-08T03:39:21.416Z</time>
      </trkpt>
      <trkpt lat="48.219197" lon="7.697919">
        <ele>171.088847</ele>
        <time>2022-01-08T03:39:22.780Z</time>
      </trkpt>
      <trkpt lat="48.218742" lon="7.698695">
        <ele>170.093194</ele>
        <time>2022-01-08T03:39:36.743Z</time>
      </trkpt>
      <trkpt lat="48.218548" lon="7.699093">
        <ele>169.618203</ele>
        <time>2022-01-08T03:39:42.549Z</time>
      </trkpt>
      <trkpt lat="48.218393" lon="7.699326">
        <ele>169.301065</ele>
        <time>2022-01-08T03:39:46.879Z</time>
      </trkpt>
      <trkpt lat="48.218300" lon="7.699417">
        <ele>169.153245</ele>
        <time>2022-01-08T03:39:49.119Z</time>
      </trkpt>
      <trkpt lat="48.218179" lon="7.699533">
        <ele>168.999376</ele>
        <time>2022-01-08T03:39:51.675Z</time>
      </trkpt>
      <trkpt lat="48.217967" lon="7.699738">
        <ele>168.729109</ele>
        <time>2022-01-08T03:39:56.208Z</time>
      </trkpt>
      <trkpt lat="48.217849" lon="7.699828">
        <ele>168.587260</ele>
        <time>2022-01-08T03:39:58.584Z</time>
      </trkpt>
      <trkpt lat="48.217875" lon="7.699911">
        <ele>168.521770</ele>
        <time>2022-01-08T03:39:59.675Z</time>
      </trkpt>
      <trkpt lat="48.218226" lon="7.700811">
        <ele>167.777132</ele>
        <time>2022-01-08T03:40:12.728Z</time>
      </trkpt>
      <trkpt lat="48.218279" lon="7.700858">
        <ele>167.711160</ele>
        <time>2022-01-08T03:40:14.007Z</time>
      </trkpt>
      <trkpt lat="48.218366" lon="7.700802">
        <ele>167.609712</ele>
        <time>2022-01-08T03:40:15.997Z</time>
      </trkpt>
      <trkpt lat="48.218494" lon="7.701295">
        <ele>167.265593</ele>
        <time>2022-01-08T03:40:24.046Z</time>
      </trkpt>
      <trkpt lat="48.219069" lon="7.702602">
        <ele>167.398617</ele>
        <time>2022-01-08T03:40:48.849Z</time>
      </trkpt>
      <trkpt lat="48.219121" lon="7.702746">
        <ele>167.412529</ele>
        <time>2022-01-08T03:40:51.281Z</time>
      </trkpt>
      <trkpt lat="48.219203" lon="7.702560">
        <ele>167.431472</ele>
        <time>2022-01-08T03:40:54.663Z</time>
      </trkpt>
      <trkpt lat="48.219218" lon="7.702546">
        <ele>167.433723</ele>
        <time>2022-01-08T03:40:55.072Z</time>
      </trkpt>
      <trkpt lat="48.219295" lon="7.702574">
        <ele>167.443823</ele>
        <time>2022-01-08T03:40:56.898Z</time>
      </trkpt>
      <trkpt lat="48.219425" lon="7.702619">
        <ele>167.460829</ele>
        <time>2022-01-08T03:40:59.785Z</time>
      </trkpt>
      <trkpt lat="48.219534" lon="7.702658">
        <ele>167.475113</ele>
        <time>2022-01-08T03:41:02.242Z</time>
      </trkpt>
      <trkpt lat="48.219658" lon="7.702725">
        <ele>167.489292</ele>
        <time>2022-01-08T03:41:05.171Z</time>
      </trkpt>
      <trkpt lat="48.220137" lon="7.703124">
        <ele>167.264523</ele>
        <time>2022-01-08T03:41:17.187Z</time>
      </trkpt>
      <trkpt lat="48.220731" lon="7.703916">
        <ele>166.938531</ele>
        <time>2022-01-08T03:41:34.360Z</time>
      </trkpt>
      <trkpt lat="48.220915" lon="7.704469">
        <ele>166.769559</ele>
        <time>2022-01-08T03:41:42.980Z</time>
      </trkpt>
      <trkpt lat="48.221247" lon="7.705027">
        <ele>166.704046</ele>
        <time>2022-01-08T03:41:53.771Z</time>
      </trkpt>
      <trkpt lat="48.221811" lon="7.705774">
        <ele>166.623271</ele>
        <time>2022-01-08T03:42:10.688Z</time>
      </trkpt>
      <trkpt lat="48.222521" lon="7.706423">
        <ele>166.649816</ele>
        <time>2022-01-08T03:42:30.692Z</time>
      </trkpt>
      <trkpt lat="48.223101" lon="7.706823">
        <ele>166.884599</ele>
        <time>2022-01-08T03:42:45.812Z</time>
      </trkpt>
      <trkpt lat="48.223130" lon="7.706842">
        <ele>166.896237</ele>
        <time>2022-01-08T03:42:46.559Z</time>
      </trkpt>
      <trkpt lat="48.223232" lon="7.706941">
        <ele>166.940917</ele>
        <time>2022-01-08T03:42:49.485Z</time>
      </trkpt>
      <trkpt lat="48.223385" lon="7.707132">
        <ele>167.014115</ele>
        <time>2022-01-08T03:42:54.260Z</time>
      </trkpt>
      <trkpt lat="48.224970" lon="7.708989">
        <ele>167.909505</ele>
        <time>2022-01-08T03:43:43.093Z</time>
      </trkpt>
      <trkpt lat="48.225883" lon="7.709857">
        <ele>168.373164</ele>
        <time>2022-01-08T03:44:08.633Z</time>
      </trkpt>
      <trkpt lat="48.225927" lon="7.710163">
        <ele>168.457939</ele>
        <time>2022-01-08T03:44:13.527Z</time>
      </trkpt>
      <trkpt lat="48.227342" lon="7.710749">
        <ele>168.926677</ele>
        <time>2022-01-08T03:44:49.088Z</time>
      </trkpt>
      <trkpt lat="48.227606" lon="7.710870">
        <ele>168.980604</ele>
        <time>2022-01-08T03:44:55.495Z</time>
      </trkpt>
      <trkpt lat="48.228008" lon="7.711074">
        <ele>169.063506</ele>
        <time>2022-01-08T03:45:04.978Z</time>
      </trkpt>
      <trkpt lat="48.228589" lon="7.711507">
        <ele>169.112978</ele>
        <time>2022-01-08T03:45:19.232Z</time>
      </trkpt>
      <trkpt lat="48.229003" lon="7.711656">
        <ele>168.985855</ele>
        <time>2022-01-08T03:45:28.538Z</time>
      </trkpt>
      <trkpt lat="48.229768" lon="7.711783">
        <ele>168.756036</ele>
        <time>2022-01-08T03:45:44.422Z</time>
      </trkpt>
      <trkpt lat="48.230026" lon="7.711827">
        <ele>168.678502</ele>
        <time>2022-01-08T03:45:49.797Z</time>
      </trkpt>
      <trkpt lat="48.230498" lon="7.711907">
        <ele>168.489299</ele>
        <time>2022-01-08T03:45:59.653Z</time>
      </trkpt>
      <trkpt lat="48.231052" lon="7.711940">
        <ele>168.232492</ele>
        <time>2022-01-08T03:46:11.293Z</time>
      </trkpt>
      <trkpt lat="48.231482" lon="7.711922">
        <ele>168.033245</ele>
        <time>2022-01-08T03:46:20.301Z</time>
      </trkpt>
      <trkpt lat="48.231481" lon="7.711819">
        <ele>168.001462</ele>
        <time>2022-01-08T03:46:22.755Z</time>
      </trkpt>
      <trkpt lat="48.232063" lon="7.711809">
        <ele>167.732004</ele>
        <time>2022-01-08T03:46:42.950Z</time>
      </trkpt>
      <trkpt lat="48.232955" lon="7.712096">
        <ele>167.310440</ele>
        <time>2022-01-08T03:47:14.923Z</time>
      </trkpt>
      <trkpt lat="48.233156" lon="7.712070">
        <ele>167.217212</ele>
        <time>2022-01-08T03:47:22.053Z</time>
      </trkpt>
      <trkpt lat="48.233338" lon="7.712174">
        <ele>167.127221</ele>
        <time>2022-01-08T03:47:28.998Z</time>
      </trkpt>
      <trkpt lat="48.234280" lon="7.712345">
        <ele>167.066543</ele>
        <time>2022-01-08T03:48:03.449Z</time>
      </trkpt>
      <trkpt lat="48.234410" lon="7.712456">
        <ele>167.094285</ele>
        <time>2022-01-08T03:48:09.109Z</time>
      </trkpt>
      <trkpt lat="48.234538" lon="7.712473">
        <ele>167.118122</ele>
        <time>2022-01-08T03:48:12.087Z</time>
      </trkpt>
      <trkpt lat="48.234937" lon="7.712527">
        <ele>167.192435</ele>
        <time>2022-01-08T03:48:21.587Z</time>
      </trkpt>
      <trkpt lat="48.235146" lon="7.712571">
        <ele>167.231584</ele>
        <time>2022-01-08T03:48:26.643Z</time>
      </trkpt>
      <trkpt lat="48.235855" lon="7.712841">
        <ele>167.444907</ele>
        <time>2022-01-08T03:48:44.363Z</time>
      </trkpt>
      <trkpt lat="48.236229" lon="7.712999">
        <ele>167.591294</ele>
        <time>2022-01-08T03:48:53.971Z</time>
      </trkpt>
      <trkpt lat="48.236335" lon="7.713048">
        <ele>167.633083</ele>
        <time>2022-01-08T03:48:56.700Z</time>
      </trkpt>
      <trkpt lat="48.236773" lon="7.713049">
        <ele>167.798111</ele>
        <time>2022-01-08T03:49:07.245Z</time>
      </trkpt>
      <trkpt lat="48.237604" lon="7.712629">
        <ele>167.876019</ele>
        <time>2022-01-08T03:49:26.754Z</time>
      </trkpt>
      <trkpt lat="48.237735" lon="7.712571">
        <ele>167.845679</ele>
        <time>2022-01-08T03:49:29.667Z</time>
      </trkpt>
      <trkpt lat="48.238336" lon="7.712485">
        <ele>167.711565</ele>
        <time>2022-01-08T03:49:42.697Z</time>
      </trkpt>
      <trkpt lat="48.238630" lon="7.712537">
        <ele>167.645803</ele>
        <time>2022-01-08T03:49:49.223Z</time>
      </trkpt>
      <trkpt lat="48.238867" lon="7.712641">
        <ele>167.590952</ele>
        <time>2022-01-08T03:49:54.466Z</time>
      </trkpt>
      <trkpt lat="48.238927" lon="7.712667">
        <ele>167.577080</ele>
        <time>2022-01-08T03:49:55.771Z</time>
      </trkpt>
      <trkpt lat="48.239156" lon="7.711842">
        <ele>166.976917</ele>
        <time>2022-01-08T03:50:07.985Z</time>
      </trkpt>
      <trkpt lat="48.239251" lon="7.711668">
        <ele>166.819274</ele>
        <time>2022-01-08T03:50:10.991Z</time>
      </trkpt>
      <trkpt lat="48.239592" lon="7.711355">
        <ele>166.398813</ele>
        <time>2022-01-08T03:50:18.811Z</time>
      </trkpt>
      <trkpt lat="48.239800" lon="7.711165">
        <ele>166.142681</ele>
        <time>2022-01-08T03:50:23.584Z</time>
      </trkpt>
      <trkpt lat="48.239733" lon="7.710967">
        <ele>165.987072</ele>
        <time>2022-01-08T03:50:26.535Z</time>
      </trkpt>
      <trkpt lat="48.240384" lon="7.710104">
        <ele>164.915514</ele>
        <time>2022-01-08T03:50:43.485Z</time>
      </trkpt>
      <trkpt lat="48.240512" lon="7.709919">
        <ele>164.679760</ele>
        <time>2022-01-08T03:50:46.910Z</time>
      </trkpt>
      <trkpt lat="48.240984" lon="7.709178">
        <ele>163.773600</ele>
        <time>2022-01-08T03:50:59.925Z</time>
      </trkpt>
      <trkpt lat="48.241040" lon="7.709084">
        <ele>163.662141</ele>
        <time>2022-01-08T03:51:01.573Z</time>
      </trkpt>
      <trkpt lat="48.241387" lon="7.708334">
        <ele>163.174433</ele>
        <time>2022-01-08T03:51:13.743Z</time>
      </trkpt>
      <trkpt lat="48.241645" lon="7.707483">
        <ele>162.953211</ele>
        <time>2022-01-08T03:51:27.511Z</time>
      </trkpt>
      <trkpt lat="48.241996" lon="7.706286">
        <ele>162.650410</ele>
        <time>2022-01-08T03:51:48.046Z</time>
      </trkpt>
      <trkpt lat="48.242617" lon="7.705078">
        <ele>162.573216</ele>
        <time>2022-01-08T03:52:11.018Z</time>
      </trkpt>
      <trkpt lat="48.242777" lon="7.704802">
        <ele>162.554706</ele>
        <time>2022-01-08T03:52:16.454Z</time>
      </trkpt>
      <trkpt lat="48.242952" lon="7.704497">
        <ele>162.534342</ele>
        <time>2022-01-08T03:52:22.523Z</time>
      </trkpt>
      <trkpt lat="48.243003" lon="7.704402">
        <ele>162.528169</ele>
        <time>2022-01-08T03:52:24.446Z</time>
      </trkpt>
      <trkpt lat="48.243099" lon="7.704183">
        <ele>162.519346</ele>
        <time>2022-01-08T03:52:28.485Z</time>
      </trkpt>
      <trkpt lat="48.243120" lon="7.704142">
        <ele>162.533547</ele>
        <time>2022-01-08T03:52:29.232Z</time>
      </trkpt>
      <trkpt lat="48.243587" lon="7.703190">
        <ele>162.858177</ele>
        <time>2022-01-08T03:52:46.820Z</time>
      </trkpt>
      <trkpt lat="48.243954" lon="7.702408">
        <ele>163.120832</ele>
        <time>2022-01-08T03:53:01.975Z</time>
      </trkpt>
      <trkpt lat="48.244205" lon="7.701880">
        <ele>163.475733</ele>
        <time>2022-01-08T03:53:13.529Z</time>
      </trkpt>
      <trkpt lat="48.244358" lon="7.701556">
        <ele>164.045717</ele>
        <time>2022-01-08T03:53:20.960Z</time>
      </trkpt>
      <trkpt lat="48.244436" lon="7.701380">
        <ele>164.349100</ele>
        <time>2022-01-08T03:53:25.061Z</time>
      </trkpt>
      <trkpt lat="48.244477" lon="7.701263">
        <ele>164.538826</ele>
        <time>2022-01-08T03:53:27.566Z</time>
      </trkpt>
      <trkpt lat="48.244559" lon="7.700962">
        <ele>165.005517</ele>
        <time>2022-01-08T03:53:34.382Z</time>
      </trkpt>
      <trkpt lat="48.244564" lon="7.700944">
        <ele>165.033505</ele>
        <time>2022-01-08T03:53:34.804Z</time>
      </trkpt>
      <trkpt lat="48.245054" lon="7.699111">
        <ele>167.790394</ele>
        <time>2022-01-08T03:54:18.448Z</time>
      </trkpt>
      <trkpt lat="48.245218" lon="7.697987">
        <ele>169.267428</ele>
        <time>2022-01-08T03:54:42.746Z</time>
      </trkpt>
      <trkpt lat="48.245248" lon="7.697684">
        <ele>169.660645</ele>
        <time>2022-01-08T03:54:48.742Z</time>
      </trkpt>
      <trkpt lat="48.245288" lon="7.697310">
        <ele>170.146876</ele>
        <time>2022-01-08T03:54:55.998Z</time>
      </trkpt>
      <trkpt lat="48.245530" lon="7.695506">
        <ele>170.263768</ele>
        <time>2022-01-08T03:55:24.696Z</time>
      </trkpt>
      <trkpt lat="48.245622" lon="7.694981">
        <ele>170.141075</ele>
        <time>2022-01-08T03:55:31.531Z</time>
      </trkpt>
      <trkpt lat="48.245697" lon="7.694815">
        <ele>170.095738</ele>
        <time>2022-01-08T03:55:33.926Z</time>
      </trkpt>
      <trkpt lat="48.245838" lon="7.694669">
        <ele>170.037612</ele>
        <time>2022-01-08T03:55:37.114Z</time>
      </trkpt>
      <trkpt lat="48.246886" lon="7.693519">
        <ele>168.887102</ele>
        <time>2022-01-08T03:56:01.183Z</time>
      </trkpt>
      <trkpt lat="48.247333" lon="7.693028">
        <ele>168.359054</ele>
        <time>2022-01-08T03:56:12.561Z</time>
      </trkpt>
      <trkpt lat="48.247586" lon="7.692751">
        <ele>168.358367</ele>
        <time>2022-01-08T03:56:19.431Z</time>
      </trkpt>
      <trkpt lat="48.248260" lon="7.691989">
        <ele>168.673434</ele>
        <time>2022-01-08T03:56:40.024Z</time>
      </trkpt>
      <trkpt lat="48.249851" lon="7.690246">
        <ele>169.258168</ele>
        <time>2022-01-08T03:57:28.326Z</time>
      </trkpt>
      <trkpt lat="48.251035" lon="7.688932">
        <ele>169.177163</ele>
        <time>2022-01-08T03:57:58.825Z</time>
      </trkpt>
      <trkpt lat="48.252048" lon="7.687727">
        <ele>169.041455</ele>
        <time>2022-01-08T03:58:27.101Z</time>
      </trkpt>
      <trkpt lat="48.252220" lon="7.687378">
        <ele>169.098330</ele>
        <time>2022-01-08T03:58:33.961Z</time>
      </trkpt>
      <trkpt lat="48.252268" lon="7.687068">
        <ele>169.140020</ele>
        <time>2022-01-08T03:58:39.007Z</time>
      </trkpt>
      <trkpt lat="48.252217" lon="7.686631">
        <ele>169.198134</ele>
        <time>2022-01-08T03:58:46.081Z</time>
      </trkpt>
      <trkpt lat="48.251957" lon="7.685780">
        <ele>169.315140</ele>
        <time>2022-01-08T03:59:00.758Z</time>
      </trkpt>
      <trkpt lat="48.251922" lon="7.685687">
        <ele>169.314434</ele>
        <time>2022-01-08T03:59:02.343Z</time>
      </trkpt>
      <trkpt lat="48.251846" lon="7.685477">
        <ele>169.312854</ele>
        <time>2022-01-08T03:59:05.977Z</time>
      </trkpt>
      <trkpt lat="48.250509" lon="7.681432">
        <ele>169.051102</ele>
        <time>2022-01-08T04:00:11.965Z</time>
      </trkpt>
      <trkpt lat="48.250387" lon="7.680873">
        <ele>168.970816</ele>
        <time>2022-01-08T04:00:20.044Z</time>
      </trkpt>
      <trkpt lat="48.250995" lon="7.680873">
        <ele>168.719859</ele>
        <time>2022-01-08T04:00:33.838Z</time>
      </trkpt>
      <trkpt lat="48.252700" lon="7.681054">
        <ele>168.253396</ele>
        <time>2022-01-08T04:01:13.704Z</time>
      </trkpt>
      <trkpt lat="48.254005" lon="7.681280">
        <ele>168.266367</ele>
        <time>2022-01-08T04:01:43.692Z</time>
      </trkpt>
      <trkpt lat="48.254729" lon="7.681557">
        <ele>168.360223</ele>
        <time>2022-01-08T04:02:03.782Z</time>
      </trkpt>
      <trkpt lat="48.255827" lon="7.681924">
        <ele>168.371427</ele>
        <time>2022-01-08T04:02:31.500Z</time>
      </trkpt>
      <trkpt lat="48.258617" lon="7.683002">
        <ele>166.936782</ele>
        <time>2022-01-08T04:03:35.543Z</time>
      </trkpt>
      <trkpt lat="48.262513" lon="7.684465">
        <ele>169.235277</ele>
        <time>2022-01-08T04:05:20.802Z</time>
      </trkpt>
      <trkpt lat="48.264202" lon="7.685210">
        <ele>169.641664</ele>
        <time>2022-01-08T04:06:03.000Z</time>
      </trkpt>
      <trkpt lat="48.265382" lon="7.685544">
        <ele>169.673042</ele>
        <time>2022-01-08T04:06:30.550Z</time>
      </trkpt>
      <trkpt lat="48.268026" lon="7.686533">
        <ele>169.610452</ele>
        <time>2022-01-08T04:07:33.511Z</time>
      </trkpt>
      <trkpt lat="48.271140" lon="7.687698">
        <ele>169.316116</ele>
        <time>2022-01-08T04:08:47.821Z</time>
      </trkpt>
      <trkpt lat="48.275580" lon="7.689354">
        <ele>166.411519</ele>
        <time>2022-01-08T04:10:21.073Z</time>
      </trkpt>
      <trkpt lat="48.275633" lon="7.689377">
        <ele>166.434357</ele>
        <time>2022-01-08T04:10:22.576Z</time>
      </trkpt>
      <trkpt lat="48.275788" lon="7.689445">
        <ele>166.501202</ele>
        <time>2022-01-08T04:10:27.153Z</time>
      </trkpt>
      <trkpt lat="48.277493" lon="7.690019">
        <ele>167.470424</ele>
        <time>2022-01-08T04:11:17.071Z</time>
      </trkpt>
      <trkpt lat="48.277572" lon="7.690043">
        <ele>167.525508</ele>
        <time>2022-01-08T04:11:19.073Z</time>
      </trkpt>
      <trkpt lat="48.277634" lon="7.690061">
        <ele>167.568665</ele>
        <time>2022-01-08T04:11:20.574Z</time>
      </trkpt>
      <trkpt lat="48.278753" lon="7.690380">
        <ele>167.727414</ele>
        <time>2022-01-08T04:11:48.943Z</time>
      </trkpt>
      <trkpt lat="48.280255" lon="7.690653">
        <ele>166.352344</ele>
        <time>2022-01-08T04:12:21.081Z</time>
      </trkpt>
      <trkpt lat="48.282171" lon="7.690918">
        <ele>164.080752</ele>
        <time>2022-01-08T04:13:01.301Z</time>
      </trkpt>
      <trkpt lat="48.284272" lon="7.690990">
        <ele>163.528458</ele>
        <time>2022-01-08T04:13:51.482Z</time>
      </trkpt>
      <trkpt lat="48.284731" lon="7.690981">
        <ele>163.616309</ele>
        <time>2022-01-08T04:14:03.698Z</time>
      </trkpt>
      <trkpt lat="48.286178" lon="7.690984">
        <ele>163.835013</ele>
        <time>2022-01-08T04:14:41.444Z</time>
      </trkpt>
      <trkpt lat="48.288563" lon="7.690901">
        <ele>163.759952</ele>
        <time>2022-01-08T04:15:40.119Z</time>
      </trkpt>
      <trkpt lat="48.289233" lon="7.690902">
        <ele>163.615287</ele>
        <time>2022-01-08T04:15:55.977Z</time>
      </trkpt>
      <trkpt lat="48.292109" lon="7.690918">
        <ele>162.116167</ele>
        <time>2022-01-08T04:17:01.227Z</time>
      </trkpt>
      <trkpt lat="48.292729" lon="7.691017">
        <ele>161.811768</ele>
        <time>2022-01-08T04:17:15.780Z</time>
      </trkpt>
      <trkpt lat="48.293622" lon="7.691159">
        <ele>161.729961</ele>
        <time>2022-01-08T04:17:37.761Z</time>
      </trkpt>
      <trkpt lat="48.295321" lon="7.691677">
        <ele>161.712459</ele>
        <time>2022-01-08T04:18:20.314Z</time>
      </trkpt>
      <trkpt lat="48.295647" lon="7.691937">
        <ele>161.740522</ele>
        <time>2022-01-08T04:18:29.610Z</time>
      </trkpt>
      <trkpt lat="48.295909" lon="7.692061">
        <ele>161.761409</ele>
        <time>2022-01-08T04:18:36.894Z</time>
      </trkpt>
      <trkpt lat="48.297045" lon="7.692470">
        <ele>161.856941</ele>
        <time>2022-01-08T04:19:20.729Z</time>
      </trkpt>
      <trkpt lat="48.297340" lon="7.692576">
        <ele>161.882389</ele>
        <time>2022-01-08T04:19:32.003Z</time>
      </trkpt>
      <trkpt lat="48.297429" lon="7.692837">
        <ele>161.898759</ele>
        <time>2022-01-08T04:19:39.448Z</time>
      </trkpt>
      <trkpt lat="48.297347" lon="7.694138">
        <ele>161.747790</ele>
        <time>2022-01-08T04:20:11.594Z</time>
      </trkpt>
      <trkpt lat="48.297196" lon="7.695411">
        <ele>161.364150</ele>
        <time>2022-01-08T04:20:41.426Z</time>
      </trkpt>
      <trkpt lat="48.296637" lon="7.696918">
        <ele>160.847235</ele>
        <time>2022-01-08T04:21:21.802Z</time>
      </trkpt>
      <trkpt lat="48.296582" lon="7.697066">
        <ele>160.796046</ele>
        <time>2022-01-08T04:21:24.150Z</time>
      </trkpt>
      <trkpt lat="48.296325" lon="7.697926">
        <ele>160.511369</ele>
        <time>2022-01-08T04:21:38.742Z</time>
      </trkpt>
      <trkpt lat="48.296109" lon="7.699267">
        <ele>160.214619</ele>
        <time>2022-01-08T04:22:00.190Z</time>
      </trkpt>
      <trkpt lat="48.296159" lon="7.699496">
        <ele>160.180964</ele>
        <time>2022-01-08T04:22:03.997Z</time>
      </trkpt>
      <trkpt lat="48.296307" lon="7.699589">
        <ele>160.147295</ele>
        <time>2022-01-08T04:22:07.839Z</time>
      </trkpt>
      <trkpt lat="48.296782" lon="7.699610">
        <ele>160.047554</ele>
        <time>2022-01-08T04:22:19.455Z</time>
      </trkpt>
      <trkpt lat="48.296834" lon="7.699773">
        <ele>160.022312</ele>
        <time>2022-01-08T04:22:22.312Z</time>
      </trkpt>
      <trkpt lat="48.296903" lon="7.700409">
        <ele>159.938104</ele>
        <time>2022-01-08T04:22:37.958Z</time>
      </trkpt>
      <trkpt lat="48.296855" lon="7.701703">
        <ele>159.889529</ele>
        <time>2022-01-08T04:23:09.819Z</time>
      </trkpt>
      <trkpt lat="48.296826" lon="7.702756">
        <ele>159.850028</ele>
        <time>2022-01-08T04:23:35.835Z</time>
      </trkpt>
      <trkpt lat="48.296924" lon="7.703301">
        <ele>159.798110</ele>
        <time>2022-01-08T04:23:49.758Z</time>
      </trkpt>
      <trkpt lat="48.297055" lon="7.703396">
        <ele>159.764762</ele>
        <time>2022-01-08T04:23:54.974Z</time>
      </trkpt>
      <trkpt lat="48.297362" lon="7.703440">
        <ele>159.694055</ele>
        <time>2022-01-08T04:24:06.030Z</time>
      </trkpt>
      <trkpt lat="48.297455" lon="7.703645">
        <ele>159.656208</ele>
        <time>2022-01-08T04:24:11.923Z</time>
      </trkpt>
      <trkpt lat="48.297576" lon="7.704149">
        <ele>159.574481</ele>
        <time>2022-01-08T04:24:24.642Z</time>
      </trkpt>
      <trkpt lat="48.298126" lon="7.704560">
        <ele>159.433656</ele>
        <time>2022-01-08T04:24:46.738Z</time>
      </trkpt>
      <trkpt lat="48.298257" lon="7.704611">
        <ele>159.437697</ele>
        <time>2022-01-08T04:24:49.980Z</time>
      </trkpt>
      <trkpt lat="48.302380" lon="7.706087">
        <ele>160.271984</ele>
        <time>2022-01-08T04:26:37.898Z</time>
      </trkpt>
      <trkpt lat="48.304040" lon="7.706682">
        <ele>160.899668</ele>
        <time>2022-01-08T04:27:23.808Z</time>
      </trkpt>
      <trkpt lat="48.305235" lon="7.707202">
        <ele>161.212541</ele>
        <time>2022-01-08T04:27:55.407Z</time>
      </trkpt>
      <trkpt lat="48.305459" lon="7.707452">
        <ele>161.157311</ele>
        <time>2022-01-08T04:28:01.462Z</time>
      </trkpt>
      <trkpt lat="48.306073" lon="7.708572">
        <ele>160.966190</ele>
        <time>2022-01-08T04:28:36.296Z</time>
      </trkpt>
      <trkpt lat="48.306273" lon="7.709150">
        <ele>160.880396</ele>
        <time>2022-01-08T04:28:51.858Z</time>
      </trkpt>
      <trkpt lat="48.306366" lon="7.709885">
        <ele>160.828261</ele>
        <time>2022-01-08T04:29:09.835Z</time>
      </trkpt>
      <trkpt lat="48.308251" lon="7.716945">
        <ele>160.430239</ele>
        <time>2022-01-08T04:32:16.132Z</time>
      </trkpt>
      <trkpt lat="48.308265" lon="7.716993">
        <ele>160.427820</ele>
        <time>2022-01-08T04:32:17.386Z</time>
      </trkpt>
      <trkpt lat="48.308280" lon="7.717075">
        <ele>160.423895</ele>
        <time>2022-01-08T04:32:19.404Z</time>
      </trkpt>
      <trkpt lat="48.308380" lon="7.716977">
        <ele>160.415611</ele>
        <time>2022-01-08T04:32:22.403Z</time>
      </trkpt>
      <trkpt lat="48.308976" lon="7.716391">
        <ele>160.366193</ele>
        <time>2022-01-08T04:32:37.804Z</time>
      </trkpt>
      <trkpt lat="48.309206" lon="7.716166">
        <ele>160.347151</ele>
        <time>2022-01-08T04:32:43.566Z</time>
      </trkpt>
      <trkpt lat="48.310095" lon="7.715326">
        <ele>160.281835</ele>
        <time>2022-01-08T04:33:07.055Z</time>
      </trkpt>
      <trkpt lat="48.310998" lon="7.714662">
        <ele>160.224983</ele>
        <time>2022-01-08T04:33:28.846Z</time>
      </trkpt>
      <trkpt lat="48.311258" lon="7.714376">
        <ele>160.211338</ele>
        <time>2022-01-08T04:33:36.281Z</time>
      </trkpt>
      <trkpt lat="48.311366" lon="7.714368">
        <ele>160.209462</ele>
        <time>2022-01-08T04:33:38.613Z</time>
      </trkpt>
      <trkpt lat="48.311409" lon="7.714458">
        <ele>160.208183</ele>
        <time>2022-01-08T04:33:40.391Z</time>
      </trkpt>
      <trkpt lat="48.312136" lon="7.717365">
        <ele>159.882768</ele>
        <time>2022-01-08T04:34:31.395Z</time>
      </trkpt>
      <trkpt lat="48.315292" lon="7.730049">
        <ele>155.233020</ele>
        <time>2022-01-08T04:37:56.445Z</time>
      </trkpt>
      <trkpt lat="48.316000" lon="7.732424">
        <ele>154.865452</ele>
        <time>2022-01-08T04:38:38.897Z</time>
      </trkpt>
      <trkpt lat="48.316815" lon="7.734617">
        <ele>154.548033</ele>
        <time>2022-01-08T04:39:18.248Z</time>
      </trkpt>
      <trkpt lat="48.317551" lon="7.736263">
        <ele>154.492302</ele>
        <time>2022-01-08T04:39:50.716Z</time>
      </trkpt>
      <trkpt lat="48.318725" lon="7.738464">
        <ele>154.878915</ele>
        <time>2022-01-08T04:40:39.487Z</time>
      </trkpt>
      <trkpt lat="48.319748" lon="7.740036">
        <ele>154.625609</ele>
        <time>2022-01-08T04:41:14.522Z</time>
      </trkpt>
      <trkpt lat="48.320574" lon="7.741149">
        <ele>154.576431</ele>
        <time>2022-01-08T04:41:40.404Z</time>
      </trkpt>
      <trkpt lat="48.321527" lon="7.742245">
        <ele>154.731975</ele>
        <time>2022-01-08T04:42:11.110Z</time>
      </trkpt>
      <trkpt lat="48.322389" lon="7.743130">
        <ele>155.646429</ele>
        <time>2022-01-08T04:42:40.620Z</time>
      </trkpt>
      <trkpt lat="48.323864" lon="7.744419">
        <ele>157.025075</ele>
        <time>2022-01-08T04:43:30.659Z</time>
      </trkpt>
      <trkpt lat="48.325730" lon="7.745672">
        <ele>157.477747</ele>
        <time>2022-01-08T04:44:23.096Z</time>
      </trkpt>
      <trkpt lat="48.326817" lon="7.746249">
        <ele>156.985404</ele>
        <time>2022-01-08T04:44:48.466Z</time>
      </trkpt>
      <trkpt lat="48.328260" lon="7.746846">
        <ele>156.403559</ele>
        <time>2022-01-08T04:45:22.015Z</time>
      </trkpt>
      <trkpt lat="48.330341" lon="7.747380">
        <ele>157.204253</ele>
        <time>2022-01-08T04:46:20.139Z</time>
      </trkpt>
      <trkpt lat="48.332237" lon="7.747510">
        <ele>157.643322</ele>
        <time>2022-01-08T04:47:09.109Z</time>
      </trkpt>
      <trkpt lat="48.332429" lon="7.747517">
        <ele>157.633778</ele>
        <time>2022-01-08T04:47:13.592Z</time>
      </trkpt>
      <trkpt lat="48.333325" lon="7.747477">
        <ele>157.611225</ele>
        <time>2022-01-08T04:47:34.579Z</time>
      </trkpt>
      <trkpt lat="48.334356" lon="7.747354">
        <ele>157.777104</ele>
        <time>2022-01-08T04:48:00.176Z</time>
      </trkpt>
      <trkpt lat="48.335329" lon="7.747150">
        <ele>157.807388</ele>
        <time>2022-01-08T04:48:27.440Z</time>
      </trkpt>
      <trkpt lat="48.340021" lon="7.745606">
        <ele>156.427337</ele>
        <time>2022-01-08T04:50:19.970Z</time>
      </trkpt>
      <trkpt lat="48.344729" lon="7.743942">
        <ele>153.993596</ele>
        <time>2022-01-08T04:52:10.016Z</time>
      </trkpt>
      <trkpt lat="48.344924" lon="7.743921">
        <ele>153.939656</ele>
        <time>2022-01-08T04:52:14.729Z</time>
      </trkpt>
      <trkpt lat="48.345199" lon="7.744036">
        <ele>153.860906</ele>
        <time>2022-01-08T04:52:21.830Z</time>
      </trkpt>
      <trkpt lat="48.345329" lon="7.744124">
        <ele>153.821575</ele>
        <time>2022-01-08T04:52:25.401Z</time>
      </trkpt>
      <trkpt lat="48.345381" lon="7.744135">
        <ele>153.807086</ele>
        <time>2022-01-08T04:52:26.656Z</time>
      </trkpt>
      <trkpt lat="48.345480" lon="7.744102">
        <ele>153.779109</ele>
        <time>2022-01-08T04:52:29.085Z</time>
      </trkpt>
      <trkpt lat="48.345659" lon="7.743749">
        <ele>153.773247</ele>
        <time>2022-01-08T04:52:36.483Z</time>
      </trkpt>
      <trkpt lat="48.345793" lon="7.743600">
        <ele>153.779204</ele>
        <time>2022-01-08T04:52:40.705Z</time>
      </trkpt>
      <trkpt lat="48.346036" lon="7.743464">
        <ele>153.788471</ele>
        <time>2022-01-08T04:52:47.520Z</time>
      </trkpt>
      <trkpt lat="48.347473" lon="7.743055">
        <ele>153.814874</ele>
        <time>2022-01-08T04:53:23.164Z</time>
      </trkpt>
      <trkpt lat="48.348515" lon="7.742660">
        <ele>153.769580</ele>
        <time>2022-01-08T04:53:49.709Z</time>
      </trkpt>
      <trkpt lat="48.355263" lon="7.740460">
        <ele>153.231819</ele>
        <time>2022-01-08T04:56:37.875Z</time>
      </trkpt>
      <trkpt lat="48.364355" lon="7.737409">
        <ele>155.242432</ele>
        <time>2022-01-08T05:00:35.435Z</time>
      </trkpt>
      <trkpt lat="48.364829" lon="7.737271">
        <ele>155.432112</ele>
        <time>2022-01-08T05:00:49.317Z</time>
      </trkpt>
      <trkpt lat="48.365025" lon="7.737199">
        <ele>155.523461</ele>
        <time>2022-01-08T05:00:54.874Z</time>
      </trkpt>
      <trkpt lat="48.365107" lon="7.737171">
        <ele>155.561532</ele>
        <time>2022-01-08T05:00:57.317Z</time>
      </trkpt>
      <trkpt lat="48.366024" lon="7.736876">
        <ele>155.986106</ele>
        <time>2022-01-08T05:01:22.963Z</time>
      </trkpt>
      <trkpt lat="48.366155" lon="7.736840">
        <ele>156.046400</ele>
        <time>2022-01-08T05:01:26.502Z</time>
      </trkpt>
      <trkpt lat="48.366285" lon="7.736823">
        <ele>156.105483</ele>
        <time>2022-01-08T05:01:29.749Z</time>
      </trkpt>
      <trkpt lat="48.366420" lon="7.736839">
        <ele>156.166797</ele>
        <time>2022-01-08T05:01:33.598Z</time>
      </trkpt>
      <trkpt lat="48.366706" lon="7.736689">
        <ele>156.032535</ele>
        <time>2022-01-08T05:01:41.990Z</time>
      </trkpt>
      <trkpt lat="48.366814" lon="7.736577">
        <ele>155.949408</ele>
        <time>2022-01-08T05:01:45.614Z</time>
      </trkpt>
      <trkpt lat="48.366948" lon="7.736546">
        <ele>155.863478</ele>
        <time>2022-01-08T05:01:48.291Z</time>
      </trkpt>
      <trkpt lat="48.366923" lon="7.737139">
        <ele>155.613271</ele>
        <time>2022-01-08T05:01:56.116Z</time>
      </trkpt>
      <trkpt lat="48.367014" lon="7.737030">
        <ele>155.539559</ele>
        <time>2022-01-08T05:01:58.402Z</time>
      </trkpt>
      <trkpt lat="48.367258" lon="7.736221">
        <ele>155.165439</ele>
        <time>2022-01-08T05:02:09.988Z</time>
      </trkpt>
      <trkpt lat="48.367289" lon="7.736192">
        <ele>155.142305</ele>
        <time>2022-01-08T05:02:10.762Z</time>
      </trkpt>
      <trkpt lat="48.367581" lon="7.735990">
        <ele>154.918122</ele>
        <time>2022-01-08T05:02:17.905Z</time>
      </trkpt>
      <trkpt lat="48.368951" lon="7.735527">
        <ele>153.865589</ele>
        <time>2022-01-08T05:02:49.290Z</time>
      </trkpt>
      <trkpt lat="48.374098" lon="7.734098">
        <ele>151.324198</ele>
        <time>2022-01-08T05:04:48.258Z</time>
      </trkpt>
      <trkpt lat="48.376658" lon="7.733502">
        <ele>152.933505</ele>
        <time>2022-01-08T05:06:01.648Z</time>
      </trkpt>
      <trkpt lat="48.378937" lon="7.733114">
        <ele>153.844621</ele>
        <time>2022-01-08T05:07:02.458Z</time>
      </trkpt>
      <trkpt lat="48.379029" lon="7.733105">
        <ele>153.858856</ele>
        <time>2022-01-08T05:07:04.512Z</time>
      </trkpt>
      <trkpt lat="48.379272" lon="7.733067">
        <ele>153.896576</ele>
        <time>2022-01-08T05:07:10.517Z</time>
      </trkpt>
      <trkpt lat="48.381764" lon="7.732831">
        <ele>153.575602</ele>
        <time>2022-01-08T05:08:10.238Z</time>
      </trkpt>
      <trkpt lat="48.381985" lon="7.732865">
        <ele>153.498168</ele>
        <time>2022-01-08T05:08:15.793Z</time>
      </trkpt>
      <trkpt lat="48.382526" lon="7.733482">
        <ele>153.261604</ele>
        <time>2022-01-08T05:08:30.329Z</time>
      </trkpt>
      <trkpt lat="48.382787" lon="7.733909">
        <ele>153.127261</ele>
        <time>2022-01-08T05:08:38.489Z</time>
      </trkpt>
      <trkpt lat="48.382854" lon="7.734016">
        <ele>153.093218</ele>
        <time>2022-01-08T05:08:40.573Z</time>
      </trkpt>
      <trkpt lat="48.383023" lon="7.734059">
        <ele>153.033475</ele>
        <time>2022-01-08T05:08:44.191Z</time>
      </trkpt>
      <trkpt lat="48.383608" lon="7.733379">
        <ele>153.004831</ele>
        <time>2022-01-08T05:09:02.421Z</time>
      </trkpt>
      <trkpt lat="48.383850" lon="7.732993">
        <ele>153.008293</ele>
        <time>2022-01-08T05:09:11.261Z</time>
      </trkpt>
      <trkpt lat="48.383917" lon="7.732887">
        <ele>153.009247</ele>
        <time>2022-01-08T05:09:13.823Z</time>
      </trkpt>
      <trkpt lat="48.384106" lon="7.732779">
        <ele>153.011231</ele>
        <time>2022-01-08T05:09:18.318Z</time>
      </trkpt>
      <trkpt lat="48.384775" lon="7.732773">
        <ele>153.140456</ele>
        <time>2022-01-08T05:09:34.911Z</time>
      </trkpt>
      <trkpt lat="48.384919" lon="7.733020">
        <ele>153.308771</ele>
        <time>2022-01-08T05:09:40.956Z</time>
      </trkpt>
      <trkpt lat="48.385044" lon="7.733100">
        <ele>153.413505</ele>
        <time>2022-01-08T05:09:44.585Z</time>
      </trkpt>
      <trkpt lat="48.386945" lon="7.733366">
        <ele>154.187168</ele>
        <time>2022-01-08T05:10:33.752Z</time>
      </trkpt>
      <trkpt lat="48.386992" lon="7.733119">
        <ele>154.128270</ele>
        <time>2022-01-08T05:10:37.193Z</time>
      </trkpt>
      <trkpt lat="48.387051" lon="7.733057">
        <ele>154.103436</ele>
        <time>2022-01-08T05:10:38.694Z</time>
      </trkpt>
      <trkpt lat="48.387431" lon="7.733452">
        <ele>153.944054</ele>
        <time>2022-01-08T05:10:47.681Z</time>
      </trkpt>
      <trkpt lat="48.387730" lon="7.733515">
        <ele>153.839842</ele>
        <time>2022-01-08T05:10:53.721Z</time>
      </trkpt>
      <trkpt lat="48.387710" lon="7.734159">
        <ele>153.492176</ele>
        <time>2022-01-08T05:11:01.753Z</time>
      </trkpt>
      <trkpt lat="48.387772" lon="7.734164">
        <ele>153.423285</ele>
        <time>2022-01-08T05:11:03.022Z</time>
      </trkpt>
      <trkpt lat="48.388415" lon="7.734318">
        <ele>152.700873</ele>
        <time>2022-01-08T05:11:16.500Z</time>
      </trkpt>
      <trkpt lat="48.388948" lon="7.734271">
        <ele>152.108467</ele>
        <time>2022-01-08T05:11:28.176Z</time>
      </trkpt>
      <trkpt lat="48.389624" lon="7.734339">
        <ele>151.633788</ele>
        <time>2022-01-08T05:11:43.558Z</time>
      </trkpt>
      <trkpt lat="48.392274" lon="7.734821">
        <ele>150.857377</ele>
        <time>2022-01-08T05:12:46.429Z</time>
      </trkpt>
      <trkpt lat="48.394457" lon="7.735326">
        <ele>150.773911</ele>
        <time>2022-01-08T05:13:41.951Z</time>
      </trkpt>
      <trkpt lat="48.397856" lon="7.736394">
        <ele>149.785871</ele>
        <time>2022-01-08T05:15:02.954Z</time>
      </trkpt>
      <trkpt lat="48.398465" lon="7.736595">
        <ele>149.794546</ele>
        <time>2022-01-08T05:15:18.803Z</time>
      </trkpt>
      <trkpt lat="48.398675" lon="7.736625">
        <ele>149.836778</ele>
        <time>2022-01-08T05:15:24.344Z</time>
      </trkpt>
      <trkpt lat="48.399863" lon="7.736790">
        <ele>150.075630</ele>
        <time>2022-01-08T05:15:55.250Z</time>
      </trkpt>
      <trkpt lat="48.400007" lon="7.736927">
        <ele>150.069624</ele>
        <time>2022-01-08T05:15:59.283Z</time>
      </trkpt>
      <trkpt lat="48.401268" lon="7.736992">
        <ele>149.969328</ele>
        <time>2022-01-08T05:16:27.061Z</time>
      </trkpt>
      <trkpt lat="48.401920" lon="7.737159">
        <ele>149.909792</ele>
        <time>2022-01-08T05:16:40.808Z</time>
      </trkpt>
      <trkpt lat="48.402131" lon="7.737213">
        <ele>149.887214</ele>
        <time>2022-01-08T05:16:45.385Z</time>
      </trkpt>
      <trkpt lat="48.402788" lon="7.737458">
        <ele>149.815813</ele>
        <time>2022-01-08T05:17:00.014Z</time>
      </trkpt>
      <trkpt lat="48.402981" lon="7.737534">
        <ele>149.794768</ele>
        <time>2022-01-08T05:17:04.380Z</time>
      </trkpt>
      <trkpt lat="48.404122" lon="7.738031">
        <ele>150.043194</ele>
        <time>2022-01-08T05:17:49.020Z</time>
      </trkpt>
      <trkpt lat="48.406396" lon="7.739171">
        <ele>151.205313</ele>
        <time>2022-01-08T05:19:23.809Z</time>
      </trkpt>
      <trkpt lat="48.406846" lon="7.739431">
        <ele>151.460249</ele>
        <time>2022-01-08T05:19:42.738Z</time>
      </trkpt>
      <trkpt lat="48.409984" lon="7.741249">
        <ele>151.400277</ele>
        <time>2022-01-08T05:21:47.740Z</time>
      </trkpt>
      <trkpt lat="48.410015" lon="7.741113">
        <ele>151.385143</ele>
        <time>2022-01-08T05:21:50.834Z</time>
      </trkpt>
      <trkpt lat="48.415276" lon="7.744229">
        <ele>147.638137</ele>
        <time>2022-01-08T05:23:43.167Z</time>
      </trkpt>
      <trkpt lat="48.419042" lon="7.746492">
        <ele>149.041424</ele>
        <time>2022-01-08T05:25:20.906Z</time>
      </trkpt>
      <trkpt lat="48.422996" lon="7.748821">
        <ele>149.886310</ele>
        <time>2022-01-08T05:28:01.232Z</time>
      </trkpt>
      <trkpt lat="48.430800" lon="7.753506">
        <ele>149.789316</ele>
        <time>2022-01-08T05:33:17.127Z</time>
      </trkpt>
      <trkpt lat="48.432012" lon="7.754224">
        <ele>147.597649</ele>
        <time>2022-01-08T05:33:56.612Z</time>
      </trkpt>
      <trkpt lat="48.432134" lon="7.754379">
        <ele>147.281885</ele>
        <time>2022-01-08T05:34:01.269Z</time>
      </trkpt>
      <trkpt lat="48.432181" lon="7.754607">
        <ele>146.968401</ele>
        <time>2022-01-08T05:34:05.999Z</time>
      </trkpt>
      <trkpt lat="48.432137" lon="7.754880">
        <ele>146.599523</ele>
        <time>2022-01-08T05:34:11.459Z</time>
      </trkpt>
      <trkpt lat="48.432082" lon="7.755012">
        <ele>146.394863</ele>
        <time>2022-01-08T05:34:14.626Z</time>
      </trkpt>
      <trkpt lat="48.431809" lon="7.755313">
        <ele>145.725488</ele>
        <time>2022-01-08T05:34:24.871Z</time>
      </trkpt>
      <trkpt lat="48.430473" lon="7.756035">
        <ele>145.032003</ele>
        <time>2022-01-08T05:35:14.067Z</time>
      </trkpt>
      <trkpt lat="48.430234" lon="7.756164">
        <ele>145.266557</ele>
        <time>2022-01-08T05:35:25.706Z</time>
      </trkpt>
      <trkpt lat="48.430141" lon="7.756287">
        <ele>145.380879</ele>
        <time>2022-01-08T05:35:31.348Z</time>
      </trkpt>
      <trkpt lat="48.429359" lon="7.759288">
        <ele>148.594686</ele>
        <time>2022-01-08T05:37:08.335Z</time>
      </trkpt>
      <trkpt lat="48.429406" lon="7.759588">
        <ele>148.958554</ele>
        <time>2022-01-08T05:37:17.066Z</time>
      </trkpt>
      <trkpt lat="48.429405" lon="7.760008">
        <ele>149.247631</ele>
        <time>2022-01-08T05:37:28.322Z</time>
      </trkpt>
      <trkpt lat="48.429233" lon="7.760967">
        <ele>149.384250</ele>
        <time>2022-01-08T05:37:44.969Z</time>
      </trkpt>
      <trkpt lat="48.429061" lon="7.761033">
        <ele>149.421035</ele>
        <time>2022-01-08T05:37:49.277Z</time>
      </trkpt>
      <trkpt lat="48.427255" lon="7.761588">
        <ele>148.788358</ele>
        <time>2022-01-08T05:38:27.352Z</time>
      </trkpt>
      <trkpt lat="48.426585" lon="7.761710">
        <ele>148.252034</ele>
        <time>2022-01-08T05:38:40.092Z</time>
      </trkpt>
      <trkpt lat="48.425992" lon="7.761632">
        <ele>147.638467</ele>
        <time>2022-01-08T05:38:51.327Z</time>
      </trkpt>
      <trkpt lat="48.425399" lon="7.761326">
        <ele>146.958440</ele>
        <time>2022-01-08T05:39:03.166Z</time>
      </trkpt>
      <trkpt lat="48.425260" lon="7.761419">
        <ele>146.793441</ele>
        <time>2022-01-08T05:39:06.087Z</time>
      </trkpt>
      <trkpt lat="48.425202" lon="7.761582">
        <ele>146.660284</ele>
        <time>2022-01-08T05:39:08.406Z</time>
      </trkpt>
      <trkpt lat="48.425065" lon="7.762478">
        <ele>146.166241</ele>
        <time>2022-01-08T05:39:20.074Z</time>
      </trkpt>
      <trkpt lat="48.424541" lon="7.764322">
        <ele>145.854897</ele>
        <time>2022-01-08T05:39:48.785Z</time>
      </trkpt>
      <trkpt lat="48.424224" lon="7.764719">
        <ele>145.817965</ele>
        <time>2022-01-08T05:39:58.593Z</time>
      </trkpt>
      <trkpt lat="48.423730" lon="7.766145">
        <ele>146.015303</ele>
        <time>2022-01-08T05:40:24.055Z</time>
      </trkpt>
      <trkpt lat="48.423571" lon="7.767010">
        <ele>146.122510</ele>
        <time>2022-01-08T05:40:37.230Z</time>
      </trkpt>
      <trkpt lat="48.423394" lon="7.768008">
        <ele>145.943956</ele>
        <time>2022-01-08T05:40:51.815Z</time>
      </trkpt>
      <trkpt lat="48.423139" lon="7.767967">
        <ele>145.877162</ele>
        <time>2022-01-08T05:40:57.150Z</time>
      </trkpt>
      <trkpt lat="48.423078" lon="7.767951">
        <ele>145.861035</ele>
        <time>2022-01-08T05:40:58.438Z</time>
      </trkpt>
      <trkpt lat="48.422984" lon="7.767932">
        <ele>145.836333</ele>
        <time>2022-01-08T05:41:00.355Z</time>
      </trkpt>
      <trkpt lat="48.421177" lon="7.767418">
        <ele>145.604440</ele>
        <time>2022-01-08T05:41:39.508Z</time>
      </trkpt>
      <trkpt lat="48.420149" lon="7.767106">
        <ele>145.556337</ele>
        <time>2022-01-08T05:42:03.979Z</time>
      </trkpt>
      <trkpt lat="48.419969" lon="7.767119">
        <ele>145.547746</ele>
        <time>2022-01-08T05:42:08.128Z</time>
      </trkpt>
      <trkpt lat="48.419555" lon="7.767320">
        <ele>145.527008</ele>
        <time>2022-01-08T05:42:17.746Z</time>
      </trkpt>
      <trkpt lat="48.419463" lon="7.767386">
        <ele>145.522150</ele>
        <time>2022-01-08T05:42:19.899Z</time>
      </trkpt>
      <trkpt lat="48.419350" lon="7.767475">
        <ele>145.516071</ele>
        <time>2022-01-08T05:42:22.765Z</time>
      </trkpt>
      <trkpt lat="48.419265" lon="7.767558">
        <ele>145.511242</ele>
        <time>2022-01-08T05:42:24.993Z</time>
      </trkpt>
      <trkpt lat="48.418161" lon="7.768349">
        <ele>145.308839</ele>
        <time>2022-01-08T05:42:50.924Z</time>
      </trkpt>
      <trkpt lat="48.417054" lon="7.769023">
        <ele>145.102830</ele>
        <time>2022-01-08T05:43:15.936Z</time>
      </trkpt>
      <trkpt lat="48.416116" lon="7.769575">
        <ele>145.340567</ele>
        <time>2022-01-08T05:43:40.153Z</time>
      </trkpt>
      <trkpt lat="48.415525" lon="7.769941">
        <ele>145.490017</ele>
        <time>2022-01-08T05:43:55.198Z</time>
      </trkpt>
      <trkpt lat="48.415490" lon="7.769965">
        <ele>145.492258</ele>
        <time>2022-01-08T05:43:56.074Z</time>
      </trkpt>
      <trkpt lat="48.415110" lon="7.770262">
        <ele>145.517200</ele>
        <time>2022-01-08T05:44:06.041Z</time>
      </trkpt>
      <trkpt lat="48.415066" lon="7.770295">
        <ele>145.520064</ele>
        <time>2022-01-08T05:44:07.238Z</time>
      </trkpt>
      <trkpt lat="48.415414" lon="7.771349">
        <ele>145.565589</ele>
        <time>2022-01-08T05:44:25.745Z</time>
      </trkpt>
      <trkpt lat="48.415480" lon="7.771642">
        <ele>145.577554</ele>
        <time>2022-01-08T05:44:30.507Z</time>
      </trkpt>
      <trkpt lat="48.415484" lon="7.771918">
        <ele>145.588230</ele>
        <time>2022-01-08T05:44:34.495Z</time>
      </trkpt>
      <trkpt lat="48.415240" lon="7.773002">
        <ele>145.601311</ele>
        <time>2022-01-08T05:44:50.758Z</time>
      </trkpt>
      <trkpt lat="48.415179" lon="7.773176">
        <ele>145.602699</ele>
        <time>2022-01-08T05:44:53.721Z</time>
      </trkpt>
      <trkpt lat="48.415043" lon="7.773338">
        <ele>145.604541</ele>
        <time>2022-01-08T05:44:57.772Z</time>
      </trkpt>
      <trkpt lat="48.415231" lon="7.773762">
        <ele>145.608137</ele>
        <time>2022-01-08T05:45:05.676Z</time>
      </trkpt>
      <trkpt lat="48.415360" lon="7.774066">
        <ele>145.610682</ele>
        <time>2022-01-08T05:45:11.281Z</time>
      </trkpt>
      <trkpt lat="48.415559" lon="7.774508">
        <ele>145.645092</ele>
        <time>2022-01-08T05:45:24.898Z</time>
      </trkpt>
      <trkpt lat="48.415794" lon="7.774927">
        <ele>145.769772</ele>
        <time>2022-01-08T05:45:39.072Z</time>
      </trkpt>
      <trkpt lat="48.415990" lon="7.775374">
        <ele>145.891536</ele>
        <time>2022-01-08T05:45:48.121Z</time>
      </trkpt>
      <trkpt lat="48.416050" lon="7.775623">
        <ele>145.951744</ele>
        <time>2022-01-08T05:45:52.565Z</time>
      </trkpt>
      <trkpt lat="48.416065" lon="7.775725">
        <ele>145.975489</ele>
        <time>2022-01-08T05:45:54.199Z</time>
      </trkpt>
      <trkpt lat="48.415800" lon="7.776168">
        <ele>146.111034</ele>
        <time>2022-01-08T05:46:03.801Z</time>
      </trkpt>
      <trkpt lat="48.415516" lon="7.776575">
        <ele>146.223324</ele>
        <time>2022-01-08T05:46:13.463Z</time>
      </trkpt>
      <trkpt lat="48.415181" lon="7.777055">
        <ele>146.162755</ele>
        <time>2022-01-08T05:46:24.207Z</time>
      </trkpt>
      <trkpt lat="48.415688" lon="7.777304">
        <ele>146.092891</ele>
        <time>2022-01-08T05:46:35.540Z</time>
      </trkpt>
      <trkpt lat="48.415913" lon="7.777408">
        <ele>146.062056</ele>
        <time>2022-01-08T05:46:40.646Z</time>
      </trkpt>
      <trkpt lat="48.416565" lon="7.777708">
        <ele>145.976479</ele>
        <time>2022-01-08T05:46:55.191Z</time>
      </trkpt>
      <trkpt lat="48.416664" lon="7.777751">
        <ele>145.965384</ele>
        <time>2022-01-08T05:46:57.321Z</time>
      </trkpt>
      <trkpt lat="48.417071" lon="7.777930">
        <ele>145.919725</ele>
        <time>2022-01-08T05:47:06.396Z</time>
      </trkpt>
      <trkpt lat="48.417499" lon="7.778118">
        <ele>145.871716</ele>
        <time>2022-01-08T05:47:16.351Z</time>
      </trkpt>
      <trkpt lat="48.420309" lon="7.779448">
        <ele>146.293759</ele>
        <time>2022-01-08T05:48:24.527Z</time>
      </trkpt>
      <trkpt lat="48.420505" lon="7.779729">
        <ele>146.549417</ele>
        <time>2022-01-08T05:48:31.699Z</time>
      </trkpt>
      <trkpt lat="48.420650" lon="7.780296">
        <ele>146.930493</ele>
        <time>2022-01-08T05:48:42.749Z</time>
      </trkpt>
      <trkpt lat="48.420889" lon="7.781094">
        <ele>147.479553</ele>
        <time>2022-01-08T05:49:00.565Z</time>
      </trkpt>
      <trkpt lat="48.421257" lon="7.781848">
        <ele>148.444414</ele>
        <time>2022-01-08T05:49:20.428Z</time>
      </trkpt>
      <trkpt lat="48.421483" lon="7.782199">
        <ele>148.970689</ele>
        <time>2022-01-08T05:49:31.204Z</time>
      </trkpt>
      <trkpt lat="48.421984" lon="7.782765">
        <ele>149.986038</ele>
        <time>2022-01-08T05:49:51.325Z</time>
      </trkpt>
      <trkpt lat="48.422645" lon="7.783657">
        <ele>150.413208</ele>
        <time>2022-01-08T05:50:16.543Z</time>
      </trkpt>
      <trkpt lat="48.423037" lon="7.784017">
        <ele>150.380966</ele>
        <time>2022-01-08T05:50:28.185Z</time>
      </trkpt>
      <trkpt lat="48.424432" lon="7.785042">
        <ele>149.081253</ele>
        <time>2022-01-08T05:51:01.298Z</time>
      </trkpt>
      <trkpt lat="48.426143" lon="7.786718">
        <ele>146.329706</ele>
        <time>2022-01-08T05:51:37.537Z</time>
      </trkpt>
      <trkpt lat="48.428593" lon="7.789114">
        <ele>145.435029</ele>
        <time>2022-01-08T05:52:40.323Z</time>
      </trkpt>
      <trkpt lat="48.431438" lon="7.790384">
        <ele>148.124662</ele>
        <time>2022-01-08T05:54:00.901Z</time>
      </trkpt>
      <trkpt lat="48.432352" lon="7.790274">
        <ele>149.074635</ele>
        <time>2022-01-08T05:54:27.525Z</time>
      </trkpt>
      <trkpt lat="48.433184" lon="7.790415">
        <ele>149.924179</ele>
        <time>2022-01-08T05:54:50.483Z</time>
      </trkpt>
      <trkpt lat="48.434945" lon="7.790722">
        <ele>150.163170</ele>
        <time>2022-01-08T05:55:33.832Z</time>
      </trkpt>
      <trkpt lat="48.436263" lon="7.791115">
        <ele>148.462269</ele>
        <time>2022-01-08T05:55:59.781Z</time>
      </trkpt>
      <trkpt lat="48.437615" lon="7.792014">
        <ele>146.087481</ele>
        <time>2022-01-08T05:56:26.748Z</time>
      </trkpt>
      <trkpt lat="48.439074" lon="7.793004">
        <ele>144.179545</ele>
        <time>2022-01-08T05:56:58.295Z</time>
      </trkpt>
      <trkpt lat="48.439193" lon="7.793038">
        <ele>144.131368</ele>
        <time>2022-01-08T05:57:01.101Z</time>
      </trkpt>
      <trkpt lat="48.439129" lon="7.791058">
        <ele>143.694965</ele>
        <time>2022-01-08T05:57:29.989Z</time>
      </trkpt>
      <trkpt lat="48.439019" lon="7.789851">
        <ele>143.885247</ele>
        <time>2022-01-08T05:57:48.596Z</time>
      </trkpt>
      <trkpt lat="48.438778" lon="7.787620">
        <ele>144.293724</ele>
        <time>2022-01-08T05:58:24.087Z</time>
      </trkpt>
      <trkpt lat="48.438609" lon="7.786945">
        <ele>144.447478</ele>
        <time>2022-01-08T05:58:35.404Z</time>
      </trkpt>
      <trkpt lat="48.437920" lon="7.785412">
        <ele>144.840228</ele>
        <time>2022-01-08T05:59:04.038Z</time>
      </trkpt>
      <trkpt lat="48.437770" lon="7.784960">
        <ele>144.946807</ele>
        <time>2022-01-08T05:59:11.972Z</time>
      </trkpt>
      <trkpt lat="48.437674" lon="7.784483">
        <ele>145.051924</ele>
        <time>2022-01-08T05:59:19.746Z</time>
      </trkpt>
      <trkpt lat="48.437666" lon="7.783748">
        <ele>145.206945</ele>
        <time>2022-01-08T05:59:31.265Z</time>
      </trkpt>
      <trkpt lat="48.437755" lon="7.783235">
        <ele>145.379962</ele>
        <time>2022-01-08T05:59:39.603Z</time>
      </trkpt>
      <trkpt lat="48.437947" lon="7.782727">
        <ele>145.594060</ele>
        <time>2022-01-08T05:59:48.928Z</time>
      </trkpt>
      <trkpt lat="48.438277" lon="7.782054">
        <ele>145.900519</ele>
        <time>2022-01-08T06:00:02.731Z</time>
      </trkpt>
      <trkpt lat="48.438446" lon="7.781526">
        <ele>146.115197</ele>
        <time>2022-01-08T06:00:12.510Z</time>
      </trkpt>
      <trkpt lat="48.438533" lon="7.780940">
        <ele>146.337558</ele>
        <time>2022-01-08T06:00:22.280Z</time>
      </trkpt>
      <trkpt lat="48.438657" lon="7.780835">
        <ele>146.417878</ele>
        <time>2022-01-08T06:00:25.759Z</time>
      </trkpt>
      <trkpt lat="48.438637" lon="7.779803">
        <ele>146.804689</ele>
        <time>2022-01-08T06:00:42.340Z</time>
      </trkpt>
      <trkpt lat="48.438707" lon="7.779069">
        <ele>147.082514</ele>
        <time>2022-01-08T06:00:54.449Z</time>
      </trkpt>
      <trkpt lat="48.438775" lon="7.778359">
        <ele>147.320830</ele>
        <time>2022-01-08T06:01:06.313Z</time>
      </trkpt>
      <trkpt lat="48.439494" lon="7.773814">
        <ele>148.559333</ele>
        <time>2022-01-08T06:02:19.741Z</time>
      </trkpt>
      <trkpt lat="48.439460" lon="7.773577">
        <ele>148.622816</ele>
        <time>2022-01-08T06:02:23.383Z</time>
      </trkpt>
      <trkpt lat="48.439354" lon="7.773505">
        <ele>148.668698</ele>
        <time>2022-01-08T06:02:26.095Z</time>
      </trkpt>
      <trkpt lat="48.439612" lon="7.771180">
        <ele>149.898720</ele>
        <time>2022-01-08T06:03:06.393Z</time>
      </trkpt>
      <trkpt lat="48.439787" lon="7.769560">
        <ele>150.185715</ele>
        <time>2022-01-08T06:03:34.032Z</time>
      </trkpt>
      <trkpt lat="48.440273" lon="7.765418">
        <ele>149.380639</ele>
        <time>2022-01-08T06:04:31.265Z</time>
      </trkpt>
      <trkpt lat="48.440437" lon="7.763957">
        <ele>149.342987</ele>
        <time>2022-01-08T06:04:52.377Z</time>
      </trkpt>
      <trkpt lat="48.440545" lon="7.762996">
        <ele>149.318220</ele>
        <time>2022-01-08T06:05:07.485Z</time>
      </trkpt>
      <trkpt lat="48.440807" lon="7.760665">
        <ele>149.478207</ele>
        <time>2022-01-08T06:05:43.425Z</time>
      </trkpt>
      <trkpt lat="48.440816" lon="7.760586">
        <ele>149.484435</ele>
        <time>2022-01-08T06:05:44.795Z</time>
      </trkpt>
      <trkpt lat="48.440851" lon="7.760358">
        <ele>149.502620</ele>
        <time>2022-01-08T06:05:48.425Z</time>
      </trkpt>
      <trkpt lat="48.440935" lon="7.760097">
        <ele>149.513451</ele>
        <time>2022-01-08T06:05:54.025Z</time>
      </trkpt>
      <trkpt lat="48.440972" lon="7.760047">
        <ele>149.486984</ele>
        <time>2022-01-08T06:05:55.357Z</time>
      </trkpt>
      <trkpt lat="48.441119" lon="7.760038">
        <ele>149.408625</ele>
        <time>2022-01-08T06:05:59.699Z</time>
      </trkpt>
      <trkpt lat="48.442040" lon="7.760571">
        <ele>148.883178</ele>
        <time>2022-01-08T06:06:26.492Z</time>
      </trkpt>
      <trkpt lat="48.442263" lon="7.760553">
        <ele>148.764235</ele>
        <time>2022-01-08T06:06:32.389Z</time>
      </trkpt>
      <trkpt lat="48.442308" lon="7.760528">
        <ele>148.738691</ele>
        <time>2022-01-08T06:06:33.619Z</time>
      </trkpt>
      <trkpt lat="48.442513" lon="7.760658">
        <ele>148.620237</ele>
        <time>2022-01-08T06:06:39.775Z</time>
      </trkpt>
      <trkpt lat="48.442899" lon="7.760709">
        <ele>148.408749</ele>
        <time>2022-01-08T06:06:48.292Z</time>
      </trkpt>
      <trkpt lat="48.446849" lon="7.763068">
        <ele>146.420611</ele>
        <time>2022-01-08T06:08:25.660Z</time>
      </trkpt>
      <trkpt lat="48.448267" lon="7.763851">
        <ele>146.340168</ele>
        <time>2022-01-08T06:09:04.210Z</time>
      </trkpt>
      <trkpt lat="48.449717" lon="7.764540">
        <ele>146.455948</ele>
        <time>2022-01-08T06:09:42.210Z</time>
      </trkpt>
      <trkpt lat="48.453019" lon="7.765922">
        <ele>146.303553</ele>
        <time>2022-01-08T06:11:05.947Z</time>
      </trkpt>
      <trkpt lat="48.454087" lon="7.766299">
        <ele>146.145683</ele>
        <time>2022-01-08T06:11:33.555Z</time>
      </trkpt>
      <trkpt lat="48.457901" lon="7.767513">
        <ele>144.264950</ele>
        <time>2022-01-08T06:13:02.070Z</time>
      </trkpt>
      <trkpt lat="48.460375" lon="7.768201">
        <ele>143.897440</ele>
        <time>2022-01-08T06:14:03.831Z</time>
      </trkpt>
      <trkpt lat="48.462319" lon="7.768561">
        <ele>143.733339</ele>
        <time>2022-01-08T06:14:50.157Z</time>
      </trkpt>
      <trkpt lat="48.464663" lon="7.768793">
        <ele>144.586718</ele>
        <time>2022-01-08T06:15:52.308Z</time>
      </trkpt>
      <trkpt lat="48.467018" lon="7.768880">
        <ele>145.849354</ele>
        <time>2022-01-08T06:16:57.220Z</time>
      </trkpt>
      <trkpt lat="48.474667" lon="7.769232">
        <ele>143.241248</ele>
        <time>2022-01-08T06:19:55.314Z</time>
      </trkpt>
      <trkpt lat="48.475376" lon="7.769267">
        <ele>143.277409</ele>
        <time>2022-01-08T06:20:13.652Z</time>
      </trkpt>
      <trkpt lat="48.478262" lon="7.769355">
        <ele>143.640926</ele>
        <time>2022-01-08T06:21:26.838Z</time>
      </trkpt>
      <trkpt lat="48.486800" lon="7.769148">
        <ele>144.236567</ele>
        <time>2022-01-08T06:24:59.521Z</time>
      </trkpt>
      <trkpt lat="48.487433" lon="7.769278">
        <ele>144.607876</ele>
        <time>2022-01-08T06:25:16.888Z</time>
      </trkpt>
      <trkpt lat="48.488061" lon="7.769501">
        <ele>144.989763</ele>
        <time>2022-01-08T06:25:34.985Z</time>
      </trkpt>
      <trkpt lat="48.488923" lon="7.770003">
        <ele>145.328319</ele>
        <time>2022-01-08T06:25:59.923Z</time>
      </trkpt>
      <trkpt lat="48.489540" lon="7.770513">
        <ele>145.373379</ele>
        <time>2022-01-08T06:26:17.784Z</time>
      </trkpt>
      <trkpt lat="48.490037" lon="7.770985">
        <ele>145.410992</ele>
        <time>2022-01-08T06:26:31.796Z</time>
      </trkpt>
      <trkpt lat="48.490997" lon="7.772231">
        <ele>144.960568</ele>
        <time>2022-01-08T06:27:00.855Z</time>
      </trkpt>
      <trkpt lat="48.491347" lon="7.772800">
        <ele>144.756375</ele>
        <time>2022-01-08T06:27:12.965Z</time>
      </trkpt>
      <trkpt lat="48.491931" lon="7.773972">
        <ele>144.400581</ele>
        <time>2022-01-08T06:27:35.981Z</time>
      </trkpt>
      <trkpt lat="48.492775" lon="7.775868">
        <ele>143.769620</ele>
        <time>2022-01-08T06:28:11.054Z</time>
      </trkpt>
      <trkpt lat="48.493749" lon="7.778232">
        <ele>142.933816</ele>
        <time>2022-01-08T06:28:53.259Z</time>
      </trkpt>
      <trkpt lat="48.493916" lon="7.778699">
        <ele>142.817636</ele>
        <time>2022-01-08T06:29:01.534Z</time>
      </trkpt>
      <trkpt lat="48.494680" lon="7.780702">
        <ele>142.531131</ele>
        <time>2022-01-08T06:29:34.544Z</time>
      </trkpt>
      <trkpt lat="48.495520" lon="7.783122">
        <ele>142.465834</ele>
        <time>2022-01-08T06:30:15.528Z</time>
      </trkpt>
      <trkpt lat="48.495707" lon="7.783773">
        <ele>142.429840</ele>
        <time>2022-01-08T06:30:25.525Z</time>
      </trkpt>
      <trkpt lat="48.495732" lon="7.783834">
        <ele>142.426202</ele>
        <time>2022-01-08T06:30:26.558Z</time>
      </trkpt>
      <trkpt lat="48.495907" lon="7.784260">
        <ele>142.400776</ele>
        <time>2022-01-08T06:30:33.713Z</time>
      </trkpt>
      <trkpt lat="48.495459" lon="7.784680">
        <ele>142.297213</ele>
        <time>2022-01-08T06:30:45.216Z</time>
      </trkpt>
      <trkpt lat="48.495412" lon="7.784729">
        <ele>142.279800</ele>
        <time>2022-01-08T06:30:46.538Z</time>
      </trkpt>
      <trkpt lat="48.495357" lon="7.784794">
        <ele>142.258505</ele>
        <time>2022-01-08T06:30:48.152Z</time>
      </trkpt>
      <trkpt lat="48.495361" lon="7.784866">
        <ele>142.243911</ele>
        <time>2022-01-08T06:30:49.001Z</time>
      </trkpt>
      <trkpt lat="48.495092" lon="7.785152">
        <ele>142.143608</ele>
        <time>2022-01-08T06:30:56.269Z</time>
      </trkpt>
      <trkpt lat="48.495003" lon="7.785247">
        <ele>142.110379</ele>
        <time>2022-01-08T06:30:58.443Z</time>
      </trkpt>
      <trkpt lat="48.494686" lon="7.785699">
        <ele>141.977440</ele>
        <time>2022-01-08T06:31:07.572Z</time>
      </trkpt>
      <trkpt lat="48.494340" lon="7.786566">
        <ele>141.819728</ele>
        <time>2022-01-08T06:31:21.482Z</time>
      </trkpt>
      <trkpt lat="48.494048" lon="7.787698">
        <ele>141.764365</ele>
        <time>2022-01-08T06:31:39.058Z</time>
      </trkpt>
      <trkpt lat="48.493961" lon="7.788397">
        <ele>141.731950</ele>
        <time>2022-01-08T06:31:49.520Z</time>
      </trkpt>
      <trkpt lat="48.493934" lon="7.789098">
        <ele>141.762100</ele>
        <time>2022-01-08T06:32:00.143Z</time>
      </trkpt>
      <trkpt lat="48.493958" lon="7.790003">
        <ele>141.985472</ele>
        <time>2022-01-08T06:32:14.124Z</time>
      </trkpt>
      <trkpt lat="48.494177" lon="7.792631">
        <ele>142.549688</ele>
        <time>2022-01-08T06:32:56.607Z</time>
      </trkpt>
      <trkpt lat="48.494332" lon="7.794202">
        <ele>142.807142</ele>
        <time>2022-01-08T06:33:20.768Z</time>
      </trkpt>
      <trkpt lat="48.494431" lon="7.794520">
        <ele>142.765966</ele>
        <time>2022-01-08T06:33:25.896Z</time>
      </trkpt>
      <trkpt lat="48.494437" lon="7.794693">
        <ele>142.733017</ele>
        <time>2022-01-08T06:33:28.336Z</time>
      </trkpt>
      <trkpt lat="48.494422" lon="7.794846">
        <ele>142.703600</ele>
        <time>2022-01-08T06:33:30.465Z</time>
      </trkpt>
      <trkpt lat="48.494412" lon="7.795096">
        <ele>142.655964</ele>
        <time>2022-01-08T06:33:34.064Z</time>
      </trkpt>
      <trkpt lat="48.494869" lon="7.799524">
        <ele>141.809646</ele>
        <time>2022-01-08T06:34:35.978Z</time>
      </trkpt>
      <trkpt lat="48.495777" lon="7.806876">
        <ele>143.914307</ele>
        <time>2022-01-08T06:36:34.927Z</time>
      </trkpt>
      <trkpt lat="48.495836" lon="7.808487">
        <ele>144.493323</ele>
        <time>2022-01-08T06:37:01.798Z</time>
      </trkpt>
      <trkpt lat="48.495854" lon="7.810579">
        <ele>145.152950</ele>
        <time>2022-01-08T06:37:35.653Z</time>
      </trkpt>
      <trkpt lat="48.495772" lon="7.812350">
        <ele>145.030197</ele>
        <time>2022-01-08T06:38:02.593Z</time>
      </trkpt>
      <trkpt lat="48.495764" lon="7.812472">
        <ele>145.021720</ele>
        <time>2022-01-08T06:38:04.278Z</time>
      </trkpt>
      <trkpt lat="48.495747" lon="7.812709">
        <ele>145.005237</ele>
        <time>2022-01-08T06:38:07.494Z</time>
      </trkpt>
      <trkpt lat="48.495740" lon="7.812796">
        <ele>144.999178</ele>
        <time>2022-01-08T06:38:08.653Z</time>
      </trkpt>
      <trkpt lat="48.495818" lon="7.812822">
        <ele>144.990843</ele>
        <time>2022-01-08T06:38:10.283Z</time>
      </trkpt>
      <trkpt lat="48.498195" lon="7.813185">
        <ele>142.056134</ele>
        <time>2022-01-08T06:38:56.557Z</time>
      </trkpt>
      <trkpt lat="48.498415" lon="7.813135">
        <ele>141.813414</ele>
        <time>2022-01-08T06:39:00.742Z</time>
      </trkpt>
      <trkpt lat="48.499113" lon="7.812597">
        <ele>140.958345</ele>
        <time>2022-01-08T06:39:16.166Z</time>
      </trkpt>
      <trkpt lat="48.500036" lon="7.812342">
        <ele>140.800227</ele>
        <time>2022-01-08T06:39:37.271Z</time>
      </trkpt>
      <trkpt lat="48.499918" lon="7.811656">
        <ele>140.914473</ele>
        <time>2022-01-08T06:39:48.226Z</time>
      </trkpt>
      <trkpt lat="48.499847" lon="7.811449">
        <ele>140.952047</ele>
        <time>2022-01-08T06:39:51.916Z</time>
      </trkpt>
      <trkpt lat="48.499821" lon="7.811362">
        <ele>140.967431</ele>
        <time>2022-01-08T06:39:53.421Z</time>
      </trkpt>
      <trkpt lat="48.501124" lon="7.810416">
        <ele>141.421817</ele>
        <time>2022-01-08T06:40:52.556Z</time>
      </trkpt>
      <trkpt lat="48.501413" lon="7.810035">
        <ele>141.555219</ele>
        <time>2022-01-08T06:41:06.746Z</time>
      </trkpt>
      <trkpt lat="48.501979" lon="7.809471">
        <ele>141.571866</ele>
        <time>2022-01-08T06:41:30.699Z</time>
      </trkpt>
      <trkpt lat="48.502663" lon="7.808793">
        <ele>141.129398</ele>
        <time>2022-01-08T06:41:59.114Z</time>
      </trkpt>
      <trkpt lat="48.502751" lon="7.808759">
        <ele>141.080283</ele>
        <time>2022-01-08T06:42:02.167Z</time>
      </trkpt>
      <trkpt lat="48.502943" lon="7.808686">
        <ele>140.973226</ele>
        <time>2022-01-08T06:42:09.030Z</time>
      </trkpt>
      <trkpt lat="48.503498" lon="7.807110">
        <ele>140.962832</ele>
        <time>2022-01-08T06:42:51.228Z</time>
      </trkpt>
      <trkpt lat="48.503896" lon="7.806148">
        <ele>141.197203</ele>
        <time>2022-01-08T06:43:21.408Z</time>
      </trkpt>
      <trkpt lat="48.504849" lon="7.805036">
        <ele>142.110155</ele>
        <time>2022-01-08T06:44:10.417Z</time>
      </trkpt>
      <trkpt lat="48.504629" lon="7.804636">
        <ele>142.424305</ele>
        <time>2022-01-08T06:44:24.757Z</time>
      </trkpt>
      <trkpt lat="48.504539" lon="7.803969">
        <ele>142.835646</ele>
        <time>2022-01-08T06:44:43.198Z</time>
      </trkpt>
      <trkpt lat="48.504359" lon="7.803339">
        <ele>143.022171</ele>
        <time>2022-01-08T06:45:01.519Z</time>
      </trkpt>
      <trkpt lat="48.504410" lon="7.803279">
        <ele>143.038588</ele>
        <time>2022-01-08T06:45:04.073Z</time>
      </trkpt>
      <trkpt lat="48.504501" lon="7.803166">
        <ele>143.068505</ele>
        <time>2022-01-08T06:45:08.686Z</time>
      </trkpt>
      <trkpt lat="48.504624" lon="7.802999">
        <ele>143.110509</ele>
        <time>2022-01-08T06:45:14.863Z</time>
      </trkpt>
      <trkpt lat="48.504802" lon="7.803257">
        <ele>143.173165</ele>
        <time>2022-01-08T06:45:23.943Z</time>
      </trkpt>
      <trkpt lat="48.504936" lon="7.803916">
        <ele>143.289120</ele>
        <time>2022-01-08T06:45:41.132Z</time>
      </trkpt>
      <trkpt lat="48.505002" lon="7.804014">
        <ele>143.312626</ele>
        <time>2022-01-08T06:45:44.641Z</time>
      </trkpt>
      <trkpt lat="48.505320" lon="7.803882">
        <ele>143.380856</ele>
        <time>2022-01-08T06:45:56.871Z</time>
      </trkpt>
      <trkpt lat="48.505893" lon="7.804029">
        <ele>143.113793</ele>
        <time>2022-01-08T06:46:17.769Z</time>
      </trkpt>
      <trkpt lat="48.506062" lon="7.804136">
        <ele>143.029585</ele>
        <time>2022-01-08T06:46:24.197Z</time>
      </trkpt>
      <trkpt lat="48.506446" lon="7.804552">
        <ele>142.812397</ele>
        <time>2022-01-08T06:46:40.642Z</time>
      </trkpt>
      <trkpt lat="48.506597" lon="7.804613">
        <ele>142.740572</ele>
        <time>2022-01-08T06:46:46.080Z</time>
      </trkpt>
      <trkpt lat="48.506812" lon="7.804571">
        <ele>142.640958</ele>
        <time>2022-01-08T06:46:53.457Z</time>
      </trkpt>
      <trkpt lat="48.507036" lon="7.804342">
        <ele>142.545660</ele>
        <time>2022-01-08T06:47:02.788Z</time>
      </trkpt>
      <trkpt lat="48.507218" lon="7.804342">
        <ele>142.512858</ele>
        <time>2022-01-08T06:47:09.186Z</time>
      </trkpt>
      <trkpt lat="48.508210" lon="7.805033">
        <ele>142.315948</ele>
        <time>2022-01-08T06:47:49.288Z</time>
      </trkpt>
      <trkpt lat="48.508724" lon="7.805440">
        <ele>142.286570</ele>
        <time>2022-01-08T06:48:10.999Z</time>
      </trkpt>
      <trkpt lat="48.508924" lon="7.806098">
        <ele>142.425329</ele>
        <time>2022-01-08T06:48:28.992Z</time>
      </trkpt>
      <trkpt lat="48.509137" lon="7.806384">
        <ele>142.507806</ele>
        <time>2022-01-08T06:48:39.830Z</time>
      </trkpt>
      <trkpt lat="48.509479" lon="7.806844">
        <ele>142.640334</ele>
        <time>2022-01-08T06:48:57.695Z</time>
      </trkpt>
      <trkpt lat="48.509639" lon="7.807155">
        <ele>142.715805</ele>
        <time>2022-01-08T06:49:07.961Z</time>
      </trkpt>
      <trkpt lat="48.509961" lon="7.807336">
        <ele>142.769694</ele>
        <time>2022-01-08T06:49:21.299Z</time>
      </trkpt>
      <trkpt lat="48.510562" lon="7.807464">
        <ele>142.798980</ele>
        <time>2022-01-08T06:49:44.262Z</time>
      </trkpt>
      <trkpt lat="48.510672" lon="7.807564">
        <ele>142.805176</ele>
        <time>2022-01-08T06:49:49.302Z</time>
      </trkpt>
      <trkpt lat="48.510837" lon="7.807333">
        <ele>142.816034</ele>
        <time>2022-01-08T06:49:57.494Z</time>
      </trkpt>
      <trkpt lat="48.511267" lon="7.807064">
        <ele>142.838493</ele>
        <time>2022-01-08T06:50:14.760Z</time>
      </trkpt>
      <trkpt lat="48.512424" lon="7.807657">
        <ele>142.246679</ele>
        <time>2022-01-08T06:50:42.793Z</time>
      </trkpt>
      <trkpt lat="48.514281" lon="7.808435">
        <ele>141.003709</ele>
        <time>2022-01-08T06:51:25.553Z</time>
      </trkpt>
      <trkpt lat="48.514537" lon="7.808709">
        <ele>140.787756</ele>
        <time>2022-01-08T06:51:32.724Z</time>
      </trkpt>
      <trkpt lat="48.514737" lon="7.808930">
        <ele>140.617194</ele>
        <time>2022-01-08T06:51:38.373Z</time>
      </trkpt>
      <trkpt lat="48.515220" lon="7.809242">
        <ele>140.433798</ele>
        <time>2022-01-08T06:51:50.528Z</time>
      </trkpt>
      <trkpt lat="48.515552" lon="7.809368">
        <ele>140.332285</ele>
        <time>2022-01-08T06:51:58.538Z</time>
      </trkpt>
      <trkpt lat="48.515635" lon="7.809399">
        <ele>140.306930</ele>
        <time>2022-01-08T06:52:00.503Z</time>
      </trkpt>
      <trkpt lat="48.517239" lon="7.809692">
        <ele>140.092951</ele>
        <time>2022-01-08T06:52:39.520Z</time>
      </trkpt>
      <trkpt lat="48.517574" lon="7.809637">
        <ele>140.120704</ele>
        <time>2022-01-08T06:52:48.108Z</time>
      </trkpt>
      <trkpt lat="48.517905" lon="7.809384">
        <ele>140.151261</ele>
        <time>2022-01-08T06:52:57.689Z</time>
      </trkpt>
      <trkpt lat="48.519249" lon="7.809558">
        <ele>140.360087</ele>
        <time>2022-01-08T06:53:32.194Z</time>
      </trkpt>
      <trkpt lat="48.520010" lon="7.808477">
        <ele>140.604850</ele>
        <time>2022-01-08T06:53:58.277Z</time>
      </trkpt>
      <trkpt lat="48.521139" lon="7.808541">
        <ele>141.101399</ele>
        <time>2022-01-08T06:54:28.083Z</time>
      </trkpt>
      <trkpt lat="48.522602" lon="7.808519">
        <ele>141.741161</ele>
        <time>2022-01-08T06:55:08.745Z</time>
      </trkpt>
      <trkpt lat="48.523735" lon="7.808378">
        <ele>141.843779</ele>
        <time>2022-01-08T06:55:37.495Z</time>
      </trkpt>
      <trkpt lat="48.523838" lon="7.808577">
        <ele>141.721351</ele>
        <time>2022-01-08T06:55:41.144Z</time>
      </trkpt>
      <trkpt lat="48.524053" lon="7.809251">
        <ele>141.358709</ele>
        <time>2022-01-08T06:55:51.895Z</time>
      </trkpt>
      <trkpt lat="48.524449" lon="7.809996">
        <ele>140.895649</ele>
        <time>2022-01-08T06:56:05.503Z</time>
      </trkpt>
      <trkpt lat="48.524558" lon="7.810145">
        <ele>140.788032</ele>
        <time>2022-01-08T06:56:08.750Z</time>
      </trkpt>
      <trkpt lat="48.524832" lon="7.810187">
        <ele>140.616250</ele>
        <time>2022-01-08T06:56:14.078Z</time>
      </trkpt>
      <trkpt lat="48.525288" lon="7.809481">
        <ele>140.214257</ele>
        <time>2022-01-08T06:56:26.795Z</time>
      </trkpt>
      <trkpt lat="48.525420" lon="7.809378">
        <ele>140.122804</ele>
        <time>2022-01-08T06:56:29.772Z</time>
      </trkpt>
      <trkpt lat="48.525484" lon="7.809391">
        <ele>140.083057</ele>
        <time>2022-01-08T06:56:31.090Z</time>
      </trkpt>
      <trkpt lat="48.526217" lon="7.810697">
        <ele>139.639252</ele>
        <time>2022-01-08T06:56:55.861Z</time>
      </trkpt>
      <trkpt lat="48.526300" lon="7.811001">
        <ele>139.626178</ele>
        <time>2022-01-08T06:57:00.772Z</time>
      </trkpt>
      <trkpt lat="48.526300" lon="7.811267">
        <ele>139.615602</ele>
        <time>2022-01-08T06:57:04.780Z</time>
      </trkpt>
      <trkpt lat="48.526077" lon="7.812076">
        <ele>139.580761</ele>
        <time>2022-01-08T06:57:17.570Z</time>
      </trkpt>
      <trkpt lat="48.526085" lon="7.812304">
        <ele>139.571683</ele>
        <time>2022-01-08T06:57:20.861Z</time>
      </trkpt>
      <trkpt lat="48.526317" lon="7.812466">
        <ele>139.562454</ele>
        <time>2022-01-08T06:57:26.252Z</time>
      </trkpt>
      <trkpt lat="48.527210" lon="7.812349">
        <ele>139.646529</ele>
        <time>2022-01-08T06:57:46.107Z</time>
      </trkpt>
      <trkpt lat="48.527388" lon="7.812380">
        <ele>139.663336</ele>
        <time>2022-01-08T06:57:50.166Z</time>
      </trkpt>
      <trkpt lat="48.527915" lon="7.812192">
        <ele>139.714128</ele>
        <time>2022-01-08T06:58:02.882Z</time>
      </trkpt>
      <trkpt lat="48.529023" lon="7.812115">
        <ele>139.916105</ele>
        <time>2022-01-08T06:58:28.682Z</time>
      </trkpt>
      <trkpt lat="48.529199" lon="7.812033">
        <ele>139.952029</ele>
        <time>2022-01-08T06:58:33.002Z</time>
      </trkpt>
      <trkpt lat="48.530132" lon="7.811648">
        <ele>139.988101</ele>
        <time>2022-01-08T06:58:57.619Z</time>
      </trkpt>
      <trkpt lat="48.533914" lon="7.809680">
        <ele>138.891306</ele>
        <time>2022-01-08T07:00:30.514Z</time>
      </trkpt>
      <trkpt lat="48.534556" lon="7.809329">
        <ele>138.965954</ele>
        <time>2022-01-08T07:00:47.764Z</time>
      </trkpt>
      <trkpt lat="48.534727" lon="7.809235">
        <ele>138.985849</ele>
        <time>2022-01-08T07:00:52.175Z</time>
      </trkpt>
      <trkpt lat="48.535336" lon="7.808984">
        <ele>139.538496</ele>
        <time>2022-01-08T07:01:08.556Z</time>
      </trkpt>
      <trkpt lat="48.535545" lon="7.808866">
        <ele>139.819566</ele>
        <time>2022-01-08T07:01:14.842Z</time>
      </trkpt>
      <trkpt lat="48.536740" lon="7.808315">
        <ele>141.367829</ele>
        <time>2022-01-08T07:01:52.886Z</time>
      </trkpt>
      <trkpt lat="48.537450" lon="7.808056">
        <ele>142.089327</ele>
        <time>2022-01-08T07:02:15.256Z</time>
      </trkpt>
      <trkpt lat="48.538448" lon="7.807754">
        <ele>143.067375</ele>
        <time>2022-01-08T07:02:42.992Z</time>
      </trkpt>
      <trkpt lat="48.539393" lon="7.807581">
        <ele>143.415354</ele>
        <time>2022-01-08T07:03:07.195Z</time>
      </trkpt>
      <trkpt lat="48.539459" lon="7.807569">
        <ele>143.439654</ele>
        <time>2022-01-08T07:03:08.893Z</time>
      </trkpt>
      <trkpt lat="48.541095" lon="7.807520">
        <ele>144.353384</ele>
        <time>2022-01-08T07:03:52.725Z</time>
      </trkpt>
      <trkpt lat="48.543007" lon="7.807729">
        <ele>145.423543</ele>
        <time>2022-01-08T07:04:47.128Z</time>
      </trkpt>
      <trkpt lat="48.543187" lon="7.807821">
        <ele>145.503146</ele>
        <time>2022-01-08T07:04:51.607Z</time>
      </trkpt>
      <trkpt lat="48.543093" lon="7.807936">
        <ele>145.553819</ele>
        <time>2022-01-08T07:04:54.346Z</time>
      </trkpt>
      <trkpt lat="48.543161" lon="7.808059">
        <ele>145.598261</ele>
        <time>2022-01-08T07:04:56.908Z</time>
      </trkpt>
      <trkpt lat="48.543275" lon="7.808115">
        <ele>145.648478</ele>
        <time>2022-01-08T07:04:59.894Z</time>
      </trkpt>
      <trkpt lat="48.543538" lon="7.808028">
        <ele>145.730587</ele>
        <time>2022-01-08T07:05:06.210Z</time>
      </trkpt>
      <trkpt lat="48.544844" lon="7.807899">
        <ele>144.731572</ele>
        <time>2022-01-08T07:05:35.082Z</time>
      </trkpt>
      <trkpt lat="48.545271" lon="7.807942">
        <ele>144.404914</ele>
        <time>2022-01-08T07:05:44.278Z</time>
      </trkpt>
      <trkpt lat="48.546163" lon="7.808285">
        <ele>143.531926</ele>
        <time>2022-01-08T07:06:04.740Z</time>
      </trkpt>
      <trkpt lat="48.546179" lon="7.808303">
        <ele>143.512855</ele>
        <time>2022-01-08T07:06:05.100Z</time>
      </trkpt>
      <trkpt lat="48.546458" lon="7.808603">
        <ele>143.185467</ele>
        <time>2022-01-08T07:06:12.664Z</time>
      </trkpt>
      <trkpt lat="48.546532" lon="7.808103">
        <ele>142.861226</ele>
        <time>2022-01-08T07:06:19.989Z</time>
      </trkpt>
      <trkpt lat="48.548209" lon="7.808415">
        <ele>141.208580</ele>
        <time>2022-01-08T07:06:56.121Z</time>
      </trkpt>
      <trkpt lat="48.550362" lon="7.808604">
        <ele>140.096534</ele>
        <time>2022-01-08T07:07:45.512Z</time>
      </trkpt>
      <trkpt lat="48.552608" lon="7.808800">
        <ele>140.778741</ele>
        <time>2022-01-08T07:08:44.252Z</time>
      </trkpt>
      <trkpt lat="48.552918" lon="7.808887">
        <ele>140.972209</ele>
        <time>2022-01-08T07:08:53.237Z</time>
      </trkpt>
      <trkpt lat="48.553037" lon="7.809168">
        <ele>141.107697</ele>
        <time>2022-01-08T07:08:59.588Z</time>
      </trkpt>
      <trkpt lat="48.553264" lon="7.809368">
        <ele>141.268938</ele>
        <time>2022-01-08T07:09:06.651Z</time>
      </trkpt>
      <trkpt lat="48.553610" lon="7.809269">
        <ele>141.485015</ele>
        <time>2022-01-08T07:09:16.163Z</time>
      </trkpt>
      <trkpt lat="48.553684" lon="7.809308">
        <ele>141.533104</ele>
        <time>2022-01-08T07:09:18.421Z</time>
      </trkpt>
      <trkpt lat="48.553766" lon="7.809482">
        <ele>141.558825</ele>
        <time>2022-01-08T07:09:22.053Z</time>
      </trkpt>
      <trkpt lat="48.553807" lon="7.809756">
        <ele>141.482898</ele>
        <time>2022-01-08T07:09:27.316Z</time>
      </trkpt>
      <trkpt lat="48.553823" lon="7.809920">
        <ele>141.438092</ele>
        <time>2022-01-08T07:09:30.023Z</time>
      </trkpt>
      <trkpt lat="48.553874" lon="7.810146">
        <ele>141.373555</ele>
        <time>2022-01-08T07:09:34.094Z</time>
      </trkpt>
      <trkpt lat="48.554449" lon="7.810201">
        <ele>141.138290</ele>
        <time>2022-01-08T07:09:47.908Z</time>
      </trkpt>
      <trkpt lat="48.554359" lon="7.811791">
        <ele>140.535361</ele>
        <time>2022-01-08T07:10:10.032Z</time>
      </trkpt>
      <trkpt lat="48.554280" lon="7.812001">
        <ele>140.391054</ele>
        <time>2022-01-08T07:10:13.442Z</time>
      </trkpt>
      <trkpt lat="48.554352" lon="7.812107">
        <ele>140.300316</ele>
        <time>2022-01-08T07:10:15.545Z</time>
      </trkpt>
      <trkpt lat="48.554468" lon="7.812208">
        <ele>140.179474</ele>
        <time>2022-01-08T07:10:18.055Z</time>
      </trkpt>
      <trkpt lat="48.554500" lon="7.812286">
        <ele>140.124649</ele>
        <time>2022-01-08T07:10:19.238Z</time>
      </trkpt>
      <trkpt lat="48.554538" lon="7.812464">
        <ele>140.012914</ele>
        <time>2022-01-08T07:10:21.604Z</time>
      </trkpt>
      <trkpt lat="48.554830" lon="7.812813">
        <ele>139.676859</ele>
        <time>2022-01-08T07:10:28.813Z</time>
      </trkpt>
      <trkpt lat="48.555003" lon="7.812967">
        <ele>139.495624</ele>
        <time>2022-01-08T07:10:32.739Z</time>
      </trkpt>
      <trkpt lat="48.555191" lon="7.812825">
        <ele>139.305914</ele>
        <time>2022-01-08T07:10:36.863Z</time>
      </trkpt>
      <trkpt lat="48.557060" lon="7.812415">
        <ele>139.937397</ele>
        <time>2022-01-08T07:11:22.487Z</time>
      </trkpt>
      <trkpt lat="48.557300" lon="7.812277">
        <ele>140.056314</ele>
        <time>2022-01-08T07:11:29.186Z</time>
      </trkpt>
      <trkpt lat="48.557582" lon="7.811965">
        <ele>140.218174</ele>
        <time>2022-01-08T07:11:37.925Z</time>
      </trkpt>
      <trkpt lat="48.557894" lon="7.811633">
        <ele>140.394894</ele>
        <time>2022-01-08T07:11:47.343Z</time>
      </trkpt>
      <trkpt lat="48.558294" lon="7.811039">
        <ele>140.654619</ele>
        <time>2022-01-08T07:12:00.812Z</time>
      </trkpt>
      <trkpt lat="48.558388" lon="7.811016">
        <ele>140.698716</ele>
        <time>2022-01-08T07:12:03.038Z</time>
      </trkpt>
      <trkpt lat="48.558624" lon="7.810780">
        <ele>140.735631</ele>
        <time>2022-01-08T07:12:09.473Z</time>
      </trkpt>
      <trkpt lat="48.558934" lon="7.810433">
        <ele>140.632869</ele>
        <time>2022-01-08T07:12:17.619Z</time>
      </trkpt>
      <trkpt lat="48.560761" lon="7.808399">
        <ele>140.311990</ele>
        <time>2022-01-08T07:13:05.192Z</time>
      </trkpt>
      <trkpt lat="48.561011" lon="7.808267">
        <ele>140.317650</ele>
        <time>2022-01-08T07:13:11.355Z</time>
      </trkpt>
      <trkpt lat="48.561251" lon="7.808243">
        <ele>140.322791</ele>
        <time>2022-01-08T07:13:17.040Z</time>
      </trkpt>
      <trkpt lat="48.561354" lon="7.808197">
        <ele>140.325086</ele>
        <time>2022-01-08T07:13:19.663Z</time>
      </trkpt>
      <trkpt lat="48.561508" lon="7.808169">
        <ele>140.328401</ele>
        <time>2022-01-08T07:13:23.395Z</time>
      </trkpt>
      <trkpt lat="48.563332" lon="7.807870">
        <ele>141.488377</ele>
        <time>2022-01-08T07:14:10.167Z</time>
      </trkpt>
      <trkpt lat="48.564222" lon="7.807719">
        <ele>140.925530</ele>
        <time>2022-01-08T07:14:29.634Z</time>
      </trkpt>
      <trkpt lat="48.564310" lon="7.807698">
        <ele>140.868372</ele>
        <time>2022-01-08T07:14:31.392Z</time>
      </trkpt>
      <trkpt lat="48.564364" lon="7.807686">
        <ele>140.833354</ele>
        <time>2022-01-08T07:14:32.455Z</time>
      </trkpt>
      <trkpt lat="48.564946" lon="7.807569">
        <ele>140.456667</ele>
        <time>2022-01-08T07:14:43.186Z</time>
      </trkpt>
      <trkpt lat="48.565445" lon="7.807461">
        <ele>140.107611</ele>
        <time>2022-01-08T07:14:52.459Z</time>
      </trkpt>
      <trkpt lat="48.566228" lon="7.807308">
        <ele>139.538344</ele>
        <time>2022-01-08T07:15:07.346Z</time>
      </trkpt>
      <trkpt lat="48.567828" lon="7.806876">
        <ele>139.537244</ele>
        <time>2022-01-08T07:15:44.688Z</time>
      </trkpt>
      <trkpt lat="48.568468" lon="7.806717">
        <ele>139.878351</ele>
        <time>2022-01-08T07:16:02.219Z</time>
      </trkpt>
      <trkpt lat="48.569635" lon="7.806390">
        <ele>140.213350</ele>
        <time>2022-01-08T07:16:31.612Z</time>
      </trkpt>
      <trkpt lat="48.569717" lon="7.807167">
        <ele>140.332855</ele>
        <time>2022-01-08T07:16:42.604Z</time>
      </trkpt>
      <trkpt lat="48.569820" lon="7.807853">
        <ele>140.322491</ele>
        <time>2022-01-08T07:16:52.307Z</time>
      </trkpt>
      <trkpt lat="48.570091" lon="7.808910">
        <ele>139.956158</ele>
        <time>2022-01-08T07:17:07.921Z</time>
      </trkpt>
      <trkpt lat="48.570347" lon="7.809942">
        <ele>139.599986</ele>
        <time>2022-01-08T07:17:22.553Z</time>
      </trkpt>
      <trkpt lat="48.570396" lon="7.810076">
        <ele>139.550509</ele>
        <time>2022-01-08T07:17:24.392Z</time>
      </trkpt>
      <trkpt lat="48.570522" lon="7.810414">
        <ele>139.527961</ele>
        <time>2022-01-08T07:17:33.449Z</time>
      </trkpt>
      <trkpt lat="48.570544" lon="7.810470">
        <ele>139.528850</ele>
        <time>2022-01-08T07:17:34.579Z</time>
      </trkpt>
      <trkpt lat="48.571155" lon="7.811721">
        <ele>139.550091</ele>
        <time>2022-01-08T07:18:05.973Z</time>
      </trkpt>
      <trkpt lat="48.571226" lon="7.811867">
        <ele>139.552566</ele>
        <time>2022-01-08T07:18:09.389Z</time>
      </trkpt>
      <trkpt lat="48.571248" lon="7.811757">
        <ele>139.554135</ele>
        <time>2022-01-08T07:18:11.323Z</time>
      </trkpt>
      <trkpt lat="48.571790" lon="7.810505">
        <ele>139.623070</ele>
        <time>2022-01-08T07:18:33.607Z</time>
      </trkpt>
      <trkpt lat="48.572513" lon="7.811177">
        <ele>139.702849</ele>
        <time>2022-01-08T07:18:58.769Z</time>
      </trkpt>
      <trkpt lat="48.572597" lon="7.811252">
        <ele>139.712019</ele>
        <time>2022-01-08T07:19:01.629Z</time>
      </trkpt>
      <trkpt lat="48.573165" lon="7.811774">
        <ele>139.697289</ele>
        <time>2022-01-08T07:19:21.409Z</time>
      </trkpt>
      <trkpt lat="48.573735" lon="7.812314">
        <ele>139.650861</ele>
        <time>2022-01-08T07:19:41.181Z</time>
      </trkpt>
      <trkpt lat="48.573777" lon="7.812352">
        <ele>139.647483</ele>
        <time>2022-01-08T07:19:42.574Z</time>
      </trkpt>
      <trkpt lat="48.574518" lon="7.813036">
        <ele>139.486298</ele>
        <time>2022-01-08T07:20:01.862Z</time>
      </trkpt>
      <trkpt lat="48.574766" lon="7.813272">
        <ele>139.354084</ele>
        <time>2022-01-08T07:20:07.659Z</time>
      </trkpt>
      <trkpt lat="48.575025" lon="7.813507">
        <ele>139.217798</ele>
        <time>2022-01-08T07:20:13.761Z</time>
      </trkpt>
      <trkpt lat="48.575104" lon="7.813573">
        <ele>139.177075</ele>
        <time>2022-01-08T07:20:15.684Z</time>
      </trkpt>
      <trkpt lat="48.574772" lon="7.814596">
        <ele>138.836958</ele>
        <time>2022-01-08T07:20:31.439Z</time>
      </trkpt>
      <trkpt lat="48.574624" lon="7.815050">
        <ele>138.733095</ele>
        <time>2022-01-08T07:20:38.153Z</time>
      </trkpt>
      <trkpt lat="48.574732" lon="7.815152">
        <ele>138.700637</ele>
        <time>2022-01-08T07:20:40.835Z</time>
      </trkpt>
      <trkpt lat="48.574682" lon="7.815275">
        <ele>138.676294</ele>
        <time>2022-01-08T07:20:42.765Z</time>
      </trkpt>
      <trkpt lat="48.574617" lon="7.815430">
        <ele>138.645348</ele>
        <time>2022-01-08T07:20:45.236Z</time>
      </trkpt>
      <trkpt lat="48.574581" lon="7.815518">
        <ele>138.627901</ele>
        <time>2022-01-08T07:20:46.733Z</time>
      </trkpt>
      <trkpt lat="48.574591" lon="7.815589">
        <ele>138.615660</ele>
        <time>2022-01-08T07:20:47.769Z</time>
      </trkpt>
      <trkpt lat="48.574619" lon="7.815677">
        <ele>138.599194</ele>
        <time>2022-01-08T07:20:49.112Z</time>
      </trkpt>
      <trkpt lat="48.574523" lon="7.815833">
        <ele>138.563268</ele>
        <time>2022-01-08T07:20:52.054Z</time>
      </trkpt>
      <trkpt lat="48.574348" lon="7.816441">
        <ele>138.451459</ele>
        <time>2022-01-08T07:21:01.494Z</time>
      </trkpt>
      <trkpt lat="48.574163" lon="7.817093">
        <ele>138.331016</ele>
        <time>2022-01-08T07:21:12.019Z</time>
      </trkpt>
      <trkpt lat="48.574090" lon="7.817058">
        <ele>138.307683</ele>
        <time>2022-01-08T07:21:13.768Z</time>
      </trkpt>
      <trkpt lat="48.573819" lon="7.818132">
        <ele>138.075980</ele>
        <time>2022-01-08T07:21:31.105Z</time>
      </trkpt>
      <trkpt lat="48.573207" lon="7.820321">
        <ele>137.491504</ele>
        <time>2022-01-08T07:22:02.757Z</time>
      </trkpt>
      <trkpt lat="48.573151" lon="7.820522">
        <ele>137.423278</ele>
        <time>2022-01-08T07:22:05.505Z</time>
      </trkpt>
      <trkpt lat="48.573005" lon="7.820847">
        <ele>137.300391</ele>
        <time>2022-01-08T07:22:10.882Z</time>
      </trkpt>
      <trkpt lat="48.573099" lon="7.820901">
        <ele>137.252846</ele>
        <time>2022-01-08T07:22:17.827Z</time>
      </trkpt>
      <trkpt lat="48.573135" lon="7.820920">
        <ele>137.234818</ele>
        <time>2022-01-08T07:22:20.473Z</time>
      </trkpt>
      <trkpt lat="48.573367" lon="7.821044">
        <ele>137.118473</ele>
        <time>2022-01-08T07:22:25.566Z</time>
      </trkpt>
      <trkpt lat="48.573735" lon="7.821092">
        <ele>136.943840</ele>
        <time>2022-01-08T07:22:33.555Z</time>
      </trkpt>
      <trkpt lat="48.574056" lon="7.820765">
        <ele>136.909378</ele>
        <time>2022-01-08T07:22:42.334Z</time>
      </trkpt>
      <trkpt lat="48.574669" lon="7.820913">
        <ele>136.862479</ele>
        <time>2022-01-08T07:22:57.024Z</time>
      </trkpt>
      <trkpt lat="48.575291" lon="7.820789">
        <ele>136.815079</ele>
        <time>2022-01-08T07:23:10.314Z</time>
      </trkpt>
      <trkpt lat="48.575414" lon="7.820852">
        <ele>136.805267</ele>
        <time>2022-01-08T07:23:12.838Z</time>
      </trkpt>
      <trkpt lat="48.575468" lon="7.821093">
        <ele>136.744755</ele>
        <time>2022-01-08T07:23:16.383Z</time>
      </trkpt>
      <trkpt lat="48.575466" lon="7.821778">
        <ele>136.532552</ele>
        <time>2022-01-08T07:23:25.885Z</time>
      </trkpt>
      <trkpt lat="48.575462" lon="7.822315">
        <ele>136.366189</ele>
        <time>2022-01-08T07:23:38.566Z</time>
      </trkpt>
      <trkpt lat="48.575531" lon="7.822978">
        <ele>136.158278</ele>
        <time>2022-01-08T07:23:53.994Z</time>
      </trkpt>
      <trkpt lat="48.575548" lon="7.823103">
        <ele>136.118745</ele>
        <time>2022-01-08T07:23:55.664Z</time>
      </trkpt>
      <trkpt lat="48.575554" lon="7.823134">
        <ele>136.108740</ele>
        <time>2022-01-08T07:23:56.094Z</time>
      </trkpt>
      <trkpt lat="48.575156" lon="7.823438">
        <ele>135.930823</ele>
        <time>2022-01-08T07:24:11.810Z</time>
      </trkpt>
      <trkpt lat="48.575012" lon="7.823526">
        <ele>135.895738</ele>
        <time>2022-01-08T07:24:17.270Z</time>
      </trkpt>
      <trkpt lat="48.575494" lon="7.823423">
        <ele>135.785779</ele>
        <time>2022-01-08T07:24:34.467Z</time>
      </trkpt>
      <trkpt lat="48.575745" lon="7.823319">
        <ele>135.726990</ele>
        <time>2022-01-08T07:24:40.188Z</time>
      </trkpt>
      <trkpt lat="48.576134" lon="7.822959">
        <ele>135.623958</ele>
        <time>2022-01-08T07:24:50.824Z</time>
      </trkpt>
      <trkpt lat="48.577646" lon="7.822670">
        <ele>135.232117</ele>
        <time>2022-01-08T07:25:24.371Z</time>
      </trkpt>
      <trkpt lat="48.578309" lon="7.822653">
        <ele>135.053101</ele>
        <time>2022-01-08T07:25:37.489Z</time>
      </trkpt>
      <trkpt lat="48.579012" lon="7.822837">
        <ele>134.833923</ele>
        <time>2022-01-08T07:25:52.079Z</time>
      </trkpt>
      <trkpt lat="48.579642" lon="7.822682">
        <ele>134.637837</ele>
        <time>2022-01-08T07:26:05.825Z</time>
      </trkpt>
      <trkpt lat="48.580572" lon="7.822692">
        <ele>134.654045</ele>
        <time>2022-01-08T07:26:26.316Z</time>
      </trkpt>
      <trkpt lat="48.581122" lon="7.822793">
        <ele>134.783130</ele>
        <time>2022-01-08T07:26:39.461Z</time>
      </trkpt>
      <trkpt lat="48.581514" lon="7.822709">
        <ele>134.875373</ele>
        <time>2022-01-08T07:26:49.038Z</time>
      </trkpt>
      <trkpt lat="48.583623" lon="7.822733">
        <ele>135.381329</ele>
        <time>2022-01-08T07:27:38.164Z</time>
      </trkpt>
      <trkpt lat="48.589984" lon="7.822820">
        <ele>136.240246</ele>
        <time>2022-01-08T07:30:03.664Z</time>
      </trkpt>
      <trkpt lat="48.593971" lon="7.822964">
        <ele>135.549707</ele>
        <time>2022-01-08T07:31:29.309Z</time>
      </trkpt>
      <trkpt lat="48.594016" lon="7.822951">
        <ele>135.538842</ele>
        <time>2022-01-08T07:31:30.371Z</time>
      </trkpt>
      <trkpt lat="48.594016" lon="7.822998">
        <ele>135.531470</ele>
        <time>2022-01-08T07:31:31.026Z</time>
      </trkpt>
      <trkpt lat="48.594029" lon="7.824201">
        <ele>135.361764</ele>
        <time>2022-01-08T07:31:47.598Z</time>
      </trkpt>
      <trkpt lat="48.594037" lon="7.824972">
        <ele>135.262325</ele>
        <time>2022-01-08T07:31:58.217Z</time>
      </trkpt>
      <trkpt lat="48.594039" lon="7.825037">
        <ele>135.253934</ele>
        <time>2022-01-08T07:31:59.099Z</time>
      </trkpt>
      <trkpt lat="48.594194" lon="7.824965">
        <ele>135.222318</ele>
        <time>2022-01-08T07:32:02.593Z</time>
      </trkpt>
      <trkpt lat="48.600112" lon="7.824876">
        <ele>136.004825</ele>
        <time>2022-01-08T07:34:17.235Z</time>
      </trkpt>
      <trkpt lat="48.600633" lon="7.825007">
        <ele>136.151283</ele>
        <time>2022-01-08T07:34:30.923Z</time>
      </trkpt>
      <trkpt lat="48.601148" lon="7.824863">
        <ele>136.299394</ele>
        <time>2022-01-08T07:34:44.265Z</time>
      </trkpt>
      <trkpt lat="48.604406" lon="7.824926">
        <ele>136.267339</ele>
        <time>2022-01-08T07:36:02.636Z</time>
      </trkpt>
      <trkpt lat="48.606267" lon="7.825036">
        <ele>136.535790</ele>
        <time>2022-01-08T07:36:50.099Z</time>
      </trkpt>
      <trkpt lat="48.607257" lon="7.825190">
        <ele>136.798701</ele>
        <time>2022-01-08T07:37:16.186Z</time>
      </trkpt>
      <trkpt lat="48.608233" lon="7.825395">
        <ele>136.715325</ele>
        <time>2022-01-08T07:37:40.707Z</time>
      </trkpt>
      <trkpt lat="48.609501" lon="7.825812">
        <ele>136.376046</ele>
        <time>2022-01-08T07:38:11.482Z</time>
      </trkpt>
      <trkpt lat="48.610605" lon="7.826263">
        <ele>135.700000</ele>
        <time>2022-01-08T07:38:37.148Z</time>
      </trkpt>
      <trkpt lat="48.611839" lon="7.826903">
        <ele>134.801506</ele>
        <time>2022-01-08T07:39:06.114Z</time>
      </trkpt>
      <trkpt lat="48.612465" lon="7.827309">
        <ele>134.311864</ele>
        <time>2022-01-08T07:39:21.456Z</time>
      </trkpt>
      <trkpt lat="48.613543" lon="7.827955">
        <ele>133.934469</ele>
        <time>2022-01-08T07:39:47.889Z</time>
      </trkpt>
      <trkpt lat="48.615880" lon="7.829613">
        <ele>134.156351</ele>
        <time>2022-01-08T07:40:53.033Z</time>
      </trkpt>
      <trkpt lat="48.617701" lon="7.831036">
        <ele>135.442120</ele>
        <time>2022-01-08T07:41:50.787Z</time>
      </trkpt>
      <trkpt lat="48.620374" lon="7.832849">
        <ele>135.281974</ele>
        <time>2022-01-08T07:43:03.294Z</time>
      </trkpt>
      <trkpt lat="48.622467" lon="7.833997">
        <ele>132.939979</ele>
        <time>2022-01-08T07:43:49.740Z</time>
      </trkpt>
      <trkpt lat="48.624132" lon="7.834819">
        <ele>132.227265</ele>
        <time>2022-01-08T07:44:30.794Z</time>
      </trkpt>
      <trkpt lat="48.628990" lon="7.836582">
        <ele>134.314470</ele>
        <time>2022-01-08T07:46:45.567Z</time>
      </trkpt>
      <trkpt lat="48.629492" lon="7.836751">
        <ele>134.332296</ele>
        <time>2022-01-08T07:46:56.786Z</time>
      </trkpt>
      <trkpt lat="48.629998" lon="7.836929">
        <ele>134.087225</ele>
        <time>2022-01-08T07:47:07.949Z</time>
      </trkpt>
      <trkpt lat="48.636639" lon="7.839158">
        <ele>131.160186</ele>
        <time>2022-01-08T07:49:46.199Z</time>
      </trkpt>
      <trkpt lat="48.638647" lon="7.839991">
        <ele>131.451054</ele>
        <time>2022-01-08T07:50:38.264Z</time>
      </trkpt>
      <trkpt lat="48.640087" lon="7.840927">
        <ele>132.169154</ele>
        <time>2022-01-08T07:51:21.819Z</time>
      </trkpt>
      <trkpt lat="48.640961" lon="7.841656">
        <ele>132.286798</ele>
        <time>2022-01-08T07:51:47.744Z</time>
      </trkpt>
      <trkpt lat="48.643042" lon="7.843682">
        <ele>131.315746</ele>
        <time>2022-01-08T07:52:43.855Z</time>
      </trkpt>
      <trkpt lat="48.643473" lon="7.844265">
        <ele>131.234248</ele>
        <time>2022-01-08T07:52:57.477Z</time>
      </trkpt>
      <trkpt lat="48.644091" lon="7.845199">
        <ele>131.111116</ele>
        <time>2022-01-08T07:53:19.228Z</time>
      </trkpt>
      <trkpt lat="48.644766" lon="7.846417">
        <ele>130.953752</ele>
        <time>2022-01-08T07:53:45.479Z</time>
      </trkpt>
      <trkpt lat="48.645351" lon="7.847761">
        <ele>130.782681</ele>
        <time>2022-01-08T07:54:10.573Z</time>
      </trkpt>
      <trkpt lat="48.645560" lon="7.848368">
        <ele>130.678485</ele>
        <time>2022-01-08T07:54:21.084Z</time>
      </trkpt>
      <trkpt lat="48.645927" lon="7.849602">
        <ele>130.472486</ele>
        <time>2022-01-08T07:54:42.097Z</time>
      </trkpt>
      <trkpt lat="48.646101" lon="7.850392">
        <ele>130.477798</ele>
        <time>2022-01-08T07:54:55.649Z</time>
      </trkpt>
      <trkpt lat="48.646660" lon="7.853192">
        <ele>130.992113</ele>
        <time>2022-01-08T07:55:47.376Z</time>
      </trkpt>
      <trkpt lat="48.647017" lon="7.854719">
        <ele>130.791944</ele>
        <time>2022-01-08T07:56:13.033Z</time>
      </trkpt>
      <trkpt lat="48.647014" lon="7.855222">
        <ele>130.729783</ele>
        <time>2022-01-08T07:56:20.289Z</time>
      </trkpt>
      <trkpt lat="48.646925" lon="7.855665">
        <ele>130.615542</ele>
        <time>2022-01-08T07:56:26.991Z</time>
      </trkpt>
      <trkpt lat="48.646549" lon="7.855897">
        <ele>130.452051</ele>
        <time>2022-01-08T07:56:35.065Z</time>
      </trkpt>
      <trkpt lat="48.645999" lon="7.856490">
        <ele>130.180153</ele>
        <time>2022-01-08T07:56:49.246Z</time>
      </trkpt>
      <trkpt lat="48.645606" lon="7.857413">
        <ele>130.187669</ele>
        <time>2022-01-08T07:57:04.846Z</time>
      </trkpt>
      <trkpt lat="48.645515" lon="7.857814">
        <ele>130.382732</ele>
        <time>2022-01-08T07:57:11.740Z</time>
      </trkpt>
      <trkpt lat="48.645139" lon="7.859482">
        <ele>131.193553</ele>
        <time>2022-01-08T07:57:42.883Z</time>
      </trkpt>
      <trkpt lat="48.645066" lon="7.859825">
        <ele>131.286144</ele>
        <time>2022-01-08T07:57:49.083Z</time>
      </trkpt>
      <trkpt lat="48.645042" lon="7.859936">
        <ele>131.303830</ele>
        <time>2022-01-08T07:57:50.994Z</time>
      </trkpt>
      <trkpt lat="48.645043" lon="7.860125">
        <ele>131.332452</ele>
        <time>2022-01-08T07:57:53.850Z</time>
      </trkpt>
      <trkpt lat="48.645059" lon="7.860185">
        <ele>131.342249</ele>
        <time>2022-01-08T07:57:54.854Z</time>
      </trkpt>
      <trkpt lat="48.645137" lon="7.860420">
        <ele>131.382073</ele>
        <time>2022-01-08T07:57:59.017Z</time>
      </trkpt>
      <trkpt lat="48.645177" lon="7.860497">
        <ele>131.396906</ele>
        <time>2022-01-08T07:58:00.433Z</time>
      </trkpt>
      <trkpt lat="48.645357" lon="7.860684">
        <ele>131.446943</ele>
        <time>2022-01-08T07:58:05.455Z</time>
      </trkpt>
      <trkpt lat="48.645697" lon="7.860835">
        <ele>131.528153</ele>
        <time>2022-01-08T07:58:13.386Z</time>
      </trkpt>
      <trkpt lat="48.645923" lon="7.860970">
        <ele>131.583838</ele>
        <time>2022-01-08T07:58:18.665Z</time>
      </trkpt>
      <trkpt lat="48.646326" lon="7.861416">
        <ele>131.740838</ele>
        <time>2022-01-08T07:58:29.379Z</time>
      </trkpt>
      <trkpt lat="48.646946" lon="7.862344">
        <ele>132.178385</ele>
        <time>2022-01-08T07:58:49.225Z</time>
      </trkpt>
      <trkpt lat="48.647185" lon="7.862566">
        <ele>132.319096</ele>
        <time>2022-01-08T07:58:56.380Z</time>
      </trkpt>
      <trkpt lat="48.647467" lon="7.862660">
        <ele>132.463992</ele>
        <time>2022-01-08T07:59:04.051Z</time>
      </trkpt>
      <trkpt lat="48.647667" lon="7.862656">
        <ele>132.564360</ele>
        <time>2022-01-08T07:59:09.654Z</time>
      </trkpt>
      <trkpt lat="48.647800" lon="7.862645">
        <ele>132.696509</ele>
        <time>2022-01-08T07:59:13.314Z</time>
      </trkpt>
      <trkpt lat="48.647924" lon="7.862624">
        <ele>132.820895</ele>
        <time>2022-01-08T07:59:16.824Z</time>
      </trkpt>
      <trkpt lat="48.648532" lon="7.862744">
        <ele>133.432141</ele>
        <time>2022-01-08T07:59:33.593Z</time>
      </trkpt>
      <trkpt lat="48.648969" lon="7.863090">
        <ele>133.923788</ele>
        <time>2022-01-08T07:59:46.818Z</time>
      </trkpt>
      <trkpt lat="48.649253" lon="7.863462">
        <ele>134.298200</ele>
        <time>2022-01-08T07:59:56.385Z</time>
      </trkpt>
      <trkpt lat="48.649740" lon="7.864641">
        <ele>133.971356</ele>
        <time>2022-01-08T08:00:16.917Z</time>
      </trkpt>
      <trkpt lat="48.650507" lon="7.866583">
        <ele>133.201376</ele>
        <time>2022-01-08T08:00:45.480Z</time>
      </trkpt>
      <trkpt lat="48.650589" lon="7.866468">
        <ele>133.131535</ele>
        <time>2022-01-08T08:00:47.689Z</time>
      </trkpt>
      <trkpt lat="48.650691" lon="7.866381">
        <ele>133.058387</ele>
        <time>2022-01-08T08:00:49.906Z</time>
      </trkpt>
      <trkpt lat="48.650725" lon="7.866352">
        <ele>133.034005</ele>
        <time>2022-01-08T08:00:50.723Z</time>
      </trkpt>
      <trkpt lat="48.650908" lon="7.866940">
        <ele>132.765725</ele>
        <time>2022-01-08T08:01:00.537Z</time>
      </trkpt>
      <trkpt lat="48.652549" lon="7.871059">
        <ele>132.497171</ele>
        <time>2022-01-08T08:02:18.888Z</time>
      </trkpt>
      <trkpt lat="48.655274" lon="7.877901">
        <ele>133.168586</ele>
        <time>2022-01-08T08:04:32.377Z</time>
      </trkpt>
      <trkpt lat="48.657942" lon="7.884546">
        <ele>133.527830</ele>
        <time>2022-01-08T08:06:41.436Z</time>
      </trkpt>
      <trkpt lat="48.658370" lon="7.885415">
        <ele>133.359047</ele>
        <time>2022-01-08T08:06:58.561Z</time>
      </trkpt>
      <trkpt lat="48.658963" lon="7.886874">
        <ele>132.922131</ele>
        <time>2022-01-08T08:07:24.747Z</time>
      </trkpt>
      <trkpt lat="48.660188" lon="7.889372">
        <ele>131.689011</ele>
        <time>2022-01-08T08:08:11.017Z</time>
      </trkpt>
      <trkpt lat="48.660696" lon="7.890308">
        <ele>131.172572</ele>
        <time>2022-01-08T08:08:28.832Z</time>
      </trkpt>
      <trkpt lat="48.661192" lon="7.891059">
        <ele>131.131449</ele>
        <time>2022-01-08T08:08:45.296Z</time>
      </trkpt>
      <trkpt lat="48.661511" lon="7.891692">
        <ele>131.259204</ele>
        <time>2022-01-08T08:08:58.474Z</time>
      </trkpt>
      <trkpt lat="48.662405" lon="7.893025">
        <ele>131.784014</ele>
        <time>2022-01-08T08:09:33.464Z</time>
      </trkpt>
      <trkpt lat="48.662928" lon="7.893806">
        <ele>132.325319</ele>
        <time>2022-01-08T08:09:54.303Z</time>
      </trkpt>
      <trkpt lat="48.663821" lon="7.895008">
        <ele>132.815081</ele>
        <time>2022-01-08T08:10:26.318Z</time>
      </trkpt>
      <trkpt lat="48.666026" lon="7.897785">
        <ele>132.481694</ele>
        <time>2022-01-08T08:11:35.155Z</time>
      </trkpt>
      <trkpt lat="48.673308" lon="7.906831">
        <ele>127.508687</ele>
        <time>2022-01-08T08:15:09.190Z</time>
      </trkpt>
      <trkpt lat="48.673485" lon="7.907260">
        <ele>127.755011</ele>
        <time>2022-01-08T08:15:18.429Z</time>
      </trkpt>
      <trkpt lat="48.673549" lon="7.907571">
        <ele>127.913635</ele>
        <time>2022-01-08T08:15:24.022Z</time>
      </trkpt>
      <trkpt lat="48.673542" lon="7.907767">
        <ele>128.009217</ele>
        <time>2022-01-08T08:15:28.166Z</time>
      </trkpt>
      <trkpt lat="48.673421" lon="7.911358">
        <ele>130.526147</ele>
        <time>2022-01-08T08:16:38.509Z</time>
      </trkpt>
      <trkpt lat="48.673549" lon="7.911991">
        <ele>130.996823</ele>
        <time>2022-01-08T08:16:51.588Z</time>
      </trkpt>
      <trkpt lat="48.673750" lon="7.912332">
        <ele>131.241563</ele>
        <time>2022-01-08T08:17:00.558Z</time>
      </trkpt>
      <trkpt lat="48.673834" lon="7.912348">
        <ele>131.310210</ele>
        <time>2022-01-08T08:17:03.212Z</time>
      </trkpt>
      <trkpt lat="48.673956" lon="7.912460">
        <ele>131.425889</ele>
        <time>2022-01-08T08:17:07.650Z</time>
      </trkpt>
      <trkpt lat="48.674701" lon="7.912795">
        <ele>132.056025</ele>
        <time>2022-01-08T08:17:28.723Z</time>
      </trkpt>
      <trkpt lat="48.674830" lon="7.912849">
        <ele>132.164545</ele>
        <time>2022-01-08T08:17:32.048Z</time>
      </trkpt>
      <trkpt lat="48.674865" lon="7.912981">
        <ele>132.240705</ele>
        <time>2022-01-08T08:17:34.669Z</time>
      </trkpt>
      <trkpt lat="48.674868" lon="7.913165">
        <ele>132.320438</ele>
        <time>2022-01-08T08:17:37.551Z</time>
      </trkpt>
      <trkpt lat="48.674865" lon="7.913282">
        <ele>132.319084</ele>
        <time>2022-01-08T08:17:39.144Z</time>
      </trkpt>
      <trkpt lat="48.674799" lon="7.913586">
        <ele>132.315383</ele>
        <time>2022-01-08T08:17:44.418Z</time>
      </trkpt>
      <trkpt lat="48.675220" lon="7.914140">
        <ele>132.305614</ele>
        <time>2022-01-08T08:17:56.288Z</time>
      </trkpt>
      <trkpt lat="48.676562" lon="7.917368">
        <ele>132.131510</ele>
        <time>2022-01-08T08:18:51.165Z</time>
      </trkpt>
      <trkpt lat="48.676955" lon="7.918312">
        <ele>132.058177</ele>
        <time>2022-01-08T08:19:07.816Z</time>
      </trkpt>
      <trkpt lat="48.678146" lon="7.921227">
        <ele>131.980454</ele>
        <time>2022-01-08T08:19:56.746Z</time>
      </trkpt>
      <trkpt lat="48.678405" lon="7.921853">
        <ele>132.004487</ele>
        <time>2022-01-08T08:20:08.394Z</time>
      </trkpt>
      <trkpt lat="48.678489" lon="7.922235">
        <ele>132.017586</ele>
        <time>2022-01-08T08:20:14.837Z</time>
      </trkpt>
      <trkpt lat="48.678473" lon="7.922499">
        <ele>131.958188</ele>
        <time>2022-01-08T08:20:18.883Z</time>
      </trkpt>
      <trkpt lat="48.678296" lon="7.923105">
        <ele>131.736370</ele>
        <time>2022-01-08T08:20:28.673Z</time>
      </trkpt>
      <trkpt lat="48.678462" lon="7.923297">
        <ele>131.630477</ele>
        <time>2022-01-08T08:20:33.186Z</time>
      </trkpt>
      <trkpt lat="48.678616" lon="7.923706">
        <ele>131.472869</ele>
        <time>2022-01-08T08:20:39.575Z</time>
      </trkpt>
      <trkpt lat="48.678731" lon="7.924038">
        <ele>131.347369</ele>
        <time>2022-01-08T08:20:44.489Z</time>
      </trkpt>
      <trkpt lat="48.679213" lon="7.925667">
        <ele>130.013397</ele>
        <time>2022-01-08T08:21:06.462Z</time>
      </trkpt>
      <trkpt lat="48.679611" lon="7.927254">
        <ele>128.304296</ele>
        <time>2022-01-08T08:21:26.339Z</time>
      </trkpt>
      <trkpt lat="48.679661" lon="7.927543">
        <ele>128.176708</ele>
        <time>2022-01-08T08:21:30.073Z</time>
      </trkpt>
      <trkpt lat="48.679686" lon="7.927673">
        <ele>128.118883</ele>
        <time>2022-01-08T08:21:31.765Z</time>
      </trkpt>
      <trkpt lat="48.679615" lon="7.927695">
        <ele>128.072009</ele>
        <time>2022-01-08T08:21:33.097Z</time>
      </trkpt>
      <trkpt lat="48.679417" lon="7.927809">
        <ele>127.935000</ele>
        <time>2022-01-08T08:21:37.313Z</time>
      </trkpt>
      <trkpt lat="48.678374" lon="7.928011">
        <ele>127.254891</ele>
        <time>2022-01-08T08:21:59.324Z</time>
      </trkpt>
      <trkpt lat="48.678348" lon="7.928091">
        <ele>127.216811</ele>
        <time>2022-01-08T08:22:00.652Z</time>
      </trkpt>
      <trkpt lat="48.678538" lon="7.929964">
        <ele>126.992875</ele>
        <time>2022-01-08T08:22:28.373Z</time>
      </trkpt>
      <trkpt lat="48.678786" lon="7.931519">
        <ele>126.710630</ele>
        <time>2022-01-08T08:22:50.841Z</time>
      </trkpt>
      <trkpt lat="48.679115" lon="7.932679">
        <ele>126.332351</ele>
        <time>2022-01-08T08:23:08.018Z</time>
      </trkpt>
      <trkpt lat="48.679502" lon="7.933528">
        <ele>126.060240</ele>
        <time>2022-01-08T08:23:21.940Z</time>
      </trkpt>
      <trkpt lat="48.679071" lon="7.934028">
        <ele>125.960475</ele>
        <time>2022-01-08T08:23:33.054Z</time>
      </trkpt>
      <trkpt lat="48.678825" lon="7.934313">
        <ele>125.903561</ele>
        <time>2022-01-08T08:23:39.580Z</time>
      </trkpt>
      <trkpt lat="48.678491" lon="7.934871">
        <ele>125.812178</ele>
        <time>2022-01-08T08:23:50.431Z</time>
      </trkpt>
      <trkpt lat="48.678524" lon="7.935422">
        <ele>125.800434</ele>
        <time>2022-01-08T08:23:58.630Z</time>
      </trkpt>
      <trkpt lat="48.678822" lon="7.935903">
        <ele>126.170179</ele>
        <time>2022-01-08T08:24:09.460Z</time>
      </trkpt>
      <trkpt lat="48.679328" lon="7.936757">
        <ele>126.813392</ele>
        <time>2022-01-08T08:24:29.550Z</time>
      </trkpt>
      <trkpt lat="48.679372" lon="7.937085">
        <ele>127.001013</ele>
        <time>2022-01-08T08:24:35.362Z</time>
      </trkpt>
      <trkpt lat="48.679350" lon="7.937602">
        <ele>127.287227</ele>
        <time>2022-01-08T08:24:44.502Z</time>
      </trkpt>
      <trkpt lat="48.679290" lon="7.937917">
        <ele>127.389714</ele>
        <time>2022-01-08T08:24:50.417Z</time>
      </trkpt>
      <trkpt lat="48.679259" lon="7.938102">
        <ele>127.449380</ele>
        <time>2022-01-08T08:24:53.747Z</time>
      </trkpt>
      <trkpt lat="48.679224" lon="7.938297">
        <ele>127.512551</ele>
        <time>2022-01-08T08:24:57.284Z</time>
      </trkpt>
      <trkpt lat="48.679179" lon="7.938561">
        <ele>127.597786</ele>
        <time>2022-01-08T08:25:01.782Z</time>
      </trkpt>
      <trkpt lat="48.680095" lon="7.938942">
        <ele>128.047528</ele>
        <time>2022-01-08T08:25:24.561Z</time>
      </trkpt>
      <trkpt lat="48.680270" lon="7.939253">
        <ele>128.055183</ele>
        <time>2022-01-08T08:25:30.342Z</time>
      </trkpt>
      <trkpt lat="48.680433" lon="7.939575">
        <ele>127.817266</ele>
        <time>2022-01-08T08:25:35.695Z</time>
      </trkpt>
      <trkpt lat="48.680627" lon="7.940480">
        <ele>127.259336</ele>
        <time>2022-01-08T08:25:47.801Z</time>
      </trkpt>
      <trkpt lat="48.680631" lon="7.940664">
        <ele>127.151386</ele>
        <time>2022-01-08T08:25:50.100Z</time>
      </trkpt>
      <trkpt lat="48.680591" lon="7.940815">
        <ele>127.055984</ele>
        <time>2022-01-08T08:25:52.181Z</time>
      </trkpt>
      <trkpt lat="48.680066" lon="7.941666">
        <ele>126.392623</ele>
        <time>2022-01-08T08:26:06.656Z</time>
      </trkpt>
      <trkpt lat="48.679898" lon="7.941967">
        <ele>126.189237</ele>
        <time>2022-01-08T08:26:11.681Z</time>
      </trkpt>
      <trkpt lat="48.679857" lon="7.942465">
        <ele>125.930263</ele>
        <time>2022-01-08T08:26:18.135Z</time>
      </trkpt>
      <trkpt lat="48.679904" lon="7.942660">
        <ele>125.823141</ele>
        <time>2022-01-08T08:26:20.960Z</time>
      </trkpt>
      <trkpt lat="48.680076" lon="7.942963">
        <ele>125.616942</ele>
        <time>2022-01-08T08:26:26.021Z</time>
      </trkpt>
      <trkpt lat="48.680305" lon="7.943280">
        <ele>125.374473</ele>
        <time>2022-01-08T08:26:32.228Z</time>
      </trkpt>
      <trkpt lat="48.680429" lon="7.943465">
        <ele>125.238437</ele>
        <time>2022-01-08T08:26:35.898Z</time>
      </trkpt>
      <trkpt lat="48.680440" lon="7.943496">
        <ele>125.220277</ele>
        <time>2022-01-08T08:26:36.390Z</time>
      </trkpt>
      <trkpt lat="48.680721" lon="7.942880">
        <ele>125.143395</ele>
        <time>2022-01-08T08:26:46.524Z</time>
      </trkpt>
      <trkpt lat="48.680903" lon="7.942834">
        <ele>125.149708</ele>
        <time>2022-01-08T08:26:50.722Z</time>
      </trkpt>
      <trkpt lat="48.680919" lon="7.942839">
        <ele>125.150267</ele>
        <time>2022-01-08T08:26:51.100Z</time>
      </trkpt>
      <trkpt lat="48.680939" lon="7.942852">
        <ele>125.151011</ele>
        <time>2022-01-08T08:26:51.600Z</time>
      </trkpt>
      <trkpt lat="48.682670" lon="7.947787">
        <ele>125.712747</ele>
        <time>2022-01-08T08:28:17.239Z</time>
      </trkpt>
      <trkpt lat="48.683101" lon="7.948894">
        <ele>125.814825</ele>
        <time>2022-01-08T08:28:36.496Z</time>
      </trkpt>
      <trkpt lat="48.683690" lon="7.950036">
        <ele>125.696797</ele>
        <time>2022-01-08T08:28:57.369Z</time>
      </trkpt>
      <trkpt lat="48.684359" lon="7.950174">
        <ele>125.553437</ele>
        <time>2022-01-08T08:29:11.722Z</time>
      </trkpt>
      <trkpt lat="48.684851" lon="7.950243">
        <ele>125.447643</ele>
        <time>2022-01-08T08:29:23.353Z</time>
      </trkpt>
      <trkpt lat="48.686405" lon="7.950870">
        <ele>125.086394</ele>
        <time>2022-01-08T08:30:01.858Z</time>
      </trkpt>
      <trkpt lat="48.687181" lon="7.951052">
        <ele>124.962411</ele>
        <time>2022-01-08T08:30:20.524Z</time>
      </trkpt>
      <trkpt lat="48.688446" lon="7.951066">
        <ele>124.882239</ele>
        <time>2022-01-08T08:30:51.024Z</time>
      </trkpt>
      <trkpt lat="48.688840" lon="7.951015">
        <ele>125.135941</ele>
        <time>2022-01-08T08:31:01.086Z</time>
      </trkpt>
      <trkpt lat="48.689236" lon="7.950847">
        <ele>125.399780</ele>
        <time>2022-01-08T08:31:12.127Z</time>
      </trkpt>
      <trkpt lat="48.689466" lon="7.950773">
        <ele>125.550635</ele>
        <time>2022-01-08T08:31:18.697Z</time>
      </trkpt>
      <trkpt lat="48.690271" lon="7.950556">
        <ele>126.201297</ele>
        <time>2022-01-08T08:31:42.377Z</time>
      </trkpt>
      <trkpt lat="48.690720" lon="7.950515">
        <ele>126.783004</ele>
        <time>2022-01-08T08:31:56.382Z</time>
      </trkpt>
      <trkpt lat="48.692350" lon="7.951135">
        <ele>128.546080</ele>
        <time>2022-01-08T08:32:46.842Z</time>
      </trkpt>
      <trkpt lat="48.693348" lon="7.951220">
        <ele>129.057942</ele>
        <time>2022-01-08T08:33:13.162Z</time>
      </trkpt>
      <trkpt lat="48.693508" lon="7.951263">
        <ele>129.141153</ele>
        <time>2022-01-08T08:33:17.111Z</time>
      </trkpt>
      <trkpt lat="48.693687" lon="7.951312">
        <ele>129.150762</ele>
        <time>2022-01-08T08:33:21.502Z</time>
      </trkpt>
      <trkpt lat="48.693780" lon="7.951415">
        <ele>129.073403</ele>
        <time>2022-01-08T08:33:24.178Z</time>
      </trkpt>
      <trkpt lat="48.694315" lon="7.954657">
        <ele>127.684757</ele>
        <time>2022-01-08T08:34:12.955Z</time>
      </trkpt>
      <trkpt lat="48.694319" lon="7.954889">
        <ele>127.605809</ele>
        <time>2022-01-08T08:34:16.273Z</time>
      </trkpt>
      <trkpt lat="48.695220" lon="7.959917">
        <ele>126.379050</ele>
        <time>2022-01-08T08:35:37.270Z</time>
      </trkpt>
      <trkpt lat="48.695617" lon="7.961468">
        <ele>126.159279</ele>
        <time>2022-01-08T08:36:04.694Z</time>
      </trkpt>
      <trkpt lat="48.696515" lon="7.964035">
        <ele>125.162761</ele>
        <time>2022-01-08T08:36:48.328Z</time>
      </trkpt>
      <trkpt lat="48.696942" lon="7.965314">
        <ele>124.556988</ele>
        <time>2022-01-08T08:37:07.197Z</time>
      </trkpt>
      <trkpt lat="48.696977" lon="7.965376">
        <ele>124.522508</ele>
        <time>2022-01-08T08:37:08.260Z</time>
      </trkpt>
      <trkpt lat="48.697459" lon="7.966023">
        <ele>124.110162</ele>
        <time>2022-01-08T08:37:21.051Z</time>
      </trkpt>
      <trkpt lat="48.697513" lon="7.966100">
        <ele>124.062679</ele>
        <time>2022-01-08T08:37:22.489Z</time>
      </trkpt>
      <trkpt lat="48.697609" lon="7.966365">
        <ele>124.002996</ele>
        <time>2022-01-08T08:37:26.556Z</time>
      </trkpt>
      <trkpt lat="48.697652" lon="7.967711">
        <ele>123.917467</ele>
        <time>2022-01-08T08:37:46.100Z</time>
      </trkpt>
      <trkpt lat="48.698055" lon="7.969176">
        <ele>123.909864</ele>
        <time>2022-01-08T08:38:12.249Z</time>
      </trkpt>
      <trkpt lat="48.698109" lon="7.970795">
        <ele>124.185189</ele>
        <time>2022-01-08T08:38:39.977Z</time>
      </trkpt>
      <trkpt lat="48.698020" lon="7.971132">
        <ele>124.246838</ele>
        <time>2022-01-08T08:38:46.157Z</time>
      </trkpt>
      <trkpt lat="48.697888" lon="7.971400">
        <ele>124.303633</ele>
        <time>2022-01-08T08:38:52.059Z</time>
      </trkpt>
      <trkpt lat="48.698047" lon="7.971417">
        <ele>124.286458</ele>
        <time>2022-01-08T08:38:55.724Z</time>
      </trkpt>
      <trkpt lat="48.698385" lon="7.970756">
        <ele>124.220539</ele>
        <time>2022-01-08T08:39:08.600Z</time>
      </trkpt>
      <trkpt lat="48.700623" lon="7.967889">
        <ele>123.390525</ele>
        <time>2022-01-08T08:40:09.814Z</time>
      </trkpt>
      <trkpt lat="48.702117" lon="7.966056">
        <ele>122.639890</ele>
        <time>2022-01-08T08:40:49.843Z</time>
      </trkpt>
      <trkpt lat="48.702278" lon="7.965859">
        <ele>122.589197</ele>
        <time>2022-01-08T08:40:54.143Z</time>
      </trkpt>
      <trkpt lat="48.702600" lon="7.965282">
        <ele>122.467037</ele>
        <time>2022-01-08T08:41:04.817Z</time>
      </trkpt>
      <trkpt lat="48.702704" lon="7.964880">
        <ele>122.397233</ele>
        <time>2022-01-08T08:41:10.885Z</time>
      </trkpt>
      <trkpt lat="48.702730" lon="7.964817">
        <ele>122.385221</ele>
        <time>2022-01-08T08:41:11.958Z</time>
      </trkpt>
      <trkpt lat="48.702783" lon="7.964735">
        <ele>122.366665</ele>
        <time>2022-01-08T08:41:13.566Z</time>
      </trkpt>
      <trkpt lat="48.702851" lon="7.964623">
        <ele>122.342062</ele>
        <time>2022-01-08T08:41:15.651Z</time>
      </trkpt>
      <trkpt lat="48.703060" lon="7.964493">
        <ele>122.286720</ele>
        <time>2022-01-08T08:41:20.578Z</time>
      </trkpt>
      <trkpt lat="48.704081" lon="7.964425">
        <ele>122.349293</ele>
        <time>2022-01-08T08:41:43.211Z</time>
      </trkpt>
      <trkpt lat="48.704270" lon="7.964413">
        <ele>122.374392</ele>
        <time>2022-01-08T08:41:47.494Z</time>
      </trkpt>
      <trkpt lat="48.704378" lon="7.964475">
        <ele>122.389715</ele>
        <time>2022-01-08T08:41:50.112Z</time>
      </trkpt>
      <trkpt lat="48.704629" lon="7.965003">
        <ele>122.446695</ele>
        <time>2022-01-08T08:41:59.975Z</time>
      </trkpt>
      <trkpt lat="48.704751" lon="7.964789">
        <ele>122.471457</ele>
        <time>2022-01-08T08:42:04.373Z</time>
      </trkpt>
      <trkpt lat="48.705506" lon="7.964150">
        <ele>122.969005</ele>
        <time>2022-01-08T08:42:25.706Z</time>
      </trkpt>
      <trkpt lat="48.706132" lon="7.963786">
        <ele>123.372724</ele>
        <time>2022-01-08T08:42:42.654Z</time>
      </trkpt>
      <trkpt lat="48.706400" lon="7.963653">
        <ele>123.542523</ele>
        <time>2022-01-08T08:42:49.703Z</time>
      </trkpt>
      <trkpt lat="48.706665" lon="7.963506">
        <ele>123.641660</ele>
        <time>2022-01-08T08:42:56.727Z</time>
      </trkpt>
      <trkpt lat="48.709409" lon="7.963725">
        <ele>124.287067</ele>
        <time>2022-01-08T08:44:00.228Z</time>
      </trkpt>
      <trkpt lat="48.710053" lon="7.964102">
        <ele>124.367377</ele>
        <time>2022-01-08T08:44:15.309Z</time>
      </trkpt>
      <trkpt lat="48.710551" lon="7.964207">
        <ele>124.400070</ele>
        <time>2022-01-08T08:44:26.706Z</time>
      </trkpt>
      <trkpt lat="48.710653" lon="7.964119">
        <ele>124.407702</ele>
        <time>2022-01-08T08:44:29.327Z</time>
      </trkpt>
      <trkpt lat="48.710970" lon="7.963959">
        <ele>124.429427</ele>
        <time>2022-01-08T08:44:36.893Z</time>
      </trkpt>
      <trkpt lat="48.711456" lon="7.964003">
        <ele>124.461085</ele>
        <time>2022-01-08T08:44:47.915Z</time>
      </trkpt>
      <trkpt lat="48.711814" lon="7.964099">
        <ele>124.471919</ele>
        <time>2022-01-08T08:44:56.246Z</time>
      </trkpt>
      <trkpt lat="48.712048" lon="7.964078">
        <ele>124.456688</ele>
        <time>2022-01-08T08:45:04.930Z</time>
      </trkpt>
      <trkpt lat="48.712595" lon="7.964068">
        <ele>124.421144</ele>
        <time>2022-01-08T08:45:25.130Z</time>
      </trkpt>
      <trkpt lat="48.713257" lon="7.964131">
        <ele>124.378046</ele>
        <time>2022-01-08T08:45:49.725Z</time>
      </trkpt>
      <trkpt lat="48.713771" lon="7.964377">
        <ele>124.260585</ele>
        <time>2022-01-08T08:46:08.899Z</time>
      </trkpt>
      <trkpt lat="48.714240" lon="7.964741">
        <ele>124.073201</ele>
        <time>2022-01-08T08:46:27.634Z</time>
      </trkpt>
      <trkpt lat="48.714767" lon="7.965332">
        <ele>123.840062</ele>
        <time>2022-01-08T08:46:50.842Z</time>
      </trkpt>
      <trkpt lat="48.715050" lon="7.965563">
        <ele>123.725754</ele>
        <time>2022-01-08T08:47:02.252Z</time>
      </trkpt>
      <trkpt lat="48.717783" lon="7.967173">
        <ele>123.719744</ele>
        <time>2022-01-08T08:48:50.880Z</time>
      </trkpt>
      <trkpt lat="48.718533" lon="7.967558">
        <ele>123.820477</ele>
        <time>2022-01-08T08:49:21.077Z</time>
      </trkpt>
      <trkpt lat="48.719357" lon="7.967839">
        <ele>124.029512</ele>
        <time>2022-01-08T08:49:53.277Z</time>
      </trkpt>
      <trkpt lat="48.720357" lon="7.967997">
        <ele>124.241665</ele>
        <time>2022-01-08T08:50:31.597Z</time>
      </trkpt>
      <trkpt lat="48.721615" lon="7.967857">
        <ele>124.276846</ele>
        <time>2022-01-08T08:51:18.328Z</time>
      </trkpt>
      <trkpt lat="48.722188" lon="7.967703">
        <ele>124.280599</ele>
        <time>2022-01-08T08:51:39.702Z</time>
      </trkpt>
      <trkpt lat="48.723179" lon="7.967333">
        <ele>124.248918</ele>
        <time>2022-01-08T08:52:17.344Z</time>
      </trkpt>
      <trkpt lat="48.723555" lon="7.967430">
        <ele>124.237079</ele>
        <time>2022-01-08T08:52:31.469Z</time>
      </trkpt>
      <trkpt lat="48.725721" lon="7.968655">
        <ele>124.505852</ele>
        <time>2022-01-08T08:53:58.089Z</time>
      </trkpt>
      <trkpt lat="48.726740" lon="7.969078">
        <ele>124.852537</ele>
        <time>2022-01-08T08:54:38.467Z</time>
      </trkpt>
      <trkpt lat="48.727101" lon="7.969228">
        <ele>124.975365</ele>
        <time>2022-01-08T08:54:53.055Z</time>
      </trkpt>
      <trkpt lat="48.728065" lon="7.969468">
        <ele>125.409716</ele>
        <time>2022-01-08T08:55:31.479Z</time>
      </trkpt>
      <trkpt lat="48.728171" lon="7.969487">
        <ele>125.457698</ele>
        <time>2022-01-08T08:55:35.736Z</time>
      </trkpt>
      <trkpt lat="48.728547" lon="7.969556">
        <ele>125.627953</ele>
        <time>2022-01-08T08:55:50.461Z</time>
      </trkpt>
      <trkpt lat="48.729078" lon="7.969652">
        <ele>125.808389</ele>
        <time>2022-01-08T08:56:10.934Z</time>
      </trkpt>
      <trkpt lat="48.730832" lon="7.969756">
        <ele>125.896011</ele>
        <time>2022-01-08T08:57:16.483Z</time>
      </trkpt>
      <trkpt lat="48.733847" lon="7.969528">
        <ele>124.996169</ele>
        <time>2022-01-08T08:59:04.724Z</time>
      </trkpt>
      <trkpt lat="48.736480" lon="7.969329">
        <ele>124.169881</ele>
        <time>2022-01-08T09:00:38.896Z</time>
      </trkpt>
      <trkpt lat="48.741810" lon="7.968927">
        <ele>123.381887</ele>
        <time>2022-01-08T09:03:53.274Z</time>
      </trkpt>
      <trkpt lat="48.741957" lon="7.969046">
        <ele>123.419534</ele>
        <time>2022-01-08T09:03:59.686Z</time>
      </trkpt>
      <trkpt lat="48.742462" lon="7.969811">
        <ele>123.580803</ele>
        <time>2022-01-08T09:04:27.203Z</time>
      </trkpt>
      <trkpt lat="48.743210" lon="7.970903">
        <ele>123.831568</ele>
        <time>2022-01-08T09:05:06.999Z</time>
      </trkpt>
      <trkpt lat="48.743307" lon="7.970951">
        <ele>123.858413</ele>
        <time>2022-01-08T09:05:10.828Z</time>
      </trkpt>
      <trkpt lat="48.744008" lon="7.970948">
        <ele>124.042840</ele>
        <time>2022-01-08T09:05:37.345Z</time>
      </trkpt>
      <trkpt lat="48.744735" lon="7.970954">
        <ele>124.259391</ele>
        <time>2022-01-08T09:06:05.061Z</time>
      </trkpt>
      <trkpt lat="48.745151" lon="7.971114">
        <ele>124.437291</ele>
        <time>2022-01-08T09:06:21.646Z</time>
      </trkpt>
      <trkpt lat="48.745257" lon="7.971299">
        <ele>124.504282</ele>
        <time>2022-01-08T09:06:28.143Z</time>
      </trkpt>
      <trkpt lat="48.745281" lon="7.971322">
        <ele>124.516050</ele>
        <time>2022-01-08T09:06:28.768Z</time>
      </trkpt>
      <trkpt lat="48.745380" lon="7.971662">
        <ele>124.617642</ele>
        <time>2022-01-08T09:06:34.942Z</time>
      </trkpt>
      <trkpt lat="48.745405" lon="7.972413">
        <ele>124.823180</ele>
        <time>2022-01-08T09:06:46.895Z</time>
      </trkpt>
      <trkpt lat="48.745274" lon="7.972755">
        <ele>124.931289</ele>
        <time>2022-01-08T09:06:53.249Z</time>
      </trkpt>
      <trkpt lat="48.745143" lon="7.972926">
        <ele>124.888266</ele>
        <time>2022-01-08T09:06:56.988Z</time>
      </trkpt>
      <trkpt lat="48.745087" lon="7.973234">
        <ele>124.826516</ele>
        <time>2022-01-08T09:07:02.018Z</time>
      </trkpt>
      <trkpt lat="48.745075" lon="7.973569">
        <ele>124.761674</ele>
        <time>2022-01-08T09:07:06.793Z</time>
      </trkpt>
      <trkpt lat="48.745776" lon="7.973552">
        <ele>124.556183</ele>
        <time>2022-01-08T09:07:21.355Z</time>
      </trkpt>
      <trkpt lat="48.745930" lon="7.973544">
        <ele>124.511019</ele>
        <time>2022-01-08T09:07:24.591Z</time>
      </trkpt>
      <trkpt lat="48.746012" lon="7.973540">
        <ele>124.486972</ele>
        <time>2022-01-08T09:07:26.154Z</time>
      </trkpt>
      <trkpt lat="48.746131" lon="7.973542">
        <ele>124.452091</ele>
        <time>2022-01-08T09:07:28.508Z</time>
      </trkpt>
      <trkpt lat="48.748629" lon="7.973487">
        <ele>123.225412</ele>
        <time>2022-01-08T09:08:18.559Z</time>
      </trkpt>
      <trkpt lat="48.749712" lon="7.973455">
        <ele>123.248659</ele>
        <time>2022-01-08T09:08:44.578Z</time>
      </trkpt>
      <trkpt lat="48.751177" lon="7.973431">
        <ele>123.209211</ele>
        <time>2022-01-08T09:09:17.575Z</time>
      </trkpt>
      <trkpt lat="48.752771" lon="7.973389">
        <ele>123.146189</ele>
        <time>2022-01-08T09:09:50.997Z</time>
      </trkpt>
      <trkpt lat="48.752913" lon="7.973386">
        <ele>123.140156</ele>
        <time>2022-01-08T09:09:54.110Z</time>
      </trkpt>
      <trkpt lat="48.753019" lon="7.973379">
        <ele>123.135649</ele>
        <time>2022-01-08T09:09:56.651Z</time>
      </trkpt>
      <trkpt lat="48.753805" lon="7.973370">
        <ele>123.274500</ele>
        <time>2022-01-08T09:10:15.722Z</time>
      </trkpt>
      <trkpt lat="48.754285" lon="7.973386">
        <ele>123.503263</ele>
        <time>2022-01-08T09:10:27.662Z</time>
      </trkpt>
      <trkpt lat="48.754480" lon="7.973311">
        <ele>123.599115</ele>
        <time>2022-01-08T09:10:32.787Z</time>
      </trkpt>
      <trkpt lat="48.755056" lon="7.972649">
        <ele>123.943451</ele>
        <time>2022-01-08T09:10:50.414Z</time>
      </trkpt>
      <trkpt lat="48.755276" lon="7.972462">
        <ele>123.955852</ele>
        <time>2022-01-08T09:10:56.056Z</time>
      </trkpt>
      <trkpt lat="48.755371" lon="7.972481">
        <ele>123.946993</ele>
        <time>2022-01-08T09:10:58.061Z</time>
      </trkpt>
      <trkpt lat="48.755857" lon="7.972859">
        <ele>123.896500</ele>
        <time>2022-01-08T09:11:09.857Z</time>
      </trkpt>
      <trkpt lat="48.756289" lon="7.973255">
        <ele>123.849835</ele>
        <time>2022-01-08T09:11:20.725Z</time>
      </trkpt>
      <trkpt lat="48.756818" lon="7.973853">
        <ele>123.742247</ele>
        <time>2022-01-08T09:11:34.825Z</time>
      </trkpt>
      <trkpt lat="48.757239" lon="7.974473">
        <ele>123.549400</ele>
        <time>2022-01-08T09:11:47.491Z</time>
      </trkpt>
      <trkpt lat="48.757596" lon="7.975119">
        <ele>123.366762</ele>
        <time>2022-01-08T09:11:59.143Z</time>
      </trkpt>
      <trkpt lat="48.758133" lon="7.976485">
        <ele>122.979358</ele>
        <time>2022-01-08T09:12:20.470Z</time>
      </trkpt>
      <trkpt lat="48.758479" lon="7.977670">
        <ele>122.636512</ele>
        <time>2022-01-08T09:12:37.862Z</time>
      </trkpt>
      <trkpt lat="48.758849" lon="7.979196">
        <ele>122.802343</ele>
        <time>2022-01-08T09:13:02.081Z</time>
      </trkpt>
      <trkpt lat="48.759057" lon="7.980325">
        <ele>123.134369</ele>
        <time>2022-01-08T09:13:21.345Z</time>
      </trkpt>
      <trkpt lat="48.759203" lon="7.981296">
        <ele>123.419028</ele>
        <time>2022-01-08T09:13:38.374Z</time>
      </trkpt>
      <trkpt lat="48.759406" lon="7.983397">
        <ele>124.030822</ele>
        <time>2022-01-08T09:14:12.097Z</time>
      </trkpt>
      <trkpt lat="48.759423" lon="7.985263">
        <ele>123.725119</ele>
        <time>2022-01-08T09:14:38.140Z</time>
      </trkpt>
      <trkpt lat="48.759167" lon="7.987435">
        <ele>123.163405</ele>
        <time>2022-01-08T09:15:07.962Z</time>
      </trkpt>
      <trkpt lat="48.758855" lon="7.989170">
        <ele>122.653732</ele>
        <time>2022-01-08T09:15:32.495Z</time>
      </trkpt>
      <trkpt lat="48.758469" lon="7.991413">
        <ele>122.238227</ele>
        <time>2022-01-08T09:16:05.190Z</time>
      </trkpt>
      <trkpt lat="48.758131" lon="7.992607">
        <ele>122.478055</ele>
        <time>2022-01-08T09:16:23.857Z</time>
      </trkpt>
      <trkpt lat="48.758115" lon="7.993179">
        <ele>122.596172</ele>
        <time>2022-01-08T09:16:32.716Z</time>
      </trkpt>
      <trkpt lat="48.758119" lon="7.993377">
        <ele>122.637041</ele>
        <time>2022-01-08T09:16:36.050Z</time>
      </trkpt>
      <trkpt lat="48.758158" lon="7.994318">
        <ele>122.837065</ele>
        <time>2022-01-08T09:16:52.028Z</time>
      </trkpt>
      <trkpt lat="48.758127" lon="7.994732">
        <ele>122.933880</ele>
        <time>2022-01-08T09:16:59.464Z</time>
      </trkpt>
      <trkpt lat="48.757769" lon="7.996869">
        <ele>123.399125</ele>
        <time>2022-01-08T09:17:33.395Z</time>
      </trkpt>
      <trkpt lat="48.757502" lon="7.999572">
        <ele>122.864566</ele>
        <time>2022-01-08T09:18:09.941Z</time>
      </trkpt>
      <trkpt lat="48.757393" lon="7.999834">
        <ele>122.973797</ele>
        <time>2022-01-08T09:18:14.525Z</time>
      </trkpt>
      <trkpt lat="48.757071" lon="7.999898">
        <ele>123.147480</ele>
        <time>2022-01-08T09:18:22.627Z</time>
      </trkpt>
      <trkpt lat="48.756310" lon="7.999821">
        <ele>123.555379</ele>
        <time>2022-01-08T09:18:43.085Z</time>
      </trkpt>
      <trkpt lat="48.756104" lon="7.999857">
        <ele>123.666280</ele>
        <time>2022-01-08T09:18:47.805Z</time>
      </trkpt>
      <trkpt lat="48.755628" lon="8.000038">
        <ele>123.743008</ele>
        <time>2022-01-08T09:19:00.019Z</time>
      </trkpt>
      <trkpt lat="48.755477" lon="8.000248">
        <ele>123.708007</ele>
        <time>2022-01-08T09:19:04.172Z</time>
      </trkpt>
      <trkpt lat="48.755431" lon="8.000415">
        <ele>123.687621</ele>
        <time>2022-01-08T09:19:07.588Z</time>
      </trkpt>
      <trkpt lat="48.755222" lon="8.001460">
        <ele>123.564619</ele>
        <time>2022-01-08T09:19:23.653Z</time>
      </trkpt>
      <trkpt lat="48.755201" lon="8.001586">
        <ele>123.549980</ele>
        <time>2022-01-08T09:19:25.274Z</time>
      </trkpt>
      <trkpt lat="48.755184" lon="8.001702">
        <ele>123.536595</ele>
        <time>2022-01-08T09:19:26.775Z</time>
      </trkpt>
      <trkpt lat="48.755120" lon="8.002137">
        <ele>123.486393</ele>
        <time>2022-01-08T09:19:32.635Z</time>
      </trkpt>
      <trkpt lat="48.755107" lon="8.002187">
        <ele>123.479009</ele>
        <time>2022-01-08T09:19:33.268Z</time>
      </trkpt>
      <trkpt lat="48.755010" lon="8.002520">
        <ele>123.276485</ele>
        <time>2022-01-08T09:19:37.870Z</time>
      </trkpt>
      <trkpt lat="48.755062" lon="8.002776">
        <ele>123.127466</ele>
        <time>2022-01-08T09:19:40.976Z</time>
      </trkpt>
      <trkpt lat="48.755128" lon="8.002840">
        <ele>123.061367</ele>
        <time>2022-01-08T09:19:42.367Z</time>
      </trkpt>
      <trkpt lat="48.755330" lon="8.003053">
        <ele>122.853780</ele>
        <time>2022-01-08T09:19:46.801Z</time>
      </trkpt>
      <trkpt lat="48.756514" lon="8.005038">
        <ele>121.669961</ele>
        <time>2022-01-08T09:20:23.134Z</time>
      </trkpt>
      <trkpt lat="48.756677" lon="8.005353">
        <ele>121.560865</ele>
        <time>2022-01-08T09:20:28.648Z</time>
      </trkpt>
      <trkpt lat="48.756994" lon="8.006052">
        <ele>121.329726</ele>
        <time>2022-01-08T09:20:40.446Z</time>
      </trkpt>
      <trkpt lat="48.757239" lon="8.006869">
        <ele>121.134247</ele>
        <time>2022-01-08T09:20:52.780Z</time>
      </trkpt>
      <trkpt lat="48.757633" lon="8.009761">
        <ele>120.783899</ele>
        <time>2022-01-08T09:21:34.277Z</time>
      </trkpt>
      <trkpt lat="48.757847" lon="8.010908">
        <ele>120.844369</ele>
        <time>2022-01-08T09:21:52.510Z</time>
      </trkpt>
      <trkpt lat="48.758218" lon="8.012438">
        <ele>120.805677</ele>
        <time>2022-01-08T09:22:17.091Z</time>
      </trkpt>
      <trkpt lat="48.758503" lon="8.013417">
        <ele>120.700056</ele>
        <time>2022-01-08T09:22:32.558Z</time>
      </trkpt>
      <trkpt lat="48.758569" lon="8.013798">
        <ele>120.661178</ele>
        <time>2022-01-08T09:22:38.009Z</time>
      </trkpt>
      <trkpt lat="48.758544" lon="8.014152">
        <ele>120.626041</ele>
        <time>2022-01-08T09:22:42.843Z</time>
      </trkpt>
      <trkpt lat="48.758283" lon="8.015619">
        <ele>120.267151</ele>
        <time>2022-01-08T09:23:03.264Z</time>
      </trkpt>
      <trkpt lat="48.758370" lon="8.016274">
        <ele>120.103154</ele>
        <time>2022-01-08T09:23:12.497Z</time>
      </trkpt>
      <trkpt lat="48.758495" lon="8.016508">
        <ele>120.029231</ele>
        <time>2022-01-08T09:23:16.717Z</time>
      </trkpt>
      <trkpt lat="48.758753" lon="8.016706">
        <ele>119.943333</ele>
        <time>2022-01-08T09:23:22.941Z</time>
      </trkpt>
      <trkpt lat="48.760310" lon="8.017380">
        <ele>119.858010</ele>
        <time>2022-01-08T09:23:58.816Z</time>
      </trkpt>
      <trkpt lat="48.761118" lon="8.018696">
        <ele>119.700883</ele>
        <time>2022-01-08T09:24:24.532Z</time>
      </trkpt>
      <trkpt lat="48.761990" lon="8.019981">
        <ele>119.681498</ele>
        <time>2022-01-08T09:24:50.868Z</time>
      </trkpt>
      <trkpt lat="48.763018" lon="8.021292">
        <ele>119.925649</ele>
        <time>2022-01-08T09:25:21.758Z</time>
      </trkpt>
      <trkpt lat="48.765099" lon="8.023477">
        <ele>121.941532</ele>
        <time>2022-01-08T09:26:25.745Z</time>
      </trkpt>
      <trkpt lat="48.765191" lon="8.023556">
        <ele>122.054014</ele>
        <time>2022-01-08T09:26:28.588Z</time>
      </trkpt>
      <trkpt lat="48.767015" lon="8.024863">
        <ele>124.020492</ele>
        <time>2022-01-08T09:27:24.435Z</time>
      </trkpt>
      <trkpt lat="48.767088" lon="8.024910">
        <ele>124.091807</ele>
        <time>2022-01-08T09:27:26.380Z</time>
      </trkpt>
      <trkpt lat="48.768321" lon="8.025621">
        <ele>124.220060</ele>
        <time>2022-01-08T09:27:56.493Z</time>
      </trkpt>
      <trkpt lat="48.769071" lon="8.025982">
        <ele>123.724046</ele>
        <time>2022-01-08T09:28:11.388Z</time>
      </trkpt>
      <trkpt lat="48.769884" lon="8.026293">
        <ele>123.295406</ele>
        <time>2022-01-08T09:28:27.335Z</time>
      </trkpt>
      <trkpt lat="48.770159" lon="8.026398">
        <ele>123.171308</ele>
        <time>2022-01-08T09:28:32.726Z</time>
      </trkpt>
      <trkpt lat="48.773081" lon="8.027043">
        <ele>123.021396</ele>
        <time>2022-01-08T09:29:40.132Z</time>
      </trkpt>
      <trkpt lat="48.773313" lon="8.027088">
        <ele>123.031467</ele>
        <time>2022-01-08T09:29:45.701Z</time>
      </trkpt>
      <trkpt lat="48.773394" lon="8.027101">
        <ele>123.034975</ele>
        <time>2022-01-08T09:29:47.657Z</time>
      </trkpt>
      <trkpt lat="48.775836" lon="8.027499">
        <ele>123.004491</ele>
        <time>2022-01-08T09:30:41.654Z</time>
      </trkpt>
      <trkpt lat="48.777263" lon="8.027744">
        <ele>122.809708</ele>
        <time>2022-01-08T09:31:13.317Z</time>
      </trkpt>
      <trkpt lat="48.779068" lon="8.028054">
        <ele>122.650262</ele>
        <time>2022-01-08T09:31:51.926Z</time>
      </trkpt>
      <trkpt lat="48.779931" lon="8.028200">
        <ele>122.686334</ele>
        <time>2022-01-08T09:32:11.443Z</time>
      </trkpt>
      <trkpt lat="48.781649" lon="8.028479">
        <ele>123.747233</ele>
        <time>2022-01-08T09:32:54.642Z</time>
      </trkpt>
      <trkpt lat="48.781885" lon="8.028555">
        <ele>123.911422</ele>
        <time>2022-01-08T09:33:00.793Z</time>
      </trkpt>
      <trkpt lat="48.782737" lon="8.028829">
        <ele>124.608309</ele>
        <time>2022-01-08T09:33:23.098Z</time>
      </trkpt>
      <trkpt lat="48.783670" lon="8.029404">
        <ele>125.341282</ele>
        <time>2022-01-08T09:33:49.042Z</time>
      </trkpt>
      <trkpt lat="48.784047" lon="8.029706">
        <ele>125.386224</ele>
        <time>2022-01-08T09:33:59.464Z</time>
      </trkpt>
      <trkpt lat="48.784440" lon="8.030098">
        <ele>125.435803</ele>
        <time>2022-01-08T09:34:10.537Z</time>
      </trkpt>
      <trkpt lat="48.785088" lon="8.030962">
        <ele>125.427250</ele>
        <time>2022-01-08T09:34:29.222Z</time>
      </trkpt>
      <trkpt lat="48.786105" lon="8.032512">
        <ele>123.381761</ele>
        <time>2022-01-08T09:34:55.488Z</time>
      </trkpt>
      <trkpt lat="48.786542" lon="8.033345">
        <ele>122.474813</ele>
        <time>2022-01-08T09:35:08.051Z</time>
      </trkpt>
      <trkpt lat="48.787042" lon="8.034483">
        <ele>121.391090</ele>
        <time>2022-01-08T09:35:24.756Z</time>
      </trkpt>
      <trkpt lat="48.787650" lon="8.036082">
        <ele>120.723478</ele>
        <time>2022-01-08T09:35:49.722Z</time>
      </trkpt>
      <trkpt lat="48.788301" lon="8.038338">
        <ele>120.819323</ele>
        <time>2022-01-08T09:36:26.969Z</time>
      </trkpt>
      <trkpt lat="48.788600" lon="8.039830">
        <ele>121.218405</ele>
        <time>2022-01-08T09:36:51.657Z</time>
      </trkpt>
      <trkpt lat="48.788788" lon="8.041023">
        <ele>121.604377</ele>
        <time>2022-01-08T09:37:11.890Z</time>
      </trkpt>
      <trkpt lat="48.788995" lon="8.043123">
        <ele>122.131699</ele>
        <time>2022-01-08T09:37:46.190Z</time>
      </trkpt>
      <trkpt lat="48.789012" lon="8.045969">
        <ele>121.091002</ele>
        <time>2022-01-08T09:38:23.915Z</time>
      </trkpt>
      <trkpt lat="48.788922" lon="8.046924">
        <ele>120.433444</ele>
        <time>2022-01-08T09:38:35.515Z</time>
      </trkpt>
      <trkpt lat="48.788704" lon="8.049245">
        <ele>119.315994</ele>
        <time>2022-01-08T09:39:05.668Z</time>
      </trkpt>
      <trkpt lat="48.788485" lon="8.050271">
        <ele>119.108036</ele>
        <time>2022-01-08T09:39:22.163Z</time>
      </trkpt>
      <trkpt lat="48.787832" lon="8.051414">
        <ele>118.827605</ele>
        <time>2022-01-08T09:39:44.012Z</time>
      </trkpt>
      <trkpt lat="48.787619" lon="8.052129">
        <ele>118.686784</ele>
        <time>2022-01-08T09:39:54.842Z</time>
      </trkpt>
      <trkpt lat="48.787498" lon="8.052964">
        <ele>118.533352</ele>
        <time>2022-01-08T09:40:06.676Z</time>
      </trkpt>
      <trkpt lat="48.787570" lon="8.054105">
        <ele>118.747784</ele>
        <time>2022-01-08T09:40:21.916Z</time>
      </trkpt>
      <trkpt lat="48.787216" lon="8.056705">
        <ele>119.735159</ele>
        <time>2022-01-08T09:41:07.546Z</time>
      </trkpt>
      <trkpt lat="48.787111" lon="8.058189">
        <ele>120.570657</ele>
        <time>2022-01-08T09:41:33.396Z</time>
      </trkpt>
      <trkpt lat="48.787087" lon="8.059547">
        <ele>120.751469</ele>
        <time>2022-01-08T09:41:54.461Z</time>
      </trkpt>
      <trkpt lat="48.787264" lon="8.061954">
        <ele>120.462424</ele>
        <time>2022-01-08T09:42:27.972Z</time>
      </trkpt>
      <trkpt lat="48.787317" lon="8.062368">
        <ele>120.333517</ele>
        <time>2022-01-08T09:42:33.799Z</time>
      </trkpt>
      <trkpt lat="48.787597" lon="8.064106">
        <ele>119.778750</ele>
        <time>2022-01-08T09:42:57.835Z</time>
      </trkpt>
      <trkpt lat="48.787944" lon="8.065798">
        <ele>119.120069</ele>
        <time>2022-01-08T09:43:21.504Z</time>
      </trkpt>
      <trkpt lat="48.788564" lon="8.068187">
        <ele>118.376960</ele>
        <time>2022-01-08T09:43:56.277Z</time>
      </trkpt>
      <trkpt lat="48.789287" lon="8.070457">
        <ele>118.324089</ele>
        <time>2022-01-08T09:44:32.352Z</time>
      </trkpt>
      <trkpt lat="48.790064" lon="8.072434">
        <ele>119.108796</ele>
        <time>2022-01-08T09:45:09.707Z</time>
      </trkpt>
      <trkpt lat="48.790517" lon="8.073464">
        <ele>119.820789</ele>
        <time>2022-01-08T09:45:31.777Z</time>
      </trkpt>
      <trkpt lat="48.791313" lon="8.075030">
        <ele>120.322503</ele>
        <time>2022-01-08T09:46:04.672Z</time>
      </trkpt>
      <trkpt lat="48.792547" lon="8.077091">
        <ele>119.946087</ele>
        <time>2022-01-08T09:46:42.471Z</time>
      </trkpt>
      <trkpt lat="48.794318" lon="8.080050">
        <ele>118.464998</ele>
        <time>2022-01-08T09:47:35.722Z</time>
      </trkpt>
      <trkpt lat="48.794535" lon="8.080433">
        <ele>118.372381</ele>
        <time>2022-01-08T09:47:42.694Z</time>
      </trkpt>
      <trkpt lat="48.795566" lon="8.082071">
        <ele>117.964071</ele>
        <time>2022-01-08T09:48:14.925Z</time>
      </trkpt>
      <trkpt lat="48.795774" lon="8.082528">
        <ele>117.880731</ele>
        <time>2022-01-08T09:48:22.664Z</time>
      </trkpt>
      <trkpt lat="48.796084" lon="8.084048">
        <ele>117.641998</ele>
        <time>2022-01-08T09:48:45.107Z</time>
      </trkpt>
      <trkpt lat="48.796471" lon="8.084777">
        <ele>117.489416</ele>
        <time>2022-01-08T09:48:58.451Z</time>
      </trkpt>
      <trkpt lat="48.796768" lon="8.085169">
        <ele>117.386944</ele>
        <time>2022-01-08T09:49:06.886Z</time>
      </trkpt>
      <trkpt lat="48.797070" lon="8.085416">
        <ele>117.297626</ele>
        <time>2022-01-08T09:49:14.194Z</time>
      </trkpt>
      <trkpt lat="48.797628" lon="8.085637">
        <ele>117.147475</ele>
        <time>2022-01-08T09:49:26.263Z</time>
      </trkpt>
      <trkpt lat="48.797851" lon="8.085710">
        <ele>117.079623</ele>
        <time>2022-01-08T09:49:30.994Z</time>
      </trkpt>
      <trkpt lat="48.798098" lon="8.085861">
        <ele>116.990571</ele>
        <time>2022-01-08T09:49:36.517Z</time>
      </trkpt>
      <trkpt lat="48.798424" lon="8.086229">
        <ele>116.854708</ele>
        <time>2022-01-08T09:49:45.040Z</time>
      </trkpt>
      <trkpt lat="48.800575" lon="8.089074">
        <ele>116.046981</ele>
        <time>2022-01-08T09:50:45.655Z</time>
      </trkpt>
      <trkpt lat="48.802415" lon="8.091327">
        <ele>115.656413</ele>
        <time>2022-01-08T09:51:37.464Z</time>
      </trkpt>
      <trkpt lat="48.804640" lon="8.093913">
        <ele>114.989652</ele>
        <time>2022-01-08T09:52:35.671Z</time>
      </trkpt>
      <trkpt lat="48.804792" lon="8.094093">
        <ele>114.959287</ele>
        <time>2022-01-08T09:52:40.416Z</time>
      </trkpt>
      <trkpt lat="48.805740" lon="8.095228">
        <ele>116.079513</ele>
        <time>2022-01-08T09:53:11.572Z</time>
      </trkpt>
      <trkpt lat="48.806027" lon="8.095571">
        <ele>116.418420</ele>
        <time>2022-01-08T09:53:21.781Z</time>
      </trkpt>
      <trkpt lat="48.806718" lon="8.096298">
        <ele>117.065419</ele>
        <time>2022-01-08T09:53:44.618Z</time>
      </trkpt>
      <trkpt lat="48.806808" lon="8.096370">
        <ele>117.137964</ele>
        <time>2022-01-08T09:53:47.381Z</time>
      </trkpt>
      <trkpt lat="48.806973" lon="8.096502">
        <ele>117.270962</ele>
        <time>2022-01-08T09:53:52.248Z</time>
      </trkpt>
      <trkpt lat="48.807139" lon="8.096609">
        <ele>117.399565</ele>
        <time>2022-01-08T09:53:56.920Z</time>
      </trkpt>
      <trkpt lat="48.810659" lon="8.100056">
        <ele>117.957290</ele>
        <time>2022-01-08T09:55:30.669Z</time>
      </trkpt>
      <trkpt lat="48.812536" lon="8.101867">
        <ele>117.642992</ele>
        <time>2022-01-08T09:56:18.978Z</time>
      </trkpt>
      <trkpt lat="48.813401" lon="8.102976">
        <ele>117.326256</ele>
        <time>2022-01-08T09:56:42.946Z</time>
      </trkpt>
      <trkpt lat="48.815158" lon="8.105625">
        <ele>116.640318</ele>
        <time>2022-01-08T09:57:34.372Z</time>
      </trkpt>
      <trkpt lat="48.817014" lon="8.108163">
        <ele>118.049274</ele>
        <time>2022-01-08T09:58:35.300Z</time>
      </trkpt>
      <trkpt lat="48.817461" lon="8.108774">
        <ele>118.593214</ele>
        <time>2022-01-08T09:58:51.820Z</time>
      </trkpt>
      <trkpt lat="48.817640" lon="8.108991">
        <ele>118.813867</ele>
        <time>2022-01-08T09:58:58.006Z</time>
      </trkpt>
      <trkpt lat="48.818034" lon="8.109233">
        <ele>119.319767</ele>
        <time>2022-01-08T09:59:10.101Z</time>
      </trkpt>
      <trkpt lat="48.818183" lon="8.109272">
        <ele>119.499743</ele>
        <time>2022-01-08T09:59:14.590Z</time>
      </trkpt>
      <trkpt lat="48.818462" lon="8.109329">
        <ele>119.834840</ele>
        <time>2022-01-08T09:59:22.748Z</time>
      </trkpt>
      <trkpt lat="48.818917" lon="8.109444">
        <ele>120.383895</ele>
        <time>2022-01-08T09:59:35.348Z</time>
      </trkpt>
      <trkpt lat="48.819049" lon="8.109543">
        <ele>120.559135</ele>
        <time>2022-01-08T09:59:39.053Z</time>
      </trkpt>
      <trkpt lat="48.819646" lon="8.109994">
        <ele>120.796958</ele>
        <time>2022-01-08T09:59:55.886Z</time>
      </trkpt>
      <trkpt lat="48.820807" lon="8.110810">
        <ele>120.455915</ele>
        <time>2022-01-08T10:00:22.374Z</time>
      </trkpt>
      <trkpt lat="48.821609" lon="8.111331">
        <ele>119.560325</ele>
        <time>2022-01-08T10:00:38.514Z</time>
      </trkpt>
      <trkpt lat="48.822583" lon="8.111859">
        <ele>118.351004</ele>
        <time>2022-01-08T10:00:57.833Z</time>
      </trkpt>
      <trkpt lat="48.823356" lon="8.112177">
        <ele>118.016958</ele>
        <time>2022-01-08T10:01:13.996Z</time>
      </trkpt>
      <trkpt lat="48.824109" lon="8.112479">
        <ele>117.714907</ele>
        <time>2022-01-08T10:01:30.597Z</time>
      </trkpt>
      <trkpt lat="48.825332" lon="8.112858">
        <ele>117.899644</ele>
        <time>2022-01-08T10:01:59.471Z</time>
      </trkpt>
      <trkpt lat="48.829221" lon="8.113868">
        <ele>119.344470</ele>
        <time>2022-01-08T10:03:33.617Z</time>
      </trkpt>
      <trkpt lat="48.829398" lon="8.113911">
        <ele>119.409767</ele>
        <time>2022-01-08T10:03:37.813Z</time>
      </trkpt>
      <trkpt lat="48.829622" lon="8.113964">
        <ele>119.492350</ele>
        <time>2022-01-08T10:03:43.119Z</time>
      </trkpt>
      <trkpt lat="48.830645" lon="8.114055">
        <ele>119.545894</ele>
        <time>2022-01-08T10:04:07.237Z</time>
      </trkpt>
      <trkpt lat="48.830770" lon="8.114083">
        <ele>119.550671</ele>
        <time>2022-01-08T10:04:10.234Z</time>
      </trkpt>
      <trkpt lat="48.831321" lon="8.114238">
        <ele>119.571856</ele>
        <time>2022-01-08T10:04:22.523Z</time>
      </trkpt>
      <trkpt lat="48.832159" lon="8.114473">
        <ele>118.983132</ele>
        <time>2022-01-08T10:04:39.186Z</time>
      </trkpt>
      <trkpt lat="48.832437" lon="8.114640">
        <ele>118.736492</ele>
        <time>2022-01-08T10:04:45.138Z</time>
      </trkpt>
      <trkpt lat="48.832334" lon="8.115431">
        <ele>118.298585</ele>
        <time>2022-01-08T10:04:55.739Z</time>
      </trkpt>
      <trkpt lat="48.832283" lon="8.115818">
        <ele>118.081534</ele>
        <time>2022-01-08T10:05:00.618Z</time>
      </trkpt>
      <trkpt lat="48.832117" lon="8.116900">
        <ele>117.290320</ele>
        <time>2022-01-08T10:05:14.308Z</time>
      </trkpt>
      <trkpt lat="48.831655" lon="8.118871">
        <ele>115.904533</ele>
        <time>2022-01-08T10:05:40.863Z</time>
      </trkpt>
      <trkpt lat="48.831598" lon="8.119077">
        <ele>115.793235</ele>
        <time>2022-01-08T10:05:43.725Z</time>
      </trkpt>
      <trkpt lat="48.831509" lon="8.119374">
        <ele>115.630702</ele>
        <time>2022-01-08T10:05:47.903Z</time>
      </trkpt>
      <trkpt lat="48.831448" lon="8.119566">
        <ele>115.524517</ele>
        <time>2022-01-08T10:05:50.658Z</time>
      </trkpt>
      <trkpt lat="48.831110" lon="8.120496">
        <ele>114.995399</ele>
        <time>2022-01-08T10:06:04.657Z</time>
      </trkpt>
      <trkpt lat="48.830646" lon="8.121539">
        <ele>114.670281</ele>
        <time>2022-01-08T10:06:21.657Z</time>
      </trkpt>
      <trkpt lat="48.830538" lon="8.121767">
        <ele>114.631486</ele>
        <time>2022-01-08T10:06:25.591Z</time>
      </trkpt>
      <trkpt lat="48.830583" lon="8.121817">
        <ele>114.619788</ele>
        <time>2022-01-08T10:06:26.633Z</time>
      </trkpt>
      <trkpt lat="48.830756" lon="8.121647">
        <ele>114.576560</ele>
        <time>2022-01-08T10:06:31.267Z</time>
      </trkpt>
      <trkpt lat="48.830903" lon="8.121595">
        <ele>114.544893</ele>
        <time>2022-01-08T10:06:34.442Z</time>
      </trkpt>
      <trkpt lat="48.832146" lon="8.121914">
        <ele>114.554986</ele>
        <time>2022-01-08T10:07:06.568Z</time>
      </trkpt>
      <trkpt lat="48.833111" lon="8.122514">
        <ele>114.804288</ele>
        <time>2022-01-08T10:07:33.413Z</time>
      </trkpt>
      <trkpt lat="48.833260" lon="8.122588">
        <ele>114.840481</ele>
        <time>2022-01-08T10:07:37.523Z</time>
      </trkpt>
      <trkpt lat="48.833476" lon="8.122638">
        <ele>114.870171</ele>
        <time>2022-01-08T10:07:43.246Z</time>
      </trkpt>
      <trkpt lat="48.834666" lon="8.122268">
        <ele>115.035228</ele>
        <time>2022-01-08T10:08:12.472Z</time>
      </trkpt>
      <trkpt lat="48.838249" lon="8.121489">
        <ele>114.490115</ele>
        <time>2022-01-08T10:09:33.316Z</time>
      </trkpt>
      <trkpt lat="48.839075" lon="8.121159">
        <ele>114.580104</ele>
        <time>2022-01-08T10:09:53.239Z</time>
      </trkpt>
      <trkpt lat="48.840113" lon="8.120480">
        <ele>114.888509</ele>
        <time>2022-01-08T10:10:21.123Z</time>
      </trkpt>
      <trkpt lat="48.840895" lon="8.119730">
        <ele>115.026742</ele>
        <time>2022-01-08T10:10:43.894Z</time>
      </trkpt>
      <trkpt lat="48.841323" lon="8.119689">
        <ele>115.080985</ele>
        <time>2022-01-08T10:10:54.084Z</time>
      </trkpt>
      <trkpt lat="48.841427" lon="8.119669">
        <ele>115.094244</ele>
        <time>2022-01-08T10:10:56.513Z</time>
      </trkpt>
      <trkpt lat="48.841616" lon="8.119605">
        <ele>115.118736</ele>
        <time>2022-01-08T10:11:01.047Z</time>
      </trkpt>
      <trkpt lat="48.843847" lon="8.117672">
        <ele>114.596901</ele>
        <time>2022-01-08T10:11:57.348Z</time>
      </trkpt>
      <trkpt lat="48.844266" lon="8.117449">
        <ele>114.618494</ele>
        <time>2022-01-08T10:12:07.356Z</time>
      </trkpt>
      <trkpt lat="48.844969" lon="8.117381">
        <ele>114.652755</ele>
        <time>2022-01-08T10:12:23.729Z</time>
      </trkpt>
      <trkpt lat="48.846561" lon="8.117372">
        <ele>116.399356</ele>
        <time>2022-01-08T10:13:06.403Z</time>
      </trkpt>
      <trkpt lat="48.846673" lon="8.117308">
        <ele>116.545877</ele>
        <time>2022-01-08T10:13:10.070Z</time>
      </trkpt>
      <trkpt lat="48.846793" lon="8.117134">
        <ele>116.748979</ele>
        <time>2022-01-08T10:13:14.759Z</time>
      </trkpt>
      <trkpt lat="48.846874" lon="8.117057">
        <ele>116.865652</ele>
        <time>2022-01-08T10:13:18.455Z</time>
      </trkpt>
      <trkpt lat="48.847115" lon="8.117064">
        <ele>117.121148</ele>
        <time>2022-01-08T10:13:27.040Z</time>
      </trkpt>
      <trkpt lat="48.847262" lon="8.117212">
        <ele>117.308057</ele>
        <time>2022-01-08T10:13:33.602Z</time>
      </trkpt>
      <trkpt lat="48.847376" lon="8.117296">
        <ele>117.442348</ele>
        <time>2022-01-08T10:13:37.125Z</time>
      </trkpt>
      <trkpt lat="48.847623" lon="8.117600">
        <ele>117.779257</ele>
        <time>2022-01-08T10:13:47.085Z</time>
      </trkpt>
      <trkpt lat="48.849711" lon="8.118592">
        <ele>119.025540</ele>
        <time>2022-01-08T10:14:45.492Z</time>
      </trkpt>
      <trkpt lat="48.850096" lon="8.118827">
        <ele>119.110139</ele>
        <time>2022-01-08T10:14:55.174Z</time>
      </trkpt>
      <trkpt lat="48.850609" lon="8.119316">
        <ele>118.894681</ele>
        <time>2022-01-08T10:15:09.294Z</time>
      </trkpt>
      <trkpt lat="48.852994" lon="8.124282">
        <ele>116.910206</ele>
        <time>2022-01-08T10:16:41.770Z</time>
      </trkpt>
      <trkpt lat="48.853014" lon="8.124327">
        <ele>116.895039</ele>
        <time>2022-01-08T10:16:42.616Z</time>
      </trkpt>
      <trkpt lat="48.853031" lon="8.124361">
        <ele>116.883113</ele>
        <time>2022-01-08T10:16:43.273Z</time>
      </trkpt>
      <trkpt lat="48.853155" lon="8.124596">
        <ele>116.798983</ele>
        <time>2022-01-08T10:16:47.974Z</time>
      </trkpt>
      <trkpt lat="48.853593" lon="8.125241">
        <ele>116.540111</ele>
        <time>2022-01-08T10:17:02.385Z</time>
      </trkpt>
      <trkpt lat="48.854013" lon="8.125713">
        <ele>116.480977</ele>
        <time>2022-01-08T10:17:14.893Z</time>
      </trkpt>
      <trkpt lat="48.855804" lon="8.127162">
        <ele>116.552010</ele>
        <time>2022-01-08T10:18:04.505Z</time>
      </trkpt>
      <trkpt lat="48.856143" lon="8.127370">
        <ele>116.656006</ele>
        <time>2022-01-08T10:18:14.014Z</time>
      </trkpt>
      <trkpt lat="48.857791" lon="8.127929">
        <ele>117.361022</ele>
        <time>2022-01-08T10:19:00.122Z</time>
      </trkpt>
      <trkpt lat="48.857960" lon="8.127992">
        <ele>117.449450</ele>
        <time>2022-01-08T10:19:04.983Z</time>
      </trkpt>
      <trkpt lat="48.860102" lon="8.128678">
        <ele>117.597548</ele>
        <time>2022-01-08T10:20:00.263Z</time>
      </trkpt>
      <trkpt lat="48.860766" lon="8.129070">
        <ele>116.997736</ele>
        <time>2022-01-08T10:20:15.692Z</time>
      </trkpt>
      <trkpt lat="48.861537" lon="8.129707">
        <ele>115.951193</ele>
        <time>2022-01-08T10:20:34.012Z</time>
      </trkpt>
      <trkpt lat="48.861742" lon="8.129941">
        <ele>115.645451</ele>
        <time>2022-01-08T10:20:38.693Z</time>
      </trkpt>
      <trkpt lat="48.861906" lon="8.130118">
        <ele>115.421440</ele>
        <time>2022-01-08T10:20:42.398Z</time>
      </trkpt>
      <trkpt lat="48.862310" lon="8.130529">
        <ele>115.251885</ele>
        <time>2022-01-08T10:20:51.465Z</time>
      </trkpt>
      <trkpt lat="48.866861" lon="8.134610">
        <ele>114.134496</ele>
        <time>2022-01-08T10:22:45.692Z</time>
      </trkpt>
      <trkpt lat="48.868690" lon="8.136245">
        <ele>115.134485</ele>
        <time>2022-01-08T10:23:39.219Z</time>
      </trkpt>
      <trkpt lat="48.869503" lon="8.137050">
        <ele>115.511884</ele>
        <time>2022-01-08T10:24:02.064Z</time>
      </trkpt>
      <trkpt lat="48.872511" lon="8.141865">
        <ele>114.617964</ele>
        <time>2022-01-08T10:25:34.199Z</time>
      </trkpt>
      <trkpt lat="48.876634" lon="8.148507">
        <ele>115.162583</ele>
        <time>2022-01-08T10:28:07.851Z</time>
      </trkpt>
      <trkpt lat="48.877019" lon="8.149037">
        <ele>115.095964</ele>
        <time>2022-01-08T10:28:18.028Z</time>
      </trkpt>
      <trkpt lat="48.877253" lon="8.149242">
        <ele>114.857365</ele>
        <time>2022-01-08T10:28:23.326Z</time>
      </trkpt>
      <trkpt lat="48.877477" lon="8.149411">
        <ele>114.629077</ele>
        <time>2022-01-08T10:28:28.182Z</time>
      </trkpt>
      <trkpt lat="48.878120" lon="8.149661">
        <ele>114.023175</ele>
        <time>2022-01-08T10:28:40.771Z</time>
      </trkpt>
      <trkpt lat="48.879312" lon="8.149971">
        <ele>113.176946</ele>
        <time>2022-01-08T10:29:04.633Z</time>
      </trkpt>
      <trkpt lat="48.880415" lon="8.149882">
        <ele>112.655847</ele>
        <time>2022-01-08T10:29:27.537Z</time>
      </trkpt>
      <trkpt lat="48.881479" lon="8.150346">
        <ele>112.845364</ele>
        <time>2022-01-08T10:29:52.813Z</time>
      </trkpt>
      <trkpt lat="48.881580" lon="8.150366">
        <ele>112.870011</ele>
        <time>2022-01-08T10:29:55.212Z</time>
      </trkpt>
      <trkpt lat="48.882447" lon="8.150540">
        <ele>113.117160</ele>
        <time>2022-01-08T10:30:16.340Z</time>
      </trkpt>
      <trkpt lat="48.883677" lon="8.151204">
        <ele>113.698183</ele>
        <time>2022-01-08T10:30:48.700Z</time>
      </trkpt>
      <trkpt lat="48.883767" lon="8.151257">
        <ele>113.741147</ele>
        <time>2022-01-08T10:30:50.911Z</time>
      </trkpt>
      <trkpt lat="48.883854" lon="8.151296">
        <ele>113.781523</ele>
        <time>2022-01-08T10:30:52.977Z</time>
      </trkpt>
      <trkpt lat="48.883977" lon="8.150867">
        <ele>113.747265</ele>
        <time>2022-01-08T10:30:59.794Z</time>
      </trkpt>
      <trkpt lat="48.884210" lon="8.151060">
        <ele>113.607789</ele>
        <time>2022-01-08T10:31:05.517Z</time>
      </trkpt>
      <trkpt lat="48.884267" lon="8.150976">
        <ele>113.566063</ele>
        <time>2022-01-08T10:31:07.180Z</time>
      </trkpt>
      <trkpt lat="48.885555" lon="8.151559">
        <ele>112.862801</ele>
        <time>2022-01-08T10:31:35.099Z</time>
      </trkpt>
      <trkpt lat="48.885995" lon="8.151523">
        <ele>112.652286</ele>
        <time>2022-01-08T10:31:43.985Z</time>
      </trkpt>
      <trkpt lat="48.886281" lon="8.151417">
        <ele>112.511650</ele>
        <time>2022-01-08T10:31:50.234Z</time>
      </trkpt>
      <trkpt lat="48.886558" lon="8.151208">
        <ele>112.363920</ele>
        <time>2022-01-08T10:31:57.021Z</time>
      </trkpt>
      <trkpt lat="48.886908" lon="8.150940">
        <ele>112.176708</ele>
        <time>2022-01-08T10:32:05.667Z</time>
      </trkpt>
      <trkpt lat="48.887060" lon="8.151062">
        <ele>112.094597</ele>
        <time>2022-01-08T10:32:10.434Z</time>
      </trkpt>
      <trkpt lat="48.887240" lon="8.151303">
        <ele>112.073679</ele>
        <time>2022-01-08T10:32:15.740Z</time>
      </trkpt>
      <trkpt lat="48.887668" lon="8.151777">
        <ele>112.250330</ele>
        <time>2022-01-08T10:32:27.956Z</time>
      </trkpt>
      <trkpt lat="48.887803" lon="8.151939">
        <ele>112.307706</ele>
        <time>2022-01-08T10:32:32.150Z</time>
      </trkpt>
      <trkpt lat="48.887965" lon="8.152771">
        <ele>112.498068</ele>
        <time>2022-01-08T10:32:46.023Z</time>
      </trkpt>
      <trkpt lat="48.888273" lon="8.153913">
        <ele>112.769600</ele>
        <time>2022-01-08T10:33:05.770Z</time>
      </trkpt>
      <trkpt lat="48.888718" lon="8.156081">
        <ele>113.250671</ele>
        <time>2022-01-08T10:33:40.524Z</time>
      </trkpt>
      <trkpt lat="48.889127" lon="8.158216">
        <ele>113.434502</ele>
        <time>2022-01-08T10:34:13.555Z</time>
      </trkpt>
      <trkpt lat="48.889203" lon="8.158644">
        <ele>113.463155</ele>
        <time>2022-01-08T10:34:20.406Z</time>
      </trkpt>
      <trkpt lat="48.889254" lon="8.158877">
        <ele>113.457693</ele>
        <time>2022-01-08T10:34:24.277Z</time>
      </trkpt>
      <trkpt lat="48.889296" lon="8.159063">
        <ele>113.453319</ele>
        <time>2022-01-08T10:34:27.156Z</time>
      </trkpt>
      <trkpt lat="48.889255" lon="8.159283">
        <ele>113.448233</ele>
        <time>2022-01-08T10:34:30.875Z</time>
      </trkpt>
      <trkpt lat="48.888991" lon="8.159939">
        <ele>113.431128</ele>
        <time>2022-01-08T10:34:42.286Z</time>
      </trkpt>
      <trkpt lat="48.888815" lon="8.160305">
        <ele>113.421043</ele>
        <time>2022-01-08T10:34:49.129Z</time>
      </trkpt>
      <trkpt lat="48.888487" lon="8.161114">
        <ele>113.358960</ele>
        <time>2022-01-08T10:35:03.267Z</time>
      </trkpt>
      <trkpt lat="48.888474" lon="8.161176">
        <ele>113.343080</ele>
        <time>2022-01-08T10:35:04.284Z</time>
      </trkpt>
      <trkpt lat="48.888419" lon="8.161481">
        <ele>113.265903</ele>
        <time>2022-01-08T10:35:08.893Z</time>
      </trkpt>
      <trkpt lat="48.890275" lon="8.163131">
        <ele>112.396575</ele>
        <time>2022-01-08T10:35:55.361Z</time>
      </trkpt>
      <trkpt lat="48.890429" lon="8.163357">
        <ele>112.296010</ele>
        <time>2022-01-08T10:35:59.962Z</time>
      </trkpt>
      <trkpt lat="48.890688" lon="8.163950">
        <ele>112.076043</ele>
        <time>2022-01-08T10:36:09.991Z</time>
      </trkpt>
      <trkpt lat="48.891275" lon="8.165470">
        <ele>111.614579</ele>
        <time>2022-01-08T10:36:35.021Z</time>
      </trkpt>
      <trkpt lat="48.891689" lon="8.167568">
        <ele>111.208793</ele>
        <time>2022-01-08T10:37:06.884Z</time>
      </trkpt>
      <trkpt lat="48.891847" lon="8.168612">
        <ele>111.152368</ele>
        <time>2022-01-08T10:37:23.327Z</time>
      </trkpt>
      <trkpt lat="48.892269" lon="8.169823">
        <ele>111.019921</ele>
        <time>2022-01-08T10:37:44.169Z</time>
      </trkpt>
      <trkpt lat="48.892447" lon="8.170838">
        <ele>110.770270</ele>
        <time>2022-01-08T10:37:59.242Z</time>
      </trkpt>
      <trkpt lat="48.892636" lon="8.171455">
        <ele>110.608505</ele>
        <time>2022-01-08T10:38:08.939Z</time>
      </trkpt>
      <trkpt lat="48.892935" lon="8.172003">
        <ele>110.437252</ele>
        <time>2022-01-08T10:38:18.890Z</time>
      </trkpt>
      <trkpt lat="48.894246" lon="8.174443">
        <ele>109.554097</ele>
        <time>2022-01-08T10:39:03.549Z</time>
      </trkpt>
      <trkpt lat="48.894602" lon="8.174963">
        <ele>109.424239</ele>
        <time>2022-01-08T10:39:14.537Z</time>
      </trkpt>
      <trkpt lat="48.894832" lon="8.175468">
        <ele>109.317976</ele>
        <time>2022-01-08T10:39:23.488Z</time>
      </trkpt>
      <trkpt lat="48.894936" lon="8.175948">
        <ele>109.230557</ele>
        <time>2022-01-08T10:39:30.886Z</time>
      </trkpt>
      <trkpt lat="48.895146" lon="8.176514">
        <ele>109.199609</ele>
        <time>2022-01-08T10:39:40.586Z</time>
      </trkpt>
      <trkpt lat="48.895528" lon="8.177205">
        <ele>109.358631</ele>
        <time>2022-01-08T10:39:54.714Z</time>
      </trkpt>
      <trkpt lat="48.896003" lon="8.177846">
        <ele>109.528756</ele>
        <time>2022-01-08T10:40:10.336Z</time>
      </trkpt>
      <trkpt lat="48.896468" lon="8.178443">
        <ele>109.727392</ele>
        <time>2022-01-08T10:40:25.665Z</time>
      </trkpt>
      <trkpt lat="48.897122" lon="8.179021">
        <ele>110.070459</ele>
        <time>2022-01-08T10:40:44.999Z</time>
      </trkpt>
      <trkpt lat="48.897176" lon="8.179067">
        <ele>110.098531</ele>
        <time>2022-01-08T10:40:46.529Z</time>
      </trkpt>
      <trkpt lat="48.897240" lon="8.179160">
        <ele>110.138676</ele>
        <time>2022-01-08T10:40:48.765Z</time>
      </trkpt>
      <trkpt lat="48.897318" lon="8.179472">
        <ele>110.238207</ele>
        <time>2022-01-08T10:40:54.454Z</time>
      </trkpt>
      <trkpt lat="48.897335" lon="8.179544">
        <ele>110.261019</ele>
        <time>2022-01-08T10:40:55.680Z</time>
      </trkpt>
      <trkpt lat="48.896708" lon="8.179882">
        <ele>110.446576</ele>
        <time>2022-01-08T10:41:11.846Z</time>
      </trkpt>
      <trkpt lat="48.895605" lon="8.180717">
        <ele>110.396120</ele>
        <time>2022-01-08T10:41:39.774Z</time>
      </trkpt>
      <trkpt lat="48.894470" lon="8.181725">
        <ele>110.353007</ele>
        <time>2022-01-08T10:42:09.788Z</time>
      </trkpt>
      <trkpt lat="48.893550" lon="8.182525">
        <ele>110.338180</ele>
        <time>2022-01-08T10:42:34.356Z</time>
      </trkpt>
      <trkpt lat="48.893293" lon="8.182741">
        <ele>110.349863</ele>
        <time>2022-01-08T10:42:41.226Z</time>
      </trkpt>
      <trkpt lat="48.892532" lon="8.183399">
        <ele>110.384693</ele>
        <time>2022-01-08T10:43:01.836Z</time>
      </trkpt>
      <trkpt lat="48.889943" lon="8.185613">
        <ele>110.310366</ele>
        <time>2022-01-08T10:44:10.662Z</time>
      </trkpt>
      <trkpt lat="48.890103" lon="8.187322">
        <ele>110.168911</ele>
        <time>2022-01-08T10:44:34.887Z</time>
      </trkpt>
      <trkpt lat="48.890266" lon="8.189143">
        <ele>109.905152</ele>
        <time>2022-01-08T10:45:00.326Z</time>
      </trkpt>
      <trkpt lat="48.890205" lon="8.189148">
        <ele>109.891818</ele>
        <time>2022-01-08T10:45:02.496Z</time>
      </trkpt>
      <trkpt lat="48.890339" lon="8.190393">
        <ele>109.920629</ele>
        <time>2022-01-08T10:45:20.991Z</time>
      </trkpt>
      <trkpt lat="48.890398" lon="8.190644">
        <ele>109.969484</ele>
        <time>2022-01-08T10:45:25.123Z</time>
      </trkpt>
      <trkpt lat="48.890558" lon="8.191333">
        <ele>110.103409</ele>
        <time>2022-01-08T10:45:36.578Z</time>
      </trkpt>
      <trkpt lat="48.890594" lon="8.191307">
        <ele>110.114518</ele>
        <time>2022-01-08T10:45:38.109Z</time>
      </trkpt>
      <trkpt lat="48.890609" lon="8.191344">
        <ele>110.122485</ele>
        <time>2022-01-08T10:45:38.805Z</time>
      </trkpt>
      <trkpt lat="48.890913" lon="8.192103">
        <ele>110.285372</ele>
        <time>2022-01-08T10:45:53.437Z</time>
      </trkpt>
      <trkpt lat="48.890985" lon="8.192157">
        <ele>110.306975</ele>
        <time>2022-01-08T10:45:55.359Z</time>
      </trkpt>
      <trkpt lat="48.891101" lon="8.192130">
        <ele>110.332330</ele>
        <time>2022-01-08T10:45:58.218Z</time>
      </trkpt>
      <trkpt lat="48.891291" lon="8.192013">
        <ele>110.376619</ele>
        <time>2022-01-08T10:46:03.144Z</time>
      </trkpt>
      <trkpt lat="48.891365" lon="8.191968">
        <ele>110.393839</ele>
        <time>2022-01-08T10:46:05.083Z</time>
      </trkpt>
      <trkpt lat="48.893398" lon="8.191057">
        <ele>110.612005</ele>
        <time>2022-01-08T10:46:58.441Z</time>
      </trkpt>
      <trkpt lat="48.894074" lon="8.190567">
        <ele>110.529575</ele>
        <time>2022-01-08T10:47:16.277Z</time>
      </trkpt>
      <trkpt lat="48.895400" lon="8.189289">
        <ele>110.142700</ele>
        <time>2022-01-08T10:47:53.233Z</time>
      </trkpt>
      <trkpt lat="48.897817" lon="8.186942">
        <ele>109.731613</ele>
        <time>2022-01-08T10:49:01.863Z</time>
      </trkpt>
      <trkpt lat="48.901838" lon="8.182980">
        <ele>110.687474</ele>
        <time>2022-01-08T10:51:05.289Z</time>
      </trkpt>
      <trkpt lat="48.902706" lon="8.181783">
        <ele>110.552939</ele>
        <time>2022-01-08T10:51:33.406Z</time>
      </trkpt>
      <trkpt lat="48.903648" lon="8.180097">
        <ele>110.531803</ele>
        <time>2022-01-08T10:52:08.374Z</time>
      </trkpt>
      <trkpt lat="48.903720" lon="8.179825">
        <ele>110.551548</ele>
        <time>2022-01-08T10:52:12.722Z</time>
      </trkpt>
      <trkpt lat="48.906770" lon="8.172286">
        <ele>112.236924</ele>
        <time>2022-01-08T10:54:31.173Z</time>
      </trkpt>
      <trkpt lat="48.906858" lon="8.172365">
        <ele>112.250096</ele>
        <time>2022-01-08T10:54:33.542Z</time>
      </trkpt>
      <trkpt lat="48.906936" lon="8.172435">
        <ele>112.261771</ele>
        <time>2022-01-08T10:54:35.624Z</time>
      </trkpt>
      <trkpt lat="48.906995" lon="8.172481">
        <ele>112.270318</ele>
        <time>2022-01-08T10:54:37.169Z</time>
      </trkpt>
      <trkpt lat="48.907101" lon="8.172581">
        <ele>112.286397</ele>
        <time>2022-01-08T10:54:40.053Z</time>
      </trkpt>
      <trkpt lat="48.907441" lon="8.172585">
        <ele>112.141061</ele>
        <time>2022-01-08T10:54:47.773Z</time>
      </trkpt>
      <trkpt lat="48.908490" lon="8.172413">
        <ele>111.585153</ele>
        <time>2022-01-08T10:55:11.496Z</time>
      </trkpt>
      <trkpt lat="48.908713" lon="8.172520">
        <ele>111.461953</ele>
        <time>2022-01-08T10:55:16.636Z</time>
      </trkpt>
      <trkpt lat="48.910459" lon="8.175474">
        <ele>110.771555</ele>
        <time>2022-01-08T10:56:19.815Z</time>
      </trkpt>
      <trkpt lat="48.910756" lon="8.176003">
        <ele>110.603460</ele>
        <time>2022-01-08T10:56:30.632Z</time>
      </trkpt>
      <trkpt lat="48.910947" lon="8.176815">
        <ele>110.395089</ele>
        <time>2022-01-08T10:56:43.725Z</time>
      </trkpt>
      <trkpt lat="48.912138" lon="8.179237">
        <ele>109.076252</ele>
        <time>2022-01-08T10:57:28.057Z</time>
      </trkpt>
      <trkpt lat="48.912647" lon="8.179938">
        <ele>108.935800</ele>
        <time>2022-01-08T10:57:43.807Z</time>
      </trkpt>
      <trkpt lat="48.913020" lon="8.180273">
        <ele>108.847191</ele>
        <time>2022-01-08T10:57:54.013Z</time>
      </trkpt>
      <trkpt lat="48.913608" lon="8.180540">
        <ele>108.721655</ele>
        <time>2022-01-08T10:58:09.321Z</time>
      </trkpt>
      <trkpt lat="48.915036" lon="8.180862">
        <ele>109.363617</ele>
        <time>2022-01-08T10:58:47.511Z</time>
      </trkpt>
      <trkpt lat="48.915280" lon="8.181081">
        <ele>109.497475</ele>
        <time>2022-01-08T10:58:55.404Z</time>
      </trkpt>
      <trkpt lat="48.917803" lon="8.184139">
        <ele>111.966225</ele>
        <time>2022-01-08T11:00:26.049Z</time>
      </trkpt>
      <trkpt lat="48.918468" lon="8.184934">
        <ele>112.459479</ele>
        <time>2022-01-08T11:00:48.011Z</time>
      </trkpt>
      <trkpt lat="48.918486" lon="8.184947">
        <ele>112.468050</ele>
        <time>2022-01-08T11:00:48.572Z</time>
      </trkpt>
      <trkpt lat="48.919169" lon="8.185437">
        <ele>112.792891</ele>
        <time>2022-01-08T11:01:07.749Z</time>
      </trkpt>
      <trkpt lat="48.920118" lon="8.186226">
        <ele>113.500047</ele>
        <time>2022-01-08T11:01:37.343Z</time>
      </trkpt>
      <trkpt lat="48.921688" lon="8.188113">
        <ele>115.128324</ele>
        <time>2022-01-08T11:02:36.230Z</time>
      </trkpt>
      <trkpt lat="48.922351" lon="8.189739">
        <ele>115.471325</ele>
        <time>2022-01-08T11:03:07.148Z</time>
      </trkpt>
      <trkpt lat="48.923046" lon="8.191765">
        <ele>115.002798</ele>
        <time>2022-01-08T11:03:40.833Z</time>
      </trkpt>
      <trkpt lat="48.924569" lon="8.196263">
        <ele>116.952916</ele>
        <time>2022-01-08T11:05:12.399Z</time>
      </trkpt>
      <trkpt lat="48.925010" lon="8.197479">
        <ele>117.321211</ele>
        <time>2022-01-08T11:05:37.846Z</time>
      </trkpt>
      <trkpt lat="48.925374" lon="8.198293">
        <ele>117.314813</ele>
        <time>2022-01-08T11:05:55.176Z</time>
      </trkpt>
      <trkpt lat="48.925787" lon="8.199021">
        <ele>117.308562</ele>
        <time>2022-01-08T11:06:10.179Z</time>
      </trkpt>
      <trkpt lat="48.926540" lon="8.200031">
        <ele>115.466793</ele>
        <time>2022-01-08T11:06:30.200Z</time>
      </trkpt>
      <trkpt lat="48.927629" lon="8.200972">
        <ele>112.952710</ele>
        <time>2022-01-08T11:06:54.026Z</time>
      </trkpt>
      <trkpt lat="48.929260" lon="8.201664">
        <ele>110.133689</ele>
        <time>2022-01-08T11:07:28.499Z</time>
      </trkpt>
      <trkpt lat="48.930861" lon="8.202110">
        <ele>109.174490</ele>
        <time>2022-01-08T11:08:06.595Z</time>
      </trkpt>
      <trkpt lat="48.931914" lon="8.202269">
        <ele>108.952529</ele>
        <time>2022-01-08T11:08:31.262Z</time>
      </trkpt>
      <trkpt lat="48.932669" lon="8.202307">
        <ele>108.837893</ele>
        <time>2022-01-08T11:08:50.339Z</time>
      </trkpt>
      <trkpt lat="48.933210" lon="8.202232">
        <ele>109.019684</ele>
        <time>2022-01-08T11:09:04.219Z</time>
      </trkpt>
      <trkpt lat="48.933497" lon="8.202255">
        <ele>109.115860</ele>
        <time>2022-01-08T11:09:10.790Z</time>
      </trkpt>
      <trkpt lat="48.933706" lon="8.202364">
        <ele>109.189791</ele>
        <time>2022-01-08T11:09:16.029Z</time>
      </trkpt>
      <trkpt lat="48.934108" lon="8.202925">
        <ele>109.372294</ele>
        <time>2022-01-08T11:09:29.144Z</time>
      </trkpt>
      <trkpt lat="48.934234" lon="8.203247">
        <ele>109.451333</ele>
        <time>2022-01-08T11:09:35.273Z</time>
      </trkpt>
      <trkpt lat="48.934265" lon="8.203513">
        <ele>109.505959</ele>
        <time>2022-01-08T11:09:39.654Z</time>
      </trkpt>
      <trkpt lat="48.934264" lon="8.203863">
        <ele>109.576732</ele>
        <time>2022-01-08T11:09:45.343Z</time>
      </trkpt>
      <trkpt lat="48.934242" lon="8.204887">
        <ele>109.783900</ele>
        <time>2022-01-08T11:10:00.820Z</time>
      </trkpt>
      <trkpt lat="48.934230" lon="8.205351">
        <ele>109.877796</ele>
        <time>2022-01-08T11:10:07.524Z</time>
      </trkpt>
      <trkpt lat="48.934225" lon="8.205465">
        <ele>109.900899</ele>
        <time>2022-01-08T11:10:09.138Z</time>
      </trkpt>
      <trkpt lat="48.934221" lon="8.205911">
        <ele>109.986151</ele>
        <time>2022-01-08T11:10:16.114Z</time>
      </trkpt>
      <trkpt lat="48.934748" lon="8.206288">
        <ele>110.129396</ele>
        <time>2022-01-08T11:10:30.852Z</time>
      </trkpt>
      <trkpt lat="48.935413" lon="8.206520">
        <ele>110.297227</ele>
        <time>2022-01-08T11:10:47.966Z</time>
      </trkpt>
      <trkpt lat="48.935899" lon="8.206636">
        <ele>110.395187</ele>
        <time>2022-01-08T11:10:59.507Z</time>
      </trkpt>
      <trkpt lat="48.936443" lon="8.206158">
        <ele>110.165962</ele>
        <time>2022-01-08T11:11:13.339Z</time>
      </trkpt>
      <trkpt lat="48.937339" lon="8.205441">
        <ele>109.796552</ele>
        <time>2022-01-08T11:11:35.256Z</time>
      </trkpt>
      <trkpt lat="48.937576" lon="8.205391">
        <ele>109.703326</ele>
        <time>2022-01-08T11:11:40.192Z</time>
      </trkpt>
      <trkpt lat="48.937717" lon="8.205315">
        <ele>109.641295</ele>
        <time>2022-01-08T11:11:43.403Z</time>
      </trkpt>
      <trkpt lat="48.938181" lon="8.204437">
        <ele>109.334322</ele>
        <time>2022-01-08T11:11:58.841Z</time>
      </trkpt>
      <trkpt lat="48.938670" lon="8.202023">
        <ele>108.893414</ele>
        <time>2022-01-08T11:12:36.516Z</time>
      </trkpt>
      <trkpt lat="48.938955" lon="8.199767">
        <ele>108.565297</ele>
        <time>2022-01-08T11:13:10.749Z</time>
      </trkpt>
      <trkpt lat="48.938970" lon="8.199648">
        <ele>108.536868</ele>
        <time>2022-01-08T11:13:12.593Z</time>
      </trkpt>
      <trkpt lat="48.939155" lon="8.199730">
        <ele>108.468045</ele>
        <time>2022-01-08T11:13:17.000Z</time>
      </trkpt>
      <trkpt lat="48.940537" lon="8.201042">
        <ele>107.915983</ele>
        <time>2022-01-08T11:13:54.406Z</time>
      </trkpt>
      <trkpt lat="48.940505" lon="8.201138">
        <ele>107.893803</ele>
        <time>2022-01-08T11:13:55.838Z</time>
      </trkpt>
      <trkpt lat="48.941197" lon="8.201797">
        <ele>107.637778</ele>
        <time>2022-01-08T11:14:15.056Z</time>
      </trkpt>
      <trkpt lat="48.942080" lon="8.202637">
        <ele>107.843532</ele>
        <time>2022-01-08T11:14:41.241Z</time>
      </trkpt>
      <trkpt lat="48.942993" lon="8.203715">
        <ele>108.220739</ele>
        <time>2022-01-08T11:15:12.653Z</time>
      </trkpt>
      <trkpt lat="48.943266" lon="8.204176">
        <ele>108.315832</ele>
        <time>2022-01-08T11:15:23.689Z</time>
      </trkpt>
      <trkpt lat="48.943586" lon="8.204526">
        <ele>108.407734</ele>
        <time>2022-01-08T11:15:33.984Z</time>
      </trkpt>
      <trkpt lat="48.943639" lon="8.204676">
        <ele>108.433828</ele>
        <time>2022-01-08T11:15:36.838Z</time>
      </trkpt>
      <trkpt lat="48.943533" lon="8.206071">
        <ele>108.582189</ele>
        <time>2022-01-08T11:16:10.536Z</time>
      </trkpt>
      <trkpt lat="48.943243" lon="8.206605">
        <ele>108.540443</ele>
        <time>2022-01-08T11:16:27.020Z</time>
      </trkpt>
      <trkpt lat="48.943177" lon="8.206866">
        <ele>108.523593</ele>
        <time>2022-01-08T11:16:33.558Z</time>
      </trkpt>
      <trkpt lat="48.943145" lon="8.207090">
        <ele>108.509782</ele>
        <time>2022-01-08T11:16:38.981Z</time>
      </trkpt>
      <trkpt lat="48.943467" lon="8.207421">
        <ele>108.474143</ele>
        <time>2022-01-08T11:16:53.071Z</time>
      </trkpt>
      <trkpt lat="48.943745" lon="8.207602">
        <ele>108.446409</ele>
        <time>2022-01-08T11:17:04.269Z</time>
      </trkpt>
      <trkpt lat="48.944054" lon="8.207690">
        <ele>108.567789</ele>
        <time>2022-01-08T11:17:16.107Z</time>
      </trkpt>
      <trkpt lat="48.945748" lon="8.207708">
        <ele>109.600530</ele>
        <time>2022-01-08T11:18:24.722Z</time>
      </trkpt>
      <trkpt lat="48.945914" lon="8.207573">
        <ele>109.577336</ele>
        <time>2022-01-08T11:18:31.835Z</time>
      </trkpt>
      <trkpt lat="48.945958" lon="8.207279">
        <ele>109.552929</ele>
        <time>2022-01-08T11:18:39.789Z</time>
      </trkpt>
      <trkpt lat="48.946152" lon="8.207734">
        <ele>109.509020</ele>
        <time>2022-01-08T11:18:48.805Z</time>
      </trkpt>
      <trkpt lat="48.947966" lon="8.210037">
        <ele>108.646279</ele>
        <time>2022-01-08T11:19:42.024Z</time>
      </trkpt>
      <trkpt lat="48.949624" lon="8.212109">
        <ele>108.130245</ele>
        <time>2022-01-08T11:20:33.465Z</time>
      </trkpt>
      <trkpt lat="48.950201" lon="8.212584">
        <ele>108.253705</ele>
        <time>2022-01-08T11:20:50.204Z</time>
      </trkpt>
      <trkpt lat="48.954973" lon="8.215255">
        <ele>109.317770</ele>
        <time>2022-01-08T11:23:00.724Z</time>
      </trkpt>
      <trkpt lat="48.955140" lon="8.215306">
        <ele>109.319130</ele>
        <time>2022-01-08T11:23:04.917Z</time>
      </trkpt>
      <trkpt lat="48.955732" lon="8.215236">
        <ele>109.323875</ele>
        <time>2022-01-08T11:23:19.839Z</time>
      </trkpt>
      <trkpt lat="48.955971" lon="8.215208">
        <ele>109.325790</ele>
        <time>2022-01-08T11:23:25.749Z</time>
      </trkpt>
      <trkpt lat="48.956088" lon="8.215267">
        <ele>109.326775</ele>
        <time>2022-01-08T11:23:28.787Z</time>
      </trkpt>
      <trkpt lat="48.957330" lon="8.220658">
        <ele>108.083960</ele>
        <time>2022-01-08T11:24:47.332Z</time>
      </trkpt>
      <trkpt lat="48.957335" lon="8.220948">
        <ele>108.010928</ele>
        <time>2022-01-08T11:24:51.296Z</time>
      </trkpt>
      <trkpt lat="48.957227" lon="8.221338">
        <ele>108.001974</ele>
        <time>2022-01-08T11:24:56.998Z</time>
      </trkpt>
      <trkpt lat="48.957134" lon="8.221528">
        <ele>108.004236</ele>
        <time>2022-01-08T11:25:00.321Z</time>
      </trkpt>
      <trkpt lat="48.957262" lon="8.221837">
        <ele>108.007723</ele>
        <time>2022-01-08T11:25:08.887Z</time>
      </trkpt>
      <trkpt lat="48.956821" lon="8.226132">
        <ele>108.486049</ele>
        <time>2022-01-08T11:26:57.699Z</time>
      </trkpt>
      <trkpt lat="48.956733" lon="8.226458">
        <ele>108.527251</ele>
        <time>2022-01-08T11:27:06.533Z</time>
      </trkpt>
      <trkpt lat="48.956634" lon="8.228239">
        <ele>108.649211</ele>
        <time>2022-01-08T11:27:50.683Z</time>
      </trkpt>
      <trkpt lat="48.956731" lon="8.229484">
        <ele>108.755269</ele>
        <time>2022-01-08T11:28:21.112Z</time>
      </trkpt>
      <trkpt lat="48.956769" lon="8.229983">
        <ele>108.810195</ele>
        <time>2022-01-08T11:28:33.526Z</time>
      </trkpt>
      <trkpt lat="48.956949" lon="8.231043">
        <ele>108.929908</ele>
        <time>2022-01-08T11:29:00.803Z</time>
      </trkpt>
      <trkpt lat="48.957171" lon="8.232393">
        <ele>109.163590</ele>
        <time>2022-01-08T11:29:35.636Z</time>
      </trkpt>
      <trkpt lat="48.957211" lon="8.231745">
        <ele>109.305619</ele>
        <time>2022-01-08T11:29:45.728Z</time>
      </trkpt>
      <trkpt lat="48.957514" lon="8.232851">
        <ele>109.567132</ele>
        <time>2022-01-08T11:30:06.547Z</time>
      </trkpt>
      <trkpt lat="48.958490" lon="8.234852">
        <ele>109.859405</ele>
        <time>2022-01-08T11:30:48.275Z</time>
      </trkpt>
      <trkpt lat="48.958766" lon="8.235637">
        <ele>109.828902</ele>
        <time>2022-01-08T11:31:02.485Z</time>
      </trkpt>
      <trkpt lat="48.958979" lon="8.236193">
        <ele>109.734587</ele>
        <time>2022-01-08T11:31:12.429Z</time>
      </trkpt>
      <trkpt lat="48.960875" lon="8.242356">
        <ele>108.759553</ele>
        <time>2022-01-08T11:32:58.926Z</time>
      </trkpt>
      <trkpt lat="48.962366" lon="8.245342">
        <ele>108.825549</ele>
        <time>2022-01-08T11:33:59.322Z</time>
      </trkpt>
      <trkpt lat="48.964000" lon="8.247663">
        <ele>109.659750</ele>
        <time>2022-01-08T11:34:59.548Z</time>
      </trkpt>
      <trkpt lat="48.963938" lon="8.247744">
        <ele>109.691237</ele>
        <time>2022-01-08T11:35:01.376Z</time>
      </trkpt>
      <trkpt lat="48.963620" lon="8.247826">
        <ele>109.815566</ele>
        <time>2022-01-08T11:35:10.380Z</time>
      </trkpt>
      <trkpt lat="48.963232" lon="8.247829">
        <ele>109.965137</ele>
        <time>2022-01-08T11:35:20.300Z</time>
      </trkpt>
      <trkpt lat="48.963886" lon="8.248115">
        <ele>110.062327</ele>
        <time>2022-01-08T11:35:45.013Z</time>
      </trkpt>
      <trkpt lat="48.963730" lon="8.249216">
        <ele>110.143720</ele>
        <time>2022-01-08T11:36:12.156Z</time>
      </trkpt>
      <trkpt lat="48.963235" lon="8.250232">
        <ele>110.362166</ele>
        <time>2022-01-08T11:36:44.915Z</time>
      </trkpt>
      <trkpt lat="48.963200" lon="8.250292">
        <ele>110.386010</ele>
        <time>2022-01-08T11:36:45.980Z</time>
      </trkpt>
      <trkpt lat="48.963564" lon="8.250836">
        <ele>110.616756</ele>
        <time>2022-01-08T11:36:58.172Z</time>
      </trkpt>
      <trkpt lat="48.964738" lon="8.252690">
        <ele>111.072303</ele>
        <time>2022-01-08T11:37:38.901Z</time>
      </trkpt>
      <trkpt lat="48.965691" lon="8.254327">
        <ele>111.128232</ele>
        <time>2022-01-08T11:38:09.467Z</time>
      </trkpt>
      <trkpt lat="48.966546" lon="8.255912">
        <ele>111.070332</ele>
        <time>2022-01-08T11:38:39.827Z</time>
      </trkpt>
      <trkpt lat="48.967565" lon="8.258510">
        <ele>110.611114</ele>
        <time>2022-01-08T11:39:23.568Z</time>
      </trkpt>
      <trkpt lat="48.967716" lon="8.258918">
        <ele>110.263211</ele>
        <time>2022-01-08T11:39:29.269Z</time>
      </trkpt>
      <trkpt lat="48.967935" lon="8.260789">
        <ele>108.851528</ele>
        <time>2022-01-08T11:39:52.463Z</time>
      </trkpt>
      <trkpt lat="48.967930" lon="8.261035">
        <ele>108.712814</ele>
        <time>2022-01-08T11:39:55.336Z</time>
      </trkpt>
      <trkpt lat="48.967988" lon="8.261669">
        <ele>108.394177</ele>
        <time>2022-01-08T11:40:03.129Z</time>
      </trkpt>
      <trkpt lat="48.968004" lon="8.261851">
        <ele>108.302774</ele>
        <time>2022-01-08T11:40:05.414Z</time>
      </trkpt>
      <trkpt lat="48.968122" lon="8.262130">
        <ele>108.137570</ele>
        <time>2022-01-08T11:40:09.709Z</time>
      </trkpt>
      <trkpt lat="48.968159" lon="8.262467">
        <ele>107.967491</ele>
        <time>2022-01-08T11:40:14.215Z</time>
      </trkpt>
      <trkpt lat="48.968751" lon="8.262186">
        <ele>107.497324</ele>
        <time>2022-01-08T11:40:27.686Z</time>
      </trkpt>
      <trkpt lat="48.969414" lon="8.261798">
        <ele>107.565426</ele>
        <time>2022-01-08T11:40:43.421Z</time>
      </trkpt>
      <trkpt lat="48.969487" lon="8.261891">
        <ele>107.584499</ele>
        <time>2022-01-08T11:40:45.512Z</time>
      </trkpt>
      <trkpt lat="48.969553" lon="8.262165">
        <ele>107.622899</ele>
        <time>2022-01-08T11:40:49.718Z</time>
      </trkpt>
      <trkpt lat="48.969580" lon="8.262285">
        <ele>107.639589</ele>
        <time>2022-01-08T11:40:51.557Z</time>
      </trkpt>
      <trkpt lat="48.971083" lon="8.261414">
        <ele>108.148585</ele>
        <time>2022-01-08T11:41:30.616Z</time>
      </trkpt>
      <trkpt lat="48.971153" lon="8.261464">
        <ele>108.181850</ele>
        <time>2022-01-08T11:41:32.612Z</time>
      </trkpt>
      <trkpt lat="48.971368" lon="8.262353">
        <ele>108.449444</ele>
        <time>2022-01-08T11:41:47.225Z</time>
      </trkpt>
      <trkpt lat="48.971472" lon="8.262786">
        <ele>108.587632</ele>
        <time>2022-01-08T11:41:54.221Z</time>
      </trkpt>
      <trkpt lat="48.972082" lon="8.262466">
        <ele>109.196052</ele>
        <time>2022-01-08T11:42:09.674Z</time>
      </trkpt>
      <trkpt lat="48.972070" lon="8.262688">
        <ele>109.333946</ele>
        <time>2022-01-08T11:42:13.407Z</time>
      </trkpt>
      <trkpt lat="48.972165" lon="8.262949">
        <ele>109.518695</ele>
        <time>2022-01-08T11:42:18.722Z</time>
      </trkpt>
      <trkpt lat="48.972847" lon="8.263423">
        <ele>110.225635</ele>
        <time>2022-01-08T11:42:39.714Z</time>
      </trkpt>
      <trkpt lat="48.972882" lon="8.263380">
        <ele>110.268038</ele>
        <time>2022-01-08T11:42:40.967Z</time>
      </trkpt>
      <trkpt lat="48.972976" lon="8.263280">
        <ele>110.357973</ele>
        <time>2022-01-08T11:42:44.121Z</time>
      </trkpt>
      <trkpt lat="48.973293" lon="8.262945">
        <ele>110.659928</ele>
        <time>2022-01-08T11:42:54.383Z</time>
      </trkpt>
      <trkpt lat="48.973874" lon="8.262475">
        <ele>111.174789</ele>
        <time>2022-01-08T11:43:11.463Z</time>
      </trkpt>
      <trkpt lat="48.975425" lon="8.261402">
        <ele>111.788806</ele>
        <time>2022-01-08T11:43:51.440Z</time>
      </trkpt>
      <trkpt lat="48.975487" lon="8.261484">
        <ele>111.797454</ele>
        <time>2022-01-08T11:43:53.475Z</time>
      </trkpt>
      <trkpt lat="48.976610" lon="8.263073">
        <ele>111.484940</ele>
        <time>2022-01-08T11:44:30.216Z</time>
      </trkpt>
      <trkpt lat="48.977915" lon="8.264953">
        <ele>110.546572</ele>
        <time>2022-01-08T11:45:10.570Z</time>
      </trkpt>
      <trkpt lat="48.978575" lon="8.265577">
        <ele>110.068893</ele>
        <time>2022-01-08T11:45:27.946Z</time>
      </trkpt>
      <trkpt lat="48.979646" lon="8.266986">
        <ele>109.834960</ele>
        <time>2022-01-08T11:46:01.888Z</time>
      </trkpt>
      <trkpt lat="48.979969" lon="8.267411">
        <ele>109.786589</ele>
        <time>2022-01-08T11:46:12.466Z</time>
      </trkpt>
      <trkpt lat="48.980797" lon="8.268750">
        <ele>110.151210</ele>
        <time>2022-01-08T11:46:43.699Z</time>
      </trkpt>
      <trkpt lat="48.982517" lon="8.272291">
        <ele>111.217042</ele>
        <time>2022-01-08T11:48:01.566Z</time>
      </trkpt>
      <trkpt lat="48.985082" lon="8.277658">
        <ele>110.409323</ele>
        <time>2022-01-08T11:49:43.440Z</time>
      </trkpt>
      <trkpt lat="48.986498" lon="8.279832">
        <ele>111.368592</ele>
        <time>2022-01-08T11:50:37.915Z</time>
      </trkpt>
      <trkpt lat="48.987131" lon="8.280712">
        <ele>112.080708</ele>
        <time>2022-01-08T11:51:02.678Z</time>
      </trkpt>
      <trkpt lat="48.990022" lon="8.284272">
        <ele>114.742579</ele>
        <time>2022-01-08T11:52:48.378Z</time>
      </trkpt>
      <trkpt lat="48.992932" lon="8.288049">
        <ele>111.363601</ele>
        <time>2022-01-08T11:54:09.856Z</time>
      </trkpt>
      <trkpt lat="48.993743" lon="8.289094">
        <ele>110.467260</ele>
        <time>2022-01-08T11:54:34.074Z</time>
      </trkpt>
      <trkpt lat="48.994497" lon="8.289894">
        <ele>109.572473</ele>
        <time>2022-01-08T11:54:54.711Z</time>
      </trkpt>
      <trkpt lat="48.996515" lon="8.291503">
        <ele>107.311707</ele>
        <time>2022-01-08T11:55:42.452Z</time>
      </trkpt>
      <trkpt lat="48.996968" lon="8.291927">
        <ele>107.199661</ele>
        <time>2022-01-08T11:55:53.620Z</time>
      </trkpt>
      <trkpt lat="48.997357" lon="8.292195">
        <ele>107.855408</ele>
        <time>2022-01-08T11:56:04.281Z</time>
      </trkpt>
      <trkpt lat="48.996758" lon="8.293989">
        <ele>109.828895</ele>
        <time>2022-01-08T11:56:45.989Z</time>
      </trkpt>
      <trkpt lat="48.996747" lon="8.294398">
        <ele>110.112401</ele>
        <time>2022-01-08T11:56:54.861Z</time>
      </trkpt>
      <trkpt lat="48.996979" lon="8.294481">
        <ele>110.363958</ele>
        <time>2022-01-08T11:57:02.199Z</time>
      </trkpt>
      <trkpt lat="48.997529" lon="8.294580">
        <ele>110.948577</ele>
        <time>2022-01-08T11:57:15.886Z</time>
      </trkpt>
      <trkpt lat="48.998065" lon="8.294976">
        <ele>111.577349</ele>
        <time>2022-01-08T11:57:30.617Z</time>
      </trkpt>
      <trkpt lat="48.998338" lon="8.294856">
        <ele>111.478606</ele>
        <time>2022-01-08T11:57:36.565Z</time>
      </trkpt>
      <trkpt lat="48.998532" lon="8.294469">
        <ele>111.319728</ele>
        <time>2022-01-08T11:57:42.419Z</time>
      </trkpt>
      <trkpt lat="48.999100" lon="8.294920">
        <ele>111.001288</ele>
        <time>2022-01-08T11:57:54.655Z</time>
      </trkpt>
      <trkpt lat="48.999061" lon="8.295277">
        <ele>110.883228</ele>
        <time>2022-01-08T11:57:59.435Z</time>
      </trkpt>
      <trkpt lat="48.998744" lon="8.296248">
        <ele>111.167455</ele>
        <time>2022-01-08T11:58:15.225Z</time>
      </trkpt>
      <trkpt lat="48.998214" lon="8.298065">
        <ele>112.786322</ele>
        <time>2022-01-08T11:58:53.191Z</time>
      </trkpt>
      <trkpt lat="48.998184" lon="8.298352">
        <ele>112.975326</ele>
        <time>2022-01-08T11:58:58.992Z</time>
      </trkpt>
      <trkpt lat="48.998159" lon="8.298911">
        <ele>113.156860</ele>
        <time>2022-01-08T11:59:09.700Z</time>
      </trkpt>
      <trkpt lat="48.997967" lon="8.299421">
        <ele>113.347369</ele>
        <time>2022-01-08T11:59:20.137Z</time>
      </trkpt>
      <trkpt lat="48.997942" lon="8.299599">
        <ele>113.406347</ele>
        <time>2022-01-08T11:59:23.225Z</time>
      </trkpt>
      <trkpt lat="48.997854" lon="8.299772">
        <ele>113.477271</ele>
        <time>2022-01-08T11:59:26.978Z</time>
      </trkpt>
      <trkpt lat="48.999545" lon="8.307651">
        <ele>110.207746</ele>
        <time>2022-01-08T12:01:13.233Z</time>
      </trkpt>
      <trkpt lat="48.999803" lon="8.308907">
        <ele>110.026018</ele>
        <time>2022-01-08T12:01:34.022Z</time>
      </trkpt>
      <trkpt lat="48.999834" lon="8.309042">
        <ele>110.056679</ele>
        <time>2022-01-08T12:01:36.351Z</time>
      </trkpt>
      <trkpt lat="49.000245" lon="8.310507">
        <ele>110.398241</ele>
        <time>2022-01-08T12:02:02.309Z</time>
      </trkpt>
      <trkpt lat="49.000683" lon="8.311649">
        <ele>110.210486</ele>
        <time>2022-01-08T12:02:20.939Z</time>
      </trkpt>
      <trkpt lat="49.000702" lon="8.311706">
        <ele>110.174290</ele>
        <time>2022-01-08T12:02:21.765Z</time>
      </trkpt>
      <trkpt lat="49.000826" lon="8.312009">
        <ele>109.972110</ele>
        <time>2022-01-08T12:02:26.496Z</time>
      </trkpt>
      <trkpt lat="49.000846" lon="8.312060">
        <ele>109.938472</ele>
        <time>2022-01-08T12:02:27.216Z</time>
      </trkpt>
      <trkpt lat="49.000956" lon="8.312350">
        <ele>109.748824</ele>
        <time>2022-01-08T12:02:31.508Z</time>
      </trkpt>
      <trkpt lat="49.000992" lon="8.312458">
        <ele>109.680242</ele>
        <time>2022-01-08T12:02:33.034Z</time>
      </trkpt>
      <trkpt lat="49.001074" lon="8.312943">
        <ele>109.396693</ele>
        <time>2022-01-08T12:02:39.227Z</time>
      </trkpt>
      <trkpt lat="49.001206" lon="8.313150">
        <ele>109.233263</ele>
        <time>2022-01-08T12:02:42.643Z</time>
      </trkpt>
      <trkpt lat="49.002816" lon="8.317474">
        <ele>105.893447</ele>
        <time>2022-01-08T12:03:44.143Z</time>
      </trkpt>
      <trkpt lat="49.002843" lon="8.317540">
        <ele>105.853538</ele>
        <time>2022-01-08T12:03:45.269Z</time>
      </trkpt>
      <trkpt lat="49.002851" lon="8.317565">
        <ele>105.839267</ele>
        <time>2022-01-08T12:03:45.663Z</time>
      </trkpt>
      <trkpt lat="49.003211" lon="8.318558">
        <ele>105.525983</ele>
        <time>2022-01-08T12:04:01.958Z</time>
      </trkpt>
      <trkpt lat="49.003400" lon="8.319048">
        <ele>105.716426</ele>
        <time>2022-01-08T12:04:10.902Z</time>
      </trkpt>
      <trkpt lat="49.003467" lon="8.319223">
        <ele>105.784312</ele>
        <time>2022-01-08T12:04:14.209Z</time>
      </trkpt>
      <trkpt lat="49.003766" lon="8.319999">
        <ele>106.085829</ele>
        <time>2022-01-08T12:04:29.149Z</time>
      </trkpt>
      <trkpt lat="49.004104" lon="8.320873">
        <ele>106.379329</ele>
        <time>2022-01-08T12:04:46.016Z</time>
      </trkpt>
      <trkpt lat="49.004182" lon="8.321073">
        <ele>106.415867</ele>
        <time>2022-01-08T12:04:49.827Z</time>
      </trkpt>
      <trkpt lat="49.004389" lon="8.321463">
        <ele>106.494646</ele>
        <time>2022-01-08T12:04:58.009Z</time>
      </trkpt>
      <trkpt lat="49.004620" lon="8.321972">
        <ele>106.591838</ele>
        <time>2022-01-08T12:05:09.975Z</time>
      </trkpt>
      <trkpt lat="49.004877" lon="8.322028">
        <ele>106.653984</ele>
        <time>2022-01-08T12:05:17.402Z</time>
      </trkpt>
      <trkpt lat="49.005579" lon="8.322373">
        <ele>106.843001</ele>
        <time>2022-01-08T12:05:38.712Z</time>
      </trkpt>
      <trkpt lat="49.005715" lon="8.322434">
        <ele>106.883798</ele>
        <time>2022-01-08T12:05:42.893Z</time>
      </trkpt>
      <trkpt lat="49.005730" lon="8.322525">
        <ele>106.901511</ele>
        <time>2022-01-08T12:05:44.722Z</time>
      </trkpt>
      <trkpt lat="49.006137" lon="8.322718">
        <ele>107.024173</ele>
        <time>2022-01-08T12:05:54.643Z</time>
      </trkpt>
      <trkpt lat="49.006622" lon="8.323040">
        <ele>107.176409</ele>
        <time>2022-01-08T12:06:07.157Z</time>
      </trkpt>
      <trkpt lat="49.006999" lon="8.323505">
        <ele>107.395948</ele>
        <time>2022-01-08T12:06:18.606Z</time>
      </trkpt>
      <trkpt lat="49.007250" lon="8.324170">
        <ele>107.934618</ele>
        <time>2022-01-08T12:06:31.721Z</time>
      </trkpt>
      <trkpt lat="49.007426" lon="8.325685">
        <ele>109.014845</ele>
        <time>2022-01-08T12:06:59.974Z</time>
      </trkpt>
      <trkpt lat="49.007392" lon="8.325943">
        <ele>109.199605</ele>
        <time>2022-01-08T12:07:04.632Z</time>
      </trkpt>
      <trkpt lat="49.007409" lon="8.326011">
        <ele>109.240129</ele>
        <time>2022-01-08T12:07:05.833Z</time>
      </trkpt>
      <trkpt lat="49.007674" lon="8.330192">
        <ele>110.855295</ele>
        <time>2022-01-08T12:08:14.813Z</time>
      </trkpt>
      <trkpt lat="49.007706" lon="8.332684">
        <ele>110.618854</ele>
        <time>2022-01-08T12:08:49.257Z</time>
      </trkpt>
      <trkpt lat="49.007671" lon="8.333301">
        <ele>110.407684</ele>
        <time>2022-01-08T12:08:56.967Z</time>
      </trkpt>
      <trkpt lat="49.007630" lon="8.333521">
        <ele>110.329700</ele>
        <time>2022-01-08T12:08:59.907Z</time>
      </trkpt>
      <trkpt lat="49.007603" lon="8.333606">
        <ele>110.297497</ele>
        <time>2022-01-08T12:09:01.145Z</time>
      </trkpt>
      <trkpt lat="49.007483" lon="8.333886">
        <ele>110.183451</ele>
        <time>2022-01-08T12:09:05.674Z</time>
      </trkpt>
      <trkpt lat="49.007464" lon="8.334422">
        <ele>110.067847</ele>
        <time>2022-01-08T12:09:13.279Z</time>
      </trkpt>
      <trkpt lat="49.007504" lon="8.334501">
        <ele>110.053834</ele>
        <time>2022-01-08T12:09:14.708Z</time>
      </trkpt>
      <trkpt lat="49.007527" lon="8.334549">
        <ele>110.045488</ele>
        <time>2022-01-08T12:09:15.525Z</time>
      </trkpt>
      <trkpt lat="49.007521" lon="8.334668">
        <ele>110.028729</ele>
        <time>2022-01-08T12:09:17.268Z</time>
      </trkpt>
      <trkpt lat="49.007516" lon="8.334809">
        <ele>110.008902</ele>
        <time>2022-01-08T12:09:19.337Z</time>
      </trkpt>
      <trkpt lat="49.007514" lon="8.334890">
        <ele>109.997521</ele>
        <time>2022-01-08T12:09:20.539Z</time>
      </trkpt>
      <trkpt lat="49.007582" lon="8.334889">
        <ele>109.982964</ele>
        <time>2022-01-08T12:09:22.135Z</time>
      </trkpt>
      <trkpt lat="49.007668" lon="8.334887">
        <ele>109.964553</ele>
        <time>2022-01-08T12:09:23.996Z</time>
      </trkpt>
      <trkpt lat="49.007747" lon="8.334894">
        <ele>109.947614</ele>
        <time>2022-01-08T12:09:25.720Z</time>
      </trkpt>
      <trkpt lat="49.007837" lon="8.334931">
        <ele>109.927661</ele>
        <time>2022-01-08T12:09:27.676Z</time>
      </trkpt>
      <trkpt lat="49.007881" lon="8.334958">
        <ele>109.917508</ele>
        <time>2022-01-08T12:09:28.746Z</time>
      </trkpt>
      <trkpt lat="49.008641" lon="8.335273">
        <ele>109.748920</ele>
        <time>2022-01-08T12:09:45.440Z</time>
      </trkpt>
      <trkpt lat="49.009037" lon="8.335639">
        <ele>109.517447</ele>
        <time>2022-01-08T12:09:55.691Z</time>
      </trkpt>
      <trkpt lat="49.009406" lon="8.336100">
        <ele>109.246906</ele>
        <time>2022-01-08T12:10:06.043Z</time>
      </trkpt>
      <trkpt lat="49.009966" lon="8.337060">
        <ele>108.769034</ele>
        <time>2022-01-08T12:10:22.479Z</time>
      </trkpt>
      <trkpt lat="49.010412" lon="8.338273">
        <ele>108.199726</ele>
        <time>2022-01-08T12:10:39.815Z</time>
      </trkpt>
      <trkpt lat="49.010482" lon="8.338508">
        <ele>108.092817</ele>
        <time>2022-01-08T12:10:43.213Z</time>
      </trkpt>
      <trkpt lat="49.011331" lon="8.341178">
        <ele>107.587224</ele>
        <time>2022-01-08T12:11:25.184Z</time>
      </trkpt>
      <trkpt lat="49.011561" lon="8.341678">
        <ele>107.591861</ele>
        <time>2022-01-08T12:11:34.571Z</time>
      </trkpt>
      <trkpt lat="49.011744" lon="8.341991">
        <ele>107.595544</ele>
        <time>2022-01-08T12:11:41.012Z</time>
      </trkpt>
      <trkpt lat="49.012064" lon="8.342329">
        <ele>107.699998</ele>
        <time>2022-01-08T12:11:50.096Z</time>
      </trkpt>
      <trkpt lat="49.013674" lon="8.343577">
        <ele>108.062879</ele>
        <time>2022-01-08T12:12:32.599Z</time>
      </trkpt>
      <trkpt lat="49.013823" lon="8.343710">
        <ele>108.056492</ele>
        <time>2022-01-08T12:12:36.437Z</time>
      </trkpt>
      <trkpt lat="49.014164" lon="8.344064">
        <ele>108.041232</ele>
        <time>2022-01-08T12:12:45.723Z</time>
      </trkpt>
      <trkpt lat="49.014457" lon="8.344524">
        <ele>108.025675</ele>
        <time>2022-01-08T12:12:55.076Z</time>
      </trkpt>
      <trkpt lat="49.014826" lon="8.345381">
        <ele>107.853504</ele>
        <time>2022-01-08T12:13:08.893Z</time>
      </trkpt>
      <trkpt lat="49.014980" lon="8.345788">
        <ele>107.678949</ele>
        <time>2022-01-08T12:13:15.118Z</time>
      </trkpt>
      <trkpt lat="49.015070" lon="8.345773">
        <ele>107.627668</ele>
        <time>2022-01-08T12:13:17.442Z</time>
      </trkpt>
      <trkpt lat="49.015223" lon="8.345809">
        <ele>107.539980</ele>
        <time>2022-01-08T12:13:28.235Z</time>
      </trkpt>
      <trkpt lat="49.015092" lon="8.346603">
        <ele>107.235826</ele>
        <time>2022-01-08T12:13:38.953Z</time>
      </trkpt>
      <trkpt lat="49.015136" lon="8.346607">
        <ele>107.210859</ele>
        <time>2022-01-08T12:13:39.838Z</time>
      </trkpt>
      <trkpt lat="49.015223" lon="8.346613">
        <ele>107.161530</ele>
        <time>2022-01-08T12:13:41.771Z</time>
      </trkpt>
      <trkpt lat="49.015303" lon="8.346619">
        <ele>107.116162</ele>
        <time>2022-01-08T12:13:43.475Z</time>
      </trkpt>
      <trkpt lat="49.015296" lon="8.346698">
        <ele>107.086548</ele>
        <time>2022-01-08T12:13:44.585Z</time>
      </trkpt>
      <trkpt lat="49.015288" lon="8.347026">
        <ele>106.970940</ele>
        <time>2022-01-08T12:13:48.948Z</time>
      </trkpt>
      <trkpt lat="49.015280" lon="8.347261">
        <ele>106.903488</ele>
        <time>2022-01-08T12:13:53.383Z</time>
      </trkpt>
      <trkpt lat="49.015401" lon="8.347259">
        <ele>106.850602</ele>
        <time>2022-01-08T12:13:56.545Z</time>
      </trkpt>
      <trkpt lat="49.015715" lon="8.347238">
        <ele>106.713237</ele>
        <time>2022-01-08T12:14:05.230Z</time>
      </trkpt>
      <trkpt lat="49.015801" lon="8.347190">
        <ele>106.673212</ele>
        <time>2022-01-08T12:14:07.639Z</time>
      </trkpt>
      <trkpt lat="49.015783" lon="8.347119">
        <ele>106.651393</ele>
        <time>2022-01-08T12:14:08.776Z</time>
      </trkpt>
      <trkpt lat="49.016089" lon="8.346995">
        <ele>106.513013</ele>
        <time>2022-01-08T12:14:15.967Z</time>
      </trkpt>
      <trkpt lat="49.016138" lon="8.346975">
        <ele>106.490844</ele>
        <time>2022-01-08T12:14:17.301Z</time>
      </trkpt>
      <trkpt lat="49.018121" lon="8.346598">
        <ele>105.793233</ele>
        <time>2022-01-08T12:15:04.395Z</time>
      </trkpt>
      <trkpt lat="49.019331" lon="8.346151">
        <ele>105.541918</ele>
        <time>2022-01-08T12:15:33.874Z</time>
      </trkpt>
      <trkpt lat="49.019824" lon="8.345896">
        <ele>105.467853</ele>
        <time>2022-01-08T12:15:46.662Z</time>
      </trkpt>
      <trkpt lat="49.020187" lon="8.345614">
        <ele>105.409893</ele>
        <time>2022-01-08T12:15:56.650Z</time>
      </trkpt>
      <trkpt lat="49.020523" lon="8.345130">
        <ele>105.381395</ele>
        <time>2022-01-08T12:16:07.959Z</time>
      </trkpt>
      <trkpt lat="49.020783" lon="8.344859">
        <ele>105.367068</ele>
        <time>2022-01-08T12:16:15.658Z</time>
      </trkpt>
      <trkpt lat="49.021354" lon="8.343662">
        <ele>105.322910</ele>
        <time>2022-01-08T12:16:39.389Z</time>
      </trkpt>
      <trkpt lat="49.021425" lon="8.343227">
        <ele>105.328242</ele>
        <time>2022-01-08T12:16:46.586Z</time>
      </trkpt>
      <trkpt lat="49.021958" lon="8.342121">
        <ele>105.388749</ele>
        <time>2022-01-08T12:17:08.902Z</time>
      </trkpt>
      <trkpt lat="49.022167" lon="8.341906">
        <ele>105.405696</ele>
        <time>2022-01-08T12:17:15.240Z</time>
      </trkpt>
      <trkpt lat="49.022376" lon="8.341514">
        <ele>105.427968</ele>
        <time>2022-01-08T12:17:23.667Z</time>
      </trkpt>
      <trkpt lat="49.022755" lon="8.340445">
        <ele>105.399879</ele>
        <time>2022-01-08T12:17:44.289Z</time>
      </trkpt>
      <trkpt lat="49.023289" lon="8.339236">
        <ele>105.343622</ele>
        <time>2022-01-08T12:18:07.592Z</time>
      </trkpt>
      <trkpt lat="49.023488" lon="8.338634">
        <ele>105.138659</ele>
        <time>2022-01-08T12:18:17.746Z</time>
      </trkpt>
      <trkpt lat="49.023905" lon="8.338468">
        <ele>104.801082</ele>
        <time>2022-01-08T12:18:27.462Z</time>
      </trkpt>
      <trkpt lat="49.024563" lon="8.338371">
        <ele>104.283276</ele>
        <time>2022-01-08T12:18:44.791Z</time>
      </trkpt>
      <trkpt lat="49.024957" lon="8.338424">
        <ele>103.973462</ele>
        <time>2022-01-08T12:18:53.345Z</time>
      </trkpt>
      <trkpt lat="49.025921" lon="8.338353">
        <ele>103.661667</ele>
        <time>2022-01-08T12:19:14.187Z</time>
      </trkpt>
      <trkpt lat="49.026757" lon="8.338369">
        <ele>103.418921</ele>
        <time>2022-01-08T12:19:35.564Z</time>
      </trkpt>
      <trkpt lat="49.027188" lon="8.338281">
        <ele>103.658820</ele>
        <time>2022-01-08T12:19:48.188Z</time>
      </trkpt>
      <trkpt lat="49.027561" lon="8.338090">
        <ele>103.930477</ele>
        <time>2022-01-08T12:19:59.532Z</time>
      </trkpt>
      <trkpt lat="49.027720" lon="8.338059">
        <ele>104.041149</ele>
        <time>2022-01-08T12:20:04.059Z</time>
      </trkpt>
      <trkpt lat="49.027818" lon="8.338134">
        <ele>104.116852</ele>
        <time>2022-01-08T12:20:06.653Z</time>
      </trkpt>
      <trkpt lat="49.027995" lon="8.338425">
        <ele>104.296543</ele>
        <time>2022-01-08T12:20:13.002Z</time>
      </trkpt>
      <trkpt lat="49.028176" lon="8.338930">
        <ele>104.557085</ele>
        <time>2022-01-08T12:20:22.049Z</time>
      </trkpt>
      <trkpt lat="49.028374" lon="8.339247">
        <ele>104.695102</ele>
        <time>2022-01-08T12:20:28.867Z</time>
      </trkpt>
      <trkpt lat="49.028409" lon="8.339304">
        <ele>104.711525</ele>
        <time>2022-01-08T12:20:30.228Z</time>
      </trkpt>
      <trkpt lat="49.028516" lon="8.339039">
        <ele>104.776973</ele>
        <time>2022-01-08T12:20:35.350Z</time>
      </trkpt>
      <trkpt lat="49.028928" lon="8.338474">
        <ele>104.954678</ele>
        <time>2022-01-08T12:20:50.125Z</time>
      </trkpt>
      <trkpt lat="49.030376" lon="8.336237">
        <ele>105.564717</ele>
        <time>2022-01-08T12:21:42.415Z</time>
      </trkpt>
      <trkpt lat="49.030439" lon="8.336190">
        <ele>105.584313</ele>
        <time>2022-01-08T12:21:43.978Z</time>
      </trkpt>
      <trkpt lat="49.030666" lon="8.336272">
        <ele>105.649494</ele>
        <time>2022-01-08T12:21:49.895Z</time>
      </trkpt>
      <trkpt lat="49.030785" lon="8.336222">
        <ele>105.683983</ele>
        <time>2022-01-08T12:21:52.598Z</time>
      </trkpt>
      <trkpt lat="49.030855" lon="8.336102">
        <ele>105.713408</ele>
        <time>2022-01-08T12:21:55.296Z</time>
      </trkpt>
      <trkpt lat="49.031303" lon="8.335585">
        <ele>106.010405</ele>
        <time>2022-01-08T12:22:08.962Z</time>
      </trkpt>
      <trkpt lat="49.031531" lon="8.335180">
        <ele>106.200693</ele>
        <time>2022-01-08T12:22:17.577Z</time>
      </trkpt>
      <trkpt lat="49.031675" lon="8.335080">
        <ele>106.286719</ele>
        <time>2022-01-08T12:22:21.421Z</time>
      </trkpt>
      <trkpt lat="49.031750" lon="8.335140">
        <ele>106.332765</ele>
        <time>2022-01-08T12:22:23.796Z</time>
      </trkpt>
      <trkpt lat="49.031845" lon="8.334977">
        <ele>106.410508</ele>
        <time>2022-01-08T12:22:27.126Z</time>
      </trkpt>
      <trkpt lat="49.032652" lon="8.333875">
        <ele>106.880667</ele>
        <time>2022-01-08T12:22:53.443Z</time>
      </trkpt>
      <trkpt lat="49.032668" lon="8.333854">
        <ele>106.887587</ele>
        <time>2022-01-08T12:22:53.917Z</time>
      </trkpt>
      <trkpt lat="49.033109" lon="8.333373">
        <ele>107.065344</ele>
        <time>2022-01-08T12:23:07.471Z</time>
      </trkpt>
      <trkpt lat="49.033493" lon="8.332954">
        <ele>107.220147</ele>
        <time>2022-01-08T12:23:18.384Z</time>
      </trkpt>
      <trkpt lat="49.033983" lon="8.332520">
        <ele>107.061911</ele>
        <time>2022-01-08T12:23:30.309Z</time>
      </trkpt>
      <trkpt lat="49.034205" lon="8.332391">
        <ele>106.908706</ele>
        <time>2022-01-08T12:23:35.352Z</time>
      </trkpt>
      <trkpt lat="49.034231" lon="8.332364">
        <ele>106.888422</ele>
        <time>2022-01-08T12:23:36.003Z</time>
      </trkpt>
      <trkpt lat="49.034411" lon="8.332075">
        <ele>106.719884</ele>
        <time>2022-01-08T12:23:41.416Z</time>
      </trkpt>
      <trkpt lat="49.034507" lon="8.331876">
        <ele>106.615424</ele>
        <time>2022-01-08T12:23:44.706Z</time>
      </trkpt>
      <trkpt lat="49.034571" lon="8.331744">
        <ele>106.546010</ele>
        <time>2022-01-08T12:23:46.849Z</time>
      </trkpt>
      <trkpt lat="49.034720" lon="8.331258">
        <ele>106.319173</ele>
        <time>2022-01-08T12:23:53.830Z</time>
      </trkpt>
      <trkpt lat="49.035022" lon="8.330478">
        <ele>105.787640</ele>
        <time>2022-01-08T12:24:05.009Z</time>
      </trkpt>
      <trkpt lat="49.035166" lon="8.330327">
        <ele>105.588599</ele>
        <time>2022-01-08T12:24:08.094Z</time>
      </trkpt>
      <trkpt lat="49.035589" lon="8.330285">
        <ele>105.105768</ele>
        <time>2022-01-08T12:24:15.538Z</time>
      </trkpt>
      <trkpt lat="49.035667" lon="8.330281">
        <ele>105.016873</ele>
        <time>2022-01-08T12:24:16.973Z</time>
      </trkpt>
      <trkpt lat="49.035710" lon="8.330279">
        <ele>104.967872</ele>
        <time>2022-01-08T12:24:17.762Z</time>
      </trkpt>
      <trkpt lat="49.035885" lon="8.330256">
        <ele>104.767803</ele>
        <time>2022-01-08T12:24:21.065Z</time>
      </trkpt>
      <trkpt lat="49.035960" lon="8.330237">
        <ele>104.681205</ele>
        <time>2022-01-08T12:24:22.548Z</time>
      </trkpt>
      <trkpt lat="49.036297" lon="8.330131">
        <ele>104.289275</ele>
        <time>2022-01-08T12:24:29.484Z</time>
      </trkpt>
      <trkpt lat="49.036617" lon="8.330192">
        <ele>104.157559</ele>
        <time>2022-01-08T12:24:36.312Z</time>
      </trkpt>
      <trkpt lat="49.036867" lon="8.330411">
        <ele>104.314647</ele>
        <time>2022-01-08T12:24:42.671Z</time>
      </trkpt>
      <trkpt lat="49.036904" lon="8.330457">
        <ele>104.340656</ele>
        <time>2022-01-08T12:24:43.709Z</time>
      </trkpt>
      <trkpt lat="49.036953" lon="8.330512">
        <ele>104.373805</ele>
        <time>2022-01-08T12:24:45.036Z</time>
      </trkpt>
      <trkpt lat="49.036909" lon="8.329268">
        <ele>104.818827</ele>
        <time>2022-01-08T12:25:05.145Z</time>
      </trkpt>
      <trkpt lat="49.036738" lon="8.327421">
        <ele>105.666427</ele>
        <time>2022-01-08T12:25:39.275Z</time>
      </trkpt>
      <trkpt lat="49.036768" lon="8.326378">
        <ele>106.198891</ele>
        <time>2022-01-08T12:25:56.724Z</time>
      </trkpt>
      <trkpt lat="49.037261" lon="8.322050">
        <ele>105.821132</ele>
        <time>2022-01-08T12:26:56.894Z</time>
      </trkpt>
      <trkpt lat="49.037258" lon="8.321906">
        <ele>105.812764</ele>
        <time>2022-01-08T12:26:59.214Z</time>
      </trkpt>
      <trkpt lat="49.037446" lon="8.319890">
        <ele>105.789809</ele>
        <time>2022-01-08T12:27:29.290Z</time>
      </trkpt>
      <trkpt lat="49.037554" lon="8.319159">
        <ele>105.871006</ele>
        <time>2022-01-08T12:27:41.577Z</time>
      </trkpt>
      <trkpt lat="49.037591" lon="8.319040">
        <ele>105.885277</ele>
        <time>2022-01-08T12:27:43.461Z</time>
      </trkpt>
      <trkpt lat="49.037707" lon="8.317837">
        <ele>106.017036</ele>
        <time>2022-01-08T12:28:01.259Z</time>
      </trkpt>
      <trkpt lat="49.037724" lon="8.317670">
        <ele>106.019011</ele>
        <time>2022-01-08T12:28:03.868Z</time>
      </trkpt>
      <trkpt lat="49.037732" lon="8.317139">
        <ele>105.985199</ele>
        <time>2022-01-08T12:28:11.233Z</time>
      </trkpt>
      <trkpt lat="49.037734" lon="8.317107">
        <ele>105.983153</ele>
        <time>2022-01-08T12:28:11.729Z</time>
      </trkpt>
      <trkpt lat="49.037805" lon="8.316455">
        <ele>105.941079</ele>
        <time>2022-01-08T12:28:20.924Z</time>
      </trkpt>
      <trkpt lat="49.037806" lon="8.315356">
        <ele>105.871118</ele>
        <time>2022-01-08T12:28:37.330Z</time>
      </trkpt>
      <trkpt lat="49.037794" lon="8.315099">
        <ele>105.854717</ele>
        <time>2022-01-08T12:28:41.094Z</time>
      </trkpt>
      <trkpt lat="49.037653" lon="8.313679">
        <ele>105.972280</ele>
        <time>2022-01-08T12:29:00.462Z</time>
      </trkpt>
      <trkpt lat="49.037363" lon="8.312214">
        <ele>106.213428</ele>
        <time>2022-01-08T12:29:24.886Z</time>
      </trkpt>
      <trkpt lat="49.037225" lon="8.311746">
        <ele>106.606138</ele>
        <time>2022-01-08T12:29:34.045Z</time>
      </trkpt>
      <trkpt lat="49.037148" lon="8.311413">
        <ele>106.876362</ele>
        <time>2022-01-08T12:29:40.336Z</time>
      </trkpt>
      <trkpt lat="49.036844" lon="8.309927">
        <ele>108.067648</ele>
        <time>2022-01-08T12:30:08.547Z</time>
      </trkpt>
      <trkpt lat="49.036710" lon="8.308854">
        <ele>108.345260</ele>
        <time>2022-01-08T12:30:27.901Z</time>
      </trkpt>
      <trkpt lat="49.036662" lon="8.307910">
        <ele>108.499394</ele>
        <time>2022-01-08T12:30:42.493Z</time>
      </trkpt>
      <trkpt lat="49.036734" lon="8.306587">
        <ele>108.238248</ele>
        <time>2022-01-08T12:30:59.747Z</time>
      </trkpt>
      <trkpt lat="49.036819" lon="8.306275">
        <ele>107.940735</ele>
        <time>2022-01-08T12:31:03.838Z</time>
      </trkpt>
      <trkpt lat="49.036801" lon="8.305718">
        <ele>107.449669</ele>
        <time>2022-01-08T12:31:10.496Z</time>
      </trkpt>
      <trkpt lat="49.036841" lon="8.305420">
        <ele>107.181819</ele>
        <time>2022-01-08T12:31:14.108Z</time>
      </trkpt>
      <trkpt lat="49.037336" lon="8.301448">
        <ele>104.203955</ele>
        <time>2022-01-08T12:32:02.754Z</time>
      </trkpt>
      <trkpt lat="49.037366" lon="8.301197">
        <ele>104.422122</ele>
        <time>2022-01-08T12:32:07.110Z</time>
      </trkpt>
      <trkpt lat="49.037641" lon="8.299009">
        <ele>106.327134</ele>
        <time>2022-01-08T12:32:51.098Z</time>
      </trkpt>
      <trkpt lat="49.037810" lon="8.298051">
        <ele>106.765737</ele>
        <time>2022-01-08T12:33:36.278Z</time>
      </trkpt>
      <trkpt lat="49.037969" lon="8.298088">
        <ele>106.869095</ele>
        <time>2022-01-08T12:33:47.481Z</time>
      </trkpt>
      <trkpt lat="49.037984" lon="8.298061">
        <ele>106.884005</ele>
        <time>2022-01-08T12:33:48.033Z</time>
      </trkpt>
      <trkpt lat="49.038177" lon="8.298186">
        <ele>107.018747</ele>
        <time>2022-01-08T12:33:53.177Z</time>
      </trkpt>
      <trkpt lat="49.038274" lon="8.298109">
        <ele>107.089016</ele>
        <time>2022-01-08T12:33:55.711Z</time>
      </trkpt>
      <trkpt lat="49.038384" lon="8.297778">
        <ele>107.245351</ele>
        <time>2022-01-08T12:34:01.074Z</time>
      </trkpt>
      <trkpt lat="49.038486" lon="8.297325">
        <ele>107.447130</ele>
        <time>2022-01-08T12:34:07.424Z</time>
      </trkpt>
      <trkpt lat="49.038607" lon="8.296889">
        <ele>107.458547</ele>
        <time>2022-01-08T12:34:13.668Z</time>
      </trkpt>
      <trkpt lat="49.039318" lon="8.294351">
        <ele>106.854307</ele>
        <time>2022-01-08T12:34:51.813Z</time>
      </trkpt>
      <trkpt lat="49.039570" lon="8.294218">
        <ele>106.779704</ele>
        <time>2022-01-08T12:34:57.826Z</time>
      </trkpt>
      <trkpt lat="49.039595" lon="8.294145">
        <ele>106.764598</ele>
        <time>2022-01-08T12:34:58.999Z</time>
      </trkpt>
      <trkpt lat="49.039481" lon="8.293764">
        <ele>106.687787</ele>
        <time>2022-01-08T12:35:05.053Z</time>
      </trkpt>
      <trkpt lat="49.039548" lon="8.293353">
        <ele>106.610113</ele>
        <time>2022-01-08T12:35:11.025Z</time>
      </trkpt>
      <trkpt lat="49.040182" lon="8.292116">
        <ele>106.214269</ele>
        <time>2022-01-08T12:35:32.466Z</time>
      </trkpt>
      <trkpt lat="49.040359" lon="8.291529">
        <ele>105.946178</ele>
        <time>2022-01-08T12:35:41.093Z</time>
      </trkpt>
      <trkpt lat="49.040366" lon="8.290963">
        <ele>105.711291</ele>
        <time>2022-01-08T12:35:48.584Z</time>
      </trkpt>
      <trkpt lat="49.040514" lon="8.290815">
        <ele>105.599279</ele>
        <time>2022-01-08T12:35:52.092Z</time>
      </trkpt>
      <trkpt lat="49.040528" lon="8.290717">
        <ele>105.557663</ele>
        <time>2022-01-08T12:35:53.440Z</time>
      </trkpt>
      <trkpt lat="49.040561" lon="8.290620">
        <ele>105.512318</ele>
        <time>2022-01-08T12:35:54.896Z</time>
      </trkpt>
      <trkpt lat="49.040582" lon="8.290575">
        <ele>105.489399</ele>
        <time>2022-01-08T12:35:55.632Z</time>
      </trkpt>
      <trkpt lat="49.040495" lon="8.290430">
        <ele>105.407839</ele>
        <time>2022-01-08T12:35:58.138Z</time>
      </trkpt>
      <trkpt lat="49.040445" lon="8.290160">
        <ele>105.291426</ele>
        <time>2022-01-08T12:36:01.791Z</time>
      </trkpt>
      <trkpt lat="49.040435" lon="8.289046">
        <ele>104.784980</ele>
        <time>2022-01-08T12:36:15.938Z</time>
      </trkpt>
      <trkpt lat="49.040583" lon="8.288276">
        <ele>104.418607</ele>
        <time>2022-01-08T12:36:26.400Z</time>
      </trkpt>
      <trkpt lat="49.040689" lon="8.287524">
        <ele>104.067407</ele>
        <time>2022-01-08T12:36:36.554Z</time>
      </trkpt>
      <trkpt lat="49.040782" lon="8.287370">
        <ele>104.024592</ele>
        <time>2022-01-08T12:36:39.684Z</time>
      </trkpt>
      <trkpt lat="49.040807" lon="8.287221">
        <ele>104.037639</ele>
        <time>2022-01-08T12:36:41.696Z</time>
      </trkpt>
      <trkpt lat="49.040817" lon="8.287124">
        <ele>104.045969</ele>
        <time>2022-01-08T12:36:42.921Z</time>
      </trkpt>
      <trkpt lat="49.040782" lon="8.286712">
        <ele>104.081213</ele>
        <time>2022-01-08T12:36:48.909Z</time>
      </trkpt>
      <trkpt lat="49.040921" lon="8.285290">
        <ele>104.203179</ele>
        <time>2022-01-08T12:37:10.437Z</time>
      </trkpt>
      <trkpt lat="49.040967" lon="8.285137">
        <ele>104.217458</ele>
        <time>2022-01-08T12:37:13.452Z</time>
      </trkpt>
      <trkpt lat="49.040935" lon="8.285112">
        <ele>104.222111</ele>
        <time>2022-01-08T12:37:14.253Z</time>
      </trkpt>
      <trkpt lat="49.040882" lon="8.285067">
        <ele>104.229960</ele>
        <time>2022-01-08T12:37:15.588Z</time>
      </trkpt>
      <trkpt lat="49.040857" lon="8.285024">
        <ele>104.234836</ele>
        <time>2022-01-08T12:37:16.591Z</time>
      </trkpt>
      <trkpt lat="49.040995" lon="8.284714">
        <ele>104.284804</ele>
        <time>2022-01-08T12:37:23.169Z</time>
      </trkpt>
      <trkpt lat="49.041334" lon="8.284269">
        <ele>104.402675</ele>
        <time>2022-01-08T12:37:34.070Z</time>
      </trkpt>
      <trkpt lat="49.041598" lon="8.283949">
        <ele>104.491545</ele>
        <time>2022-01-08T12:37:42.279Z</time>
      </trkpt>
      <trkpt lat="49.041826" lon="8.283543">
        <ele>104.583908</ele>
        <time>2022-01-08T12:37:50.755Z</time>
      </trkpt>
      <trkpt lat="49.042420" lon="8.281351">
        <ele>103.853322</ele>
        <time>2022-01-08T12:38:23.026Z</time>
      </trkpt>
      <trkpt lat="49.042757" lon="8.280401">
        <ele>103.253360</ele>
        <time>2022-01-08T12:38:36.004Z</time>
      </trkpt>
      <trkpt lat="49.043906" lon="8.278075">
        <ele>101.574693</ele>
        <time>2022-01-08T12:39:12.127Z</time>
      </trkpt>
      <trkpt lat="49.045006" lon="8.275602">
        <ele>103.279390</ele>
        <time>2022-01-08T12:40:05.179Z</time>
      </trkpt>
      <trkpt lat="49.045038" lon="8.275524">
        <ele>103.332379</ele>
        <time>2022-01-08T12:40:06.849Z</time>
      </trkpt>
      <trkpt lat="49.045823" lon="8.273829">
        <ele>104.527501</ele>
        <time>2022-01-08T12:40:42.758Z</time>
      </trkpt>
      <trkpt lat="49.046150" lon="8.273037">
        <ele>104.662693</ele>
        <time>2022-01-08T12:40:56.570Z</time>
      </trkpt>
      <trkpt lat="49.046256" lon="8.272798">
        <ele>104.656192</ele>
        <time>2022-01-08T12:41:01.907Z</time>
      </trkpt>
      <trkpt lat="49.046300" lon="8.272840">
        <ele>104.654408</ele>
        <time>2022-01-08T12:41:03.153Z</time>
      </trkpt>
      <trkpt lat="49.046381" lon="8.272915">
        <ele>104.651151</ele>
        <time>2022-01-08T12:41:05.394Z</time>
      </trkpt>
      <trkpt lat="49.046485" lon="8.272674">
        <ele>104.644651</ele>
        <time>2022-01-08T12:41:09.462Z</time>
      </trkpt>
      <trkpt lat="49.046717" lon="8.272547">
        <ele>104.636179</ele>
        <time>2022-01-08T12:41:14.930Z</time>
      </trkpt>
      <trkpt lat="49.046812" lon="8.272402">
        <ele>104.631560</ele>
        <time>2022-01-08T12:41:17.731Z</time>
      </trkpt>
      <trkpt lat="49.046838" lon="8.272248">
        <ele>104.627977</ele>
        <time>2022-01-08T12:41:20.035Z</time>
      </trkpt>
      <trkpt lat="49.046951" lon="8.272077">
        <ele>104.622507</ele>
        <time>2022-01-08T12:41:23.252Z</time>
      </trkpt>
      <trkpt lat="49.047152" lon="8.271802">
        <ele>104.673271</ele>
        <time>2022-01-08T12:41:29.429Z</time>
      </trkpt>
      <trkpt lat="49.047353" lon="8.271548">
        <ele>104.853455</ele>
        <time>2022-01-08T12:41:35.500Z</time>
      </trkpt>
      <trkpt lat="49.047639" lon="8.271174">
        <ele>105.113507</ele>
        <time>2022-01-08T12:41:45.047Z</time>
      </trkpt>
      <trkpt lat="49.047988" lon="8.271275">
        <ele>105.358746</ele>
        <time>2022-01-08T12:41:54.333Z</time>
      </trkpt>
      <trkpt lat="49.047996" lon="8.271407">
        <ele>105.418730</ele>
        <time>2022-01-08T12:41:56.694Z</time>
      </trkpt>
      <trkpt lat="49.048426" lon="8.271501">
        <ele>105.718627</ele>
        <time>2022-01-08T12:42:08.836Z</time>
      </trkpt>
      <trkpt lat="49.049269" lon="8.271307">
        <ele>105.982515</ele>
        <time>2022-01-08T12:42:31.191Z</time>
      </trkpt>
      <trkpt lat="49.049847" lon="8.271398">
        <ele>106.093824</ele>
        <time>2022-01-08T12:42:44.210Z</time>
      </trkpt>
      <trkpt lat="49.050438" lon="8.271544">
        <ele>106.185975</ele>
        <time>2022-01-08T12:42:56.265Z</time>
      </trkpt>
      <trkpt lat="49.050734" lon="8.271505">
        <ele>106.033849</ele>
        <time>2022-01-08T12:43:02.147Z</time>
      </trkpt>
      <trkpt lat="49.051345" lon="8.271344">
        <ele>105.716366</ele>
        <time>2022-01-08T12:43:18.944Z</time>
      </trkpt>
      <trkpt lat="49.051419" lon="8.271268">
        <ele>105.670692</ele>
        <time>2022-01-08T12:43:20.791Z</time>
      </trkpt>
      <trkpt lat="49.051503" lon="8.271165">
        <ele>105.615514</ele>
        <time>2022-01-08T12:43:23.135Z</time>
      </trkpt>
      <trkpt lat="49.051539" lon="8.271113">
        <ele>105.590131</ele>
        <time>2022-01-08T12:43:24.197Z</time>
      </trkpt>
      <trkpt lat="49.051717" lon="8.270879">
        <ele>105.469828</ele>
        <time>2022-01-08T12:43:29.158Z</time>
      </trkpt>
      <trkpt lat="49.051881" lon="8.270820">
        <ele>105.383552</ele>
        <time>2022-01-08T12:43:32.858Z</time>
      </trkpt>
      <trkpt lat="49.052017" lon="8.270749">
        <ele>105.309952</ele>
        <time>2022-01-08T12:43:35.895Z</time>
      </trkpt>
      <trkpt lat="49.052440" lon="8.270645">
        <ele>105.385865</ele>
        <time>2022-01-08T12:43:45.506Z</time>
      </trkpt>
      <trkpt lat="49.052545" lon="8.270764">
        <ele>105.422520</ele>
        <time>2022-01-08T12:43:48.759Z</time>
      </trkpt>
      <trkpt lat="49.052560" lon="8.270899">
        <ele>105.447669</ele>
        <time>2022-01-08T12:43:51.008Z</time>
      </trkpt>
      <trkpt lat="49.052626" lon="8.270904">
        <ele>105.466188</ele>
        <time>2022-01-08T12:43:52.920Z</time>
      </trkpt>
      <trkpt lat="49.052662" lon="8.270921">
        <ele>105.476749</ele>
        <time>2022-01-08T12:43:54.078Z</time>
      </trkpt>
      <trkpt lat="49.052932" lon="8.270900">
        <ele>105.552515</ele>
        <time>2022-01-08T12:44:02.846Z</time>
      </trkpt>
      <trkpt lat="49.053060" lon="8.270888">
        <ele>105.588454</ele>
        <time>2022-01-08T12:44:05.960Z</time>
      </trkpt>
      <trkpt lat="49.053150" lon="8.271108">
        <ele>105.636087</ele>
        <time>2022-01-08T12:44:10.441Z</time>
      </trkpt>
      <trkpt lat="49.053248" lon="8.271237">
        <ele>105.672358</ele>
        <time>2022-01-08T12:44:13.678Z</time>
      </trkpt>
      <trkpt lat="49.053337" lon="8.271259">
        <ele>105.697626</ele>
        <time>2022-01-08T12:44:16.010Z</time>
      </trkpt>
      <trkpt lat="49.054627" lon="8.271260">
        <ele>105.646537</ele>
        <time>2022-01-08T12:44:45.432Z</time>
      </trkpt>
      <trkpt lat="49.054746" lon="8.271107">
        <ele>105.624396</ele>
        <time>2022-01-08T12:44:49.184Z</time>
      </trkpt>
      <trkpt lat="49.054964" lon="8.271162">
        <ele>105.592956</ele>
        <time>2022-01-08T12:44:53.666Z</time>
      </trkpt>
      <trkpt lat="49.055411" lon="8.271173">
        <ele>105.528515</ele>
        <time>2022-01-08T12:45:02.765Z</time>
      </trkpt>
      <trkpt lat="49.055467" lon="8.270915">
        <ele>105.404170</ele>
        <time>2022-01-08T12:45:06.188Z</time>
      </trkpt>
      <trkpt lat="49.055536" lon="8.270771">
        <ele>105.322556</ele>
        <time>2022-01-08T12:45:08.308Z</time>
      </trkpt>
      <trkpt lat="49.055509" lon="8.270625">
        <ele>105.253150</ele>
        <time>2022-01-08T12:45:10.288Z</time>
      </trkpt>
      <trkpt lat="49.055210" lon="8.270669">
        <ele>105.043437</ele>
        <time>2022-01-08T12:45:15.870Z</time>
      </trkpt>
      <trkpt lat="49.055160" lon="8.270519">
        <ele>104.966442</ele>
        <time>2022-01-08T12:45:18.152Z</time>
      </trkpt>
      <trkpt lat="49.055764" lon="8.270350">
        <ele>104.537734</ele>
        <time>2022-01-08T12:45:30.154Z</time>
      </trkpt>
      <trkpt lat="49.056214" lon="8.270304">
        <ele>104.308760</ele>
        <time>2022-01-08T12:45:39.934Z</time>
      </trkpt>
      <trkpt lat="49.056478" lon="8.270513">
        <ele>104.450940</ele>
        <time>2022-01-08T12:45:46.386Z</time>
      </trkpt>
      <trkpt lat="49.056712" lon="8.270701">
        <ele>104.577363</ele>
        <time>2022-01-08T12:45:52.354Z</time>
      </trkpt>
      <trkpt lat="49.058948" lon="8.272383">
        <ele>105.773801</ele>
        <time>2022-01-08T12:46:55.834Z</time>
      </trkpt>
      <trkpt lat="49.059667" lon="8.273038">
        <ele>105.786289</ele>
        <time>2022-01-08T12:47:13.987Z</time>
      </trkpt>
      <trkpt lat="49.060068" lon="8.273981">
        <ele>105.358547</ele>
        <time>2022-01-08T12:47:28.722Z</time>
      </trkpt>
      <trkpt lat="49.060174" lon="8.274120">
        <ele>105.277393</ele>
        <time>2022-01-08T12:47:31.350Z</time>
      </trkpt>
      <trkpt lat="49.060281" lon="8.274162">
        <ele>105.213239</ele>
        <time>2022-01-08T12:47:33.514Z</time>
      </trkpt>
      <trkpt lat="49.061316" lon="8.274294">
        <ele>104.629444</ele>
        <time>2022-01-08T12:47:54.148Z</time>
      </trkpt>
      <trkpt lat="49.061919" lon="8.274515">
        <ele>104.289465</ele>
        <time>2022-01-08T12:48:06.837Z</time>
      </trkpt>
      <trkpt lat="49.062539" lon="8.274839">
        <ele>103.930734</ele>
        <time>2022-01-08T12:48:20.922Z</time>
      </trkpt>
      <trkpt lat="49.062820" lon="8.275149">
        <ele>103.743278</ele>
        <time>2022-01-08T12:48:28.122Z</time>
      </trkpt>
      <trkpt lat="49.062793" lon="8.275519">
        <ele>103.611396</ele>
        <time>2022-01-08T12:48:33.102Z</time>
      </trkpt>
      <trkpt lat="49.062851" lon="8.275806">
        <ele>103.505001</ele>
        <time>2022-01-08T12:48:37.088Z</time>
      </trkpt>
      <trkpt lat="49.063415" lon="8.276171">
        <ele>103.173796</ele>
        <time>2022-01-08T12:48:49.648Z</time>
      </trkpt>
      <trkpt lat="49.063401" lon="8.276262">
        <ele>103.140684</ele>
        <time>2022-01-08T12:48:50.850Z</time>
      </trkpt>
      <trkpt lat="49.063339" lon="8.276879">
        <ele>102.894205</ele>
        <time>2022-01-08T12:48:58.995Z</time>
      </trkpt>
      <trkpt lat="49.063333" lon="8.276962">
        <ele>102.854938</ele>
        <time>2022-01-08T12:49:00.071Z</time>
      </trkpt>
      <trkpt lat="49.064389" lon="8.277579">
        <ele>102.043421</ele>
        <time>2022-01-08T12:49:22.195Z</time>
      </trkpt>
      <trkpt lat="49.064563" lon="8.277755">
        <ele>101.893609</ele>
        <time>2022-01-08T12:49:26.277Z</time>
      </trkpt>
      <trkpt lat="49.065374" lon="8.278975">
        <ele>101.616754</ele>
        <time>2022-01-08T12:49:50.405Z</time>
      </trkpt>
      <trkpt lat="49.065978" lon="8.279562">
        <ele>101.543824</ele>
        <time>2022-01-08T12:50:06.748Z</time>
      </trkpt>
      <trkpt lat="49.066125" lon="8.279771">
        <ele>101.523363</ele>
        <time>2022-01-08T12:50:11.412Z</time>
      </trkpt>
      <trkpt lat="49.066422" lon="8.280425">
        <ele>101.540747</ele>
        <time>2022-01-08T12:50:23.407Z</time>
      </trkpt>
      <trkpt lat="49.066695" lon="8.281398">
        <ele>101.564634</ele>
        <time>2022-01-08T12:50:39.226Z</time>
      </trkpt>
      <trkpt lat="49.067642" lon="8.283475">
        <ele>101.297868</ele>
        <time>2022-01-08T12:51:15.019Z</time>
      </trkpt>
      <trkpt lat="49.068202" lon="8.284491">
        <ele>101.080965</ele>
        <time>2022-01-08T12:51:32.873Z</time>
      </trkpt>
      <trkpt lat="49.068575" lon="8.285002">
        <ele>101.004971</ele>
        <time>2022-01-08T12:51:43.478Z</time>
      </trkpt>
      <trkpt lat="49.068852" lon="8.285272">
        <ele>100.955139</ele>
        <time>2022-01-08T12:51:50.652Z</time>
      </trkpt>
      <trkpt lat="49.068914" lon="8.285407">
        <ele>100.938762</ele>
        <time>2022-01-08T12:51:52.809Z</time>
      </trkpt>
      <trkpt lat="49.068966" lon="8.285530">
        <ele>100.924220</ele>
        <time>2022-01-08T12:51:55.019Z</time>
      </trkpt>
      <trkpt lat="49.069129" lon="8.285445">
        <ele>100.898104</ele>
        <time>2022-01-08T12:51:58.873Z</time>
      </trkpt>
      <trkpt lat="49.069709" lon="8.286120">
        <ele>100.903803</ele>
        <time>2022-01-08T12:52:15.019Z</time>
      </trkpt>
      <trkpt lat="49.071014" lon="8.288120">
        <ele>101.437630</ele>
        <time>2022-01-08T12:52:58.879Z</time>
      </trkpt>
      <trkpt lat="49.071187" lon="8.288244">
        <ele>101.512084</ele>
        <time>2022-01-08T12:53:03.461Z</time>
      </trkpt>
      <trkpt lat="49.071742" lon="8.289200">
        <ele>101.838077</ele>
        <time>2022-01-08T12:53:23.512Z</time>
      </trkpt>
      <trkpt lat="49.072418" lon="8.290536">
        <ele>102.134463</ele>
        <time>2022-01-08T12:53:49.321Z</time>
      </trkpt>
      <trkpt lat="49.073063" lon="8.291591">
        <ele>102.311257</ele>
        <time>2022-01-08T12:54:11.821Z</time>
      </trkpt>
      <trkpt lat="49.073923" lon="8.292844">
        <ele>101.994784</ele>
        <time>2022-01-08T12:54:36.215Z</time>
      </trkpt>
      <trkpt lat="49.074814" lon="8.294113">
        <ele>101.762551</ele>
        <time>2022-01-08T12:55:01.931Z</time>
      </trkpt>
      <trkpt lat="49.074847" lon="8.294162">
        <ele>101.767967</ele>
        <time>2022-01-08T12:55:03.070Z</time>
      </trkpt>
      <trkpt lat="49.075395" lon="8.295004">
        <ele>101.859440</ele>
        <time>2022-01-08T12:55:20.105Z</time>
      </trkpt>
      <trkpt lat="49.075834" lon="8.295881">
        <ele>102.049905</ele>
        <time>2022-01-08T12:55:38.156Z</time>
      </trkpt>
      <trkpt lat="49.076533" lon="8.297516">
        <ele>103.007072</ele>
        <time>2022-01-08T12:56:10.467Z</time>
      </trkpt>
      <trkpt lat="49.076628" lon="8.297961">
        <ele>103.236525</ele>
        <time>2022-01-08T12:56:18.066Z</time>
      </trkpt>
      <trkpt lat="49.077095" lon="8.299189">
        <ele>104.369997</ele>
        <time>2022-01-08T12:56:42.118Z</time>
      </trkpt>
      <trkpt lat="49.077980" lon="8.301932">
        <ele>106.944358</ele>
        <time>2022-01-08T12:57:39.962Z</time>
      </trkpt>
      <trkpt lat="49.078537" lon="8.303659">
        <ele>108.038529</ele>
        <time>2022-01-08T12:58:12.445Z</time>
      </trkpt>
      <trkpt lat="49.078788" lon="8.305042">
        <ele>108.304904</ele>
        <time>2022-01-08T12:58:33.189Z</time>
      </trkpt>
      <trkpt lat="49.078830" lon="8.306121">
        <ele>108.616841</ele>
        <time>2022-01-08T12:58:48.507Z</time>
      </trkpt>
      <trkpt lat="49.078685" lon="8.307710">
        <ele>109.207020</ele>
        <time>2022-01-08T12:59:14.269Z</time>
      </trkpt>
      <trkpt lat="49.078563" lon="8.308335">
        <ele>109.486869</ele>
        <time>2022-01-08T12:59:25.783Z</time>
      </trkpt>
      <trkpt lat="49.078395" lon="8.308930">
        <ele>109.938537</ele>
        <time>2022-01-08T12:59:37.674Z</time>
      </trkpt>
      <trkpt lat="49.078165" lon="8.309486">
        <ele>110.396947</ele>
        <time>2022-01-08T12:59:49.785Z</time>
      </trkpt>
      <trkpt lat="49.077660" lon="8.311382">
        <ele>111.073102</ele>
        <time>2022-01-08T13:00:24.336Z</time>
      </trkpt>
      <trkpt lat="49.077436" lon="8.311899">
        <ele>110.865786</ele>
        <time>2022-01-08T13:00:33.006Z</time>
      </trkpt>
      <trkpt lat="49.077129" lon="8.312435">
        <ele>110.627653</ele>
        <time>2022-01-08T13:00:41.641Z</time>
      </trkpt>
      <trkpt lat="49.076449" lon="8.313301">
        <ele>109.757983</ele>
        <time>2022-01-08T13:00:57.905Z</time>
      </trkpt>
      <trkpt lat="49.076198" lon="8.313515">
        <ele>109.335879</ele>
        <time>2022-01-08T13:01:02.970Z</time>
      </trkpt>
      <trkpt lat="49.075764" lon="8.313796">
        <ele>108.643724</ele>
        <time>2022-01-08T13:01:11.624Z</time>
      </trkpt>
      <trkpt lat="49.075201" lon="8.314045">
        <ele>107.783119</ele>
        <time>2022-01-08T13:01:22.189Z</time>
      </trkpt>
      <trkpt lat="49.073901" lon="8.314409">
        <ele>107.309891</ele>
        <time>2022-01-08T13:01:49.549Z</time>
      </trkpt>
      <trkpt lat="49.073300" lon="8.314585">
        <ele>107.315124</ele>
        <time>2022-01-08T13:02:03.255Z</time>
      </trkpt>
      <trkpt lat="49.073163" lon="8.314717">
        <ele>107.556449</ele>
        <time>2022-01-08T13:02:07.267Z</time>
      </trkpt>
      <trkpt lat="49.073145" lon="8.314841">
        <ele>107.680387</ele>
        <time>2022-01-08T13:02:09.266Z</time>
      </trkpt>
      <trkpt lat="49.073393" lon="8.316529">
        <ele>109.368494</ele>
        <time>2022-01-08T13:02:42.935Z</time>
      </trkpt>
      <trkpt lat="49.073400" lon="8.316954">
        <ele>109.783349</ele>
        <time>2022-01-08T13:02:51.780Z</time>
      </trkpt>
      <trkpt lat="49.073296" lon="8.317185">
        <ele>109.925557</ele>
        <time>2022-01-08T13:02:57.154Z</time>
      </trkpt>
      <trkpt lat="49.073481" lon="8.318388">
        <ele>110.464401</ele>
        <time>2022-01-08T13:03:20.941Z</time>
      </trkpt>
      <trkpt lat="49.074312" lon="8.323698">
        <ele>108.968098</ele>
        <time>2022-01-08T13:04:32.365Z</time>
      </trkpt>
      <trkpt lat="49.075147" lon="8.324825">
        <ele>108.147692</ele>
        <time>2022-01-08T13:04:53.752Z</time>
      </trkpt>
      <trkpt lat="49.075495" lon="8.325159">
        <ele>107.980477</ele>
        <time>2022-01-08T13:05:02.290Z</time>
      </trkpt>
      <trkpt lat="49.076903" lon="8.325717">
        <ele>107.394395</ele>
        <time>2022-01-08T13:05:33.750Z</time>
      </trkpt>
      <trkpt lat="49.078435" lon="8.326171">
        <ele>106.753607</ele>
        <time>2022-01-08T13:06:06.253Z</time>
      </trkpt>
      <trkpt lat="49.078926" lon="8.326193">
        <ele>106.389721</ele>
        <time>2022-01-08T13:06:15.716Z</time>
      </trkpt>
      <trkpt lat="49.079729" lon="8.326448">
        <ele>105.782132</ele>
        <time>2022-01-08T13:06:31.678Z</time>
      </trkpt>
      <trkpt lat="49.080542" lon="8.326983">
        <ele>105.401942</ele>
        <time>2022-01-08T13:06:50.056Z</time>
      </trkpt>
      <trkpt lat="49.080932" lon="8.327355">
        <ele>105.319438</ele>
        <time>2022-01-08T13:07:00.710Z</time>
      </trkpt>
      <trkpt lat="49.081290" lon="8.327773">
        <ele>105.238579</ele>
        <time>2022-01-08T13:07:10.589Z</time>
      </trkpt>
      <trkpt lat="49.081530" lon="8.328266">
        <ele>105.165038</ele>
        <time>2022-01-08T13:07:19.224Z</time>
      </trkpt>
      <trkpt lat="49.081648" lon="8.328506">
        <ele>105.078768</ele>
        <time>2022-01-08T13:07:23.433Z</time>
      </trkpt>
      <trkpt lat="49.081678" lon="8.328559">
        <ele>105.058630</ele>
        <time>2022-01-08T13:07:24.366Z</time>
      </trkpt>
      <trkpt lat="49.081733" lon="8.328654">
        <ele>105.022180</ele>
        <time>2022-01-08T13:07:26.094Z</time>
      </trkpt>
      <trkpt lat="49.081952" lon="8.329009">
        <ele>104.881987</ele>
        <time>2022-01-08T13:07:32.687Z</time>
      </trkpt>
      <trkpt lat="49.082074" lon="8.329116">
        <ele>104.820234</ele>
        <time>2022-01-08T13:07:35.733Z</time>
      </trkpt>
      <trkpt lat="49.082203" lon="8.329391">
        <ele>104.722994</ele>
        <time>2022-01-08T13:07:40.170Z</time>
      </trkpt>
      <trkpt lat="49.082792" lon="8.330643">
        <ele>104.436676</ele>
        <time>2022-01-08T13:08:00.843Z</time>
      </trkpt>
      <trkpt lat="49.082897" lon="8.331035">
        <ele>104.509669</ele>
        <time>2022-01-08T13:08:06.556Z</time>
      </trkpt>
      <trkpt lat="49.083020" lon="8.331863">
        <ele>104.656000</ele>
        <time>2022-01-08T13:08:18.991Z</time>
      </trkpt>
      <trkpt lat="49.083302" lon="8.334414">
        <ele>105.642222</ele>
        <time>2022-01-08T13:09:03.391Z</time>
      </trkpt>
      <trkpt lat="49.083441" lon="8.335015">
        <ele>105.988851</ele>
        <time>2022-01-08T13:09:14.137Z</time>
      </trkpt>
      <trkpt lat="49.083656" lon="8.335510">
        <ele>106.311868</ele>
        <time>2022-01-08T13:09:23.776Z</time>
      </trkpt>
      <trkpt lat="49.084068" lon="8.336140">
        <ele>106.474612</ele>
        <time>2022-01-08T13:09:37.634Z</time>
      </trkpt>
      <trkpt lat="49.084615" lon="8.336572">
        <ele>106.621807</ele>
        <time>2022-01-08T13:09:51.478Z</time>
      </trkpt>
      <trkpt lat="49.084954" lon="8.336695">
        <ele>106.705088</ele>
        <time>2022-01-08T13:09:59.161Z</time>
      </trkpt>
      <trkpt lat="49.086466" lon="8.336964">
        <ele>107.285992</ele>
        <time>2022-01-08T13:10:34.229Z</time>
      </trkpt>
      <trkpt lat="49.086743" lon="8.337013">
        <ele>107.401797</ele>
        <time>2022-01-08T13:10:40.899Z</time>
      </trkpt>
      <trkpt lat="49.086775" lon="8.337076">
        <ele>107.423481</ele>
        <time>2022-01-08T13:10:42.355Z</time>
      </trkpt>
      <trkpt lat="49.089245" lon="8.341621">
        <ele>111.041097</ele>
        <time>2022-01-08T13:12:25.209Z</time>
      </trkpt>
      <trkpt lat="49.089432" lon="8.341833">
        <ele>110.761871</ele>
        <time>2022-01-08T13:12:30.470Z</time>
      </trkpt>
      <trkpt lat="49.089890" lon="8.342115">
        <ele>110.169821</ele>
        <time>2022-01-08T13:12:40.916Z</time>
      </trkpt>
      <trkpt lat="49.091844" lon="8.343284">
        <ele>106.656198</ele>
        <time>2022-01-08T13:13:17.249Z</time>
      </trkpt>
      <trkpt lat="49.093175" lon="8.344113">
        <ele>104.841105</ele>
        <time>2022-01-08T13:13:42.341Z</time>
      </trkpt>
      <trkpt lat="49.093356" lon="8.344137">
        <ele>104.779435</ele>
        <time>2022-01-08T13:13:46.122Z</time>
      </trkpt>
      <trkpt lat="49.093703" lon="8.344444">
        <ele>104.643310</ele>
        <time>2022-01-08T13:13:55.351Z</time>
      </trkpt>
      <trkpt lat="49.093998" lon="8.344544">
        <ele>104.540737</ele>
        <time>2022-01-08T13:14:03.325Z</time>
      </trkpt>
      <trkpt lat="49.095399" lon="8.345550">
        <ele>106.434402</ele>
        <time>2022-01-08T13:14:49.942Z</time>
      </trkpt>
      <trkpt lat="49.098399" lon="8.347952">
        <ele>108.492532</ele>
        <time>2022-01-08T13:16:13.367Z</time>
      </trkpt>
      <trkpt lat="49.102162" lon="8.351098">
        <ele>107.044207</ele>
        <time>2022-01-08T13:17:40.985Z</time>
      </trkpt>
      <trkpt lat="49.103971" lon="8.352586">
        <ele>108.999249</ele>
        <time>2022-01-08T13:18:37.608Z</time>
      </trkpt>
      <trkpt lat="49.104109" lon="8.352619">
        <ele>109.045138</ele>
        <time>2022-01-08T13:18:41.426Z</time>
      </trkpt>
      <trkpt lat="49.106373" lon="8.351347">
        <ele>108.847082</ele>
        <time>2022-01-08T13:19:34.733Z</time>
      </trkpt>
      <trkpt lat="49.106628" lon="8.351302">
        <ele>108.683970</ele>
        <time>2022-01-08T13:19:39.563Z</time>
      </trkpt>
      <trkpt lat="49.106879" lon="8.351387">
        <ele>108.520605</ele>
        <time>2022-01-08T13:19:44.319Z</time>
      </trkpt>
      <trkpt lat="49.109068" lon="8.351973">
        <ele>105.830793</ele>
        <time>2022-01-08T13:20:24.794Z</time>
      </trkpt>
      <trkpt lat="49.122859" lon="8.355787">
        <ele>106.381131</ele>
        <time>2022-01-08T13:25:43.622Z</time>
      </trkpt>
      <trkpt lat="49.124342" lon="8.356187">
        <ele>103.724413</ele>
        <time>2022-01-08T13:27:28.315Z</time>
      </trkpt>
      <trkpt lat="49.125189" lon="8.356416">
        <ele>102.456618</ele>
        <time>2022-01-08T13:28:28.109Z</time>
      </trkpt>
      <trkpt lat="49.125460" lon="8.356825">
        <ele>102.170864</ele>
        <time>2022-01-08T13:28:54.584Z</time>
      </trkpt>
      <trkpt lat="49.125664" lon="8.356667">
        <ele>101.999283</ele>
        <time>2022-01-08T13:29:10.429Z</time>
      </trkpt>
      <trkpt lat="49.125787" lon="8.356677">
        <ele>101.906874</ele>
        <time>2022-01-08T13:29:12.963Z</time>
      </trkpt>
      <trkpt lat="49.126986" lon="8.356748">
        <ele>101.716747</ele>
        <time>2022-01-08T13:30:36.303Z</time>
      </trkpt>
      <trkpt lat="49.127100" lon="8.356746">
        <ele>101.795119</ele>
        <time>2022-01-08T13:30:44.289Z</time>
      </trkpt>
      <trkpt lat="49.127814" lon="8.356480">
        <ele>102.300319</ele>
        <time>2022-01-08T13:31:35.350Z</time>
      </trkpt>
      <trkpt lat="49.127934" lon="8.356403">
        <ele>102.389787</ele>
        <time>2022-01-08T13:31:44.383Z</time>
      </trkpt>
      <trkpt lat="49.128874" lon="8.355800">
        <ele>102.819942</ele>
        <time>2022-01-08T13:32:55.205Z</time>
      </trkpt>
      <trkpt lat="49.129710" lon="8.355245">
        <ele>103.090945</ele>
        <time>2022-01-08T13:33:16.121Z</time>
      </trkpt>
      <trkpt lat="49.129993" lon="8.355170">
        <ele>103.132905</ele>
        <time>2022-01-08T13:33:22.677Z</time>
      </trkpt>
      <trkpt lat="49.131693" lon="8.355096">
        <ele>102.851360</ele>
        <time>2022-01-08T13:33:59.580Z</time>
      </trkpt>
      <trkpt lat="49.133886" lon="8.355297">
        <ele>101.477412</ele>
        <time>2022-01-08T13:34:43.066Z</time>
      </trkpt>
      <trkpt lat="49.134293" lon="8.355435">
        <ele>101.336684</ele>
        <time>2022-01-08T13:34:51.622Z</time>
      </trkpt>
      <trkpt lat="49.134490" lon="8.355576">
        <ele>101.263254</ele>
        <time>2022-01-08T13:34:56.183Z</time>
      </trkpt>
      <trkpt lat="49.135652" lon="8.357024">
        <ele>101.231564</ele>
        <time>2022-01-08T13:35:29.678Z</time>
      </trkpt>
      <trkpt lat="49.136388" lon="8.357082">
        <ele>101.462228</ele>
        <time>2022-01-08T13:35:47.353Z</time>
      </trkpt>
      <trkpt lat="49.137198" lon="8.356936">
        <ele>101.806546</ele>
        <time>2022-01-08T13:36:07.785Z</time>
      </trkpt>
      <trkpt lat="49.138238" lon="8.356854">
        <ele>102.324394</ele>
        <time>2022-01-08T13:36:33.502Z</time>
      </trkpt>
      <trkpt lat="49.138966" lon="8.356977">
        <ele>102.307533</ele>
        <time>2022-01-08T13:36:50.136Z</time>
      </trkpt>
      <trkpt lat="49.139682" lon="8.357317">
        <ele>102.057019</ele>
        <time>2022-01-08T13:37:05.761Z</time>
      </trkpt>
      <trkpt lat="49.140114" lon="8.357643">
        <ele>101.896044</ele>
        <time>2022-01-08T13:37:15.163Z</time>
      </trkpt>
      <trkpt lat="49.140471" lon="8.358003">
        <ele>101.819134</ele>
        <time>2022-01-08T13:37:23.651Z</time>
      </trkpt>
      <trkpt lat="49.141135" lon="8.358976">
        <ele>101.702121</ele>
        <time>2022-01-08T13:37:42.899Z</time>
      </trkpt>
      <trkpt lat="49.141630" lon="8.360132">
        <ele>102.088226</ele>
        <time>2022-01-08T13:38:04.949Z</time>
      </trkpt>
      <trkpt lat="49.143112" lon="8.362729">
        <ele>105.150894</ele>
        <time>2022-01-08T13:39:09.584Z</time>
      </trkpt>
      <trkpt lat="49.143660" lon="8.363753">
        <ele>106.372116</ele>
        <time>2022-01-08T13:39:33.592Z</time>
      </trkpt>
      <trkpt lat="49.143778" lon="8.364068">
        <ele>106.648916</ele>
        <time>2022-01-08T13:39:40.020Z</time>
      </trkpt>
      <trkpt lat="49.147053" lon="8.364369">
        <ele>109.154510</ele>
        <time>2022-01-08T13:41:02.918Z</time>
      </trkpt>
      <trkpt lat="49.147354" lon="8.364325">
        <ele>109.320649</ele>
        <time>2022-01-08T13:41:10.169Z</time>
      </trkpt>
      <trkpt lat="49.148999" lon="8.363801">
        <ele>109.765458</ele>
        <time>2022-01-08T13:41:49.061Z</time>
      </trkpt>
      <trkpt lat="49.150034" lon="8.363848">
        <ele>109.893437</ele>
        <time>2022-01-08T13:42:12.572Z</time>
      </trkpt>
      <trkpt lat="49.154383" lon="8.365588">
        <ele>110.404301</ele>
        <time>2022-01-08T13:43:54.350Z</time>
      </trkpt>
      <trkpt lat="49.154725" lon="8.365675">
        <ele>110.483598</ele>
        <time>2022-01-08T13:44:02.173Z</time>
      </trkpt>
      <trkpt lat="49.154855" lon="8.365594">
        <ele>110.515706</ele>
        <time>2022-01-08T13:44:05.405Z</time>
      </trkpt>
      <trkpt lat="49.155032" lon="8.365376">
        <ele>110.567690</ele>
        <time>2022-01-08T13:44:10.626Z</time>
      </trkpt>
      <trkpt lat="49.155493" lon="8.364519">
        <ele>110.733676</ele>
        <time>2022-01-08T13:44:27.597Z</time>
      </trkpt>
      <trkpt lat="49.155907" lon="8.363278">
        <ele>110.889080</ele>
        <time>2022-01-08T13:44:49.227Z</time>
      </trkpt>
      <trkpt lat="49.156068" lon="8.362656">
        <ele>110.953981</ele>
        <time>2022-01-08T13:44:59.537Z</time>
      </trkpt>
      <trkpt lat="49.156213" lon="8.361911">
        <ele>111.029394</ele>
        <time>2022-01-08T13:45:11.173Z</time>
      </trkpt>
      <trkpt lat="49.156369" lon="8.360708">
        <ele>110.560121</ele>
        <time>2022-01-08T13:45:27.718Z</time>
      </trkpt>
      <trkpt lat="49.156388" lon="8.360043">
        <ele>110.203882</ele>
        <time>2022-01-08T13:45:36.209Z</time>
      </trkpt>
      <trkpt lat="49.156490" lon="8.359778">
        <ele>110.039317</ele>
        <time>2022-01-08T13:45:40.124Z</time>
      </trkpt>
      <trkpt lat="49.156584" lon="8.359702">
        <ele>109.952302</ele>
        <time>2022-01-08T13:45:42.078Z</time>
      </trkpt>
      <trkpt lat="49.158959" lon="8.360103">
        <ele>107.633448</ele>
        <time>2022-01-08T13:46:27.258Z</time>
      </trkpt>
      <trkpt lat="49.162476" lon="8.362038">
        <ele>107.379331</ele>
        <time>2022-01-08T13:47:50.915Z</time>
      </trkpt>
      <trkpt lat="49.165069" lon="8.363405">
        <ele>107.207087</ele>
        <time>2022-01-08T13:48:51.501Z</time>
      </trkpt>
      <trkpt lat="49.165394" lon="8.363483">
        <ele>107.170187</ele>
        <time>2022-01-08T13:48:58.494Z</time>
      </trkpt>
      <trkpt lat="49.165884" lon="8.363213">
        <ele>107.113157</ele>
        <time>2022-01-08T13:49:09.454Z</time>
      </trkpt>
      <trkpt lat="49.166001" lon="8.363234">
        <ele>107.100529</ele>
        <time>2022-01-08T13:49:12.050Z</time>
      </trkpt>
      <trkpt lat="49.171026" lon="8.365701">
        <ele>106.473138</ele>
        <time>2022-01-08T13:51:07.774Z</time>
      </trkpt>
      <trkpt lat="49.176300" lon="8.368342">
        <ele>104.492091</ele>
        <time>2022-01-08T13:53:02.840Z</time>
      </trkpt>
      <trkpt lat="49.176555" lon="8.368468">
        <ele>104.527246</ele>
        <time>2022-01-08T13:53:09.242Z</time>
      </trkpt>
      <trkpt lat="49.178822" lon="8.369509">
        <ele>104.791291</ele>
        <time>2022-01-08T13:54:05.124Z</time>
      </trkpt>
      <trkpt lat="49.179138" lon="8.369683">
        <ele>104.823045</ele>
        <time>2022-01-08T13:54:12.308Z</time>
      </trkpt>
      <trkpt lat="49.179288" lon="8.369834">
        <ele>104.840023</ele>
        <time>2022-01-08T13:54:16.030Z</time>
      </trkpt>
      <trkpt lat="49.179419" lon="8.370013">
        <ele>104.686488</ele>
        <time>2022-01-08T13:54:19.699Z</time>
      </trkpt>
      <trkpt lat="49.179540" lon="8.370083">
        <ele>104.561785</ele>
        <time>2022-01-08T13:54:22.338Z</time>
      </trkpt>
      <trkpt lat="49.180749" lon="8.370617">
        <ele>103.348731</ele>
        <time>2022-01-08T13:54:46.454Z</time>
      </trkpt>
      <trkpt lat="49.181052" lon="8.370536">
        <ele>103.043382</ele>
        <time>2022-01-08T13:54:52.151Z</time>
      </trkpt>
      <trkpt lat="49.181282" lon="8.370387">
        <ele>102.764175</ele>
        <time>2022-01-08T13:54:56.748Z</time>
      </trkpt>
      <trkpt lat="49.181355" lon="8.370345">
        <ele>102.676991</ele>
        <time>2022-01-08T13:54:58.187Z</time>
      </trkpt>
      <trkpt lat="49.181424" lon="8.370330">
        <ele>102.599085</ele>
        <time>2022-01-08T13:54:59.475Z</time>
      </trkpt>
      <trkpt lat="49.181516" lon="8.370287">
        <ele>102.491550</ele>
        <time>2022-01-08T13:55:01.252Z</time>
      </trkpt>
      <trkpt lat="49.181696" lon="8.370231">
        <ele>102.286218</ele>
        <time>2022-01-08T13:55:04.612Z</time>
      </trkpt>
      <trkpt lat="49.181894" lon="8.370367">
        <ele>102.043599</ele>
        <time>2022-01-08T13:55:08.618Z</time>
      </trkpt>
      <trkpt lat="49.182558" lon="8.372206">
        <ele>101.198839</ele>
        <time>2022-01-08T13:55:35.498Z</time>
      </trkpt>
      <trkpt lat="49.182714" lon="8.372472">
        <ele>101.244044</ele>
        <time>2022-01-08T13:55:40.867Z</time>
      </trkpt>
      <trkpt lat="49.183032" lon="8.372828">
        <ele>101.320297</ele>
        <time>2022-01-08T13:55:50.496Z</time>
      </trkpt>
      <trkpt lat="49.183775" lon="8.373462">
        <ele>101.548804</ele>
        <time>2022-01-08T13:56:12.780Z</time>
      </trkpt>
      <trkpt lat="49.184838" lon="8.374532">
        <ele>102.189215</ele>
        <time>2022-01-08T13:56:44.869Z</time>
      </trkpt>
      <trkpt lat="49.186861" lon="8.374626">
        <ele>101.853354</ele>
        <time>2022-01-08T13:57:26.729Z</time>
      </trkpt>
      <trkpt lat="49.186876" lon="8.374847">
        <ele>101.828153</ele>
        <time>2022-01-08T13:57:30.148Z</time>
      </trkpt>
      <trkpt lat="49.187041" lon="8.377520">
        <ele>101.906515</ele>
        <time>2022-01-08T13:58:10.428Z</time>
      </trkpt>
      <trkpt lat="49.187109" lon="8.377949">
        <ele>101.668011</ele>
        <time>2022-01-08T13:58:16.510Z</time>
      </trkpt>
      <trkpt lat="49.187208" lon="8.378428">
        <ele>101.396580</ele>
        <time>2022-01-08T13:58:23.106Z</time>
      </trkpt>
      <trkpt lat="49.187602" lon="8.379128">
        <ele>100.897464</ele>
        <time>2022-01-08T13:58:34.730Z</time>
      </trkpt>
      <trkpt lat="49.188516" lon="8.380475">
        <ele>100.045008</ele>
        <time>2022-01-08T13:58:58.624Z</time>
      </trkpt>
      <trkpt lat="49.188782" lon="8.380718">
        <ele>99.876198</ele>
        <time>2022-01-08T13:59:04.880Z</time>
      </trkpt>
      <trkpt lat="49.194251" lon="8.382116">
        <ele>99.588531</ele>
        <time>2022-01-08T14:01:09.354Z</time>
      </trkpt>
      <trkpt lat="49.202290" lon="8.384215">
        <ele>98.344581</ele>
        <time>2022-01-08T14:04:04.389Z</time>
      </trkpt>
      <trkpt lat="49.202342" lon="8.384229">
        <ele>98.376075</ele>
        <time>2022-01-08T14:04:05.647Z</time>
      </trkpt>
      <trkpt lat="49.204346" lon="8.384737">
        <ele>99.156916</ele>
        <time>2022-01-08T14:04:58.118Z</time>
      </trkpt>
      <trkpt lat="49.206775" lon="8.385117">
        <ele>98.275739</ele>
        <time>2022-01-08T14:05:47.243Z</time>
      </trkpt>
      <trkpt lat="49.207098" lon="8.385145">
        <ele>98.083380</ele>
        <time>2022-01-08T14:05:53.765Z</time>
      </trkpt>
      <trkpt lat="49.207742" lon="8.385199">
        <ele>97.908288</ele>
        <time>2022-01-08T14:06:07.171Z</time>
      </trkpt>
      <trkpt lat="49.209735" lon="8.385203">
        <ele>97.954156</ele>
        <time>2022-01-08T14:06:51.933Z</time>
      </trkpt>
      <trkpt lat="49.210699" lon="8.385131">
        <ele>98.232714</ele>
        <time>2022-01-08T14:07:14.727Z</time>
      </trkpt>
      <trkpt lat="49.211619" lon="8.385012">
        <ele>98.526007</ele>
        <time>2022-01-08T14:07:36.789Z</time>
      </trkpt>
      <trkpt lat="49.213911" lon="8.384540">
        <ele>99.113107</ele>
        <time>2022-01-08T14:08:30.951Z</time>
      </trkpt>
      <trkpt lat="49.215924" lon="8.384002">
        <ele>99.168580</ele>
        <time>2022-01-08T14:09:16.517Z</time>
      </trkpt>
      <trkpt lat="49.216881" lon="8.383745">
        <ele>98.806974</ele>
        <time>2022-01-08T14:09:37.112Z</time>
      </trkpt>
      <trkpt lat="49.218535" lon="8.383476">
        <ele>98.182901</ele>
        <time>2022-01-08T14:10:10.413Z</time>
      </trkpt>
      <trkpt lat="49.218840" lon="8.383413">
        <ele>98.194845</ele>
        <time>2022-01-08T14:10:16.596Z</time>
      </trkpt>
      <trkpt lat="49.218958" lon="8.383383">
        <ele>98.199488</ele>
        <time>2022-01-08T14:10:19.095Z</time>
      </trkpt>
      <trkpt lat="49.219473" lon="8.383348">
        <ele>98.219495</ele>
        <time>2022-01-08T14:10:30.895Z</time>
      </trkpt>
      <trkpt lat="49.219562" lon="8.383342">
        <ele>98.222953</ele>
        <time>2022-01-08T14:10:33.127Z</time>
      </trkpt>
      <trkpt lat="49.220044" lon="8.383313">
        <ele>98.588996</ele>
        <time>2022-01-08T14:10:46.394Z</time>
      </trkpt>
      <trkpt lat="49.220006" lon="8.382659">
        <ele>99.305161</ele>
        <time>2022-01-08T14:10:58.357Z</time>
      </trkpt>
      <trkpt lat="49.219943" lon="8.381466">
        <ele>100.610667</ele>
        <time>2022-01-08T14:11:21.021Z</time>
      </trkpt>
      <trkpt lat="49.219964" lon="8.381208">
        <ele>100.894256</ele>
        <time>2022-01-08T14:11:27.626Z</time>
      </trkpt>
      <trkpt lat="49.219935" lon="8.381141">
        <ele>100.981926</ele>
        <time>2022-01-08T14:11:29.071Z</time>
      </trkpt>
      <trkpt lat="49.219921" lon="8.380786">
        <ele>101.376859</ele>
        <time>2022-01-08T14:11:36.563Z</time>
      </trkpt>
      <trkpt lat="49.219895" lon="8.380121">
        <ele>102.141884</ele>
        <time>2022-01-08T14:11:50.685Z</time>
      </trkpt>
      <trkpt lat="49.219862" lon="8.380117">
        <ele>102.200085</ele>
        <time>2022-01-08T14:11:51.873Z</time>
      </trkpt>
      <trkpt lat="49.219849" lon="8.379507">
        <ele>102.900958</ele>
        <time>2022-01-08T14:12:06.957Z</time>
      </trkpt>
      <trkpt lat="49.219791" lon="8.379202">
        <ele>103.265750</ele>
        <time>2022-01-08T14:12:14.509Z</time>
      </trkpt>
      <trkpt lat="49.219784" lon="8.379167">
        <ele>103.307785</ele>
        <time>2022-01-08T14:12:15.428Z</time>
      </trkpt>
      <trkpt lat="49.219582" lon="8.378967">
        <ele>103.730728</ele>
        <time>2022-01-08T14:12:23.615Z</time>
      </trkpt>
      <trkpt lat="49.219596" lon="8.378697">
        <ele>104.041762</ele>
        <time>2022-01-08T14:12:29.725Z</time>
      </trkpt>
      <trkpt lat="49.219618" lon="8.378600">
        <ele>104.159678</ele>
        <time>2022-01-08T14:12:31.889Z</time>
      </trkpt>
      <trkpt lat="49.219837" lon="8.378536">
        <ele>104.419877</ele>
        <time>2022-01-08T14:12:39.212Z</time>
      </trkpt>
      <trkpt lat="49.219871" lon="8.378440">
        <ele>104.436754</ele>
        <time>2022-01-08T14:12:41.615Z</time>
      </trkpt>
      <trkpt lat="49.219887" lon="8.377193">
        <ele>104.629501</ele>
        <time>2022-01-08T14:13:01.871Z</time>
      </trkpt>
      <trkpt lat="49.219904" lon="8.376651">
        <ele>104.713357</ele>
        <time>2022-01-08T14:13:09.974Z</time>
      </trkpt>
      <trkpt lat="49.219951" lon="8.376502">
        <ele>104.738928</ele>
        <time>2022-01-08T14:13:12.173Z</time>
      </trkpt>
      <trkpt lat="49.220868" lon="8.375668">
        <ele>104.212228</ele>
        <time>2022-01-08T14:13:33.278Z</time>
      </trkpt>
      <trkpt lat="49.221332" lon="8.375087">
        <ele>103.689814</ele>
        <time>2022-01-08T14:13:44.922Z</time>
      </trkpt>
      <trkpt lat="49.221554" lon="8.374518">
        <ele>103.312531</ele>
        <time>2022-01-08T14:13:53.244Z</time>
      </trkpt>
      <trkpt lat="49.221700" lon="8.373991">
        <ele>102.996569</ele>
        <time>2022-01-08T14:14:00.407Z</time>
      </trkpt>
      <trkpt lat="49.221945" lon="8.373150">
        <ele>102.491546</ele>
        <time>2022-01-08T14:14:12.135Z</time>
      </trkpt>
      <trkpt lat="49.222098" lon="8.372840">
        <ele>102.278454</ele>
        <time>2022-01-08T14:14:17.295Z</time>
      </trkpt>
      <trkpt lat="49.222124" lon="8.372787">
        <ele>102.242102</ele>
        <time>2022-01-08T14:14:18.148Z</time>
      </trkpt>
      <trkpt lat="49.222177" lon="8.372649">
        <ele>102.154306</ele>
        <time>2022-01-08T14:14:20.228Z</time>
      </trkpt>
      <trkpt lat="49.222529" lon="8.371942">
        <ele>101.636296</ele>
        <time>2022-01-08T14:14:31.952Z</time>
      </trkpt>
      <trkpt lat="49.222757" lon="8.371499">
        <ele>101.209623</ele>
        <time>2022-01-08T14:14:39.140Z</time>
      </trkpt>
      <trkpt lat="49.222825" lon="8.371343">
        <ele>101.067741</ele>
        <time>2022-01-08T14:14:41.419Z</time>
      </trkpt>
      <trkpt lat="49.222876" lon="8.371229">
        <ele>100.963210</ele>
        <time>2022-01-08T14:14:43.716Z</time>
      </trkpt>
      <trkpt lat="49.222927" lon="8.371105">
        <ele>100.852356</ele>
        <time>2022-01-08T14:14:46.208Z</time>
      </trkpt>
      <trkpt lat="49.222948" lon="8.371153">
        <ele>100.808651</ele>
        <time>2022-01-08T14:14:47.091Z</time>
      </trkpt>
      <trkpt lat="49.222971" lon="8.371188">
        <ele>100.771091</ele>
        <time>2022-01-08T14:14:47.872Z</time>
      </trkpt>
      <trkpt lat="49.223010" lon="8.371202">
        <ele>100.724693</ele>
        <time>2022-01-08T14:14:48.871Z</time>
      </trkpt>
      <trkpt lat="49.223229" lon="8.371233">
        <ele>100.469951</ele>
        <time>2022-01-08T14:14:54.433Z</time>
      </trkpt>
      <trkpt lat="49.223364" lon="8.371322">
        <ele>100.299706</ele>
        <time>2022-01-08T14:14:58.056Z</time>
      </trkpt>
      <trkpt lat="49.223676" lon="8.371523">
        <ele>99.907640</ele>
        <time>2022-01-08T14:15:04.414Z</time>
      </trkpt>
      <trkpt lat="49.223904" lon="8.371548">
        <ele>99.647436</ele>
        <time>2022-01-08T14:15:08.889Z</time>
      </trkpt>
      <trkpt lat="49.224572" lon="8.371216">
        <ele>99.011528</ele>
        <time>2022-01-08T14:15:22.280Z</time>
      </trkpt>
      <trkpt lat="49.224835" lon="8.371187">
        <ele>98.772778</ele>
        <time>2022-01-08T14:15:27.287Z</time>
      </trkpt>
      <trkpt lat="49.225073" lon="8.371239">
        <ele>98.555097</ele>
        <time>2022-01-08T14:15:31.871Z</time>
      </trkpt>
      <trkpt lat="49.226117" lon="8.371903">
        <ele>97.967967</ele>
        <time>2022-01-08T14:15:55.045Z</time>
      </trkpt>
      <trkpt lat="49.226281" lon="8.372007">
        <ele>97.946521</ele>
        <time>2022-01-08T14:15:59.062Z</time>
      </trkpt>
      <trkpt lat="49.226736" lon="8.372021">
        <ele>97.891537</ele>
        <time>2022-01-08T14:16:09.562Z</time>
      </trkpt>
      <trkpt lat="49.226863" lon="8.372252">
        <ele>97.867712</ele>
        <time>2022-01-08T14:16:13.989Z</time>
      </trkpt>
      <trkpt lat="49.226919" lon="8.372261">
        <ele>97.860909</ele>
        <time>2022-01-08T14:16:15.215Z</time>
      </trkpt>
      <trkpt lat="49.227137" lon="8.372125">
        <ele>97.832468</ele>
        <time>2022-01-08T14:16:20.412Z</time>
      </trkpt>
      <trkpt lat="49.227360" lon="8.372178">
        <ele>97.837725</ele>
        <time>2022-01-08T14:16:25.366Z</time>
      </trkpt>
      <trkpt lat="49.227741" lon="8.372269">
        <ele>97.910801</ele>
        <time>2022-01-08T14:16:34.134Z</time>
      </trkpt>
      <trkpt lat="49.227891" lon="8.372415">
        <ele>97.944485</ele>
        <time>2022-01-08T14:16:38.227Z</time>
      </trkpt>
      <trkpt lat="49.228175" lon="8.372496">
        <ele>97.999231</ele>
        <time>2022-01-08T14:16:45.169Z</time>
      </trkpt>
      <trkpt lat="49.228418" lon="8.372565">
        <ele>98.046068</ele>
        <time>2022-01-08T14:16:51.028Z</time>
      </trkpt>
      <trkpt lat="49.228667" lon="8.372462">
        <ele>98.094947</ele>
        <time>2022-01-08T14:16:56.786Z</time>
      </trkpt>
      <trkpt lat="49.229196" lon="8.372531">
        <ele>98.179658</ele>
        <time>2022-01-08T14:17:09.113Z</time>
      </trkpt>
      <trkpt lat="49.229399" lon="8.372649">
        <ele>98.203040</ele>
        <time>2022-01-08T14:17:13.734Z</time>
      </trkpt>
      <trkpt lat="49.229458" lon="8.372542">
        <ele>98.212888</ele>
        <time>2022-01-08T14:17:16.088Z</time>
      </trkpt>
      <trkpt lat="49.229479" lon="8.372464">
        <ele>98.218822</ele>
        <time>2022-01-08T14:17:17.302Z</time>
      </trkpt>
      <trkpt lat="49.229696" lon="8.372427">
        <ele>98.242334</ele>
        <time>2022-01-08T14:17:21.963Z</time>
      </trkpt>
      <trkpt lat="49.229806" lon="8.372507">
        <ele>98.255448</ele>
        <time>2022-01-08T14:17:25.032Z</time>
      </trkpt>
      <trkpt lat="49.229902" lon="8.372466">
        <ele>98.266180</ele>
        <time>2022-01-08T14:17:27.192Z</time>
      </trkpt>
      <trkpt lat="49.231296" lon="8.371552">
        <ele>98.371241</ele>
        <time>2022-01-08T14:18:01.409Z</time>
      </trkpt>
      <trkpt lat="49.231695" lon="8.371109">
        <ele>98.384204</ele>
        <time>2022-01-08T14:18:12.363Z</time>
      </trkpt>
      <trkpt lat="49.232242" lon="8.370286">
        <ele>98.367152</ele>
        <time>2022-01-08T14:18:29.365Z</time>
      </trkpt>
      <trkpt lat="49.232511" lon="8.369985">
        <ele>98.305698</ele>
        <time>2022-01-08T14:18:36.739Z</time>
      </trkpt>
      <trkpt lat="49.232574" lon="8.369933">
        <ele>98.292496</ele>
        <time>2022-01-08T14:18:38.349Z</time>
      </trkpt>
      <trkpt lat="49.232692" lon="8.369580">
        <ele>98.244729</ele>
        <time>2022-01-08T14:18:44.015Z</time>
      </trkpt>
      <trkpt lat="49.233587" lon="8.368326">
        <ele>97.995720</ele>
        <time>2022-01-08T14:19:09.638Z</time>
      </trkpt>
      <trkpt lat="49.234292" lon="8.367591">
        <ele>97.753869</ele>
        <time>2022-01-08T14:19:27.393Z</time>
      </trkpt>
      <trkpt lat="49.234614" lon="8.367345">
        <ele>97.651826</ele>
        <time>2022-01-08T14:19:35.195Z</time>
      </trkpt>
      <trkpt lat="49.235307" lon="8.366942">
        <ele>97.597753</ele>
        <time>2022-01-08T14:19:51.219Z</time>
      </trkpt>
      <trkpt lat="49.235891" lon="8.366877">
        <ele>97.654675</ele>
        <time>2022-01-08T14:20:04.363Z</time>
      </trkpt>
      <trkpt lat="49.235898" lon="8.366791">
        <ele>97.660176</ele>
        <time>2022-01-08T14:20:05.954Z</time>
      </trkpt>
      <trkpt lat="49.236099" lon="8.365741">
        <ele>97.729629</ele>
        <time>2022-01-08T14:20:23.806Z</time>
      </trkpt>
      <trkpt lat="49.236735" lon="8.363905">
        <ele>97.911148</ele>
        <time>2022-01-08T14:20:55.514Z</time>
      </trkpt>
      <trkpt lat="49.237274" lon="8.362782">
        <ele>98.137323</ele>
        <time>2022-01-08T14:21:16.918Z</time>
      </trkpt>
      <trkpt lat="49.238464" lon="8.360859">
        <ele>98.935364</ele>
        <time>2022-01-08T14:22:00.180Z</time>
      </trkpt>
      <trkpt lat="49.238557" lon="8.360565">
        <ele>99.104248</ele>
        <time>2022-01-08T14:22:05.746Z</time>
      </trkpt>
      <trkpt lat="49.238560" lon="8.359604">
        <ele>99.601051</ele>
        <time>2022-01-08T14:22:22.533Z</time>
      </trkpt>
      <trkpt lat="49.238685" lon="8.359339">
        <ele>99.770056</ele>
        <time>2022-01-08T14:22:28.150Z</time>
      </trkpt>
      <trkpt lat="49.239608" lon="8.358880">
        <ele>100.797617</ele>
        <time>2022-01-08T14:22:54.727Z</time>
      </trkpt>
      <trkpt lat="49.240510" lon="8.358157">
        <ele>102.048167</ele>
        <time>2022-01-08T14:23:23.773Z</time>
      </trkpt>
      <trkpt lat="49.240586" lon="8.358028">
        <ele>102.187518</ele>
        <time>2022-01-08T14:23:27.135Z</time>
      </trkpt>
      <trkpt lat="49.240630" lon="8.357869">
        <ele>102.327197</ele>
        <time>2022-01-08T14:23:30.115Z</time>
      </trkpt>
      <trkpt lat="49.240458" lon="8.357502">
        <ele>102.698383</ele>
        <time>2022-01-08T14:23:38.760Z</time>
      </trkpt>
      <trkpt lat="49.240519" lon="8.357406">
        <ele>102.808450</ele>
        <time>2022-01-08T14:23:41.066Z</time>
      </trkpt>
      <trkpt lat="49.240834" lon="8.357022">
        <ele>103.315096</ele>
        <time>2022-01-08T14:23:52.618Z</time>
      </trkpt>
      <trkpt lat="49.240967" lon="8.356763">
        <ele>103.585835</ele>
        <time>2022-01-08T14:23:59.055Z</time>
      </trkpt>
      <trkpt lat="49.240994" lon="8.356543">
        <ele>103.769758</ele>
        <time>2022-01-08T14:24:03.103Z</time>
      </trkpt>
      <trkpt lat="49.240725" lon="8.354263">
        <ele>105.239516</ele>
        <time>2022-01-08T14:24:44.319Z</time>
      </trkpt>
      <trkpt lat="49.240750" lon="8.354028">
        <ele>105.360167</ele>
        <time>2022-01-08T14:24:48.178Z</time>
      </trkpt>
      <trkpt lat="49.241172" lon="8.353573">
        <ele>105.760709</ele>
        <time>2022-01-08T14:25:00.926Z</time>
      </trkpt>
      <trkpt lat="49.241275" lon="8.353990">
        <ele>105.998482</ele>
        <time>2022-01-08T14:25:07.923Z</time>
      </trkpt>
      <trkpt lat="49.241457" lon="8.354727">
        <ele>106.493714</ele>
        <time>2022-01-08T14:25:20.518Z</time>
      </trkpt>
      <trkpt lat="49.241479" lon="8.354814">
        <ele>106.552352</ele>
        <time>2022-01-08T14:25:21.822Z</time>
      </trkpt>
      <trkpt lat="49.241607" lon="8.354869">
        <ele>106.680330</ele>
        <time>2022-01-08T14:25:24.975Z</time>
      </trkpt>
      <trkpt lat="49.242659" lon="8.353776">
        <ele>108.002087</ele>
        <time>2022-01-08T14:25:59.926Z</time>
      </trkpt>
      <trkpt lat="49.242771" lon="8.353599">
        <ele>108.221562</ele>
        <time>2022-01-08T14:26:04.261Z</time>
      </trkpt>
      <trkpt lat="49.243125" lon="8.353181">
        <ele>108.831158</ele>
        <time>2022-01-08T14:26:16.970Z</time>
      </trkpt>
      <trkpt lat="49.243733" lon="8.352727">
        <ele>109.753646</ele>
        <time>2022-01-08T14:26:35.985Z</time>
      </trkpt>
      <trkpt lat="49.243866" lon="8.352896">
        <ele>109.989323</ele>
        <time>2022-01-08T14:26:40.677Z</time>
      </trkpt>
      <trkpt lat="49.244366" lon="8.352763">
        <ele>110.414673</ele>
        <time>2022-01-08T14:26:54.708Z</time>
      </trkpt>
      <trkpt lat="49.244830" lon="8.352622">
        <ele>110.752271</ele>
        <time>2022-01-08T14:27:06.769Z</time>
      </trkpt>
      <trkpt lat="49.245306" lon="8.352158">
        <ele>111.154932</ele>
        <time>2022-01-08T14:27:20.318Z</time>
      </trkpt>
      <trkpt lat="49.245904" lon="8.351546">
        <ele>111.485645</ele>
        <time>2022-01-08T14:27:36.746Z</time>
      </trkpt>
      <trkpt lat="49.246268" lon="8.351104">
        <ele>111.586793</ele>
        <time>2022-01-08T14:27:47.314Z</time>
      </trkpt>
      <trkpt lat="49.246804" lon="8.350340">
        <ele>111.746227</ele>
        <time>2022-01-08T14:28:04.191Z</time>
      </trkpt>
      <trkpt lat="49.247126" lon="8.349718">
        <ele>111.878866</ele>
        <time>2022-01-08T14:28:16.477Z</time>
      </trkpt>
      <trkpt lat="49.247303" lon="8.349303">
        <ele>111.971860</ele>
        <time>2022-01-08T14:28:24.084Z</time>
      </trkpt>
      <trkpt lat="49.247555" lon="8.348527">
        <ele>112.134449</ele>
        <time>2022-01-08T14:28:37.569Z</time>
      </trkpt>
      <trkpt lat="49.247785" lon="8.347346">
        <ele>112.300555</ele>
        <time>2022-01-08T14:28:56.025Z</time>
      </trkpt>
      <trkpt lat="49.247851" lon="8.346600">
        <ele>112.263684</ele>
        <time>2022-01-08T14:29:06.964Z</time>
      </trkpt>
      <trkpt lat="49.247874" lon="8.345944">
        <ele>112.231508</ele>
        <time>2022-01-08T14:29:16.182Z</time>
      </trkpt>
      <trkpt lat="49.247828" lon="8.345782">
        <ele>112.222855</ele>
        <time>2022-01-08T14:29:18.637Z</time>
      </trkpt>
      <trkpt lat="49.247896" lon="8.345680">
        <ele>112.215715</ele>
        <time>2022-01-08T14:29:20.641Z</time>
      </trkpt>
      <trkpt lat="49.248217" lon="8.345522">
        <ele>112.190418</ele>
        <time>2022-01-08T14:29:28.126Z</time>
      </trkpt>
      <trkpt lat="49.248099" lon="8.344309">
        <ele>112.128419</ele>
        <time>2022-01-08T14:29:45.705Z</time>
      </trkpt>
      <trkpt lat="49.247887" lon="8.342856">
        <ele>112.052606</ele>
        <time>2022-01-08T14:30:06.746Z</time>
      </trkpt>
      <trkpt lat="49.248469" lon="8.342542">
        <ele>112.006663</ele>
        <time>2022-01-08T14:30:20.643Z</time>
      </trkpt>
      <trkpt lat="49.248528" lon="8.342511">
        <ele>112.002109</ele>
        <time>2022-01-08T14:30:22.142Z</time>
      </trkpt>
      <trkpt lat="49.248914" lon="8.342294">
        <ele>111.972083</ele>
        <time>2022-01-08T14:30:31.515Z</time>
      </trkpt>
      <trkpt lat="49.249129" lon="8.342325">
        <ele>111.956313</ele>
        <time>2022-01-08T14:30:36.188Z</time>
      </trkpt>
      <trkpt lat="49.249665" lon="8.343534">
        <ele>111.796329</ele>
        <time>2022-01-08T14:30:56.518Z</time>
      </trkpt>
      <trkpt lat="49.249777" lon="8.343665">
        <ele>111.741323</ele>
        <time>2022-01-08T14:30:59.497Z</time>
      </trkpt>
      <trkpt lat="49.249968" lon="8.343636">
        <ele>111.666400</ele>
        <time>2022-01-08T14:31:03.591Z</time>
      </trkpt>
      <trkpt lat="49.250151" lon="8.343594">
        <ele>111.594168</ele>
        <time>2022-01-08T14:31:07.560Z</time>
      </trkpt>
      <trkpt lat="49.250241" lon="8.343577">
        <ele>111.558771</ele>
        <time>2022-01-08T14:31:09.511Z</time>
      </trkpt>
      <trkpt lat="49.250592" lon="8.343558">
        <ele>111.421671</ele>
        <time>2022-01-08T14:31:17.009Z</time>
      </trkpt>
      <trkpt lat="49.250726" lon="8.343637">
        <ele>111.365624</ele>
        <time>2022-01-08T14:31:20.037Z</time>
      </trkpt>
      <trkpt lat="49.250850" lon="8.344435">
        <ele>111.089093</ele>
        <time>2022-01-08T14:31:30.746Z</time>
      </trkpt>
      <trkpt lat="49.250884" lon="8.344826">
        <ele>110.849289</ele>
        <time>2022-01-08T14:31:35.677Z</time>
      </trkpt>
      <trkpt lat="49.250917" lon="8.345204">
        <ele>110.617441</ele>
        <time>2022-01-08T14:31:40.484Z</time>
      </trkpt>
      <trkpt lat="49.250939" lon="8.345445">
        <ele>110.469502</ele>
        <time>2022-01-08T14:31:43.612Z</time>
      </trkpt>
      <trkpt lat="49.250952" lon="8.345593">
        <ele>110.378715</ele>
        <time>2022-01-08T14:31:45.526Z</time>
      </trkpt>
      <trkpt lat="49.251020" lon="8.345887">
        <ele>110.189092</ele>
        <time>2022-01-08T14:31:49.730Z</time>
      </trkpt>
      <trkpt lat="49.251289" lon="8.347125">
        <ele>109.238965</ele>
        <time>2022-01-08T14:32:06.359Z</time>
      </trkpt>
      <trkpt lat="49.251569" lon="8.348373">
        <ele>107.499338</ele>
        <time>2022-01-08T14:32:21.246Z</time>
      </trkpt>
      <trkpt lat="49.251765" lon="8.349243">
        <ele>106.286091</ele>
        <time>2022-01-08T14:32:31.547Z</time>
      </trkpt>
      <trkpt lat="49.251896" lon="8.349742">
        <ele>105.613394</ele>
        <time>2022-01-08T14:32:37.751Z</time>
      </trkpt>
      <trkpt lat="49.252140" lon="8.350451">
        <ele>104.676467</ele>
        <time>2022-01-08T14:32:46.721Z</time>
      </trkpt>
      <trkpt lat="49.252192" lon="8.350529">
        <ele>104.546138</ele>
        <time>2022-01-08T14:32:47.963Z</time>
      </trkpt>
      <trkpt lat="49.252281" lon="8.350522">
        <ele>104.386542</ele>
        <time>2022-01-08T14:32:49.561Z</time>
      </trkpt>
      <trkpt lat="49.252669" lon="8.350898">
        <ele>103.564348</ele>
        <time>2022-01-08T14:32:57.504Z</time>
      </trkpt>
      <trkpt lat="49.253712" lon="8.351539">
        <ele>102.345161</ele>
        <time>2022-01-08T14:33:19.723Z</time>
      </trkpt>
      <trkpt lat="49.254393" lon="8.352141">
        <ele>101.930266</ele>
        <time>2022-01-08T14:33:36.610Z</time>
      </trkpt>
      <trkpt lat="49.255342" lon="8.353257">
        <ele>101.520510</ele>
        <time>2022-01-08T14:34:01.397Z</time>
      </trkpt>
      <trkpt lat="49.255578" lon="8.353450">
        <ele>101.452331</ele>
        <time>2022-01-08T14:34:06.928Z</time>
      </trkpt>
      <trkpt lat="49.255797" lon="8.353848">
        <ele>101.365739</ele>
        <time>2022-01-08T14:34:13.974Z</time>
      </trkpt>
      <trkpt lat="49.256913" lon="8.355230">
        <ele>101.778802</ele>
        <time>2022-01-08T14:34:47.221Z</time>
      </trkpt>
      <trkpt lat="49.257360" lon="8.355959">
        <ele>102.094068</ele>
        <time>2022-01-08T14:35:04.211Z</time>
      </trkpt>
      <trkpt lat="49.257745" lon="8.356725">
        <ele>102.301864</ele>
        <time>2022-01-08T14:35:20.199Z</time>
      </trkpt>
      <trkpt lat="49.258159" lon="8.357805">
        <ele>102.550105</ele>
        <time>2022-01-08T14:35:39.708Z</time>
      </trkpt>
      <trkpt lat="49.258970" lon="8.360690">
        <ele>102.182252</ele>
        <time>2022-01-08T14:36:22.454Z</time>
      </trkpt>
      <trkpt lat="49.259091" lon="8.361252">
        <ele>102.129220</ele>
        <time>2022-01-08T14:36:30.706Z</time>
      </trkpt>
      <trkpt lat="49.259279" lon="8.363522">
        <ele>102.173532</ele>
        <time>2022-01-08T14:37:04.624Z</time>
      </trkpt>
      <trkpt lat="49.259043" lon="8.365331">
        <ele>101.934679</ele>
        <time>2022-01-08T14:37:31.623Z</time>
      </trkpt>
      <trkpt lat="49.259004" lon="8.367197">
        <ele>101.358294</ele>
        <time>2022-01-08T14:37:56.365Z</time>
      </trkpt>
      <trkpt lat="49.259042" lon="8.367584">
        <ele>101.149718</ele>
        <time>2022-01-08T14:38:01.417Z</time>
      </trkpt>
      <trkpt lat="49.258965" lon="8.367619">
        <ele>101.084130</ele>
        <time>2022-01-08T14:38:02.878Z</time>
      </trkpt>
      <trkpt lat="49.258893" lon="8.367647">
        <ele>101.023470</ele>
        <time>2022-01-08T14:38:04.305Z</time>
      </trkpt>
      <trkpt lat="49.258660" lon="8.368064">
        <ele>100.730902</ele>
        <time>2022-01-08T14:38:11.188Z</time>
      </trkpt>
      <trkpt lat="49.258622" lon="8.368303">
        <ele>100.599799</ele>
        <time>2022-01-08T14:38:14.406Z</time>
      </trkpt>
      <trkpt lat="49.258372" lon="8.368888">
        <ele>100.329116</ele>
        <time>2022-01-08T14:38:23.098Z</time>
      </trkpt>
      <trkpt lat="49.258140" lon="8.369692">
        <ele>100.432470</ele>
        <time>2022-01-08T14:38:34.647Z</time>
      </trkpt>
      <trkpt lat="49.257835" lon="8.370297">
        <ele>100.522350</ele>
        <time>2022-01-08T14:38:45.130Z</time>
      </trkpt>
      <trkpt lat="49.257732" lon="8.370694">
        <ele>100.572578</ele>
        <time>2022-01-08T14:38:51.623Z</time>
      </trkpt>
      <trkpt lat="49.257474" lon="8.372669">
        <ele>102.818375</ele>
        <time>2022-01-08T14:39:32.744Z</time>
      </trkpt>
      <trkpt lat="49.257244" lon="8.374289">
        <ele>104.985767</ele>
        <time>2022-01-08T14:40:07.848Z</time>
      </trkpt>
      <trkpt lat="49.257126" lon="8.375067">
        <ele>105.605344</ele>
        <time>2022-01-08T14:40:23.831Z</time>
      </trkpt>
      <trkpt lat="49.256973" lon="8.376386">
        <ele>106.644532</ele>
        <time>2022-01-08T14:40:46.457Z</time>
      </trkpt>
      <trkpt lat="49.256961" lon="8.377793">
        <ele>105.930663</ele>
        <time>2022-01-08T14:41:04.037Z</time>
      </trkpt>
      <trkpt lat="49.256974" lon="8.378906">
        <ele>105.087451</ele>
        <time>2022-01-08T14:41:17.476Z</time>
      </trkpt>
      <trkpt lat="49.256949" lon="8.379698">
        <ele>104.418443</ele>
        <time>2022-01-08T14:41:26.839Z</time>
      </trkpt>
      <trkpt lat="49.257017" lon="8.380280">
        <ele>103.847241</ele>
        <time>2022-01-08T14:41:33.726Z</time>
      </trkpt>
      <trkpt lat="49.257354" lon="8.381975">
        <ele>102.135436</ele>
        <time>2022-01-08T14:41:54.902Z</time>
      </trkpt>
      <trkpt lat="49.257795" lon="8.383850">
        <ele>101.080285</ele>
        <time>2022-01-08T14:42:20.261Z</time>
      </trkpt>
      <trkpt lat="49.257928" lon="8.384595">
        <ele>100.682730</ele>
        <time>2022-01-08T14:42:30.856Z</time>
      </trkpt>
      <trkpt lat="49.257926" lon="8.384880">
        <ele>100.675866</ele>
        <time>2022-01-08T14:42:34.827Z</time>
      </trkpt>
      <trkpt lat="49.257858" lon="8.385147">
        <ele>100.702855</ele>
        <time>2022-01-08T14:42:38.884Z</time>
      </trkpt>
      <trkpt lat="49.257703" lon="8.385429">
        <ele>100.737572</ele>
        <time>2022-01-08T14:42:44.135Z</time>
      </trkpt>
      <trkpt lat="49.257111" lon="8.385992">
        <ele>100.838103</ele>
        <time>2022-01-08T14:42:59.721Z</time>
      </trkpt>
      <trkpt lat="49.255659" lon="8.387141">
        <ele>101.875974</ele>
        <time>2022-01-08T14:43:40.652Z</time>
      </trkpt>
      <trkpt lat="49.254245" lon="8.389045">
        <ele>103.420234</ele>
        <time>2022-01-08T14:44:31.176Z</time>
      </trkpt>
      <trkpt lat="49.253855" lon="8.389927">
        <ele>103.830890</ele>
        <time>2022-01-08T14:44:47.891Z</time>
      </trkpt>
      <trkpt lat="49.253655" lon="8.390801">
        <ele>103.368016</ele>
        <time>2022-01-08T14:45:00.415Z</time>
      </trkpt>
      <trkpt lat="49.253707" lon="8.391353">
        <ele>103.089279</ele>
        <time>2022-01-08T14:45:07.546Z</time>
      </trkpt>
      <trkpt lat="49.253969" lon="8.391815">
        <ele>102.783404</ele>
        <time>2022-01-08T14:45:14.929Z</time>
      </trkpt>
      <trkpt lat="49.254244" lon="8.392159">
        <ele>102.513209</ele>
        <time>2022-01-08T14:45:21.399Z</time>
      </trkpt>
      <trkpt lat="49.254644" lon="8.392815">
        <ele>102.129308</ele>
        <time>2022-01-08T14:45:32.407Z</time>
      </trkpt>
      <trkpt lat="49.255066" lon="8.393619">
        <ele>101.688110</ele>
        <time>2022-01-08T14:45:45.730Z</time>
      </trkpt>
      <trkpt lat="49.255511" lon="8.394855">
        <ele>101.655904</ele>
        <time>2022-01-08T14:46:06.627Z</time>
      </trkpt>
      <trkpt lat="49.255792" lon="8.395804">
        <ele>102.189557</ele>
        <time>2022-01-08T14:46:24.099Z</time>
      </trkpt>
      <trkpt lat="49.256476" lon="8.398870">
        <ele>104.100797</ele>
        <time>2022-01-08T14:47:21.272Z</time>
      </trkpt>
      <trkpt lat="49.256574" lon="8.399481">
        <ele>104.492100</ele>
        <time>2022-01-08T14:47:31.423Z</time>
      </trkpt>
      <trkpt lat="49.256608" lon="8.400839">
        <ele>104.465482</ele>
        <time>2022-01-08T14:47:51.712Z</time>
      </trkpt>
      <trkpt lat="49.256555" lon="8.402366">
        <ele>104.408247</ele>
        <time>2022-01-08T14:48:12.679Z</time>
      </trkpt>
      <trkpt lat="49.256790" lon="8.403886">
        <ele>104.073867</ele>
        <time>2022-01-08T14:48:33.893Z</time>
      </trkpt>
      <trkpt lat="49.256627" lon="8.405034">
        <ele>103.821408</ele>
        <time>2022-01-08T14:48:50.308Z</time>
      </trkpt>
      <trkpt lat="49.256639" lon="8.405225">
        <ele>103.778806</ele>
        <time>2022-01-08T14:48:53.002Z</time>
      </trkpt>
      <trkpt lat="49.256789" lon="8.405544">
        <ele>103.691514</ele>
        <time>2022-01-08T14:48:58.535Z</time>
      </trkpt>
      <trkpt lat="49.258285" lon="8.407827">
        <ele>103.437194</ele>
        <time>2022-01-08T14:49:42.396Z</time>
      </trkpt>
      <trkpt lat="49.258366" lon="8.407876">
        <ele>103.459778</ele>
        <time>2022-01-08T14:49:44.707Z</time>
      </trkpt>
      <trkpt lat="49.258556" lon="8.407670">
        <ele>103.520139</ele>
        <time>2022-01-08T14:49:50.178Z</time>
      </trkpt>
      <trkpt lat="49.258876" lon="8.407560">
        <ele>103.605188</ele>
        <time>2022-01-08T14:49:58.412Z</time>
      </trkpt>
      <trkpt lat="49.258890" lon="8.407915">
        <ele>103.665381</ele>
        <time>2022-01-08T14:50:06.254Z</time>
      </trkpt>
      <trkpt lat="49.258836" lon="8.408577">
        <ele>103.954978</ele>
        <time>2022-01-08T14:50:20.635Z</time>
      </trkpt>
      <trkpt lat="49.258763" lon="8.409096">
        <ele>104.255544</ele>
        <time>2022-01-08T14:50:32.285Z</time>
      </trkpt>
      <trkpt lat="49.258908" lon="8.412415">
        <ele>105.195198</ele>
        <time>2022-01-08T14:51:42.968Z</time>
      </trkpt>
      <trkpt lat="49.259005" lon="8.413636">
        <ele>105.127031</ele>
        <time>2022-01-08T14:52:03.581Z</time>
      </trkpt>
      <trkpt lat="49.259226" lon="8.414991">
        <ele>104.111244</ele>
        <time>2022-01-08T14:52:26.517Z</time>
      </trkpt>
      <trkpt lat="49.259814" lon="8.418020">
        <ele>102.373623</ele>
        <time>2022-01-08T14:53:21.046Z</time>
      </trkpt>
      <trkpt lat="49.259867" lon="8.418797">
        <ele>102.045930</ele>
        <time>2022-01-08T14:53:35.517Z</time>
      </trkpt>
      <trkpt lat="49.259826" lon="8.419208">
        <ele>101.997886</ele>
        <time>2022-01-08T14:53:43.196Z</time>
      </trkpt>
      <trkpt lat="49.259675" lon="8.419794">
        <ele>102.036824</ele>
        <time>2022-01-08T14:53:54.870Z</time>
      </trkpt>
      <trkpt lat="49.258391" lon="8.423545">
        <ele>102.447980</ele>
        <time>2022-01-08T14:55:18.891Z</time>
      </trkpt>
      <trkpt lat="49.258465" lon="8.424040">
        <ele>102.460135</ele>
        <time>2022-01-08T14:55:26.328Z</time>
      </trkpt>
      <trkpt lat="49.258760" lon="8.424755">
        <ele>102.216703</ele>
        <time>2022-01-08T14:55:37.838Z</time>
      </trkpt>
      <trkpt lat="49.259176" lon="8.425778">
        <ele>101.869835</ele>
        <time>2022-01-08T14:55:54.085Z</time>
      </trkpt>
      <trkpt lat="49.259520" lon="8.426632">
        <ele>101.529565</ele>
        <time>2022-01-08T14:56:06.973Z</time>
      </trkpt>
      <trkpt lat="49.260485" lon="8.428714">
        <ele>100.531103</ele>
        <time>2022-01-08T14:56:40.522Z</time>
      </trkpt>
      <trkpt lat="49.261637" lon="8.430968">
        <ele>99.906252</ele>
        <time>2022-01-08T14:57:20.916Z</time>
      </trkpt>
      <trkpt lat="49.261809" lon="8.431264">
        <ele>99.750818</ele>
        <time>2022-01-08T14:57:25.999Z</time>
      </trkpt>
      <trkpt lat="49.262024" lon="8.431440">
        <ele>99.604334</ele>
        <time>2022-01-08T14:57:30.958Z</time>
      </trkpt>
      <trkpt lat="49.262147" lon="8.431621">
        <ele>99.501853</ele>
        <time>2022-01-08T14:57:34.216Z</time>
      </trkpt>
      <trkpt lat="49.262264" lon="8.431845">
        <ele>99.389333</ele>
        <time>2022-01-08T14:57:38.102Z</time>
      </trkpt>
      <trkpt lat="49.262331" lon="8.432001">
        <ele>99.316093</ele>
        <time>2022-01-08T14:57:40.422Z</time>
      </trkpt>
      <trkpt lat="49.262410" lon="8.432440">
        <ele>99.137503</ele>
        <time>2022-01-08T14:57:46.500Z</time>
      </trkpt>
      <trkpt lat="49.262724" lon="8.433024">
        <ele>98.889137</ele>
        <time>2022-01-08T14:57:56.391Z</time>
      </trkpt>
      <trkpt lat="49.263799" lon="8.434789">
        <ele>98.347535</ele>
        <time>2022-01-08T14:58:29.319Z</time>
      </trkpt>
      <trkpt lat="49.264394" lon="8.435746">
        <ele>98.498745</ele>
        <time>2022-01-08T14:58:49.404Z</time>
      </trkpt>
      <trkpt lat="49.265363" lon="8.437084">
        <ele>98.734397</ele>
        <time>2022-01-08T14:59:20.041Z</time>
      </trkpt>
      <trkpt lat="49.266032" lon="8.438011">
        <ele>98.853797</ele>
        <time>2022-01-08T14:59:40.752Z</time>
      </trkpt>
      <trkpt lat="49.266136" lon="8.438006">
        <ele>98.867571</ele>
        <time>2022-01-08T14:59:43.113Z</time>
      </trkpt>
      <trkpt lat="49.266212" lon="8.437878">
        <ele>98.882521</ele>
        <time>2022-01-08T14:59:45.631Z</time>
      </trkpt>
      <trkpt lat="49.268619" lon="8.431751">
        <ele>98.374752</ele>
        <time>2022-01-08T15:01:26.624Z</time>
      </trkpt>
      <trkpt lat="49.270889" lon="8.425792">
        <ele>98.300673</ele>
        <time>2022-01-08T15:03:06.567Z</time>
      </trkpt>
      <trkpt lat="49.271024" lon="8.425464">
        <ele>98.316194</ele>
        <time>2022-01-08T15:03:12.661Z</time>
      </trkpt>
      <trkpt lat="49.271141" lon="8.425430">
        <ele>98.328854</ele>
        <time>2022-01-08T15:03:15.306Z</time>
      </trkpt>
      <trkpt lat="49.271738" lon="8.426214">
        <ele>98.412439</ele>
        <time>2022-01-08T15:03:33.806Z</time>
      </trkpt>
      <trkpt lat="49.271857" lon="8.426265">
        <ele>98.425576</ele>
        <time>2022-01-08T15:03:36.793Z</time>
      </trkpt>
      <trkpt lat="49.272953" lon="8.425938">
        <ele>98.276760</ele>
        <time>2022-01-08T15:04:00.889Z</time>
      </trkpt>
      <trkpt lat="49.273619" lon="8.425570">
        <ele>97.910759</ele>
        <time>2022-01-08T15:04:15.221Z</time>
      </trkpt>
      <trkpt lat="49.274570" lon="8.423440">
        <ele>97.076089</ele>
        <time>2022-01-08T15:04:49.004Z</time>
      </trkpt>
      <trkpt lat="49.274633" lon="8.423383">
        <ele>97.040837</ele>
        <time>2022-01-08T15:04:50.602Z</time>
      </trkpt>
      <trkpt lat="49.275503" lon="8.423713">
        <ele>96.674249</ele>
        <time>2022-01-08T15:05:09.603Z</time>
      </trkpt>
      <trkpt lat="49.275692" lon="8.423707">
        <ele>96.647027</ele>
        <time>2022-01-08T15:05:13.897Z</time>
      </trkpt>
      <trkpt lat="49.277222" lon="8.422227">
        <ele>96.458185</ele>
        <time>2022-01-08T15:05:53.054Z</time>
      </trkpt>
      <trkpt lat="49.278025" lon="8.421751">
        <ele>96.491301</ele>
        <time>2022-01-08T15:06:11.996Z</time>
      </trkpt>
      <trkpt lat="49.279648" lon="8.421140">
        <ele>96.817047</ele>
        <time>2022-01-08T15:06:51.592Z</time>
      </trkpt>
      <trkpt lat="49.283507" lon="8.419784">
        <ele>97.556809</ele>
        <time>2022-01-08T15:08:22.178Z</time>
      </trkpt>
      <trkpt lat="49.285037" lon="8.419304">
        <ele>98.077817</ele>
        <time>2022-01-08T15:08:58.760Z</time>
      </trkpt>
      <trkpt lat="49.285856" lon="8.419413">
        <ele>98.428202</ele>
        <time>2022-01-08T15:09:18.628Z</time>
      </trkpt>
      <trkpt lat="49.287417" lon="8.420017">
        <ele>99.298023</ele>
        <time>2022-01-08T15:09:58.098Z</time>
      </trkpt>
      <trkpt lat="49.290232" lon="8.421105">
        <ele>100.773795</ele>
        <time>2022-01-08T15:11:08.775Z</time>
      </trkpt>
      <trkpt lat="49.291959" lon="8.422671">
        <ele>101.307488</ele>
        <time>2022-01-08T15:11:55.627Z</time>
      </trkpt>
      <trkpt lat="49.293695" lon="8.424401">
        <ele>101.398816</ele>
        <time>2022-01-08T15:12:41.597Z</time>
      </trkpt>
      <trkpt lat="49.295201" lon="8.426766">
        <ele>101.443600</ele>
        <time>2022-01-08T15:13:29.699Z</time>
      </trkpt>
      <trkpt lat="49.296034" lon="8.428379">
        <ele>101.589888</ele>
        <time>2022-01-08T15:14:00.028Z</time>
      </trkpt>
      <trkpt lat="49.296172" lon="8.428684">
        <ele>101.615792</ele>
        <time>2022-01-08T15:14:05.618Z</time>
      </trkpt>
      <trkpt lat="49.296295" lon="8.431682">
        <ele>101.617143</ele>
        <time>2022-01-08T15:14:50.181Z</time>
      </trkpt>
      <trkpt lat="49.296448" lon="8.432947">
        <ele>100.993755</ele>
        <time>2022-01-08T15:15:07.084Z</time>
      </trkpt>
      <trkpt lat="49.296713" lon="8.434533">
        <ele>100.163926</ele>
        <time>2022-01-08T15:15:27.347Z</time>
      </trkpt>
      <trkpt lat="49.296726" lon="8.435151">
        <ele>99.812104</ele>
        <time>2022-01-08T15:15:34.912Z</time>
      </trkpt>
      <trkpt lat="49.296065" lon="8.437528">
        <ele>98.860727</ele>
        <time>2022-01-08T15:16:08.761Z</time>
      </trkpt>
      <trkpt lat="49.295787" lon="8.441615">
        <ele>99.413181</ele>
        <time>2022-01-08T15:17:12.507Z</time>
      </trkpt>
      <trkpt lat="49.295607" lon="8.443501">
        <ele>99.607668</ele>
        <time>2022-01-08T15:17:40.888Z</time>
      </trkpt>
      <trkpt lat="49.295163" lon="8.444295">
        <ele>99.663370</ele>
        <time>2022-01-08T15:17:55.898Z</time>
      </trkpt>
      <trkpt lat="49.295027" lon="8.444639">
        <ele>99.692388</ele>
        <time>2022-01-08T15:18:01.628Z</time>
      </trkpt>
      <trkpt lat="49.294233" lon="8.446828">
        <ele>100.112371</ele>
        <time>2022-01-08T15:18:39.891Z</time>
      </trkpt>
      <trkpt lat="49.294191" lon="8.447370">
        <ele>100.222614</ele>
        <time>2022-01-08T15:18:48.404Z</time>
      </trkpt>
      <trkpt lat="49.294011" lon="8.448102">
        <ele>100.394586</ele>
        <time>2022-01-08T15:19:00.572Z</time>
      </trkpt>
      <trkpt lat="49.293973" lon="8.448491">
        <ele>100.481053</ele>
        <time>2022-01-08T15:19:06.653Z</time>
      </trkpt>
      <trkpt lat="49.293980" lon="8.449222">
        <ele>100.641765</ele>
        <time>2022-01-08T15:19:18.065Z</time>
      </trkpt>
      <trkpt lat="49.294003" lon="8.450114">
        <ele>100.698077</ele>
        <time>2022-01-08T15:19:31.700Z</time>
      </trkpt>
      <trkpt lat="49.293957" lon="8.451309">
        <ele>100.543041</ele>
        <time>2022-01-08T15:19:48.758Z</time>
      </trkpt>
      <trkpt lat="49.293627" lon="8.454129">
        <ele>99.127237</ele>
        <time>2022-01-08T15:20:26.755Z</time>
      </trkpt>
      <trkpt lat="49.293646" lon="8.454491">
        <ele>98.857637</ele>
        <time>2022-01-08T15:20:31.030Z</time>
      </trkpt>
      <trkpt lat="49.293729" lon="8.454824">
        <ele>98.592995</ele>
        <time>2022-01-08T15:20:35.143Z</time>
      </trkpt>
      <trkpt lat="49.294281" lon="8.454248">
        <ele>97.490360</ele>
        <time>2022-01-08T15:20:46.610Z</time>
      </trkpt>
      <trkpt lat="49.294344" lon="8.454311">
        <ele>97.347509</ele>
        <time>2022-01-08T15:20:48.071Z</time>
      </trkpt>
      <trkpt lat="49.294527" lon="8.454166">
        <ele>96.956280</ele>
        <time>2022-01-08T15:20:51.570Z</time>
      </trkpt>
      <trkpt lat="49.294911" lon="8.454070">
        <ele>96.217330</ele>
        <time>2022-01-08T15:20:58.374Z</time>
      </trkpt>
      <trkpt lat="49.295359" lon="8.453980">
        <ele>95.359186</ele>
        <time>2022-01-08T15:21:06.405Z</time>
      </trkpt>
      <trkpt lat="49.296166" lon="8.453747">
        <ele>94.779756</ele>
        <time>2022-01-08T15:21:22.319Z</time>
      </trkpt>
      <trkpt lat="49.296215" lon="8.453727">
        <ele>94.767005</ele>
        <time>2022-01-08T15:21:23.848Z</time>
      </trkpt>
      <trkpt lat="49.297365" lon="8.453261">
        <ele>94.478719</ele>
        <time>2022-01-08T15:21:50.747Z</time>
      </trkpt>
      <trkpt lat="49.297903" lon="8.453042">
        <ele>94.504255</ele>
        <time>2022-01-08T15:22:04.221Z</time>
      </trkpt>
      <trkpt lat="49.298167" lon="8.452938">
        <ele>94.516760</ele>
        <time>2022-01-08T15:22:10.437Z</time>
      </trkpt>
      <trkpt lat="49.298849" lon="8.452664">
        <ele>94.549104</ele>
        <time>2022-01-08T15:22:25.770Z</time>
      </trkpt>
      <trkpt lat="49.298890" lon="8.452640">
        <ele>94.551117</ele>
        <time>2022-01-08T15:22:26.612Z</time>
      </trkpt>
      <trkpt lat="49.298860" lon="8.452562">
        <ele>94.553826</ele>
        <time>2022-01-08T15:22:27.892Z</time>
      </trkpt>
      <trkpt lat="49.299151" lon="8.452331">
        <ele>94.515470</ele>
        <time>2022-01-08T15:22:34.804Z</time>
      </trkpt>
      <trkpt lat="49.299386" lon="8.452005">
        <ele>94.446501</ele>
        <time>2022-01-08T15:22:41.783Z</time>
      </trkpt>
      <trkpt lat="49.301019" lon="8.449495">
        <ele>94.076321</ele>
        <time>2022-01-08T15:23:31.035Z</time>
      </trkpt>
      <trkpt lat="49.301118" lon="8.449233">
        <ele>94.058777</ele>
        <time>2022-01-08T15:23:35.501Z</time>
      </trkpt>
      <trkpt lat="49.301269" lon="8.449180">
        <ele>94.045013</ele>
        <time>2022-01-08T15:23:39.005Z</time>
      </trkpt>
      <trkpt lat="49.302028" lon="8.448802">
        <ele>94.043063</ele>
        <time>2022-01-08T15:23:57.373Z</time>
      </trkpt>
      <trkpt lat="49.305871" lon="8.446491">
        <ele>94.696857</ele>
        <time>2022-01-08T15:25:30.595Z</time>
      </trkpt>
      <trkpt lat="49.306862" lon="8.445894">
        <ele>95.163479</ele>
        <time>2022-01-08T15:25:57.480Z</time>
      </trkpt>
      <trkpt lat="49.308753" lon="8.444723">
        <ele>96.335939</ele>
        <time>2022-01-08T15:26:47.796Z</time>
      </trkpt>
      <trkpt lat="49.309585" lon="8.444190">
        <ele>96.631323</ele>
        <time>2022-01-08T15:27:08.535Z</time>
      </trkpt>
      <trkpt lat="49.310281" lon="8.443685">
        <ele>96.941595</ele>
        <time>2022-01-08T15:27:26.494Z</time>
      </trkpt>
      <trkpt lat="49.310501" lon="8.443481">
        <ele>97.076402</ele>
        <time>2022-01-08T15:27:32.597Z</time>
      </trkpt>
      <trkpt lat="49.310551" lon="8.443363">
        <ele>97.124515</ele>
        <time>2022-01-08T15:27:34.795Z</time>
      </trkpt>
      <trkpt lat="49.310881" lon="8.443234">
        <ele>97.303093</ele>
        <time>2022-01-08T15:27:45.677Z</time>
      </trkpt>
      <trkpt lat="49.310947" lon="8.443284">
        <ele>97.341694</ele>
        <time>2022-01-08T15:27:48.205Z</time>
      </trkpt>
      <trkpt lat="49.311024" lon="8.443266">
        <ele>97.382537</ele>
        <time>2022-01-08T15:27:50.812Z</time>
      </trkpt>
      <trkpt lat="49.311060" lon="8.443428">
        <ele>97.441050</ele>
        <time>2022-01-08T15:27:54.452Z</time>
      </trkpt>
      <trkpt lat="49.311063" lon="8.443593">
        <ele>97.497481</ele>
        <time>2022-01-08T15:27:57.907Z</time>
      </trkpt>
      <trkpt lat="49.311057" lon="8.443635">
        <ele>97.512180</ele>
        <time>2022-01-08T15:27:58.834Z</time>
      </trkpt>
      <trkpt lat="49.311423" lon="8.443998">
        <ele>97.727773</ele>
        <time>2022-01-08T15:28:12.625Z</time>
      </trkpt>
      <trkpt lat="49.312001" lon="8.443996">
        <ele>97.660766</ele>
        <time>2022-01-08T15:28:30.138Z</time>
      </trkpt>
      <trkpt lat="49.312170" lon="8.444074">
        <ele>97.640307</ele>
        <time>2022-01-08T15:28:35.492Z</time>
      </trkpt>
      <trkpt lat="49.312289" lon="8.444221">
        <ele>97.622594</ele>
        <time>2022-01-08T15:28:39.984Z</time>
      </trkpt>
      <trkpt lat="49.313067" lon="8.445987">
        <ele>97.462222</ele>
        <time>2022-01-08T15:29:17.666Z</time>
      </trkpt>
      <trkpt lat="49.313218" lon="8.446588">
        <ele>97.414122</ele>
        <time>2022-01-08T15:29:30.114Z</time>
      </trkpt>
      <trkpt lat="49.313390" lon="8.446986">
        <ele>97.378462</ele>
        <time>2022-01-08T15:29:39.239Z</time>
      </trkpt>
      <trkpt lat="49.313435" lon="8.446960">
        <ele>97.372953</ele>
        <time>2022-01-08T15:29:40.561Z</time>
      </trkpt>
      <trkpt lat="49.313464" lon="8.446936">
        <ele>97.369179</ele>
        <time>2022-01-08T15:29:41.378Z</time>
      </trkpt>
      <trkpt lat="49.313509" lon="8.446986">
        <ele>97.362814</ele>
        <time>2022-01-08T15:29:43.020Z</time>
      </trkpt>
      <trkpt lat="49.313596" lon="8.447056">
        <ele>97.351560</ele>
        <time>2022-01-08T15:29:45.864Z</time>
      </trkpt>
      <trkpt lat="49.313709" lon="8.447124">
        <ele>97.337655</ele>
        <time>2022-01-08T15:29:49.341Z</time>
      </trkpt>
      <trkpt lat="49.313760" lon="8.446993">
        <ele>97.326260</ele>
        <time>2022-01-08T15:29:52.461Z</time>
      </trkpt>
      <trkpt lat="49.313831" lon="8.446830">
        <ele>97.346222</ele>
        <time>2022-01-08T15:29:56.144Z</time>
      </trkpt>
      <trkpt lat="49.314050" lon="8.446521">
        <ele>97.610959</ele>
        <time>2022-01-08T15:30:05.004Z</time>
      </trkpt>
      <trkpt lat="49.314233" lon="8.446339">
        <ele>97.805001</ele>
        <time>2022-01-08T15:30:11.555Z</time>
      </trkpt>
      <trkpt lat="49.314539" lon="8.446198">
        <ele>98.089268</ele>
        <time>2022-01-08T15:30:21.553Z</time>
      </trkpt>
      <trkpt lat="49.314769" lon="8.446158">
        <ele>98.295211</ele>
        <time>2022-01-08T15:30:29.505Z</time>
      </trkpt>
      <trkpt lat="49.315088" lon="8.446109">
        <ele>98.580446</ele>
        <time>2022-01-08T15:30:41.002Z</time>
      </trkpt>
      <trkpt lat="49.315069" lon="8.446005">
        <ele>98.643089</ele>
        <time>2022-01-08T15:30:43.542Z</time>
      </trkpt>
      <trkpt lat="49.315175" lon="8.445991">
        <ele>98.737747</ele>
        <time>2022-01-08T15:30:46.744Z</time>
      </trkpt>
      <trkpt lat="49.315369" lon="8.446091">
        <ele>98.921263</ele>
        <time>2022-01-08T15:30:52.520Z</time>
      </trkpt>
      <trkpt lat="49.315637" lon="8.446119">
        <ele>99.245517</ele>
        <time>2022-01-08T15:30:59.995Z</time>
      </trkpt>
      <trkpt lat="49.315910" lon="8.446138">
        <ele>99.575396</ele>
        <time>2022-01-08T15:31:07.375Z</time>
      </trkpt>
      <trkpt lat="49.316033" lon="8.446151">
        <ele>99.724222</ele>
        <time>2022-01-08T15:31:10.673Z</time>
      </trkpt>
      <trkpt lat="49.316042" lon="8.446040">
        <ele>99.812241</ele>
        <time>2022-01-08T15:31:12.557Z</time>
      </trkpt>
      <trkpt lat="49.316857" lon="8.445939">
        <ele>100.799238</ele>
        <time>2022-01-08T15:31:35.286Z</time>
      </trkpt>
      <trkpt lat="49.317308" lon="8.445745">
        <ele>100.941083</ele>
        <time>2022-01-08T15:31:47.291Z</time>
      </trkpt>
      <trkpt lat="49.317728" lon="8.445459">
        <ele>100.649614</ele>
        <time>2022-01-08T15:31:57.642Z</time>
      </trkpt>
      <trkpt lat="49.317803" lon="8.445423">
        <ele>100.599768</ele>
        <time>2022-01-08T15:31:59.226Z</time>
      </trkpt>
      <trkpt lat="49.317852" lon="8.445389">
        <ele>100.565656</ele>
        <time>2022-01-08T15:32:00.313Z</time>
      </trkpt>
      <trkpt lat="49.317889" lon="8.445371">
        <ele>100.541036</ele>
        <time>2022-01-08T15:32:01.100Z</time>
      </trkpt>
      <trkpt lat="49.318040" lon="8.445263">
        <ele>100.435360</ele>
        <time>2022-01-08T15:32:04.225Z</time>
      </trkpt>
      <trkpt lat="49.318058" lon="8.445247">
        <ele>100.422164</ele>
        <time>2022-01-08T15:32:04.816Z</time>
      </trkpt>
      <trkpt lat="49.318337" lon="8.444967">
        <ele>100.210693</ele>
        <time>2022-01-08T15:32:13.219Z</time>
      </trkpt>
      <trkpt lat="49.318646" lon="8.444801">
        <ele>100.003027</ele>
        <time>2022-01-08T15:32:21.319Z</time>
      </trkpt>
      <trkpt lat="49.319166" lon="8.444778">
        <ele>99.381048</ele>
        <time>2022-01-08T15:32:34.112Z</time>
      </trkpt>
      <trkpt lat="49.319237" lon="8.444783">
        <ele>99.287755</ele>
        <time>2022-01-08T15:32:35.842Z</time>
      </trkpt>
      <trkpt lat="49.319315" lon="8.444825">
        <ele>99.179249</ele>
        <time>2022-01-08T15:32:37.775Z</time>
      </trkpt>
      <trkpt lat="49.319344" lon="8.444878">
        <ele>99.120043</ele>
        <time>2022-01-08T15:32:38.841Z</time>
      </trkpt>
      <trkpt lat="49.319535" lon="8.445224">
        <ele>98.732108</ele>
        <time>2022-01-08T15:32:46.034Z</time>
      </trkpt>
      <trkpt lat="49.319586" lon="8.445294">
        <ele>98.642284</ele>
        <time>2022-01-08T15:32:47.670Z</time>
      </trkpt>
      <trkpt lat="49.319686" lon="8.445424">
        <ele>98.470234</ele>
        <time>2022-01-08T15:32:51.027Z</time>
      </trkpt>
      <trkpt lat="49.319787" lon="8.445538">
        <ele>98.305646</ele>
        <time>2022-01-08T15:32:54.194Z</time>
      </trkpt>
      <trkpt lat="49.319884" lon="8.445650">
        <ele>98.146292</ele>
        <time>2022-01-08T15:32:57.242Z</time>
      </trkpt>
      <trkpt lat="49.320064" lon="8.445806">
        <ele>97.874929</ele>
        <time>2022-01-08T15:33:02.736Z</time>
      </trkpt>
      <trkpt lat="49.321230" lon="8.446541">
        <ele>97.772564</ele>
        <time>2022-01-08T15:33:39.716Z</time>
      </trkpt>
      <trkpt lat="49.321441" lon="8.446625">
        <ele>97.811836</ele>
        <time>2022-01-08T15:33:46.657Z</time>
      </trkpt>
      <trkpt lat="49.321787" lon="8.446763">
        <ele>97.876244</ele>
        <time>2022-01-08T15:33:58.023Z</time>
      </trkpt>
      <trkpt lat="49.322085" lon="8.446759">
        <ele>97.918286</ele>
        <time>2022-01-08T15:34:07.401Z</time>
      </trkpt>
      <trkpt lat="49.322089" lon="8.446863">
        <ele>97.923626</ele>
        <time>2022-01-08T15:34:09.091Z</time>
      </trkpt>
      <trkpt lat="49.322331" lon="8.446803">
        <ele>97.942904</ele>
        <time>2022-01-08T15:34:14.989Z</time>
      </trkpt>
      <trkpt lat="49.323253" lon="8.446740">
        <ele>98.015483</ele>
        <time>2022-01-08T15:34:36.443Z</time>
      </trkpt>
      <trkpt lat="49.323448" lon="8.446724">
        <ele>98.030840</ele>
        <time>2022-01-08T15:34:40.581Z</time>
      </trkpt>
      <trkpt lat="49.324123" lon="8.446676">
        <ele>97.810038</ele>
        <time>2022-01-08T15:34:54.011Z</time>
      </trkpt>
      <trkpt lat="49.324580" lon="8.446727">
        <ele>97.549368</ele>
        <time>2022-01-08T15:35:03.233Z</time>
      </trkpt>
      <trkpt lat="49.325159" lon="8.446953">
        <ele>97.209486</ele>
        <time>2022-01-08T15:35:15.330Z</time>
      </trkpt>
      <trkpt lat="49.325474" lon="8.447082">
        <ele>97.025987</ele>
        <time>2022-01-08T15:35:21.985Z</time>
      </trkpt>
      <trkpt lat="49.325806" lon="8.447264">
        <ele>96.939810</ele>
        <time>2022-01-08T15:35:29.209Z</time>
      </trkpt>
      <trkpt lat="49.325932" lon="8.447407">
        <ele>96.901501</ele>
        <time>2022-01-08T15:35:32.512Z</time>
      </trkpt>
      <trkpt lat="49.326376" lon="8.447911">
        <ele>96.766498</ele>
        <time>2022-01-08T15:35:43.899Z</time>
      </trkpt>
      <trkpt lat="49.326859" lon="8.448518">
        <ele>96.613888</ele>
        <time>2022-01-08T15:35:57.708Z</time>
      </trkpt>
      <trkpt lat="49.327287" lon="8.449056">
        <ele>96.601095</ele>
        <time>2022-01-08T15:36:10.715Z</time>
      </trkpt>
      <trkpt lat="49.327638" lon="8.449320">
        <ele>96.612711</ele>
        <time>2022-01-08T15:36:20.393Z</time>
      </trkpt>
      <trkpt lat="49.327658" lon="8.449265">
        <ele>96.613931</ele>
        <time>2022-01-08T15:36:21.469Z</time>
      </trkpt>
      <trkpt lat="49.328164" lon="8.449602">
        <ele>96.630323</ele>
        <time>2022-01-08T15:36:34.588Z</time>
      </trkpt>
      <trkpt lat="49.329049" lon="8.450194">
        <ele>96.121336</ele>
        <time>2022-01-08T15:36:53.193Z</time>
      </trkpt>
      <trkpt lat="49.329421" lon="8.450443">
        <ele>95.767880</ele>
        <time>2022-01-08T15:37:00.758Z</time>
      </trkpt>
      <trkpt lat="49.329710" lon="8.450642">
        <ele>95.492011</ele>
        <time>2022-01-08T15:37:06.970Z</time>
      </trkpt>
      <trkpt lat="49.329905" lon="8.450790">
        <ele>95.302548</ele>
        <time>2022-01-08T15:37:11.134Z</time>
      </trkpt>
      <trkpt lat="49.330158" lon="8.450960">
        <ele>95.068761</ele>
        <time>2022-01-08T15:37:17.135Z</time>
      </trkpt>
      <trkpt lat="49.330504" lon="8.451167">
        <ele>94.915467</ele>
        <time>2022-01-08T15:37:24.677Z</time>
      </trkpt>
      <trkpt lat="49.330473" lon="8.451247">
        <ele>94.890429</ele>
        <time>2022-01-08T15:37:25.728Z</time>
      </trkpt>
      <trkpt lat="49.330663" lon="8.451421">
        <ele>94.799095</ele>
        <time>2022-01-08T15:37:30.465Z</time>
      </trkpt>
      <trkpt lat="49.330940" lon="8.451533">
        <ele>94.680852</ele>
        <time>2022-01-08T15:37:36.029Z</time>
      </trkpt>
      <trkpt lat="49.330971" lon="8.451631">
        <ele>94.651548</ele>
        <time>2022-01-08T15:37:37.584Z</time>
      </trkpt>
      <trkpt lat="49.331077" lon="8.451716">
        <ele>94.602179</ele>
        <time>2022-01-08T15:37:39.843Z</time>
      </trkpt>
      <trkpt lat="49.331124" lon="8.451711">
        <ele>94.582731</ele>
        <time>2022-01-08T15:37:40.785Z</time>
      </trkpt>
      <trkpt lat="49.331378" lon="8.451918">
        <ele>94.464015</ele>
        <time>2022-01-08T15:37:47.165Z</time>
      </trkpt>
      <trkpt lat="49.331714" lon="8.452161">
        <ele>94.307563</ele>
        <time>2022-01-08T15:37:55.859Z</time>
      </trkpt>
      <trkpt lat="49.332175" lon="8.452580">
        <ele>94.054549</ele>
        <time>2022-01-08T15:38:08.588Z</time>
      </trkpt>
      <trkpt lat="49.332537" lon="8.453145">
        <ele>93.810720</ele>
        <time>2022-01-08T15:38:18.956Z</time>
      </trkpt>
      <trkpt lat="49.333545" lon="8.454721">
        <ele>93.548288</ele>
        <time>2022-01-08T15:38:46.607Z</time>
      </trkpt>
      <trkpt lat="49.334109" lon="8.455318">
        <ele>93.608286</ele>
        <time>2022-01-08T15:39:03.999Z</time>
      </trkpt>
      <trkpt lat="49.334429" lon="8.455658">
        <ele>93.652219</ele>
        <time>2022-01-08T15:39:14.592Z</time>
      </trkpt>
      <trkpt lat="49.335045" lon="8.456306">
        <ele>94.070399</ele>
        <time>2022-01-08T15:39:33.931Z</time>
      </trkpt>
      <trkpt lat="49.335326" lon="8.456602">
        <ele>94.261242</ele>
        <time>2022-01-08T15:39:42.156Z</time>
      </trkpt>
      <trkpt lat="49.335394" lon="8.456691">
        <ele>94.311285</ele>
        <time>2022-01-08T15:39:44.533Z</time>
      </trkpt>
      <trkpt lat="49.335743" lon="8.457298">
        <ele>94.606649</ele>
        <time>2022-01-08T15:39:56.694Z</time>
      </trkpt>
      <trkpt lat="49.336284" lon="8.458241">
        <ele>93.906028</ele>
        <time>2022-01-08T15:40:13.945Z</time>
      </trkpt>
      <trkpt lat="49.336318" lon="8.458209">
        <ele>93.866346</ele>
        <time>2022-01-08T15:40:14.797Z</time>
      </trkpt>
      <trkpt lat="49.337258" lon="8.460053">
        <ele>92.250673</ele>
        <time>2022-01-08T15:40:42.438Z</time>
      </trkpt>
      <trkpt lat="49.337851" lon="8.461305">
        <ele>91.054555</ele>
        <time>2022-01-08T15:41:01.515Z</time>
      </trkpt>
      <trkpt lat="49.338347" lon="8.462182">
        <ele>90.976333</ele>
        <time>2022-01-08T15:41:16.823Z</time>
      </trkpt>
      <trkpt lat="49.338569" lon="8.462438">
        <ele>91.122048</ele>
        <time>2022-01-08T15:41:23.177Z</time>
      </trkpt>
      <trkpt lat="49.338849" lon="8.462643">
        <ele>91.284841</ele>
        <time>2022-01-08T15:41:31.007Z</time>
      </trkpt>
      <trkpt lat="49.340115" lon="8.463151">
        <ele>92.380825</ele>
        <time>2022-01-08T15:42:07.628Z</time>
      </trkpt>
      <trkpt lat="49.340927" lon="8.463406">
        <ele>93.404038</ele>
        <time>2022-01-08T15:42:30.814Z</time>
      </trkpt>
      <trkpt lat="49.342673" lon="8.463475">
        <ele>94.647376</ele>
        <time>2022-01-08T15:43:13.951Z</time>
      </trkpt>
      <trkpt lat="49.344182" lon="8.463286">
        <ele>95.126628</ele>
        <time>2022-01-08T15:43:49.375Z</time>
      </trkpt>
      <trkpt lat="49.345119" lon="8.462972">
        <ele>95.321616</ele>
        <time>2022-01-08T15:44:11.297Z</time>
      </trkpt>
      <trkpt lat="49.347386" lon="8.462439">
        <ele>96.042030</ele>
        <time>2022-01-08T15:45:03.792Z</time>
      </trkpt>
      <trkpt lat="49.347656" lon="8.462392">
        <ele>96.214788</ele>
        <time>2022-01-08T15:45:10.790Z</time>
      </trkpt>
      <trkpt lat="49.348549" lon="8.462384">
        <ele>96.797395</ele>
        <time>2022-01-08T15:45:34.128Z</time>
      </trkpt>
      <trkpt lat="49.348618" lon="8.462418">
        <ele>96.855411</ele>
        <time>2022-01-08T15:45:36.023Z</time>
      </trkpt>
      <trkpt lat="49.349223" lon="8.462576">
        <ele>97.346717</ele>
        <time>2022-01-08T15:45:56.196Z</time>
      </trkpt>
      <trkpt lat="49.349281" lon="8.462564">
        <ele>97.393570</ele>
        <time>2022-01-08T15:45:57.730Z</time>
      </trkpt>
      <trkpt lat="49.349256" lon="8.462652">
        <ele>97.443639</ele>
        <time>2022-01-08T15:45:59.409Z</time>
      </trkpt>
      <trkpt lat="49.349994" lon="8.462896">
        <ele>98.048010</ele>
        <time>2022-01-08T15:46:18.670Z</time>
      </trkpt>
      <trkpt lat="49.350449" lon="8.463047">
        <ele>98.188955</ele>
        <time>2022-01-08T15:46:29.736Z</time>
      </trkpt>
      <trkpt lat="49.351722" lon="8.462917">
        <ele>98.284001</ele>
        <time>2022-01-08T15:46:58.206Z</time>
      </trkpt>
      <trkpt lat="49.351725" lon="8.462751">
        <ele>98.292060</ele>
        <time>2022-01-08T15:47:00.354Z</time>
      </trkpt>
      <trkpt lat="49.357512" lon="8.461829">
        <ele>97.080142</ele>
        <time>2022-01-08T15:49:06.297Z</time>
      </trkpt>
      <trkpt lat="49.357610" lon="8.461851">
        <ele>96.995067</ele>
        <time>2022-01-08T15:49:08.214Z</time>
      </trkpt>
      <trkpt lat="49.358857" lon="8.462881">
        <ele>95.795370</ele>
        <time>2022-01-08T15:49:35.054Z</time>
      </trkpt>
      <trkpt lat="49.360873" lon="8.464493">
        <ele>95.357787</ele>
        <time>2022-01-08T15:50:22.325Z</time>
      </trkpt>
      <trkpt lat="49.361756" lon="8.465512">
        <ele>96.196270</ele>
        <time>2022-01-08T15:50:51.713Z</time>
      </trkpt>
      <trkpt lat="49.361956" lon="8.465661">
        <ele>96.407998</ele>
        <time>2022-01-08T15:50:58.071Z</time>
      </trkpt>
      <trkpt lat="49.363679" lon="8.466885">
        <ele>99.427937</ele>
        <time>2022-01-08T15:51:54.377Z</time>
      </trkpt>
      <trkpt lat="49.363696" lon="8.466995">
        <ele>99.447937</ele>
        <time>2022-01-08T15:51:56.620Z</time>
      </trkpt>
      <trkpt lat="49.363950" lon="8.467072">
        <ele>99.518268</ele>
        <time>2022-01-08T15:52:03.252Z</time>
      </trkpt>
      <trkpt lat="49.364122" lon="8.467197">
        <ele>99.569961</ele>
        <time>2022-01-08T15:52:08.078Z</time>
      </trkpt>
      <trkpt lat="49.364352" lon="8.467452">
        <ele>99.647024</ele>
        <time>2022-01-08T15:52:15.095Z</time>
      </trkpt>
      <trkpt lat="49.364888" lon="8.468063">
        <ele>99.828364</ele>
        <time>2022-01-08T15:52:34.101Z</time>
      </trkpt>
      <trkpt lat="49.364992" lon="8.468210">
        <ele>99.866762</ele>
        <time>2022-01-08T15:52:37.810Z</time>
      </trkpt>
      <trkpt lat="49.367352" lon="8.464584">
        <ele>94.921364</ele>
        <time>2022-01-08T15:53:38.050Z</time>
      </trkpt>
      <trkpt lat="49.368760" lon="8.462784">
        <ele>93.592882</ele>
        <time>2022-01-08T15:54:14.668Z</time>
      </trkpt>
      <trkpt lat="49.370368" lon="8.461267">
        <ele>93.617163</ele>
        <time>2022-01-08T15:54:58.014Z</time>
      </trkpt>
      <trkpt lat="49.370686" lon="8.461118">
        <ele>93.648287</ele>
        <time>2022-01-08T15:55:05.783Z</time>
      </trkpt>
      <trkpt lat="49.370856" lon="8.461039">
        <ele>93.661828</ele>
        <time>2022-01-08T15:55:09.840Z</time>
      </trkpt>
      <trkpt lat="49.371806" lon="8.460625">
        <ele>93.737115</ele>
        <time>2022-01-08T15:55:32.206Z</time>
      </trkpt>
      <trkpt lat="49.371863" lon="8.460628">
        <ele>93.741463</ele>
        <time>2022-01-08T15:55:33.457Z</time>
      </trkpt>
      <trkpt lat="49.371828" lon="8.461540">
        <ele>93.757199</ele>
        <time>2022-01-08T15:55:46.446Z</time>
      </trkpt>
      <trkpt lat="49.371897" lon="8.461543">
        <ele>93.750865</ele>
        <time>2022-01-08T15:55:48.069Z</time>
      </trkpt>
      <trkpt lat="49.372226" lon="8.460882">
        <ele>93.701151</ele>
        <time>2022-01-08T15:55:59.770Z</time>
      </trkpt>
      <trkpt lat="49.373413" lon="8.458027">
        <ele>93.747257</ele>
        <time>2022-01-08T15:56:48.029Z</time>
      </trkpt>
      <trkpt lat="49.373643" lon="8.458051">
        <ele>93.774081</ele>
        <time>2022-01-08T15:56:53.305Z</time>
      </trkpt>
      <trkpt lat="49.373899" lon="8.458319">
        <ele>93.810130</ele>
        <time>2022-01-08T15:57:00.731Z</time>
      </trkpt>
      <trkpt lat="49.374121" lon="8.458505">
        <ele>94.005084</ele>
        <time>2022-01-08T15:57:07.000Z</time>
      </trkpt>
      <trkpt lat="49.374884" lon="8.458275">
        <ele>94.777861</ele>
        <time>2022-01-08T15:57:27.245Z</time>
      </trkpt>
      <trkpt lat="49.375414" lon="8.458251">
        <ele>95.304832</ele>
        <time>2022-01-08T15:57:42.125Z</time>
      </trkpt>
      <trkpt lat="49.376702" lon="8.458355">
        <ele>96.111721</ele>
        <time>2022-01-08T15:58:16.308Z</time>
      </trkpt>
      <trkpt lat="49.376832" lon="8.458342">
        <ele>96.178540</ele>
        <time>2022-01-08T15:58:19.543Z</time>
      </trkpt>
      <trkpt lat="49.377091" lon="8.458160">
        <ele>96.324627</ele>
        <time>2022-01-08T15:58:26.027Z</time>
      </trkpt>
      <trkpt lat="49.377285" lon="8.457937">
        <ele>96.448913</ele>
        <time>2022-01-08T15:58:31.271Z</time>
      </trkpt>
      <trkpt lat="49.379396" lon="8.456786">
        <ele>95.110796</ele>
        <time>2022-01-08T15:59:15.355Z</time>
      </trkpt>
      <trkpt lat="49.379909" lon="8.456483">
        <ele>94.915237</ele>
        <time>2022-01-08T15:59:26.996Z</time>
      </trkpt>
      <trkpt lat="49.380168" lon="8.456388">
        <ele>94.820492</ele>
        <time>2022-01-08T15:59:32.766Z</time>
      </trkpt>
      <trkpt lat="49.380757" lon="8.456660">
        <ele>94.601655</ele>
        <time>2022-01-08T15:59:46.374Z</time>
      </trkpt>
      <trkpt lat="49.382992" lon="8.456632">
        <ele>93.648762</ele>
        <time>2022-01-08T16:00:32.353Z</time>
      </trkpt>
      <trkpt lat="49.384802" lon="8.457420">
        <ele>93.149104</ele>
        <time>2022-01-08T16:01:11.652Z</time>
      </trkpt>
      <trkpt lat="49.385324" lon="8.457623">
        <ele>93.213878</ele>
        <time>2022-01-08T16:01:23.979Z</time>
      </trkpt>
      <trkpt lat="49.386555" lon="8.458412">
        <ele>93.516526</ele>
        <time>2022-01-08T16:01:55.818Z</time>
      </trkpt>
      <trkpt lat="49.386952" lon="8.458592">
        <ele>93.681099</ele>
        <time>2022-01-08T16:02:05.802Z</time>
      </trkpt>
      <trkpt lat="49.387329" lon="8.458451">
        <ele>93.835367</ele>
        <time>2022-01-08T16:02:15.072Z</time>
      </trkpt>
      <trkpt lat="49.387475" lon="8.458478">
        <ele>93.893834</ele>
        <time>2022-01-08T16:02:18.561Z</time>
      </trkpt>
      <trkpt lat="49.388352" lon="8.459433">
        <ele>94.214508</ele>
        <time>2022-01-08T16:02:43.616Z</time>
      </trkpt>
      <trkpt lat="49.391439" lon="8.462705">
        <ele>95.568896</ele>
        <time>2022-01-08T16:04:10.984Z</time>
      </trkpt>
      <trkpt lat="49.392753" lon="8.464040">
        <ele>96.955924</ele>
        <time>2022-01-08T16:04:52.766Z</time>
      </trkpt>
      <trkpt lat="49.392914" lon="8.464348">
        <ele>97.252168</ele>
        <time>2022-01-08T16:04:59.902Z</time>
      </trkpt>
      <trkpt lat="49.394300" lon="8.467471">
        <ele>99.627333</ele>
        <time>2022-01-08T16:06:05.412Z</time>
      </trkpt>
      <trkpt lat="49.394430" lon="8.467774">
        <ele>99.795150</ele>
        <time>2022-01-08T16:06:10.918Z</time>
      </trkpt>
      <trkpt lat="49.394593" lon="8.467953">
        <ele>99.669793</ele>
        <time>2022-01-08T16:06:15.419Z</time>
      </trkpt>
      <trkpt lat="49.395084" lon="8.468290">
        <ele>99.333326</ele>
        <time>2022-01-08T16:06:26.700Z</time>
      </trkpt>
      <trkpt lat="49.395148" lon="8.468397">
        <ele>99.274148</ele>
        <time>2022-01-08T16:06:28.575Z</time>
      </trkpt>
      <trkpt lat="49.395447" lon="8.469562">
        <ele>98.764189</ele>
        <time>2022-01-08T16:06:44.208Z</time>
      </trkpt>
      <trkpt lat="49.395682" lon="8.470982">
        <ele>97.828564</ele>
        <time>2022-01-08T16:07:01.934Z</time>
      </trkpt>
      <trkpt lat="49.395846" lon="8.472092">
        <ele>97.061350</ele>
        <time>2022-01-08T16:07:16.216Z</time>
      </trkpt>
      <trkpt lat="49.395979" lon="8.471803">
        <ele>96.822776</ele>
        <time>2022-01-08T16:07:20.865Z</time>
      </trkpt>
      <trkpt lat="49.396114" lon="8.471543">
        <ele>96.734010</ele>
        <time>2022-01-08T16:07:25.280Z</time>
      </trkpt>
      <trkpt lat="49.396180" lon="8.471418">
        <ele>96.691246</ele>
        <time>2022-01-08T16:07:27.461Z</time>
      </trkpt>
      <trkpt lat="49.396195" lon="8.471389">
        <ele>96.681404</ele>
        <time>2022-01-08T16:07:27.964Z</time>
      </trkpt>
      <trkpt lat="49.396311" lon="8.471172">
        <ele>96.606799</ele>
        <time>2022-01-08T16:07:31.797Z</time>
      </trkpt>
      <trkpt lat="49.397491" lon="8.469024">
        <ele>95.914158</ele>
        <time>2022-01-08T16:08:10.498Z</time>
      </trkpt>
      <trkpt lat="49.397690" lon="8.468989">
        <ele>95.851821</ele>
        <time>2022-01-08T16:08:14.679Z</time>
      </trkpt>
      <trkpt lat="49.397771" lon="8.468976">
        <ele>95.826475</ele>
        <time>2022-01-08T16:08:17.370Z</time>
      </trkpt>
      <trkpt lat="49.397889" lon="8.471580">
        <ele>96.144264</ele>
        <time>2022-01-08T16:08:53.388Z</time>
      </trkpt>
      <trkpt lat="49.397935" lon="8.471836">
        <ele>96.288159</ele>
        <time>2022-01-08T16:08:57.957Z</time>
      </trkpt>
      <trkpt lat="49.398055" lon="8.472090">
        <ele>96.458219</ele>
        <time>2022-01-08T16:09:03.495Z</time>
      </trkpt>
      <trkpt lat="49.398154" lon="8.472671">
        <ele>96.783623</ele>
        <time>2022-01-08T16:09:14.976Z</time>
      </trkpt>
      <trkpt lat="49.398269" lon="8.475010">
        <ele>98.957828</ele>
        <time>2022-01-08T16:10:01.455Z</time>
      </trkpt>
      <trkpt lat="49.398282" lon="8.475253">
        <ele>99.205900</ele>
        <time>2022-01-08T16:10:06.005Z</time>
      </trkpt>
      <trkpt lat="49.398447" lon="8.475802">
        <ele>99.821159</ele>
        <time>2022-01-08T16:10:16.370Z</time>
      </trkpt>
      <trkpt lat="49.399024" lon="8.476897">
        <ele>99.324496</ele>
        <time>2022-01-08T16:10:35.727Z</time>
      </trkpt>
      <trkpt lat="49.399986" lon="8.478787">
        <ele>98.030604</ele>
        <time>2022-01-08T16:11:05.263Z</time>
      </trkpt>
      <trkpt lat="49.400164" lon="8.479012">
        <ele>97.758911</ele>
        <time>2022-01-08T16:11:09.587Z</time>
      </trkpt>
      <trkpt lat="49.400393" lon="8.479223">
        <ele>97.444163</ele>
        <time>2022-01-08T16:11:14.692Z</time>
      </trkpt>
      <trkpt lat="49.402715" lon="8.481065">
        <ele>94.287550</ele>
        <time>2022-01-08T16:12:03.787Z</time>
      </trkpt>
      <trkpt lat="49.403549" lon="8.481753">
        <ele>93.549153</ele>
        <time>2022-01-08T16:12:21.595Z</time>
      </trkpt>
      <trkpt lat="49.404119" lon="8.482239">
        <ele>93.040655</ele>
        <time>2022-01-08T16:12:35.382Z</time>
      </trkpt>
      <trkpt lat="49.404366" lon="8.482455">
        <ele>93.218410</ele>
        <time>2022-01-08T16:12:42.015Z</time>
      </trkpt>
      <trkpt lat="49.405687" lon="8.483567">
        <ele>94.299606</ele>
        <time>2022-01-08T16:13:21.123Z</time>
      </trkpt>
      <trkpt lat="49.405827" lon="8.483629">
        <ele>94.360907</ele>
        <time>2022-01-08T16:13:25.163Z</time>
      </trkpt>
      <trkpt lat="49.405972" lon="8.483324">
        <ele>94.448624</ele>
        <time>2022-01-08T16:13:31.389Z</time>
      </trkpt>
      <trkpt lat="49.406404" lon="8.483705">
        <ele>94.626378</ele>
        <time>2022-01-08T16:13:43.852Z</time>
      </trkpt>
      <trkpt lat="49.406459" lon="8.483754">
        <ele>94.649066</ele>
        <time>2022-01-08T16:13:45.250Z</time>
      </trkpt>
      <trkpt lat="49.406384" lon="8.483955">
        <ele>94.702871</ele>
        <time>2022-01-08T16:13:48.679Z</time>
      </trkpt>
      <trkpt lat="49.406376" lon="8.484127">
        <ele>94.742914</ele>
        <time>2022-01-08T16:13:51.366Z</time>
      </trkpt>
      <trkpt lat="49.409280" lon="8.486515">
        <ele>94.949048</ele>
        <time>2022-01-08T16:15:02.025Z</time>
      </trkpt>
      <trkpt lat="49.409644" lon="8.486811">
        <ele>95.116509</ele>
        <time>2022-01-08T16:15:12.073Z</time>
      </trkpt>
      <trkpt lat="49.409814" lon="8.486949">
        <ele>95.194689</ele>
        <time>2022-01-08T16:15:16.681Z</time>
      </trkpt>
      <trkpt lat="49.410067" lon="8.487157">
        <ele>95.311365</ele>
        <time>2022-01-08T16:15:24.508Z</time>
      </trkpt>
      <trkpt lat="49.410313" lon="8.487360">
        <ele>95.664676</ele>
        <time>2022-01-08T16:15:32.809Z</time>
      </trkpt>
      <trkpt lat="49.411133" lon="8.487700">
        <ele>96.798857</ele>
        <time>2022-01-08T16:15:57.966Z</time>
      </trkpt>
      <trkpt lat="49.411233" lon="8.487781">
        <ele>96.949808</ele>
        <time>2022-01-08T16:16:01.040Z</time>
      </trkpt>
      <trkpt lat="49.411866" lon="8.487984">
        <ele>97.717663</ele>
        <time>2022-01-08T16:16:18.421Z</time>
      </trkpt>
      <trkpt lat="49.414699" lon="8.487790">
        <ele>97.478135</ele>
        <time>2022-01-08T16:17:18.837Z</time>
      </trkpt>
      <trkpt lat="49.415775" lon="8.487626">
        <ele>97.176463</ele>
        <time>2022-01-08T16:17:43.440Z</time>
      </trkpt>
      <trkpt lat="49.416866" lon="8.487281">
        <ele>96.551717</ele>
        <time>2022-01-08T16:18:06.781Z</time>
      </trkpt>
      <trkpt lat="49.417452" lon="8.487179">
        <ele>95.871729</ele>
        <time>2022-01-08T16:18:17.345Z</time>
      </trkpt>
      <trkpt lat="49.418084" lon="8.486866">
        <ele>94.708613</ele>
        <time>2022-01-08T16:18:29.096Z</time>
      </trkpt>
      <trkpt lat="49.418448" lon="8.486766">
        <ele>94.060890</ele>
        <time>2022-01-08T16:18:35.579Z</time>
      </trkpt>
      <trkpt lat="49.418828" lon="8.486453">
        <ele>93.305707</ele>
        <time>2022-01-08T16:18:43.226Z</time>
      </trkpt>
      <trkpt lat="49.419246" lon="8.485973">
        <ele>92.839702</ele>
        <time>2022-01-08T16:18:52.777Z</time>
      </trkpt>
      <trkpt lat="49.419619" lon="8.485392">
        <ele>92.403812</ele>
        <time>2022-01-08T16:19:03.048Z</time>
      </trkpt>
      <trkpt lat="49.422756" lon="8.479606">
        <ele>91.014675</ele>
        <time>2022-01-08T16:20:48.856Z</time>
      </trkpt>
      <trkpt lat="49.423296" lon="8.478905">
        <ele>90.902526</ele>
        <time>2022-01-08T16:21:03.981Z</time>
      </trkpt>
      <trkpt lat="49.423570" lon="8.478635">
        <ele>90.850884</ele>
        <time>2022-01-08T16:21:11.014Z</time>
      </trkpt>
      <trkpt lat="49.424047" lon="8.478265">
        <ele>90.833618</ele>
        <time>2022-01-08T16:21:22.653Z</time>
      </trkpt>
      <trkpt lat="49.424505" lon="8.478049">
        <ele>90.871555</ele>
        <time>2022-01-08T16:21:33.223Z</time>
      </trkpt>
      <trkpt lat="49.425106" lon="8.477925">
        <ele>90.919575</ele>
        <time>2022-01-08T16:21:47.050Z</time>
      </trkpt>
      <trkpt lat="49.425684" lon="8.477944">
        <ele>91.000166</ele>
        <time>2022-01-08T16:22:00.561Z</time>
      </trkpt>
      <trkpt lat="49.425717" lon="8.477853">
        <ele>91.021388</ele>
        <time>2022-01-08T16:22:02.095Z</time>
      </trkpt>
      <trkpt lat="49.425666" lon="8.477542">
        <ele>91.086720</ele>
        <time>2022-01-08T16:22:07.147Z</time>
      </trkpt>
      <trkpt lat="49.425707" lon="8.477454">
        <ele>91.108770</ele>
        <time>2022-01-08T16:22:08.752Z</time>
      </trkpt>
      <trkpt lat="49.425813" lon="8.477425">
        <ele>91.142487</ele>
        <time>2022-01-08T16:22:11.195Z</time>
      </trkpt>
      <trkpt lat="49.425906" lon="8.477405">
        <ele>91.171896</ele>
        <time>2022-01-08T16:22:13.573Z</time>
      </trkpt>
      <trkpt lat="49.425967" lon="8.477465">
        <ele>91.194574</ele>
        <time>2022-01-08T16:22:15.258Z</time>
      </trkpt>
      <trkpt lat="49.426010" lon="8.477812">
        <ele>91.266528</ele>
        <time>2022-01-08T16:22:20.566Z</time>
      </trkpt>
      <trkpt lat="49.426092" lon="8.477954">
        <ele>91.305207</ele>
        <time>2022-01-08T16:22:23.561Z</time>
      </trkpt>
      <trkpt lat="49.426267" lon="8.478076">
        <ele>91.365383</ele>
        <time>2022-01-08T16:22:27.916Z</time>
      </trkpt>
      <trkpt lat="49.427698" lon="8.478546">
        <ele>92.060461</ele>
        <time>2022-01-08T16:23:02.529Z</time>
      </trkpt>
      <trkpt lat="49.428860" lon="8.478819">
        <ele>92.948676</ele>
        <time>2022-01-08T16:23:32.105Z</time>
      </trkpt>
      <trkpt lat="49.428978" lon="8.478732">
        <ele>93.107908</ele>
        <time>2022-01-08T16:23:35.730Z</time>
      </trkpt>
      <trkpt lat="49.429083" lon="8.478402">
        <ele>93.398636</ele>
        <time>2022-01-08T16:23:42.128Z</time>
      </trkpt>
      <trkpt lat="49.429160" lon="8.478423">
        <ele>93.493789</ele>
        <time>2022-01-08T16:23:44.371Z</time>
      </trkpt>
      <trkpt lat="49.429232" lon="8.478443">
        <ele>93.582814</ele>
        <time>2022-01-08T16:23:46.470Z</time>
      </trkpt>
      <trkpt lat="49.429276" lon="8.478835">
        <ele>93.897615</ele>
        <time>2022-01-08T16:23:53.768Z</time>
      </trkpt>
      <trkpt lat="49.429364" lon="8.478948">
        <ele>94.037120</ele>
        <time>2022-01-08T16:23:57.104Z</time>
      </trkpt>
      <trkpt lat="49.430964" lon="8.479188">
        <ele>94.936907</ele>
        <time>2022-01-08T16:24:41.138Z</time>
      </trkpt>
      <trkpt lat="49.432021" lon="8.479222">
        <ele>94.579813</ele>
        <time>2022-01-08T16:25:01.117Z</time>
      </trkpt>
      <trkpt lat="49.432714" lon="8.479269">
        <ele>93.447886</ele>
        <time>2022-01-08T16:25:13.329Z</time>
      </trkpt>
      <trkpt lat="49.433114" lon="8.479330">
        <ele>92.791969</ele>
        <time>2022-01-08T16:25:20.404Z</time>
      </trkpt>
      <trkpt lat="49.433659" lon="8.479572">
        <ele>92.099522</ele>
        <time>2022-01-08T16:25:30.511Z</time>
      </trkpt>
      <trkpt lat="49.435073" lon="8.480842">
        <ele>91.546759</ele>
        <time>2022-01-08T16:26:06.004Z</time>
      </trkpt>
      <trkpt lat="49.435760" lon="8.481557">
        <ele>92.402961</ele>
        <time>2022-01-08T16:26:27.257Z</time>
      </trkpt>
      <trkpt lat="49.435977" lon="8.481772">
        <ele>92.669394</ele>
        <time>2022-01-08T16:26:34.408Z</time>
      </trkpt>
      <trkpt lat="49.436042" lon="8.481727">
        <ele>92.742967</ele>
        <time>2022-01-08T16:26:36.403Z</time>
      </trkpt>
      <trkpt lat="49.436236" lon="8.481936">
        <ele>92.987447</ele>
        <time>2022-01-08T16:26:43.202Z</time>
      </trkpt>
      <trkpt lat="49.436302" lon="8.482028">
        <ele>93.079388</ele>
        <time>2022-01-08T16:26:45.851Z</time>
      </trkpt>
      <trkpt lat="49.436187" lon="8.482215">
        <ele>93.252134</ele>
        <time>2022-01-08T16:26:50.751Z</time>
      </trkpt>
      <trkpt lat="49.436364" lon="8.482307">
        <ele>93.421431</ele>
        <time>2022-01-08T16:26:56.292Z</time>
      </trkpt>
      <trkpt lat="49.437045" lon="8.480474">
        <ele>94.318541</ele>
        <time>2022-01-08T16:27:30.968Z</time>
      </trkpt>
      <trkpt lat="49.437364" lon="8.478850">
        <ele>94.316840</ele>
        <time>2022-01-08T16:27:54.600Z</time>
      </trkpt>
      <trkpt lat="49.437684" lon="8.477632">
        <ele>94.040354</ele>
        <time>2022-01-08T16:28:11.205Z</time>
      </trkpt>
      <trkpt lat="49.438169" lon="8.475290">
        <ele>94.305907</ele>
        <time>2022-01-08T16:28:49.526Z</time>
      </trkpt>
      <trkpt lat="49.438312" lon="8.474771">
        <ele>94.393205</ele>
        <time>2022-01-08T16:28:58.230Z</time>
      </trkpt>
      <trkpt lat="49.438404" lon="8.474077">
        <ele>94.267209</ele>
        <time>2022-01-08T16:29:08.682Z</time>
      </trkpt>
      <trkpt lat="49.438479" lon="8.471502">
        <ele>93.719458</ele>
        <time>2022-01-08T16:29:43.067Z</time>
      </trkpt>
      <trkpt lat="49.438507" lon="8.471253">
        <ele>93.661005</ele>
        <time>2022-01-08T16:29:46.346Z</time>
      </trkpt>
      <trkpt lat="49.438659" lon="8.470888">
        <ele>93.560744</ele>
        <time>2022-01-08T16:29:52.033Z</time>
      </trkpt>
      <trkpt lat="49.438663" lon="8.470570">
        <ele>93.487172</ele>
        <time>2022-01-08T16:29:56.243Z</time>
      </trkpt>
      <trkpt lat="49.438544" lon="8.470183">
        <ele>93.388149</ele>
        <time>2022-01-08T16:30:02.035Z</time>
      </trkpt>
      <trkpt lat="49.438485" lon="8.469756">
        <ele>93.287171</ele>
        <time>2022-01-08T16:30:08.101Z</time>
      </trkpt>
      <trkpt lat="49.438470" lon="8.466067">
        <ele>93.101701</ele>
        <time>2022-01-08T16:31:02.576Z</time>
      </trkpt>
      <trkpt lat="49.438416" lon="8.465594">
        <ele>92.922187</ele>
        <time>2022-01-08T16:31:09.060Z</time>
      </trkpt>
      <trkpt lat="49.438210" lon="8.464037">
        <ele>92.328246</ele>
        <time>2022-01-08T16:31:29.133Z</time>
      </trkpt>
      <trkpt lat="49.438161" lon="8.463650">
        <ele>92.208061</ele>
        <time>2022-01-08T16:31:34.253Z</time>
      </trkpt>
      <trkpt lat="49.438059" lon="8.462830">
        <ele>92.019671</ele>
        <time>2022-01-08T16:31:45.263Z</time>
      </trkpt>
      <trkpt lat="49.437934" lon="8.461975">
        <ele>91.821921</ele>
        <time>2022-01-08T16:31:57.243Z</time>
      </trkpt>
      <trkpt lat="49.437771" lon="8.460966">
        <ele>91.665482</ele>
        <time>2022-01-08T16:32:12.029Z</time>
      </trkpt>
      <trkpt lat="49.437767" lon="8.460931">
        <ele>91.673954</ele>
        <time>2022-01-08T16:32:12.544Z</time>
      </trkpt>
      <trkpt lat="49.437370" lon="8.457402">
        <ele>92.553804</ele>
        <time>2022-01-08T16:33:08.872Z</time>
      </trkpt>
      <trkpt lat="49.437258" lon="8.456004">
        <ele>92.925647</ele>
        <time>2022-01-08T16:33:30.369Z</time>
      </trkpt>
      <trkpt lat="49.437307" lon="8.455289">
        <ele>93.141018</ele>
        <time>2022-01-08T16:33:41.553Z</time>
      </trkpt>
      <trkpt lat="49.437411" lon="8.454813">
        <ele>93.307287</ele>
        <time>2022-01-08T16:33:49.450Z</time>
      </trkpt>
      <trkpt lat="49.437472" lon="8.454545">
        <ele>93.401304</ele>
        <time>2022-01-08T16:33:53.848Z</time>
      </trkpt>
      <trkpt lat="49.437604" lon="8.453966">
        <ele>93.604459</ele>
        <time>2022-01-08T16:34:03.606Z</time>
      </trkpt>
      <trkpt lat="49.437961" lon="8.453195">
        <ele>93.917852</ele>
        <time>2022-01-08T16:34:18.806Z</time>
      </trkpt>
      <trkpt lat="49.437997" lon="8.453136">
        <ele>93.941296</ele>
        <time>2022-01-08T16:34:20.074Z</time>
      </trkpt>
      <trkpt lat="49.439309" lon="8.451030">
        <ele>94.605827</ele>
        <time>2022-01-08T16:35:05.511Z</time>
      </trkpt>
      <trkpt lat="49.439593" lon="8.450751">
        <ele>94.549664</ele>
        <time>2022-01-08T16:35:12.751Z</time>
      </trkpt>
      <trkpt lat="49.441084" lon="8.449856">
        <ele>94.463192</ele>
        <time>2022-01-08T16:35:46.352Z</time>
      </trkpt>
      <trkpt lat="49.441164" lon="8.449325">
        <ele>94.646014</ele>
        <time>2022-01-08T16:35:54.428Z</time>
      </trkpt>
      <trkpt lat="49.441255" lon="8.449284">
        <ele>94.694929</ele>
        <time>2022-01-08T16:35:56.577Z</time>
      </trkpt>
      <trkpt lat="49.443240" lon="8.447302">
        <ele>95.983472</ele>
        <time>2022-01-08T16:36:58.267Z</time>
      </trkpt>
      <trkpt lat="49.443682" lon="8.446974">
        <ele>96.262567</ele>
        <time>2022-01-08T16:37:09.141Z</time>
      </trkpt>
      <trkpt lat="49.444266" lon="8.446145">
        <ele>95.522675</ele>
        <time>2022-01-08T16:37:24.908Z</time>
      </trkpt>
      <trkpt lat="49.444765" lon="8.444565">
        <ele>94.410452</ele>
        <time>2022-01-08T16:37:46.125Z</time>
      </trkpt>
      <trkpt lat="49.444819" lon="8.444397">
        <ele>94.301757</ele>
        <time>2022-01-08T16:37:48.470Z</time>
      </trkpt>
      <trkpt lat="49.444844" lon="8.444313">
        <ele>94.248176</ele>
        <time>2022-01-08T16:37:50.502Z</time>
      </trkpt>
      <trkpt lat="49.444813" lon="8.444238">
        <ele>94.196630</ele>
        <time>2022-01-08T16:37:51.572Z</time>
      </trkpt>
      <trkpt lat="49.444610" lon="8.443688">
        <ele>93.829819</ele>
        <time>2022-01-08T16:37:59.388Z</time>
      </trkpt>
      <trkpt lat="49.444662" lon="8.443304">
        <ele>93.602322</ele>
        <time>2022-01-08T16:38:04.406Z</time>
      </trkpt>
      <trkpt lat="49.444641" lon="8.443049">
        <ele>93.453242</ele>
        <time>2022-01-08T16:38:07.614Z</time>
      </trkpt>
      <trkpt lat="49.444156" lon="8.441826">
        <ele>92.800060</ele>
        <time>2022-01-08T16:38:26.631Z</time>
      </trkpt>
      <trkpt lat="49.443533" lon="8.440055">
        <ele>92.364911</ele>
        <time>2022-01-08T16:38:54.341Z</time>
      </trkpt>
      <trkpt lat="49.443380" lon="8.439418">
        <ele>92.312322</ele>
        <time>2022-01-08T16:39:03.944Z</time>
      </trkpt>
      <trkpt lat="49.442962" lon="8.436110">
        <ele>92.312200</ele>
        <time>2022-01-08T16:39:53.369Z</time>
      </trkpt>
      <trkpt lat="49.443014" lon="8.435450">
        <ele>92.295230</ele>
        <time>2022-01-08T16:40:02.978Z</time>
      </trkpt>
      <trkpt lat="49.443074" lon="8.435272">
        <ele>92.290112</ele>
        <time>2022-01-08T16:40:05.885Z</time>
      </trkpt>
      <trkpt lat="49.442985" lon="8.434346">
        <ele>92.257164</ele>
        <time>2022-01-08T16:40:19.213Z</time>
      </trkpt>
      <trkpt lat="49.445451" lon="8.432399">
        <ele>91.437485</ele>
        <time>2022-01-08T16:41:17.606Z</time>
      </trkpt>
      <trkpt lat="49.446044" lon="8.431722">
        <ele>91.225133</ele>
        <time>2022-01-08T16:41:32.970Z</time>
      </trkpt>
      <trkpt lat="49.446739" lon="8.430939">
        <ele>91.621505</ele>
        <time>2022-01-08T16:41:52.368Z</time>
      </trkpt>
      <trkpt lat="49.446780" lon="8.430891">
        <ele>91.647694</ele>
        <time>2022-01-08T16:41:53.674Z</time>
      </trkpt>
      <trkpt lat="49.446604" lon="8.429509">
        <ele>92.113062</ele>
        <time>2022-01-08T16:42:17.039Z</time>
      </trkpt>
      <trkpt lat="49.446735" lon="8.429436">
        <ele>92.261836</ele>
        <time>2022-01-08T16:42:20.881Z</time>
      </trkpt>
      <trkpt lat="49.446745" lon="8.429134">
        <ele>92.492584</ele>
        <time>2022-01-08T16:42:26.184Z</time>
      </trkpt>
      <trkpt lat="49.447251" lon="8.428832">
        <ele>93.129614</ele>
        <time>2022-01-08T16:42:41.501Z</time>
      </trkpt>
      <trkpt lat="49.447807" lon="8.428403">
        <ele>93.859689</ele>
        <time>2022-01-08T16:42:58.393Z</time>
      </trkpt>
      <trkpt lat="49.448259" lon="8.428222">
        <ele>94.308357</ele>
        <time>2022-01-08T16:43:10.690Z</time>
      </trkpt>
      <trkpt lat="49.448557" lon="8.427934">
        <ele>94.483104</ele>
        <time>2022-01-08T16:43:19.470Z</time>
      </trkpt>
      <trkpt lat="49.449751" lon="8.427139">
        <ele>95.128754</ele>
        <time>2022-01-08T16:43:50.225Z</time>
      </trkpt>
      <trkpt lat="49.450087" lon="8.426811">
        <ele>95.218424</ele>
        <time>2022-01-08T16:43:59.327Z</time>
      </trkpt>
      <trkpt lat="49.450787" lon="8.425886">
        <ele>95.426364</ele>
        <time>2022-01-08T16:44:20.412Z</time>
      </trkpt>
      <trkpt lat="49.451275" lon="8.424880">
        <ele>95.641428</ele>
        <time>2022-01-08T16:44:39.389Z</time>
      </trkpt>
      <trkpt lat="49.451479" lon="8.424579">
        <ele>95.731099</ele>
        <time>2022-01-08T16:44:46.400Z</time>
      </trkpt>
      <trkpt lat="49.451759" lon="8.424800">
        <ele>95.830932</ele>
        <time>2022-01-08T16:44:56.354Z</time>
      </trkpt>
      <trkpt lat="49.451889" lon="8.424771">
        <ele>95.872602</ele>
        <time>2022-01-08T16:45:00.456Z</time>
      </trkpt>
      <trkpt lat="49.452098" lon="8.424876">
        <ele>95.942348</ele>
        <time>2022-01-08T16:45:07.232Z</time>
      </trkpt>
      <trkpt lat="49.452183" lon="8.424986">
        <ele>95.977585</ele>
        <time>2022-01-08T16:45:10.606Z</time>
      </trkpt>
      <trkpt lat="49.452317" lon="8.424980">
        <ele>96.020111</ele>
        <time>2022-01-08T16:45:14.584Z</time>
      </trkpt>
      <trkpt lat="49.452601" lon="8.425099">
        <ele>96.093725</ele>
        <time>2022-01-08T16:45:23.397Z</time>
      </trkpt>
      <trkpt lat="49.452713" lon="8.425146">
        <ele>96.051242</ele>
        <time>2022-01-08T16:45:26.824Z</time>
      </trkpt>
      <trkpt lat="49.452760" lon="8.425167">
        <ele>96.033332</ele>
        <time>2022-01-08T16:45:28.297Z</time>
      </trkpt>
      <trkpt lat="49.453201" lon="8.425375">
        <ele>95.864537</ele>
        <time>2022-01-08T16:45:41.378Z</time>
      </trkpt>
      <trkpt lat="49.453555" lon="8.425560">
        <ele>95.727723</ele>
        <time>2022-01-08T16:45:52.054Z</time>
      </trkpt>
      <trkpt lat="49.453682" lon="8.425658">
        <ele>95.675729</ele>
        <time>2022-01-08T16:45:55.966Z</time>
      </trkpt>
      <trkpt lat="49.453727" lon="8.425700">
        <ele>95.656468</ele>
        <time>2022-01-08T16:45:57.465Z</time>
      </trkpt>
      <trkpt lat="49.453750" lon="8.425721">
        <ele>95.646681</ele>
        <time>2022-01-08T16:45:58.240Z</time>
      </trkpt>
      <trkpt lat="49.454333" lon="8.426447">
        <ele>95.321997</ele>
        <time>2022-01-08T16:46:18.254Z</time>
      </trkpt>
      <trkpt lat="49.454823" lon="8.426590">
        <ele>95.015541</ele>
        <time>2022-01-08T16:46:31.367Z</time>
      </trkpt>
      <trkpt lat="49.455070" lon="8.427004">
        <ele>94.791086</ele>
        <time>2022-01-08T16:46:41.170Z</time>
      </trkpt>
      <trkpt lat="49.455131" lon="8.427127">
        <ele>94.729291</ele>
        <time>2022-01-08T16:46:43.863Z</time>
      </trkpt>
      <trkpt lat="49.455159" lon="8.427190">
        <ele>94.698808</ele>
        <time>2022-01-08T16:46:45.207Z</time>
      </trkpt>
      <trkpt lat="49.455189" lon="8.427267">
        <ele>94.662951</ele>
        <time>2022-01-08T16:46:46.777Z</time>
      </trkpt>
      <trkpt lat="49.455950" lon="8.429408">
        <ele>94.101327</ele>
        <time>2022-01-08T16:47:31.508Z</time>
      </trkpt>
      <trkpt lat="49.456967" lon="8.432434">
        <ele>93.831057</ele>
        <time>2022-01-08T16:48:35.407Z</time>
      </trkpt>
      <trkpt lat="49.457023" lon="8.432600">
        <ele>93.822491</ele>
        <time>2022-01-08T16:48:38.211Z</time>
      </trkpt>
      <trkpt lat="49.457091" lon="8.432801">
        <ele>93.812114</ele>
        <time>2022-01-08T16:48:41.654Z</time>
      </trkpt>
      <trkpt lat="49.457348" lon="8.433447">
        <ele>93.822803</ele>
        <time>2022-01-08T16:48:56.082Z</time>
      </trkpt>
      <trkpt lat="49.457754" lon="8.434206">
        <ele>93.843628</ele>
        <time>2022-01-08T16:49:15.016Z</time>
      </trkpt>
      <trkpt lat="49.458339" lon="8.434869">
        <ele>93.866885</ele>
        <time>2022-01-08T16:49:36.566Z</time>
      </trkpt>
      <trkpt lat="49.458764" lon="8.435122">
        <ele>93.854904</ele>
        <time>2022-01-08T16:49:49.982Z</time>
      </trkpt>
      <trkpt lat="49.460622" lon="8.435808">
        <ele>93.655978</ele>
        <time>2022-01-08T16:50:45.317Z</time>
      </trkpt>
      <trkpt lat="49.462265" lon="8.436599">
        <ele>93.142767</ele>
        <time>2022-01-08T16:51:33.331Z</time>
      </trkpt>
      <trkpt lat="49.462587" lon="8.436766">
        <ele>93.030412</ele>
        <time>2022-01-08T16:51:42.743Z</time>
      </trkpt>
      <trkpt lat="49.463040" lon="8.436970">
        <ele>92.874345</ele>
        <time>2022-01-08T16:51:55.731Z</time>
      </trkpt>
      <trkpt lat="49.463133" lon="8.437001">
        <ele>92.842881</ele>
        <time>2022-01-08T16:51:58.363Z</time>
      </trkpt>
      <trkpt lat="49.464072" lon="8.437219">
        <ele>92.811394</ele>
        <time>2022-01-08T16:52:25.743Z</time>
      </trkpt>
      <trkpt lat="49.464554" lon="8.437480">
        <ele>92.902115</ele>
        <time>2022-01-08T16:52:41.672Z</time>
      </trkpt>
      <trkpt lat="49.464614" lon="8.437448">
        <ele>92.913389</ele>
        <time>2022-01-08T16:52:43.478Z</time>
      </trkpt>
      <trkpt lat="49.464804" lon="8.437769">
        <ele>92.963487</ele>
        <time>2022-01-08T16:52:50.158Z</time>
      </trkpt>
      <trkpt lat="49.464923" lon="8.437965">
        <ele>92.994436</ele>
        <time>2022-01-08T16:52:54.079Z</time>
      </trkpt>
      <trkpt lat="49.464986" lon="8.437975">
        <ele>93.005681</ele>
        <time>2022-01-08T16:52:55.625Z</time>
      </trkpt>
      <trkpt lat="49.465249" lon="8.438398">
        <ele>93.112383</ele>
        <time>2022-01-08T16:53:04.560Z</time>
      </trkpt>
      <trkpt lat="49.465238" lon="8.438571">
        <ele>93.151504</ele>
        <time>2022-01-08T16:53:07.366Z</time>
      </trkpt>
      <trkpt lat="49.465464" lon="8.438943">
        <ele>93.266109</ele>
        <time>2022-01-08T16:53:15.582Z</time>
      </trkpt>
      <trkpt lat="49.465667" lon="8.439259">
        <ele>93.366107</ele>
        <time>2022-01-08T16:53:22.818Z</time>
      </trkpt>
      <trkpt lat="49.465792" lon="8.439468">
        <ele>93.430031</ele>
        <time>2022-01-08T16:53:27.489Z</time>
      </trkpt>
      <trkpt lat="49.467448" lon="8.442223">
        <ele>94.254309</ele>
        <time>2022-01-08T16:54:26.162Z</time>
      </trkpt>
      <trkpt lat="49.468332" lon="8.443693">
        <ele>95.364810</ele>
        <time>2022-01-08T16:55:01.200Z</time>
      </trkpt>
      <trkpt lat="49.468408" lon="8.443835">
        <ele>95.467246</ele>
        <time>2022-01-08T16:55:04.589Z</time>
      </trkpt>
      <trkpt lat="49.468476" lon="8.443967">
        <ele>95.561043</ele>
        <time>2022-01-08T16:55:07.744Z</time>
      </trkpt>
      <trkpt lat="49.469613" lon="8.445808">
        <ele>96.721289</ele>
        <time>2022-01-08T16:55:51.756Z</time>
      </trkpt>
      <trkpt lat="49.470054" lon="8.446551">
        <ele>96.935810</ele>
        <time>2022-01-08T16:56:11.546Z</time>
      </trkpt>
      <trkpt lat="49.470096" lon="8.446623">
        <ele>96.916209</ele>
        <time>2022-01-08T16:56:13.434Z</time>
      </trkpt>
      <trkpt lat="49.470850" lon="8.447653">
        <ele>96.601893</ele>
        <time>2022-01-08T16:56:41.282Z</time>
      </trkpt>
      <trkpt lat="49.470974" lon="8.447813">
        <ele>96.551445</ele>
        <time>2022-01-08T16:56:45.552Z</time>
      </trkpt>
      <trkpt lat="49.471304" lon="8.448228">
        <ele>96.424458</ele>
        <time>2022-01-08T16:56:57.016Z</time>
      </trkpt>
      <trkpt lat="49.472173" lon="8.449376">
        <ele>96.142961</ele>
        <time>2022-01-08T16:57:29.641Z</time>
      </trkpt>
      <trkpt lat="49.472358" lon="8.449630">
        <ele>96.082023</ele>
        <time>2022-01-08T16:57:36.638Z</time>
      </trkpt>
      <trkpt lat="49.472440" lon="8.449742">
        <ele>96.055075</ele>
        <time>2022-01-08T16:57:39.645Z</time>
      </trkpt>
      <trkpt lat="49.472561" lon="8.449898">
        <ele>96.016277</ele>
        <time>2022-01-08T16:57:43.990Z</time>
      </trkpt>
      <trkpt lat="49.472629" lon="8.449987">
        <ele>96.037842</ele>
        <time>2022-01-08T16:57:46.529Z</time>
      </trkpt>
      <trkpt lat="49.472867" lon="8.450223">
        <ele>96.273343</ele>
        <time>2022-01-08T16:57:54.907Z</time>
      </trkpt>
      <trkpt lat="49.472957" lon="8.450327">
        <ele>96.366958</ele>
        <time>2022-01-08T16:57:58.436Z</time>
      </trkpt>
      <trkpt lat="49.473048" lon="8.450443">
        <ele>96.465245</ele>
        <time>2022-01-08T16:58:02.086Z</time>
      </trkpt>
      <trkpt lat="49.473094" lon="8.450502">
        <ele>96.515054</ele>
        <time>2022-01-08T16:58:03.984Z</time>
      </trkpt>
      <trkpt lat="49.473426" lon="8.450684">
        <ele>96.808202</ele>
        <time>2022-01-08T16:58:15.991Z</time>
      </trkpt>
      <trkpt lat="49.473588" lon="8.450664">
        <ele>96.943383</ele>
        <time>2022-01-08T16:58:21.920Z</time>
      </trkpt>
      <trkpt lat="49.473881" lon="8.450786">
        <ele>97.195858</ele>
        <time>2022-01-08T16:58:32.737Z</time>
      </trkpt>
      <trkpt lat="49.474047" lon="8.450716">
        <ele>97.339023</ele>
        <time>2022-01-08T16:58:38.627Z</time>
      </trkpt>
      <trkpt lat="49.474208" lon="8.450752">
        <ele>97.474346</ele>
        <time>2022-01-08T16:58:43.176Z</time>
      </trkpt>
      <trkpt lat="49.474190" lon="8.451875">
        <ele>97.894032</ele>
        <time>2022-01-08T16:59:01.177Z</time>
      </trkpt>
      <trkpt lat="49.474225" lon="8.452882">
        <ele>98.263263</ele>
        <time>2022-01-08T16:59:17.365Z</time>
      </trkpt>
      <trkpt lat="49.474255" lon="8.454464">
        <ele>97.856090</ele>
        <time>2022-01-08T16:59:40.948Z</time>
      </trkpt>
      <trkpt lat="49.474260" lon="8.454664">
        <ele>97.709546</ele>
        <time>2022-01-08T16:59:43.329Z</time>
      </trkpt>
      <trkpt lat="49.474265" lon="8.454948">
        <ele>97.501531</ele>
        <time>2022-01-08T16:59:46.767Z</time>
      </trkpt>
      <trkpt lat="49.474273" lon="8.455290">
        <ele>97.250964</ele>
        <time>2022-01-08T16:59:50.647Z</time>
      </trkpt>
      <trkpt lat="49.474275" lon="8.455388">
        <ele>97.179175</ele>
        <time>2022-01-08T16:59:51.802Z</time>
      </trkpt>
      <trkpt lat="49.474279" lon="8.455550">
        <ele>97.060477</ele>
        <time>2022-01-08T16:59:53.589Z</time>
      </trkpt>
      <trkpt lat="49.474281" lon="8.455649">
        <ele>96.987956</ele>
        <time>2022-01-08T16:59:54.667Z</time>
      </trkpt>
      <trkpt lat="49.474291" lon="8.456189">
        <ele>96.592419</ele>
        <time>2022-01-08T17:00:00.918Z</time>
      </trkpt>
      <trkpt lat="49.474292" lon="8.456240">
        <ele>96.555061</ele>
        <time>2022-01-08T17:00:01.516Z</time>
      </trkpt>
      <trkpt lat="49.474294" lon="8.456311">
        <ele>96.503028</ele>
        <time>2022-01-08T17:00:02.349Z</time>
      </trkpt>
      <trkpt lat="49.474303" lon="8.456785">
        <ele>95.948640</ele>
        <time>2022-01-08T17:00:07.974Z</time>
      </trkpt>
      <trkpt lat="49.474304" lon="8.456805">
        <ele>95.924769</ele>
        <time>2022-01-08T17:00:08.212Z</time>
      </trkpt>
      <trkpt lat="49.474305" lon="8.456889">
        <ele>95.824787</ele>
        <time>2022-01-08T17:00:09.213Z</time>
      </trkpt>
      <trkpt lat="49.474311" lon="8.457288">
        <ele>95.349826</ele>
        <time>2022-01-08T17:00:13.925Z</time>
      </trkpt>
      <trkpt lat="49.474311" lon="8.457328">
        <ele>95.302224</ele>
        <time>2022-01-08T17:00:14.378Z</time>
      </trkpt>
      <trkpt lat="49.474313" lon="8.457440">
        <ele>95.168887</ele>
        <time>2022-01-08T17:00:15.657Z</time>
      </trkpt>
      <trkpt lat="49.474314" lon="8.457513">
        <ele>95.081993</ele>
        <time>2022-01-08T17:00:16.483Z</time>
      </trkpt>
      <trkpt lat="49.474316" lon="8.457611">
        <ele>94.965310</ele>
        <time>2022-01-08T17:00:17.568Z</time>
      </trkpt>
      <trkpt lat="49.474379" lon="8.457683">
        <ele>94.821592</ele>
        <time>2022-01-08T17:00:18.836Z</time>
      </trkpt>
      <trkpt lat="49.474382" lon="8.457806">
        <ele>94.675112</ele>
        <time>2022-01-08T17:00:20.620Z</time>
      </trkpt>
      <trkpt lat="49.474390" lon="8.458186">
        <ele>94.222653</ele>
        <time>2022-01-08T17:00:26.243Z</time>
      </trkpt>
      <trkpt lat="49.474420" lon="8.458387">
        <ele>93.977222</ele>
        <time>2022-01-08T17:00:35.595Z</time>
      </trkpt>
      <trkpt lat="49.474523" lon="8.458450">
        <ele>93.774229</ele>
        <time>2022-01-08T17:00:38.330Z</time>
      </trkpt>
      <trkpt lat="49.474932" lon="8.458630">
        <ele>93.156578</ele>
        <time>2022-01-08T17:00:49.595Z</time>
      </trkpt>
      <trkpt lat="49.475153" lon="8.458669">
        <ele>93.081591</ele>
        <time>2022-01-08T17:00:55.925Z</time>
      </trkpt>
      <trkpt lat="49.475370" lon="8.458671">
        <ele>93.008439</ele>
        <time>2022-01-08T17:01:01.660Z</time>
      </trkpt>
      <trkpt lat="49.475589" lon="8.458633">
        <ele>92.934147</ele>
        <time>2022-01-08T17:01:07.710Z</time>
      </trkpt>
      <trkpt lat="49.475696" lon="8.458606">
        <ele>92.897596</ele>
        <time>2022-01-08T17:01:10.752Z</time>
      </trkpt>
      <trkpt lat="49.475802" lon="8.458571">
        <ele>92.861050</ele>
        <time>2022-01-08T17:01:14.033Z</time>
      </trkpt>
      <trkpt lat="49.476003" lon="8.458474">
        <ele>92.790040</ele>
        <time>2022-01-08T17:01:19.984Z</time>
      </trkpt>
      <trkpt lat="49.476129" lon="8.458389">
        <ele>92.743665</ele>
        <time>2022-01-08T17:01:23.838Z</time>
      </trkpt>
      <trkpt lat="49.476171" lon="8.458361">
        <ele>92.728235</ele>
        <time>2022-01-08T17:01:25.172Z</time>
      </trkpt>
      <trkpt lat="49.476212" lon="8.458333">
        <ele>92.713115</ele>
        <time>2022-01-08T17:01:26.403Z</time>
      </trkpt>
      <trkpt lat="49.476408" lon="8.458199">
        <ele>92.640817</ele>
        <time>2022-01-08T17:01:32.245Z</time>
      </trkpt>
      <trkpt lat="49.476502" lon="8.458134">
        <ele>92.606079</ele>
        <time>2022-01-08T17:01:35.270Z</time>
      </trkpt>
      <trkpt lat="49.476829" lon="8.457911">
        <ele>92.824732</ele>
        <time>2022-01-08T17:01:45.985Z</time>
      </trkpt>
      <trkpt lat="49.476915" lon="8.457853">
        <ele>92.899214</ele>
        <time>2022-01-08T17:01:49.232Z</time>
      </trkpt>
      <trkpt lat="49.477331" lon="8.457557">
        <ele>93.262763</ele>
        <time>2022-01-08T17:02:07.020Z</time>
      </trkpt>
      <trkpt lat="49.477745" lon="8.457238">
        <ele>93.630023</ele>
        <time>2022-01-08T17:02:23.554Z</time>
      </trkpt>
      <trkpt lat="49.478122" lon="8.456925">
        <ele>93.969813</ele>
        <time>2022-01-08T17:02:35.110Z</time>
      </trkpt>
      <trkpt lat="49.478156" lon="8.456897">
        <ele>94.000401</ele>
        <time>2022-01-08T17:02:36.271Z</time>
      </trkpt>
      <trkpt lat="49.478178" lon="8.456878">
        <ele>94.012785</ele>
        <time>2022-01-08T17:02:37.021Z</time>
      </trkpt>
      <trkpt lat="49.478538" lon="8.456539">
        <ele>93.981508</ele>
        <time>2022-01-08T17:02:49.038Z</time>
      </trkpt>
      <trkpt lat="49.478826" lon="8.456264">
        <ele>93.956390</ele>
        <time>2022-01-08T17:02:58.950Z</time>
      </trkpt>
      <trkpt lat="49.479001" lon="8.456124">
        <ele>93.941774</ele>
        <time>2022-01-08T17:03:04.284Z</time>
      </trkpt>
      <trkpt lat="49.479144" lon="8.455983">
        <ele>93.929188</ele>
        <time>2022-01-08T17:03:10.070Z</time>
      </trkpt>
      <trkpt lat="49.479423" lon="8.455701">
        <ele>93.904451</ele>
        <time>2022-01-08T17:03:20.129Z</time>
      </trkpt>
      <trkpt lat="49.479630" lon="8.455486">
        <ele>93.885944</ele>
        <time>2022-01-08T17:03:27.228Z</time>
      </trkpt>
      <trkpt lat="49.479717" lon="8.455393">
        <ele>93.880590</ele>
        <time>2022-01-08T17:03:30.340Z</time>
      </trkpt>
      <trkpt lat="49.479973" lon="8.455119">
        <ele>93.885681</ele>
        <time>2022-01-08T17:03:38.754Z</time>
      </trkpt>
      <trkpt lat="49.480853" lon="8.454146">
        <ele>93.903374</ele>
        <time>2022-01-08T17:04:08.660Z</time>
      </trkpt>
      <trkpt lat="49.480904" lon="8.454088">
        <ele>93.904409</ele>
        <time>2022-01-08T17:04:10.665Z</time>
      </trkpt>
      <trkpt lat="49.480757" lon="8.453765">
        <ele>93.908593</ele>
        <time>2022-01-08T17:04:20.021Z</time>
      </trkpt>
      <trkpt lat="49.481358" lon="8.453039">
        <ele>94.801995</ele>
        <time>2022-01-08T17:04:40.000Z</time>
      </trkpt>
      <trkpt lat="49.481438" lon="8.452894">
        <ele>94.957808</ele>
        <time>2022-01-08T17:04:43.414Z</time>
      </trkpt>
      <trkpt lat="49.482506" lon="8.451930">
        <ele>96.440449</ele>
        <time>2022-01-08T17:05:18.404Z</time>
      </trkpt>
      <trkpt lat="49.482922" lon="8.451421">
        <ele>96.956967</ele>
        <time>2022-01-08T17:05:33.328Z</time>
      </trkpt>
      <trkpt lat="49.483000" lon="8.451265">
        <ele>97.081270</ele>
        <time>2022-01-08T17:05:36.139Z</time>
      </trkpt>
      <trkpt lat="49.482995" lon="8.451244">
        <ele>97.095392</ele>
        <time>2022-01-08T17:05:36.517Z</time>
      </trkpt>
      <trkpt lat="49.482984" lon="8.451196">
        <ele>97.127533</ele>
        <time>2022-01-08T17:05:37.442Z</time>
      </trkpt>
      <trkpt lat="49.482944" lon="8.451089">
        <ele>97.205485</ele>
        <time>2022-01-08T17:05:39.794Z</time>
      </trkpt>
      <trkpt lat="49.482931" lon="8.451061">
        <ele>97.227217</ele>
        <time>2022-01-08T17:05:40.540Z</time>
      </trkpt>
      <trkpt lat="49.482732" lon="8.450647">
        <ele>97.552413</ele>
        <time>2022-01-08T17:05:51.124Z</time>
      </trkpt>
      <trkpt lat="49.482742" lon="8.450547">
        <ele>97.616303</ele>
        <time>2022-01-08T17:05:53.577Z</time>
      </trkpt>
      <trkpt lat="49.483806" lon="8.448940">
        <ele>97.824042</ele>
        <time>2022-01-08T17:06:28.238Z</time>
      </trkpt>
      <trkpt lat="49.484316" lon="8.448275">
        <ele>97.746473</ele>
        <time>2022-01-08T17:06:41.355Z</time>
      </trkpt>
      <trkpt lat="49.484346" lon="8.448237">
        <ele>97.724961</ele>
        <time>2022-01-08T17:06:42.157Z</time>
      </trkpt>
      <trkpt lat="49.484994" lon="8.447326">
        <ele>97.239041</ele>
        <time>2022-01-08T17:07:05.741Z</time>
      </trkpt>
      <trkpt lat="49.485376" lon="8.446793">
        <ele>96.953568</ele>
        <time>2022-01-08T17:07:19.758Z</time>
      </trkpt>
      <trkpt lat="49.485553" lon="8.446507">
        <ele>96.811483</ele>
        <time>2022-01-08T17:07:25.383Z</time>
      </trkpt>
      <trkpt lat="49.486128" lon="8.445811">
        <ele>96.763069</ele>
        <time>2022-01-08T17:07:40.893Z</time>
      </trkpt>
      <trkpt lat="49.486166" lon="8.445763">
        <ele>96.762252</ele>
        <time>2022-01-08T17:07:41.892Z</time>
      </trkpt>
      <trkpt lat="49.486218" lon="8.445701">
        <ele>96.761158</ele>
        <time>2022-01-08T17:07:43.231Z</time>
      </trkpt>
      <trkpt lat="49.486530" lon="8.445313">
        <ele>96.754490</ele>
        <time>2022-01-08T17:07:51.968Z</time>
      </trkpt>
      <trkpt lat="49.486863" lon="8.444770">
        <ele>96.746425</ele>
        <time>2022-01-08T17:08:03.127Z</time>
      </trkpt>
      <trkpt lat="49.487403" lon="8.443913">
        <ele>97.152255</ele>
        <time>2022-01-08T17:08:23.600Z</time>
      </trkpt>
      <trkpt lat="49.487786" lon="8.443306">
        <ele>97.501616</ele>
        <time>2022-01-08T17:08:41.746Z</time>
      </trkpt>
      <trkpt lat="49.488156" lon="8.443074">
        <ele>97.755526</ele>
        <time>2022-01-08T17:08:54.401Z</time>
      </trkpt>
      <trkpt lat="49.488345" lon="8.442809">
        <ele>97.870305</ele>
        <time>2022-01-08T17:09:02.064Z</time>
      </trkpt>
      <trkpt lat="49.488403" lon="8.442447">
        <ele>97.784904</ele>
        <time>2022-01-08T17:09:09.479Z</time>
      </trkpt>
      <trkpt lat="49.488404" lon="8.442337">
        <ele>97.759706</ele>
        <time>2022-01-08T17:09:11.134Z</time>
      </trkpt>
      <trkpt lat="49.488402" lon="8.442127">
        <ele>97.711601</ele>
        <time>2022-01-08T17:09:15.411Z</time>
      </trkpt>
      <trkpt lat="49.488649" lon="8.442228">
        <ele>97.621488</ele>
        <time>2022-01-08T17:09:22.589Z</time>
      </trkpt>
      <trkpt lat="49.488984" lon="8.442089">
        <ele>97.499152</ele>
        <time>2022-01-08T17:09:32.231Z</time>
      </trkpt>
      <trkpt lat="49.489167" lon="8.441909">
        <ele>97.422579</ele>
        <time>2022-01-08T17:09:38.139Z</time>
      </trkpt>
      <trkpt lat="49.489321" lon="8.441542">
        <ele>97.322506</ele>
        <time>2022-01-08T17:09:45.736Z</time>
      </trkpt>
      <trkpt lat="49.489410" lon="8.441126">
        <ele>97.183114</ele>
        <time>2022-01-08T17:09:52.996Z</time>
      </trkpt>
      <trkpt lat="49.489423" lon="8.441060">
        <ele>97.147363</ele>
        <time>2022-01-08T17:09:54.271Z</time>
      </trkpt>
      <trkpt lat="49.490251" lon="8.440277">
        <ele>96.371914</ele>
        <time>2022-01-08T17:10:19.132Z</time>
      </trkpt>
      <trkpt lat="49.490478" lon="8.440009">
        <ele>96.143631</ele>
        <time>2022-01-08T17:10:26.801Z</time>
      </trkpt>
      <trkpt lat="49.491080" lon="8.439064">
        <ele>96.100741</ele>
        <time>2022-01-08T17:10:51.449Z</time>
      </trkpt>
      <trkpt lat="49.491525" lon="8.438600">
        <ele>96.437566</ele>
        <time>2022-01-08T17:11:09.273Z</time>
      </trkpt>
      <trkpt lat="49.491605" lon="8.438569">
        <ele>96.489265</ele>
        <time>2022-01-08T17:11:11.961Z</time>
      </trkpt>
      <trkpt lat="49.491690" lon="8.438505">
        <ele>96.548564</ele>
        <time>2022-01-08T17:11:14.989Z</time>
      </trkpt>
      <trkpt lat="49.491714" lon="8.438329">
        <ele>96.621771</ele>
        <time>2022-01-08T17:11:18.892Z</time>
      </trkpt>
      <trkpt lat="49.491720" lon="8.438285">
        <ele>96.640072</ele>
        <time>2022-01-08T17:11:19.976Z</time>
      </trkpt>
      <trkpt lat="49.491799" lon="8.438214">
        <ele>96.697400</ele>
        <time>2022-01-08T17:11:23.083Z</time>
      </trkpt>
      <trkpt lat="49.491924" lon="8.438105">
        <ele>96.787431</ele>
        <time>2022-01-08T17:11:27.777Z</time>
      </trkpt>
      <trkpt lat="49.492133" lon="8.437932">
        <ele>96.936142</ele>
        <time>2022-01-08T17:11:35.902Z</time>
      </trkpt>
      <trkpt lat="49.492324" lon="8.437788">
        <ele>96.987322</ele>
        <time>2022-01-08T17:11:42.922Z</time>
      </trkpt>
      <trkpt lat="49.492406" lon="8.437740">
        <ele>97.006020</ele>
        <time>2022-01-08T17:11:45.959Z</time>
      </trkpt>
      <trkpt lat="49.492400" lon="8.437634">
        <ele>97.020751</ele>
        <time>2022-01-08T17:11:47.623Z</time>
      </trkpt>
      <trkpt lat="49.492393" lon="8.437470">
        <ele>97.043505</ele>
        <time>2022-01-08T17:11:50.246Z</time>
      </trkpt>
      <trkpt lat="49.492386" lon="8.437280">
        <ele>97.069852</ele>
        <time>2022-01-08T17:11:53.283Z</time>
      </trkpt>
      <trkpt lat="49.492480" lon="8.436943">
        <ele>97.120627</ele>
        <time>2022-01-08T17:11:58.921Z</time>
      </trkpt>
      <trkpt lat="49.492588" lon="8.436680">
        <ele>97.163705</ele>
        <time>2022-01-08T17:12:03.714Z</time>
      </trkpt>
      <trkpt lat="49.492784" lon="8.436558">
        <ele>97.208765</ele>
        <time>2022-01-08T17:12:08.541Z</time>
      </trkpt>
      <trkpt lat="49.493004" lon="8.436265">
        <ele>97.270767</ele>
        <time>2022-01-08T17:12:16.667Z</time>
      </trkpt>
      <trkpt lat="49.493267" lon="8.435912">
        <ele>97.325039</ele>
        <time>2022-01-08T17:12:40.948Z</time>
      </trkpt>
      <trkpt lat="49.493431" lon="8.435691">
        <ele>97.315806</ele>
        <time>2022-01-08T17:12:56.114Z</time>
      </trkpt>
      <trkpt lat="49.493471" lon="8.435627">
        <ele>97.313362</ele>
        <time>2022-01-08T17:12:57.859Z</time>
      </trkpt>
      <trkpt lat="49.494166" lon="8.434650">
        <ele>97.273490</ele>
        <time>2022-01-08T17:13:19.458Z</time>
      </trkpt>
      <trkpt lat="49.494180" lon="8.434566">
        <ele>97.271103</ele>
        <time>2022-01-08T17:13:20.504Z</time>
      </trkpt>
      <trkpt lat="49.494254" lon="8.434456">
        <ele>97.266745</ele>
        <time>2022-01-08T17:13:23.748Z</time>
      </trkpt>
      <trkpt lat="49.494826" lon="8.433556">
        <ele>97.173240</ele>
        <time>2022-01-08T17:13:50.112Z</time>
      </trkpt>
      <trkpt lat="49.495212" lon="8.432908">
        <ele>97.078109</ele>
        <time>2022-01-08T17:14:02.289Z</time>
      </trkpt>
      <trkpt lat="49.495484" lon="8.432369">
        <ele>97.004259</ele>
        <time>2022-01-08T17:14:12.253Z</time>
      </trkpt>
      <trkpt lat="49.495587" lon="8.432124">
        <ele>96.972684</ele>
        <time>2022-01-08T17:14:19.090Z</time>
      </trkpt>
      <trkpt lat="49.495798" lon="8.431580">
        <ele>96.887641</ele>
        <time>2022-01-08T17:14:33.188Z</time>
      </trkpt>
      <trkpt lat="49.495845" lon="8.431420">
        <ele>96.862173</ele>
        <time>2022-01-08T17:14:35.485Z</time>
      </trkpt>
      <trkpt lat="49.495886" lon="8.431282">
        <ele>96.840163</ele>
        <time>2022-01-08T17:14:37.505Z</time>
      </trkpt>
      <trkpt lat="49.495933" lon="8.431112">
        <ele>96.813367</ele>
        <time>2022-01-08T17:14:40.062Z</time>
      </trkpt>
      <trkpt lat="49.496475" lon="8.427654">
        <ele>96.808212</ele>
        <time>2022-01-08T17:15:33.786Z</time>
      </trkpt>
      <trkpt lat="49.496547" lon="8.427433">
        <ele>96.844611</ele>
        <time>2022-01-08T17:15:38.019Z</time>
      </trkpt>
      <trkpt lat="49.496676" lon="8.427266">
        <ele>96.882813</ele>
        <time>2022-01-08T17:15:42.474Z</time>
      </trkpt>
      <trkpt lat="49.496706" lon="8.427241">
        <ele>96.890545</ele>
        <time>2022-01-08T17:15:43.407Z</time>
      </trkpt>
      <trkpt lat="49.496863" lon="8.427122">
        <ele>96.930210</ele>
        <time>2022-01-08T17:15:47.878Z</time>
      </trkpt>
      <trkpt lat="49.497076" lon="8.426979">
        <ele>96.959853</ele>
        <time>2022-01-08T17:15:53.868Z</time>
      </trkpt>
      <trkpt lat="49.497194" lon="8.426822">
        <ele>96.961664</ele>
        <time>2022-01-08T17:15:57.674Z</time>
      </trkpt>
      <trkpt lat="49.499692" lon="8.424926">
        <ele>96.622073</ele>
        <time>2022-01-08T17:17:00.729Z</time>
      </trkpt>
      <trkpt lat="49.499932" lon="8.424732">
        <ele>96.544530</ele>
        <time>2022-01-08T17:17:08.182Z</time>
      </trkpt>
      <trkpt lat="49.500097" lon="8.424556">
        <ele>96.487108</ele>
        <time>2022-01-08T17:17:13.689Z</time>
      </trkpt>
      <trkpt lat="49.500115" lon="8.424529">
        <ele>96.479919</ele>
        <time>2022-01-08T17:17:14.371Z</time>
      </trkpt>
      <trkpt lat="49.500865" lon="8.423548">
        <ele>95.969576</ele>
        <time>2022-01-08T17:17:40.883Z</time>
      </trkpt>
      <trkpt lat="49.500960" lon="8.423377">
        <ele>95.891877</ele>
        <time>2022-01-08T17:17:44.892Z</time>
      </trkpt>
      <trkpt lat="49.501337" lon="8.422520">
        <ele>95.534479</ele>
        <time>2022-01-08T17:18:03.617Z</time>
      </trkpt>
      <trkpt lat="49.501563" lon="8.421713">
        <ele>95.360705</ele>
        <time>2022-01-08T17:18:19.584Z</time>
      </trkpt>
      <trkpt lat="49.501708" lon="8.421119">
        <ele>95.243928</ele>
        <time>2022-01-08T17:18:31.276Z</time>
      </trkpt>
      <trkpt lat="49.501745" lon="8.420954">
        <ele>95.211805</ele>
        <time>2022-01-08T17:18:34.648Z</time>
      </trkpt>
      <trkpt lat="49.501771" lon="8.420841">
        <ele>95.189744</ele>
        <time>2022-01-08T17:18:36.951Z</time>
      </trkpt>
      <trkpt lat="49.502652" lon="8.417073">
        <ele>94.076891</ele>
        <time>2022-01-08T17:19:49.172Z</time>
      </trkpt>
      <trkpt lat="49.502701" lon="8.416883">
        <ele>93.978130</ele>
        <time>2022-01-08T17:19:51.884Z</time>
      </trkpt>
      <trkpt lat="49.502779" lon="8.416615">
        <ele>93.836253</ele>
        <time>2022-01-08T17:19:55.808Z</time>
      </trkpt>
      <trkpt lat="49.502821" lon="8.416462">
        <ele>93.756007</ele>
        <time>2022-01-08T17:19:58.019Z</time>
      </trkpt>
      <trkpt lat="49.502848" lon="8.416334">
        <ele>93.690991</ele>
        <time>2022-01-08T17:19:59.799Z</time>
      </trkpt>
      <trkpt lat="49.502888" lon="8.416106">
        <ele>93.576897</ele>
        <time>2022-01-08T17:20:02.948Z</time>
      </trkpt>
      <trkpt lat="49.502906" lon="8.416019">
        <ele>93.532787</ele>
        <time>2022-01-08T17:20:04.180Z</time>
      </trkpt>
      <trkpt lat="49.503417" lon="8.413778">
        <ele>92.441502</ele>
        <time>2022-01-08T17:20:45.449Z</time>
      </trkpt>
      <trkpt lat="49.503737" lon="8.413516">
        <ele>92.205558</ele>
        <time>2022-01-08T17:20:55.396Z</time>
      </trkpt>
      <trkpt lat="49.504219" lon="8.412509">
        <ele>91.676680</ele>
        <time>2022-01-08T17:21:17.222Z</time>
      </trkpt>
      <trkpt lat="49.504212" lon="8.412176">
        <ele>91.655235</ele>
        <time>2022-01-08T17:21:23.147Z</time>
      </trkpt>
      <trkpt lat="49.504262" lon="8.412033">
        <ele>91.650579</ele>
        <time>2022-01-08T17:21:26.072Z</time>
      </trkpt>
      <trkpt lat="49.504769" lon="8.411225">
        <ele>91.618372</ele>
        <time>2022-01-08T17:21:46.997Z</time>
      </trkpt>
      <trkpt lat="49.504843" lon="8.411130">
        <ele>91.614119</ele>
        <time>2022-01-08T17:21:49.206Z</time>
      </trkpt>
      <trkpt lat="49.504935" lon="8.411006">
        <ele>91.608723</ele>
        <time>2022-01-08T17:21:52.168Z</time>
      </trkpt>
      <trkpt lat="49.505005" lon="8.410925">
        <ele>91.604858</ele>
        <time>2022-01-08T17:21:54.260Z</time>
      </trkpt>
      <trkpt lat="49.505095" lon="8.410820">
        <ele>91.599873</ele>
        <time>2022-01-08T17:21:56.922Z</time>
      </trkpt>
      <trkpt lat="49.505139" lon="8.410764">
        <ele>91.597354</ele>
        <time>2022-01-08T17:21:58.275Z</time>
      </trkpt>
      <trkpt lat="49.505492" lon="8.410342">
        <ele>91.666797</ele>
        <time>2022-01-08T17:22:12.028Z</time>
      </trkpt>
      <trkpt lat="49.506637" lon="8.409306">
        <ele>92.365988</ele>
        <time>2022-01-08T17:22:54.264Z</time>
      </trkpt>
      <trkpt lat="49.506773" lon="8.409137">
        <ele>92.457996</ele>
        <time>2022-01-08T17:22:59.780Z</time>
      </trkpt>
      <trkpt lat="49.506846" lon="8.409075">
        <ele>92.501887</ele>
        <time>2022-01-08T17:23:02.371Z</time>
      </trkpt>
      <trkpt lat="49.508618" lon="8.407606">
        <ele>93.646249</ele>
        <time>2022-01-08T17:24:05.284Z</time>
      </trkpt>
      <trkpt lat="49.508939" lon="8.407452">
        <ele>93.911593</ele>
        <time>2022-01-08T17:24:16.426Z</time>
      </trkpt>
      <trkpt lat="49.509409" lon="8.407415">
        <ele>94.283006</ele>
        <time>2022-01-08T17:24:32.276Z</time>
      </trkpt>
      <trkpt lat="49.510086" lon="8.407488">
        <ele>94.818609</ele>
        <time>2022-01-08T17:24:55.114Z</time>
      </trkpt>
      <trkpt lat="49.512344" lon="8.408324">
        <ele>94.800652</ele>
        <time>2022-01-08T17:26:02.839Z</time>
      </trkpt>
      <trkpt lat="49.512405" lon="8.408344">
        <ele>94.762936</ele>
        <time>2022-01-08T17:26:04.437Z</time>
      </trkpt>
      <trkpt lat="49.512473" lon="8.408370">
        <ele>94.720565</ele>
        <time>2022-01-08T17:26:06.299Z</time>
      </trkpt>
      <trkpt lat="49.512487" lon="8.408257">
        <ele>94.675396</ele>
        <time>2022-01-08T17:26:08.298Z</time>
      </trkpt>
      <trkpt lat="49.512510" lon="8.408098">
        <ele>94.611434</ele>
        <time>2022-01-08T17:26:11.051Z</time>
      </trkpt>
      <trkpt lat="49.512523" lon="8.408015">
        <ele>94.577910</ele>
        <time>2022-01-08T17:26:12.489Z</time>
      </trkpt>
      <trkpt lat="49.512528" lon="8.407984">
        <ele>94.565368</ele>
        <time>2022-01-08T17:26:13.006Z</time>
      </trkpt>
      <trkpt lat="49.512483" lon="8.407944">
        <ele>94.533947</ele>
        <time>2022-01-08T17:26:14.376Z</time>
      </trkpt>
      <trkpt lat="49.512511" lon="8.407855">
        <ele>94.495115</ele>
        <time>2022-01-08T17:26:16.065Z</time>
      </trkpt>
      <trkpt lat="49.512466" lon="8.407801">
        <ele>94.460617</ele>
        <time>2022-01-08T17:26:17.587Z</time>
      </trkpt>
      <trkpt lat="49.512480" lon="8.407724">
        <ele>94.429220</ele>
        <time>2022-01-08T17:26:18.928Z</time>
      </trkpt>
      <trkpt lat="49.516075" lon="8.409355">
        <ele>92.279655</ele>
        <time>2022-01-08T17:27:59.775Z</time>
      </trkpt>
      <trkpt lat="49.516140" lon="8.409382">
        <ele>92.255512</ele>
        <time>2022-01-08T17:28:01.634Z</time>
      </trkpt>
      <trkpt lat="49.516205" lon="8.409468">
        <ele>92.224783</ele>
        <time>2022-01-08T17:28:03.485Z</time>
      </trkpt>
      <trkpt lat="49.516466" lon="8.409587">
        <ele>92.127168</ele>
        <time>2022-01-08T17:28:09.591Z</time>
      </trkpt>
      <trkpt lat="49.516923" lon="8.409748">
        <ele>92.164935</ele>
        <time>2022-01-08T17:28:20.832Z</time>
      </trkpt>
      <trkpt lat="49.517319" lon="8.409749">
        <ele>92.380420</ele>
        <time>2022-01-08T17:28:30.911Z</time>
      </trkpt>
      <trkpt lat="49.517549" lon="8.409741">
        <ele>92.505607</ele>
        <time>2022-01-08T17:28:36.993Z</time>
      </trkpt>
      <trkpt lat="49.517648" lon="8.409734">
        <ele>92.559535</ele>
        <time>2022-01-08T17:28:39.387Z</time>
      </trkpt>
      <trkpt lat="49.517776" lon="8.409727">
        <ele>92.629231</ele>
        <time>2022-01-08T17:28:42.652Z</time>
      </trkpt>
      <trkpt lat="49.517953" lon="8.409716">
        <ele>92.725624</ele>
        <time>2022-01-08T17:28:46.955Z</time>
      </trkpt>
      <trkpt lat="49.518058" lon="8.409710">
        <ele>92.782800</ele>
        <time>2022-01-08T17:28:49.450Z</time>
      </trkpt>
      <trkpt lat="49.518216" lon="8.409700">
        <ele>92.868849</ele>
        <time>2022-01-08T17:28:53.244Z</time>
      </trkpt>
      <trkpt lat="49.518376" lon="8.409689">
        <ele>92.956000</ele>
        <time>2022-01-08T17:28:57.174Z</time>
      </trkpt>
      <trkpt lat="49.518422" lon="8.409686">
        <ele>92.981053</ele>
        <time>2022-01-08T17:28:58.284Z</time>
      </trkpt>
      <trkpt lat="49.518633" lon="8.409675">
        <ele>93.059752</ele>
        <time>2022-01-08T17:29:03.552Z</time>
      </trkpt>
      <trkpt lat="49.518954" lon="8.409664">
        <ele>93.151682</ele>
        <time>2022-01-08T17:29:11.530Z</time>
      </trkpt>
      <trkpt lat="49.519187" lon="8.409656">
        <ele>93.218410</ele>
        <time>2022-01-08T17:29:17.275Z</time>
      </trkpt>
      <trkpt lat="49.519282" lon="8.409652">
        <ele>93.245620</ele>
        <time>2022-01-08T17:29:19.515Z</time>
      </trkpt>
      <trkpt lat="49.519663" lon="8.409626">
        <ele>93.354813</ele>
        <time>2022-01-08T17:29:28.569Z</time>
      </trkpt>
      <trkpt lat="49.520075" lon="8.409570">
        <ele>93.473233</ele>
        <time>2022-01-08T17:29:37.809Z</time>
      </trkpt>
      <trkpt lat="49.520165" lon="8.409548">
        <ele>93.499324</ele>
        <time>2022-01-08T17:29:39.728Z</time>
      </trkpt>
      <trkpt lat="49.520288" lon="8.409509">
        <ele>93.534634</ele>
        <time>2022-01-08T17:29:42.390Z</time>
      </trkpt>
      <trkpt lat="49.520820" lon="8.409213">
        <ele>93.553213</ele>
        <time>2022-01-08T17:29:54.448Z</time>
      </trkpt>
      <trkpt lat="49.521524" lon="8.408822">
        <ele>93.577793</ele>
        <time>2022-01-08T17:30:11.960Z</time>
      </trkpt>
      <trkpt lat="49.522061" lon="8.408302">
        <ele>93.639817</ele>
        <time>2022-01-08T17:30:26.006Z</time>
      </trkpt>
      <trkpt lat="49.522148" lon="8.408171">
        <ele>93.676742</ele>
        <time>2022-01-08T17:30:28.699Z</time>
      </trkpt>
      <trkpt lat="49.522256" lon="8.408175">
        <ele>93.709530</ele>
        <time>2022-01-08T17:30:31.063Z</time>
      </trkpt>
      <trkpt lat="49.522299" lon="8.408269">
        <ele>93.732187</ele>
        <time>2022-01-08T17:30:32.674Z</time>
      </trkpt>
      <trkpt lat="49.522342" lon="8.408368">
        <ele>93.755656</ele>
        <time>2022-01-08T17:30:34.341Z</time>
      </trkpt>
      <trkpt lat="49.522776" lon="8.407798">
        <ele>93.928756</ele>
        <time>2022-01-08T17:30:47.390Z</time>
      </trkpt>
      <trkpt lat="49.523387" lon="8.406784">
        <ele>94.267671</ele>
        <time>2022-01-08T17:31:09.601Z</time>
      </trkpt>
      <trkpt lat="49.523420" lon="8.406791">
        <ele>94.288632</ele>
        <time>2022-01-08T17:31:10.413Z</time>
      </trkpt>
      <trkpt lat="49.523829" lon="8.406893">
        <ele>94.549347</ele>
        <time>2022-01-08T17:31:20.856Z</time>
      </trkpt>
      <trkpt lat="49.524539" lon="8.406934">
        <ele>94.996429</ele>
        <time>2022-01-08T17:31:38.545Z</time>
      </trkpt>
      <trkpt lat="49.524612" lon="8.406938">
        <ele>95.042393</ele>
        <time>2022-01-08T17:31:40.398Z</time>
      </trkpt>
      <trkpt lat="49.525465" lon="8.406987">
        <ele>95.404083</ele>
        <time>2022-01-08T17:32:01.279Z</time>
      </trkpt>
      <trkpt lat="49.526102" lon="8.406396">
        <ele>95.605630</ele>
        <time>2022-01-08T17:32:18.141Z</time>
      </trkpt>
      <trkpt lat="49.527136" lon="8.405660">
        <ele>96.129042</ele>
        <time>2022-01-08T17:32:44.365Z</time>
      </trkpt>
      <trkpt lat="49.527255" lon="8.405564">
        <ele>96.215715</ele>
        <time>2022-01-08T17:32:47.645Z</time>
      </trkpt>
      <trkpt lat="49.529457" lon="8.404283">
        <ele>97.631788</ele>
        <time>2022-01-08T17:33:48.794Z</time>
      </trkpt>
      <trkpt lat="49.529748" lon="8.404080">
        <ele>97.811944</ele>
        <time>2022-01-08T17:33:56.030Z</time>
      </trkpt>
      <trkpt lat="49.530238" lon="8.403754">
        <ele>97.645476</ele>
        <time>2022-01-08T17:34:07.246Z</time>
      </trkpt>
      <trkpt lat="49.532013" lon="8.402078">
        <ele>95.739408</ele>
        <time>2022-01-08T17:34:46.766Z</time>
      </trkpt>
      <trkpt lat="49.532896" lon="8.401344">
        <ele>94.800750</ele>
        <time>2022-01-08T17:35:06.539Z</time>
      </trkpt>
      <trkpt lat="49.534495" lon="8.399650">
        <ele>93.016674</ele>
        <time>2022-01-08T17:35:44.569Z</time>
      </trkpt>
      <trkpt lat="49.534579" lon="8.399620">
        <ele>92.937247</ele>
        <time>2022-01-08T17:35:46.231Z</time>
      </trkpt>
      <trkpt lat="49.534942" lon="8.400590">
        <ele>92.263834</ele>
        <time>2022-01-08T17:35:59.969Z</time>
      </trkpt>
      <trkpt lat="49.535565" lon="8.402455">
        <ele>91.140591</ele>
        <time>2022-01-08T17:36:26.830Z</time>
      </trkpt>
      <trkpt lat="49.536136" lon="8.403349">
        <ele>90.734759</ele>
        <time>2022-01-08T17:36:43.731Z</time>
      </trkpt>
      <trkpt lat="49.537133" lon="8.404777">
        <ele>90.145006</ele>
        <time>2022-01-08T17:37:11.871Z</time>
      </trkpt>
      <trkpt lat="49.537428" lon="8.405318">
        <ele>89.974643</ele>
        <time>2022-01-08T17:37:21.201Z</time>
      </trkpt>
      <trkpt lat="49.538495" lon="8.407445">
        <ele>89.795163</ele>
        <time>2022-01-08T17:37:59.378Z</time>
      </trkpt>
      <trkpt lat="49.538592" lon="8.407516">
        <ele>89.800854</ele>
        <time>2022-01-08T17:38:01.902Z</time>
      </trkpt>
      <trkpt lat="49.538814" lon="8.409388">
        <ele>89.812572</ele>
        <time>2022-01-08T17:38:30.467Z</time>
      </trkpt>
      <trkpt lat="49.538809" lon="8.409658">
        <ele>89.807321</ele>
        <time>2022-01-08T17:38:34.431Z</time>
      </trkpt>
      <trkpt lat="49.538780" lon="8.410232">
        <ele>89.796129</ele>
        <time>2022-01-08T17:38:42.648Z</time>
      </trkpt>
      <trkpt lat="49.539000" lon="8.410996">
        <ele>89.779880</ele>
        <time>2022-01-08T17:38:54.204Z</time>
      </trkpt>
      <trkpt lat="49.539078" lon="8.411077">
        <ele>89.779818</ele>
        <time>2022-01-08T17:38:56.223Z</time>
      </trkpt>
      <trkpt lat="49.540038" lon="8.410800">
        <ele>89.828781</ele>
        <time>2022-01-08T17:39:16.513Z</time>
      </trkpt>
      <trkpt lat="49.540384" lon="8.410539">
        <ele>89.848093</ele>
        <time>2022-01-08T17:39:25.522Z</time>
      </trkpt>
      <trkpt lat="49.540680" lon="8.410605">
        <ele>89.863087</ele>
        <time>2022-01-08T17:39:33.028Z</time>
      </trkpt>
      <trkpt lat="49.541124" lon="8.410509">
        <ele>90.229465</ele>
        <time>2022-01-08T17:39:44.466Z</time>
      </trkpt>
      <trkpt lat="49.541637" lon="8.410398">
        <ele>90.771651</ele>
        <time>2022-01-08T17:39:58.067Z</time>
      </trkpt>
      <trkpt lat="49.541878" lon="8.410483">
        <ele>91.030410</ele>
        <time>2022-01-08T17:40:04.914Z</time>
      </trkpt>
      <trkpt lat="49.542336" lon="8.410947">
        <ele>91.604069</ele>
        <time>2022-01-08T17:40:19.968Z</time>
      </trkpt>
      <trkpt lat="49.542486" lon="8.411234">
        <ele>91.805158</ele>
        <time>2022-01-08T17:40:26.488Z</time>
      </trkpt>
      <trkpt lat="49.542565" lon="8.411164">
        <ele>91.855239</ele>
        <time>2022-01-08T17:40:29.181Z</time>
      </trkpt>
      <trkpt lat="49.542613" lon="8.411091">
        <ele>91.892301</ele>
        <time>2022-01-08T17:40:31.071Z</time>
      </trkpt>
      <trkpt lat="49.542827" lon="8.411022">
        <ele>92.012458</ele>
        <time>2022-01-08T17:40:36.874Z</time>
      </trkpt>
      <trkpt lat="49.543787" lon="8.410754">
        <ele>92.548642</ele>
        <time>2022-01-08T17:41:00.075Z</time>
      </trkpt>
      <trkpt lat="49.544085" lon="8.410680">
        <ele>92.714530</ele>
        <time>2022-01-08T17:41:06.841Z</time>
      </trkpt>
      <trkpt lat="49.545960" lon="8.410139">
        <ele>92.782995</ele>
        <time>2022-01-08T17:41:48.231Z</time>
      </trkpt>
      <trkpt lat="49.546794" lon="8.412833">
        <ele>93.929487</ele>
        <time>2022-01-08T17:42:36.096Z</time>
      </trkpt>
      <trkpt lat="49.547173" lon="8.413690">
        <ele>94.521349</ele>
        <time>2022-01-08T17:42:54.527Z</time>
      </trkpt>
      <trkpt lat="49.547600" lon="8.413438">
        <ele>94.923505</ele>
        <time>2022-01-08T17:43:06.524Z</time>
      </trkpt>
      <trkpt lat="49.547820" lon="8.413254">
        <ele>95.143657</ele>
        <time>2022-01-08T17:43:13.207Z</time>
      </trkpt>
      <trkpt lat="49.548313" lon="8.412954">
        <ele>95.239787</ele>
        <time>2022-01-08T17:43:26.526Z</time>
      </trkpt>
      <trkpt lat="49.552158" lon="8.410754">
        <ele>93.461412</ele>
        <time>2022-01-08T17:44:49.518Z</time>
      </trkpt>
      <trkpt lat="49.552833" lon="8.411060">
        <ele>93.256849</ele>
        <time>2022-01-08T17:45:04.290Z</time>
      </trkpt>
      <trkpt lat="49.554932" lon="8.411440">
        <ele>93.944778</ele>
        <time>2022-01-08T17:45:54.435Z</time>
      </trkpt>
      <trkpt lat="49.555570" lon="8.411551">
        <ele>94.310118</ele>
        <time>2022-01-08T17:46:11.464Z</time>
      </trkpt>
      <trkpt lat="49.555643" lon="8.411559">
        <ele>94.351762</ele>
        <time>2022-01-08T17:46:13.401Z</time>
      </trkpt>
      <trkpt lat="49.556094" lon="8.411603">
        <ele>94.608904</ele>
        <time>2022-01-08T17:46:25.076Z</time>
      </trkpt>
      <trkpt lat="49.557155" lon="8.411426">
        <ele>94.631710</ele>
        <time>2022-01-08T17:46:49.576Z</time>
      </trkpt>
      <trkpt lat="49.557971" lon="8.411325">
        <ele>94.086750</ele>
        <time>2022-01-08T17:47:05.894Z</time>
      </trkpt>
      <trkpt lat="49.559132" lon="8.411703">
        <ele>92.988749</ele>
        <time>2022-01-08T17:47:27.649Z</time>
      </trkpt>
      <trkpt lat="49.560477" lon="8.411862">
        <ele>91.676921</ele>
        <time>2022-01-08T17:47:53.762Z</time>
      </trkpt>
      <trkpt lat="49.561266" lon="8.412089">
        <ele>91.466962</ele>
        <time>2022-01-08T17:48:10.625Z</time>
      </trkpt>
      <trkpt lat="49.561577" lon="8.412173">
        <ele>91.384367</ele>
        <time>2022-01-08T17:48:17.582Z</time>
      </trkpt>
      <trkpt lat="49.561886" lon="8.412013">
        <ele>91.299098</ele>
        <time>2022-01-08T17:48:24.961Z</time>
      </trkpt>
      <trkpt lat="49.562584" lon="8.411918">
        <ele>91.402488</ele>
        <time>2022-01-08T17:48:41.401Z</time>
      </trkpt>
      <trkpt lat="49.563273" lon="8.412031">
        <ele>91.565723</ele>
        <time>2022-01-08T17:48:57.643Z</time>
      </trkpt>
      <trkpt lat="49.566379" lon="8.414002">
        <ele>91.892129</ele>
        <time>2022-01-08T17:50:14.516Z</time>
      </trkpt>
      <trkpt lat="49.567990" lon="8.415022">
        <ele>91.503888</ele>
        <time>2022-01-08T17:50:50.276Z</time>
      </trkpt>
      <trkpt lat="49.572496" lon="8.419009">
        <ele>91.581897</ele>
        <time>2022-01-08T17:52:44.657Z</time>
      </trkpt>
      <trkpt lat="49.573004" lon="8.419300">
        <ele>91.954830</ele>
        <time>2022-01-08T17:52:59.262Z</time>
      </trkpt>
      <trkpt lat="49.573116" lon="8.419311">
        <ele>92.032062</ele>
        <time>2022-01-08T17:53:02.730Z</time>
      </trkpt>
      <trkpt lat="49.574431" lon="8.418653">
        <ele>93.000232</ele>
        <time>2022-01-08T17:53:39.838Z</time>
      </trkpt>
      <trkpt lat="49.574581" lon="8.418589">
        <ele>93.109918</ele>
        <time>2022-01-08T17:53:43.962Z</time>
      </trkpt>
      <trkpt lat="49.574700" lon="8.418527">
        <ele>93.198442</ele>
        <time>2022-01-08T17:53:47.025Z</time>
      </trkpt>
      <trkpt lat="49.576114" lon="8.417892">
        <ele>93.244531</ele>
        <time>2022-01-08T17:54:18.751Z</time>
      </trkpt>
      <trkpt lat="49.577537" lon="8.416860">
        <ele>92.640571</ele>
        <time>2022-01-08T17:54:51.029Z</time>
      </trkpt>
      <trkpt lat="49.578938" lon="8.416219">
        <ele>91.960969</ele>
        <time>2022-01-08T17:55:21.459Z</time>
      </trkpt>
      <trkpt lat="49.580173" lon="8.415170">
        <ele>91.265946</ele>
        <time>2022-01-08T17:55:50.248Z</time>
      </trkpt>
      <trkpt lat="49.580934" lon="8.414377">
        <ele>90.812730</ele>
        <time>2022-01-08T17:56:08.962Z</time>
      </trkpt>
      <trkpt lat="49.581555" lon="8.413337">
        <ele>90.369549</ele>
        <time>2022-01-08T17:56:28.053Z</time>
      </trkpt>
      <trkpt lat="49.581730" lon="8.412848">
        <ele>90.256398</ele>
        <time>2022-01-08T17:56:35.628Z</time>
      </trkpt>
      <trkpt lat="49.581792" lon="8.411507">
        <ele>89.984047</ele>
        <time>2022-01-08T17:56:53.970Z</time>
      </trkpt>
      <trkpt lat="49.581918" lon="8.410382">
        <ele>89.822371</ele>
        <time>2022-01-08T17:57:09.817Z</time>
      </trkpt>
      <trkpt lat="49.581994" lon="8.410155">
        <ele>89.821604</ele>
        <time>2022-01-08T17:57:13.377Z</time>
      </trkpt>
      <trkpt lat="49.582621" lon="8.409375">
        <ele>89.817875</ele>
        <time>2022-01-08T17:57:31.019Z</time>
      </trkpt>
      <trkpt lat="49.584223" lon="8.407102">
        <ele>90.161881</ele>
        <time>2022-01-08T17:58:21.196Z</time>
      </trkpt>
      <trkpt lat="49.584384" lon="8.406932">
        <ele>90.204831</ele>
        <time>2022-01-08T17:58:25.809Z</time>
      </trkpt>
      <trkpt lat="49.586500" lon="8.406230">
        <ele>90.708492</ele>
        <time>2022-01-08T17:59:16.925Z</time>
      </trkpt>
      <trkpt lat="49.590310" lon="8.404980">
        <ele>90.481807</ele>
        <time>2022-01-08T18:00:40.172Z</time>
      </trkpt>
      <trkpt lat="49.591126" lon="8.404765">
        <ele>90.893981</ele>
        <time>2022-01-08T18:01:01.128Z</time>
      </trkpt>
      <trkpt lat="49.591568" lon="8.404644">
        <ele>91.180021</ele>
        <time>2022-01-08T18:01:12.990Z</time>
      </trkpt>
      <trkpt lat="49.591816" lon="8.404562">
        <ele>91.445912</ele>
        <time>2022-01-08T18:01:19.973Z</time>
      </trkpt>
      <trkpt lat="49.592214" lon="8.404438">
        <ele>91.871572</ele>
        <time>2022-01-08T18:01:31.232Z</time>
      </trkpt>
      <trkpt lat="49.592566" lon="8.404328">
        <ele>92.248079</ele>
        <time>2022-01-08T18:01:41.145Z</time>
      </trkpt>
      <trkpt lat="49.592642" lon="8.404303">
        <ele>92.329544</ele>
        <time>2022-01-08T18:01:43.208Z</time>
      </trkpt>
      <trkpt lat="49.593037" lon="8.404182">
        <ele>92.751719</ele>
        <time>2022-01-08T18:01:53.862Z</time>
      </trkpt>
      <trkpt lat="49.593463" lon="8.404050">
        <ele>92.940108</ele>
        <time>2022-01-08T18:02:04.370Z</time>
      </trkpt>
      <trkpt lat="49.593720" lon="8.404472">
        <ele>92.930452</ele>
        <time>2022-01-08T18:02:12.868Z</time>
      </trkpt>
      <trkpt lat="49.593821" lon="8.404623">
        <ele>92.926834</ele>
        <time>2022-01-08T18:02:15.893Z</time>
      </trkpt>
      <trkpt lat="49.594130" lon="8.405091">
        <ele>92.915694</ele>
        <time>2022-01-08T18:02:25.312Z</time>
      </trkpt>
      <trkpt lat="49.594535" lon="8.405874">
        <ele>92.880939</ele>
        <time>2022-01-08T18:02:38.861Z</time>
      </trkpt>
      <trkpt lat="49.594651" lon="8.405953">
        <ele>92.830365</ele>
        <time>2022-01-08T18:02:41.518Z</time>
      </trkpt>
      <trkpt lat="49.594875" lon="8.405918">
        <ele>92.740566</ele>
        <time>2022-01-08T18:02:46.019Z</time>
      </trkpt>
      <trkpt lat="49.595560" lon="8.405359">
        <ele>92.431488</ele>
        <time>2022-01-08T18:03:01.914Z</time>
      </trkpt>
      <trkpt lat="49.600765" lon="8.402460">
        <ele>91.372716</ele>
        <time>2022-01-08T18:05:00.702Z</time>
      </trkpt>
      <trkpt lat="49.600606" lon="8.401078">
        <ele>91.494243</ele>
        <time>2022-01-08T18:05:21.962Z</time>
      </trkpt>
      <trkpt lat="49.600261" lon="8.397547">
        <ele>92.146031</ele>
        <time>2022-01-08T18:06:17.475Z</time>
      </trkpt>
      <trkpt lat="49.600281" lon="8.397296">
        <ele>92.172552</ele>
        <time>2022-01-08T18:06:21.240Z</time>
      </trkpt>
      <trkpt lat="49.600335" lon="8.397234">
        <ele>92.183443</ele>
        <time>2022-01-08T18:06:22.800Z</time>
      </trkpt>
      <trkpt lat="49.603968" lon="8.398593">
        <ele>91.428937</ele>
        <time>2022-01-08T18:07:41.868Z</time>
      </trkpt>
      <trkpt lat="49.604425" lon="8.398764">
        <ele>91.324181</ele>
        <time>2022-01-08T18:07:52.048Z</time>
      </trkpt>
      <trkpt lat="49.604592" lon="8.398888">
        <ele>91.398345</ele>
        <time>2022-01-08T18:07:56.240Z</time>
      </trkpt>
      <trkpt lat="49.604905" lon="8.399130">
        <ele>91.559605</ele>
        <time>2022-01-08T18:08:04.101Z</time>
      </trkpt>
      <trkpt lat="49.605009" lon="8.399207">
        <ele>91.612739</ele>
        <time>2022-01-08T18:08:06.724Z</time>
      </trkpt>
      <trkpt lat="49.605368" lon="8.399341">
        <ele>91.782871</ele>
        <time>2022-01-08T18:08:15.278Z</time>
      </trkpt>
      <trkpt lat="49.605539" lon="8.399401">
        <ele>91.863648</ele>
        <time>2022-01-08T18:08:19.545Z</time>
      </trkpt>
      <trkpt lat="49.606006" lon="8.399565">
        <ele>92.084259</ele>
        <time>2022-01-08T18:08:31.947Z</time>
      </trkpt>
      <trkpt lat="49.606633" lon="8.399643">
        <ele>92.547456</ele>
        <time>2022-01-08T18:08:48.932Z</time>
      </trkpt>
      <trkpt lat="49.606820" lon="8.399667">
        <ele>92.700525</ele>
        <time>2022-01-08T18:08:53.960Z</time>
      </trkpt>
      <trkpt lat="49.606933" lon="8.399573">
        <ele>92.805244</ele>
        <time>2022-01-08T18:08:57.471Z</time>
      </trkpt>
      <trkpt lat="49.606975" lon="8.399538">
        <ele>92.844182</ele>
        <time>2022-01-08T18:08:58.743Z</time>
      </trkpt>
      <trkpt lat="49.607974" lon="8.398094">
        <ele>93.731428</ele>
        <time>2022-01-08T18:09:32.211Z</time>
      </trkpt>
      <trkpt lat="49.608209" lon="8.397464">
        <ele>93.859894</ele>
        <time>2022-01-08T18:09:42.791Z</time>
      </trkpt>
      <trkpt lat="49.608279" lon="8.396982">
        <ele>93.947188</ele>
        <time>2022-01-08T18:09:49.985Z</time>
      </trkpt>
      <trkpt lat="49.608303" lon="8.396626">
        <ele>94.010442</ele>
        <time>2022-01-08T18:09:55.395Z</time>
      </trkpt>
      <trkpt lat="49.608371" lon="8.396386">
        <ele>94.056733</ele>
        <time>2022-01-08T18:09:59.369Z</time>
      </trkpt>
      <trkpt lat="49.608662" lon="8.396181">
        <ele>94.159418</ele>
        <time>2022-01-08T18:10:06.792Z</time>
      </trkpt>
      <trkpt lat="49.609542" lon="8.394446">
        <ele>94.710454</ele>
        <time>2022-01-08T18:10:41.119Z</time>
      </trkpt>
      <trkpt lat="49.610994" lon="8.391619">
        <ele>94.837342</ele>
        <time>2022-01-08T18:11:34.909Z</time>
      </trkpt>
      <trkpt lat="49.611044" lon="8.391527">
        <ele>94.786713</ele>
        <time>2022-01-08T18:11:36.423Z</time>
      </trkpt>
      <trkpt lat="49.612549" lon="8.388625">
        <ele>93.333085</ele>
        <time>2022-01-08T18:12:23.532Z</time>
      </trkpt>
      <trkpt lat="49.612986" lon="8.387783">
        <ele>92.958277</ele>
        <time>2022-01-08T18:12:38.328Z</time>
      </trkpt>
      <trkpt lat="49.613007" lon="8.387742">
        <ele>92.940119</ele>
        <time>2022-01-08T18:12:39.030Z</time>
      </trkpt>
      <trkpt lat="49.613108" lon="8.387552">
        <ele>92.928076</ele>
        <time>2022-01-08T18:12:42.512Z</time>
      </trkpt>
      <trkpt lat="49.613224" lon="8.387318">
        <ele>92.989484</ele>
        <time>2022-01-08T18:12:46.905Z</time>
      </trkpt>
      <trkpt lat="49.613367" lon="8.387022">
        <ele>93.066437</ele>
        <time>2022-01-08T18:12:52.669Z</time>
      </trkpt>
      <trkpt lat="49.613609" lon="8.386561">
        <ele>93.190095</ele>
        <time>2022-01-08T18:13:02.093Z</time>
      </trkpt>
      <trkpt lat="49.613646" lon="8.386493">
        <ele>93.208602</ele>
        <time>2022-01-08T18:13:03.505Z</time>
      </trkpt>
      <trkpt lat="49.613970" lon="8.385877">
        <ele>93.373964</ele>
        <time>2022-01-08T18:13:15.789Z</time>
      </trkpt>
      <trkpt lat="49.614015" lon="8.385791">
        <ele>93.397003</ele>
        <time>2022-01-08T18:13:17.496Z</time>
      </trkpt>
      <trkpt lat="49.614198" lon="8.386038">
        <ele>93.475203</ele>
        <time>2022-01-08T18:13:23.189Z</time>
      </trkpt>
      <trkpt lat="49.614330" lon="8.386113">
        <ele>93.503649</ele>
        <time>2022-01-08T18:13:26.533Z</time>
      </trkpt>
      <trkpt lat="49.614845" lon="8.385841">
        <ele>93.607532</ele>
        <time>2022-01-08T18:13:39.170Z</time>
      </trkpt>
      <trkpt lat="49.615819" lon="8.385610">
        <ele>93.795601</ele>
        <time>2022-01-08T18:14:02.003Z</time>
      </trkpt>
      <trkpt lat="49.616254" lon="8.385402">
        <ele>93.821209</ele>
        <time>2022-01-08T18:14:11.957Z</time>
      </trkpt>
      <trkpt lat="49.617427" lon="8.384242">
        <ele>93.815903</ele>
        <time>2022-01-08T18:14:42.605Z</time>
      </trkpt>
      <trkpt lat="49.618831" lon="8.382613">
        <ele>93.813097</ele>
        <time>2022-01-08T18:15:22.027Z</time>
      </trkpt>
      <trkpt lat="49.619187" lon="8.382320">
        <ele>93.720637</ele>
        <time>2022-01-08T18:15:30.790Z</time>
      </trkpt>
      <trkpt lat="49.619560" lon="8.382116">
        <ele>93.585735</ele>
        <time>2022-01-08T18:15:39.104Z</time>
      </trkpt>
      <trkpt lat="49.620711" lon="8.381782">
        <ele>93.190238</ele>
        <time>2022-01-08T18:16:03.177Z</time>
      </trkpt>
      <trkpt lat="49.620750" lon="8.381771">
        <ele>93.180551</ele>
        <time>2022-01-08T18:16:03.987Z</time>
      </trkpt>
      <trkpt lat="49.621464" lon="8.381651">
        <ele>93.005052</ele>
        <time>2022-01-08T18:16:19.650Z</time>
      </trkpt>
      <trkpt lat="49.621600" lon="8.381675">
        <ele>92.971604</ele>
        <time>2022-01-08T18:16:22.742Z</time>
      </trkpt>
      <trkpt lat="49.621710" lon="8.381648">
        <ele>92.944388</ele>
        <time>2022-01-08T18:16:25.128Z</time>
      </trkpt>
      <trkpt lat="49.622671" lon="8.381410">
        <ele>92.776684</ele>
        <time>2022-01-08T18:16:45.483Z</time>
      </trkpt>
      <trkpt lat="49.622697" lon="8.381317">
        <ele>92.781597</ele>
        <time>2022-01-08T18:16:46.884Z</time>
      </trkpt>
      <trkpt lat="49.623120" lon="8.380784">
        <ele>92.822477</ele>
        <time>2022-01-08T18:16:59.506Z</time>
      </trkpt>
      <trkpt lat="49.623306" lon="8.380623">
        <ele>92.838442</ele>
        <time>2022-01-08T18:17:04.720Z</time>
      </trkpt>
      <trkpt lat="49.623436" lon="8.380517">
        <ele>92.849449</ele>
        <time>2022-01-08T18:17:08.292Z</time>
      </trkpt>
      <trkpt lat="49.623822" lon="8.380203">
        <ele>92.882115</ele>
        <time>2022-01-08T18:17:18.785Z</time>
      </trkpt>
      <trkpt lat="49.623812" lon="8.380116">
        <ele>92.886401</ele>
        <time>2022-01-08T18:17:20.172Z</time>
      </trkpt>
      <trkpt lat="49.623777" lon="8.379803">
        <ele>92.873398</ele>
        <time>2022-01-08T18:17:24.438Z</time>
      </trkpt>
      <trkpt lat="49.623689" lon="8.379410">
        <ele>92.810625</ele>
        <time>2022-01-08T18:17:30.033Z</time>
      </trkpt>
      <trkpt lat="49.623465" lon="8.378915">
        <ele>92.719471</ele>
        <time>2022-01-08T18:17:37.909Z</time>
      </trkpt>
      <trkpt lat="49.623452" lon="8.378883">
        <ele>92.713769</ele>
        <time>2022-01-08T18:17:38.406Z</time>
      </trkpt>
      <trkpt lat="49.623368" lon="8.378697">
        <ele>92.679540</ele>
        <time>2022-01-08T18:17:41.436Z</time>
      </trkpt>
      <trkpt lat="49.623145" lon="8.378154">
        <ele>92.582481</ele>
        <time>2022-01-08T18:17:50.522Z</time>
      </trkpt>
      <trkpt lat="49.623075" lon="8.377712">
        <ele>92.513789</ele>
        <time>2022-01-08T18:17:57.133Z</time>
      </trkpt>
      <trkpt lat="49.623184" lon="8.377092">
        <ele>92.512495</ele>
        <time>2022-01-08T18:18:06.331Z</time>
      </trkpt>
      <trkpt lat="49.623371" lon="8.376690">
        <ele>92.559082</ele>
        <time>2022-01-08T18:18:13.150Z</time>
      </trkpt>
      <trkpt lat="49.623789" lon="8.376077">
        <ele>92.642860</ele>
        <time>2022-01-08T18:18:25.254Z</time>
      </trkpt>
      <trkpt lat="49.624444" lon="8.375473">
        <ele>92.839128</ele>
        <time>2022-01-08T18:18:43.862Z</time>
      </trkpt>
      <trkpt lat="49.625425" lon="8.374518">
        <ele>93.873456</ele>
        <time>2022-01-08T18:19:15.387Z</time>
      </trkpt>
      <trkpt lat="49.626113" lon="8.373681">
        <ele>94.388488</ele>
        <time>2022-01-08T18:19:36.990Z</time>
      </trkpt>
      <trkpt lat="49.626584" lon="8.374217">
        <ele>94.467215</ele>
        <time>2022-01-08T18:19:50.541Z</time>
      </trkpt>
      <trkpt lat="49.627044" lon="8.374607">
        <ele>94.537823</ele>
        <time>2022-01-08T18:20:02.088Z</time>
      </trkpt>
      <trkpt lat="49.627314" lon="8.374709">
        <ele>94.575221</ele>
        <time>2022-01-08T18:20:08.031Z</time>
      </trkpt>
      <trkpt lat="49.627406" lon="8.374721">
        <ele>94.575887</ele>
        <time>2022-01-08T18:20:09.984Z</time>
      </trkpt>
      <trkpt lat="49.627404" lon="8.374823">
        <ele>94.561299</ele>
        <time>2022-01-08T18:20:11.363Z</time>
      </trkpt>
      <trkpt lat="49.627442" lon="8.374927">
        <ele>94.544228</ele>
        <time>2022-01-08T18:20:12.996Z</time>
      </trkpt>
      <trkpt lat="49.627626" lon="8.375437">
        <ele>94.460773</ele>
        <time>2022-01-08T18:20:20.748Z</time>
      </trkpt>
      <trkpt lat="49.627974" lon="8.376856">
        <ele>94.243862</ele>
        <time>2022-01-08T18:20:41.964Z</time>
      </trkpt>
      <trkpt lat="49.628089" lon="8.377009">
        <ele>94.210357</ele>
        <time>2022-01-08T18:20:45.460Z</time>
      </trkpt>
      <trkpt lat="49.628166" lon="8.376879">
        <ele>94.184062</ele>
        <time>2022-01-08T18:20:48.152Z</time>
      </trkpt>
      <trkpt lat="49.628409" lon="8.376751">
        <ele>94.067735</ele>
        <time>2022-01-08T18:20:53.709Z</time>
      </trkpt>
      <trkpt lat="49.628902" lon="8.376486">
        <ele>93.831220</ele>
        <time>2022-01-08T18:21:04.399Z</time>
      </trkpt>
      <trkpt lat="49.629038" lon="8.376427">
        <ele>93.767216</ele>
        <time>2022-01-08T18:21:07.042Z</time>
      </trkpt>
      <trkpt lat="49.629159" lon="8.376703">
        <ele>93.669411</ele>
        <time>2022-01-08T18:21:11.324Z</time>
      </trkpt>
      <trkpt lat="49.629312" lon="8.376837">
        <ele>93.589714</ele>
        <time>2022-01-08T18:21:14.754Z</time>
      </trkpt>
      <trkpt lat="49.629490" lon="8.376841">
        <ele>93.509059</ele>
        <time>2022-01-08T18:21:18.438Z</time>
      </trkpt>
      <trkpt lat="49.630251" lon="8.376459">
        <ele>93.287391</ele>
        <time>2022-01-08T18:21:35.450Z</time>
      </trkpt>
      <trkpt lat="49.630506" lon="8.376333">
        <ele>93.242103</ele>
        <time>2022-01-08T18:21:41.432Z</time>
      </trkpt>
      <trkpt lat="49.631006" lon="8.376078">
        <ele>93.153036</ele>
        <time>2022-01-08T18:21:52.707Z</time>
      </trkpt>
      <trkpt lat="49.631521" lon="8.375679">
        <ele>93.054312</ele>
        <time>2022-01-08T18:22:05.054Z</time>
      </trkpt>
      <trkpt lat="49.631596" lon="8.375617">
        <ele>93.038345</ele>
        <time>2022-01-08T18:22:07.032Z</time>
      </trkpt>
      <trkpt lat="49.631710" lon="8.375538">
        <ele>93.014894</ele>
        <time>2022-01-08T18:22:09.966Z</time>
      </trkpt>
      <trkpt lat="49.631950" lon="8.375471">
        <ele>92.969122</ele>
        <time>2022-01-08T18:22:15.785Z</time>
      </trkpt>
      <trkpt lat="49.632250" lon="8.375487">
        <ele>92.912786</ele>
        <time>2022-01-08T18:22:22.833Z</time>
      </trkpt>
      <trkpt lat="49.633661" lon="8.375740">
        <ele>92.540102</ele>
        <time>2022-01-08T18:22:52.233Z</time>
      </trkpt>
      <trkpt lat="49.633825" lon="8.375739">
        <ele>92.470136</ele>
        <time>2022-01-08T18:22:55.598Z</time>
      </trkpt>
      <trkpt lat="49.633944" lon="8.375706">
        <ele>92.418556</ele>
        <time>2022-01-08T18:22:58.044Z</time>
      </trkpt>
      <trkpt lat="49.634221" lon="8.375429">
        <ele>92.277762</ele>
        <time>2022-01-08T18:23:04.851Z</time>
      </trkpt>
      <trkpt lat="49.634613" lon="8.375022">
        <ele>92.076233</ele>
        <time>2022-01-08T18:23:14.688Z</time>
      </trkpt>
      <trkpt lat="49.635223" lon="8.374429">
        <ele>91.956127</ele>
        <time>2022-01-08T18:23:29.723Z</time>
      </trkpt>
      <trkpt lat="49.636538" lon="8.373064">
        <ele>92.086271</ele>
        <time>2022-01-08T18:24:05.355Z</time>
      </trkpt>
      <trkpt lat="49.636684" lon="8.372921">
        <ele>92.193253</ele>
        <time>2022-01-08T18:24:09.437Z</time>
      </trkpt>
      <trkpt lat="49.636784" lon="8.372823">
        <ele>92.266541</ele>
        <time>2022-01-08T18:24:12.221Z</time>
      </trkpt>
      <trkpt lat="49.636893" lon="8.372717">
        <ele>92.346248</ele>
        <time>2022-01-08T18:24:15.610Z</time>
      </trkpt>
      <trkpt lat="49.636732" lon="8.372157">
        <ele>92.591777</ele>
        <time>2022-01-08T18:24:26.709Z</time>
      </trkpt>
      <trkpt lat="49.636684" lon="8.371992">
        <ele>92.664263</ele>
        <time>2022-01-08T18:24:29.722Z</time>
      </trkpt>
      <trkpt lat="49.636539" lon="8.371319">
        <ele>92.948490</ele>
        <time>2022-01-08T18:24:41.246Z</time>
      </trkpt>
      <trkpt lat="49.636524" lon="8.371065">
        <ele>93.050699</ele>
        <time>2022-01-08T18:24:45.658Z</time>
      </trkpt>
      <trkpt lat="49.636469" lon="8.371079">
        <ele>93.069565</ele>
        <time>2022-01-08T18:24:47.321Z</time>
      </trkpt>
      <trkpt lat="49.636343" lon="8.371104">
        <ele>93.112170</ele>
        <time>2022-01-08T18:24:51.185Z</time>
      </trkpt>
      <trkpt lat="49.636326" lon="8.371006">
        <ele>93.134206</ele>
        <time>2022-01-08T18:24:53.888Z</time>
      </trkpt>
      <trkpt lat="49.636316" lon="8.370939">
        <ele>93.149141</ele>
        <time>2022-01-08T18:24:55.723Z</time>
      </trkpt>
      <trkpt lat="49.636263" lon="8.370653">
        <ele>93.213754</ele>
        <time>2022-01-08T18:25:02.997Z</time>
      </trkpt>
      <trkpt lat="49.636267" lon="8.370501">
        <ele>93.246796</ele>
        <time>2022-01-08T18:25:05.373Z</time>
      </trkpt>
      <trkpt lat="49.636179" lon="8.370411">
        <ele>93.282197</ele>
        <time>2022-01-08T18:25:08.165Z</time>
      </trkpt>
      <trkpt lat="49.636192" lon="8.370335">
        <ele>93.299270</ele>
        <time>2022-01-08T18:25:09.304Z</time>
      </trkpt>
      <trkpt lat="49.636637" lon="8.370722">
        <ele>93.470558</ele>
        <time>2022-01-08T18:25:28.453Z</time>
      </trkpt>
      <trkpt lat="49.637253" lon="8.370620">
        <ele>93.688114</ele>
        <time>2022-01-08T18:25:52.273Z</time>
      </trkpt>
      <trkpt lat="49.637976" lon="8.370500">
        <ele>94.031197</ele>
        <time>2022-01-08T18:26:19.737Z</time>
      </trkpt>
      <trkpt lat="49.639390" lon="8.370282">
        <ele>94.602762</ele>
        <time>2022-01-08T18:27:16.151Z</time>
      </trkpt>
      <trkpt lat="49.639663" lon="8.370235">
        <ele>94.667876</ele>
        <time>2022-01-08T18:27:27.298Z</time>
      </trkpt>
      <trkpt lat="49.640029" lon="8.370099">
        <ele>94.757109</ele>
        <time>2022-01-08T18:27:42.142Z</time>
      </trkpt>
      <trkpt lat="49.641820" lon="8.368986">
        <ele>94.623726</ele>
        <time>2022-01-08T18:28:50.921Z</time>
      </trkpt>
      <trkpt lat="49.642009" lon="8.368869">
        <ele>94.572066</ele>
        <time>2022-01-08T18:28:58.081Z</time>
      </trkpt>
      <trkpt lat="49.642165" lon="8.368865">
        <ele>94.532482</ele>
        <time>2022-01-08T18:29:03.949Z</time>
      </trkpt>
      <trkpt lat="49.642355" lon="8.368739">
        <ele>94.480020</ele>
        <time>2022-01-08T18:29:11.424Z</time>
      </trkpt>
      <trkpt lat="49.642403" lon="8.368655">
        <ele>94.491216</ele>
        <time>2022-01-08T18:29:14.238Z</time>
      </trkpt>
      <trkpt lat="49.642367" lon="8.368461">
        <ele>94.544751</ele>
        <time>2022-01-08T18:29:19.220Z</time>
      </trkpt>
      <trkpt lat="49.642330" lon="8.368284">
        <ele>94.594090</ele>
        <time>2022-01-08T18:29:23.711Z</time>
      </trkpt>
      <trkpt lat="49.642296" lon="8.368123">
        <ele>94.639014</ele>
        <time>2022-01-08T18:29:27.927Z</time>
      </trkpt>
      <trkpt lat="49.642929" lon="8.367876">
        <ele>94.906475</ele>
        <time>2022-01-08T18:29:43.643Z</time>
      </trkpt>
      <trkpt lat="49.643243" lon="8.367727">
        <ele>95.041043</ele>
        <time>2022-01-08T18:29:52.083Z</time>
      </trkpt>
      <trkpt lat="49.643529" lon="8.367252">
        <ele>95.212864</ele>
        <time>2022-01-08T18:30:03.731Z</time>
      </trkpt>
      <trkpt lat="49.643917" lon="8.366568">
        <ele>95.437052</ele>
        <time>2022-01-08T18:30:18.877Z</time>
      </trkpt>
      <trkpt lat="49.644081" lon="8.366141">
        <ele>95.559450</ele>
        <time>2022-01-08T18:30:26.824Z</time>
      </trkpt>
      <trkpt lat="49.644086" lon="8.366118">
        <ele>95.565431</ele>
        <time>2022-01-08T18:30:27.199Z</time>
      </trkpt>
      <trkpt lat="49.644107" lon="8.365753">
        <ele>95.655773</ele>
        <time>2022-01-08T18:30:36.255Z</time>
      </trkpt>
      <trkpt lat="49.644168" lon="8.365619">
        <ele>95.696156</ele>
        <time>2022-01-08T18:30:40.126Z</time>
      </trkpt>
      <trkpt lat="49.644411" lon="8.365469">
        <ele>95.795792</ele>
        <time>2022-01-08T18:30:49.794Z</time>
      </trkpt>
      <trkpt lat="49.644604" lon="8.365641">
        <ele>95.880632</ele>
        <time>2022-01-08T18:30:58.027Z</time>
      </trkpt>
      <trkpt lat="49.644705" lon="8.365721">
        <ele>95.912774</ele>
        <time>2022-01-08T18:31:02.252Z</time>
      </trkpt>
      <trkpt lat="49.644762" lon="8.365766">
        <ele>95.927929</ele>
        <time>2022-01-08T18:31:04.570Z</time>
      </trkpt>
      <trkpt lat="49.644838" lon="8.365647">
        <ele>95.953549</ele>
        <time>2022-01-08T18:31:07.120Z</time>
      </trkpt>
      <trkpt lat="49.644919" lon="8.365518">
        <ele>95.981093</ele>
        <time>2022-01-08T18:31:09.899Z</time>
      </trkpt>
      <trkpt lat="49.645006" lon="8.365398">
        <ele>96.008707</ele>
        <time>2022-01-08T18:31:12.590Z</time>
      </trkpt>
      <trkpt lat="49.644980" lon="8.365161">
        <ele>96.045554</ele>
        <time>2022-01-08T18:31:17.475Z</time>
      </trkpt>
      <trkpt lat="49.645266" lon="8.364386">
        <ele>96.182288</ele>
        <time>2022-01-08T18:31:34.789Z</time>
      </trkpt>
      <trkpt lat="49.645816" lon="8.363355">
        <ele>96.384372</ele>
        <time>2022-01-08T18:31:55.085Z</time>
      </trkpt>
      <trkpt lat="49.645949" lon="8.363217">
        <ele>96.420780</ele>
        <time>2022-01-08T18:31:58.907Z</time>
      </trkpt>
      <trkpt lat="49.646183" lon="8.363113">
        <ele>96.476108</ele>
        <time>2022-01-08T18:32:04.847Z</time>
      </trkpt>
      <trkpt lat="49.646266" lon="8.363003">
        <ele>96.500960</ele>
        <time>2022-01-08T18:32:07.463Z</time>
      </trkpt>
      <trkpt lat="49.646365" lon="8.362713">
        <ele>96.549194</ele>
        <time>2022-01-08T18:32:12.620Z</time>
      </trkpt>
      <trkpt lat="49.646853" lon="8.362336">
        <ele>96.673178</ele>
        <time>2022-01-08T18:32:25.275Z</time>
      </trkpt>
      <trkpt lat="49.648242" lon="8.361788">
        <ele>96.121663</ele>
        <time>2022-01-08T18:32:55.392Z</time>
      </trkpt>
      <trkpt lat="49.649010" lon="8.361179">
        <ele>95.549664</ele>
        <time>2022-01-08T18:33:12.176Z</time>
      </trkpt>
      <trkpt lat="49.649395" lon="8.361025">
        <ele>95.140625</ele>
        <time>2022-01-08T18:33:19.803Z</time>
      </trkpt>
      <trkpt lat="49.649482" lon="8.360994">
        <ele>95.048795</ele>
        <time>2022-01-08T18:33:21.533Z</time>
      </trkpt>
      <trkpt lat="49.650333" lon="8.360667">
        <ele>94.146857</ele>
        <time>2022-01-08T18:33:39.027Z</time>
      </trkpt>
      <trkpt lat="49.652226" lon="8.360104">
        <ele>92.397813</ele>
        <time>2022-01-08T18:34:18.263Z</time>
      </trkpt>
      <trkpt lat="49.652202" lon="8.360026">
        <ele>92.348550</ele>
        <time>2022-01-08T18:34:19.382Z</time>
      </trkpt>
      <trkpt lat="49.652425" lon="8.359963">
        <ele>92.209034</ele>
        <time>2022-01-08T18:34:24.284Z</time>
      </trkpt>
      <trkpt lat="49.652575" lon="8.359922">
        <ele>92.115287</ele>
        <time>2022-01-08T18:34:27.493Z</time>
      </trkpt>
      <trkpt lat="49.652722" lon="8.359875">
        <ele>92.022902</ele>
        <time>2022-01-08T18:34:30.655Z</time>
      </trkpt>
      <trkpt lat="49.652813" lon="8.360357">
        <ele>91.822858</ele>
        <time>2022-01-08T18:34:37.183Z</time>
      </trkpt>
      <trkpt lat="49.653537" lon="8.360878">
        <ele>91.331310</ele>
        <time>2022-01-08T18:34:53.266Z</time>
      </trkpt>
      <trkpt lat="49.653690" lon="8.360909">
        <ele>91.244649</ele>
        <time>2022-01-08T18:34:56.468Z</time>
      </trkpt>
      <trkpt lat="49.653875" lon="8.361109">
        <ele>91.271702</ele>
        <time>2022-01-08T18:35:01.201Z</time>
      </trkpt>
      <trkpt lat="49.654727" lon="8.361660">
        <ele>91.382359</ele>
        <time>2022-01-08T18:35:21.492Z</time>
      </trkpt>
      <trkpt lat="49.656995" lon="8.363072">
        <ele>92.607836</ele>
        <time>2022-01-08T18:36:22.691Z</time>
      </trkpt>
      <trkpt lat="49.657286" lon="8.363258">
        <ele>92.617987</ele>
        <time>2022-01-08T18:36:30.431Z</time>
      </trkpt>
      <trkpt lat="49.660776" lon="8.365475">
        <ele>92.287110</ele>
        <time>2022-01-08T18:37:52.038Z</time>
      </trkpt>
      <trkpt lat="49.660831" lon="8.365559">
        <ele>92.277103</ele>
        <time>2022-01-08T18:37:53.581Z</time>
      </trkpt>
      <trkpt lat="49.661004" lon="8.365430">
        <ele>92.252249</ele>
        <time>2022-01-08T18:37:57.564Z</time>
      </trkpt>
      <trkpt lat="49.661211" lon="8.365339">
        <ele>92.224404</ele>
        <time>2022-01-08T18:38:01.953Z</time>
      </trkpt>
      <trkpt lat="49.661834" lon="8.364776">
        <ele>92.131022</ele>
        <time>2022-01-08T18:38:17.673Z</time>
      </trkpt>
      <trkpt lat="49.663459" lon="8.363029">
        <ele>93.147718</ele>
        <time>2022-01-08T18:39:06.937Z</time>
      </trkpt>
      <trkpt lat="49.664416" lon="8.362016">
        <ele>93.253992</ele>
        <time>2022-01-08T18:39:33.664Z</time>
      </trkpt>
      <trkpt lat="49.665732" lon="8.360788">
        <ele>93.111281</ele>
        <time>2022-01-08T18:40:06.255Z</time>
      </trkpt>
      <trkpt lat="49.666689" lon="8.360039">
        <ele>92.939947</ele>
        <time>2022-01-08T18:40:29.673Z</time>
      </trkpt>
      <trkpt lat="49.667292" lon="8.359645">
        <ele>92.907942</ele>
        <time>2022-01-08T18:40:44.384Z</time>
      </trkpt>
      <trkpt lat="49.668615" lon="8.358732">
        <ele>92.620985</ele>
        <time>2022-01-08T18:41:26.004Z</time>
      </trkpt>
      <trkpt lat="49.671035" lon="8.357237">
        <ele>91.224394</ele>
        <time>2022-01-08T18:42:19.079Z</time>
      </trkpt>
      <trkpt lat="49.671461" lon="8.357022">
        <ele>90.941634</ele>
        <time>2022-01-08T18:42:28.052Z</time>
      </trkpt>
      <trkpt lat="49.671681" lon="8.356955">
        <ele>90.798688</ele>
        <time>2022-01-08T18:42:32.336Z</time>
      </trkpt>
      <trkpt lat="49.672796" lon="8.356257">
        <ele>90.031769</ele>
        <time>2022-01-08T18:42:56.592Z</time>
      </trkpt>
      <trkpt lat="49.674258" lon="8.355154">
        <ele>89.147480</ele>
        <time>2022-01-08T18:43:29.941Z</time>
      </trkpt>
      <trkpt lat="49.675280" lon="8.354485">
        <ele>88.839657</ele>
        <time>2022-01-08T18:43:52.920Z</time>
      </trkpt>
      <trkpt lat="49.675970" lon="8.354164">
        <ele>88.792206</ele>
        <time>2022-01-08T18:44:08.395Z</time>
      </trkpt>
      <trkpt lat="49.678843" lon="8.353119">
        <ele>89.869210</ele>
        <time>2022-01-08T18:45:19.710Z</time>
      </trkpt>
      <trkpt lat="49.679940" lon="8.352818">
        <ele>90.346720</ele>
        <time>2022-01-08T18:45:46.410Z</time>
      </trkpt>
      <trkpt lat="49.680404" lon="8.352609">
        <ele>90.320939</ele>
        <time>2022-01-08T18:45:57.604Z</time>
      </trkpt>
      <trkpt lat="49.680701" lon="8.352380">
        <ele>90.296723</ele>
        <time>2022-01-08T18:46:05.198Z</time>
      </trkpt>
      <trkpt lat="49.682315" lon="8.352402">
        <ele>89.866432</ele>
        <time>2022-01-08T18:46:39.183Z</time>
      </trkpt>
      <trkpt lat="49.682510" lon="8.352485">
        <ele>89.748342</ele>
        <time>2022-01-08T18:46:43.286Z</time>
      </trkpt>
      <trkpt lat="49.683001" lon="8.352601">
        <ele>89.458341</ele>
        <time>2022-01-08T18:46:52.864Z</time>
      </trkpt>
      <trkpt lat="49.683111" lon="8.352481">
        <ele>89.379731</ele>
        <time>2022-01-08T18:46:55.620Z</time>
      </trkpt>
      <trkpt lat="49.683152" lon="8.352341">
        <ele>89.321679</ele>
        <time>2022-01-08T18:46:57.871Z</time>
      </trkpt>
      <trkpt lat="49.683315" lon="8.352342">
        <ele>89.226511</ele>
        <time>2022-01-08T18:47:00.987Z</time>
      </trkpt>
      <trkpt lat="49.683570" lon="8.352344">
        <ele>89.111681</ele>
        <time>2022-01-08T18:47:06.372Z</time>
      </trkpt>
      <trkpt lat="49.683573" lon="8.352445">
        <ele>89.087061</ele>
        <time>2022-01-08T18:47:07.575Z</time>
      </trkpt>
      <trkpt lat="49.683898" lon="8.352913">
        <ele>88.919883</ele>
        <time>2022-01-08T18:47:16.693Z</time>
      </trkpt>
      <trkpt lat="49.684202" lon="8.353142">
        <ele>88.792604</ele>
        <time>2022-01-08T18:47:23.968Z</time>
      </trkpt>
      <trkpt lat="49.685118" lon="8.353257">
        <ele>88.494374</ele>
        <time>2022-01-08T18:47:43.357Z</time>
      </trkpt>
      <trkpt lat="49.685326" lon="8.353352">
        <ele>88.490864</ele>
        <time>2022-01-08T18:47:48.012Z</time>
      </trkpt>
      <trkpt lat="49.685518" lon="8.353528">
        <ele>88.487252</ele>
        <time>2022-01-08T18:47:53.032Z</time>
      </trkpt>
      <trkpt lat="49.685651" lon="8.353516">
        <ele>88.485096</ele>
        <time>2022-01-08T18:47:55.996Z</time>
      </trkpt>
      <trkpt lat="49.687236" lon="8.353867">
        <ele>88.989145</ele>
        <time>2022-01-08T18:48:31.528Z</time>
      </trkpt>
      <trkpt lat="49.688746" lon="8.353672">
        <ele>90.418575</ele>
        <time>2022-01-08T18:49:14.920Z</time>
      </trkpt>
      <trkpt lat="49.690180" lon="8.353842">
        <ele>91.087522</ele>
        <time>2022-01-08T18:49:50.152Z</time>
      </trkpt>
      <trkpt lat="49.691239" lon="8.354149">
        <ele>89.988647</ele>
        <time>2022-01-08T18:50:10.598Z</time>
      </trkpt>
      <trkpt lat="49.691776" lon="8.354400">
        <ele>89.296514</ele>
        <time>2022-01-08T18:50:20.353Z</time>
      </trkpt>
      <trkpt lat="49.691894" lon="8.354350">
        <ele>89.145565</ele>
        <time>2022-01-08T18:50:22.442Z</time>
      </trkpt>
      <trkpt lat="49.693777" lon="8.355214">
        <ele>87.717952</ele>
        <time>2022-01-08T18:51:02.026Z</time>
      </trkpt>
      <trkpt lat="49.694059" lon="8.355292">
        <ele>87.698175</ele>
        <time>2022-01-08T18:51:08.332Z</time>
      </trkpt>
      <trkpt lat="49.694429" lon="8.355281">
        <ele>87.679010</ele>
        <time>2022-01-08T18:51:16.460Z</time>
      </trkpt>
      <trkpt lat="49.695969" lon="8.357049">
        <ele>87.776273</ele>
        <time>2022-01-08T18:52:01.337Z</time>
      </trkpt>
      <trkpt lat="49.696222" lon="8.357349">
        <ele>87.841361</ele>
        <time>2022-01-08T18:52:08.785Z</time>
      </trkpt>
      <trkpt lat="49.697396" lon="8.358135">
        <ele>88.459493</ele>
        <time>2022-01-08T18:52:38.916Z</time>
      </trkpt>
      <trkpt lat="49.697734" lon="8.358362">
        <ele>88.766409</ele>
        <time>2022-01-08T18:52:48.071Z</time>
      </trkpt>
      <trkpt lat="49.698530" lon="8.359033">
        <ele>89.534650</ele>
        <time>2022-01-08T18:53:12.699Z</time>
      </trkpt>
      <trkpt lat="49.698552" lon="8.359052">
        <ele>89.563122</ele>
        <time>2022-01-08T18:53:13.397Z</time>
      </trkpt>
      <trkpt lat="49.699254" lon="8.359661">
        <ele>90.472623</ele>
        <time>2022-01-08T18:53:35.396Z</time>
      </trkpt>
      <trkpt lat="49.699700" lon="8.359903">
        <ele>91.006677</ele>
        <time>2022-01-08T18:53:48.132Z</time>
      </trkpt>
      <trkpt lat="49.699956" lon="8.360034">
        <ele>91.311354</ele>
        <time>2022-01-08T18:53:55.226Z</time>
      </trkpt>
      <trkpt lat="49.701183" lon="8.360742">
        <ele>92.195700</ele>
        <time>2022-01-08T18:54:28.584Z</time>
      </trkpt>
      <trkpt lat="49.701831" lon="8.361141">
        <ele>92.604161</ele>
        <time>2022-01-08T18:54:44.547Z</time>
      </trkpt>
      <trkpt lat="49.702353" lon="8.361663">
        <ele>92.712778</ele>
        <time>2022-01-08T18:54:59.014Z</time>
      </trkpt>
      <trkpt lat="49.702425" lon="8.361735">
        <ele>92.727759</ele>
        <time>2022-01-08T18:55:01.248Z</time>
      </trkpt>
      <trkpt lat="49.703650" lon="8.363415">
        <ele>92.799474</ele>
        <time>2022-01-08T18:55:38.308Z</time>
      </trkpt>
      <trkpt lat="49.703794" lon="8.363621">
        <ele>92.760334</ele>
        <time>2022-01-08T18:55:42.516Z</time>
      </trkpt>
      <trkpt lat="49.703859" lon="8.363704">
        <ele>92.743516</ele>
        <time>2022-01-08T18:55:44.325Z</time>
      </trkpt>
      <trkpt lat="49.703997" lon="8.363895">
        <ele>92.706564</ele>
        <time>2022-01-08T18:55:48.251Z</time>
      </trkpt>
      <trkpt lat="49.704161" lon="8.364078">
        <ele>92.666214</ele>
        <time>2022-01-08T18:55:52.568Z</time>
      </trkpt>
      <trkpt lat="49.704366" lon="8.364196">
        <ele>92.622572</ele>
        <time>2022-01-08T18:55:57.193Z</time>
      </trkpt>
      <trkpt lat="49.705074" lon="8.364152">
        <ele>92.330806</ele>
        <time>2022-01-08T18:56:11.754Z</time>
      </trkpt>
      <trkpt lat="49.705450" lon="8.364129">
        <ele>92.102548</ele>
        <time>2022-01-08T18:56:19.241Z</time>
      </trkpt>
      <trkpt lat="49.705560" lon="8.364248">
        <ele>92.021113</ele>
        <time>2022-01-08T18:56:21.926Z</time>
      </trkpt>
      <trkpt lat="49.705887" lon="8.365066">
        <ele>91.643860</ele>
        <time>2022-01-08T18:56:34.464Z</time>
      </trkpt>
      <trkpt lat="49.706314" lon="8.366153">
        <ele>91.333270</ele>
        <time>2022-01-08T18:56:51.334Z</time>
      </trkpt>
      <trkpt lat="49.706364" lon="8.366280">
        <ele>91.309387</ele>
        <time>2022-01-08T18:56:53.088Z</time>
      </trkpt>
      <trkpt lat="49.706628" lon="8.366945">
        <ele>91.184043</ele>
        <time>2022-01-08T18:57:03.609Z</time>
      </trkpt>
      <trkpt lat="49.706676" lon="8.367067">
        <ele>91.161104</ele>
        <time>2022-01-08T18:57:05.663Z</time>
      </trkpt>
      <trkpt lat="49.708065" lon="8.370702">
        <ele>91.360546</ele>
        <time>2022-01-08T18:58:08.372Z</time>
      </trkpt>
      <trkpt lat="49.708601" lon="8.372104">
        <ele>91.457195</ele>
        <time>2022-01-08T18:58:32.577Z</time>
      </trkpt>
      <trkpt lat="49.709158" lon="8.373424">
        <ele>91.507422</ele>
        <time>2022-01-08T18:58:55.245Z</time>
      </trkpt>
      <trkpt lat="49.709484" lon="8.374420">
        <ele>91.523719</ele>
        <time>2022-01-08T18:59:10.964Z</time>
      </trkpt>
      <trkpt lat="49.709610" lon="8.374991">
        <ele>91.532527</ele>
        <time>2022-01-08T18:59:19.760Z</time>
      </trkpt>
      <trkpt lat="49.709851" lon="8.376082">
        <ele>91.570283</ele>
        <time>2022-01-08T18:59:36.960Z</time>
      </trkpt>
      <trkpt lat="49.710159" lon="8.377663">
        <ele>91.627015</ele>
        <time>2022-01-08T19:00:00.806Z</time>
      </trkpt>
      <trkpt lat="49.710213" lon="8.377902">
        <ele>91.608147</ele>
        <time>2022-01-08T19:00:04.292Z</time>
      </trkpt>
      <trkpt lat="49.710439" lon="8.378901">
        <ele>91.484117</ele>
        <time>2022-01-08T19:00:19.262Z</time>
      </trkpt>
      <trkpt lat="49.710379" lon="8.378937">
        <ele>91.472453</ele>
        <time>2022-01-08T19:00:20.616Z</time>
      </trkpt>
      <trkpt lat="49.710395" lon="8.378994">
        <ele>91.465172</ele>
        <time>2022-01-08T19:00:21.486Z</time>
      </trkpt>
      <trkpt lat="49.710676" lon="8.379939">
        <ele>91.343281</ele>
        <time>2022-01-08T19:00:35.607Z</time>
      </trkpt>
      <trkpt lat="49.711867" lon="8.385854">
        <ele>90.738449</ele>
        <time>2022-01-08T19:02:03.267Z</time>
      </trkpt>
      <trkpt lat="49.713968" lon="8.390277">
        <ele>88.685204</ele>
        <time>2022-01-08T19:03:14.642Z</time>
      </trkpt>
      <trkpt lat="49.714586" lon="8.391510">
        <ele>88.353350</ele>
        <time>2022-01-08T19:03:35.524Z</time>
      </trkpt>
      <trkpt lat="49.715042" lon="8.392292">
        <ele>88.141114</ele>
        <time>2022-01-08T19:03:50.285Z</time>
      </trkpt>
      <trkpt lat="49.715699" lon="8.393331">
        <ele>88.180649</ele>
        <time>2022-01-08T19:04:11.302Z</time>
      </trkpt>
      <trkpt lat="49.716284" lon="8.395089">
        <ele>88.192833</ele>
        <time>2022-01-08T19:04:40.635Z</time>
      </trkpt>
      <trkpt lat="49.716994" lon="8.396209">
        <ele>88.141971</ele>
        <time>2022-01-08T19:05:02.847Z</time>
      </trkpt>
      <trkpt lat="49.717607" lon="8.397356">
        <ele>88.134566</ele>
        <time>2022-01-08T19:05:23.563Z</time>
      </trkpt>
      <trkpt lat="49.718270" lon="8.398589">
        <ele>88.149927</ele>
        <time>2022-01-08T19:05:46.641Z</time>
      </trkpt>
      <trkpt lat="49.718474" lon="8.399134">
        <ele>88.273755</ele>
        <time>2022-01-08T19:05:56.207Z</time>
      </trkpt>
      <trkpt lat="49.719029" lon="8.401216">
        <ele>88.920943</ele>
        <time>2022-01-08T19:06:31.904Z</time>
      </trkpt>
      <trkpt lat="49.719670" lon="8.402225">
        <ele>88.932887</ele>
        <time>2022-01-08T19:06:53.169Z</time>
      </trkpt>
      <trkpt lat="49.719864" lon="8.402439">
        <ele>88.927680</ele>
        <time>2022-01-08T19:06:58.392Z</time>
      </trkpt>
      <trkpt lat="49.721519" lon="8.404824">
        <ele>88.368077</ele>
        <time>2022-01-08T19:07:45.514Z</time>
      </trkpt>
      <trkpt lat="49.722910" lon="8.407474">
        <ele>87.899766</ele>
        <time>2022-01-08T19:08:33.240Z</time>
      </trkpt>
      <trkpt lat="49.723197" lon="8.408155">
        <ele>87.807980</ele>
        <time>2022-01-08T19:08:44.398Z</time>
      </trkpt>
      <trkpt lat="49.723438" lon="8.408900">
        <ele>87.713920</ele>
        <time>2022-01-08T19:08:55.887Z</time>
      </trkpt>
      <trkpt lat="49.723624" lon="8.409662">
        <ele>87.621955</ele>
        <time>2022-01-08T19:09:07.073Z</time>
      </trkpt>
      <trkpt lat="49.724572" lon="8.413974">
        <ele>88.170293</ele>
        <time>2022-01-08T19:10:14.357Z</time>
      </trkpt>
      <trkpt lat="49.725406" lon="8.417019">
        <ele>89.049313</ele>
        <time>2022-01-08T19:11:07.013Z</time>
      </trkpt>
      <trkpt lat="49.725665" lon="8.417807">
        <ele>89.163938</ele>
        <time>2022-01-08T19:11:20.123Z</time>
      </trkpt>
      <trkpt lat="49.727140" lon="8.418807">
        <ele>88.767785</ele>
        <time>2022-01-08T19:11:54.125Z</time>
      </trkpt>
      <trkpt lat="49.727402" lon="8.418914">
        <ele>88.663704</ele>
        <time>2022-01-08T19:11:59.662Z</time>
      </trkpt>
      <trkpt lat="49.727583" lon="8.419161">
        <ele>88.570999</ele>
        <time>2022-01-08T19:12:04.499Z</time>
      </trkpt>
      <trkpt lat="49.728001" lon="8.421171">
        <ele>88.111008</ele>
        <time>2022-01-08T19:12:32.833Z</time>
      </trkpt>
      <trkpt lat="49.728583" lon="8.424124">
        <ele>88.870933</ele>
        <time>2022-01-08T19:13:19.830Z</time>
      </trkpt>
      <trkpt lat="49.728824" lon="8.425393">
        <ele>89.715642</ele>
        <time>2022-01-08T19:13:42.836Z</time>
      </trkpt>
      <trkpt lat="49.728793" lon="8.425692">
        <ele>89.909041</ele>
        <time>2022-01-08T19:13:48.259Z</time>
      </trkpt>
      <trkpt lat="49.728892" lon="8.426218">
        <ele>90.258923</ele>
        <time>2022-01-08T19:13:57.849Z</time>
      </trkpt>
      <trkpt lat="49.728926" lon="8.426402">
        <ele>90.369381</ele>
        <time>2022-01-08T19:14:01.237Z</time>
      </trkpt>
      <trkpt lat="49.729100" lon="8.427329">
        <ele>90.683172</ele>
        <time>2022-01-08T19:14:17.235Z</time>
      </trkpt>
      <trkpt lat="49.729183" lon="8.427717">
        <ele>90.816027</ele>
        <time>2022-01-08T19:14:25.786Z</time>
      </trkpt>
      <trkpt lat="49.729251" lon="8.428050">
        <ele>90.929549</ele>
        <time>2022-01-08T19:14:32.984Z</time>
      </trkpt>
      <trkpt lat="49.729335" lon="8.428422">
        <ele>91.057642</ele>
        <time>2022-01-08T19:14:40.847Z</time>
      </trkpt>
      <trkpt lat="49.730199" lon="8.431441">
        <ele>90.913773</ele>
        <time>2022-01-08T19:15:41.315Z</time>
      </trkpt>
      <trkpt lat="49.730252" lon="8.431610">
        <ele>90.891406</ele>
        <time>2022-01-08T19:15:44.732Z</time>
      </trkpt>
      <trkpt lat="49.730367" lon="8.431804">
        <ele>90.864060</ele>
        <time>2022-01-08T19:15:49.674Z</time>
      </trkpt>
      <trkpt lat="49.730400" lon="8.432098">
        <ele>90.833059</ele>
        <time>2022-01-08T19:15:53.793Z</time>
      </trkpt>
      <trkpt lat="49.730599" lon="8.432823">
        <ele>90.751231</ele>
        <time>2022-01-08T19:16:04.620Z</time>
      </trkpt>
      <trkpt lat="49.730757" lon="8.433420">
        <ele>90.684212</ele>
        <time>2022-01-08T19:16:13.515Z</time>
      </trkpt>
      <trkpt lat="49.731022" lon="8.434306">
        <ele>90.601352</ele>
        <time>2022-01-08T19:16:27.724Z</time>
      </trkpt>
      <trkpt lat="49.731311" lon="8.435023">
        <ele>90.572280</ele>
        <time>2022-01-08T19:16:39.944Z</time>
      </trkpt>
      <trkpt lat="49.731701" lon="8.435988">
        <ele>90.533122</ele>
        <time>2022-01-08T19:16:55.545Z</time>
      </trkpt>
      <trkpt lat="49.732864" lon="8.438273">
        <ele>90.809776</ele>
        <time>2022-01-08T19:17:38.957Z</time>
      </trkpt>
      <trkpt lat="49.732875" lon="8.438295">
        <ele>90.813229</ele>
        <time>2022-01-08T19:17:39.372Z</time>
      </trkpt>
      <trkpt lat="49.733787" lon="8.439722">
        <ele>90.974557</ele>
        <time>2022-01-08T19:18:09.333Z</time>
      </trkpt>
      <trkpt lat="49.734394" lon="8.440639">
        <ele>91.027166</ele>
        <time>2022-01-08T19:18:28.061Z</time>
      </trkpt>
      <trkpt lat="49.734796" lon="8.441252">
        <ele>90.869395</ele>
        <time>2022-01-08T19:18:40.156Z</time>
      </trkpt>
      <trkpt lat="49.734846" lon="8.441327">
        <ele>90.849929</ele>
        <time>2022-01-08T19:18:41.537Z</time>
      </trkpt>
      <trkpt lat="49.735513" lon="8.442298">
        <ele>90.593932</ele>
        <time>2022-01-08T19:19:00.625Z</time>
      </trkpt>
      <trkpt lat="49.736996" lon="8.444165">
        <ele>90.388447</ele>
        <time>2022-01-08T19:19:42.452Z</time>
      </trkpt>
      <trkpt lat="49.737708" lon="8.445124">
        <ele>90.346099</ele>
        <time>2022-01-08T19:20:03.053Z</time>
      </trkpt>
      <trkpt lat="49.738666" lon="8.446887">
        <ele>90.449541</ele>
        <time>2022-01-08T19:20:36.191Z</time>
      </trkpt>
      <trkpt lat="49.739359" lon="8.447911">
        <ele>90.675739</ele>
        <time>2022-01-08T19:20:58.793Z</time>
      </trkpt>
      <trkpt lat="49.740293" lon="8.449248">
        <ele>90.990922</ele>
        <time>2022-01-08T19:21:29.580Z</time>
      </trkpt>
      <trkpt lat="49.741001" lon="8.450199">
        <ele>91.109283</ele>
        <time>2022-01-08T19:21:50.650Z</time>
      </trkpt>
      <trkpt lat="49.742229" lon="8.451386">
        <ele>90.487056</ele>
        <time>2022-01-08T19:22:20.226Z</time>
      </trkpt>
      <trkpt lat="49.744846" lon="8.453811">
        <ele>89.060476</ele>
        <time>2022-01-08T19:23:22.800Z</time>
      </trkpt>
      <trkpt lat="49.745939" lon="8.454820">
        <ele>88.692833</ele>
        <time>2022-01-08T19:23:50.199Z</time>
      </trkpt>
      <trkpt lat="49.746901" lon="8.455660">
        <ele>88.500172</ele>
        <time>2022-01-08T19:24:14.166Z</time>
      </trkpt>
      <trkpt lat="49.747294" lon="8.455885">
        <ele>88.453563</ele>
        <time>2022-01-08T19:24:23.120Z</time>
      </trkpt>
      <trkpt lat="49.747584" lon="8.455996">
        <ele>88.430637</ele>
        <time>2022-01-08T19:24:29.512Z</time>
      </trkpt>
      <trkpt lat="49.747984" lon="8.456045">
        <ele>88.399844</ele>
        <time>2022-01-08T19:24:38.164Z</time>
      </trkpt>
      <trkpt lat="49.750291" lon="8.455978">
        <ele>88.300585</ele>
        <time>2022-01-08T19:25:29.803Z</time>
      </trkpt>
      <trkpt lat="49.750748" lon="8.456036">
        <ele>88.243247</ele>
        <time>2022-01-08T19:25:39.776Z</time>
      </trkpt>
      <trkpt lat="49.750729" lon="8.455913">
        <ele>88.214218</ele>
        <time>2022-01-08T19:25:41.512Z</time>
      </trkpt>
      <trkpt lat="49.750772" lon="8.455831">
        <ele>88.189978</ele>
        <time>2022-01-08T19:25:42.984Z</time>
      </trkpt>
      <trkpt lat="49.750781" lon="8.455587">
        <ele>88.133881</ele>
        <time>2022-01-08T19:25:46.365Z</time>
      </trkpt>
      <trkpt lat="49.750794" lon="8.455508">
        <ele>88.115169</ele>
        <time>2022-01-08T19:25:47.499Z</time>
      </trkpt>
      <trkpt lat="49.752231" lon="8.451273">
        <ele>86.995628</ele>
        <time>2022-01-08T19:26:51.618Z</time>
      </trkpt>
      <trkpt lat="49.754875" lon="8.446222">
        <ele>86.923511</ele>
        <time>2022-01-08T19:28:25.240Z</time>
      </trkpt>
      <trkpt lat="49.755894" lon="8.444281">
        <ele>86.961651</ele>
        <time>2022-01-08T19:29:01.210Z</time>
      </trkpt>
      <trkpt lat="49.757145" lon="8.441164">
        <ele>86.946499</ele>
        <time>2022-01-08T19:29:53.600Z</time>
      </trkpt>
      <trkpt lat="49.758009" lon="8.439012">
        <ele>87.197638</ele>
        <time>2022-01-08T19:30:30.360Z</time>
      </trkpt>
      <trkpt lat="49.758623" lon="8.437478">
        <ele>87.655990</ele>
        <time>2022-01-08T19:30:58.565Z</time>
      </trkpt>
      <trkpt lat="49.758883" lon="8.436952">
        <ele>88.027862</ele>
        <time>2022-01-08T19:31:09.724Z</time>
      </trkpt>
      <trkpt lat="49.759926" lon="8.435491">
        <ele>89.146987</ele>
        <time>2022-01-08T19:31:46.501Z</time>
      </trkpt>
      <trkpt lat="49.760516" lon="8.434840">
        <ele>89.446089</ele>
        <time>2022-01-08T19:32:04.952Z</time>
      </trkpt>
      <trkpt lat="49.760600" lon="8.434024">
        <ele>89.666441</ele>
        <time>2022-01-08T19:32:16.902Z</time>
      </trkpt>
      <trkpt lat="49.761197" lon="8.433969">
        <ele>89.744571</ele>
        <time>2022-01-08T19:32:29.874Z</time>
      </trkpt>
      <trkpt lat="49.761426" lon="8.433497">
        <ele>89.675725</ele>
        <time>2022-01-08T19:32:37.659Z</time>
      </trkpt>
      <trkpt lat="49.761510" lon="8.433092">
        <ele>89.626116</ele>
        <time>2022-01-08T19:32:43.217Z</time>
      </trkpt>
      <trkpt lat="49.762222" lon="8.431565">
        <ele>89.579959</ele>
        <time>2022-01-08T19:33:10.107Z</time>
      </trkpt>
      <trkpt lat="49.763586" lon="8.428633">
        <ele>90.258678</ele>
        <time>2022-01-08T19:34:05.931Z</time>
      </trkpt>
      <trkpt lat="49.764334" lon="8.426193">
        <ele>90.396857</ele>
        <time>2022-01-08T19:34:45.493Z</time>
      </trkpt>
      <trkpt lat="49.764770" lon="8.426460">
        <ele>90.337444</ele>
        <time>2022-01-08T19:34:55.294Z</time>
      </trkpt>
      <trkpt lat="49.765114" lon="8.426660">
        <ele>90.290881</ele>
        <time>2022-01-08T19:35:03.045Z</time>
      </trkpt>
      <trkpt lat="49.765498" lon="8.426869">
        <ele>90.247258</ele>
        <time>2022-01-08T19:35:11.663Z</time>
      </trkpt>
      <trkpt lat="49.765660" lon="8.426459">
        <ele>90.216604</ele>
        <time>2022-01-08T19:35:22.908Z</time>
      </trkpt>
      <trkpt lat="49.765949" lon="8.425309">
        <ele>90.137905</ele>
        <time>2022-01-08T19:35:51.829Z</time>
      </trkpt>
      <trkpt lat="49.766403" lon="8.423953">
        <ele>90.095905</ele>
        <time>2022-01-08T19:36:29.898Z</time>
      </trkpt>
      <trkpt lat="49.766751" lon="8.422739">
        <ele>90.093191</ele>
        <time>2022-01-08T19:37:01.788Z</time>
      </trkpt>
      <trkpt lat="49.766958" lon="8.422219">
        <ele>90.070118</ele>
        <time>2022-01-08T19:37:15.899Z</time>
      </trkpt>
      <trkpt lat="49.767928" lon="8.420657">
        <ele>89.154165</ele>
        <time>2022-01-08T19:38:04.219Z</time>
      </trkpt>
      <trkpt lat="49.769829" lon="8.418537">
        <ele>87.709258</ele>
        <time>2022-01-08T19:39:24.870Z</time>
      </trkpt>
      <trkpt lat="49.772052" lon="8.415292">
        <ele>88.156115</ele>
        <time>2022-01-08T19:41:21.771Z</time>
      </trkpt>
      <trkpt lat="49.772739" lon="8.414889">
        <ele>88.278592</ele>
        <time>2022-01-08T19:41:48.726Z</time>
      </trkpt>
      <trkpt lat="49.772989" lon="8.414511">
        <ele>88.327407</ele>
        <time>2022-01-08T19:42:01.618Z</time>
      </trkpt>
      <trkpt lat="49.773155" lon="8.414055">
        <ele>88.374633</ele>
        <time>2022-01-08T19:42:14.166Z</time>
      </trkpt>
      <trkpt lat="49.773441" lon="8.413827">
        <ele>88.419572</ele>
        <time>2022-01-08T19:42:26.225Z</time>
      </trkpt>
      <trkpt lat="49.773488" lon="8.413790">
        <ele>88.426938</ele>
        <time>2022-01-08T19:42:28.182Z</time>
      </trkpt>
      <trkpt lat="49.774142" lon="8.412674">
        <ele>88.875062</ele>
        <time>2022-01-08T19:43:06.629Z</time>
      </trkpt>
      <trkpt lat="49.775561" lon="8.411705">
        <ele>89.541234</ele>
        <time>2022-01-08T19:44:08.686Z</time>
      </trkpt>
      <trkpt lat="49.775778" lon="8.411623">
        <ele>89.471539</ele>
        <time>2022-01-08T19:44:17.071Z</time>
      </trkpt>
      <trkpt lat="49.776275" lon="8.411581">
        <ele>89.316233</ele>
        <time>2022-01-08T19:44:34.962Z</time>
      </trkpt>
      <trkpt lat="49.776802" lon="8.411438">
        <ele>89.149292</ele>
        <time>2022-01-08T19:44:53.144Z</time>
      </trkpt>
      <trkpt lat="49.778298" lon="8.411306">
        <ele>87.782250</ele>
        <time>2022-01-08T19:45:42.660Z</time>
      </trkpt>
      <trkpt lat="49.778746" lon="8.411143">
        <ele>87.324027</ele>
        <time>2022-01-08T19:45:58.534Z</time>
      </trkpt>
      <trkpt lat="49.779587" lon="8.411073">
        <ele>87.640188</ele>
        <time>2022-01-08T19:46:30.082Z</time>
      </trkpt>
      <trkpt lat="49.779983" lon="8.410920">
        <ele>87.808957</ele>
        <time>2022-01-08T19:46:46.518Z</time>
      </trkpt>
      <trkpt lat="49.780224" lon="8.411081">
        <ele>87.917490</ele>
        <time>2022-01-08T19:46:57.175Z</time>
      </trkpt>
      <trkpt lat="49.780284" lon="8.411223">
        <ele>87.962801</ele>
        <time>2022-01-08T19:47:01.889Z</time>
      </trkpt>
      <trkpt lat="49.780483" lon="8.411284">
        <ele>88.047811</ele>
        <time>2022-01-08T19:47:10.237Z</time>
      </trkpt>
      <trkpt lat="49.782350" lon="8.411250">
        <ele>89.301512</ele>
        <time>2022-01-08T19:48:25.284Z</time>
      </trkpt>
      <trkpt lat="49.785404" lon="8.410100">
        <ele>88.438806</ele>
        <time>2022-01-08T19:50:17.523Z</time>
      </trkpt>
      <trkpt lat="49.785502" lon="8.410053">
        <ele>88.402443</ele>
        <time>2022-01-08T19:50:21.009Z</time>
      </trkpt>
      <trkpt lat="49.788108" lon="8.408810">
        <ele>88.153418</ele>
        <time>2022-01-08T19:52:00.579Z</time>
      </trkpt>
      <trkpt lat="49.788972" lon="8.408331">
        <ele>88.362828</ele>
        <time>2022-01-08T19:52:36.177Z</time>
      </trkpt>
      <trkpt lat="49.789132" lon="8.408153">
        <ele>88.407781</ele>
        <time>2022-01-08T19:52:43.736Z</time>
      </trkpt>
      <trkpt lat="49.789192" lon="8.408012">
        <ele>88.411051</ele>
        <time>2022-01-08T19:52:48.110Z</time>
      </trkpt>
      <trkpt lat="49.789254" lon="8.407875">
        <ele>88.404061</ele>
        <time>2022-01-08T19:52:52.387Z</time>
      </trkpt>
      <trkpt lat="49.789579" lon="8.408033">
        <ele>88.382018</ele>
        <time>2022-01-08T19:53:05.639Z</time>
      </trkpt>
      <trkpt lat="49.791064" lon="8.407191">
        <ele>88.034590</ele>
        <time>2022-01-08T19:54:02.840Z</time>
      </trkpt>
      <trkpt lat="49.793647" lon="8.405627">
        <ele>86.071878</ele>
        <time>2022-01-08T19:55:36.001Z</time>
      </trkpt>
      <trkpt lat="49.796898" lon="8.403319">
        <ele>87.302328</ele>
        <time>2022-01-08T19:57:57.820Z</time>
      </trkpt>
      <trkpt lat="49.798976" lon="8.401696">
        <ele>87.000988</ele>
        <time>2022-01-08T19:59:20.994Z</time>
      </trkpt>
      <trkpt lat="49.801667" lon="8.399408">
        <ele>87.455968</ele>
        <time>2022-01-08T20:01:15.962Z</time>
      </trkpt>
      <trkpt lat="49.803189" lon="8.397998">
        <ele>88.480958</ele>
        <time>2022-01-08T20:02:27.023Z</time>
      </trkpt>
      <trkpt lat="49.803877" lon="8.397361">
        <ele>88.978954</ele>
        <time>2022-01-08T20:02:59.286Z</time>
      </trkpt>
      <trkpt lat="49.807117" lon="8.393989">
        <ele>90.331108</ele>
        <time>2022-01-08T20:05:29.301Z</time>
      </trkpt>
      <trkpt lat="49.807654" lon="8.393417">
        <ele>90.370713</ele>
        <time>2022-01-08T20:05:44.775Z</time>
      </trkpt>
      <trkpt lat="49.808085" lon="8.392822">
        <ele>90.405797</ele>
        <time>2022-01-08T20:05:58.321Z</time>
      </trkpt>
      <trkpt lat="49.808006" lon="8.392629">
        <ele>90.298050</ele>
        <time>2022-01-08T20:06:01.349Z</time>
      </trkpt>
      <trkpt lat="49.808011" lon="8.392395">
        <ele>90.160828</ele>
        <time>2022-01-08T20:06:04.499Z</time>
      </trkpt>
      <trkpt lat="49.808313" lon="8.391879">
        <ele>89.752555</ele>
        <time>2022-01-08T20:06:13.804Z</time>
      </trkpt>
      <trkpt lat="49.808391" lon="8.391711">
        <ele>89.631257</ele>
        <time>2022-01-08T20:06:16.402Z</time>
      </trkpt>
      <trkpt lat="49.808662" lon="8.391904">
        <ele>89.360389</ele>
        <time>2022-01-08T20:06:22.528Z</time>
      </trkpt>
      <trkpt lat="49.808931" lon="8.391876">
        <ele>89.115536</ele>
        <time>2022-01-08T20:06:27.886Z</time>
      </trkpt>
      <trkpt lat="49.809201" lon="8.391669">
        <ele>88.841955</ele>
        <time>2022-01-08T20:06:37.750Z</time>
      </trkpt>
      <trkpt lat="49.809715" lon="8.391062">
        <ele>88.206059</ele>
        <time>2022-01-08T20:06:58.936Z</time>
      </trkpt>
      <trkpt lat="49.810951" lon="8.389602">
        <ele>86.982734</ele>
        <time>2022-01-08T20:07:52.093Z</time>
      </trkpt>
      <trkpt lat="49.814536" lon="8.384883">
        <ele>86.928262</ele>
        <time>2022-01-08T20:10:48.209Z</time>
      </trkpt>
      <trkpt lat="49.818203" lon="8.380192">
        <ele>85.246002</ele>
        <time>2022-01-08T20:13:37.878Z</time>
      </trkpt>
      <trkpt lat="49.819585" lon="8.378423">
        <ele>84.728369</ele>
        <time>2022-01-08T20:14:41.170Z</time>
      </trkpt>
      <trkpt lat="49.820433" lon="8.377585">
        <ele>84.640754</ele>
        <time>2022-01-08T20:15:18.878Z</time>
      </trkpt>
      <trkpt lat="49.825516" lon="8.374984">
        <ele>88.376328</ele>
        <time>2022-01-08T20:18:52.387Z</time>
      </trkpt>
      <trkpt lat="49.826474" lon="8.374683">
        <ele>89.271891</ele>
        <time>2022-01-08T20:19:32.609Z</time>
      </trkpt>
      <trkpt lat="49.826873" lon="8.374289">
        <ele>89.709481</ele>
        <time>2022-01-08T20:19:52.369Z</time>
      </trkpt>
      <trkpt lat="49.828806" lon="8.374364">
        <ele>90.441485</ele>
        <time>2022-01-08T20:21:08.700Z</time>
      </trkpt>
      <trkpt lat="49.829304" lon="8.374482">
        <ele>90.119935</ele>
        <time>2022-01-08T20:21:25.937Z</time>
      </trkpt>
      <trkpt lat="49.832016" lon="8.375454">
        <ele>86.166490</ele>
        <time>2022-01-08T20:22:54.025Z</time>
      </trkpt>
      <trkpt lat="49.833095" lon="8.375898">
        <ele>85.888675</ele>
        <time>2022-01-08T20:23:36.339Z</time>
      </trkpt>
      <trkpt lat="49.833429" lon="8.375865">
        <ele>86.140265</ele>
        <time>2022-01-08T20:23:49.558Z</time>
      </trkpt>
      <trkpt lat="49.833429" lon="8.375865">
        <ele>86.140265</ele>
        <time>2022-01-08T20:23:49.675Z</time>
      </trkpt>
      <trkpt lat="49.833558" lon="8.375711">
        <ele>86.262657</ele>
        <time>2022-01-08T20:23:56.446Z</time>
      </trkpt>
      <trkpt lat="49.833973" lon="8.374768">
        <ele>86.816185</ele>
        <time>2022-01-08T20:24:27.099Z</time>
      </trkpt>
      <trkpt lat="49.834415" lon="8.374254">
        <ele>87.076102</ele>
        <time>2022-01-08T20:24:50.187Z</time>
      </trkpt>
      <trkpt lat="49.835046" lon="8.373603">
        <ele>87.423952</ele>
        <time>2022-01-08T20:25:19.592Z</time>
      </trkpt>
      <trkpt lat="49.836213" lon="8.372665">
        <ele>87.482493</ele>
        <time>2022-01-08T20:26:07.243Z</time>
      </trkpt>
      <trkpt lat="49.836351" lon="8.372564">
        <ele>87.449219</ele>
        <time>2022-01-08T20:26:12.607Z</time>
      </trkpt>
      <trkpt lat="49.836827" lon="8.372589">
        <ele>87.345369</ele>
        <time>2022-01-08T20:26:29.654Z</time>
      </trkpt>
      <trkpt lat="49.841282" lon="8.374537">
        <ele>86.964837</ele>
        <time>2022-01-08T20:29:18.545Z</time>
      </trkpt>
      <trkpt lat="49.843054" lon="8.375411">
        <ele>87.900468</ele>
        <time>2022-01-08T20:30:32.594Z</time>
      </trkpt>
      <trkpt lat="49.845232" lon="8.376485">
        <ele>89.366919</ele>
        <time>2022-01-08T20:32:03.790Z</time>
      </trkpt>
      <trkpt lat="49.848001" lon="8.377878">
        <ele>90.761113</ele>
        <time>2022-01-08T20:33:56.230Z</time>
      </trkpt>
      <trkpt lat="49.848373" lon="8.378065">
        <ele>91.017151</ele>
        <time>2022-01-08T20:34:11.840Z</time>
      </trkpt>
      <trkpt lat="49.848589" lon="8.378030">
        <ele>91.159345</ele>
        <time>2022-01-08T20:34:20.592Z</time>
      </trkpt>
      <trkpt lat="49.848969" lon="8.378088">
        <ele>91.409347</ele>
        <time>2022-01-08T20:34:30.624Z</time>
      </trkpt>
      <trkpt lat="49.849376" lon="8.378180">
        <ele>91.630873</ele>
        <time>2022-01-08T20:34:41.518Z</time>
      </trkpt>
      <trkpt lat="49.849662" lon="8.378148">
        <ele>91.713659</ele>
        <time>2022-01-08T20:34:49.223Z</time>
      </trkpt>
      <trkpt lat="49.851255" lon="8.377665">
        <ele>91.925017</ele>
        <time>2022-01-08T20:35:27.877Z</time>
      </trkpt>
      <trkpt lat="49.853017" lon="8.377150">
        <ele>90.483694</ele>
        <time>2022-01-08T20:36:04.085Z</time>
      </trkpt>
      <trkpt lat="49.853508" lon="8.376903">
        <ele>89.971989</ele>
        <time>2022-01-08T20:36:14.331Z</time>
      </trkpt>
      <trkpt lat="49.853764" lon="8.376540">
        <ele>89.628137</ele>
        <time>2022-01-08T20:36:21.329Z</time>
      </trkpt>
      <trkpt lat="49.854040" lon="8.376010">
        <ele>89.192693</ele>
        <time>2022-01-08T20:36:30.295Z</time>
      </trkpt>
      <trkpt lat="49.854069" lon="8.375929">
        <ele>89.133476</ele>
        <time>2022-01-08T20:36:31.517Z</time>
      </trkpt>
      <trkpt lat="49.854293" lon="8.375005">
        <ele>88.555346</ele>
        <time>2022-01-08T20:36:44.815Z</time>
      </trkpt>
      <trkpt lat="49.854930" lon="8.372454">
        <ele>87.130278</ele>
        <time>2022-01-08T20:37:20.793Z</time>
      </trkpt>
      <trkpt lat="49.854681" lon="8.372092">
        <ele>86.926684</ele>
        <time>2022-01-08T20:37:27.454Z</time>
      </trkpt>
      <trkpt lat="49.854662" lon="8.371996">
        <ele>86.888060</ele>
        <time>2022-01-08T20:37:28.784Z</time>
      </trkpt>
      <trkpt lat="49.854632" lon="8.371844">
        <ele>86.826920</ele>
        <time>2022-01-08T20:37:30.833Z</time>
      </trkpt>
      <trkpt lat="49.854816" lon="8.370118">
        <ele>86.339679</ele>
        <time>2022-01-08T20:37:54.063Z</time>
      </trkpt>
      <trkpt lat="49.855021" lon="8.368620">
        <ele>86.517942</ele>
        <time>2022-01-08T20:38:17.491Z</time>
      </trkpt>
      <trkpt lat="49.855254" lon="8.367726">
        <ele>86.631676</ele>
        <time>2022-01-08T20:38:32.253Z</time>
      </trkpt>
      <trkpt lat="49.855646" lon="8.366929">
        <ele>86.767863</ele>
        <time>2022-01-08T20:38:47.289Z</time>
      </trkpt>
      <trkpt lat="49.855695" lon="8.366720">
        <ele>86.798076</ele>
        <time>2022-01-08T20:38:50.636Z</time>
      </trkpt>
      <trkpt lat="49.855734" lon="8.366515">
        <ele>86.827113</ele>
        <time>2022-01-08T20:38:53.644Z</time>
      </trkpt>
      <trkpt lat="49.855841" lon="8.365927">
        <ele>86.910116</ele>
        <time>2022-01-08T20:39:02.280Z</time>
      </trkpt>
      <trkpt lat="49.856051" lon="8.364767">
        <ele>87.241971</ele>
        <time>2022-01-08T20:39:20.412Z</time>
      </trkpt>
      <trkpt lat="49.856065" lon="8.364701">
        <ele>87.273010</ele>
        <time>2022-01-08T20:39:21.527Z</time>
      </trkpt>
      <trkpt lat="49.856131" lon="8.364294">
        <ele>87.460493</ele>
        <time>2022-01-08T20:39:28.388Z</time>
      </trkpt>
      <trkpt lat="49.856210" lon="8.363835">
        <ele>87.672724</ele>
        <time>2022-01-08T20:39:36.207Z</time>
      </trkpt>
      <trkpt lat="49.856249" lon="8.363611">
        <ele>87.776376</ele>
        <time>2022-01-08T20:39:39.951Z</time>
      </trkpt>
      <trkpt lat="49.856243" lon="8.362114">
        <ele>88.468087</ele>
        <time>2022-01-08T20:40:04.874Z</time>
      </trkpt>
      <trkpt lat="49.856228" lon="8.361637">
        <ele>88.706086</ele>
        <time>2022-01-08T20:40:13.038Z</time>
      </trkpt>
      <trkpt lat="49.856849" lon="8.361255">
        <ele>89.222489</ele>
        <time>2022-01-08T20:40:30.845Z</time>
      </trkpt>
      <trkpt lat="49.857689" lon="8.360733">
        <ele>89.503520</ele>
        <time>2022-01-08T20:40:51.945Z</time>
      </trkpt>
      <trkpt lat="49.857706" lon="8.360722">
        <ele>89.496853</ele>
        <time>2022-01-08T20:40:52.351Z</time>
      </trkpt>
      <trkpt lat="49.857741" lon="8.360696">
        <ele>89.482807</ele>
        <time>2022-01-08T20:40:53.203Z</time>
      </trkpt>
      <trkpt lat="49.857305" lon="8.359141">
        <ele>89.087110</ele>
        <time>2022-01-08T20:41:16.803Z</time>
      </trkpt>
      <trkpt lat="49.857642" lon="8.359000">
        <ele>88.935251</ele>
        <time>2022-01-08T20:41:23.775Z</time>
      </trkpt>
      <trkpt lat="49.858189" lon="8.358697">
        <ele>88.511841</ele>
        <time>2022-01-08T20:41:38.894Z</time>
      </trkpt>
      <trkpt lat="49.858806" lon="8.358307">
        <ele>88.026157</ele>
        <time>2022-01-08T20:41:56.458Z</time>
      </trkpt>
      <trkpt lat="49.858944" lon="8.358220">
        <ele>87.917568</ele>
        <time>2022-01-08T20:42:00.505Z</time>
      </trkpt>
      <trkpt lat="49.859624" lon="8.357790">
        <ele>87.688585</ele>
        <time>2022-01-08T20:42:21.065Z</time>
      </trkpt>
      <trkpt lat="49.860604" lon="8.357143">
        <ele>87.725234</ele>
        <time>2022-01-08T20:42:52.390Z</time>
      </trkpt>
      <trkpt lat="49.861282" lon="8.356479">
        <ele>87.838137</ele>
        <time>2022-01-08T20:43:17.654Z</time>
      </trkpt>
      <trkpt lat="49.862777" lon="8.354910">
        <ele>88.038540</ele>
        <time>2022-01-08T20:44:11.526Z</time>
      </trkpt>
      <trkpt lat="49.863962" lon="8.353437">
        <ele>87.867122</ele>
        <time>2022-01-08T20:44:53.986Z</time>
      </trkpt>
      <trkpt lat="49.864146" lon="8.353094">
        <ele>87.969993</ele>
        <time>2022-01-08T20:45:02.195Z</time>
      </trkpt>
      <trkpt lat="49.864295" lon="8.352977">
        <ele>88.029718</ele>
        <time>2022-01-08T20:45:06.973Z</time>
      </trkpt>
      <trkpt lat="49.865022" lon="8.352181">
        <ele>88.347950</ele>
        <time>2022-01-08T20:45:27.823Z</time>
      </trkpt>
      <trkpt lat="49.865029" lon="8.352071">
        <ele>88.373432</ele>
        <time>2022-01-08T20:45:30.112Z</time>
      </trkpt>
      <trkpt lat="49.865283" lon="8.351735">
        <ele>88.644361</ele>
        <time>2022-01-08T20:45:38.910Z</time>
      </trkpt>
      <trkpt lat="49.865926" lon="8.351188">
        <ele>89.664765</ele>
        <time>2022-01-08T20:46:00.634Z</time>
      </trkpt>
      <trkpt lat="49.866451" lon="8.350769">
        <ele>90.486284</ele>
        <time>2022-01-08T20:46:17.575Z</time>
      </trkpt>
      <trkpt lat="49.867160" lon="8.350037">
        <ele>90.973000</ele>
        <time>2022-01-08T20:46:39.506Z</time>
      </trkpt>
      <trkpt lat="49.867534" lon="8.349573">
        <ele>91.000316</ele>
        <time>2022-01-08T20:46:51.367Z</time>
      </trkpt>
      <trkpt lat="49.868478" lon="8.348733">
        <ele>90.699126</ele>
        <time>2022-01-08T20:47:12.780Z</time>
      </trkpt>
      <trkpt lat="49.868945" lon="8.348194">
        <ele>90.007698</ele>
        <time>2022-01-08T20:47:23.361Z</time>
      </trkpt>
      <trkpt lat="49.869481" lon="8.347450">
        <ele>89.153345</ele>
        <time>2022-01-08T20:47:36.739Z</time>
      </trkpt>
      <trkpt lat="49.869605" lon="8.347278">
        <ele>88.955758</ele>
        <time>2022-01-08T20:47:39.902Z</time>
      </trkpt>
      <trkpt lat="49.869554" lon="8.347185">
        <ele>88.899748</ele>
        <time>2022-01-08T20:47:42.082Z</time>
      </trkpt>
      <trkpt lat="49.870346" lon="8.346035">
        <ele>88.642389</ele>
        <time>2022-01-08T20:48:04.473Z</time>
      </trkpt>
      <trkpt lat="49.871116" lon="8.344917">
        <ele>88.471601</ele>
        <time>2022-01-08T20:48:29.642Z</time>
      </trkpt>
      <trkpt lat="49.871481" lon="8.344396">
        <ele>88.457555</ele>
        <time>2022-01-08T20:48:41.029Z</time>
      </trkpt>
      <trkpt lat="49.871550" lon="8.344303">
        <ele>88.454966</ele>
        <time>2022-01-08T20:48:42.889Z</time>
      </trkpt>
      <trkpt lat="49.871606" lon="8.344397">
        <ele>88.452630</ele>
        <time>2022-01-08T20:48:48.591Z</time>
      </trkpt>
      <trkpt lat="49.871811" lon="8.344158">
        <ele>88.445368</ele>
        <time>2022-01-08T20:48:54.037Z</time>
      </trkpt>
      <trkpt lat="49.871947" lon="8.344162">
        <ele>88.441516</ele>
        <time>2022-01-08T20:48:56.766Z</time>
      </trkpt>
      <trkpt lat="49.872023" lon="8.344072">
        <ele>88.438808</ele>
        <time>2022-01-08T20:48:58.854Z</time>
      </trkpt>
      <trkpt lat="49.872098" lon="8.343984">
        <ele>88.436145</ele>
        <time>2022-01-08T20:49:00.931Z</time>
      </trkpt>
      <trkpt lat="49.872439" lon="8.343569">
        <ele>88.551026</ele>
        <time>2022-01-08T20:49:10.573Z</time>
      </trkpt>
      <trkpt lat="49.872706" lon="8.343208">
        <ele>88.709800</ele>
        <time>2022-01-08T20:49:18.846Z</time>
      </trkpt>
      <trkpt lat="49.872762" lon="8.342978">
        <ele>88.780841</ele>
        <time>2022-01-08T20:49:22.491Z</time>
      </trkpt>
      <trkpt lat="49.873211" lon="8.342692">
        <ele>88.998442</ele>
        <time>2022-01-08T20:49:34.379Z</time>
      </trkpt>
      <trkpt lat="49.873189" lon="8.342590">
        <ele>89.029520</ele>
        <time>2022-01-08T20:49:36.602Z</time>
      </trkpt>
      <trkpt lat="49.873177" lon="8.342531">
        <ele>89.047396</ele>
        <time>2022-01-08T20:49:37.880Z</time>
      </trkpt>
      <trkpt lat="49.873223" lon="8.342507">
        <ele>89.069154</ele>
        <time>2022-01-08T20:49:39.399Z</time>
      </trkpt>
      <trkpt lat="49.873077" lon="8.341721">
        <ele>89.399371</ele>
        <time>2022-01-08T20:49:56.351Z</time>
      </trkpt>
      <trkpt lat="49.873043" lon="8.341537">
        <ele>89.531366</ele>
        <time>2022-01-08T20:50:00.596Z</time>
      </trkpt>
      <trkpt lat="49.873040" lon="8.341523">
        <ele>89.541540</ele>
        <time>2022-01-08T20:50:00.927Z</time>
      </trkpt>
      <trkpt lat="49.873024" lon="8.341437">
        <ele>89.603265</ele>
        <time>2022-01-08T20:50:02.480Z</time>
      </trkpt>
      <trkpt lat="49.872833" lon="8.340387">
        <ele>90.355612</ele>
        <time>2022-01-08T20:50:21.703Z</time>
      </trkpt>
      <trkpt lat="49.872991" lon="8.340322">
        <ele>90.530508</ele>
        <time>2022-01-08T20:50:26.145Z</time>
      </trkpt>
      <trkpt lat="49.873165" lon="8.340248">
        <ele>90.723549</ele>
        <time>2022-01-08T20:50:31.106Z</time>
      </trkpt>
      <trkpt lat="49.873222" lon="8.340225">
        <ele>90.786566</ele>
        <time>2022-01-08T20:50:32.641Z</time>
      </trkpt>
      <trkpt lat="49.873450" lon="8.340122">
        <ele>91.040649</ele>
        <time>2022-01-08T20:50:38.904Z</time>
      </trkpt>
      <trkpt lat="49.873473" lon="8.340102">
        <ele>91.068859</ele>
        <time>2022-01-08T20:50:39.573Z</time>
      </trkpt>
      <trkpt lat="49.873492" lon="8.340066">
        <ele>91.100946</ele>
        <time>2022-01-08T20:50:40.362Z</time>
      </trkpt>
      <trkpt lat="49.873805" lon="8.339114">
        <ele>91.714151</ele>
        <time>2022-01-08T20:50:57.799Z</time>
      </trkpt>
      <trkpt lat="49.873846" lon="8.338990">
        <ele>91.792651</ele>
        <time>2022-01-08T20:51:00.075Z</time>
      </trkpt>
      <trkpt lat="49.873988" lon="8.338570">
        <ele>92.059794</ele>
        <time>2022-01-08T20:51:07.724Z</time>
      </trkpt>
      <trkpt lat="49.873297" lon="8.337367">
        <ele>93.023120</ele>
        <time>2022-01-08T20:51:34.436Z</time>
      </trkpt>
      <trkpt lat="49.873496" lon="8.337308">
        <ele>93.242455</ele>
        <time>2022-01-08T20:51:40.194Z</time>
      </trkpt>
      <trkpt lat="49.874479" lon="8.337064">
        <ele>94.320182</ele>
        <time>2022-01-08T20:52:07.819Z</time>
      </trkpt>
      <trkpt lat="49.874495" lon="8.337060">
        <ele>94.337727</ele>
        <time>2022-01-08T20:52:08.354Z</time>
      </trkpt>
      <trkpt lat="49.874940" lon="8.336854">
        <ele>94.618918</ele>
        <time>2022-01-08T20:52:20.178Z</time>
      </trkpt>
      <trkpt lat="49.875097" lon="8.337623">
        <ele>94.397427</ele>
        <time>2022-01-08T20:52:31.759Z</time>
      </trkpt>
      <trkpt lat="49.875032" lon="8.337983">
        <ele>94.294774</ele>
        <time>2022-01-08T20:52:36.548Z</time>
      </trkpt>
      <trkpt lat="49.875115" lon="8.338046">
        <ele>94.255407</ele>
        <time>2022-01-08T20:52:38.380Z</time>
      </trkpt>
      <trkpt lat="49.875214" lon="8.338104">
        <ele>94.210321</ele>
        <time>2022-01-08T20:52:40.522Z</time>
      </trkpt>
      <trkpt lat="49.875857" lon="8.338549">
        <ele>93.901789</ele>
        <time>2022-01-08T20:52:54.253Z</time>
      </trkpt>
      <trkpt lat="49.876011" lon="8.338734">
        <ele>93.670940</ele>
        <time>2022-01-08T20:52:57.852Z</time>
      </trkpt>
      <trkpt lat="49.876229" lon="8.339194">
        <ele>93.234775</ele>
        <time>2022-01-08T20:53:04.621Z</time>
      </trkpt>
      <trkpt lat="49.876720" lon="8.338785">
        <ele>92.574228</ele>
        <time>2022-01-08T20:53:18.346Z</time>
      </trkpt>
      <trkpt lat="49.876926" lon="8.339093">
        <ele>92.235150</ele>
        <time>2022-01-08T20:53:23.613Z</time>
      </trkpt>
      <trkpt lat="49.877043" lon="8.339036">
        <ele>92.089793</ele>
        <time>2022-01-08T20:53:25.963Z</time>
      </trkpt>
      <trkpt lat="49.877168" lon="8.339066">
        <ele>91.939866</ele>
        <time>2022-01-08T20:53:28.386Z</time>
      </trkpt>
      <trkpt lat="49.877773" lon="8.339416">
        <ele>91.569628</ele>
        <time>2022-01-08T20:53:46.833Z</time>
      </trkpt>
      <trkpt lat="49.878312" lon="8.339537">
        <ele>91.343127</ele>
        <time>2022-01-08T20:54:03.967Z</time>
      </trkpt>
      <trkpt lat="49.878745" lon="8.339404">
        <ele>91.159551</ele>
        <time>2022-01-08T20:54:15.745Z</time>
      </trkpt>
      <trkpt lat="49.879078" lon="8.339152">
        <ele>90.939455</ele>
        <time>2022-01-08T20:54:25.302Z</time>
      </trkpt>
      <trkpt lat="49.879354" lon="8.338873">
        <ele>90.497696</ele>
        <time>2022-01-08T20:54:33.801Z</time>
      </trkpt>
      <trkpt lat="49.879416" lon="8.338823">
        <ele>90.403988</ele>
        <time>2022-01-08T20:54:35.676Z</time>
      </trkpt>
      <trkpt lat="49.879464" lon="8.339219">
        <ele>90.055754</ele>
        <time>2022-01-08T20:54:42.242Z</time>
      </trkpt>
      <trkpt lat="49.879492" lon="8.339425">
        <ele>89.873807</ele>
        <time>2022-01-08T20:54:45.005Z</time>
      </trkpt>
      <trkpt lat="49.879549" lon="8.339889">
        <ele>89.465586</ele>
        <time>2022-01-08T20:54:54.912Z</time>
      </trkpt>
      <trkpt lat="49.881317" lon="8.338985">
        <ele>87.089506</ele>
        <time>2022-01-08T20:55:28.763Z</time>
      </trkpt>
      <trkpt lat="49.881803" lon="8.338793">
        <ele>86.465903</ele>
        <time>2022-01-08T20:55:38.746Z</time>
      </trkpt>
      <trkpt lat="49.882908" lon="8.338492">
        <ele>85.797659</ele>
        <time>2022-01-08T20:56:02.215Z</time>
      </trkpt>
      <trkpt lat="49.884489" lon="8.338227">
        <ele>84.877769</ele>
        <time>2022-01-08T20:56:34.230Z</time>
      </trkpt>
      <trkpt lat="49.885345" lon="8.338274">
        <ele>84.365842</ele>
        <time>2022-01-08T20:56:51.794Z</time>
      </trkpt>
      <trkpt lat="49.885682" lon="8.338442">
        <ele>84.192521</ele>
        <time>2022-01-08T20:56:58.951Z</time>
      </trkpt>
      <trkpt lat="49.886047" lon="8.338528">
        <ele>84.025881</ele>
        <time>2022-01-08T20:57:06.269Z</time>
      </trkpt>
      <trkpt lat="49.887076" lon="8.338477">
        <ele>83.561177</ele>
        <time>2022-01-08T20:57:27.656Z</time>
      </trkpt>
      <trkpt lat="49.888469" lon="8.338763">
        <ele>83.281441</ele>
        <time>2022-01-08T20:57:57.875Z</time>
      </trkpt>
      <trkpt lat="49.894759" lon="8.340431">
        <ele>83.018302</ele>
        <time>2022-01-08T21:00:19.054Z</time>
      </trkpt>
      <trkpt lat="49.895906" lon="8.340735">
        <ele>83.024255</ele>
        <time>2022-01-08T21:00:45.039Z</time>
      </trkpt>
      <trkpt lat="49.897133" lon="8.341368">
        <ele>83.107705</ele>
        <time>2022-01-08T21:01:13.875Z</time>
      </trkpt>
      <trkpt lat="49.897255" lon="8.341431">
        <ele>83.117255</ele>
        <time>2022-01-08T21:01:16.763Z</time>
      </trkpt>
      <trkpt lat="49.898249" lon="8.342250">
        <ele>83.311179</ele>
        <time>2022-01-08T21:01:42.229Z</time>
      </trkpt>
      <trkpt lat="49.898282" lon="8.342277">
        <ele>83.321218</ele>
        <time>2022-01-08T21:01:43.074Z</time>
      </trkpt>
      <trkpt lat="49.899585" lon="8.343349">
        <ele>83.690787</ele>
        <time>2022-01-08T21:02:18.182Z</time>
      </trkpt>
      <trkpt lat="49.900239" lon="8.343901">
        <ele>83.818414</ele>
        <time>2022-01-08T21:02:34.865Z</time>
      </trkpt>
      <trkpt lat="49.900648" lon="8.344246">
        <ele>83.898219</ele>
        <time>2022-01-08T21:02:44.739Z</time>
      </trkpt>
      <trkpt lat="49.901084" lon="8.344480">
        <ele>84.099060</ele>
        <time>2022-01-08T21:02:55.754Z</time>
      </trkpt>
      <trkpt lat="49.901578" lon="8.344603">
        <ele>84.585227</ele>
        <time>2022-01-08T21:03:09.020Z</time>
      </trkpt>
      <trkpt lat="49.901882" lon="8.344587">
        <ele>84.880802</ele>
        <time>2022-01-08T21:03:16.691Z</time>
      </trkpt>
      <trkpt lat="49.902279" lon="8.344618">
        <ele>85.267066</ele>
        <time>2022-01-08T21:03:27.250Z</time>
      </trkpt>
      <trkpt lat="49.902409" lon="8.344627">
        <ele>85.393516</ele>
        <time>2022-01-08T21:03:31.019Z</time>
      </trkpt>
      <trkpt lat="49.902685" lon="8.344208">
        <ele>85.784508</ele>
        <time>2022-01-08T21:03:41.747Z</time>
      </trkpt>
      <trkpt lat="49.903013" lon="8.344185">
        <ele>86.176402</ele>
        <time>2022-01-08T21:03:50.936Z</time>
      </trkpt>
      <trkpt lat="49.903196" lon="8.344156">
        <ele>86.395963</ele>
        <time>2022-01-08T21:03:56.036Z</time>
      </trkpt>
      <trkpt lat="49.903239" lon="8.344335">
        <ele>86.542831</ele>
        <time>2022-01-08T21:03:59.559Z</time>
      </trkpt>
      <trkpt lat="49.904013" lon="8.344473">
        <ele>87.472736</ele>
        <time>2022-01-08T21:04:21.569Z</time>
      </trkpt>
      <trkpt lat="49.906084" lon="8.345581">
        <ele>88.327776</ele>
        <time>2022-01-08T21:05:12.533Z</time>
      </trkpt>
      <trkpt lat="49.907249" lon="8.346018">
        <ele>88.153726</ele>
        <time>2022-01-08T21:05:39.127Z</time>
      </trkpt>
      <trkpt lat="49.911059" lon="8.346643">
        <ele>86.389149</ele>
        <time>2022-01-08T21:06:56.957Z</time>
      </trkpt>
      <trkpt lat="49.912172" lon="8.346946">
        <ele>86.375127</ele>
        <time>2022-01-08T21:07:22.127Z</time>
      </trkpt>
      <trkpt lat="49.912411" lon="8.346850">
        <ele>86.408763</ele>
        <time>2022-01-08T21:07:27.929Z</time>
      </trkpt>
      <trkpt lat="49.913106" lon="8.347019">
        <ele>86.504612</ele>
        <time>2022-01-08T21:07:44.256Z</time>
      </trkpt>
      <trkpt lat="49.913635" lon="8.347285">
        <ele>86.513930</ele>
        <time>2022-01-08T21:08:01.429Z</time>
      </trkpt>
      <trkpt lat="49.913231" lon="8.347424">
        <ele>86.520388</ele>
        <time>2022-01-08T21:08:10.595Z</time>
      </trkpt>
      <trkpt lat="49.913204" lon="8.347691">
        <ele>86.523105</ele>
        <time>2022-01-08T21:08:14.177Z</time>
      </trkpt>
      <trkpt lat="49.913787" lon="8.347770">
        <ele>86.532239</ele>
        <time>2022-01-08T21:08:27.332Z</time>
      </trkpt>
      <trkpt lat="49.914055" lon="8.347787">
        <ele>86.535488</ele>
        <time>2022-01-08T21:08:33.115Z</time>
      </trkpt>
      <trkpt lat="49.914551" lon="8.347753">
        <ele>86.540831</ele>
        <time>2022-01-08T21:08:43.330Z</time>
      </trkpt>
      <trkpt lat="49.915535" lon="8.347622">
        <ele>86.551459</ele>
        <time>2022-01-08T21:09:05.678Z</time>
      </trkpt>
      <trkpt lat="49.915691" lon="8.347598">
        <ele>86.563152</ele>
        <time>2022-01-08T21:09:09.313Z</time>
      </trkpt>
      <trkpt lat="49.916024" lon="8.347566">
        <ele>86.660534</ele>
        <time>2022-01-08T21:09:22.436Z</time>
      </trkpt>
      <trkpt lat="49.916981" lon="8.347244">
        <ele>86.946344</ele>
        <time>2022-01-08T21:10:00.868Z</time>
      </trkpt>
      <trkpt lat="49.917348" lon="8.347072">
        <ele>87.058236</ele>
        <time>2022-01-08T21:10:15.017Z</time>
      </trkpt>
      <trkpt lat="49.917571" lon="8.347019">
        <ele>87.016766</ele>
        <time>2022-01-08T21:10:23.269Z</time>
      </trkpt>
      <trkpt lat="49.917935" lon="8.346930">
        <ele>86.875191</ele>
        <time>2022-01-08T21:10:36.541Z</time>
      </trkpt>
      <trkpt lat="49.918677" lon="8.346711">
        <ele>86.585007</ele>
        <time>2022-01-08T21:11:03.423Z</time>
      </trkpt>
      <trkpt lat="49.919372" lon="8.346506">
        <ele>86.308308</ele>
        <time>2022-01-08T21:11:28.071Z</time>
      </trkpt>
      <trkpt lat="49.919649" lon="8.346378">
        <ele>86.189867</ele>
        <time>2022-01-08T21:11:38.037Z</time>
      </trkpt>
      <trkpt lat="49.920121" lon="8.346284">
        <ele>85.994843</ele>
        <time>2022-01-08T21:11:54.749Z</time>
      </trkpt>
      <trkpt lat="49.920252" lon="8.346279">
        <ele>85.941139</ele>
        <time>2022-01-08T21:11:59.452Z</time>
      </trkpt>
      <trkpt lat="49.920499" lon="8.346131">
        <ele>85.832639</ele>
        <time>2022-01-08T21:12:08.945Z</time>
      </trkpt>
      <trkpt lat="49.921243" lon="8.345922">
        <ele>85.671343</ele>
        <time>2022-01-08T21:12:36.465Z</time>
      </trkpt>
      <trkpt lat="49.921876" lon="8.345744">
        <ele>85.716644</ele>
        <time>2022-01-08T21:12:59.891Z</time>
      </trkpt>
      <trkpt lat="49.925807" lon="8.344702">
        <ele>87.149997</ele>
        <time>2022-01-08T21:15:33.153Z</time>
      </trkpt>
      <trkpt lat="49.926503" lon="8.344556">
        <ele>87.645357</ele>
        <time>2022-01-08T21:16:02.875Z</time>
      </trkpt>
      <trkpt lat="49.927929" lon="8.344510">
        <ele>88.963975</ele>
        <time>2022-01-08T21:17:02.168Z</time>
      </trkpt>
      <trkpt lat="49.929676" lon="8.344712">
        <ele>88.935942</ele>
        <time>2022-01-08T21:18:06.098Z</time>
      </trkpt>
      <trkpt lat="49.929691" lon="8.344714">
        <ele>88.934608</ele>
        <time>2022-01-08T21:18:06.461Z</time>
      </trkpt>
      <trkpt lat="49.932453" lon="8.344087">
        <ele>88.221183</ele>
        <time>2022-01-08T21:19:47.093Z</time>
      </trkpt>
      <trkpt lat="49.934789" lon="8.342910">
        <ele>87.554440</ele>
        <time>2022-01-08T21:21:16.168Z</time>
      </trkpt>
      <trkpt lat="49.935403" lon="8.342817">
        <ele>87.486663</ele>
        <time>2022-01-08T21:21:37.405Z</time>
      </trkpt>
      <trkpt lat="49.936514" lon="8.342353">
        <ele>87.576925</ele>
        <time>2022-01-08T21:22:19.545Z</time>
      </trkpt>
      <trkpt lat="49.938767" lon="8.341062">
        <ele>89.065591</ele>
        <time>2022-01-08T21:23:59.683Z</time>
      </trkpt>
      <trkpt lat="49.940911" lon="8.340062">
        <ele>86.687364</ele>
        <time>2022-01-08T21:25:13.072Z</time>
      </trkpt>
      <trkpt lat="49.942496" lon="8.339808">
        <ele>84.816079</ele>
        <time>2022-01-08T21:26:04.799Z</time>
      </trkpt>
      <trkpt lat="49.943760" lon="8.339856">
        <ele>84.083219</ele>
        <time>2022-01-08T21:26:50.102Z</time>
      </trkpt>
      <trkpt lat="49.944510" lon="8.339768">
        <ele>84.326828</ele>
        <time>2022-01-08T21:27:19.318Z</time>
      </trkpt>
      <trkpt lat="49.945729" lon="8.339808">
        <ele>84.789783</ele>
        <time>2022-01-08T21:28:07.005Z</time>
      </trkpt>
      <trkpt lat="49.947541" lon="8.339569">
        <ele>85.697036</ele>
        <time>2022-01-08T21:29:17.466Z</time>
      </trkpt>
      <trkpt lat="49.948423" lon="8.339534">
        <ele>86.324963</ele>
        <time>2022-01-08T21:29:53.030Z</time>
      </trkpt>
      <trkpt lat="49.949071" lon="8.339247">
        <ele>86.804509</ele>
        <time>2022-01-08T21:30:20.119Z</time>
      </trkpt>
      <trkpt lat="49.949764" lon="8.338831">
        <ele>86.637267</ele>
        <time>2022-01-08T21:30:49.434Z</time>
      </trkpt>
      <trkpt lat="49.955302" lon="8.335315">
        <ele>84.513011</ele>
        <time>2022-01-08T21:34:20.755Z</time>
      </trkpt>
      <trkpt lat="49.957971" lon="8.333540">
        <ele>84.016262</ele>
        <time>2022-01-08T21:36:05.858Z</time>
      </trkpt>
      <trkpt lat="49.957859" lon="8.333111">
        <ele>84.061737</ele>
        <time>2022-01-08T21:36:17.231Z</time>
      </trkpt>
      <trkpt lat="49.958138" lon="8.332795">
        <ele>84.114443</ele>
        <time>2022-01-08T21:36:26.198Z</time>
      </trkpt>
      <trkpt lat="49.958561" lon="8.332020">
        <ele>84.214779</ele>
        <time>2022-01-08T21:36:43.286Z</time>
      </trkpt>
      <trkpt lat="49.959164" lon="8.331445">
        <ele>84.330125</ele>
        <time>2022-01-08T21:37:01.852Z</time>
      </trkpt>
      <trkpt lat="49.960023" lon="8.330792">
        <ele>84.486038</ele>
        <time>2022-01-08T21:37:25.482Z</time>
      </trkpt>
      <trkpt lat="49.961250" lon="8.329796">
        <ele>84.603482</ele>
        <time>2022-01-08T21:37:59.982Z</time>
      </trkpt>
      <trkpt lat="49.961657" lon="8.329943">
        <ele>84.636771</ele>
        <time>2022-01-08T21:38:10.733Z</time>
      </trkpt>
      <trkpt lat="49.961775" lon="8.329916">
        <ele>84.655948</ele>
        <time>2022-01-08T21:38:13.798Z</time>
      </trkpt>
      <trkpt lat="49.962085" lon="8.329637">
        <ele>84.778753</ele>
        <time>2022-01-08T21:38:22.920Z</time>
      </trkpt>
      <trkpt lat="49.963036" lon="8.328792">
        <ele>85.154288</ele>
        <time>2022-01-08T21:38:51.254Z</time>
      </trkpt>
      <trkpt lat="49.963153" lon="8.328802">
        <ele>85.194460</ele>
        <time>2022-01-08T21:38:54.404Z</time>
      </trkpt>
      <trkpt lat="49.963470" lon="8.329036">
        <ele>85.357485</ele>
        <time>2022-01-08T21:39:03.728Z</time>
      </trkpt>
      <trkpt lat="49.964428" lon="8.328086">
        <ele>86.050775</ele>
        <time>2022-01-08T21:39:31.805Z</time>
      </trkpt>
      <trkpt lat="49.965705" lon="8.326683">
        <ele>86.873118</ele>
        <time>2022-01-08T21:40:11.079Z</time>
      </trkpt>
      <trkpt lat="49.966620" lon="8.325866">
        <ele>87.079152</ele>
        <time>2022-01-08T21:40:35.731Z</time>
      </trkpt>
      <trkpt lat="49.967098" lon="8.325348">
        <ele>86.799757</ele>
        <time>2022-01-08T21:40:47.630Z</time>
      </trkpt>
      <trkpt lat="49.967067" lon="8.325120">
        <ele>86.727880</ele>
        <time>2022-01-08T21:40:51.243Z</time>
      </trkpt>
      <trkpt lat="49.967121" lon="8.324888">
        <ele>86.651783</ele>
        <time>2022-01-08T21:40:54.654Z</time>
      </trkpt>
      <trkpt lat="49.967508" lon="8.324725">
        <ele>86.459523</ele>
        <time>2022-01-08T21:41:03.520Z</time>
      </trkpt>
      <trkpt lat="49.967722" lon="8.324491">
        <ele>86.295583</ele>
        <time>2022-01-08T21:41:09.300Z</time>
      </trkpt>
      <trkpt lat="49.967878" lon="8.324321">
        <ele>86.103724</ele>
        <time>2022-01-08T21:41:13.417Z</time>
      </trkpt>
      <trkpt lat="49.968063" lon="8.324308">
        <ele>85.917220</ele>
        <time>2022-01-08T21:41:18.121Z</time>
      </trkpt>
      <trkpt lat="49.968294" lon="8.324181">
        <ele>85.670462</ele>
        <time>2022-01-08T21:41:24.629Z</time>
      </trkpt>
      <trkpt lat="49.968944" lon="8.323631">
        <ele>84.925174</ele>
        <time>2022-01-08T21:41:43.638Z</time>
      </trkpt>
      <trkpt lat="49.969060" lon="8.323601">
        <ele>84.806745</ele>
        <time>2022-01-08T21:41:46.608Z</time>
      </trkpt>
      <trkpt lat="49.969503" lon="8.323630">
        <ele>84.544194</ele>
        <time>2022-01-08T21:41:58.255Z</time>
      </trkpt>
      <trkpt lat="49.969579" lon="8.323642">
        <ele>84.538958</ele>
        <time>2022-01-08T21:42:00.318Z</time>
      </trkpt>
      <trkpt lat="49.970524" lon="8.322706">
        <ele>84.462156</ele>
        <time>2022-01-08T21:42:24.000Z</time>
      </trkpt>
      <trkpt lat="49.971488" lon="8.321603">
        <ele>85.479280</ele>
        <time>2022-01-08T21:42:56.023Z</time>
      </trkpt>
      <trkpt lat="49.972235" lon="8.320676">
        <ele>86.741618</ele>
        <time>2022-01-08T21:43:23.699Z</time>
      </trkpt>
      <trkpt lat="49.972936" lon="8.319680">
        <ele>87.550606</ele>
        <time>2022-01-08T21:43:49.879Z</time>
      </trkpt>
      <trkpt lat="49.972982" lon="8.319615">
        <ele>87.601881</ele>
        <time>2022-01-08T21:43:51.696Z</time>
      </trkpt>
      <trkpt lat="49.972987" lon="8.319539">
        <ele>87.642413</ele>
        <time>2022-01-08T21:43:53.198Z</time>
      </trkpt>
      <trkpt lat="49.971335" lon="8.316148">
        <ele>88.280134</ele>
        <time>2022-01-08T21:44:54.143Z</time>
      </trkpt>
      <trkpt lat="49.971166" lon="8.315914">
        <ele>88.249659</ele>
        <time>2022-01-08T21:44:59.098Z</time>
      </trkpt>
      <trkpt lat="49.970883" lon="8.315146">
        <ele>88.172996</ele>
        <time>2022-01-08T21:45:11.743Z</time>
      </trkpt>
      <trkpt lat="49.970806" lon="8.315010">
        <ele>88.157302</ele>
        <time>2022-01-08T21:45:14.467Z</time>
      </trkpt>
      <trkpt lat="49.970779" lon="8.314941">
        <ele>88.150307</ele>
        <time>2022-01-08T21:45:15.610Z</time>
      </trkpt>
      <trkpt lat="49.970761" lon="8.314884">
        <ele>88.144807</ele>
        <time>2022-01-08T21:45:16.469Z</time>
      </trkpt>
      <trkpt lat="49.971150" lon="8.314652">
        <ele>88.088699</ele>
        <time>2022-01-08T21:45:25.315Z</time>
      </trkpt>
      <trkpt lat="49.971213" lon="8.314649">
        <ele>88.080211</ele>
        <time>2022-01-08T21:45:26.749Z</time>
      </trkpt>
      <trkpt lat="49.971967" lon="8.314619">
        <ele>87.811881</ele>
        <time>2022-01-08T21:45:42.144Z</time>
      </trkpt>
      <trkpt lat="49.972055" lon="8.314626">
        <ele>87.775028</ele>
        <time>2022-01-08T21:45:44.009Z</time>
      </trkpt>
      <trkpt lat="49.972118" lon="8.314638">
        <ele>87.748482</ele>
        <time>2022-01-08T21:45:45.300Z</time>
      </trkpt>
      <trkpt lat="49.972970" lon="8.314656">
        <ele>87.392107</ele>
        <time>2022-01-08T21:46:02.618Z</time>
      </trkpt>
      <trkpt lat="49.972980" lon="8.314492">
        <ele>87.347795</ele>
        <time>2022-01-08T21:46:05.005Z</time>
      </trkpt>
      <trkpt lat="49.973257" lon="8.314423">
        <ele>87.410212</ele>
        <time>2022-01-08T21:46:11.078Z</time>
      </trkpt>
      <trkpt lat="49.973757" lon="8.314560">
        <ele>87.706103</ele>
        <time>2022-01-08T21:46:22.829Z</time>
      </trkpt>
      <trkpt lat="49.973833" lon="8.314370">
        <ele>87.789970</ele>
        <time>2022-01-08T21:46:26.163Z</time>
      </trkpt>
      <trkpt lat="49.975557" lon="8.313975">
        <ele>88.935161</ele>
        <time>2022-01-08T21:47:12.230Z</time>
      </trkpt>
      <trkpt lat="49.976107" lon="8.313612">
        <ele>89.383273</ele>
        <time>2022-01-08T21:47:27.481Z</time>
      </trkpt>
      <trkpt lat="49.976385" lon="8.313246">
        <ele>89.656464</ele>
        <time>2022-01-08T21:47:36.345Z</time>
      </trkpt>
      <trkpt lat="49.976534" lon="8.312903">
        <ele>89.637885</ele>
        <time>2022-01-08T21:47:42.601Z</time>
      </trkpt>
      <trkpt lat="49.977890" lon="8.311959">
        <ele>89.166331</ele>
        <time>2022-01-08T21:48:12.816Z</time>
      </trkpt>
      <trkpt lat="49.977984" lon="8.311875">
        <ele>89.131920</ele>
        <time>2022-01-08T21:48:15.280Z</time>
      </trkpt>
      <trkpt lat="49.978625" lon="8.311283">
        <ele>89.019681</ele>
        <time>2022-01-08T21:48:31.180Z</time>
      </trkpt>
      <trkpt lat="49.978826" lon="8.311220">
        <ele>88.988816</ele>
        <time>2022-01-08T21:48:35.347Z</time>
      </trkpt>
      <trkpt lat="49.979484" lon="8.310255">
        <ele>88.875999</ele>
        <time>2022-01-08T21:48:55.304Z</time>
      </trkpt>
      <trkpt lat="49.981902" lon="8.306872">
        <ele>89.387602</ele>
        <time>2022-01-08T21:50:11.744Z</time>
      </trkpt>
      <trkpt lat="49.982527" lon="8.306030">
        <ele>89.064876</ele>
        <time>2022-01-08T21:50:27.868Z</time>
      </trkpt>
      <trkpt lat="49.982844" lon="8.305617">
        <ele>88.809425</ele>
        <time>2022-01-08T21:50:36.168Z</time>
      </trkpt>
      <trkpt lat="49.983022" lon="8.305277">
        <ele>88.635276</ele>
        <time>2022-01-08T21:50:41.693Z</time>
      </trkpt>
      <trkpt lat="49.983780" lon="8.303870">
        <ele>88.313336</ele>
        <time>2022-01-08T21:51:06.212Z</time>
      </trkpt>
      <trkpt lat="49.984760" lon="8.302010">
        <ele>88.485775</ele>
        <time>2022-01-08T21:51:42.440Z</time>
      </trkpt>
      <trkpt lat="49.984876" lon="8.301670">
        <ele>88.568084</ele>
        <time>2022-01-08T21:51:48.098Z</time>
      </trkpt>
      <trkpt lat="49.985387" lon="8.300623">
        <ele>88.849175</ele>
        <time>2022-01-08T21:52:07.989Z</time>
      </trkpt>
      <trkpt lat="49.985962" lon="8.299612">
        <ele>89.107861</ele>
        <time>2022-01-08T21:52:28.994Z</time>
      </trkpt>
      <trkpt lat="49.986464" lon="8.298571">
        <ele>89.338395</ele>
        <time>2022-01-08T21:52:48.602Z</time>
      </trkpt>
      <trkpt lat="49.986833" lon="8.298159">
        <ele>89.457878</ele>
        <time>2022-01-08T21:52:58.835Z</time>
      </trkpt>
      <trkpt lat="49.988269" lon="8.295633">
        <ele>89.441545</ele>
        <time>2022-01-08T21:53:46.150Z</time>
      </trkpt>
      <trkpt lat="49.989990" lon="8.292462">
        <ele>90.058829</ele>
        <time>2022-01-08T21:54:49.018Z</time>
      </trkpt>
      <trkpt lat="49.990026" lon="8.292399">
        <ele>90.073299</ele>
        <time>2022-01-08T21:54:50.435Z</time>
      </trkpt>
      <trkpt lat="49.990520" lon="8.291469">
        <ele>89.887617</ele>
        <time>2022-01-08T21:55:08.320Z</time>
      </trkpt>
      <trkpt lat="49.990761" lon="8.291174">
        <ele>89.549899</ele>
        <time>2022-01-08T21:55:14.684Z</time>
      </trkpt>
      <trkpt lat="49.990946" lon="8.290773">
        <ele>89.200467</ele>
        <time>2022-01-08T21:55:20.877Z</time>
      </trkpt>
      <trkpt lat="49.991195" lon="8.290155">
        <ele>88.684116</ele>
        <time>2022-01-08T21:55:29.756Z</time>
      </trkpt>
      <trkpt lat="49.991983" lon="8.288738">
        <ele>86.378732</ele>
        <time>2022-01-08T21:55:50.084Z</time>
      </trkpt>
      <trkpt lat="49.992020" lon="8.288672">
        <ele>86.246603</ele>
        <time>2022-01-08T21:55:50.992Z</time>
      </trkpt>
      <trkpt lat="49.992322" lon="8.288131">
        <ele>85.165533</ele>
        <time>2022-01-08T21:55:58.744Z</time>
      </trkpt>
      <trkpt lat="49.992392" lon="8.287994">
        <ele>84.901486</ele>
        <time>2022-01-08T21:56:00.668Z</time>
      </trkpt>
      <trkpt lat="49.992515" lon="8.287751">
        <ele>84.434831</ele>
        <time>2022-01-08T21:56:04.027Z</time>
      </trkpt>
      <trkpt lat="49.992546" lon="8.287695">
        <ele>84.323328</ele>
        <time>2022-01-08T21:56:04.885Z</time>
      </trkpt>
      <trkpt lat="49.992660" lon="8.287497">
        <ele>83.987627</ele>
        <time>2022-01-08T21:56:07.934Z</time>
      </trkpt>
      <trkpt lat="49.992709" lon="8.287406">
        <ele>83.955930</ele>
        <time>2022-01-08T21:56:09.248Z</time>
      </trkpt>
      <trkpt lat="49.992946" lon="8.286965">
        <ele>83.802444</ele>
        <time>2022-01-08T21:56:16.297Z</time>
      </trkpt>
      <trkpt lat="49.993101" lon="8.286698">
        <ele>83.706382</ele>
        <time>2022-01-08T21:56:21.156Z</time>
      </trkpt>
      <trkpt lat="49.993533" lon="8.285973">
        <ele>83.442421</ele>
        <time>2022-01-08T21:56:34.500Z</time>
      </trkpt>
      <trkpt lat="49.993866" lon="8.285429">
        <ele>83.293450</ele>
        <time>2022-01-08T21:56:46.332Z</time>
      </trkpt>
      <trkpt lat="49.994519" lon="8.284430">
        <ele>84.452668</ele>
        <time>2022-01-08T21:57:11.189Z</time>
      </trkpt>
      <trkpt lat="49.994846" lon="8.283947">
        <ele>85.023400</ele>
        <time>2022-01-08T21:57:23.990Z</time>
      </trkpt>
      <trkpt lat="49.995072" lon="8.283672">
        <ele>85.386559</ele>
        <time>2022-01-08T21:57:32.272Z</time>
      </trkpt>
      <trkpt lat="49.995222" lon="8.283614">
        <ele>85.585136</ele>
        <time>2022-01-08T21:57:37.044Z</time>
      </trkpt>
      <trkpt lat="49.995346" lon="8.283330">
        <ele>85.880586</ele>
        <time>2022-01-08T21:57:43.132Z</time>
      </trkpt>
      <trkpt lat="49.995371" lon="8.282798">
        <ele>86.339641</ele>
        <time>2022-01-08T21:57:57.606Z</time>
      </trkpt>
      <trkpt lat="49.995382" lon="8.282575">
        <ele>86.532117</ele>
        <time>2022-01-08T21:58:01.645Z</time>
      </trkpt>
      <trkpt lat="49.995671" lon="8.282578">
        <ele>86.919012</ele>
        <time>2022-01-08T21:58:08.980Z</time>
      </trkpt>
      <trkpt lat="49.995736" lon="8.282681">
        <ele>87.043225</ele>
        <time>2022-01-08T21:58:11.715Z</time>
      </trkpt>
      <trkpt lat="49.996091" lon="8.282745">
        <ele>87.521648</ele>
        <time>2022-01-08T21:58:21.393Z</time>
      </trkpt>
      <trkpt lat="49.996331" lon="8.282705">
        <ele>87.844777</ele>
        <time>2022-01-08T21:58:27.867Z</time>
      </trkpt>
      <trkpt lat="49.996844" lon="8.282211">
        <ele>88.320729</ele>
        <time>2022-01-08T21:58:45.556Z</time>
      </trkpt>
      <trkpt lat="49.997253" lon="8.281806">
        <ele>88.668015</ele>
        <time>2022-01-08T21:58:58.180Z</time>
      </trkpt>
      <trkpt lat="49.998005" lon="8.281069">
        <ele>89.204784</ele>
        <time>2022-01-08T21:59:17.802Z</time>
      </trkpt>
      <trkpt lat="49.999155" lon="8.279941">
        <ele>88.921043</ele>
        <time>2022-01-08T21:59:48.018Z</time>
      </trkpt>
      <trkpt lat="49.999641" lon="8.279454">
        <ele>88.741669</ele>
        <time>2022-01-08T21:59:59.298Z</time>
      </trkpt>
      <trkpt lat="49.999901" lon="8.279083">
        <ele>88.584136</ele>
        <time>2022-01-08T22:00:06.338Z</time>
      </trkpt>
      <trkpt lat="49.999992" lon="8.278997">
        <ele>88.536593</ele>
        <time>2022-01-08T22:00:09.206Z</time>
      </trkpt>
      <trkpt lat="50.000105" lon="8.278886">
        <ele>88.476921</ele>
        <time>2022-01-08T22:00:12.908Z</time>
      </trkpt>
      <trkpt lat="50.000213" lon="8.278781">
        <ele>88.420055</ele>
        <time>2022-01-08T22:00:16.457Z</time>
      </trkpt>
      <trkpt lat="50.000257" lon="8.278738">
        <ele>88.396853</ele>
        <time>2022-01-08T22:00:17.888Z</time>
      </trkpt>
      <trkpt lat="50.001509" lon="8.277506">
        <ele>87.842284</ele>
        <time>2022-01-08T22:00:59.982Z</time>
      </trkpt>
      <trkpt lat="50.001710" lon="8.277221">
        <ele>87.762273</ele>
        <time>2022-01-08T22:01:07.775Z</time>
      </trkpt>
      <trkpt lat="50.001939" lon="8.277004">
        <ele>87.683386</ele>
        <time>2022-01-08T22:01:15.262Z</time>
      </trkpt>
      <trkpt lat="50.002186" lon="8.276774">
        <ele>87.598695</ele>
        <time>2022-01-08T22:01:23.217Z</time>
      </trkpt>
      <trkpt lat="50.002314" lon="8.276643">
        <ele>87.553619</ele>
        <time>2022-01-08T22:01:27.536Z</time>
      </trkpt>
      <trkpt lat="50.002345" lon="8.276610">
        <ele>87.542568</ele>
        <time>2022-01-08T22:01:28.538Z</time>
      </trkpt>
      <trkpt lat="50.002400" lon="8.276680">
        <ele>87.521662</ele>
        <time>2022-01-08T22:01:30.362Z</time>
      </trkpt>
      <trkpt lat="50.003223" lon="8.275870">
        <ele>87.196524</ele>
        <time>2022-01-08T22:01:57.360Z</time>
      </trkpt>
      <trkpt lat="50.003433" lon="8.275658">
        <ele>87.112874</ele>
        <time>2022-01-08T22:02:04.346Z</time>
      </trkpt>
      <trkpt lat="50.003820" lon="8.275276">
        <ele>86.959727</ele>
        <time>2022-01-08T22:02:17.311Z</time>
      </trkpt>
      <trkpt lat="50.003998" lon="8.275103">
        <ele>86.897076</ele>
        <time>2022-01-08T22:02:23.569Z</time>
      </trkpt>
      <trkpt lat="50.003968" lon="8.274825">
        <ele>86.852145</ele>
        <time>2022-01-08T22:02:28.573Z</time>
      </trkpt>
      <trkpt lat="50.004006" lon="8.274792">
        <ele>86.841353</ele>
        <time>2022-01-08T22:02:30.066Z</time>
      </trkpt>
      <trkpt lat="50.004965" lon="8.273834">
        <ele>86.558735</ele>
        <time>2022-01-08T22:03:02.728Z</time>
      </trkpt>
      <trkpt lat="50.005216" lon="8.273695">
        <ele>86.492665</ele>
        <time>2022-01-08T22:03:10.086Z</time>
      </trkpt>
      <trkpt lat="50.005408" lon="8.273504">
        <ele>86.441504</ele>
        <time>2022-01-08T22:03:16.331Z</time>
      </trkpt>
      <trkpt lat="50.005632" lon="8.273166">
        <ele>86.375498</ele>
        <time>2022-01-08T22:03:22.672Z</time>
      </trkpt>
      <trkpt lat="50.006647" lon="8.272128">
        <ele>86.118569</ele>
        <time>2022-01-08T22:03:48.104Z</time>
      </trkpt>
      <trkpt lat="50.007783" lon="8.270984">
        <ele>87.121008</ele>
        <time>2022-01-08T22:04:22.536Z</time>
      </trkpt>
      <trkpt lat="50.007910" lon="8.270858">
        <ele>87.247208</ele>
        <time>2022-01-08T22:04:26.663Z</time>
      </trkpt>
      <trkpt lat="50.008006" lon="8.270761">
        <ele>87.343116</ele>
        <time>2022-01-08T22:04:29.810Z</time>
      </trkpt>
      <trkpt lat="50.008491" lon="8.270273">
        <ele>87.787480</ele>
        <time>2022-01-08T22:04:45.562Z</time>
      </trkpt>
      <trkpt lat="50.009098" lon="8.269662">
        <ele>88.288061</ele>
        <time>2022-01-08T22:05:04.145Z</time>
      </trkpt>
      <trkpt lat="50.009681" lon="8.269075">
        <ele>88.768886</ele>
        <time>2022-01-08T22:05:20.938Z</time>
      </trkpt>
      <trkpt lat="50.009700" lon="8.269056">
        <ele>88.784525</ele>
        <time>2022-01-08T22:05:21.441Z</time>
      </trkpt>
      <trkpt lat="50.009709" lon="8.269045">
        <ele>88.792449</ele>
        <time>2022-01-08T22:05:21.790Z</time>
      </trkpt>
      <trkpt lat="50.009757" lon="8.268987">
        <ele>88.834530</ele>
        <time>2022-01-08T22:05:23.512Z</time>
      </trkpt>
      <trkpt lat="50.009853" lon="8.268874">
        <ele>88.865243</ele>
        <time>2022-01-08T22:05:26.906Z</time>
      </trkpt>
      <trkpt lat="50.009898" lon="8.268820">
        <ele>88.876346</ele>
        <time>2022-01-08T22:05:28.529Z</time>
      </trkpt>
      <trkpt lat="50.011070" lon="8.267431">
        <ele>89.164189</ele>
        <time>2022-01-08T22:06:12.574Z</time>
      </trkpt>
      <trkpt lat="50.011131" lon="8.267360">
        <ele>89.179073</ele>
        <time>2022-01-08T22:06:14.911Z</time>
      </trkpt>
      <trkpt lat="50.011221" lon="8.267254">
        <ele>89.208583</ele>
        <time>2022-01-08T22:06:18.393Z</time>
      </trkpt>
      <trkpt lat="50.011322" lon="8.267136">
        <ele>89.268994</ele>
        <time>2022-01-08T22:06:22.213Z</time>
      </trkpt>
      <trkpt lat="50.011894" lon="8.266459">
        <ele>89.612740</ele>
        <time>2022-01-08T22:06:44.239Z</time>
      </trkpt>
      <trkpt lat="50.012568" lon="8.265643">
        <ele>90.021207</ele>
        <time>2022-01-08T22:07:11.516Z</time>
      </trkpt>
      <trkpt lat="50.012539" lon="8.265528">
        <ele>90.059119</ele>
        <time>2022-01-08T22:07:13.582Z</time>
      </trkpt>
      <trkpt lat="50.012643" lon="8.265337">
        <ele>90.134448</ele>
        <time>2022-01-08T22:07:17.586Z</time>
      </trkpt>
      <trkpt lat="50.012773" lon="8.265144">
        <ele>90.218579</ele>
        <time>2022-01-08T22:07:22.118Z</time>
      </trkpt>
      <trkpt lat="50.013284" lon="8.264314">
        <ele>90.564447</ele>
        <time>2022-01-08T22:07:39.535Z</time>
      </trkpt>
      <trkpt lat="50.013054" lon="8.264012">
        <ele>90.705358</ele>
        <time>2022-01-08T22:07:46.696Z</time>
      </trkpt>
      <trkpt lat="50.012804" lon="8.263686">
        <ele>90.858085</ele>
        <time>2022-01-08T22:07:54.608Z</time>
      </trkpt>
      <trkpt lat="50.012601" lon="8.263633">
        <ele>90.912725</ele>
        <time>2022-01-08T22:07:59.655Z</time>
      </trkpt>
      <trkpt lat="50.012548" lon="8.263571">
        <ele>90.920614</ele>
        <time>2022-01-08T22:08:01.244Z</time>
      </trkpt>
      <trkpt lat="50.012476" lon="8.263256">
        <ele>90.946177</ele>
        <time>2022-01-08T22:08:06.210Z</time>
      </trkpt>
      <trkpt lat="50.011973" lon="8.262603">
        <ele>91.024117</ele>
        <time>2022-01-08T22:08:21.231Z</time>
      </trkpt>
      <trkpt lat="50.011753" lon="8.262317">
        <ele>91.058225</ele>
        <time>2022-01-08T22:08:27.572Z</time>
      </trkpt>
      <trkpt lat="50.011799" lon="8.262241">
        <ele>91.066207</ele>
        <time>2022-01-08T22:08:29.004Z</time>
      </trkpt>
      <trkpt lat="50.011826" lon="8.262195">
        <ele>91.070971</ele>
        <time>2022-01-08T22:08:30.154Z</time>
      </trkpt>
      <trkpt lat="50.011909" lon="8.261988">
        <ele>91.089626</ele>
        <time>2022-01-08T22:08:34.722Z</time>
      </trkpt>
      <trkpt lat="50.013525" lon="8.258922">
        <ele>90.855930</ele>
        <time>2022-01-08T22:09:48.658Z</time>
      </trkpt>
      <trkpt lat="50.013654" lon="8.258626">
        <ele>90.793116</ele>
        <time>2022-01-08T22:09:53.528Z</time>
      </trkpt>
      <trkpt lat="50.013663" lon="8.258393">
        <ele>90.752121</ele>
        <time>2022-01-08T22:09:56.628Z</time>
      </trkpt>
      <trkpt lat="50.013797" lon="8.258129">
        <ele>90.693037</ele>
        <time>2022-01-08T22:10:01.152Z</time>
      </trkpt>
      <trkpt lat="50.013892" lon="8.257952">
        <ele>90.652534</ele>
        <time>2022-01-08T22:10:04.162Z</time>
      </trkpt>
      <trkpt lat="50.015079" lon="8.255684">
        <ele>90.194666</ele>
        <time>2022-01-08T22:10:43.577Z</time>
      </trkpt>
      <trkpt lat="50.015006" lon="8.255592">
        <ele>90.172787</ele>
        <time>2022-01-08T22:10:46.359Z</time>
      </trkpt>
      <trkpt lat="50.014980" lon="8.255643">
        <ele>90.163044</ele>
        <time>2022-01-08T22:10:47.609Z</time>
      </trkpt>
      <trkpt lat="50.014610" lon="8.256359">
        <ele>90.125265</ele>
        <time>2022-01-08T22:11:01.258Z</time>
      </trkpt>
      <trkpt lat="50.013863" lon="8.257801">
        <ele>90.231001</ele>
        <time>2022-01-08T22:11:28.584Z</time>
      </trkpt>
      <trkpt lat="50.013853" lon="8.257821">
        <ele>90.232448</ele>
        <time>2022-01-08T22:11:28.954Z</time>
      </trkpt>
      <trkpt lat="50.013833" lon="8.257861">
        <ele>90.235341</ele>
        <time>2022-01-08T22:11:29.650Z</time>
      </trkpt>
      <trkpt lat="50.013739" lon="8.258041">
        <ele>90.248582</ele>
        <time>2022-01-08T22:11:33.091Z</time>
      </trkpt>
      <trkpt lat="50.013797" lon="8.258129">
        <ele>90.255778</ele>
        <time>2022-01-08T22:11:34.852Z</time>
      </trkpt>
      <trkpt lat="50.013892" lon="8.257952">
        <ele>90.208219</ele>
        <time>2022-01-08T22:11:37.955Z</time>
      </trkpt>
      <trkpt lat="50.015079" lon="8.255684">
        <ele>89.457695</ele>
        <time>2022-01-08T22:12:16.930Z</time>
      </trkpt>
      <trkpt lat="50.015839" lon="8.254240">
        <ele>88.824427</ele>
        <time>2022-01-08T22:12:41.272Z</time>
      </trkpt>
      <trkpt lat="50.016118" lon="8.253716">
        <ele>88.613109</ele>
        <time>2022-01-08T22:12:50.185Z</time>
      </trkpt>
      <trkpt lat="50.016372" lon="8.253239">
        <ele>88.566219</ele>
        <time>2022-01-08T22:12:58.354Z</time>
      </trkpt>
      <trkpt lat="50.016447" lon="8.253328">
        <ele>88.555110</ele>
        <time>2022-01-08T22:13:00.268Z</time>
      </trkpt>
      <trkpt lat="50.016508" lon="8.253209">
        <ele>88.543588</ele>
        <time>2022-01-08T22:13:02.332Z</time>
      </trkpt>
      <trkpt lat="50.016626" lon="8.252981">
        <ele>88.521429</ele>
        <time>2022-01-08T22:13:06.333Z</time>
      </trkpt>
      <trkpt lat="50.016696" lon="8.252871">
        <ele>88.509711</ele>
        <time>2022-01-08T22:13:08.401Z</time>
      </trkpt>
      <trkpt lat="50.017306" lon="8.251594">
        <ele>88.517309</ele>
        <time>2022-01-08T22:13:38.994Z</time>
      </trkpt>
      <trkpt lat="50.017618" lon="8.250994">
        <ele>88.884238</ele>
        <time>2022-01-08T22:13:55.134Z</time>
      </trkpt>
      <trkpt lat="50.017799" lon="8.250648">
        <ele>89.096336</ele>
        <time>2022-01-08T22:14:04.803Z</time>
      </trkpt>
      <trkpt lat="50.018141" lon="8.250014">
        <ele>89.489853</ele>
        <time>2022-01-08T22:14:18.527Z</time>
      </trkpt>
      <trkpt lat="50.018178" lon="8.249934">
        <ele>89.536710</ele>
        <time>2022-01-08T22:14:20.178Z</time>
      </trkpt>
      <trkpt lat="50.018233" lon="8.249826">
        <ele>89.602220</ele>
        <time>2022-01-08T22:14:22.403Z</time>
      </trkpt>
      <trkpt lat="50.018287" lon="8.249722">
        <ele>89.665784</ele>
        <time>2022-01-08T22:14:24.529Z</time>
      </trkpt>
      <trkpt lat="50.018639" lon="8.249039">
        <ele>89.844036</ele>
        <time>2022-01-08T22:14:38.617Z</time>
      </trkpt>
      <trkpt lat="50.019026" lon="8.248204">
        <ele>89.995338</ele>
        <time>2022-01-08T22:14:54.095Z</time>
      </trkpt>
      <trkpt lat="50.019801" lon="8.246329">
        <ele>89.787660</ele>
        <time>2022-01-08T22:15:24.689Z</time>
      </trkpt>
      <trkpt lat="50.019898" lon="8.246206">
        <ele>89.728258</ele>
        <time>2022-01-08T22:15:27.327Z</time>
      </trkpt>
      <trkpt lat="50.019931" lon="8.246123">
        <ele>89.698484</ele>
        <time>2022-01-08T22:15:28.606Z</time>
      </trkpt>
      <trkpt lat="50.020121" lon="8.245662">
        <ele>89.531414</ele>
        <time>2022-01-08T22:15:35.614Z</time>
      </trkpt>
      <trkpt lat="50.020175" lon="8.245555">
        <ele>89.489909</ele>
        <time>2022-01-08T22:15:37.304Z</time>
      </trkpt>
      <trkpt lat="50.020223" lon="8.245444">
        <ele>89.449095</ele>
        <time>2022-01-08T22:15:39.001Z</time>
      </trkpt>
      <trkpt lat="50.020233" lon="8.245293">
        <ele>89.402790</ele>
        <time>2022-01-08T22:15:40.971Z</time>
      </trkpt>
      <trkpt lat="50.020336" lon="8.245038">
        <ele>89.310910</ele>
        <time>2022-01-08T22:15:44.812Z</time>
      </trkpt>
      <trkpt lat="50.020377" lon="8.244941">
        <ele>89.280269</ele>
        <time>2022-01-08T22:15:46.823Z</time>
      </trkpt>
      <trkpt lat="50.020437" lon="8.244799">
        <ele>89.241119</ele>
        <time>2022-01-08T22:15:49.076Z</time>
      </trkpt>
      <trkpt lat="50.020504" lon="8.244640">
        <ele>89.197319</ele>
        <time>2022-01-08T22:15:52.405Z</time>
      </trkpt>
      <trkpt lat="50.020899" lon="8.243612">
        <ele>88.921402</ele>
        <time>2022-01-08T22:16:08.244Z</time>
      </trkpt>
      <trkpt lat="50.020954" lon="8.243483">
        <ele>88.885739</ele>
        <time>2022-01-08T22:16:10.360Z</time>
      </trkpt>
      <trkpt lat="50.020996" lon="8.243368">
        <ele>88.855268</ele>
        <time>2022-01-08T22:16:12.182Z</time>
      </trkpt>
      <trkpt lat="50.021231" lon="8.242719">
        <ele>88.683664</ele>
        <time>2022-01-08T22:16:22.612Z</time>
      </trkpt>
      <trkpt lat="50.021254" lon="8.242658">
        <ele>88.667372</ele>
        <time>2022-01-08T22:16:23.888Z</time>
      </trkpt>
      <trkpt lat="50.021304" lon="8.242518">
        <ele>88.658111</ele>
        <time>2022-01-08T22:16:26.822Z</time>
      </trkpt>
      <trkpt lat="50.021382" lon="8.242302">
        <ele>88.681191</ele>
        <time>2022-01-08T22:16:30.346Z</time>
      </trkpt>
      <trkpt lat="50.021427" lon="8.242175">
        <ele>88.694701</ele>
        <time>2022-01-08T22:16:33.082Z</time>
      </trkpt>
      <trkpt lat="50.021470" lon="8.242056">
        <ele>88.707419</ele>
        <time>2022-01-08T22:16:35.692Z</time>
      </trkpt>
      <trkpt lat="50.021699" lon="8.241417">
        <ele>88.775576</ele>
        <time>2022-01-08T22:16:46.727Z</time>
      </trkpt>
      <trkpt lat="50.021722" lon="8.241353">
        <ele>88.782407</ele>
        <time>2022-01-08T22:16:48.217Z</time>
      </trkpt>
      <trkpt lat="50.021751" lon="8.241272">
        <ele>88.791045</ele>
        <time>2022-01-08T22:16:50.105Z</time>
      </trkpt>
      <trkpt lat="50.021965" lon="8.240682">
        <ele>88.854156</ele>
        <time>2022-01-08T22:17:00.436Z</time>
      </trkpt>
      <trkpt lat="50.022213" lon="8.239994">
        <ele>88.880790</ele>
        <time>2022-01-08T22:17:11.968Z</time>
      </trkpt>
      <trkpt lat="50.023651" lon="8.235878">
        <ele>88.244042</ele>
        <time>2022-01-08T22:18:15.357Z</time>
      </trkpt>
      <trkpt lat="50.023631" lon="8.235821">
        <ele>88.237853</ele>
        <time>2022-01-08T22:18:16.367Z</time>
      </trkpt>
      <trkpt lat="50.023641" lon="8.235681">
        <ele>88.224430</ele>
        <time>2022-01-08T22:18:18.533Z</time>
      </trkpt>
      <trkpt lat="50.023666" lon="8.235597">
        <ele>88.215609</ele>
        <time>2022-01-08T22:18:19.859Z</time>
      </trkpt>
      <trkpt lat="50.023695" lon="8.235507">
        <ele>88.206015</ele>
        <time>2022-01-08T22:18:21.306Z</time>
      </trkpt>
      <trkpt lat="50.023730" lon="8.235496">
        <ele>88.200719</ele>
        <time>2022-01-08T22:18:22.071Z</time>
      </trkpt>
      <trkpt lat="50.023780" lon="8.235481">
        <ele>88.193167</ele>
        <time>2022-01-08T22:18:23.168Z</time>
      </trkpt>
      <trkpt lat="50.023790" lon="8.235314">
        <ele>88.177185</ele>
        <time>2022-01-08T22:18:25.955Z</time>
      </trkpt>
      <trkpt lat="50.024002" lon="8.234782">
        <ele>88.079535</ele>
        <time>2022-01-08T22:18:35.231Z</time>
      </trkpt>
      <trkpt lat="50.024265" lon="8.233913">
        <ele>87.926475</ele>
        <time>2022-01-08T22:18:48.648Z</time>
      </trkpt>
      <trkpt lat="50.024377" lon="8.233561">
        <ele>87.863887</ele>
        <time>2022-01-08T22:18:54.026Z</time>
      </trkpt>
      <trkpt lat="50.024418" lon="8.233431">
        <ele>87.840811</ele>
        <time>2022-01-08T22:18:56.556Z</time>
      </trkpt>
      <trkpt lat="50.024469" lon="8.233274">
        <ele>87.812780</ele>
        <time>2022-01-08T22:18:59.808Z</time>
      </trkpt>
      <trkpt lat="50.024783" lon="8.232316">
        <ele>87.477727</ele>
        <time>2022-01-08T22:19:13.539Z</time>
      </trkpt>
      <trkpt lat="50.025022" lon="8.231583">
        <ele>87.099070</ele>
        <time>2022-01-08T22:19:23.869Z</time>
      </trkpt>
      <trkpt lat="50.025053" lon="8.231488">
        <ele>87.049986</ele>
        <time>2022-01-08T22:19:25.685Z</time>
      </trkpt>
      <trkpt lat="50.025060" lon="8.231467">
        <ele>87.039088</ele>
        <time>2022-01-08T22:19:26.079Z</time>
      </trkpt>
      <trkpt lat="50.025105" lon="8.231325">
        <ele>86.966150</ele>
        <time>2022-01-08T22:19:28.064Z</time>
      </trkpt>
      <trkpt lat="50.025124" lon="8.231267">
        <ele>86.936160</ele>
        <time>2022-01-08T22:19:29.155Z</time>
      </trkpt>
      <trkpt lat="50.025146" lon="8.231198">
        <ele>86.900676</ele>
        <time>2022-01-08T22:19:30.425Z</time>
      </trkpt>
      <trkpt lat="50.025257" lon="8.230863">
        <ele>86.727042</ele>
        <time>2022-01-08T22:19:35.099Z</time>
      </trkpt>
      <trkpt lat="50.025293" lon="8.230754">
        <ele>86.670585</ele>
        <time>2022-01-08T22:19:37.161Z</time>
      </trkpt>
      <trkpt lat="50.025323" lon="8.230661">
        <ele>86.622647</ele>
        <time>2022-01-08T22:19:38.488Z</time>
      </trkpt>
      <trkpt lat="50.025343" lon="8.230602">
        <ele>86.591917</ele>
        <time>2022-01-08T22:19:39.621Z</time>
      </trkpt>
      <trkpt lat="50.025358" lon="8.230558">
        <ele>86.568972</ele>
        <time>2022-01-08T22:19:40.523Z</time>
      </trkpt>
      <trkpt lat="50.025466" lon="8.230231">
        <ele>86.445879</ele>
        <time>2022-01-08T22:19:45.462Z</time>
      </trkpt>
      <trkpt lat="50.025799" lon="8.229219">
        <ele>86.548319</ele>
        <time>2022-01-08T22:20:01.502Z</time>
      </trkpt>
      <trkpt lat="50.025832" lon="8.229118">
        <ele>86.558527</ele>
        <time>2022-01-08T22:20:03.177Z</time>
      </trkpt>
      <trkpt lat="50.025836" lon="8.229106">
        <ele>86.559745</ele>
        <time>2022-01-08T22:20:03.385Z</time>
      </trkpt>
      <trkpt lat="50.026136" lon="8.228184">
        <ele>86.652859</ele>
        <time>2022-01-08T22:20:18.869Z</time>
      </trkpt>
      <trkpt lat="50.026178" lon="8.228054">
        <ele>86.665969</ele>
        <time>2022-01-08T22:20:21.247Z</time>
      </trkpt>
      <trkpt lat="50.026597" lon="8.226802">
        <ele>87.040213</ele>
        <time>2022-01-08T22:20:44.133Z</time>
      </trkpt>
      <trkpt lat="50.027173" lon="8.225040">
        <ele>87.533717</ele>
        <time>2022-01-08T22:21:14.614Z</time>
      </trkpt>
      <trkpt lat="50.027873" lon="8.222813">
        <ele>87.405044</ele>
        <time>2022-01-08T22:22:00.410Z</time>
      </trkpt>
      <trkpt lat="50.028305" lon="8.221553">
        <ele>87.109046</ele>
        <time>2022-01-08T22:22:25.281Z</time>
      </trkpt>
      <trkpt lat="50.028510" lon="8.221772">
        <ele>87.028650</ele>
        <time>2022-01-08T22:22:32.290Z</time>
      </trkpt>
      <trkpt lat="50.028535" lon="8.221799">
        <ele>87.018811</ele>
        <time>2022-01-08T22:22:32.942Z</time>
      </trkpt>
      <trkpt lat="50.028581" lon="8.221851">
        <ele>87.000429</ele>
        <time>2022-01-08T22:22:34.210Z</time>
      </trkpt>
      <trkpt lat="50.028842" lon="8.221224">
        <ele>86.845233</ele>
        <time>2022-01-08T22:22:47.849Z</time>
      </trkpt>
      <trkpt lat="50.029003" lon="8.220814">
        <ele>86.981969</ele>
        <time>2022-01-08T22:22:56.720Z</time>
      </trkpt>
      <trkpt lat="50.029078" lon="8.220636">
        <ele>87.072188</ele>
        <time>2022-01-08T22:23:00.622Z</time>
      </trkpt>
      <trkpt lat="50.029227" lon="8.220286">
        <ele>87.250138</ele>
        <time>2022-01-08T22:23:08.741Z</time>
      </trkpt>
      <trkpt lat="50.029211" lon="8.220186">
        <ele>87.293814</ele>
        <time>2022-01-08T22:23:10.392Z</time>
      </trkpt>
      <trkpt lat="50.029381" lon="8.219780">
        <ele>87.499207</ele>
        <time>2022-01-08T22:23:17.978Z</time>
      </trkpt>
      <trkpt lat="50.029485" lon="8.219510">
        <ele>87.632630</ele>
        <time>2022-01-08T22:23:23.685Z</time>
      </trkpt>
      <trkpt lat="50.029321" lon="8.219351">
        <ele>87.760096</ele>
        <time>2022-01-08T22:23:30.082Z</time>
      </trkpt>
      <trkpt lat="50.029386" lon="8.219178">
        <ele>87.845035</ele>
        <time>2022-01-08T22:23:34.814Z</time>
      </trkpt>
      <trkpt lat="50.029498" lon="8.218888">
        <ele>87.988442</ele>
        <time>2022-01-08T22:23:42.281Z</time>
      </trkpt>
      <trkpt lat="50.029541" lon="8.218774">
        <ele>88.057726</ele>
        <time>2022-01-08T22:23:45.276Z</time>
      </trkpt>
      <trkpt lat="50.029563" lon="8.218715">
        <ele>88.097711</ele>
        <time>2022-01-08T22:23:46.893Z</time>
      </trkpt>
      <trkpt lat="50.029576" lon="8.218170">
        <ele>88.417369</ele>
        <time>2022-01-08T22:23:56.470Z</time>
      </trkpt>
      <trkpt lat="50.029639" lon="8.217867">
        <ele>88.604035</ele>
        <time>2022-01-08T22:24:01.925Z</time>
      </trkpt>
      <trkpt lat="50.029785" lon="8.217488">
        <ele>88.863055</ele>
        <time>2022-01-08T22:24:09.530Z</time>
      </trkpt>
      <trkpt lat="50.030124" lon="8.216432">
        <ele>89.554980</ele>
        <time>2022-01-08T22:24:28.822Z</time>
      </trkpt>
      <trkpt lat="50.030267" lon="8.215758">
        <ele>89.516981</ele>
        <time>2022-01-08T22:24:39.583Z</time>
      </trkpt>
      <trkpt lat="50.030575" lon="8.213865">
        <ele>89.037898</ele>
        <time>2022-01-08T22:25:04.805Z</time>
      </trkpt>
      <trkpt lat="50.030677" lon="8.212840">
        <ele>88.818523</ele>
        <time>2022-01-08T22:25:18.063Z</time>
      </trkpt>
      <trkpt lat="50.030803" lon="8.212281">
        <ele>88.701425</ele>
        <time>2022-01-08T22:25:26.949Z</time>
      </trkpt>
      <trkpt lat="50.030875" lon="8.210979">
        <ele>88.443118</ele>
        <time>2022-01-08T22:25:47.609Z</time>
      </trkpt>
      <trkpt lat="50.030753" lon="8.209943">
        <ele>88.062398</ele>
        <time>2022-01-08T22:26:04.180Z</time>
      </trkpt>
      <trkpt lat="50.030684" lon="8.209867">
        <ele>88.010842</ele>
        <time>2022-01-08T22:26:06.145Z</time>
      </trkpt>
      <trkpt lat="50.030523" lon="8.209938">
        <ele>87.908775</ele>
        <time>2022-01-08T22:26:09.630Z</time>
      </trkpt>
      <trkpt lat="50.030475" lon="8.209587">
        <ele>87.768165</ele>
        <time>2022-01-08T22:26:14.143Z</time>
      </trkpt>
      <trkpt lat="50.030369" lon="8.209366">
        <ele>87.660098</ele>
        <time>2022-01-08T22:26:17.674Z</time>
      </trkpt>
      <trkpt lat="50.030250" lon="8.209259">
        <ele>87.576276</ele>
        <time>2022-01-08T22:26:20.354Z</time>
      </trkpt>
      <trkpt lat="50.029996" lon="8.209230">
        <ele>87.420932</ele>
        <time>2022-01-08T22:26:25.278Z</time>
      </trkpt>
      <trkpt lat="50.030134" lon="8.207800">
        <ele>86.470318</ele>
        <time>2022-01-08T22:26:42.607Z</time>
      </trkpt>
      <trkpt lat="50.030123" lon="8.207484">
        <ele>86.242613</ele>
        <time>2022-01-08T22:26:46.394Z</time>
      </trkpt>
      <trkpt lat="50.029905" lon="8.206387">
        <ele>85.416381</ele>
        <time>2022-01-08T22:27:00.380Z</time>
      </trkpt>
      <trkpt lat="50.029918" lon="8.204874">
        <ele>84.891300</ele>
        <time>2022-01-08T22:27:20.376Z</time>
      </trkpt>
      <trkpt lat="50.030004" lon="8.204712">
        <ele>84.827846</ele>
        <time>2022-01-08T22:27:23.191Z</time>
      </trkpt>
      <trkpt lat="50.030315" lon="8.204800">
        <ele>84.679275</ele>
        <time>2022-01-08T22:27:29.850Z</time>
      </trkpt>
      <trkpt lat="50.030420" lon="8.204722">
        <ele>84.624592</ele>
        <time>2022-01-08T22:27:32.382Z</time>
      </trkpt>
      <trkpt lat="50.030758" lon="8.200524">
        <ele>83.942003</ele>
        <time>2022-01-08T22:28:29.295Z</time>
      </trkpt>
      <trkpt lat="50.030795" lon="8.200337">
        <ele>83.969101</ele>
        <time>2022-01-08T22:28:32.249Z</time>
      </trkpt>
      <trkpt lat="50.030974" lon="8.200129">
        <ele>84.017256</ele>
        <time>2022-01-08T22:28:37.324Z</time>
      </trkpt>
      <trkpt lat="50.030880" lon="8.199960">
        <ele>84.048215</ele>
        <time>2022-01-08T22:28:40.835Z</time>
      </trkpt>
      <trkpt lat="50.030636" lon="8.199934">
        <ele>84.100940</ele>
        <time>2022-01-08T22:28:46.705Z</time>
      </trkpt>
      <trkpt lat="50.030305" lon="8.199863">
        <ele>84.172973</ele>
        <time>2022-01-08T22:28:55.145Z</time>
      </trkpt>
      <trkpt lat="50.029871" lon="8.199608">
        <ele>84.368878</ele>
        <time>2022-01-08T22:29:06.871Z</time>
      </trkpt>
      <trkpt lat="50.029348" lon="8.199612">
        <ele>84.653600</ele>
        <time>2022-01-08T22:29:20.016Z</time>
      </trkpt>
      <trkpt lat="50.029386" lon="8.198990">
        <ele>84.872106</ele>
        <time>2022-01-08T22:29:30.028Z</time>
      </trkpt>
      <trkpt lat="50.029363" lon="8.198377">
        <ele>85.086848</ele>
        <time>2022-01-08T22:29:39.465Z</time>
      </trkpt>
      <trkpt lat="50.029401" lon="8.198073">
        <ele>85.187232</ele>
        <time>2022-01-08T22:29:44.004Z</time>
      </trkpt>
      <trkpt lat="50.029494" lon="8.197660">
        <ele>85.133903</ele>
        <time>2022-01-08T22:29:50.395Z</time>
      </trkpt>
      <trkpt lat="50.030338" lon="8.195050">
        <ele>84.833984</ele>
        <time>2022-01-08T22:30:29.958Z</time>
      </trkpt>
      <trkpt lat="50.030652" lon="8.192573">
        <ele>84.781779</ele>
        <time>2022-01-08T22:31:06.242Z</time>
      </trkpt>
      <trkpt lat="50.030894" lon="8.190777">
        <ele>84.795197</ele>
        <time>2022-01-08T22:31:32.620Z</time>
      </trkpt>
      <trkpt lat="50.031046" lon="8.188116">
        <ele>84.971836</ele>
        <time>2022-01-08T22:32:10.912Z</time>
      </trkpt>
      <trkpt lat="50.030954" lon="8.188052">
        <ele>84.985257</ele>
        <time>2022-01-08T22:32:13.429Z</time>
      </trkpt>
      <trkpt lat="50.030572" lon="8.187587">
        <ele>85.098012</ele>
        <time>2022-01-08T22:32:24.977Z</time>
      </trkpt>
      <trkpt lat="50.030466" lon="8.187437">
        <ele>85.206821</ele>
        <time>2022-01-08T22:32:28.184Z</time>
      </trkpt>
      <trkpt lat="50.030072" lon="8.186782">
        <ele>85.644665</ele>
        <time>2022-01-08T22:32:41.952Z</time>
      </trkpt>
      <trkpt lat="50.029950" lon="8.186409">
        <ele>85.848900</ele>
        <time>2022-01-08T22:32:48.678Z</time>
      </trkpt>
      <trkpt lat="50.029925" lon="8.186311">
        <ele>85.900351</ele>
        <time>2022-01-08T22:32:50.421Z</time>
      </trkpt>
      <trkpt lat="50.029909" lon="8.186246">
        <ele>85.934316</ele>
        <time>2022-01-08T22:32:51.601Z</time>
      </trkpt>
      <trkpt lat="50.029831" lon="8.185608">
        <ele>86.251210</ele>
        <time>2022-01-08T22:33:02.685Z</time>
      </trkpt>
      <trkpt lat="50.029789" lon="8.185101">
        <ele>86.515569</ele>
        <time>2022-01-08T22:33:11.982Z</time>
      </trkpt>
      <trkpt lat="50.029736" lon="8.184641">
        <ele>86.779485</ele>
        <time>2022-01-08T22:33:20.332Z</time>
      </trkpt>
      <trkpt lat="50.029559" lon="8.183504">
        <ele>87.440159</ele>
        <time>2022-01-08T22:33:39.788Z</time>
      </trkpt>
      <trkpt lat="50.029504" lon="8.183199">
        <ele>87.619057</ele>
        <time>2022-01-08T22:33:45.142Z</time>
      </trkpt>
      <trkpt lat="50.029413" lon="8.182704">
        <ele>87.909818</ele>
        <time>2022-01-08T22:33:53.467Z</time>
      </trkpt>
      <trkpt lat="50.029037" lon="8.180767">
        <ele>87.695778</ele>
        <time>2022-01-08T22:34:22.733Z</time>
      </trkpt>
      <trkpt lat="50.028597" lon="8.178982">
        <ele>87.172222</ele>
        <time>2022-01-08T22:34:46.262Z</time>
      </trkpt>
      <trkpt lat="50.028496" lon="8.178339">
        <ele>86.918645</ele>
        <time>2022-01-08T22:34:54.729Z</time>
      </trkpt>
      <trkpt lat="50.028168" lon="8.177237">
        <ele>86.502007</ele>
        <time>2022-01-08T22:35:11.399Z</time>
      </trkpt>
      <trkpt lat="50.028160" lon="8.177024">
        <ele>86.557691</ele>
        <time>2022-01-08T22:35:14.403Z</time>
      </trkpt>
      <trkpt lat="50.027952" lon="8.176542">
        <ele>86.709232</ele>
        <time>2022-01-08T22:35:22.885Z</time>
      </trkpt>
      <trkpt lat="50.027796" lon="8.175548">
        <ele>86.976280</ele>
        <time>2022-01-08T22:35:38.476Z</time>
      </trkpt>
      <trkpt lat="50.027173" lon="8.173843">
        <ele>87.596669</ele>
        <time>2022-01-08T22:36:10.815Z</time>
      </trkpt>
      <trkpt lat="50.027016" lon="8.173453">
        <ele>87.764131</ele>
        <time>2022-01-08T22:36:18.105Z</time>
      </trkpt>
      <trkpt lat="50.027000" lon="8.173409">
        <ele>87.782527</ele>
        <time>2022-01-08T22:36:18.883Z</time>
      </trkpt>
      <trkpt lat="50.026928" lon="8.173178">
        <ele>87.875948</ele>
        <time>2022-01-08T22:36:22.940Z</time>
      </trkpt>
      <trkpt lat="50.026715" lon="8.172383">
        <ele>88.189362</ele>
        <time>2022-01-08T22:36:35.884Z</time>
      </trkpt>
      <trkpt lat="50.026544" lon="8.171581">
        <ele>88.144814</ele>
        <time>2022-01-08T22:36:48.633Z</time>
      </trkpt>
      <trkpt lat="50.026811" lon="8.171323">
        <ele>88.086468</ele>
        <time>2022-01-08T22:36:55.846Z</time>
      </trkpt>
      <trkpt lat="50.026659" lon="8.170861">
        <ele>88.024558</ele>
        <time>2022-01-08T22:37:02.967Z</time>
      </trkpt>
      <trkpt lat="50.026401" lon="8.169932">
        <ele>87.903842</ele>
        <time>2022-01-08T22:37:16.147Z</time>
      </trkpt>
      <trkpt lat="50.026345" lon="8.169748">
        <ele>87.768172</ele>
        <time>2022-01-08T22:37:18.752Z</time>
      </trkpt>
      <trkpt lat="50.026245" lon="8.169370">
        <ele>87.421406</ele>
        <time>2022-01-08T22:37:23.905Z</time>
      </trkpt>
      <trkpt lat="50.026057" lon="8.168674">
        <ele>86.780950</ele>
        <time>2022-01-08T22:37:33.085Z</time>
      </trkpt>
      <trkpt lat="50.025815" lon="8.167005">
        <ele>85.340393</ele>
        <time>2022-01-08T22:37:52.976Z</time>
      </trkpt>
      <trkpt lat="50.025687" lon="8.165955">
        <ele>84.484539</ele>
        <time>2022-01-08T22:38:05.345Z</time>
      </trkpt>
      <trkpt lat="50.025565" lon="8.164951">
        <ele>83.666269</ele>
        <time>2022-01-08T22:38:17.567Z</time>
      </trkpt>
      <trkpt lat="50.024322" lon="8.160483">
        <ele>82.946425</ele>
        <time>2022-01-08T22:39:25.595Z</time>
      </trkpt>
      <trkpt lat="50.024121" lon="8.159686">
        <ele>82.955006</ele>
        <time>2022-01-08T22:39:38.327Z</time>
      </trkpt>
      <trkpt lat="50.023910" lon="8.158556">
        <ele>82.951774</ele>
        <time>2022-01-08T22:39:55.948Z</time>
      </trkpt>
      <trkpt lat="50.023601" lon="8.156835">
        <ele>82.936992</ele>
        <time>2022-01-08T22:40:21.018Z</time>
      </trkpt>
      <trkpt lat="50.023462" lon="8.156077">
        <ele>82.811474</ele>
        <time>2022-01-08T22:40:39.253Z</time>
      </trkpt>
      <trkpt lat="50.023359" lon="8.155471">
        <ele>82.681337</ele>
        <time>2022-01-08T22:40:53.687Z</time>
      </trkpt>
      <trkpt lat="50.023007" lon="8.154123">
        <ele>82.379251</ele>
        <time>2022-01-08T22:41:26.724Z</time>
      </trkpt>
      <trkpt lat="50.022082" lon="8.151316">
        <ele>82.184025</ele>
        <time>2022-01-08T22:42:41.057Z</time>
      </trkpt>
      <trkpt lat="50.022022" lon="8.151129">
        <ele>82.223097</ele>
        <time>2022-01-08T22:42:46.088Z</time>
      </trkpt>
      <trkpt lat="50.021936" lon="8.150863">
        <ele>82.278760</ele>
        <time>2022-01-08T22:42:53.299Z</time>
      </trkpt>
      <trkpt lat="50.021701" lon="8.150171">
        <ele>82.425070</ele>
        <time>2022-01-08T22:43:12.306Z</time>
      </trkpt>
      <trkpt lat="50.021451" lon="8.149413">
        <ele>82.584340</ele>
        <time>2022-01-08T22:43:33.360Z</time>
      </trkpt>
      <trkpt lat="50.021428" lon="8.149359">
        <ele>82.596451</ele>
        <time>2022-01-08T22:43:35.014Z</time>
      </trkpt>
      <trkpt lat="50.020908" lon="8.148189">
        <ele>83.312608</ele>
        <time>2022-01-08T22:44:11.329Z</time>
      </trkpt>
      <trkpt lat="50.019673" lon="8.145369">
        <ele>85.352571</ele>
        <time>2022-01-08T22:45:42.620Z</time>
      </trkpt>
      <trkpt lat="50.019578" lon="8.145271">
        <ele>85.456343</ele>
        <time>2022-01-08T22:45:47.244Z</time>
      </trkpt>
      <trkpt lat="50.019425" lon="8.145115">
        <ele>85.622882</ele>
        <time>2022-01-08T22:45:54.887Z</time>
      </trkpt>
      <trkpt lat="50.019100" lon="8.144486">
        <ele>85.970860</ele>
        <time>2022-01-08T22:46:15.156Z</time>
      </trkpt>
      <trkpt lat="50.019020" lon="8.144422">
        <ele>85.934698</ele>
        <time>2022-01-08T22:46:18.928Z</time>
      </trkpt>
      <trkpt lat="50.018976" lon="8.144004">
        <ele>85.825284</ele>
        <time>2022-01-08T22:46:24.859Z</time>
      </trkpt>
      <trkpt lat="50.018910" lon="8.143779">
        <ele>85.761393</ele>
        <time>2022-01-08T22:46:28.671Z</time>
      </trkpt>
      <trkpt lat="50.018717" lon="8.143283">
        <ele>85.611607</ele>
        <time>2022-01-08T22:46:36.540Z</time>
      </trkpt>
      <trkpt lat="50.017246" lon="8.141281">
        <ele>84.154373</ele>
        <time>2022-01-08T22:47:13.814Z</time>
      </trkpt>
      <trkpt lat="50.016454" lon="8.140410">
        <ele>83.365158</ele>
        <time>2022-01-08T22:47:32.946Z</time>
      </trkpt>
      <trkpt lat="50.016327" lon="8.140379">
        <ele>83.307450</ele>
        <time>2022-01-08T22:47:35.446Z</time>
      </trkpt>
      <trkpt lat="50.016121" lon="8.140326">
        <ele>83.213720</ele>
        <time>2022-01-08T22:47:39.989Z</time>
      </trkpt>
      <trkpt lat="50.015591" lon="8.139710">
        <ele>82.916769</ele>
        <time>2022-01-08T22:47:53.865Z</time>
      </trkpt>
      <trkpt lat="50.015386" lon="8.139569">
        <ele>82.816156</ele>
        <time>2022-01-08T22:47:58.521Z</time>
      </trkpt>
      <trkpt lat="50.015289" lon="8.139486">
        <ele>82.766464</ele>
        <time>2022-01-08T22:48:00.959Z</time>
      </trkpt>
      <trkpt lat="50.015101" lon="8.139273">
        <ele>82.680732</ele>
        <time>2022-01-08T22:48:07.418Z</time>
      </trkpt>
      <trkpt lat="50.014993" lon="8.139153">
        <ele>82.651189</ele>
        <time>2022-01-08T22:48:11.318Z</time>
      </trkpt>
      <trkpt lat="50.015153" lon="8.138724">
        <ele>82.580228</ele>
        <time>2022-01-08T22:48:20.596Z</time>
      </trkpt>
      <trkpt lat="50.015319" lon="8.138393">
        <ele>82.520160</ele>
        <time>2022-01-08T22:48:26.478Z</time>
      </trkpt>
      <trkpt lat="50.015273" lon="8.138045">
        <ele>82.469333</ele>
        <time>2022-01-08T22:48:31.380Z</time>
      </trkpt>
      <trkpt lat="50.014086" lon="8.135448">
        <ele>81.925216</ele>
        <time>2022-01-08T22:49:14.367Z</time>
      </trkpt>
      <trkpt lat="50.013353" lon="8.133711">
        <ele>81.782811</ele>
        <time>2022-01-08T22:49:43.557Z</time>
      </trkpt>
      <trkpt lat="50.011683" lon="8.129519">
        <ele>81.985095</ele>
        <time>2022-01-08T22:50:55.318Z</time>
      </trkpt>
      <trkpt lat="50.010810" lon="8.127092">
        <ele>82.067584</ele>
        <time>2022-01-08T22:51:35.564Z</time>
      </trkpt>
      <trkpt lat="50.010554" lon="8.126509">
        <ele>82.059307</ele>
        <time>2022-01-08T22:51:45.371Z</time>
      </trkpt>
      <trkpt lat="50.010127" lon="8.125294">
        <ele>82.043072</ele>
        <time>2022-01-08T22:52:04.873Z</time>
      </trkpt>
      <trkpt lat="50.009922" lon="8.124784">
        <ele>82.089074</ele>
        <time>2022-01-08T22:52:13.292Z</time>
      </trkpt>
      <trkpt lat="50.008295" lon="8.120324">
        <ele>82.715625</ele>
        <time>2022-01-08T22:53:29.553Z</time>
      </trkpt>
      <trkpt lat="50.008261" lon="8.120116">
        <ele>82.732615</ele>
        <time>2022-01-08T22:53:32.816Z</time>
      </trkpt>
      <trkpt lat="50.008214" lon="8.119466">
        <ele>82.784397</ele>
        <time>2022-01-08T22:53:42.700Z</time>
      </trkpt>
      <trkpt lat="50.008131" lon="8.117833">
        <ele>82.914077</ele>
        <time>2022-01-08T22:54:07.739Z</time>
      </trkpt>
      <trkpt lat="50.008152" lon="8.117612">
        <ele>82.931763</ele>
        <time>2022-01-08T22:54:11.090Z</time>
      </trkpt>
      <trkpt lat="50.009374" lon="8.112713">
        <ele>82.422813</ele>
        <time>2022-01-08T22:55:26.398Z</time>
      </trkpt>
      <trkpt lat="50.009453" lon="8.112318">
        <ele>82.393192</ele>
        <time>2022-01-08T22:55:32.551Z</time>
      </trkpt>
      <trkpt lat="50.009811" lon="8.109279">
        <ele>82.917478</ele>
        <time>2022-01-08T22:56:21.317Z</time>
      </trkpt>
      <trkpt lat="50.009865" lon="8.109082">
        <ele>82.952557</ele>
        <time>2022-01-08T22:56:24.653Z</time>
      </trkpt>
      <trkpt lat="50.009917" lon="8.109051">
        <ele>82.966750</ele>
        <time>2022-01-08T22:56:26.125Z</time>
      </trkpt>
      <trkpt lat="50.009885" lon="8.108993">
        <ele>82.979271</ele>
        <time>2022-01-08T22:56:28.081Z</time>
      </trkpt>
      <trkpt lat="50.009889" lon="8.108693">
        <ele>83.028419</ele>
        <time>2022-01-08T22:56:35.392Z</time>
      </trkpt>
      <trkpt lat="50.010074" lon="8.107726">
        <ele>83.193675</ele>
        <time>2022-01-08T22:57:00.171Z</time>
      </trkpt>
      <trkpt lat="50.010113" lon="8.107060">
        <ele>83.303213</ele>
        <time>2022-01-08T22:57:16.361Z</time>
      </trkpt>
      <trkpt lat="50.010055" lon="8.105613">
        <ele>83.359204</ele>
        <time>2022-01-08T22:57:50.799Z</time>
      </trkpt>
      <trkpt lat="50.009983" lon="8.103824">
        <ele>83.430351</ele>
        <time>2022-01-08T22:58:33.809Z</time>
      </trkpt>
      <trkpt lat="50.009974" lon="8.102209">
        <ele>83.603435</ele>
        <time>2022-01-08T22:59:12.960Z</time>
      </trkpt>
      <trkpt lat="50.009974" lon="8.101743">
        <ele>83.653375</ele>
        <time>2022-01-08T22:59:24.294Z</time>
      </trkpt>
      <trkpt lat="50.009836" lon="8.101671">
        <ele>83.677647</ele>
        <time>2022-01-08T22:59:27.501Z</time>
      </trkpt>
      <trkpt lat="50.009780" lon="8.101488">
        <ele>83.702053</ele>
        <time>2022-01-08T22:59:30.686Z</time>
      </trkpt>
      <trkpt lat="50.009587" lon="8.100890">
        <ele>83.866676</ele>
        <time>2022-01-08T22:59:41.131Z</time>
      </trkpt>
      <trkpt lat="50.009472" lon="8.100221">
        <ele>84.037041</ele>
        <time>2022-01-08T22:59:51.922Z</time>
      </trkpt>
      <trkpt lat="50.009464" lon="8.100174">
        <ele>84.049002</ele>
        <time>2022-01-08T22:59:52.656Z</time>
      </trkpt>
      <trkpt lat="50.009355" lon="8.099516">
        <ele>84.216168</ele>
        <time>2022-01-08T23:00:03.513Z</time>
      </trkpt>
      <trkpt lat="50.009247" lon="8.098872">
        <ele>84.379904</ele>
        <time>2022-01-08T23:00:14.461Z</time>
      </trkpt>
      <trkpt lat="50.009202" lon="8.098610">
        <ele>84.416619</ele>
        <time>2022-01-08T23:00:18.949Z</time>
      </trkpt>
      <trkpt lat="50.009048" lon="8.097745">
        <ele>84.528484</ele>
        <time>2022-01-08T23:00:33.548Z</time>
      </trkpt>
      <trkpt lat="50.008913" lon="8.097342">
        <ele>84.585124</ele>
        <time>2022-01-08T23:00:40.673Z</time>
      </trkpt>
      <trkpt lat="50.008650" lon="8.096210">
        <ele>84.733014</ele>
        <time>2022-01-08T23:00:58.511Z</time>
      </trkpt>
      <trkpt lat="50.008539" lon="8.095611">
        <ele>84.494557</ele>
        <time>2022-01-08T23:01:07.225Z</time>
      </trkpt>
      <trkpt lat="50.008369" lon="8.094658">
        <ele>84.116244</ele>
        <time>2022-01-08T23:01:20.482Z</time>
      </trkpt>
      <trkpt lat="50.008335" lon="8.094487">
        <ele>84.047776</ele>
        <time>2022-01-08T23:01:22.843Z</time>
      </trkpt>
      <trkpt lat="50.008308" lon="8.094330">
        <ele>83.985609</ele>
        <time>2022-01-08T23:01:24.943Z</time>
      </trkpt>
      <trkpt lat="50.008290" lon="8.094208">
        <ele>83.937729</ele>
        <time>2022-01-08T23:01:26.494Z</time>
      </trkpt>
      <trkpt lat="50.007765" lon="8.091871">
        <ele>83.204397</ele>
        <time>2022-01-08T23:01:58.657Z</time>
      </trkpt>
      <trkpt lat="50.007631" lon="8.091243">
        <ele>83.031592</ele>
        <time>2022-01-08T23:02:07.856Z</time>
      </trkpt>
      <trkpt lat="50.007215" lon="8.089306">
        <ele>82.951259</ele>
        <time>2022-01-08T23:02:36.919Z</time>
      </trkpt>
      <trkpt lat="50.005618" lon="8.084495">
        <ele>83.085489</ele>
        <time>2022-01-08T23:03:55.672Z</time>
      </trkpt>
      <trkpt lat="50.004804" lon="8.082045">
        <ele>82.851018</ele>
        <time>2022-01-08T23:04:34.014Z</time>
      </trkpt>
      <trkpt lat="50.004407" lon="8.080885">
        <ele>82.663590</ele>
        <time>2022-01-08T23:04:51.785Z</time>
      </trkpt>
      <trkpt lat="50.002533" lon="8.075245">
        <ele>82.420857</ele>
        <time>2022-01-08T23:06:21.180Z</time>
      </trkpt>
      <trkpt lat="50.002401" lon="8.075070">
        <ele>82.449916</ele>
        <time>2022-01-08T23:06:25.196Z</time>
      </trkpt>
      <trkpt lat="50.002102" lon="8.075129">
        <ele>82.500418</ele>
        <time>2022-01-08T23:06:32.237Z</time>
      </trkpt>
      <trkpt lat="50.001990" lon="8.075063">
        <ele>82.520486</ele>
        <time>2022-01-08T23:06:35.027Z</time>
      </trkpt>
      <trkpt lat="50.001954" lon="8.074962">
        <ele>82.532924</ele>
        <time>2022-01-08T23:06:36.752Z</time>
      </trkpt>
      <trkpt lat="50.001839" lon="8.074186">
        <ele>82.618694</ele>
        <time>2022-01-08T23:06:48.745Z</time>
      </trkpt>
      <trkpt lat="50.001889" lon="8.074055">
        <ele>82.635103</ele>
        <time>2022-01-08T23:06:51.003Z</time>
      </trkpt>
      <trkpt lat="50.002085" lon="8.073831">
        <ele>82.664519</ele>
        <time>2022-01-08T23:06:56.724Z</time>
      </trkpt>
      <trkpt lat="50.002128" lon="8.073684">
        <ele>82.675376</ele>
        <time>2022-01-08T23:06:59.115Z</time>
      </trkpt>
      <trkpt lat="50.002111" lon="8.073523">
        <ele>82.686344</ele>
        <time>2022-01-08T23:07:01.566Z</time>
      </trkpt>
      <trkpt lat="50.000786" lon="8.067096">
        <ele>83.034014</ele>
        <time>2022-01-08T23:08:39.574Z</time>
      </trkpt>
      <trkpt lat="50.000518" lon="8.065514">
        <ele>83.114142</ele>
        <time>2022-01-08T23:09:02.549Z</time>
      </trkpt>
      <trkpt lat="50.000485" lon="8.065300">
        <ele>83.141114</ele>
        <time>2022-01-08T23:09:05.687Z</time>
      </trkpt>
      <trkpt lat="50.000386" lon="8.064778">
        <ele>83.207817</ele>
        <time>2022-01-08T23:09:13.526Z</time>
      </trkpt>
      <trkpt lat="50.000390" lon="8.064497">
        <ele>83.242265</ele>
        <time>2022-01-08T23:09:17.617Z</time>
      </trkpt>
      <trkpt lat="50.000520" lon="8.063464">
        <ele>83.371274</ele>
        <time>2022-01-08T23:09:33.415Z</time>
      </trkpt>
      <trkpt lat="50.001207" lon="8.059940">
        <ele>84.272169</ele>
        <time>2022-01-08T23:10:31.374Z</time>
      </trkpt>
      <trkpt lat="50.001208" lon="8.058929">
        <ele>84.244005</ele>
        <time>2022-01-08T23:10:45.706Z</time>
      </trkpt>
      <trkpt lat="50.001209" lon="8.058216">
        <ele>84.224142</ele>
        <time>2022-01-08T23:10:55.290Z</time>
      </trkpt>
      <trkpt lat="50.000937" lon="8.056097">
        <ele>83.567948</ele>
        <time>2022-01-08T23:11:23.382Z</time>
      </trkpt>
      <trkpt lat="50.000870" lon="8.054975">
        <ele>83.201356</ele>
        <time>2022-01-08T23:11:38.300Z</time>
      </trkpt>
      <trkpt lat="50.000896" lon="8.054453">
        <ele>83.086009</ele>
        <time>2022-01-08T23:11:45.303Z</time>
      </trkpt>
      <trkpt lat="50.000656" lon="8.051739">
        <ele>82.543462</ele>
        <time>2022-01-08T23:12:22.507Z</time>
      </trkpt>
      <trkpt lat="49.999558" lon="8.047413">
        <ele>82.062404</ele>
        <time>2022-01-08T23:13:27.133Z</time>
      </trkpt>
      <trkpt lat="49.999498" lon="8.047235">
        <ele>82.045785</ele>
        <time>2022-01-08T23:13:30.060Z</time>
      </trkpt>
      <trkpt lat="49.999468" lon="8.047182">
        <ele>82.039946</ele>
        <time>2022-01-08T23:13:31.072Z</time>
      </trkpt>
      <trkpt lat="49.999220" lon="8.046973">
        <ele>82.159151</ele>
        <time>2022-01-08T23:13:37.314Z</time>
      </trkpt>
      <trkpt lat="49.999072" lon="8.046733">
        <ele>82.253462</ele>
        <time>2022-01-08T23:13:42.100Z</time>
      </trkpt>
      <trkpt lat="49.998903" lon="8.046294">
        <ele>82.398567</ele>
        <time>2022-01-08T23:13:49.810Z</time>
      </trkpt>
      <trkpt lat="49.998842" lon="8.046039">
        <ele>82.475723</ele>
        <time>2022-01-08T23:13:54.062Z</time>
      </trkpt>
      <trkpt lat="49.998839" lon="8.045605">
        <ele>82.598800</ele>
        <time>2022-01-08T23:14:00.806Z</time>
      </trkpt>
      <trkpt lat="49.998708" lon="8.045264">
        <ele>82.711451</ele>
        <time>2022-01-08T23:14:07.179Z</time>
      </trkpt>
      <trkpt lat="49.997644" lon="8.042987">
        <ele>84.575941</ele>
        <time>2022-01-08T23:15:21.629Z</time>
      </trkpt>
      <trkpt lat="49.997232" lon="8.042334">
        <ele>85.278956</ele>
        <time>2022-01-08T23:15:47.396Z</time>
      </trkpt>
      <trkpt lat="49.996797" lon="8.041270">
        <ele>86.287016</ele>
        <time>2022-01-08T23:16:22.714Z</time>
      </trkpt>
      <trkpt lat="49.996579" lon="8.041066">
        <ele>86.603399</ele>
        <time>2022-01-08T23:16:33.480Z</time>
      </trkpt>
      <trkpt lat="49.996288" lon="8.040076">
        <ele>86.922763</ele>
        <time>2022-01-08T23:16:50.779Z</time>
      </trkpt>
      <trkpt lat="49.996178" lon="8.039836">
        <ele>86.800183</ele>
        <time>2022-01-08T23:16:55.069Z</time>
      </trkpt>
      <trkpt lat="49.996112" lon="8.039828">
        <ele>86.757356</ele>
        <time>2022-01-08T23:16:56.619Z</time>
      </trkpt>
      <trkpt lat="49.993949" lon="8.040209">
        <ele>84.709443</ele>
        <time>2022-01-08T23:17:37.591Z</time>
      </trkpt>
      <trkpt lat="49.993829" lon="8.040319">
        <ele>84.523041</ele>
        <time>2022-01-08T23:17:40.159Z</time>
      </trkpt>
      <trkpt lat="49.993826" lon="8.040348">
        <ele>84.497771</ele>
        <time>2022-01-08T23:17:40.449Z</time>
      </trkpt>
      <trkpt lat="49.993771" lon="8.040929">
        <ele>83.992529</ele>
        <time>2022-01-08T23:17:47.329Z</time>
      </trkpt>
      <trkpt lat="49.993741" lon="8.040910">
        <ele>83.949180</ele>
        <time>2022-01-08T23:17:47.906Z</time>
      </trkpt>
      <trkpt lat="49.993673" lon="8.040910">
        <ele>83.858178</ele>
        <time>2022-01-08T23:17:49.192Z</time>
      </trkpt>
      <trkpt lat="49.993456" lon="8.040911">
        <ele>83.567774</ele>
        <time>2022-01-08T23:17:53.329Z</time>
      </trkpt>
      <trkpt lat="49.993247" lon="8.040779">
        <ele>83.422583</ele>
        <time>2022-01-08T23:17:57.536Z</time>
      </trkpt>
      <trkpt lat="49.993170" lon="8.040556">
        <ele>83.329009</ele>
        <time>2022-01-08T23:18:00.601Z</time>
      </trkpt>
      <trkpt lat="49.993207" lon="8.039813">
        <ele>83.053525</ele>
        <time>2022-01-08T23:18:10.031Z</time>
      </trkpt>
      <trkpt lat="49.993298" lon="8.039330">
        <ele>82.867467</ele>
        <time>2022-01-08T23:18:16.737Z</time>
      </trkpt>
      <trkpt lat="49.993979" lon="8.035628">
        <ele>82.593719</ele>
        <time>2022-01-08T23:19:11.980Z</time>
      </trkpt>
      <trkpt lat="49.994029" lon="8.035390">
        <ele>82.641664</ele>
        <time>2022-01-08T23:19:16.964Z</time>
      </trkpt>
      <trkpt lat="49.994064" lon="8.035150">
        <ele>82.688789</ele>
        <time>2022-01-08T23:19:21.698Z</time>
      </trkpt>
      <trkpt lat="49.994163" lon="8.034532">
        <ele>82.810746</ele>
        <time>2022-01-08T23:19:31.324Z</time>
      </trkpt>
      <trkpt lat="49.994164" lon="8.034202">
        <ele>82.873937</ele>
        <time>2022-01-08T23:19:36.371Z</time>
      </trkpt>
      <trkpt lat="49.992913" lon="8.027255">
        <ele>84.546531</ele>
        <time>2022-01-08T23:21:26.481Z</time>
      </trkpt>
      <trkpt lat="49.992792" lon="8.027017">
        <ele>84.582925</ele>
        <time>2022-01-08T23:21:31.227Z</time>
      </trkpt>
      <trkpt lat="49.992628" lon="8.026039">
        <ele>84.704155</ele>
        <time>2022-01-08T23:21:50.869Z</time>
      </trkpt>
      <trkpt lat="49.992655" lon="8.025276">
        <ele>84.795811</ele>
        <time>2022-01-08T23:22:05.601Z</time>
      </trkpt>
      <trkpt lat="49.992658" lon="8.025088">
        <ele>84.818368</ele>
        <time>2022-01-08T23:22:09.091Z</time>
      </trkpt>
      <trkpt lat="49.992667" lon="8.024647">
        <ele>84.763551</ele>
        <time>2022-01-08T23:22:17.452Z</time>
      </trkpt>
      <trkpt lat="49.992670" lon="8.024381">
        <ele>84.689329</ele>
        <time>2022-01-08T23:22:22.418Z</time>
      </trkpt>
      <trkpt lat="49.992643" lon="8.023947">
        <ele>84.567683</ele>
        <time>2022-01-08T23:22:30.265Z</time>
      </trkpt>
      <trkpt lat="49.992598" lon="8.023214">
        <ele>84.362254</ele>
        <time>2022-01-08T23:22:43.088Z</time>
      </trkpt>
      <trkpt lat="49.992416" lon="8.022570">
        <ele>84.165992</ele>
        <time>2022-01-08T23:22:55.005Z</time>
      </trkpt>
      <trkpt lat="49.992329" lon="8.022645">
        <ele>84.122827</ele>
        <time>2022-01-08T23:22:56.997Z</time>
      </trkpt>
      <trkpt lat="49.992159" lon="8.022120">
        <ele>83.952194</ele>
        <time>2022-01-08T23:23:05.122Z</time>
      </trkpt>
      <trkpt lat="49.992132" lon="8.021958">
        <ele>83.902392</ele>
        <time>2022-01-08T23:23:07.358Z</time>
      </trkpt>
      <trkpt lat="49.992307" lon="8.021579">
        <ele>83.763532</ele>
        <time>2022-01-08T23:23:13.773Z</time>
      </trkpt>
      <trkpt lat="49.992302" lon="8.021382">
        <ele>83.704863</ele>
        <time>2022-01-08T23:23:16.347Z</time>
      </trkpt>
      <trkpt lat="49.992127" lon="8.020775">
        <ele>83.506898</ele>
        <time>2022-01-08T23:23:25.108Z</time>
      </trkpt>
      <trkpt lat="49.991917" lon="8.020082">
        <ele>83.278912</ele>
        <time>2022-01-08T23:23:35.223Z</time>
      </trkpt>
      <trkpt lat="49.991903" lon="8.019949">
        <ele>83.238806</ele>
        <time>2022-01-08T23:23:36.933Z</time>
      </trkpt>
      <trkpt lat="49.991281" lon="8.018481">
        <ele>82.881925</ele>
        <time>2022-01-08T23:24:01.482Z</time>
      </trkpt>
      <trkpt lat="49.990975" lon="8.017837">
        <ele>82.721303</ele>
        <time>2022-01-08T23:24:12.351Z</time>
      </trkpt>
      <trkpt lat="49.990717" lon="8.017481">
        <ele>82.612984</ele>
        <time>2022-01-08T23:24:19.158Z</time>
      </trkpt>
      <trkpt lat="49.990585" lon="8.017307">
        <ele>82.558240</ele>
        <time>2022-01-08T23:24:22.808Z</time>
      </trkpt>
      <trkpt lat="49.989778" lon="8.016450">
        <ele>82.249080</ele>
        <time>2022-01-08T23:24:43.228Z</time>
      </trkpt>
      <trkpt lat="49.989507" lon="8.016283">
        <ele>82.156854</ele>
        <time>2022-01-08T23:24:49.373Z</time>
      </trkpt>
      <trkpt lat="49.986323" lon="8.013352">
        <ele>82.437541</ele>
        <time>2022-01-08T23:26:13.364Z</time>
      </trkpt>
      <trkpt lat="49.985503" lon="8.012644">
        <ele>82.319919</ele>
        <time>2022-01-08T23:26:34.139Z</time>
      </trkpt>
      <trkpt lat="49.985328" lon="8.012650">
        <ele>82.293749</ele>
        <time>2022-01-08T23:26:37.867Z</time>
      </trkpt>
      <trkpt lat="49.985299" lon="8.012594">
        <ele>82.286837</ele>
        <time>2022-01-08T23:26:38.860Z</time>
      </trkpt>
      <trkpt lat="49.985254" lon="8.012522">
        <ele>82.277185</ele>
        <time>2022-01-08T23:26:40.234Z</time>
      </trkpt>
      <trkpt lat="49.985019" lon="8.012141">
        <ele>82.226434</ele>
        <time>2022-01-08T23:26:47.411Z</time>
      </trkpt>
      <trkpt lat="49.984156" lon="8.010955">
        <ele>81.987507</ele>
        <time>2022-01-08T23:27:11.857Z</time>
      </trkpt>
      <trkpt lat="49.983399" lon="8.009734">
        <ele>81.765867</ele>
        <time>2022-01-08T23:27:35.211Z</time>
      </trkpt>
      <trkpt lat="49.982225" lon="8.007995">
        <ele>81.802719</ele>
        <time>2022-01-08T23:28:11.634Z</time>
      </trkpt>
      <trkpt lat="49.981929" lon="8.007705">
        <ele>81.859682</ele>
        <time>2022-01-08T23:28:19.508Z</time>
      </trkpt>
      <trkpt lat="49.981561" lon="8.006888">
        <ele>81.982811</ele>
        <time>2022-01-08T23:28:34.153Z</time>
      </trkpt>
      <trkpt lat="49.981132" lon="8.006125">
        <ele>82.107920</ele>
        <time>2022-01-08T23:28:49.263Z</time>
      </trkpt>
      <trkpt lat="49.980257" lon="8.004132">
        <ele>82.401338</ele>
        <time>2022-01-08T23:29:25.342Z</time>
      </trkpt>
      <trkpt lat="49.980032" lon="8.003421">
        <ele>82.473599</ele>
        <time>2022-01-08T23:29:37.156Z</time>
      </trkpt>
      <trkpt lat="49.979833" lon="8.002393">
        <ele>82.252421</ele>
        <time>2022-01-08T23:29:52.031Z</time>
      </trkpt>
      <trkpt lat="49.979661" lon="8.001261">
        <ele>82.012782</ele>
        <time>2022-01-08T23:30:07.429Z</time>
      </trkpt>
      <trkpt lat="49.979560" lon="7.999961">
        <ele>81.821424</ele>
        <time>2022-01-08T23:30:24.637Z</time>
      </trkpt>
      <trkpt lat="49.979552" lon="7.997936">
        <ele>81.626520</ele>
        <time>2022-01-08T23:30:52.863Z</time>
      </trkpt>
      <trkpt lat="49.979459" lon="7.995785">
        <ele>82.641505</ele>
        <time>2022-01-08T23:31:27.998Z</time>
      </trkpt>
      <trkpt lat="49.979306" lon="7.994983">
        <ele>83.013171</ele>
        <time>2022-01-08T23:31:42.625Z</time>
      </trkpt>
      <trkpt lat="49.978483" lon="7.992224">
        <ele>83.813125</ele>
        <time>2022-01-08T23:32:30.546Z</time>
      </trkpt>
      <trkpt lat="49.978455" lon="7.992155">
        <ele>83.784690</ele>
        <time>2022-01-08T23:32:31.721Z</time>
      </trkpt>
      <trkpt lat="49.978405" lon="7.992122">
        <ele>83.755253</ele>
        <time>2022-01-08T23:32:32.686Z</time>
      </trkpt>
      <trkpt lat="49.976812" lon="7.992799">
        <ele>82.956425</ele>
        <time>2022-01-08T23:33:04.815Z</time>
      </trkpt>
      <trkpt lat="49.976744" lon="7.992698">
        <ele>82.938391</ele>
        <time>2022-01-08T23:33:06.650Z</time>
      </trkpt>
      <trkpt lat="49.974734" lon="7.986267">
        <ele>82.056023</ele>
        <time>2022-01-08T23:34:47.592Z</time>
      </trkpt>
      <trkpt lat="49.974308" lon="7.984918">
        <ele>81.971216</ele>
        <time>2022-01-08T23:35:07.212Z</time>
      </trkpt>
      <trkpt lat="49.973990" lon="7.983164">
        <ele>81.965973</ele>
        <time>2022-01-08T23:35:33.717Z</time>
      </trkpt>
      <trkpt lat="49.973843" lon="7.982584">
        <ele>82.280392</ele>
        <time>2022-01-08T23:35:43.720Z</time>
      </trkpt>
      <trkpt lat="49.973751" lon="7.982409">
        <ele>82.427088</ele>
        <time>2022-01-08T23:35:47.245Z</time>
      </trkpt>
      <trkpt lat="49.973537" lon="7.982199">
        <ele>82.682458</ele>
        <time>2022-01-08T23:35:53.932Z</time>
      </trkpt>
      <trkpt lat="49.973451" lon="7.981714">
        <ele>83.008979</ele>
        <time>2022-01-08T23:36:02.650Z</time>
      </trkpt>
      <trkpt lat="49.971626" lon="7.982362">
        <ele>84.782125</ele>
        <time>2022-01-08T23:36:53.951Z</time>
      </trkpt>
      <trkpt lat="49.971455" lon="7.982325">
        <ele>84.938272</ele>
        <time>2022-01-08T23:36:58.331Z</time>
      </trkpt>
      <trkpt lat="49.966767" lon="7.971419">
        <ele>87.156167</ele>
        <time>2022-01-08T23:40:14.286Z</time>
      </trkpt>
      <trkpt lat="49.966701" lon="7.971179">
        <ele>87.143060</ele>
        <time>2022-01-08T23:40:17.834Z</time>
      </trkpt>
      <trkpt lat="49.966728" lon="7.970768">
        <ele>87.122313</ele>
        <time>2022-01-08T23:40:23.473Z</time>
      </trkpt>
      <trkpt lat="49.966983" lon="7.969959">
        <ele>87.077070</ele>
        <time>2022-01-08T23:40:35.618Z</time>
      </trkpt>
      <trkpt lat="49.967057" lon="7.969384">
        <ele>86.889647</ele>
        <time>2022-01-08T23:40:43.611Z</time>
      </trkpt>
      <trkpt lat="49.967033" lon="7.968956">
        <ele>86.729680</ele>
        <time>2022-01-08T23:40:49.561Z</time>
      </trkpt>
      <trkpt lat="49.966910" lon="7.968404">
        <ele>86.512165</ele>
        <time>2022-01-08T23:40:57.019Z</time>
      </trkpt>
      <trkpt lat="49.966739" lon="7.968055">
        <ele>86.348811</ele>
        <time>2022-01-08T23:41:02.492Z</time>
      </trkpt>
      <trkpt lat="49.966473" lon="7.967782">
        <ele>86.164306</ele>
        <time>2022-01-08T23:41:08.733Z</time>
      </trkpt>
      <trkpt lat="49.965939" lon="7.967618">
        <ele>85.998860</ele>
        <time>2022-01-08T23:41:20.091Z</time>
      </trkpt>
      <trkpt lat="49.965880" lon="7.967442">
        <ele>85.985767</ele>
        <time>2022-01-08T23:41:22.445Z</time>
      </trkpt>
      <trkpt lat="49.965938" lon="7.966357">
        <ele>85.913940</ele>
        <time>2022-01-08T23:41:37.771Z</time>
      </trkpt>
      <trkpt lat="49.965837" lon="7.966213">
        <ele>85.899885</ele>
        <time>2022-01-08T23:41:40.923Z</time>
      </trkpt>
      <trkpt lat="49.965898" lon="7.965563">
        <ele>85.856549</ele>
        <time>2022-01-08T23:41:50.803Z</time>
      </trkpt>
      <trkpt lat="49.965907" lon="7.965417">
        <ele>85.846873</ele>
        <time>2022-01-08T23:41:52.963Z</time>
      </trkpt>
      <trkpt lat="49.966007" lon="7.964141">
        <ele>86.192766</ele>
        <time>2022-01-08T23:42:13.209Z</time>
      </trkpt>
      <trkpt lat="49.966023" lon="7.963959">
        <ele>86.242386</ele>
        <time>2022-01-08T23:42:16.096Z</time>
      </trkpt>
      <trkpt lat="49.966126" lon="7.962733">
        <ele>86.576375</ele>
        <time>2022-01-08T23:42:35.800Z</time>
      </trkpt>
      <trkpt lat="49.966275" lon="7.961159">
        <ele>85.945769</ele>
        <time>2022-01-08T23:42:57.453Z</time>
      </trkpt>
      <trkpt lat="49.966603" lon="7.961226">
        <ele>85.720230</ele>
        <time>2022-01-08T23:43:03.794Z</time>
      </trkpt>
      <trkpt lat="49.967254" lon="7.961374">
        <ele>85.176047</ele>
        <time>2022-01-08T23:43:15.907Z</time>
      </trkpt>
      <trkpt lat="49.967648" lon="7.961380">
        <ele>84.660439</ele>
        <time>2022-01-08T23:43:23.070Z</time>
      </trkpt>
      <trkpt lat="49.968665" lon="7.961608">
        <ele>83.315843</ele>
        <time>2022-01-08T23:43:41.878Z</time>
      </trkpt>
      <trkpt lat="49.968783" lon="7.961609">
        <ele>83.161428</ele>
        <time>2022-01-08T23:43:44.175Z</time>
      </trkpt>
      <trkpt lat="49.968873" lon="7.961594">
        <ele>83.042980</ele>
        <time>2022-01-08T23:43:46.138Z</time>
      </trkpt>
      <trkpt lat="49.969491" lon="7.961398">
        <ele>83.044473</ele>
        <time>2022-01-08T23:44:00.897Z</time>
      </trkpt>
      <trkpt lat="49.969993" lon="7.961104">
        <ele>83.064060</ele>
        <time>2022-01-08T23:44:14.589Z</time>
      </trkpt>
      <trkpt lat="49.970125" lon="7.961047">
        <ele>83.069063</ele>
        <time>2022-01-08T23:44:18.568Z</time>
      </trkpt>
      <trkpt lat="49.970161" lon="7.961029">
        <ele>83.070443</ele>
        <time>2022-01-08T23:44:19.574Z</time>
      </trkpt>
      <trkpt lat="49.970466" lon="7.961217">
        <ele>83.082424</ele>
        <time>2022-01-08T23:44:28.232Z</time>
      </trkpt>
      <trkpt lat="49.970589" lon="7.961180">
        <ele>83.086998</ele>
        <time>2022-01-08T23:44:31.297Z</time>
      </trkpt>
      <trkpt lat="49.970642" lon="7.961054">
        <ele>83.132227</ele>
        <time>2022-01-08T23:44:33.805Z</time>
      </trkpt>
      <trkpt lat="49.970623" lon="7.960884">
        <ele>83.195961</ele>
        <time>2022-01-08T23:44:37.188Z</time>
      </trkpt>
      <trkpt lat="49.970554" lon="7.960267">
        <ele>83.427284</ele>
        <time>2022-01-08T23:44:48.381Z</time>
      </trkpt>
      <trkpt lat="49.970560" lon="7.960032">
        <ele>83.514156</ele>
        <time>2022-01-08T23:44:52.136Z</time>
      </trkpt>
      <trkpt lat="49.970526" lon="7.958286">
        <ele>84.156638</ele>
        <time>2022-01-08T23:45:22.837Z</time>
      </trkpt>
      <trkpt lat="49.970374" lon="7.956123">
        <ele>84.903475</ele>
        <time>2022-01-08T23:45:59.880Z</time>
      </trkpt>
      <trkpt lat="49.970510" lon="7.954989">
        <ele>85.143409</ele>
        <time>2022-01-08T23:46:20.555Z</time>
      </trkpt>
      <trkpt lat="49.970499" lon="7.954018">
        <ele>85.239198</ele>
        <time>2022-01-08T23:46:37.129Z</time>
      </trkpt>
      <trkpt lat="49.970382" lon="7.952550">
        <ele>85.203846</ele>
        <time>2022-01-08T23:46:59.575Z</time>
      </trkpt>
      <trkpt lat="49.970523" lon="7.950114">
        <ele>83.925273</ele>
        <time>2022-01-08T23:47:33.581Z</time>
      </trkpt>
      <trkpt lat="49.970468" lon="7.947154">
        <ele>83.105249</ele>
        <time>2022-01-08T23:48:17.623Z</time>
      </trkpt>
      <trkpt lat="49.970520" lon="7.943542">
        <ele>84.020631</ele>
        <time>2022-01-08T23:49:18.179Z</time>
      </trkpt>
      <trkpt lat="49.970597" lon="7.942848">
        <ele>84.406261</ele>
        <time>2022-01-08T23:49:31.283Z</time>
      </trkpt>
      <trkpt lat="49.970546" lon="7.942365">
        <ele>84.674281</ele>
        <time>2022-01-08T23:49:40.536Z</time>
      </trkpt>
      <trkpt lat="49.970545" lon="7.942200">
        <ele>84.764635</ele>
        <time>2022-01-08T23:49:43.735Z</time>
      </trkpt>
      <trkpt lat="49.970581" lon="7.941940">
        <ele>84.910267</ele>
        <time>2022-01-08T23:49:50.912Z</time>
      </trkpt>
      <trkpt lat="49.970628" lon="7.941885">
        <ele>84.960348</ele>
        <time>2022-01-08T23:49:53.359Z</time>
      </trkpt>
      <trkpt lat="49.970590" lon="7.941518">
        <ele>85.133045</ele>
        <time>2022-01-08T23:50:03.493Z</time>
      </trkpt>
      <trkpt lat="49.970273" lon="7.941619">
        <ele>85.335881</ele>
        <time>2022-01-08T23:50:12.965Z</time>
      </trkpt>
      <trkpt lat="49.969205" lon="7.942170">
        <ele>86.041238</ele>
        <time>2022-01-08T23:50:43.777Z</time>
      </trkpt>
      <trkpt lat="49.969187" lon="7.942069">
        <ele>86.083494</ele>
        <time>2022-01-08T23:50:45.342Z</time>
      </trkpt>
      <trkpt lat="49.969182" lon="7.941970">
        <ele>86.123532</ele>
        <time>2022-01-08T23:50:46.748Z</time>
      </trkpt>
      <trkpt lat="49.969142" lon="7.940711">
        <ele>85.893414</ele>
        <time>2022-01-08T23:51:03.501Z</time>
      </trkpt>
      <trkpt lat="49.969198" lon="7.938521">
        <ele>85.683197</ele>
        <time>2022-01-08T23:51:31.996Z</time>
      </trkpt>
      <trkpt lat="49.969220" lon="7.938367">
        <ele>85.743160</ele>
        <time>2022-01-08T23:51:34.247Z</time>
      </trkpt>
      <trkpt lat="49.969448" lon="7.936793">
        <ele>86.356439</ele>
        <time>2022-01-08T23:52:00.322Z</time>
      </trkpt>
      <trkpt lat="49.970074" lon="7.932649">
        <ele>89.654746</ele>
        <time>2022-01-08T23:53:19.962Z</time>
      </trkpt>
      <trkpt lat="49.970377" lon="7.930049">
        <ele>89.786530</ele>
        <time>2022-01-08T23:53:54.891Z</time>
      </trkpt>
      <trkpt lat="49.970509" lon="7.928695">
        <ele>89.468712</ele>
        <time>2022-01-08T23:54:12.816Z</time>
      </trkpt>
      <trkpt lat="49.970394" lon="7.927435">
        <ele>89.468932</ele>
        <time>2022-01-08T23:54:31.404Z</time>
      </trkpt>
      <trkpt lat="49.970301" lon="7.926638">
        <ele>89.645698</ele>
        <time>2022-01-08T23:54:44.128Z</time>
      </trkpt>
      <trkpt lat="49.970217" lon="7.926492">
        <ele>89.688446</ele>
        <time>2022-01-08T23:54:47.185Z</time>
      </trkpt>
      <trkpt lat="49.970049" lon="7.921764">
        <ele>90.481916</ele>
        <time>2022-01-08T23:55:59.153Z</time>
      </trkpt>
      <trkpt lat="49.969874" lon="7.916835">
        <ele>89.873314</ele>
        <time>2022-01-08T23:57:06.898Z</time>
      </trkpt>
      <trkpt lat="49.969884" lon="7.915218">
        <ele>89.337004</ele>
        <time>2022-01-08T23:57:27.641Z</time>
      </trkpt>
      <trkpt lat="49.969887" lon="7.914187">
        <ele>88.995064</ele>
        <time>2022-01-08T23:57:41.226Z</time>
      </trkpt>
      <trkpt lat="49.969907" lon="7.913843">
        <ele>89.062344</ele>
        <time>2022-01-08T23:57:45.913Z</time>
      </trkpt>
      <trkpt lat="49.969912" lon="7.913502">
        <ele>89.128879</ele>
        <time>2022-01-08T23:57:50.843Z</time>
      </trkpt>
      <trkpt lat="49.969940" lon="7.911532">
        <ele>89.513259</ele>
        <time>2022-01-08T23:58:21.939Z</time>
      </trkpt>
      <trkpt lat="49.969955" lon="7.910389">
        <ele>89.705476</ele>
        <time>2022-01-08T23:58:39.859Z</time>
      </trkpt>
      <trkpt lat="49.969962" lon="7.908435">
        <ele>89.969421</ele>
        <time>2022-01-08T23:59:08.542Z</time>
      </trkpt>
      <trkpt lat="49.969987" lon="7.906458">
        <ele>89.591801</ele>
        <time>2022-01-08T23:59:35.426Z</time>
      </trkpt>
      <trkpt lat="49.969998" lon="7.904941">
        <ele>89.115807</ele>
        <time>2022-01-08T23:59:55.480Z</time>
      </trkpt>
      <trkpt lat="49.970005" lon="7.903505">
        <ele>88.530231</ele>
        <time>2022-01-09T00:00:14.013Z</time>
      </trkpt>
      <trkpt lat="49.969991" lon="7.903091">
        <ele>88.361181</ele>
        <time>2022-01-09T00:00:19.292Z</time>
      </trkpt>
      <trkpt lat="49.970017" lon="7.902355">
        <ele>88.072157</ele>
        <time>2022-01-09T00:00:28.605Z</time>
      </trkpt>
      <trkpt lat="49.969943" lon="7.901618">
        <ele>87.781231</ele>
        <time>2022-01-09T00:00:38.433Z</time>
      </trkpt>
      <trkpt lat="49.969937" lon="7.901534">
        <ele>87.748268</ele>
        <time>2022-01-09T00:00:39.556Z</time>
      </trkpt>
      <trkpt lat="49.969910" lon="7.901199">
        <ele>87.616590</ele>
        <time>2022-01-09T00:00:43.781Z</time>
      </trkpt>
      <trkpt lat="49.969825" lon="7.900109">
        <ele>87.241223</ele>
        <time>2022-01-09T00:00:58.589Z</time>
      </trkpt>
      <trkpt lat="49.969772" lon="7.899076">
        <ele>87.293319</ele>
        <time>2022-01-09T00:01:14.079Z</time>
      </trkpt>
      <trkpt lat="49.969796" lon="7.899071">
        <ele>87.295212</ele>
        <time>2022-01-09T00:01:14.564Z</time>
      </trkpt>
      <trkpt lat="49.969847" lon="7.898996">
        <ele>87.300699</ele>
        <time>2022-01-09T00:01:16.062Z</time>
      </trkpt>
      <trkpt lat="49.969837" lon="7.898888">
        <ele>87.306184</ele>
        <time>2022-01-09T00:01:17.607Z</time>
      </trkpt>
      <trkpt lat="49.969761" lon="7.898840">
        <ele>87.312596</ele>
        <time>2022-01-09T00:01:19.572Z</time>
      </trkpt>
      <trkpt lat="49.969695" lon="7.897556">
        <ele>87.377865</ele>
        <time>2022-01-09T00:01:39.402Z</time>
      </trkpt>
      <trkpt lat="49.969672" lon="7.897126">
        <ele>87.406604</ele>
        <time>2022-01-09T00:01:45.939Z</time>
      </trkpt>
      <trkpt lat="49.969648" lon="7.896691">
        <ele>87.435684</ele>
        <time>2022-01-09T00:01:52.271Z</time>
      </trkpt>
      <trkpt lat="49.969615" lon="7.896019">
        <ele>87.480574</ele>
        <time>2022-01-09T00:02:02.801Z</time>
      </trkpt>
      <trkpt lat="49.969562" lon="7.894957">
        <ele>87.551522</ele>
        <time>2022-01-09T00:02:19.206Z</time>
      </trkpt>
      <trkpt lat="49.969603" lon="7.894767">
        <ele>87.539397</ele>
        <time>2022-01-09T00:02:22.013Z</time>
      </trkpt>
      <trkpt lat="49.969581" lon="7.894592">
        <ele>87.444820</ele>
        <time>2022-01-09T00:02:24.429Z</time>
      </trkpt>
      <trkpt lat="49.969416" lon="7.894239">
        <ele>87.213367</ele>
        <time>2022-01-09T00:02:30.537Z</time>
      </trkpt>
      <trkpt lat="49.969335" lon="7.893851">
        <ele>86.997001</ele>
        <time>2022-01-09T00:02:36.025Z</time>
      </trkpt>
      <trkpt lat="49.969299" lon="7.893606">
        <ele>86.863703</ele>
        <time>2022-01-09T00:02:39.195Z</time>
      </trkpt>
      <trkpt lat="49.969268" lon="7.893371">
        <ele>86.736463</ele>
        <time>2022-01-09T00:02:42.356Z</time>
      </trkpt>
      <trkpt lat="49.969243" lon="7.893119">
        <ele>86.601219</ele>
        <time>2022-01-09T00:02:45.555Z</time>
      </trkpt>
      <trkpt lat="49.969229" lon="7.892752">
        <ele>86.406217</ele>
        <time>2022-01-09T00:02:50.101Z</time>
      </trkpt>
      <trkpt lat="49.969204" lon="7.892524">
        <ele>86.283540</ele>
        <time>2022-01-09T00:02:52.811Z</time>
      </trkpt>
      <trkpt lat="49.969203" lon="7.892428">
        <ele>86.232614</ele>
        <time>2022-01-09T00:02:53.921Z</time>
      </trkpt>
      <trkpt lat="49.969229" lon="7.892228">
        <ele>86.124387</ele>
        <time>2022-01-09T00:02:57.308Z</time>
      </trkpt>
      <trkpt lat="49.969234" lon="7.892112">
        <ele>86.046170</ele>
        <time>2022-01-09T00:02:59.200Z</time>
      </trkpt>
      <trkpt lat="49.969214" lon="7.891896">
        <ele>85.811210</ele>
        <time>2022-01-09T00:03:02.636Z</time>
      </trkpt>
      <trkpt lat="49.969208" lon="7.891616">
        <ele>85.509574</ele>
        <time>2022-01-09T00:03:05.794Z</time>
      </trkpt>
      <trkpt lat="49.969201" lon="7.891296">
        <ele>85.164838</ele>
        <time>2022-01-09T00:03:09.292Z</time>
      </trkpt>
      <trkpt lat="49.969117" lon="7.890809">
        <ele>84.621970</ele>
        <time>2022-01-09T00:03:14.725Z</time>
      </trkpt>
      <trkpt lat="49.969018" lon="7.890767">
        <ele>84.450191</ele>
        <time>2022-01-09T00:03:16.520Z</time>
      </trkpt>
      <trkpt lat="49.968925" lon="7.890473">
        <ele>84.097437</ele>
        <time>2022-01-09T00:03:20.174Z</time>
      </trkpt>
      <trkpt lat="49.968904" lon="7.890357">
        <ele>83.967689</ele>
        <time>2022-01-09T00:03:21.541Z</time>
      </trkpt>
      <trkpt lat="49.968730" lon="7.888804">
        <ele>83.227521</ele>
        <time>2022-01-09T00:03:56.317Z</time>
      </trkpt>
      <trkpt lat="49.968716" lon="7.888686">
        <ele>83.253366</ele>
        <time>2022-01-09T00:03:59.179Z</time>
      </trkpt>
      <trkpt lat="49.968712" lon="7.888643">
        <ele>83.262723</ele>
        <time>2022-01-09T00:03:59.890Z</time>
      </trkpt>
      <trkpt lat="49.968684" lon="7.888319">
        <ele>83.333136</ele>
        <time>2022-01-09T00:04:04.608Z</time>
      </trkpt>
      <trkpt lat="49.968663" lon="7.886913">
        <ele>83.636050</ele>
        <time>2022-01-09T00:04:28.731Z</time>
      </trkpt>
      <trkpt lat="49.968716" lon="7.886166">
        <ele>83.982394</ele>
        <time>2022-01-09T00:04:42.668Z</time>
      </trkpt>
      <trkpt lat="49.968850" lon="7.885272">
        <ele>84.465847</ele>
        <time>2022-01-09T00:04:58.805Z</time>
      </trkpt>
      <trkpt lat="49.969463" lon="7.882818">
        <ele>85.556370</ele>
        <time>2022-01-09T00:05:38.475Z</time>
      </trkpt>
      <trkpt lat="49.969614" lon="7.882231">
        <ele>85.750402</ele>
        <time>2022-01-09T00:05:48.248Z</time>
      </trkpt>
      <trkpt lat="49.969802" lon="7.881498">
        <ele>85.992595</ele>
        <time>2022-01-09T00:06:00.886Z</time>
      </trkpt>
      <trkpt lat="49.970227" lon="7.879846">
        <ele>87.112725</ele>
        <time>2022-01-09T00:06:30.687Z</time>
      </trkpt>
      <trkpt lat="49.971083" lon="7.876594">
        <ele>89.386041</ele>
        <time>2022-01-09T00:07:31.251Z</time>
      </trkpt>
      <trkpt lat="49.971927" lon="7.873713">
        <ele>90.299772</ele>
        <time>2022-01-09T00:08:20.170Z</time>
      </trkpt>
      <trkpt lat="49.972819" lon="7.871354">
        <ele>89.584122</ele>
        <time>2022-01-09T00:08:56.708Z</time>
      </trkpt>
      <trkpt lat="49.974105" lon="7.868341">
        <ele>86.706299</ele>
        <time>2022-01-09T00:09:40.103Z</time>
      </trkpt>
      <trkpt lat="49.974680" lon="7.867331">
        <ele>85.571980</ele>
        <time>2022-01-09T00:09:56.062Z</time>
      </trkpt>
      <trkpt lat="49.974968" lon="7.866950">
        <ele>85.077544</ele>
        <time>2022-01-09T00:10:03.230Z</time>
      </trkpt>
      <trkpt lat="49.975097" lon="7.866790">
        <ele>84.962869</ele>
        <time>2022-01-09T00:10:06.465Z</time>
      </trkpt>
      <trkpt lat="49.976027" lon="7.865967">
        <ele>84.416890</ele>
        <time>2022-01-09T00:10:27.717Z</time>
      </trkpt>
      <trkpt lat="49.977301" lon="7.865234">
        <ele>84.257285</ele>
        <time>2022-01-09T00:10:58.515Z</time>
      </trkpt>
      <trkpt lat="49.977348" lon="7.865326">
        <ele>84.272010</ele>
        <time>2022-01-09T00:11:00.737Z</time>
      </trkpt>
      <trkpt lat="49.977404" lon="7.865266">
        <ele>84.285263</ele>
        <time>2022-01-09T00:11:02.847Z</time>
      </trkpt>
      <trkpt lat="49.978522" lon="7.863980">
        <ele>84.587137</ele>
        <time>2022-01-09T00:11:35.275Z</time>
      </trkpt>
      <trkpt lat="49.978867" lon="7.863199">
        <ele>84.744099</ele>
        <time>2022-01-09T00:11:49.879Z</time>
      </trkpt>
      <trkpt lat="49.979593" lon="7.862575">
        <ele>84.825742</ele>
        <time>2022-01-09T00:12:09.611Z</time>
      </trkpt>
      <trkpt lat="49.980693" lon="7.861801">
        <ele>83.932358</ele>
        <time>2022-01-09T00:12:33.583Z</time>
      </trkpt>
      <trkpt lat="49.981668" lon="7.861271">
        <ele>82.876270</ele>
        <time>2022-01-09T00:12:52.962Z</time>
      </trkpt>
      <trkpt lat="49.982454" lon="7.860953">
        <ele>81.862344</ele>
        <time>2022-01-09T00:13:07.750Z</time>
      </trkpt>
      <trkpt lat="49.983246" lon="7.860725">
        <ele>81.059315</ele>
        <time>2022-01-09T00:13:23.306Z</time>
      </trkpt>
      <trkpt lat="49.984635" lon="7.860405">
        <ele>80.030082</ele>
        <time>2022-01-09T00:13:51.727Z</time>
      </trkpt>
      <trkpt lat="49.985404" lon="7.860342">
        <ele>79.950979</ele>
        <time>2022-01-09T00:14:07.577Z</time>
      </trkpt>
      <trkpt lat="49.985967" lon="7.860388">
        <ele>79.893794</ele>
        <time>2022-01-09T00:14:24.147Z</time>
      </trkpt>
      <trkpt lat="49.986368" lon="7.860441">
        <ele>79.852973</ele>
        <time>2022-01-09T00:14:36.377Z</time>
      </trkpt>
      <trkpt lat="49.987095" lon="7.860473">
        <ele>80.350809</ele>
        <time>2022-01-09T00:14:54.140Z</time>
      </trkpt>
      <trkpt lat="49.988003" lon="7.860321">
        <ele>81.045101</ele>
        <time>2022-01-09T00:15:18.411Z</time>
      </trkpt>
      <trkpt lat="49.988731" lon="7.859948">
        <ele>81.372837</ele>
        <time>2022-01-09T00:15:37.751Z</time>
      </trkpt>
      <trkpt lat="49.989689" lon="7.859777">
        <ele>81.654329</ele>
        <time>2022-01-09T00:15:59.799Z</time>
      </trkpt>
      <trkpt lat="49.992500" lon="7.859553">
        <ele>81.159286</ele>
        <time>2022-01-09T00:16:58.810Z</time>
      </trkpt>
      <trkpt lat="49.993653" lon="7.859442">
        <ele>81.167380</ele>
        <time>2022-01-09T00:17:25.800Z</time>
      </trkpt>
      <trkpt lat="49.994440" lon="7.859211">
        <ele>81.301135</ele>
        <time>2022-01-09T00:17:43.966Z</time>
      </trkpt>
      <trkpt lat="49.995045" lon="7.858938">
        <ele>81.406340</ele>
        <time>2022-01-09T00:17:58.242Z</time>
      </trkpt>
      <trkpt lat="49.995472" lon="7.858695">
        <ele>81.553335</ele>
        <time>2022-01-09T00:18:08.520Z</time>
      </trkpt>
      <trkpt lat="49.998772" lon="7.856752">
        <ele>83.568682</ele>
        <time>2022-01-09T00:19:36.870Z</time>
      </trkpt>
      <trkpt lat="50.000073" lon="7.856230">
        <ele>83.356975</ele>
        <time>2022-01-09T00:20:05.885Z</time>
      </trkpt>
      <trkpt lat="50.001182" lon="7.855913">
        <ele>82.714576</ele>
        <time>2022-01-09T00:20:28.273Z</time>
      </trkpt>
      <trkpt lat="50.001994" lon="7.855894">
        <ele>82.098527</ele>
        <time>2022-01-09T00:20:44.020Z</time>
      </trkpt>
      <trkpt lat="50.002450" lon="7.855885">
        <ele>82.063116</ele>
        <time>2022-01-09T00:20:52.936Z</time>
      </trkpt>
      <trkpt lat="50.002727" lon="7.855970">
        <ele>82.210169</ele>
        <time>2022-01-09T00:20:59.049Z</time>
      </trkpt>
      <trkpt lat="50.003609" lon="7.856472">
        <ele>82.699326</ele>
        <time>2022-01-09T00:21:22.848Z</time>
      </trkpt>
      <trkpt lat="50.003681" lon="7.855237">
        <ele>83.348333</ele>
        <time>2022-01-09T00:21:51.205Z</time>
      </trkpt>
      <trkpt lat="50.004253" lon="7.855112">
        <ele>83.941193</ele>
        <time>2022-01-09T00:22:08.099Z</time>
      </trkpt>
      <trkpt lat="50.005271" lon="7.854861">
        <ele>84.380939</ele>
        <time>2022-01-09T00:22:33.337Z</time>
      </trkpt>
      <trkpt lat="50.005408" lon="7.854828">
        <ele>84.208502</ele>
        <time>2022-01-09T00:22:35.969Z</time>
      </trkpt>
      <trkpt lat="50.006011" lon="7.854811">
        <ele>83.458338</ele>
        <time>2022-01-09T00:22:46.778Z</time>
      </trkpt>
      <trkpt lat="50.007721" lon="7.854094">
        <ele>81.566994</ele>
        <time>2022-01-09T00:23:18.420Z</time>
      </trkpt>
      <trkpt lat="50.008265" lon="7.853677">
        <ele>81.004206</ele>
        <time>2022-01-09T00:23:31.634Z</time>
      </trkpt>
      <trkpt lat="50.008434" lon="7.853425">
        <ele>80.811954</ele>
        <time>2022-01-09T00:23:37.621Z</time>
      </trkpt>
      <trkpt lat="50.009030" lon="7.852572">
        <ele>80.776641</ele>
        <time>2022-01-09T00:23:56.730Z</time>
      </trkpt>
      <trkpt lat="50.009684" lon="7.852073">
        <ele>80.744877</ele>
        <time>2022-01-09T00:24:12.856Z</time>
      </trkpt>
      <trkpt lat="50.010334" lon="7.851586">
        <ele>80.216256</ele>
        <time>2022-01-09T00:24:26.994Z</time>
      </trkpt>
      <trkpt lat="50.010854" lon="7.851212">
        <ele>79.609080</ele>
        <time>2022-01-09T00:24:37.442Z</time>
      </trkpt>
      <trkpt lat="50.011026" lon="7.851033">
        <ele>79.389763</ele>
        <time>2022-01-09T00:24:41.151Z</time>
      </trkpt>
      <trkpt lat="50.011705" lon="7.850402">
        <ele>79.015465</ele>
        <time>2022-01-09T00:25:01.673Z</time>
      </trkpt>
      <trkpt lat="50.011878" lon="7.850235">
        <ele>79.161299</ele>
        <time>2022-01-09T00:25:07.961Z</time>
      </trkpt>
      <trkpt lat="50.012329" lon="7.849697">
        <ele>79.568373</ele>
        <time>2022-01-09T00:25:26.444Z</time>
      </trkpt>
      <trkpt lat="50.012619" lon="7.849187">
        <ele>79.881857</ele>
        <time>2022-01-09T00:25:41.750Z</time>
      </trkpt>
      <trkpt lat="50.012747" lon="7.848880">
        <ele>80.050318</ele>
        <time>2022-01-09T00:25:50.102Z</time>
      </trkpt>
      <trkpt lat="50.013112" lon="7.848081">
        <ele>80.767009</ele>
        <time>2022-01-09T00:26:13.447Z</time>
      </trkpt>
      <trkpt lat="50.015890" lon="7.840464">
        <ele>86.967268</ele>
        <time>2022-01-09T00:29:22.902Z</time>
      </trkpt>
      <trkpt lat="50.017260" lon="7.836567">
        <ele>88.448731</ele>
        <time>2022-01-09T00:30:50.393Z</time>
      </trkpt>
      <trkpt lat="50.019191" lon="7.831361">
        <ele>91.329034</ele>
        <time>2022-01-09T00:32:58.807Z</time>
      </trkpt>
      <trkpt lat="50.019386" lon="7.831112">
        <ele>91.088766</ele>
        <time>2022-01-09T00:33:05.412Z</time>
      </trkpt>
      <trkpt lat="50.020085" lon="7.829827">
        <ele>90.058287</ele>
        <time>2022-01-09T00:33:32.500Z</time>
      </trkpt>
      <trkpt lat="50.021787" lon="7.827171">
        <ele>86.162997</ele>
        <time>2022-01-09T00:34:30.858Z</time>
      </trkpt>
      <trkpt lat="50.022381" lon="7.826090">
        <ele>85.408603</ele>
        <time>2022-01-09T00:34:55.318Z</time>
      </trkpt>
      <trkpt lat="50.022852" lon="7.825154">
        <ele>85.139612</ele>
        <time>2022-01-09T00:35:17.884Z</time>
      </trkpt>
      <trkpt lat="50.023453" lon="7.823723">
        <ele>85.483680</ele>
        <time>2022-01-09T00:35:52.077Z</time>
      </trkpt>
      <trkpt lat="50.024616" lon="7.820581">
        <ele>86.056994</ele>
        <time>2022-01-09T00:37:02.911Z</time>
      </trkpt>
      <trkpt lat="50.025166" lon="7.819320">
        <ele>85.823456</ele>
        <time>2022-01-09T00:37:31.121Z</time>
      </trkpt>
      <trkpt lat="50.025565" lon="7.818544">
        <ele>85.671161</ele>
        <time>2022-01-09T00:37:48.737Z</time>
      </trkpt>
      <trkpt lat="50.026055" lon="7.817835">
        <ele>84.883903</ele>
        <time>2022-01-09T00:38:06.426Z</time>
      </trkpt>
      <trkpt lat="50.026832" lon="7.816969">
        <ele>83.713416</ele>
        <time>2022-01-09T00:38:30.202Z</time>
      </trkpt>
      <trkpt lat="50.027987" lon="7.815843">
        <ele>82.283090</ele>
        <time>2022-01-09T00:39:04.830Z</time>
      </trkpt>
      <trkpt lat="50.028910" lon="7.815085">
        <ele>81.758622</ele>
        <time>2022-01-09T00:39:33.271Z</time>
      </trkpt>
      <trkpt lat="50.031432" lon="7.811958">
        <ele>83.582376</ele>
        <time>2022-01-09T00:41:16.249Z</time>
      </trkpt>
      <trkpt lat="50.031874" lon="7.811220">
        <ele>84.005807</ele>
        <time>2022-01-09T00:41:39.009Z</time>
      </trkpt>
      <trkpt lat="50.032417" lon="7.810298">
        <ele>84.530724</ele>
        <time>2022-01-09T00:42:06.349Z</time>
      </trkpt>
      <trkpt lat="50.033209" lon="7.809113">
        <ele>83.557661</ele>
        <time>2022-01-09T00:42:34.649Z</time>
      </trkpt>
      <trkpt lat="50.033222" lon="7.809095">
        <ele>83.531295</ele>
        <time>2022-01-09T00:42:35.008Z</time>
      </trkpt>
      <trkpt lat="50.033482" lon="7.808791">
        <ele>83.038524</ele>
        <time>2022-01-09T00:42:57.649Z</time>
      </trkpt>
      <trkpt lat="50.033514" lon="7.808698">
        <ele>82.935824</ele>
        <time>2022-01-09T00:42:59.068Z</time>
      </trkpt>
      <trkpt lat="50.034096" lon="7.808059">
        <ele>81.891656</ele>
        <time>2022-01-09T00:43:16.263Z</time>
      </trkpt>
      <trkpt lat="50.034937" lon="7.807173">
        <ele>80.697431</ele>
        <time>2022-01-09T00:43:40.633Z</time>
      </trkpt>
      <trkpt lat="50.035164" lon="7.806863">
        <ele>80.342318</ele>
        <time>2022-01-09T00:43:49.101Z</time>
      </trkpt>
      <trkpt lat="50.035636" lon="7.806343">
        <ele>80.091464</ele>
        <time>2022-01-09T00:44:02.886Z</time>
      </trkpt>
      <trkpt lat="50.036025" lon="7.805840">
        <ele>80.579537</ele>
        <time>2022-01-09T00:44:15.535Z</time>
      </trkpt>
      <trkpt lat="50.036648" lon="7.804843">
        <ele>81.441869</ele>
        <time>2022-01-09T00:44:39.190Z</time>
      </trkpt>
      <trkpt lat="50.036998" lon="7.804138">
        <ele>82.181281</ele>
        <time>2022-01-09T00:44:56.614Z</time>
      </trkpt>
      <trkpt lat="50.037760" lon="7.802150">
        <ele>84.250383</ele>
        <time>2022-01-09T00:45:39.649Z</time>
      </trkpt>
      <trkpt lat="50.040669" lon="7.794291">
        <ele>81.749477</ele>
        <time>2022-01-09T00:47:39.316Z</time>
      </trkpt>
      <trkpt lat="50.042590" lon="7.790144">
        <ele>78.911185</ele>
        <time>2022-01-09T00:48:43.538Z</time>
      </trkpt>
      <trkpt lat="50.042789" lon="7.790249">
        <ele>78.736064</ele>
        <time>2022-01-09T00:48:47.475Z</time>
      </trkpt>
      <trkpt lat="50.042953" lon="7.789941">
        <ele>78.521910</ele>
        <time>2022-01-09T00:48:52.253Z</time>
      </trkpt>
      <trkpt lat="50.042978" lon="7.789884">
        <ele>78.484964</ele>
        <time>2022-01-09T00:48:53.738Z</time>
      </trkpt>
      <trkpt lat="50.043153" lon="7.789474">
        <ele>78.221460</ele>
        <time>2022-01-09T00:48:59.868Z</time>
      </trkpt>
      <trkpt lat="50.043629" lon="7.788444">
        <ele>77.571554</ele>
        <time>2022-01-09T00:49:15.949Z</time>
      </trkpt>
      <trkpt lat="50.043773" lon="7.788163">
        <ele>77.689925</ele>
        <time>2022-01-09T00:49:21.173Z</time>
      </trkpt>
      <trkpt lat="50.044015" lon="7.787690">
        <ele>77.889050</ele>
        <time>2022-01-09T00:49:31.010Z</time>
      </trkpt>
      <trkpt lat="50.044385" lon="7.786760">
        <ele>78.249266</ele>
        <time>2022-01-09T00:49:48.362Z</time>
      </trkpt>
      <trkpt lat="50.044447" lon="7.786468">
        <ele>78.350530</ele>
        <time>2022-01-09T00:49:53.594Z</time>
      </trkpt>
      <trkpt lat="50.044538" lon="7.786203">
        <ele>78.449475</ele>
        <time>2022-01-09T00:49:58.501Z</time>
      </trkpt>
      <trkpt lat="50.044979" lon="7.785374">
        <ele>78.968326</ele>
        <time>2022-01-09T00:50:16.870Z</time>
      </trkpt>
      <trkpt lat="50.045678" lon="7.783876">
        <ele>79.879262</ele>
        <time>2022-01-09T00:50:46.988Z</time>
      </trkpt>
      <trkpt lat="50.046521" lon="7.782508">
        <ele>80.067271</ele>
        <time>2022-01-09T00:51:15.040Z</time>
      </trkpt>
      <trkpt lat="50.046850" lon="7.782014">
        <ele>80.137844</ele>
        <time>2022-01-09T00:51:24.886Z</time>
      </trkpt>
      <trkpt lat="50.047917" lon="7.780109">
        <ele>79.877637</ele>
        <time>2022-01-09T00:51:59.578Z</time>
      </trkpt>
      <trkpt lat="50.048153" lon="7.779752">
        <ele>79.825597</ele>
        <time>2022-01-09T00:52:06.804Z</time>
      </trkpt>
      <trkpt lat="50.048656" lon="7.778705">
        <ele>79.815973</ele>
        <time>2022-01-09T00:52:25.524Z</time>
      </trkpt>
      <trkpt lat="50.049610" lon="7.777170">
        <ele>79.839152</ele>
        <time>2022-01-09T00:52:56.171Z</time>
      </trkpt>
      <trkpt lat="50.051130" lon="7.775227">
        <ele>80.060567</ele>
        <time>2022-01-09T00:53:40.372Z</time>
      </trkpt>
      <trkpt lat="50.051197" lon="7.775150">
        <ele>80.076947</ele>
        <time>2022-01-09T00:53:42.522Z</time>
      </trkpt>
      <trkpt lat="50.052245" lon="7.773916">
        <ele>80.201595</ele>
        <time>2022-01-09T00:54:13.229Z</time>
      </trkpt>
      <trkpt lat="50.052314" lon="7.773816">
        <ele>80.164285</ele>
        <time>2022-01-09T00:54:15.281Z</time>
      </trkpt>
      <trkpt lat="50.052339" lon="7.773666">
        <ele>80.124895</ele>
        <time>2022-01-09T00:54:17.838Z</time>
      </trkpt>
      <trkpt lat="50.053173" lon="7.772753">
        <ele>79.721358</ele>
        <time>2022-01-09T00:54:38.850Z</time>
      </trkpt>
      <trkpt lat="50.054153" lon="7.771827">
        <ele>78.949804</ele>
        <time>2022-01-09T00:55:00.856Z</time>
      </trkpt>
      <trkpt lat="50.054650" lon="7.771438">
        <ele>78.504879</ele>
        <time>2022-01-09T00:55:11.709Z</time>
      </trkpt>
      <trkpt lat="50.055417" lon="7.770939">
        <ele>78.186800</ele>
        <time>2022-01-09T00:55:28.837Z</time>
      </trkpt>
      <trkpt lat="50.055974" lon="7.770656">
        <ele>78.259466</ele>
        <time>2022-01-09T00:55:42.045Z</time>
      </trkpt>
      <trkpt lat="50.056500" lon="7.770439">
        <ele>78.326954</ele>
        <time>2022-01-09T00:55:55.571Z</time>
      </trkpt>
      <trkpt lat="50.057314" lon="7.770160">
        <ele>78.397769</ele>
        <time>2022-01-09T00:56:15.350Z</time>
      </trkpt>
      <trkpt lat="50.057743" lon="7.770010">
        <ele>78.425802</ele>
        <time>2022-01-09T00:56:25.414Z</time>
      </trkpt>
      <trkpt lat="50.057842" lon="7.769980">
        <ele>78.432232</ele>
        <time>2022-01-09T00:56:27.716Z</time>
      </trkpt>
      <trkpt lat="50.058752" lon="7.769677">
        <ele>78.351916</ele>
        <time>2022-01-09T00:56:47.780Z</time>
      </trkpt>
      <trkpt lat="50.059731" lon="7.769586">
        <ele>77.770477</ele>
        <time>2022-01-09T00:57:07.300Z</time>
      </trkpt>
      <trkpt lat="50.059873" lon="7.769580">
        <ele>77.686261</ele>
        <time>2022-01-09T00:57:10.106Z</time>
      </trkpt>
      <trkpt lat="50.059939" lon="7.769577">
        <ele>77.647116</ele>
        <time>2022-01-09T00:57:11.480Z</time>
      </trkpt>
      <trkpt lat="50.060054" lon="7.769572">
        <ele>77.578911</ele>
        <time>2022-01-09T00:57:13.877Z</time>
      </trkpt>
      <trkpt lat="50.060568" lon="7.769552">
        <ele>77.323516</ele>
        <time>2022-01-09T00:57:24.691Z</time>
      </trkpt>
      <trkpt lat="50.060787" lon="7.769527">
        <ele>77.240104</ele>
        <time>2022-01-09T00:57:29.362Z</time>
      </trkpt>
      <trkpt lat="50.063322" lon="7.769359">
        <ele>76.491882</ele>
        <time>2022-01-09T00:58:25.669Z</time>
      </trkpt>
      <trkpt lat="50.065099" lon="7.769377">
        <ele>76.399074</ele>
        <time>2022-01-09T00:59:06.359Z</time>
      </trkpt>
      <trkpt lat="50.067902" lon="7.770379">
        <ele>76.423746</ele>
        <time>2022-01-09T01:00:14.890Z</time>
      </trkpt>
      <trkpt lat="50.068817" lon="7.770505">
        <ele>75.919802</ele>
        <time>2022-01-09T01:00:34.100Z</time>
      </trkpt>
      <trkpt lat="50.070199" lon="7.770575">
        <ele>75.103568</ele>
        <time>2022-01-09T01:01:02.052Z</time>
      </trkpt>
      <trkpt lat="50.072553" lon="7.771105">
        <ele>74.580795</ele>
        <time>2022-01-09T01:01:55.107Z</time>
      </trkpt>
      <trkpt lat="50.073739" lon="7.771102">
        <ele>75.968396</ele>
        <time>2022-01-09T01:02:26.951Z</time>
      </trkpt>
      <trkpt lat="50.074661" lon="7.770859">
        <ele>77.469203</ele>
        <time>2022-01-09T01:02:56.259Z</time>
      </trkpt>
      <trkpt lat="50.075489" lon="7.770434">
        <ele>80.172317</ele>
        <time>2022-01-09T01:03:27.365Z</time>
      </trkpt>
      <trkpt lat="50.076329" lon="7.769793">
        <ele>83.052590</ele>
        <time>2022-01-09T01:04:02.283Z</time>
      </trkpt>
      <trkpt lat="50.078901" lon="7.766966">
        <ele>90.329659</ele>
        <time>2022-01-09T01:05:48.493Z</time>
      </trkpt>
      <trkpt lat="50.080485" lon="7.764947">
        <ele>89.483075</ele>
        <time>2022-01-09T01:06:30.513Z</time>
      </trkpt>
      <trkpt lat="50.081785" lon="7.763526">
        <ele>87.344627</ele>
        <time>2022-01-09T01:06:59.893Z</time>
      </trkpt>
      <trkpt lat="50.082582" lon="7.762707">
        <ele>87.339598</ele>
        <time>2022-01-09T01:07:21.500Z</time>
      </trkpt>
      <trkpt lat="50.083443" lon="7.761620">
        <ele>88.224061</ele>
        <time>2022-01-09T01:07:52.872Z</time>
      </trkpt>
      <trkpt lat="50.085936" lon="7.757922">
        <ele>91.003318</ele>
        <time>2022-01-09T01:09:23.570Z</time>
      </trkpt>
      <trkpt lat="50.088748" lon="7.754082">
        <ele>86.226077</ele>
        <time>2022-01-09T01:10:32.034Z</time>
      </trkpt>
      <trkpt lat="50.094007" lon="7.746244">
        <ele>78.423387</ele>
        <time>2022-01-09T01:12:51.730Z</time>
      </trkpt>
      <trkpt lat="50.095258" lon="7.744878">
        <ele>76.576276</ele>
        <time>2022-01-09T01:13:20.108Z</time>
      </trkpt>
      <trkpt lat="50.096106" lon="7.744185">
        <ele>75.972110</ele>
        <time>2022-01-09T01:13:38.867Z</time>
      </trkpt>
      <trkpt lat="50.097590" lon="7.743044">
        <ele>75.625983</ele>
        <time>2022-01-09T01:14:15.192Z</time>
      </trkpt>
      <trkpt lat="50.098647" lon="7.742121">
        <ele>75.816376</ele>
        <time>2022-01-09T01:14:43.582Z</time>
      </trkpt>
      <trkpt lat="50.099478" lon="7.741146">
        <ele>76.002305</ele>
        <time>2022-01-09T01:15:07.778Z</time>
      </trkpt>
      <trkpt lat="50.100614" lon="7.739447">
        <ele>76.097924</ele>
        <time>2022-01-09T01:15:43.208Z</time>
      </trkpt>
      <trkpt lat="50.101380" lon="7.738028">
        <ele>76.013423</ele>
        <time>2022-01-09T01:16:08.943Z</time>
      </trkpt>
      <trkpt lat="50.102289" lon="7.736765">
        <ele>75.917682</ele>
        <time>2022-01-09T01:16:35.201Z</time>
      </trkpt>
      <trkpt lat="50.102295" lon="7.736618">
        <ele>75.910253</ele>
        <time>2022-01-09T01:16:37.328Z</time>
      </trkpt>
      <trkpt lat="50.102234" lon="7.736534">
        <ele>75.903853</ele>
        <time>2022-01-09T01:16:39.112Z</time>
      </trkpt>
      <trkpt lat="50.102171" lon="7.736344">
        <ele>75.893066</ele>
        <time>2022-01-09T01:16:42.117Z</time>
      </trkpt>
      <trkpt lat="50.102907" lon="7.734882">
        <ele>76.105618</ele>
        <time>2022-01-09T01:17:09.649Z</time>
      </trkpt>
      <trkpt lat="50.103384" lon="7.734044">
        <ele>76.255457</ele>
        <time>2022-01-09T01:17:26.567Z</time>
      </trkpt>
      <trkpt lat="50.104275" lon="7.732705">
        <ele>76.275583</ele>
        <time>2022-01-09T01:17:54.518Z</time>
      </trkpt>
      <trkpt lat="50.104674" lon="7.732167">
        <ele>76.283059</ele>
        <time>2022-01-09T01:18:05.752Z</time>
      </trkpt>
      <trkpt lat="50.105477" lon="7.731073">
        <ele>76.260173</ele>
        <time>2022-01-09T01:18:29.019Z</time>
      </trkpt>
      <trkpt lat="50.106740" lon="7.729389">
        <ele>76.298233</ele>
        <time>2022-01-09T01:19:06.904Z</time>
      </trkpt>
      <trkpt lat="50.107166" lon="7.728784">
        <ele>76.334830</ele>
        <time>2022-01-09T01:19:19.833Z</time>
      </trkpt>
      <trkpt lat="50.107942" lon="7.727768">
        <ele>76.254172</ele>
        <time>2022-01-09T01:19:42.136Z</time>
      </trkpt>
      <trkpt lat="50.108313" lon="7.727279">
        <ele>76.180432</ele>
        <time>2022-01-09T01:19:52.569Z</time>
      </trkpt>
      <trkpt lat="50.108957" lon="7.726386">
        <ele>75.981952</ele>
        <time>2022-01-09T01:20:11.164Z</time>
      </trkpt>
      <trkpt lat="50.109051" lon="7.726261">
        <ele>75.925631</ele>
        <time>2022-01-09T01:20:13.755Z</time>
      </trkpt>
      <trkpt lat="50.109578" lon="7.725572">
        <ele>75.612100</ele>
        <time>2022-01-09T01:20:28.156Z</time>
      </trkpt>
      <trkpt lat="50.109630" lon="7.725502">
        <ele>75.580782</ele>
        <time>2022-01-09T01:20:29.625Z</time>
      </trkpt>
      <trkpt lat="50.111523" lon="7.722959">
        <ele>74.111392</ele>
        <time>2022-01-09T01:21:19.352Z</time>
      </trkpt>
      <trkpt lat="50.112435" lon="7.721770">
        <ele>74.553660</ele>
        <time>2022-01-09T01:21:46.594Z</time>
      </trkpt>
      <trkpt lat="50.113448" lon="7.720506">
        <ele>75.477466</ele>
        <time>2022-01-09T01:22:20.988Z</time>
      </trkpt>
      <trkpt lat="50.114003" lon="7.719936">
        <ele>76.148760</ele>
        <time>2022-01-09T01:22:39.192Z</time>
      </trkpt>
      <trkpt lat="50.114553" lon="7.719505">
        <ele>76.594610</ele>
        <time>2022-01-09T01:22:54.710Z</time>
      </trkpt>
      <trkpt lat="50.115169" lon="7.719227">
        <ele>76.589324</ele>
        <time>2022-01-09T01:23:09.626Z</time>
      </trkpt>
      <trkpt lat="50.115735" lon="7.719120">
        <ele>76.584624</ele>
        <time>2022-01-09T01:23:21.695Z</time>
      </trkpt>
      <trkpt lat="50.116397" lon="7.719136">
        <ele>76.452606</ele>
        <time>2022-01-09T01:23:35.341Z</time>
      </trkpt>
      <trkpt lat="50.116993" lon="7.719308">
        <ele>76.137807</ele>
        <time>2022-01-09T01:23:47.420Z</time>
      </trkpt>
      <trkpt lat="50.117517" lon="7.719584">
        <ele>75.850555</ele>
        <time>2022-01-09T01:23:58.673Z</time>
      </trkpt>
      <trkpt lat="50.118046" lon="7.720000">
        <ele>75.598962</ele>
        <time>2022-01-09T01:24:11.024Z</time>
      </trkpt>
      <trkpt lat="50.118431" lon="7.720410">
        <ele>75.487216</ele>
        <time>2022-01-09T01:24:21.119Z</time>
      </trkpt>
      <trkpt lat="50.118773" lon="7.720873">
        <ele>75.378662</ele>
        <time>2022-01-09T01:24:30.943Z</time>
      </trkpt>
      <trkpt lat="50.119314" lon="7.721794">
        <ele>75.146094</ele>
        <time>2022-01-09T01:24:48.036Z</time>
      </trkpt>
      <trkpt lat="50.119454" lon="7.721884">
        <ele>75.059379</ele>
        <time>2022-01-09T01:24:51.336Z</time>
      </trkpt>
      <trkpt lat="50.119860" lon="7.722604">
        <ele>74.707321</ele>
        <time>2022-01-09T01:25:04.551Z</time>
      </trkpt>
      <trkpt lat="50.120245" lon="7.723432">
        <ele>74.331774</ele>
        <time>2022-01-09T01:25:18.254Z</time>
      </trkpt>
      <trkpt lat="50.121039" lon="7.725803">
        <ele>73.185895</ele>
        <time>2022-01-09T01:25:53.618Z</time>
      </trkpt>
      <trkpt lat="50.121624" lon="7.727079">
        <ele>73.036726</ele>
        <time>2022-01-09T01:26:15.964Z</time>
      </trkpt>
      <trkpt lat="50.122226" lon="7.727995">
        <ele>73.140621</ele>
        <time>2022-01-09T01:26:36.297Z</time>
      </trkpt>
      <trkpt lat="50.124518" lon="7.730895">
        <ele>74.265396</ele>
        <time>2022-01-09T01:27:51.206Z</time>
      </trkpt>
      <trkpt lat="50.125599" lon="7.732587">
        <ele>74.192070</ele>
        <time>2022-01-09T01:28:25.750Z</time>
      </trkpt>
      <trkpt lat="50.127286" lon="7.734775">
        <ele>73.305630</ele>
        <time>2022-01-09T01:29:12.981Z</time>
      </trkpt>
      <trkpt lat="50.128000" lon="7.735673">
        <ele>72.988859</ele>
        <time>2022-01-09T01:29:32.735Z</time>
      </trkpt>
      <trkpt lat="50.128718" lon="7.736388">
        <ele>73.354929</ele>
        <time>2022-01-09T01:29:51.331Z</time>
      </trkpt>
      <trkpt lat="50.129550" lon="7.737233">
        <ele>74.237420</ele>
        <time>2022-01-09T01:30:18.436Z</time>
      </trkpt>
      <trkpt lat="50.130069" lon="7.737430">
        <ele>76.035661</ele>
        <time>2022-01-09T01:30:36.848Z</time>
      </trkpt>
      <trkpt lat="50.130402" lon="7.737331">
        <ele>77.176912</ele>
        <time>2022-01-09T01:30:51.192Z</time>
      </trkpt>
      <trkpt lat="50.131166" lon="7.736636">
        <ele>79.995419</ele>
        <time>2022-01-09T01:31:26.590Z</time>
      </trkpt>
      <trkpt lat="50.131621" lon="7.736369">
        <ele>80.954947</ele>
        <time>2022-01-09T01:31:45.056Z</time>
      </trkpt>
      <trkpt lat="50.133092" lon="7.735760">
        <ele>84.236704</ele>
        <time>2022-01-09T01:32:26.132Z</time>
      </trkpt>
      <trkpt lat="50.133696" lon="7.735588">
        <ele>85.975721</ele>
        <time>2022-01-09T01:32:41.087Z</time>
      </trkpt>
      <trkpt lat="50.134731" lon="7.735328">
        <ele>90.333976</ele>
        <time>2022-01-09T01:33:23.314Z</time>
      </trkpt>
      <trkpt lat="50.135038" lon="7.735110">
        <ele>93.792214</ele>
        <time>2022-01-09T01:33:44.194Z</time>
      </trkpt>
      <trkpt lat="50.135323" lon="7.734718">
        <ele>97.687624</ele>
        <time>2022-01-09T01:34:12.359Z</time>
      </trkpt>
      <trkpt lat="50.135537" lon="7.734225">
        <ele>101.600456</ele>
        <time>2022-01-09T01:34:41.360Z</time>
      </trkpt>
      <trkpt lat="50.135847" lon="7.732416">
        <ele>109.776377</ele>
        <time>2022-01-09T01:36:02.362Z</time>
      </trkpt>
      <trkpt lat="50.136580" lon="7.728345">
        <ele>111.142846</ele>
        <time>2022-01-09T01:37:03.165Z</time>
      </trkpt>
      <trkpt lat="50.136656" lon="7.728010">
        <ele>110.425942</ele>
        <time>2022-01-09T01:37:06.436Z</time>
      </trkpt>
      <trkpt lat="50.136760" lon="7.727619">
        <ele>107.580159</ele>
        <time>2022-01-09T01:37:10.306Z</time>
      </trkpt>
      <trkpt lat="50.137421" lon="7.726091">
        <ele>95.187880</ele>
        <time>2022-01-09T01:37:26.760Z</time>
      </trkpt>
      <trkpt lat="50.138182" lon="7.724932">
        <ele>86.320294</ele>
        <time>2022-01-09T01:37:41.750Z</time>
      </trkpt>
      <trkpt lat="50.138407" lon="7.724639">
        <ele>84.144311</ele>
        <time>2022-01-09T01:37:46.127Z</time>
      </trkpt>
      <trkpt lat="50.139046" lon="7.723777">
        <ele>78.360678</ele>
        <time>2022-01-09T01:37:59.669Z</time>
      </trkpt>
      <trkpt lat="50.140001" lon="7.722553">
        <ele>76.248457</ele>
        <time>2022-01-09T01:38:23.279Z</time>
      </trkpt>
      <trkpt lat="50.140343" lon="7.722296">
        <ele>75.599702</ele>
        <time>2022-01-09T01:38:31.391Z</time>
      </trkpt>
      <trkpt lat="50.140937" lon="7.722002">
        <ele>75.363625</ele>
        <time>2022-01-09T01:38:44.936Z</time>
      </trkpt>
      <trkpt lat="50.142296" lon="7.721658">
        <ele>75.205230</ele>
        <time>2022-01-09T01:39:16.982Z</time>
      </trkpt>
      <trkpt lat="50.143348" lon="7.721431">
        <ele>75.296639</ele>
        <time>2022-01-09T01:39:42.225Z</time>
      </trkpt>
      <trkpt lat="50.143814" lon="7.721463">
        <ele>75.336787</ele>
        <time>2022-01-09T01:39:53.257Z</time>
      </trkpt>
      <trkpt lat="50.144490" lon="7.721544">
        <ele>75.223902</ele>
        <time>2022-01-09T01:40:08.855Z</time>
      </trkpt>
      <trkpt lat="50.145126" lon="7.721757">
        <ele>75.062066</ele>
        <time>2022-01-09T01:40:22.879Z</time>
      </trkpt>
      <trkpt lat="50.146605" lon="7.722701">
        <ele>77.387363</ele>
        <time>2022-01-09T01:40:58.182Z</time>
      </trkpt>
      <trkpt lat="50.146826" lon="7.722812">
        <ele>77.987307</ele>
        <time>2022-01-09T01:41:08.276Z</time>
      </trkpt>
      <trkpt lat="50.146949" lon="7.723014">
        <ele>78.448741</ele>
        <time>2022-01-09T01:41:15.534Z</time>
      </trkpt>
      <trkpt lat="50.147361" lon="7.723087">
        <ele>79.520242</ele>
        <time>2022-01-09T01:41:34.852Z</time>
      </trkpt>
      <trkpt lat="50.147709" lon="7.722974">
        <ele>82.058023</ele>
        <time>2022-01-09T01:41:52.980Z</time>
      </trkpt>
      <trkpt lat="50.147913" lon="7.722730">
        <ele>83.934421</ele>
        <time>2022-01-09T01:42:06.191Z</time>
      </trkpt>
      <trkpt lat="50.148115" lon="7.722378">
        <ele>86.144908</ele>
        <time>2022-01-09T01:42:22.235Z</time>
      </trkpt>
      <trkpt lat="50.148559" lon="7.721159">
        <ele>92.686177</ele>
        <time>2022-01-09T01:43:12.589Z</time>
      </trkpt>
      <trkpt lat="50.148749" lon="7.720769">
        <ele>93.091499</ele>
        <time>2022-01-09T01:43:28.035Z</time>
      </trkpt>
      <trkpt lat="50.148827" lon="7.720729">
        <ele>93.197502</ele>
        <time>2022-01-09T01:43:31.209Z</time>
      </trkpt>
      <trkpt lat="50.149091" lon="7.720046">
        <ele>93.857409</ele>
        <time>2022-01-09T01:43:47.629Z</time>
      </trkpt>
      <trkpt lat="50.149062" lon="7.719979">
        <ele>93.924301</ele>
        <time>2022-01-09T01:43:49.195Z</time>
      </trkpt>
      <trkpt lat="50.149024" lon="7.719850">
        <ele>94.041763</ele>
        <time>2022-01-09T01:43:52.030Z</time>
      </trkpt>
      <trkpt lat="50.149491" lon="7.718701">
        <ele>94.285892</ele>
        <time>2022-01-09T01:44:06.432Z</time>
      </trkpt>
      <trkpt lat="50.149453" lon="7.718662">
        <ele>94.026921</ele>
        <time>2022-01-09T01:44:07.996Z</time>
      </trkpt>
      <trkpt lat="50.149766" lon="7.717978">
        <ele>90.960205</ele>
        <time>2022-01-09T01:44:16.090Z</time>
      </trkpt>
      <trkpt lat="50.149813" lon="7.717873">
        <ele>90.492882</ele>
        <time>2022-01-09T01:44:17.204Z</time>
      </trkpt>
      <trkpt lat="50.149880" lon="7.717718">
        <ele>89.810698</ele>
        <time>2022-01-09T01:44:19.063Z</time>
      </trkpt>
      <trkpt lat="50.149968" lon="7.717512">
        <ele>88.907369</ele>
        <time>2022-01-09T01:44:21.247Z</time>
      </trkpt>
      <trkpt lat="50.150019" lon="7.717392">
        <ele>88.381985</ele>
        <time>2022-01-09T01:44:22.518Z</time>
      </trkpt>
      <trkpt lat="50.150139" lon="7.717111">
        <ele>87.149900</ele>
        <time>2022-01-09T01:44:25.725Z</time>
      </trkpt>
      <trkpt lat="50.150299" lon="7.716746">
        <ele>85.536353</ele>
        <time>2022-01-09T01:44:29.869Z</time>
      </trkpt>
      <trkpt lat="50.150433" lon="7.716467">
        <ele>84.364333</ele>
        <time>2022-01-09T01:44:33.023Z</time>
      </trkpt>
      <trkpt lat="50.150554" lon="7.716215">
        <ele>83.446072</ele>
        <time>2022-01-09T01:44:35.978Z</time>
      </trkpt>
      <trkpt lat="50.150829" lon="7.715646">
        <ele>81.367806</ele>
        <time>2022-01-09T01:44:42.702Z</time>
      </trkpt>
      <trkpt lat="50.150971" lon="7.715400">
        <ele>80.402318</ele>
        <time>2022-01-09T01:44:45.884Z</time>
      </trkpt>
      <trkpt lat="50.151154" lon="7.715137">
        <ele>79.270195</ele>
        <time>2022-01-09T01:44:49.633Z</time>
      </trkpt>
      <trkpt lat="50.151503" lon="7.714617">
        <ele>77.074362</ele>
        <time>2022-01-09T01:44:57.710Z</time>
      </trkpt>
      <trkpt lat="50.151633" lon="7.714252">
        <ele>76.628684</ele>
        <time>2022-01-09T01:45:02.573Z</time>
      </trkpt>
      <trkpt lat="50.151882" lon="7.713557">
        <ele>76.792858</ele>
        <time>2022-01-09T01:45:12.368Z</time>
      </trkpt>
      <trkpt lat="50.151998" lon="7.713146">
        <ele>76.885455</ele>
        <time>2022-01-09T01:45:18.582Z</time>
      </trkpt>
      <trkpt lat="50.151948" lon="7.713112">
        <ele>76.903004</ele>
        <time>2022-01-09T01:45:22.380Z</time>
      </trkpt>
      <trkpt lat="50.152269" lon="7.711847">
        <ele>77.370252</ele>
        <time>2022-01-09T01:46:01.134Z</time>
      </trkpt>
      <trkpt lat="50.152312" lon="7.711809">
        <ele>77.495846</ele>
        <time>2022-01-09T01:46:03.483Z</time>
      </trkpt>
      <trkpt lat="50.152398" lon="7.711193">
        <ele>78.522563</ele>
        <time>2022-01-09T01:46:17.396Z</time>
      </trkpt>
      <trkpt lat="50.152422" lon="7.710947">
        <ele>78.927801</ele>
        <time>2022-01-09T01:46:23.189Z</time>
      </trkpt>
      <trkpt lat="50.152458" lon="7.710585">
        <ele>79.524389</ele>
        <time>2022-01-09T01:46:31.244Z</time>
      </trkpt>
      <trkpt lat="50.152571" lon="7.709872">
        <ele>80.720525</ele>
        <time>2022-01-09T01:46:46.976Z</time>
      </trkpt>
      <trkpt lat="50.152814" lon="7.709121">
        <ele>81.833371</ele>
        <time>2022-01-09T01:47:03.984Z</time>
      </trkpt>
      <trkpt lat="50.153143" lon="7.708505">
        <ele>82.213011</ele>
        <time>2022-01-09T01:47:19.434Z</time>
      </trkpt>
      <trkpt lat="50.153306" lon="7.708289">
        <ele>82.370996</ele>
        <time>2022-01-09T01:47:25.125Z</time>
      </trkpt>
      <trkpt lat="50.153474" lon="7.708091">
        <ele>82.526536</ele>
        <time>2022-01-09T01:47:30.700Z</time>
      </trkpt>
      <trkpt lat="50.153590" lon="7.707954">
        <ele>82.634014</ele>
        <time>2022-01-09T01:47:34.251Z</time>
      </trkpt>
      <trkpt lat="50.154649" lon="7.706766">
        <ele>81.940064</ele>
        <time>2022-01-09T01:48:01.866Z</time>
      </trkpt>
      <trkpt lat="50.155014" lon="7.706354">
        <ele>81.252740</ele>
        <time>2022-01-09T01:48:10.302Z</time>
      </trkpt>
      <trkpt lat="50.155625" lon="7.705766">
        <ele>80.101539</ele>
        <time>2022-01-09T01:48:23.127Z</time>
      </trkpt>
      <trkpt lat="50.155913" lon="7.705547">
        <ele>79.436220</ele>
        <time>2022-01-09T01:48:28.891Z</time>
      </trkpt>
      <trkpt lat="50.156489" lon="7.705224">
        <ele>78.165138</ele>
        <time>2022-01-09T01:48:39.787Z</time>
      </trkpt>
      <trkpt lat="50.157015" lon="7.705027">
        <ele>77.041748</ele>
        <time>2022-01-09T01:48:49.566Z</time>
      </trkpt>
      <trkpt lat="50.157199" lon="7.705056">
        <ele>76.657679</ele>
        <time>2022-01-09T01:48:52.798Z</time>
      </trkpt>
      <trkpt lat="50.158749" lon="7.704434">
        <ele>76.117132</ele>
        <time>2022-01-09T01:49:26.593Z</time>
      </trkpt>
      <trkpt lat="50.161791" lon="7.702180">
        <ele>79.344985</ele>
        <time>2022-01-09T01:50:53.002Z</time>
      </trkpt>
      <trkpt lat="50.162867" lon="7.701404">
        <ele>82.402505</ele>
        <time>2022-01-09T01:51:32.799Z</time>
      </trkpt>
      <trkpt lat="50.163532" lon="7.700749">
        <ele>85.023400</ele>
        <time>2022-01-09T01:52:01.795Z</time>
      </trkpt>
      <trkpt lat="50.164141" lon="7.699962">
        <ele>87.259729</ele>
        <time>2022-01-09T01:52:32.526Z</time>
      </trkpt>
      <trkpt lat="50.164796" lon="7.698739">
        <ele>89.843134</ele>
        <time>2022-01-09T01:53:05.838Z</time>
      </trkpt>
      <trkpt lat="50.165078" lon="7.698086">
        <ele>90.365044</ele>
        <time>2022-01-09T01:53:18.399Z</time>
      </trkpt>
      <trkpt lat="50.165699" lon="7.696410">
        <ele>89.317093</ele>
        <time>2022-01-09T01:53:43.424Z</time>
      </trkpt>
      <trkpt lat="50.166189" lon="7.694891">
        <ele>86.655272</ele>
        <time>2022-01-09T01:54:01.243Z</time>
      </trkpt>
      <trkpt lat="50.167284" lon="7.691162">
        <ele>78.643603</ele>
        <time>2022-01-09T01:54:43.699Z</time>
      </trkpt>
      <trkpt lat="50.167525" lon="7.690396">
        <ele>77.777819</ele>
        <time>2022-01-09T01:54:53.745Z</time>
      </trkpt>
      <trkpt lat="50.167626" lon="7.690261">
        <ele>77.687682</ele>
        <time>2022-01-09T01:54:56.269Z</time>
      </trkpt>
      <trkpt lat="50.167620" lon="7.690148">
        <ele>77.638445</ele>
        <time>2022-01-09T01:54:57.702Z</time>
      </trkpt>
      <trkpt lat="50.167617" lon="7.690033">
        <ele>77.588467</ele>
        <time>2022-01-09T01:54:59.262Z</time>
      </trkpt>
      <trkpt lat="50.167651" lon="7.689893">
        <ele>77.523451</ele>
        <time>2022-01-09T01:55:01.160Z</time>
      </trkpt>
      <trkpt lat="50.168052" lon="7.688055">
        <ele>76.748329</ele>
        <time>2022-01-09T01:55:28.490Z</time>
      </trkpt>
      <trkpt lat="50.168344" lon="7.686361">
        <ele>76.489728</ele>
        <time>2022-01-09T01:55:52.452Z</time>
      </trkpt>
      <trkpt lat="50.168475" lon="7.685361">
        <ele>76.385628</ele>
        <time>2022-01-09T01:56:06.008Z</time>
      </trkpt>
      <trkpt lat="50.168622" lon="7.684059">
        <ele>76.491061</ele>
        <time>2022-01-09T01:56:24.529Z</time>
      </trkpt>
      <trkpt lat="50.168755" lon="7.681863">
        <ele>77.583313</ele>
        <time>2022-01-09T01:56:58.658Z</time>
      </trkpt>
      <trkpt lat="50.168774" lon="7.679616">
        <ele>80.519884</ele>
        <time>2022-01-09T01:57:42.559Z</time>
      </trkpt>
      <trkpt lat="50.168812" lon="7.675045">
        <ele>92.144696</ele>
        <time>2022-01-09T01:59:39.427Z</time>
      </trkpt>
      <trkpt lat="50.168832" lon="7.672752">
        <ele>96.503948</ele>
        <time>2022-01-09T02:00:29.124Z</time>
      </trkpt>
      <trkpt lat="50.168960" lon="7.668547">
        <ele>101.711521</ele>
        <time>2022-01-09T02:01:49.591Z</time>
      </trkpt>
      <trkpt lat="50.169192" lon="7.666989">
        <ele>101.789760</ele>
        <time>2022-01-09T02:02:16.095Z</time>
      </trkpt>
      <trkpt lat="50.169519" lon="7.665686">
        <ele>101.104111</ele>
        <time>2022-01-09T02:02:32.520Z</time>
      </trkpt>
      <trkpt lat="50.169999" lon="7.664100">
        <ele>97.849840</ele>
        <time>2022-01-09T02:02:50.619Z</time>
      </trkpt>
      <trkpt lat="50.170287" lon="7.663333">
        <ele>96.558598</ele>
        <time>2022-01-09T02:02:59.801Z</time>
      </trkpt>
      <trkpt lat="50.170610" lon="7.662648">
        <ele>96.298705</ele>
        <time>2022-01-09T02:03:09.089Z</time>
      </trkpt>
      <trkpt lat="50.172272" lon="7.659630">
        <ele>96.974082</ele>
        <time>2022-01-09T02:04:16.797Z</time>
      </trkpt>
      <trkpt lat="50.172760" lon="7.658314">
        <ele>96.090618</ele>
        <time>2022-01-09T02:04:39.268Z</time>
      </trkpt>
      <trkpt lat="50.172927" lon="7.657905">
        <ele>95.498495</ele>
        <time>2022-01-09T02:04:44.949Z</time>
      </trkpt>
      <trkpt lat="50.173608" lon="7.654967">
        <ele>90.465889</ele>
        <time>2022-01-09T02:05:16.738Z</time>
      </trkpt>
      <trkpt lat="50.174388" lon="7.652149">
        <ele>86.559039</ele>
        <time>2022-01-09T02:05:52.101Z</time>
      </trkpt>
      <trkpt lat="50.175160" lon="7.649623">
        <ele>83.733318</ele>
        <time>2022-01-09T02:06:27.216Z</time>
      </trkpt>
      <trkpt lat="50.175809" lon="7.648078">
        <ele>80.526081</ele>
        <time>2022-01-09T02:06:46.398Z</time>
      </trkpt>
      <trkpt lat="50.176426" lon="7.646861">
        <ele>77.020317</ele>
        <time>2022-01-09T02:07:01.978Z</time>
      </trkpt>
      <trkpt lat="50.177102" lon="7.645769">
        <ele>74.905513</ele>
        <time>2022-01-09T02:07:18.170Z</time>
      </trkpt>
      <trkpt lat="50.178354" lon="7.644074">
        <ele>72.466402</ele>
        <time>2022-01-09T02:07:50.052Z</time>
      </trkpt>
      <trkpt lat="50.179396" lon="7.642869">
        <ele>71.449477</ele>
        <time>2022-01-09T02:08:16.178Z</time>
      </trkpt>
      <trkpt lat="50.179917" lon="7.642409">
        <ele>71.017694</ele>
        <time>2022-01-09T02:08:28.066Z</time>
      </trkpt>
      <trkpt lat="50.180478" lon="7.642016">
        <ele>70.574114</ele>
        <time>2022-01-09T02:08:40.247Z</time>
      </trkpt>
      <trkpt lat="50.180914" lon="7.641792">
        <ele>70.270809</ele>
        <time>2022-01-09T02:08:49.460Z</time>
      </trkpt>
      <trkpt lat="50.181772" lon="7.641591">
        <ele>69.961702</ele>
        <time>2022-01-09T02:09:07.407Z</time>
      </trkpt>
      <trkpt lat="50.182160" lon="7.641581">
        <ele>69.823448</ele>
        <time>2022-01-09T02:09:15.632Z</time>
      </trkpt>
      <trkpt lat="50.182859" lon="7.641691">
        <ele>69.643964</ele>
        <time>2022-01-09T02:09:30.847Z</time>
      </trkpt>
      <trkpt lat="50.183970" lon="7.642091">
        <ele>69.580243</ele>
        <time>2022-01-09T02:09:56.144Z</time>
      </trkpt>
      <trkpt lat="50.188223" lon="7.644264">
        <ele>69.338676</ele>
        <time>2022-01-09T02:11:34.254Z</time>
      </trkpt>
      <trkpt lat="50.189004" lon="7.644584">
        <ele>69.479749</ele>
        <time>2022-01-09T02:11:52.818Z</time>
      </trkpt>
      <trkpt lat="50.189741" lon="7.644792">
        <ele>69.648227</ele>
        <time>2022-01-09T02:12:10.458Z</time>
      </trkpt>
      <trkpt lat="50.190552" lon="7.644891">
        <ele>69.934396</ele>
        <time>2022-01-09T02:12:29.838Z</time>
      </trkpt>
      <trkpt lat="50.192030" lon="7.644819">
        <ele>70.296083</ele>
        <time>2022-01-09T02:13:04.512Z</time>
      </trkpt>
      <trkpt lat="50.197424" lon="7.643354">
        <ele>70.922647</ele>
        <time>2022-01-09T02:15:08.264Z</time>
      </trkpt>
      <trkpt lat="50.198171" lon="7.642999">
        <ele>71.016297</ele>
        <time>2022-01-09T02:15:25.934Z</time>
      </trkpt>
      <trkpt lat="50.199274" lon="7.642310">
        <ele>71.206075</ele>
        <time>2022-01-09T02:15:53.088Z</time>
      </trkpt>
      <trkpt lat="50.201275" lon="7.640652">
        <ele>71.472611</ele>
        <time>2022-01-09T02:16:44.975Z</time>
      </trkpt>
      <trkpt lat="50.204664" lon="7.637631">
        <ele>70.942098</ele>
        <time>2022-01-09T02:18:09.407Z</time>
      </trkpt>
      <trkpt lat="50.205227" lon="7.637067">
        <ele>70.860662</ele>
        <time>2022-01-09T02:18:24.138Z</time>
      </trkpt>
      <trkpt lat="50.205870" lon="7.636389">
        <ele>70.769348</ele>
        <time>2022-01-09T02:18:41.144Z</time>
      </trkpt>
      <trkpt lat="50.206704" lon="7.635386">
        <ele>70.670562</ele>
        <time>2022-01-09T02:19:03.758Z</time>
      </trkpt>
      <trkpt lat="50.206908" lon="7.635102">
        <ele>70.649360</ele>
        <time>2022-01-09T02:19:09.585Z</time>
      </trkpt>
      <trkpt lat="50.207439" lon="7.634319">
        <ele>70.592704</ele>
        <time>2022-01-09T02:19:25.536Z</time>
      </trkpt>
      <trkpt lat="50.207692" lon="7.633913">
        <ele>70.648239</ele>
        <time>2022-01-09T02:19:33.713Z</time>
      </trkpt>
      <trkpt lat="50.208589" lon="7.632224">
        <ele>71.147924</ele>
        <time>2022-01-09T02:20:07.208Z</time>
      </trkpt>
      <trkpt lat="50.209816" lon="7.629584">
        <ele>72.122336</ele>
        <time>2022-01-09T02:20:58.260Z</time>
      </trkpt>
      <trkpt lat="50.210314" lon="7.628508">
        <ele>72.335364</ele>
        <time>2022-01-09T02:21:17.806Z</time>
      </trkpt>
      <trkpt lat="50.212891" lon="7.622633">
        <ele>73.422033</ele>
        <time>2022-01-09T02:23:02.555Z</time>
      </trkpt>
      <trkpt lat="50.213240" lon="7.621836">
        <ele>74.016855</ele>
        <time>2022-01-09T02:23:18.424Z</time>
      </trkpt>
      <trkpt lat="50.214272" lon="7.620040">
        <ele>75.785395</ele>
        <time>2022-01-09T02:24:00.178Z</time>
      </trkpt>
      <trkpt lat="50.214807" lon="7.619304">
        <ele>76.903814</ele>
        <time>2022-01-09T02:24:19.122Z</time>
      </trkpt>
      <trkpt lat="50.216047" lon="7.617993">
        <ele>79.827881</ele>
        <time>2022-01-09T02:25:06.432Z</time>
      </trkpt>
      <trkpt lat="50.216208" lon="7.617688">
        <ele>80.390948</ele>
        <time>2022-01-09T02:25:15.031Z</time>
      </trkpt>
      <trkpt lat="50.217396" lon="7.616786">
        <ele>82.249428</ele>
        <time>2022-01-09T02:25:55.977Z</time>
      </trkpt>
      <trkpt lat="50.217970" lon="7.616476">
        <ele>82.592592</ele>
        <time>2022-01-09T02:26:11.027Z</time>
      </trkpt>
      <trkpt lat="50.219128" lon="7.615988">
        <ele>82.063443</ele>
        <time>2022-01-09T02:26:35.232Z</time>
      </trkpt>
      <trkpt lat="50.220830" lon="7.615447">
        <ele>80.154315</ele>
        <time>2022-01-09T02:27:08.771Z</time>
      </trkpt>
      <trkpt lat="50.222328" lon="7.614978">
        <ele>79.359045</ele>
        <time>2022-01-09T02:27:41.540Z</time>
      </trkpt>
      <trkpt lat="50.223372" lon="7.614522">
        <ele>79.832045</ele>
        <time>2022-01-09T02:28:07.874Z</time>
      </trkpt>
      <trkpt lat="50.223973" lon="7.614162">
        <ele>80.504449</ele>
        <time>2022-01-09T02:28:26.534Z</time>
      </trkpt>
      <trkpt lat="50.224623" lon="7.613657">
        <ele>81.934389</ele>
        <time>2022-01-09T02:28:49.493Z</time>
      </trkpt>
      <trkpt lat="50.225244" lon="7.612930">
        <ele>83.462828</ele>
        <time>2022-01-09T02:29:14.538Z</time>
      </trkpt>
      <trkpt lat="50.225606" lon="7.612395">
        <ele>84.195409</ele>
        <time>2022-01-09T02:29:30.924Z</time>
      </trkpt>
      <trkpt lat="50.227341" lon="7.609423">
        <ele>86.680883</ele>
        <time>2022-01-09T02:30:41.402Z</time>
      </trkpt>
      <trkpt lat="50.227960" lon="7.608066">
        <ele>85.998208</ele>
        <time>2022-01-09T02:31:03.907Z</time>
      </trkpt>
      <trkpt lat="50.228482" lon="7.606605">
        <ele>83.970122</ele>
        <time>2022-01-09T02:31:23.010Z</time>
      </trkpt>
      <trkpt lat="50.228771" lon="7.606005">
        <ele>82.908781</ele>
        <time>2022-01-09T02:31:31.086Z</time>
      </trkpt>
      <trkpt lat="50.229092" lon="7.605140">
        <ele>81.313047</ele>
        <time>2022-01-09T02:31:42.250Z</time>
      </trkpt>
      <trkpt lat="50.229337" lon="7.604537">
        <ele>80.173159</ele>
        <time>2022-01-09T02:31:50.206Z</time>
      </trkpt>
      <trkpt lat="50.229515" lon="7.604052">
        <ele>79.280919</ele>
        <time>2022-01-09T02:31:56.362Z</time>
      </trkpt>
      <trkpt lat="50.229623" lon="7.603634">
        <ele>78.678377</ele>
        <time>2022-01-09T02:32:01.608Z</time>
      </trkpt>
      <trkpt lat="50.229647" lon="7.603540">
        <ele>78.555460</ele>
        <time>2022-01-09T02:32:02.749Z</time>
      </trkpt>
      <trkpt lat="50.229698" lon="7.603340">
        <ele>78.293978</ele>
        <time>2022-01-09T02:32:05.183Z</time>
      </trkpt>
      <trkpt lat="50.229844" lon="7.602770">
        <ele>77.548299</ele>
        <time>2022-01-09T02:32:12.082Z</time>
      </trkpt>
      <trkpt lat="50.230123" lon="7.602911">
        <ele>76.991633</ele>
        <time>2022-01-09T02:32:17.534Z</time>
      </trkpt>
      <trkpt lat="50.230918" lon="7.603312">
        <ele>75.484645</ele>
        <time>2022-01-09T02:32:33.724Z</time>
      </trkpt>
      <trkpt lat="50.231316" lon="7.602167">
        <ele>74.444873</ele>
        <time>2022-01-09T02:32:49.492Z</time>
      </trkpt>
      <trkpt lat="50.231471" lon="7.601601">
        <ele>73.953616</ele>
        <time>2022-01-09T02:32:57.210Z</time>
      </trkpt>
      <trkpt lat="50.231619" lon="7.601010">
        <ele>73.447209</ele>
        <time>2022-01-09T02:33:05.487Z</time>
      </trkpt>
      <trkpt lat="50.231663" lon="7.600829">
        <ele>73.406828</ele>
        <time>2022-01-09T02:33:08.139Z</time>
      </trkpt>
      <trkpt lat="50.231951" lon="7.599746">
        <ele>73.543089</ele>
        <time>2022-01-09T02:33:25.172Z</time>
      </trkpt>
      <trkpt lat="50.232121" lon="7.599121">
        <ele>73.621992</ele>
        <time>2022-01-09T02:33:35.814Z</time>
      </trkpt>
      <trkpt lat="50.232382" lon="7.597720">
        <ele>74.159551</ele>
        <time>2022-01-09T02:34:00.410Z</time>
      </trkpt>
      <trkpt lat="50.232725" lon="7.596020">
        <ele>75.417518</ele>
        <time>2022-01-09T02:34:32.425Z</time>
      </trkpt>
      <trkpt lat="50.232805" lon="7.595947">
        <ele>75.519711</ele>
        <time>2022-01-09T02:34:34.882Z</time>
      </trkpt>
      <trkpt lat="50.232839" lon="7.595638">
        <ele>75.720961</ele>
        <time>2022-01-09T02:34:39.982Z</time>
      </trkpt>
      <trkpt lat="50.232871" lon="7.594572">
        <ele>76.073848</ele>
        <time>2022-01-09T02:34:56.605Z</time>
      </trkpt>
      <trkpt lat="50.232871" lon="7.594134">
        <ele>76.218684</ele>
        <time>2022-01-09T02:35:03.333Z</time>
      </trkpt>
      <trkpt lat="50.232861" lon="7.593911">
        <ele>76.292605</ele>
        <time>2022-01-09T02:35:07.798Z</time>
      </trkpt>
      <trkpt lat="50.232897" lon="7.593707">
        <ele>76.362583</ele>
        <time>2022-01-09T02:35:11.892Z</time>
      </trkpt>
      <trkpt lat="50.232889" lon="7.593183">
        <ele>76.535906</ele>
        <time>2022-01-09T02:35:22.047Z</time>
      </trkpt>
      <trkpt lat="50.232856" lon="7.593031">
        <ele>76.588984</ele>
        <time>2022-01-09T02:35:25.224Z</time>
      </trkpt>
      <trkpt lat="50.232818" lon="7.593029">
        <ele>76.608639</ele>
        <time>2022-01-09T02:35:26.438Z</time>
      </trkpt>
      <trkpt lat="50.232819" lon="7.592796">
        <ele>76.623977</ele>
        <time>2022-01-09T02:35:30.969Z</time>
      </trkpt>
      <trkpt lat="50.232796" lon="7.592206">
        <ele>76.589999</ele>
        <time>2022-01-09T02:35:39.915Z</time>
      </trkpt>
      <trkpt lat="50.232782" lon="7.591232">
        <ele>76.533997</ele>
        <time>2022-01-09T02:35:53.565Z</time>
      </trkpt>
      <trkpt lat="50.232807" lon="7.589873">
        <ele>76.300710</ele>
        <time>2022-01-09T02:36:12.038Z</time>
      </trkpt>
      <trkpt lat="50.232808" lon="7.589819">
        <ele>76.266800</ele>
        <time>2022-01-09T02:36:12.730Z</time>
      </trkpt>
      <trkpt lat="50.232856" lon="7.588747">
        <ele>75.592249</ele>
        <time>2022-01-09T02:36:25.968Z</time>
      </trkpt>
      <trkpt lat="50.232967" lon="7.587040">
        <ele>74.605588</ele>
        <time>2022-01-09T02:36:46.609Z</time>
      </trkpt>
      <trkpt lat="50.232983" lon="7.586754">
        <ele>74.510525</ele>
        <time>2022-01-09T02:36:50.137Z</time>
      </trkpt>
      <trkpt lat="50.233015" lon="7.586060">
        <ele>74.280130</ele>
        <time>2022-01-09T02:36:59.060Z</time>
      </trkpt>
      <trkpt lat="50.233236" lon="7.584215">
        <ele>73.893639</ele>
        <time>2022-01-09T02:37:24.737Z</time>
      </trkpt>
      <trkpt lat="50.233537" lon="7.583136">
        <ele>74.288151</ele>
        <time>2022-01-09T02:37:42.634Z</time>
      </trkpt>
      <trkpt lat="50.234067" lon="7.581525">
        <ele>75.132097</ele>
        <time>2022-01-09T02:38:14.547Z</time>
      </trkpt>
      <trkpt lat="50.234316" lon="7.580654">
        <ele>75.878385</ele>
        <time>2022-01-09T02:38:33.086Z</time>
      </trkpt>
      <trkpt lat="50.234465" lon="7.580074">
        <ele>76.367310</ele>
        <time>2022-01-09T02:38:44.392Z</time>
      </trkpt>
      <trkpt lat="50.234677" lon="7.579328">
        <ele>76.838236</ele>
        <time>2022-01-09T02:38:57.963Z</time>
      </trkpt>
      <trkpt lat="50.234846" lon="7.578935">
        <ele>76.506781</ele>
        <time>2022-01-09T02:39:04.950Z</time>
      </trkpt>
      <trkpt lat="50.234864" lon="7.578529">
        <ele>76.221929</ele>
        <time>2022-01-09T02:39:10.473Z</time>
      </trkpt>
      <trkpt lat="50.235049" lon="7.578290">
        <ele>75.959320</ele>
        <time>2022-01-09T02:39:15.196Z</time>
      </trkpt>
      <trkpt lat="50.235091" lon="7.578235">
        <ele>75.899369</ele>
        <time>2022-01-09T02:39:16.170Z</time>
      </trkpt>
      <trkpt lat="50.235283" lon="7.577987">
        <ele>75.626843</ele>
        <time>2022-01-09T02:39:20.748Z</time>
      </trkpt>
      <trkpt lat="50.235754" lon="7.577537">
        <ele>75.022833</ele>
        <time>2022-01-09T02:39:30.183Z</time>
      </trkpt>
      <trkpt lat="50.236405" lon="7.577199">
        <ele>73.611065</ele>
        <time>2022-01-09T02:39:41.565Z</time>
      </trkpt>
      <trkpt lat="50.237180" lon="7.576829">
        <ele>71.858427</ele>
        <time>2022-01-09T02:39:55.491Z</time>
      </trkpt>
      <trkpt lat="50.238023" lon="7.576427">
        <ele>70.700665</ele>
        <time>2022-01-09T02:40:12.145Z</time>
      </trkpt>
      <trkpt lat="50.238025" lon="7.576471">
        <ele>70.680909</ele>
        <time>2022-01-09T02:40:13.084Z</time>
      </trkpt>
      <trkpt lat="50.239050" lon="7.576284">
        <ele>69.958288</ele>
        <time>2022-01-09T02:40:34.406Z</time>
      </trkpt>
      <trkpt lat="50.240195" lon="7.576180">
        <ele>69.586328</ele>
        <time>2022-01-09T02:40:59.121Z</time>
      </trkpt>
      <trkpt lat="50.241175" lon="7.576260">
        <ele>69.344268</ele>
        <time>2022-01-09T02:41:20.284Z</time>
      </trkpt>
      <trkpt lat="50.242802" lon="7.576813">
        <ele>68.720403</ele>
        <time>2022-01-09T02:41:54.946Z</time>
      </trkpt>
      <trkpt lat="50.243647" lon="7.577338">
        <ele>68.481928</ele>
        <time>2022-01-09T02:42:13.932Z</time>
      </trkpt>
      <trkpt lat="50.244203" lon="7.577813">
        <ele>68.318255</ele>
        <time>2022-01-09T02:42:27.449Z</time>
      </trkpt>
      <trkpt lat="50.244606" lon="7.578260">
        <ele>68.254611</ele>
        <time>2022-01-09T02:42:38.173Z</time>
      </trkpt>
      <trkpt lat="50.247274" lon="7.581936">
        <ele>68.432484</ele>
        <time>2022-01-09T02:43:58.388Z</time>
      </trkpt>
      <trkpt lat="50.248534" lon="7.584260">
        <ele>68.250867</ele>
        <time>2022-01-09T02:44:40.642Z</time>
      </trkpt>
      <trkpt lat="50.249368" lon="7.585926">
        <ele>68.227777</ele>
        <time>2022-01-09T02:45:10.571Z</time>
      </trkpt>
      <trkpt lat="50.249965" lon="7.587256">
        <ele>68.537687</ele>
        <time>2022-01-09T02:45:34.967Z</time>
      </trkpt>
      <trkpt lat="50.250260" lon="7.588031">
        <ele>68.735667</ele>
        <time>2022-01-09T02:45:48.805Z</time>
      </trkpt>
      <trkpt lat="50.250570" lon="7.589040">
        <ele>69.001116</ele>
        <time>2022-01-09T02:46:05.999Z</time>
      </trkpt>
      <trkpt lat="50.250927" lon="7.590528">
        <ele>69.399706</ele>
        <time>2022-01-09T02:46:30.351Z</time>
      </trkpt>
      <trkpt lat="50.251560" lon="7.593706">
        <ele>69.789071</ele>
        <time>2022-01-09T02:47:19.552Z</time>
      </trkpt>
      <trkpt lat="50.251851" lon="7.597805">
        <ele>69.316763</ele>
        <time>2022-01-09T02:48:15.592Z</time>
      </trkpt>
      <trkpt lat="50.251903" lon="7.598950">
        <ele>69.229686</ele>
        <time>2022-01-09T02:48:31.734Z</time>
      </trkpt>
      <trkpt lat="50.251879" lon="7.599712">
        <ele>69.192941</ele>
        <time>2022-01-09T02:48:42.666Z</time>
      </trkpt>
      <trkpt lat="50.251205" lon="7.606292">
        <ele>69.192585</ele>
        <time>2022-01-09T02:50:17.166Z</time>
      </trkpt>
      <trkpt lat="50.250601" lon="7.610473">
        <ele>69.607182</ele>
        <time>2022-01-09T02:51:19.888Z</time>
      </trkpt>
      <trkpt lat="50.250218" lon="7.614834">
        <ele>70.320589</ele>
        <time>2022-01-09T02:52:25.176Z</time>
      </trkpt>
      <trkpt lat="50.249911" lon="7.618018">
        <ele>71.043124</ele>
        <time>2022-01-09T02:53:14.704Z</time>
      </trkpt>
      <trkpt lat="50.249181" lon="7.623343">
        <ele>71.250305</ele>
        <time>2022-01-09T02:54:33.398Z</time>
      </trkpt>
      <trkpt lat="50.248521" lon="7.627840">
        <ele>70.135386</ele>
        <time>2022-01-09T02:55:33.981Z</time>
      </trkpt>
      <trkpt lat="50.248389" lon="7.629463">
        <ele>69.845580</ele>
        <time>2022-01-09T02:55:56.605Z</time>
      </trkpt>
      <trkpt lat="50.248364" lon="7.630925">
        <ele>69.613313</ele>
        <time>2022-01-09T02:56:16.741Z</time>
      </trkpt>
      <trkpt lat="50.248425" lon="7.632593">
        <ele>69.357310</ele>
        <time>2022-01-09T02:56:39.311Z</time>
      </trkpt>
      <trkpt lat="50.248507" lon="7.633427">
        <ele>69.406016</ele>
        <time>2022-01-09T02:56:50.908Z</time>
      </trkpt>
      <trkpt lat="50.248475" lon="7.633490">
        <ele>69.411096</ele>
        <time>2022-01-09T02:56:52.029Z</time>
      </trkpt>
      <trkpt lat="50.248877" lon="7.636194">
        <ele>69.420323</ele>
        <time>2022-01-09T02:57:33.337Z</time>
      </trkpt>
      <trkpt lat="50.248944" lon="7.636454">
        <ele>69.384306</ele>
        <time>2022-01-09T02:57:37.309Z</time>
      </trkpt>
      <trkpt lat="50.249369" lon="7.637453">
        <ele>69.230137</ele>
        <time>2022-01-09T02:57:53.413Z</time>
      </trkpt>
      <trkpt lat="50.249485" lon="7.637738">
        <ele>69.186730</ele>
        <time>2022-01-09T02:57:57.799Z</time>
      </trkpt>
      <trkpt lat="50.248759" lon="7.638172">
        <ele>68.605269</ele>
        <time>2022-01-09T02:58:13.338Z</time>
      </trkpt>
      <trkpt lat="50.249222" lon="7.640402">
        <ele>67.507388</ele>
        <time>2022-01-09T02:58:42.428Z</time>
      </trkpt>
      <trkpt lat="50.249815" lon="7.642677">
        <ele>66.771612</ele>
        <time>2022-01-09T02:59:15.209Z</time>
      </trkpt>
      <trkpt lat="50.250070" lon="7.643427">
        <ele>66.697947</ele>
        <time>2022-01-09T02:59:26.990Z</time>
      </trkpt>
      <trkpt lat="50.250498" lon="7.644705">
        <ele>66.572835</ele>
        <time>2022-01-09T02:59:53.538Z</time>
      </trkpt>
      <trkpt lat="50.250638" lon="7.645144">
        <ele>66.567212</ele>
        <time>2022-01-09T03:00:02.929Z</time>
      </trkpt>
      <trkpt lat="50.250784" lon="7.645502">
        <ele>66.597725</ele>
        <time>2022-01-09T03:00:11.021Z</time>
      </trkpt>
      <trkpt lat="50.250976" lon="7.645853">
        <ele>66.630919</ele>
        <time>2022-01-09T03:00:19.690Z</time>
      </trkpt>
      <trkpt lat="50.251216" lon="7.646264">
        <ele>66.670917</ele>
        <time>2022-01-09T03:00:30.332Z</time>
      </trkpt>
      <trkpt lat="50.251521" lon="7.646672">
        <ele>66.716022</ele>
        <time>2022-01-09T03:00:42.488Z</time>
      </trkpt>
      <trkpt lat="50.251734" lon="7.646949">
        <ele>66.747155</ele>
        <time>2022-01-09T03:00:50.709Z</time>
      </trkpt>
      <trkpt lat="50.251930" lon="7.647196">
        <ele>66.805901</ele>
        <time>2022-01-09T03:00:58.139Z</time>
      </trkpt>
      <trkpt lat="50.252256" lon="7.647583">
        <ele>66.913278</ele>
        <time>2022-01-09T03:01:10.369Z</time>
      </trkpt>
      <trkpt lat="50.252384" lon="7.647716">
        <ele>66.953596</ele>
        <time>2022-01-09T03:01:15.084Z</time>
      </trkpt>
      <trkpt lat="50.253036" lon="7.648463">
        <ele>67.165642</ele>
        <time>2022-01-09T03:01:39.534Z</time>
      </trkpt>
      <trkpt lat="50.253837" lon="7.649086">
        <ele>67.445201</ele>
        <time>2022-01-09T03:02:07.452Z</time>
      </trkpt>
      <trkpt lat="50.254362" lon="7.649305">
        <ele>67.624122</ele>
        <time>2022-01-09T03:02:23.978Z</time>
      </trkpt>
      <trkpt lat="50.254572" lon="7.649316">
        <ele>67.693311</ele>
        <time>2022-01-09T03:02:30.360Z</time>
      </trkpt>
      <trkpt lat="50.255299" lon="7.649567">
        <ele>67.792365</ele>
        <time>2022-01-09T03:02:52.639Z</time>
      </trkpt>
      <trkpt lat="50.255893" lon="7.649781">
        <ele>67.752084</ele>
        <time>2022-01-09T03:03:10.594Z</time>
      </trkpt>
      <trkpt lat="50.256157" lon="7.649876">
        <ele>67.734182</ele>
        <time>2022-01-09T03:03:18.473Z</time>
      </trkpt>
      <trkpt lat="50.256447" lon="7.649995">
        <ele>67.714370</ele>
        <time>2022-01-09T03:03:26.985Z</time>
      </trkpt>
      <trkpt lat="50.257568" lon="7.650186">
        <ele>67.512688</ele>
        <time>2022-01-09T03:03:58.468Z</time>
      </trkpt>
      <trkpt lat="50.257922" lon="7.650189">
        <ele>67.438068</ele>
        <time>2022-01-09T03:04:08.717Z</time>
      </trkpt>
      <trkpt lat="50.257965" lon="7.650308">
        <ele>67.419647</ele>
        <time>2022-01-09T03:04:11.183Z</time>
      </trkpt>
      <trkpt lat="50.258559" lon="7.650219">
        <ele>67.333516</ele>
        <time>2022-01-09T03:04:28.333Z</time>
      </trkpt>
      <trkpt lat="50.259345" lon="7.650000">
        <ele>67.432907</ele>
        <time>2022-01-09T03:04:51.414Z</time>
      </trkpt>
      <trkpt lat="50.261096" lon="7.649334">
        <ele>68.137894</ele>
        <time>2022-01-09T03:05:47.004Z</time>
      </trkpt>
      <trkpt lat="50.261293" lon="7.649259">
        <ele>68.269060</ele>
        <time>2022-01-09T03:05:53.696Z</time>
      </trkpt>
      <trkpt lat="50.262019" lon="7.648884">
        <ele>68.760896</ele>
        <time>2022-01-09T03:06:19.079Z</time>
      </trkpt>
      <trkpt lat="50.262275" lon="7.648704">
        <ele>68.933677</ele>
        <time>2022-01-09T03:06:26.230Z</time>
      </trkpt>
      <trkpt lat="50.262539" lon="7.648525">
        <ele>69.110805</ele>
        <time>2022-01-09T03:06:33.530Z</time>
      </trkpt>
      <trkpt lat="50.263033" lon="7.648190">
        <ele>69.442256</ele>
        <time>2022-01-09T03:06:47.367Z</time>
      </trkpt>
      <trkpt lat="50.263361" lon="7.647977">
        <ele>69.660879</ele>
        <time>2022-01-09T03:06:58.639Z</time>
      </trkpt>
      <trkpt lat="50.263756" lon="7.647702">
        <ele>69.867884</ele>
        <time>2022-01-09T03:07:12.215Z</time>
      </trkpt>
      <trkpt lat="50.264260" lon="7.647357">
        <ele>70.030035</ele>
        <time>2022-01-09T03:07:28.905Z</time>
      </trkpt>
      <trkpt lat="50.264647" lon="7.647002">
        <ele>70.162265</ele>
        <time>2022-01-09T03:07:42.024Z</time>
      </trkpt>
      <trkpt lat="50.264907" lon="7.646737">
        <ele>70.253728</ele>
        <time>2022-01-09T03:07:49.418Z</time>
      </trkpt>
      <trkpt lat="50.265621" lon="7.645815">
        <ele>70.439299</ele>
        <time>2022-01-09T03:08:18.046Z</time>
      </trkpt>
      <trkpt lat="50.266098" lon="7.645028">
        <ele>70.546102</ele>
        <time>2022-01-09T03:08:38.747Z</time>
      </trkpt>
      <trkpt lat="50.266706" lon="7.644026">
        <ele>70.527411</ele>
        <time>2022-01-09T03:09:04.454Z</time>
      </trkpt>
      <trkpt lat="50.269563" lon="7.640006">
        <ele>69.397951</ele>
        <time>2022-01-09T03:10:52.672Z</time>
      </trkpt>
      <trkpt lat="50.270754" lon="7.638166">
        <ele>68.757938</ele>
        <time>2022-01-09T03:11:38.737Z</time>
      </trkpt>
      <trkpt lat="50.273709" lon="7.633206">
        <ele>67.871663</ele>
        <time>2022-01-09T03:13:41.903Z</time>
      </trkpt>
      <trkpt lat="50.276413" lon="7.629298">
        <ele>68.465178</ele>
        <time>2022-01-09T03:15:32.701Z</time>
      </trkpt>
      <trkpt lat="50.277519" lon="7.627519">
        <ele>68.847095</ele>
        <time>2022-01-09T03:16:20.184Z</time>
      </trkpt>
      <trkpt lat="50.278553" lon="7.625848">
        <ele>69.621656</ele>
        <time>2022-01-09T03:17:06.402Z</time>
      </trkpt>
      <trkpt lat="50.279777" lon="7.623418">
        <ele>71.179953</ele>
        <time>2022-01-09T03:18:11.871Z</time>
      </trkpt>
      <trkpt lat="50.280614" lon="7.622007">
        <ele>71.940512</ele>
        <time>2022-01-09T03:18:51.586Z</time>
      </trkpt>
      <trkpt lat="50.281309" lon="7.621070">
        <ele>72.121532</ele>
        <time>2022-01-09T03:19:18.898Z</time>
      </trkpt>
      <trkpt lat="50.281989" lon="7.620268">
        <ele>71.938798</ele>
        <time>2022-01-09T03:19:43.080Z</time>
      </trkpt>
      <trkpt lat="50.282893" lon="7.619125">
        <ele>71.135489</ele>
        <time>2022-01-09T03:20:13.553Z</time>
      </trkpt>
      <trkpt lat="50.282932" lon="7.619070">
        <ele>71.099201</ele>
        <time>2022-01-09T03:20:14.999Z</time>
      </trkpt>
      <trkpt lat="50.283044" lon="7.618940">
        <ele>71.002817</ele>
        <time>2022-01-09T03:20:18.746Z</time>
      </trkpt>
      <trkpt lat="50.283424" lon="7.618488">
        <ele>70.987626</ele>
        <time>2022-01-09T03:20:31.864Z</time>
      </trkpt>
      <trkpt lat="50.283584" lon="7.618252">
        <ele>70.997500</ele>
        <time>2022-01-09T03:20:38.129Z</time>
      </trkpt>
      <trkpt lat="50.283681" lon="7.617976">
        <ele>71.006539</ele>
        <time>2022-01-09T03:20:43.928Z</time>
      </trkpt>
      <trkpt lat="50.283842" lon="7.617772">
        <ele>71.015842</ele>
        <time>2022-01-09T03:20:50.044Z</time>
      </trkpt>
      <trkpt lat="50.284752" lon="7.616207">
        <ele>71.563057</ele>
        <time>2022-01-09T03:21:32.669Z</time>
      </trkpt>
      <trkpt lat="50.284780" lon="7.616141">
        <ele>71.605750</ele>
        <time>2022-01-09T03:21:34.377Z</time>
      </trkpt>
      <trkpt lat="50.284946" lon="7.615699">
        <ele>71.882043</ele>
        <time>2022-01-09T03:21:43.151Z</time>
      </trkpt>
      <trkpt lat="50.285174" lon="7.615167">
        <ele>72.227253</ele>
        <time>2022-01-09T03:21:53.938Z</time>
      </trkpt>
      <trkpt lat="50.285755" lon="7.613344">
        <ele>73.737091</ele>
        <time>2022-01-09T03:22:27.616Z</time>
      </trkpt>
      <trkpt lat="50.286420" lon="7.611710">
        <ele>75.573019</ele>
        <time>2022-01-09T03:23:02.890Z</time>
      </trkpt>
      <trkpt lat="50.286496" lon="7.611545">
        <ele>75.828448</ele>
        <time>2022-01-09T03:23:07.705Z</time>
      </trkpt>
      <trkpt lat="50.286576" lon="7.611330">
        <ele>76.140884</ele>
        <time>2022-01-09T03:23:14.188Z</time>
      </trkpt>
      <trkpt lat="50.286603" lon="7.611026">
        <ele>76.526309</ele>
        <time>2022-01-09T03:23:21.758Z</time>
      </trkpt>
      <trkpt lat="50.286771" lon="7.610386">
        <ele>77.395182</ele>
        <time>2022-01-09T03:23:39.345Z</time>
      </trkpt>
      <trkpt lat="50.287500" lon="7.608908">
        <ele>78.576103</ele>
        <time>2022-01-09T03:24:21.677Z</time>
      </trkpt>
      <trkpt lat="50.287592" lon="7.608746">
        <ele>78.604291</ele>
        <time>2022-01-09T03:24:25.001Z</time>
      </trkpt>
      <trkpt lat="50.288747" lon="7.607140">
        <ele>78.215795</ele>
        <time>2022-01-09T03:24:57.088Z</time>
      </trkpt>
      <trkpt lat="50.291516" lon="7.603613">
        <ele>73.973402</ele>
        <time>2022-01-09T03:26:07.488Z</time>
      </trkpt>
      <trkpt lat="50.291757" lon="7.603363">
        <ele>73.605581</ele>
        <time>2022-01-09T03:26:13.046Z</time>
      </trkpt>
      <trkpt lat="50.292706" lon="7.602768">
        <ele>72.325883</ele>
        <time>2022-01-09T03:26:33.008Z</time>
      </trkpt>
      <trkpt lat="50.292910" lon="7.602633">
        <ele>72.193764</ele>
        <time>2022-01-09T03:26:37.339Z</time>
      </trkpt>
      <trkpt lat="50.293043" lon="7.602545">
        <ele>72.107631</ele>
        <time>2022-01-09T03:26:40.239Z</time>
      </trkpt>
      <trkpt lat="50.294724" lon="7.601403">
        <ele>71.178709</ele>
        <time>2022-01-09T03:27:18.326Z</time>
      </trkpt>
      <trkpt lat="50.294822" lon="7.601261">
        <ele>71.149968</ele>
        <time>2022-01-09T03:27:21.373Z</time>
      </trkpt>
      <trkpt lat="50.294900" lon="7.601279">
        <ele>71.132999</ele>
        <time>2022-01-09T03:27:22.873Z</time>
      </trkpt>
      <trkpt lat="50.295108" lon="7.601115">
        <ele>71.082875</ele>
        <time>2022-01-09T03:27:28.131Z</time>
      </trkpt>
      <trkpt lat="50.296104" lon="7.600147">
        <ele>71.031582</ele>
        <time>2022-01-09T03:27:54.448Z</time>
      </trkpt>
      <trkpt lat="50.297531" lon="7.598733">
        <ele>71.974150</ele>
        <time>2022-01-09T03:28:38.808Z</time>
      </trkpt>
      <trkpt lat="50.298065" lon="7.598298">
        <ele>72.096487</ele>
        <time>2022-01-09T03:28:55.320Z</time>
      </trkpt>
      <trkpt lat="50.299149" lon="7.597428">
        <ele>72.153777</ele>
        <time>2022-01-09T03:29:22.504Z</time>
      </trkpt>
      <trkpt lat="50.299280" lon="7.597789">
        <ele>71.894844</ele>
        <time>2022-01-09T03:29:27.686Z</time>
      </trkpt>
      <trkpt lat="50.299394" lon="7.597870">
        <ele>71.772615</ele>
        <time>2022-01-09T03:29:30.311Z</time>
      </trkpt>
      <trkpt lat="50.300666" lon="7.596353">
        <ele>70.428537</ele>
        <time>2022-01-09T03:30:01.885Z</time>
      </trkpt>
      <trkpt lat="50.301335" lon="7.595717">
        <ele>70.146984</ele>
        <time>2022-01-09T03:30:20.364Z</time>
      </trkpt>
      <trkpt lat="50.302626" lon="7.594696">
        <ele>69.462656</ele>
        <time>2022-01-09T03:30:52.470Z</time>
      </trkpt>
      <trkpt lat="50.303900" lon="7.594005">
        <ele>68.755320</ele>
        <time>2022-01-09T03:31:20.209Z</time>
      </trkpt>
      <trkpt lat="50.304333" lon="7.593791">
        <ele>68.579229</ele>
        <time>2022-01-09T03:31:29.606Z</time>
      </trkpt>
      <trkpt lat="50.304547" lon="7.593673">
        <ele>68.491240</ele>
        <time>2022-01-09T03:31:34.453Z</time>
      </trkpt>
      <trkpt lat="50.305493" lon="7.593067">
        <ele>68.356402</ele>
        <time>2022-01-09T03:31:58.114Z</time>
      </trkpt>
      <trkpt lat="50.306149" lon="7.592558">
        <ele>68.881833</ele>
        <time>2022-01-09T03:32:17.043Z</time>
      </trkpt>
      <trkpt lat="50.308011" lon="7.591099">
        <ele>70.604234</ele>
        <time>2022-01-09T03:33:13.835Z</time>
      </trkpt>
      <trkpt lat="50.311311" lon="7.589294">
        <ele>72.366369</ele>
        <time>2022-01-09T03:34:48.547Z</time>
      </trkpt>
      <trkpt lat="50.312805" lon="7.588547">
        <ele>71.686407</ele>
        <time>2022-01-09T03:35:24.776Z</time>
      </trkpt>
      <trkpt lat="50.313548" lon="7.588267">
        <ele>71.016605</ele>
        <time>2022-01-09T03:35:40.821Z</time>
      </trkpt>
      <trkpt lat="50.314365" lon="7.588066">
        <ele>70.188048</ele>
        <time>2022-01-09T03:35:57.908Z</time>
      </trkpt>
      <trkpt lat="50.317001" lon="7.587767">
        <ele>67.982566</ele>
        <time>2022-01-09T03:36:52.829Z</time>
      </trkpt>
      <trkpt lat="50.320413" lon="7.587011">
        <ele>66.177136</ele>
        <time>2022-01-09T03:38:06.812Z</time>
      </trkpt>
      <trkpt lat="50.321181" lon="7.586904">
        <ele>65.929010</ele>
        <time>2022-01-09T03:38:23.228Z</time>
      </trkpt>
      <trkpt lat="50.322386" lon="7.586898">
        <ele>65.776435</ele>
        <time>2022-01-09T03:38:50.606Z</time>
      </trkpt>
      <trkpt lat="50.322832" lon="7.586841">
        <ele>65.841313</ele>
        <time>2022-01-09T03:39:01.734Z</time>
      </trkpt>
      <trkpt lat="50.322932" lon="7.586877">
        <ele>65.882087</ele>
        <time>2022-01-09T03:39:05.602Z</time>
      </trkpt>
      <trkpt lat="50.323595" lon="7.587101">
        <ele>66.151614</ele>
        <time>2022-01-09T03:39:32.075Z</time>
      </trkpt>
      <trkpt lat="50.323818" lon="7.587176">
        <ele>66.242251</ele>
        <time>2022-01-09T03:39:40.947Z</time>
      </trkpt>
      <trkpt lat="50.324060" lon="7.587237">
        <ele>66.339655</ele>
        <time>2022-01-09T03:39:50.479Z</time>
      </trkpt>
      <trkpt lat="50.324271" lon="7.587291">
        <ele>66.424616</ele>
        <time>2022-01-09T03:39:58.904Z</time>
      </trkpt>
      <trkpt lat="50.325459" lon="7.587708">
        <ele>66.728424</ele>
        <time>2022-01-09T03:40:45.474Z</time>
      </trkpt>
      <trkpt lat="50.325979" lon="7.587882">
        <ele>66.854167</ele>
        <time>2022-01-09T03:41:05.374Z</time>
      </trkpt>
      <trkpt lat="50.327501" lon="7.588474">
        <ele>66.902867</ele>
        <time>2022-01-09T03:41:44.689Z</time>
      </trkpt>
      <trkpt lat="50.333396" lon="7.591164">
        <ele>65.960541</ele>
        <time>2022-01-09T03:44:11.695Z</time>
      </trkpt>
      <trkpt lat="50.333461" lon="7.591204">
        <ele>65.967634</ele>
        <time>2022-01-09T03:44:13.782Z</time>
      </trkpt>
      <trkpt lat="50.333556" lon="7.591412">
        <ele>65.984215</ele>
        <time>2022-01-09T03:44:17.868Z</time>
      </trkpt>
      <trkpt lat="50.333826" lon="7.591559">
        <ele>66.013245</ele>
        <time>2022-01-09T03:44:25.395Z</time>
      </trkpt>
      <trkpt lat="50.333965" lon="7.591425">
        <ele>66.029821</ele>
        <time>2022-01-09T03:44:29.255Z</time>
      </trkpt>
      <trkpt lat="50.334131" lon="7.591478">
        <ele>66.047027</ele>
        <time>2022-01-09T03:44:33.985Z</time>
      </trkpt>
      <trkpt lat="50.334437" lon="7.591626">
        <ele>66.079553</ele>
        <time>2022-01-09T03:44:41.325Z</time>
      </trkpt>
      <trkpt lat="50.335698" lon="7.592276">
        <ele>65.988865</ele>
        <time>2022-01-09T03:45:11.133Z</time>
      </trkpt>
      <trkpt lat="50.336871" lon="7.592770">
        <ele>65.827605</ele>
        <time>2022-01-09T03:45:36.414Z</time>
      </trkpt>
      <trkpt lat="50.338353" lon="7.593339">
        <ele>65.766979</ele>
        <time>2022-01-09T03:46:09.381Z</time>
      </trkpt>
      <trkpt lat="50.339589" lon="7.593817">
        <ele>66.739081</ele>
        <time>2022-01-09T03:46:40.360Z</time>
      </trkpt>
      <trkpt lat="50.339845" lon="7.593916">
        <ele>66.940422</ele>
        <time>2022-01-09T03:46:48.653Z</time>
      </trkpt>
      <trkpt lat="50.340318" lon="7.594092">
        <ele>67.829897</ele>
        <time>2022-01-09T03:47:03.645Z</time>
      </trkpt>
      <trkpt lat="50.340300" lon="7.593818">
        <ele>68.174294</ele>
        <time>2022-01-09T03:47:09.379Z</time>
      </trkpt>
      <trkpt lat="50.340140" lon="7.593609">
        <ele>68.582383</ele>
        <time>2022-01-09T03:47:15.652Z</time>
      </trkpt>
      <trkpt lat="50.340214" lon="7.593187">
        <ele>69.129572</ele>
        <time>2022-01-09T03:47:24.552Z</time>
      </trkpt>
      <trkpt lat="50.340300" lon="7.592669">
        <ele>69.798793</ele>
        <time>2022-01-09T03:47:34.958Z</time>
      </trkpt>
      <trkpt lat="50.340381" lon="7.592088">
        <ele>70.506328</ele>
        <time>2022-01-09T03:47:46.202Z</time>
      </trkpt>
      <trkpt lat="50.340508" lon="7.592073">
        <ele>70.519920</ele>
        <time>2022-01-09T03:47:49.716Z</time>
      </trkpt>
      <trkpt lat="50.340614" lon="7.591901">
        <ele>70.536205</ele>
        <time>2022-01-09T03:47:54.273Z</time>
      </trkpt>
      <trkpt lat="50.340631" lon="7.591749">
        <ele>70.546716</ele>
        <time>2022-01-09T03:47:56.998Z</time>
      </trkpt>
      <trkpt lat="50.340578" lon="7.591568">
        <ele>70.560279</ele>
        <time>2022-01-09T03:48:00.296Z</time>
      </trkpt>
      <trkpt lat="50.341115" lon="7.590749">
        <ele>70.640253</ele>
        <time>2022-01-09T03:48:17.006Z</time>
      </trkpt>
      <trkpt lat="50.341482" lon="7.590211">
        <ele>70.693887</ele>
        <time>2022-01-09T03:48:26.495Z</time>
      </trkpt>
      <trkpt lat="50.341741" lon="7.589835">
        <ele>70.374115</ele>
        <time>2022-01-09T03:48:33.056Z</time>
      </trkpt>
      <trkpt lat="50.341798" lon="7.589756">
        <ele>70.300155</ele>
        <time>2022-01-09T03:48:34.467Z</time>
      </trkpt>
      <trkpt lat="50.341947" lon="7.589755">
        <ele>70.155340</ele>
        <time>2022-01-09T03:48:37.217Z</time>
      </trkpt>
      <trkpt lat="50.342261" lon="7.589393">
        <ele>69.776460</ele>
        <time>2022-01-09T03:48:44.432Z</time>
      </trkpt>
      <trkpt lat="50.342291" lon="7.589346">
        <ele>69.735229</ele>
        <time>2022-01-09T03:48:45.219Z</time>
      </trkpt>
      <trkpt lat="50.342425" lon="7.589584">
        <ele>69.538369</ele>
        <time>2022-01-09T03:48:50.408Z</time>
      </trkpt>
      <trkpt lat="50.343285" lon="7.591143">
        <ele>69.355129</ele>
        <time>2022-01-09T03:49:26.737Z</time>
      </trkpt>
      <trkpt lat="50.343333" lon="7.591223">
        <ele>69.395428</ele>
        <time>2022-01-09T03:49:28.839Z</time>
      </trkpt>
      <trkpt lat="50.344343" lon="7.592937">
        <ele>70.401857</ele>
        <time>2022-01-09T03:50:20.523Z</time>
      </trkpt>
      <trkpt lat="50.344561" lon="7.593307">
        <ele>70.689826</ele>
        <time>2022-01-09T03:50:31.938Z</time>
      </trkpt>
      <trkpt lat="50.344615" lon="7.593320">
        <ele>70.738781</ele>
        <time>2022-01-09T03:50:33.781Z</time>
      </trkpt>
      <trkpt lat="50.344861" lon="7.593648">
        <ele>71.028213</ele>
        <time>2022-01-09T03:50:44.582Z</time>
      </trkpt>
      <trkpt lat="50.345256" lon="7.594341">
        <ele>71.559550</ele>
        <time>2022-01-09T03:51:03.434Z</time>
      </trkpt>
      <trkpt lat="50.345782" lon="7.595275">
        <ele>70.513183</ele>
        <time>2022-01-09T03:51:25.146Z</time>
      </trkpt>
      <trkpt lat="50.346147" lon="7.595784">
        <ele>69.814803</ele>
        <time>2022-01-09T03:51:36.866Z</time>
      </trkpt>
      <trkpt lat="50.346303" lon="7.595979">
        <ele>69.529576</ele>
        <time>2022-01-09T03:51:41.513Z</time>
      </trkpt>
      <trkpt lat="50.347682" lon="7.597582">
        <ele>66.152635</ele>
        <time>2022-01-09T03:52:21.646Z</time>
      </trkpt>
      <trkpt lat="50.347868" lon="7.597764">
        <ele>65.690726</ele>
        <time>2022-01-09T03:52:27.056Z</time>
      </trkpt>
      <trkpt lat="50.347935" lon="7.597832">
        <ele>65.522578</ele>
        <time>2022-01-09T03:52:29.002Z</time>
      </trkpt>
      <trkpt lat="50.348439" lon="7.598301">
        <ele>65.027297</ele>
        <time>2022-01-09T03:52:40.299Z</time>
      </trkpt>
      <trkpt lat="50.348907" lon="7.598717">
        <ele>64.779206</ele>
        <time>2022-01-09T03:52:51.402Z</time>
      </trkpt>
      <trkpt lat="50.349431" lon="7.599220">
        <ele>64.495865</ele>
        <time>2022-01-09T03:53:05.781Z</time>
      </trkpt>
      <trkpt lat="50.350566" lon="7.600152">
        <ele>64.474389</ele>
        <time>2022-01-09T03:53:33.473Z</time>
      </trkpt>
      <trkpt lat="50.350637" lon="7.600213">
        <ele>64.479556</ele>
        <time>2022-01-09T03:53:35.125Z</time>
      </trkpt>
      <trkpt lat="50.351967" lon="7.601277">
        <ele>64.708015</ele>
        <time>2022-01-09T03:54:10.396Z</time>
      </trkpt>
      <trkpt lat="50.352006" lon="7.601308">
        <ele>64.717575</ele>
        <time>2022-01-09T03:54:11.382Z</time>
      </trkpt>
      <trkpt lat="50.352072" lon="7.601349">
        <ele>64.733096</ele>
        <time>2022-01-09T03:54:13.483Z</time>
      </trkpt>
      <trkpt lat="50.352776" lon="7.601794">
        <ele>64.899045</ele>
        <time>2022-01-09T03:54:36.053Z</time>
      </trkpt>
      <trkpt lat="50.352850" lon="7.601839">
        <ele>64.909697</ele>
        <time>2022-01-09T03:54:38.482Z</time>
      </trkpt>
      <trkpt lat="50.353904" lon="7.602487">
        <ele>64.645075</ele>
        <time>2022-01-09T03:55:12.340Z</time>
      </trkpt>
      <trkpt lat="50.354846" lon="7.603081">
        <ele>64.599184</ele>
        <time>2022-01-09T03:55:32.122Z</time>
      </trkpt>
      <trkpt lat="50.354849" lon="7.603356">
        <ele>64.650522</ele>
        <time>2022-01-09T03:55:35.646Z</time>
      </trkpt>
      <trkpt lat="50.355117" lon="7.603464">
        <ele>64.731475</ele>
        <time>2022-01-09T03:55:43.555Z</time>
      </trkpt>
      <trkpt lat="50.355381" lon="7.603657">
        <ele>64.816696</ele>
        <time>2022-01-09T03:55:52.609Z</time>
      </trkpt>
      <trkpt lat="50.355797" lon="7.603780">
        <ele>64.940543</ele>
        <time>2022-01-09T03:56:06.901Z</time>
      </trkpt>
      <trkpt lat="50.356152" lon="7.603953">
        <ele>65.153259</ele>
        <time>2022-01-09T03:56:19.888Z</time>
      </trkpt>
      <trkpt lat="50.356616" lon="7.604112">
        <ele>65.768303</ele>
        <time>2022-01-09T03:56:36.709Z</time>
      </trkpt>
      <trkpt lat="50.356722" lon="7.604065">
        <ele>65.910953</ele>
        <time>2022-01-09T03:56:40.560Z</time>
      </trkpt>
      <trkpt lat="50.357054" lon="7.603817">
        <ele>66.387200</ele>
        <time>2022-01-09T03:56:50.989Z</time>
      </trkpt>
      <trkpt lat="50.357240" lon="7.603824">
        <ele>66.628128</ele>
        <time>2022-01-09T03:56:56.339Z</time>
      </trkpt>
      <trkpt lat="50.357550" lon="7.603917">
        <ele>67.036845</ele>
        <time>2022-01-09T03:57:04.880Z</time>
      </trkpt>
      <trkpt lat="50.357875" lon="7.604015">
        <ele>67.456945</ele>
        <time>2022-01-09T03:57:13.293Z</time>
      </trkpt>
      <trkpt lat="50.358155" lon="7.604100">
        <ele>67.799596</ele>
        <time>2022-01-09T03:57:19.976Z</time>
      </trkpt>
      <trkpt lat="50.358439" lon="7.604185">
        <ele>68.146967</ele>
        <time>2022-01-09T03:57:27.454Z</time>
      </trkpt>
      <trkpt lat="50.358782" lon="7.604287">
        <ele>68.566408</ele>
        <time>2022-01-09T03:57:37.404Z</time>
      </trkpt>
      <trkpt lat="50.359314" lon="7.604435">
        <ele>69.215557</ele>
        <time>2022-01-09T03:57:51.653Z</time>
      </trkpt>
      <trkpt lat="50.359682" lon="7.604538">
        <ele>69.745860</ele>
        <time>2022-01-09T03:58:02.169Z</time>
      </trkpt>
      <trkpt lat="50.359791" lon="7.603734">
        <ele>70.704481</ele>
        <time>2022-01-09T03:58:18.556Z</time>
      </trkpt>
      <trkpt lat="50.359962" lon="7.602592">
        <ele>72.072554</ele>
        <time>2022-01-09T03:58:42.141Z</time>
      </trkpt>
      <trkpt lat="50.360190" lon="7.601335">
        <ele>72.841637</ele>
        <time>2022-01-09T03:59:11.166Z</time>
      </trkpt>
      <trkpt lat="50.360197" lon="7.601292">
        <ele>72.844516</ele>
        <time>2022-01-09T03:59:11.985Z</time>
      </trkpt>
      <trkpt lat="50.360247" lon="7.601009">
        <ele>72.863570</ele>
        <time>2022-01-09T03:59:17.197Z</time>
      </trkpt>
      <trkpt lat="50.360712" lon="7.601185">
        <ele>72.912224</ele>
        <time>2022-01-09T03:59:26.780Z</time>
      </trkpt>
      <trkpt lat="50.361194" lon="7.601358">
        <ele>72.962517</ele>
        <time>2022-01-09T03:59:36.740Z</time>
      </trkpt>
      <trkpt lat="50.361713" lon="7.601538">
        <ele>73.400586</ele>
        <time>2022-01-09T03:59:48.301Z</time>
      </trkpt>
      <trkpt lat="50.361712" lon="7.601005">
        <ele>73.799151</ele>
        <time>2022-01-09T03:59:56.426Z</time>
      </trkpt>
      <trkpt lat="50.361722" lon="7.600419">
        <ele>74.237504</ele>
        <time>2022-01-09T04:00:06.464Z</time>
      </trkpt>
      <trkpt lat="50.361756" lon="7.599370">
        <ele>75.022932</ele>
        <time>2022-01-09T04:00:26.817Z</time>
      </trkpt>
      <trkpt lat="50.361751" lon="7.598434">
        <ele>76.331018</ele>
        <time>2022-01-09T04:00:47.147Z</time>
      </trkpt>
      <trkpt lat="50.361751" lon="7.598383">
        <ele>76.405709</ele>
        <time>2022-01-09T04:00:48.278Z</time>
      </trkpt>
      <trkpt lat="50.361751" lon="7.598176">
        <ele>76.708869</ele>
        <time>2022-01-09T04:00:52.826Z</time>
      </trkpt>
      <trkpt lat="50.361823" lon="7.597249">
        <ele>78.076520</ele>
        <time>2022-01-09T04:01:14.222Z</time>
      </trkpt>
      <trkpt lat="50.361847" lon="7.596925">
        <ele>78.554218</ele>
        <time>2022-01-09T04:01:20.998Z</time>
      </trkpt>
      <trkpt lat="50.361878" lon="7.596633">
        <ele>78.987744</ele>
        <time>2022-01-09T04:01:26.407Z</time>
      </trkpt>
      <trkpt lat="50.361939" lon="7.596143">
        <ele>78.890220</ele>
        <time>2022-01-09T04:01:34.338Z</time>
      </trkpt>
      <trkpt lat="50.362015" lon="7.595428">
        <ele>78.196845</ele>
        <time>2022-01-09T04:01:42.920Z</time>
      </trkpt>
      <trkpt lat="50.362031" lon="7.595255">
        <ele>78.029629</ele>
        <time>2022-01-09T04:01:44.931Z</time>
      </trkpt>
      <trkpt lat="50.362104" lon="7.594593">
        <ele>77.386991</ele>
        <time>2022-01-09T04:01:52.647Z</time>
      </trkpt>
      <trkpt lat="50.362109" lon="7.594521">
        <ele>77.317711</ele>
        <time>2022-01-09T04:01:53.509Z</time>
      </trkpt>
      <trkpt lat="50.362175" lon="7.593807">
        <ele>76.627591</ele>
        <time>2022-01-09T04:02:01.162Z</time>
      </trkpt>
      <trkpt lat="50.362253" lon="7.593783">
        <ele>76.496787</ele>
        <time>2022-01-09T04:02:03.311Z</time>
      </trkpt>
      <trkpt lat="50.362394" lon="7.593566">
        <ele>75.918649</ele>
        <time>2022-01-09T04:02:09.490Z</time>
      </trkpt>
      <trkpt lat="50.362399" lon="7.593411">
        <ele>75.628973</ele>
        <time>2022-01-09T04:02:12.167Z</time>
      </trkpt>
      <trkpt lat="50.363230" lon="7.593223">
        <ele>73.172392</ele>
        <time>2022-01-09T04:02:25.652Z</time>
      </trkpt>
      <trkpt lat="50.363781" lon="7.593098">
        <ele>71.543448</ele>
        <time>2022-01-09T04:02:35.233Z</time>
      </trkpt>
      <trkpt lat="50.363925" lon="7.593054">
        <ele>71.191512</ele>
        <time>2022-01-09T04:02:37.591Z</time>
      </trkpt>
      <trkpt lat="50.363781" lon="7.593098">
        <ele>70.993005</ele>
        <time>2022-01-09T04:02:40.718Z</time>
      </trkpt>
      <trkpt lat="50.363230" lon="7.593223">
        <ele>70.239703</ele>
        <time>2022-01-09T04:02:50.615Z</time>
      </trkpt>
      <trkpt lat="50.363781" lon="7.593098">
        <ele>69.486401</ele>
        <time>2022-01-09T04:03:01.292Z</time>
      </trkpt>
      <trkpt lat="50.363925" lon="7.593054">
        <ele>69.287894</ele>
        <time>2022-01-09T04:03:03.766Z</time>
      </trkpt>
      <trkpt lat="50.365185" lon="7.592666">
        <ele>69.057233</ele>
        <time>2022-01-09T04:03:30.953Z</time>
      </trkpt>
      <trkpt lat="50.365485" lon="7.592649">
        <ele>69.131486</ele>
        <time>2022-01-09T04:03:37.994Z</time>
      </trkpt>
      <trkpt lat="50.365750" lon="7.592696">
        <ele>69.197451</ele>
        <time>2022-01-09T04:03:45.212Z</time>
      </trkpt>
      <trkpt lat="50.365990" lon="7.592834">
        <ele>69.260682</ele>
        <time>2022-01-09T04:03:52.192Z</time>
      </trkpt>
      <trkpt lat="50.366177" lon="7.593011">
        <ele>69.410402</ele>
        <time>2022-01-09T04:03:58.174Z</time>
      </trkpt>
      <trkpt lat="50.366378" lon="7.593320">
        <ele>69.626585</ele>
        <time>2022-01-09T04:04:06.249Z</time>
      </trkpt>
      <trkpt lat="50.366506" lon="7.593739">
        <ele>69.854152</ele>
        <time>2022-01-09T04:04:14.563Z</time>
      </trkpt>
      <trkpt lat="50.366574" lon="7.594250">
        <ele>70.109849</ele>
        <time>2022-01-09T04:04:23.761Z</time>
      </trkpt>
      <trkpt lat="50.366539" lon="7.594378">
        <ele>70.178066</ele>
        <time>2022-01-09T04:04:29.957Z</time>
      </trkpt>
      <trkpt lat="50.366478" lon="7.594588">
        <ele>70.291096</ele>
        <time>2022-01-09T04:04:40.185Z</time>
      </trkpt>
      <trkpt lat="50.366383" lon="7.594740">
        <ele>70.395336</ele>
        <time>2022-01-09T04:04:49.606Z</time>
      </trkpt>
      <trkpt lat="50.366649" lon="7.594724">
        <ele>70.599754</ele>
        <time>2022-01-09T04:04:55.379Z</time>
      </trkpt>
      <trkpt lat="50.366733" lon="7.595159">
        <ele>70.246473</ele>
        <time>2022-01-09T04:05:01.145Z</time>
      </trkpt>
      <trkpt lat="50.366819" lon="7.595540">
        <ele>69.781241</ele>
        <time>2022-01-09T04:05:06.114Z</time>
      </trkpt>
      <trkpt lat="50.366991" lon="7.596342">
        <ele>68.807250</ele>
        <time>2022-01-09T04:05:15.539Z</time>
      </trkpt>
      <trkpt lat="50.367122" lon="7.596951">
        <ele>68.067426</ele>
        <time>2022-01-09T04:05:22.413Z</time>
      </trkpt>
      <trkpt lat="50.366830" lon="7.597067">
        <ele>67.523813</ele>
        <time>2022-01-09T04:05:27.524Z</time>
      </trkpt>
      <trkpt lat="50.366435" lon="7.597194">
        <ele>66.980363</ele>
        <time>2022-01-09T04:05:34.455Z</time>
      </trkpt>
      <trkpt lat="50.366466" lon="7.597946">
        <ele>66.375562</ele>
        <time>2022-01-09T04:05:43.094Z</time>
      </trkpt>
      <trkpt lat="50.366578" lon="7.598564">
        <ele>65.859936</ele>
        <time>2022-01-09T04:05:50.969Z</time>
      </trkpt>
      <trkpt lat="50.366940" lon="7.599444">
        <ele>65.163609</ele>
        <time>2022-01-09T04:06:04.603Z</time>
      </trkpt>
      <trkpt lat="50.367235" lon="7.600164">
        <ele>65.288271</ele>
        <time>2022-01-09T04:06:17.436Z</time>
      </trkpt>
      <trkpt lat="50.367157" lon="7.600242">
        <ele>65.309400</ele>
        <time>2022-01-09T04:06:19.720Z</time>
      </trkpt>
      <trkpt lat="50.366924" lon="7.600377">
        <ele>65.366131</ele>
        <time>2022-01-09T04:06:25.900Z</time>
      </trkpt>
      <trkpt lat="50.365915" lon="7.600523">
        <ele>65.514919</ele>
        <time>2022-01-09T04:06:50.067Z</time>
      </trkpt>
      <trkpt lat="50.365829" lon="7.600634">
        <ele>65.493948</ele>
        <time>2022-01-09T04:06:52.579Z</time>
      </trkpt>
      <trkpt lat="50.365904" lon="7.601653">
        <ele>65.370771</ele>
        <time>2022-01-09T04:07:06.639Z</time>
      </trkpt>
      <trkpt lat="50.366049" lon="7.602582">
        <ele>65.255924</ele>
        <time>2022-01-09T04:07:19.324Z</time>
      </trkpt>
      <trkpt lat="50.366172" lon="7.603065">
        <ele>65.167623</ele>
        <time>2022-01-09T04:07:26.174Z</time>
      </trkpt>
      <trkpt lat="50.366296" lon="7.603477">
        <ele>65.042855</ele>
        <time>2022-01-09T04:07:32.173Z</time>
      </trkpt>
      <trkpt lat="50.366310" lon="7.603520">
        <ele>65.029633</ele>
        <time>2022-01-09T04:07:32.830Z</time>
      </trkpt>
      <trkpt lat="50.366559" lon="7.604261">
        <ele>64.800250</ele>
        <time>2022-01-09T04:07:43.852Z</time>
      </trkpt>
      <trkpt lat="50.366866" lon="7.605244">
        <ele>64.500491</ele>
        <time>2022-01-09T04:07:58.292Z</time>
      </trkpt>
      <trkpt lat="50.367030" lon="7.605529">
        <ele>64.397013</ele>
        <time>2022-01-09T04:08:03.364Z</time>
      </trkpt>
      <trkpt lat="50.368279" lon="7.606366">
        <ele>63.834645</ele>
        <time>2022-01-09T04:08:31.775Z</time>
      </trkpt>
      <trkpt lat="50.369856" lon="7.607645">
        <ele>63.323776</ele>
        <time>2022-01-09T04:09:08.890Z</time>
      </trkpt>
      <trkpt lat="50.369972" lon="7.607723">
        <ele>63.291141</ele>
        <time>2022-01-09T04:09:12.542Z</time>
      </trkpt>
      <trkpt lat="50.370280" lon="7.607756">
        <ele>63.250907</ele>
        <time>2022-01-09T04:09:21.644Z</time>
      </trkpt>
      <trkpt lat="50.370920" lon="7.607930">
        <ele>63.409847</ele>
        <time>2022-01-09T04:09:40.944Z</time>
      </trkpt>
      <trkpt lat="50.371719" lon="7.608302">
        <ele>63.613795</ele>
        <time>2022-01-09T04:10:06.663Z</time>
      </trkpt>
      <trkpt lat="50.372300" lon="7.608562">
        <ele>63.866911</ele>
        <time>2022-01-09T04:10:25.411Z</time>
      </trkpt>
      <trkpt lat="50.372542" lon="7.608648">
        <ele>63.998755</ele>
        <time>2022-01-09T04:10:31.298Z</time>
      </trkpt>
      <trkpt lat="50.372979" lon="7.608839">
        <ele>64.239801</ele>
        <time>2022-01-09T04:10:42.265Z</time>
      </trkpt>
      <trkpt lat="50.373805" lon="7.609123">
        <ele>64.678743</ele>
        <time>2022-01-09T04:11:03.298Z</time>
      </trkpt>
      <trkpt lat="50.374304" lon="7.609360">
        <ele>64.909187</ele>
        <time>2022-01-09T04:11:15.856Z</time>
      </trkpt>
      <trkpt lat="50.374824" lon="7.609675">
        <ele>65.155573</ele>
        <time>2022-01-09T04:11:29.468Z</time>
      </trkpt>
      <trkpt lat="50.374992" lon="7.609830">
        <ele>65.241726</ele>
        <time>2022-01-09T04:11:34.371Z</time>
      </trkpt>
      <trkpt lat="50.375315" lon="7.610126">
        <ele>65.407080</ele>
        <time>2022-01-09T04:11:43.444Z</time>
      </trkpt>
      <trkpt lat="50.375436" lon="7.610236">
        <ele>65.456463</ele>
        <time>2022-01-09T04:11:46.186Z</time>
      </trkpt>
      <trkpt lat="50.375450" lon="7.610246">
        <ele>65.461443</ele>
        <time>2022-01-09T04:11:46.567Z</time>
      </trkpt>
      <trkpt lat="50.375958" lon="7.610589">
        <ele>65.640498</ele>
        <time>2022-01-09T04:11:58.496Z</time>
      </trkpt>
      <trkpt lat="50.376581" lon="7.610925">
        <ele>65.853779</ele>
        <time>2022-01-09T04:12:14.914Z</time>
      </trkpt>
      <trkpt lat="50.376671" lon="7.610977">
        <ele>65.884830</ele>
        <time>2022-01-09T04:12:17.460Z</time>
      </trkpt>
      <trkpt lat="50.376651" lon="7.611143">
        <ele>65.919708</ele>
        <time>2022-01-09T04:12:19.542Z</time>
      </trkpt>
      <trkpt lat="50.376969" lon="7.611276">
        <ele>66.010445</ele>
        <time>2022-01-09T04:12:27.921Z</time>
      </trkpt>
      <trkpt lat="50.377062" lon="7.611237">
        <ele>66.018755</ele>
        <time>2022-01-09T04:12:30.435Z</time>
      </trkpt>
      <trkpt lat="50.377324" lon="7.611323">
        <ele>66.041860</ele>
        <time>2022-01-09T04:12:36.483Z</time>
      </trkpt>
      <trkpt lat="50.377543" lon="7.610463">
        <ele>66.092834</ele>
        <time>2022-01-09T04:12:50.495Z</time>
      </trkpt>
      <trkpt lat="50.377620" lon="7.610528">
        <ele>66.100383</ele>
        <time>2022-01-09T04:12:52.048Z</time>
      </trkpt>
      <trkpt lat="50.377758" lon="7.610609">
        <ele>66.113101</ele>
        <time>2022-01-09T04:12:55.072Z</time>
      </trkpt>
      <trkpt lat="50.377959" lon="7.610717">
        <ele>66.131441</ele>
        <time>2022-01-09T04:12:59.693Z</time>
      </trkpt>
      <trkpt lat="50.377975" lon="7.610724">
        <ele>66.132875</ele>
        <time>2022-01-09T04:13:00.015Z</time>
      </trkpt>
      <trkpt lat="50.378116" lon="7.610799">
        <ele>66.145727</ele>
        <time>2022-01-09T04:13:03.613Z</time>
      </trkpt>
      <trkpt lat="50.378251" lon="7.610871">
        <ele>66.158035</ele>
        <time>2022-01-09T04:13:06.937Z</time>
      </trkpt>
      <trkpt lat="50.378441" lon="7.610991">
        <ele>66.088127</ele>
        <time>2022-01-09T04:13:11.412Z</time>
      </trkpt>
      <trkpt lat="50.378598" lon="7.611040">
        <ele>66.025178</ele>
        <time>2022-01-09T04:13:15.161Z</time>
      </trkpt>
      <trkpt lat="50.378844" lon="7.611091">
        <ele>65.927600</ele>
        <time>2022-01-09T04:13:20.191Z</time>
      </trkpt>
      <trkpt lat="50.379318" lon="7.611053">
        <ele>65.740962</ele>
        <time>2022-01-09T04:13:29.021Z</time>
      </trkpt>
      <trkpt lat="50.380463" lon="7.610879">
        <ele>65.627511</ele>
        <time>2022-01-09T04:13:54.309Z</time>
      </trkpt>
      <trkpt lat="50.380857" lon="7.610781">
        <ele>65.794702</ele>
        <time>2022-01-09T04:14:03.304Z</time>
      </trkpt>
      <trkpt lat="50.381307" lon="7.610669">
        <ele>65.985660</ele>
        <time>2022-01-09T04:14:14.912Z</time>
      </trkpt>
      <trkpt lat="50.381649" lon="7.610549">
        <ele>66.132538</ele>
        <time>2022-01-09T04:14:23.954Z</time>
      </trkpt>
      <trkpt lat="50.382097" lon="7.610284">
        <ele>66.397037</ele>
        <time>2022-01-09T04:14:36.047Z</time>
      </trkpt>
      <trkpt lat="50.382194" lon="7.610214">
        <ele>66.464326</ele>
        <time>2022-01-09T04:14:38.618Z</time>
      </trkpt>
      <trkpt lat="50.382229" lon="7.610061">
        <ele>66.529645</ele>
        <time>2022-01-09T04:14:41.366Z</time>
      </trkpt>
      <trkpt lat="50.382299" lon="7.609812">
        <ele>66.638997</ele>
        <time>2022-01-09T04:14:45.481Z</time>
      </trkpt>
      <trkpt lat="50.382520" lon="7.609025">
        <ele>66.984557</ele>
        <time>2022-01-09T04:14:58.329Z</time>
      </trkpt>
      <trkpt lat="50.382857" lon="7.609089">
        <ele>67.198480</ele>
        <time>2022-01-09T04:15:06.610Z</time>
      </trkpt>
      <trkpt lat="50.383088" lon="7.609245">
        <ele>67.370308</ele>
        <time>2022-01-09T04:15:13.039Z</time>
      </trkpt>
      <trkpt lat="50.383268" lon="7.609218">
        <ele>67.573506</ele>
        <time>2022-01-09T04:15:17.803Z</time>
      </trkpt>
      <trkpt lat="50.383399" lon="7.609068">
        <ele>67.755780</ele>
        <time>2022-01-09T04:15:22.270Z</time>
      </trkpt>
      <trkpt lat="50.383473" lon="7.608826">
        <ele>67.948094</ele>
        <time>2022-01-09T04:15:26.709Z</time>
      </trkpt>
      <trkpt lat="50.383452" lon="7.608555">
        <ele>68.143709</ele>
        <time>2022-01-09T04:15:31.423Z</time>
      </trkpt>
      <trkpt lat="50.383398" lon="7.608220">
        <ele>68.391307</ele>
        <time>2022-01-09T04:15:37.288Z</time>
      </trkpt>
      <trkpt lat="50.383393" lon="7.608174">
        <ele>68.424744</ele>
        <time>2022-01-09T04:15:38.085Z</time>
      </trkpt>
      <trkpt lat="50.383267" lon="7.607006">
        <ele>69.273575</ele>
        <time>2022-01-09T04:15:59.008Z</time>
      </trkpt>
      <trkpt lat="50.383191" lon="7.606071">
        <ele>69.965041</ele>
        <time>2022-01-09T04:16:15.211Z</time>
      </trkpt>
      <trkpt lat="50.383126" lon="7.605253">
        <ele>70.571862</ele>
        <time>2022-01-09T04:16:29.269Z</time>
      </trkpt>
      <trkpt lat="50.383066" lon="7.604553">
        <ele>71.091796</ele>
        <time>2022-01-09T04:16:41.416Z</time>
      </trkpt>
      <trkpt lat="50.383076" lon="7.604220">
        <ele>71.337203</ele>
        <time>2022-01-09T04:16:47.182Z</time>
      </trkpt>
      <trkpt lat="50.383179" lon="7.604122">
        <ele>71.460869</ele>
        <time>2022-01-09T04:16:50.393Z</time>
      </trkpt>
      <trkpt lat="50.383306" lon="7.603502">
        <ele>71.749030</ele>
        <time>2022-01-09T04:17:01.047Z</time>
      </trkpt>
      <trkpt lat="50.384025" lon="7.602510">
        <ele>72.413593</ele>
        <time>2022-01-09T04:17:24.542Z</time>
      </trkpt>
      <trkpt lat="50.384627" lon="7.601435">
        <ele>72.719112</ele>
        <time>2022-01-09T04:17:46.944Z</time>
      </trkpt>
      <trkpt lat="50.384703" lon="7.601275">
        <ele>72.727255</ele>
        <time>2022-01-09T04:17:49.896Z</time>
      </trkpt>
      <trkpt lat="50.385380" lon="7.600034">
        <ele>72.793916</ele>
        <time>2022-01-09T04:18:12.730Z</time>
      </trkpt>
      <trkpt lat="50.385880" lon="7.599158">
        <ele>72.513879</ele>
        <time>2022-01-09T04:18:28.151Z</time>
      </trkpt>
      <trkpt lat="50.387148" lon="7.596943">
        <ele>71.874524</ele>
        <time>2022-01-09T04:19:07.204Z</time>
      </trkpt>
      <trkpt lat="50.388105" lon="7.595270">
        <ele>71.765468</ele>
        <time>2022-01-09T04:19:39.448Z</time>
      </trkpt>
      <trkpt lat="50.388055" lon="7.595196">
        <ele>71.776842</ele>
        <time>2022-01-09T04:19:41.041Z</time>
      </trkpt>
      <trkpt lat="50.388143" lon="7.595042">
        <ele>71.798656</ele>
        <time>2022-01-09T04:19:44.115Z</time>
      </trkpt>
      <trkpt lat="50.388397" lon="7.594598">
        <ele>71.861580</ele>
        <time>2022-01-09T04:19:52.914Z</time>
      </trkpt>
      <trkpt lat="50.388447" lon="7.594670">
        <ele>71.872810</ele>
        <time>2022-01-09T04:19:54.465Z</time>
      </trkpt>
      <trkpt lat="50.388666" lon="7.594284">
        <ele>71.927313</ele>
        <time>2022-01-09T04:20:01.956Z</time>
      </trkpt>
      <trkpt lat="50.390989" lon="7.590226">
        <ele>72.657569</ele>
        <time>2022-01-09T04:21:21.995Z</time>
      </trkpt>
      <trkpt lat="50.392362" lon="7.587843">
        <ele>72.552419</ele>
        <time>2022-01-09T04:22:10.374Z</time>
      </trkpt>
      <trkpt lat="50.392443" lon="7.587788">
        <ele>72.537762</ele>
        <time>2022-01-09T04:22:12.054Z</time>
      </trkpt>
      <trkpt lat="50.392718" lon="7.587933">
        <ele>72.354985</ele>
        <time>2022-01-09T04:22:17.417Z</time>
      </trkpt>
      <trkpt lat="50.392954" lon="7.588280">
        <ele>71.578647</ele>
        <time>2022-01-09T04:22:23.045Z</time>
      </trkpt>
      <trkpt lat="50.393609" lon="7.589180">
        <ele>69.488799</ele>
        <time>2022-01-09T04:22:37.430Z</time>
      </trkpt>
      <trkpt lat="50.393840" lon="7.589496">
        <ele>68.753186</ele>
        <time>2022-01-09T04:22:42.473Z</time>
      </trkpt>
      <trkpt lat="50.394083" lon="7.589830">
        <ele>68.058355</ele>
        <time>2022-01-09T04:22:47.942Z</time>
      </trkpt>
      <trkpt lat="50.394541" lon="7.589011">
        <ele>67.046605</ele>
        <time>2022-01-09T04:23:00.329Z</time>
      </trkpt>
      <trkpt lat="50.394891" lon="7.588386">
        <ele>66.274046</ele>
        <time>2022-01-09T04:23:10.285Z</time>
      </trkpt>
      <trkpt lat="50.395651" lon="7.588939">
        <ele>65.376728</ele>
        <time>2022-01-09T04:23:27.080Z</time>
      </trkpt>
      <trkpt lat="50.396089" lon="7.589484">
        <ele>65.079281</ele>
        <time>2022-01-09T04:23:38.916Z</time>
      </trkpt>
      <trkpt lat="50.396646" lon="7.589446">
        <ele>64.782651</ele>
        <time>2022-01-09T04:23:49.987Z</time>
      </trkpt>
      <trkpt lat="50.397140" lon="7.589334">
        <ele>64.611288</ele>
        <time>2022-01-09T04:24:00.252Z</time>
      </trkpt>
      <trkpt lat="50.397343" lon="7.588912">
        <ele>64.622641</ele>
        <time>2022-01-09T04:24:07.550Z</time>
      </trkpt>
      <trkpt lat="50.397807" lon="7.587889">
        <ele>64.649603</ele>
        <time>2022-01-09T04:24:25.780Z</time>
      </trkpt>
      <trkpt lat="50.398080" lon="7.587330">
        <ele>64.664725</ele>
        <time>2022-01-09T04:24:36.330Z</time>
      </trkpt>
      <trkpt lat="50.398767" lon="7.585860">
        <ele>65.088332</ele>
        <time>2022-01-09T04:25:03.900Z</time>
      </trkpt>
      <trkpt lat="50.399506" lon="7.584063">
        <ele>65.528045</ele>
        <time>2022-01-09T04:25:36.167Z</time>
      </trkpt>
      <trkpt lat="50.399978" lon="7.583146">
        <ele>65.728475</ele>
        <time>2022-01-09T04:25:53.611Z</time>
      </trkpt>
      <trkpt lat="50.400349" lon="7.582581">
        <ele>65.811750</ele>
        <time>2022-01-09T04:26:05.846Z</time>
      </trkpt>
      <trkpt lat="50.400718" lon="7.582040">
        <ele>65.762741</ele>
        <time>2022-01-09T04:26:17.574Z</time>
      </trkpt>
      <trkpt lat="50.401453" lon="7.580648">
        <ele>65.645034</ele>
        <time>2022-01-09T04:26:42.311Z</time>
      </trkpt>
      <trkpt lat="50.403645" lon="7.577066">
        <ele>63.572002</ele>
        <time>2022-01-09T04:27:44.315Z</time>
      </trkpt>
      <trkpt lat="50.405327" lon="7.574372">
        <ele>64.068686</ele>
        <time>2022-01-09T04:28:42.086Z</time>
      </trkpt>
      <trkpt lat="50.406224" lon="7.573071">
        <ele>64.451243</ele>
        <time>2022-01-09T04:29:10.549Z</time>
      </trkpt>
      <trkpt lat="50.407317" lon="7.571638">
        <ele>64.822090</ele>
        <time>2022-01-09T04:29:43.425Z</time>
      </trkpt>
      <trkpt lat="50.409101" lon="7.569523">
        <ele>65.076253</ele>
        <time>2022-01-09T04:30:35.644Z</time>
      </trkpt>
      <trkpt lat="50.409742" lon="7.568728">
        <ele>64.756103</ele>
        <time>2022-01-09T04:30:52.107Z</time>
      </trkpt>
      <trkpt lat="50.410431" lon="7.567905">
        <ele>64.155856</ele>
        <time>2022-01-09T04:31:08.623Z</time>
      </trkpt>
      <trkpt lat="50.411347" lon="7.566632">
        <ele>64.030126</ele>
        <time>2022-01-09T04:31:34.729Z</time>
      </trkpt>
      <trkpt lat="50.411706" lon="7.565721">
        <ele>64.192936</ele>
        <time>2022-01-09T04:31:51.408Z</time>
      </trkpt>
      <trkpt lat="50.412191" lon="7.564564">
        <ele>64.442182</ele>
        <time>2022-01-09T04:32:14.087Z</time>
      </trkpt>
      <trkpt lat="50.412540" lon="7.563516">
        <ele>64.675796</ele>
        <time>2022-01-09T04:32:31.991Z</time>
      </trkpt>
      <trkpt lat="50.412706" lon="7.563096">
        <ele>64.773437</ele>
        <time>2022-01-09T04:32:38.776Z</time>
      </trkpt>
      <trkpt lat="50.413025" lon="7.562158">
        <ele>64.670540</ele>
        <time>2022-01-09T04:32:53.004Z</time>
      </trkpt>
      <trkpt lat="50.413461" lon="7.560923">
        <ele>64.373981</ele>
        <time>2022-01-09T04:33:11.147Z</time>
      </trkpt>
      <trkpt lat="50.413528" lon="7.560744">
        <ele>64.330377</ele>
        <time>2022-01-09T04:33:13.829Z</time>
      </trkpt>
      <trkpt lat="50.414286" lon="7.558484">
        <ele>64.714176</ele>
        <time>2022-01-09T04:33:51.388Z</time>
      </trkpt>
      <trkpt lat="50.414859" lon="7.556014">
        <ele>65.931346</ele>
        <time>2022-01-09T04:34:34.945Z</time>
      </trkpt>
      <trkpt lat="50.415342" lon="7.553854">
        <ele>67.017490</ele>
        <time>2022-01-09T04:35:11.894Z</time>
      </trkpt>
      <trkpt lat="50.415806" lon="7.551571">
        <ele>67.706151</ele>
        <time>2022-01-09T04:35:49.214Z</time>
      </trkpt>
      <trkpt lat="50.415957" lon="7.549947">
        <ele>67.841512</ele>
        <time>2022-01-09T04:36:12.901Z</time>
      </trkpt>
      <trkpt lat="50.415962" lon="7.549221">
        <ele>67.555235</ele>
        <time>2022-01-09T04:36:22.369Z</time>
      </trkpt>
      <trkpt lat="50.416338" lon="7.548097">
        <ele>66.797226</ele>
        <time>2022-01-09T04:36:43.462Z</time>
      </trkpt>
      <trkpt lat="50.416813" lon="7.546620">
        <ele>65.850613</ele>
        <time>2022-01-09T04:37:10.317Z</time>
      </trkpt>
      <trkpt lat="50.416833" lon="7.546380">
        <ele>65.722445</ele>
        <time>2022-01-09T04:37:14.254Z</time>
      </trkpt>
      <trkpt lat="50.416966" lon="7.546086">
        <ele>65.531521</ele>
        <time>2022-01-09T04:37:18.694Z</time>
      </trkpt>
      <trkpt lat="50.417324" lon="7.545086">
        <ele>64.924150</ele>
        <time>2022-01-09T04:37:33.373Z</time>
      </trkpt>
      <trkpt lat="50.417603" lon="7.544037">
        <ele>64.672515</ele>
        <time>2022-01-09T04:37:48.693Z</time>
      </trkpt>
      <trkpt lat="50.417619" lon="7.543979">
        <ele>64.671885</ele>
        <time>2022-01-09T04:37:49.607Z</time>
      </trkpt>
      <trkpt lat="50.417711" lon="7.543673">
        <ele>64.668514</ele>
        <time>2022-01-09T04:37:54.265Z</time>
      </trkpt>
      <trkpt lat="50.417949" lon="7.542832">
        <ele>64.659345</ele>
        <time>2022-01-09T04:38:07.630Z</time>
      </trkpt>
      <trkpt lat="50.418173" lon="7.541661">
        <ele>64.563008</ele>
        <time>2022-01-09T04:38:25.620Z</time>
      </trkpt>
      <trkpt lat="50.418351" lon="7.540683">
        <ele>64.336611</ele>
        <time>2022-01-09T04:38:39.877Z</time>
      </trkpt>
      <trkpt lat="50.418501" lon="7.539787">
        <ele>64.130405</ele>
        <time>2022-01-09T04:38:51.554Z</time>
      </trkpt>
      <trkpt lat="50.418564" lon="7.539265">
        <ele>64.001554</ele>
        <time>2022-01-09T04:38:58.327Z</time>
      </trkpt>
      <trkpt lat="50.418760" lon="7.537463">
        <ele>63.189173</ele>
        <time>2022-01-09T04:39:21.562Z</time>
      </trkpt>
      <trkpt lat="50.419451" lon="7.533660">
        <ele>61.506414</ele>
        <time>2022-01-09T04:40:11.977Z</time>
      </trkpt>
      <trkpt lat="50.419631" lon="7.532671">
        <ele>61.381112</ele>
        <time>2022-01-09T04:40:25.372Z</time>
      </trkpt>
      <trkpt lat="50.419733" lon="7.530968">
        <ele>61.275080</ele>
        <time>2022-01-09T04:40:49.102Z</time>
      </trkpt>
      <trkpt lat="50.419804" lon="7.530625">
        <ele>61.597084</ele>
        <time>2022-01-09T04:40:54.910Z</time>
      </trkpt>
      <trkpt lat="50.419877" lon="7.530153">
        <ele>62.030745</ele>
        <time>2022-01-09T04:41:05.709Z</time>
      </trkpt>
      <trkpt lat="50.419972" lon="7.529949">
        <ele>62.256349</ele>
        <time>2022-01-09T04:41:11.771Z</time>
      </trkpt>
      <trkpt lat="50.420010" lon="7.529619">
        <ele>62.555761</ele>
        <time>2022-01-09T04:41:19.652Z</time>
      </trkpt>
      <trkpt lat="50.419901" lon="7.528506">
        <ele>63.561168</ele>
        <time>2022-01-09T04:41:41.397Z</time>
      </trkpt>
      <trkpt lat="50.419739" lon="7.527608">
        <ele>64.126365</ele>
        <time>2022-01-09T04:41:57.618Z</time>
      </trkpt>
      <trkpt lat="50.419491" lon="7.526454">
        <ele>64.790635</ele>
        <time>2022-01-09T04:42:17.545Z</time>
      </trkpt>
      <trkpt lat="50.419206" lon="7.525243">
        <ele>65.169967</ele>
        <time>2022-01-09T04:42:37.437Z</time>
      </trkpt>
      <trkpt lat="50.419043" lon="7.524648">
        <ele>65.063536</ele>
        <time>2022-01-09T04:42:45.807Z</time>
      </trkpt>
      <trkpt lat="50.418797" lon="7.523877">
        <ele>64.921839</ele>
        <time>2022-01-09T04:42:56.731Z</time>
      </trkpt>
      <trkpt lat="50.418640" lon="7.523426">
        <ele>64.837385</ele>
        <time>2022-01-09T04:43:03.489Z</time>
      </trkpt>
      <trkpt lat="50.418136" lon="7.521992">
        <ele>64.505434</ele>
        <time>2022-01-09T04:43:26.462Z</time>
      </trkpt>
      <trkpt lat="50.418058" lon="7.521759">
        <ele>64.449426</ele>
        <time>2022-01-09T04:43:29.788Z</time>
      </trkpt>
      <trkpt lat="50.417725" lon="7.520901">
        <ele>64.235640</ele>
        <time>2022-01-09T04:43:42.344Z</time>
      </trkpt>
      <trkpt lat="50.417300" lon="7.519970">
        <ele>64.529421</ele>
        <time>2022-01-09T04:43:58.947Z</time>
      </trkpt>
      <trkpt lat="50.417131" lon="7.519647">
        <ele>64.693861</ele>
        <time>2022-01-09T04:44:05.766Z</time>
      </trkpt>
      <trkpt lat="50.416870" lon="7.519061">
        <ele>64.975168</ele>
        <time>2022-01-09T04:44:20.612Z</time>
      </trkpt>
      <trkpt lat="50.416270" lon="7.517901">
        <ele>65.648247</ele>
        <time>2022-01-09T04:44:52.766Z</time>
      </trkpt>
      <trkpt lat="50.416103" lon="7.517617">
        <ele>65.847976</ele>
        <time>2022-01-09T04:45:01.111Z</time>
      </trkpt>
      <trkpt lat="50.415872" lon="7.517226">
        <ele>66.123551</ele>
        <time>2022-01-09T04:45:12.742Z</time>
      </trkpt>
      <trkpt lat="50.415551" lon="7.516676">
        <ele>66.509027</ele>
        <time>2022-01-09T04:45:28.530Z</time>
      </trkpt>
      <trkpt lat="50.414766" lon="7.515095">
        <ele>66.555851</ele>
        <time>2022-01-09T04:46:05.162Z</time>
      </trkpt>
      <trkpt lat="50.414061" lon="7.513515">
        <ele>66.431223</ele>
        <time>2022-01-09T04:46:39.159Z</time>
      </trkpt>
      <trkpt lat="50.413840" lon="7.512567">
        <ele>66.490201</ele>
        <time>2022-01-09T04:46:57.817Z</time>
      </trkpt>
      <trkpt lat="50.412910" lon="7.509255">
        <ele>67.043047</ele>
        <time>2022-01-09T04:48:09.972Z</time>
      </trkpt>
      <trkpt lat="50.412352" lon="7.506702">
        <ele>66.549273</ele>
        <time>2022-01-09T04:48:58.213Z</time>
      </trkpt>
      <trkpt lat="50.411639" lon="7.503286">
        <ele>65.190264</ele>
        <time>2022-01-09T04:49:43.699Z</time>
      </trkpt>
      <trkpt lat="50.411102" lon="7.499764">
        <ele>64.887895</ele>
        <time>2022-01-09T04:50:34.053Z</time>
      </trkpt>
      <trkpt lat="50.411117" lon="7.499243">
        <ele>64.901161</ele>
        <time>2022-01-09T04:50:41.499Z</time>
      </trkpt>
      <trkpt lat="50.410832" lon="7.498081">
        <ele>64.934795</ele>
        <time>2022-01-09T04:50:59.601Z</time>
      </trkpt>
      <trkpt lat="50.410736" lon="7.497586">
        <ele>64.999834</ele>
        <time>2022-01-09T04:51:09.570Z</time>
      </trkpt>
      <trkpt lat="50.410654" lon="7.496914">
        <ele>65.085840</ele>
        <time>2022-01-09T04:51:19.845Z</time>
      </trkpt>
      <trkpt lat="50.410496" lon="7.496299">
        <ele>65.169192</ele>
        <time>2022-01-09T04:51:29.921Z</time>
      </trkpt>
      <trkpt lat="50.410241" lon="7.494248">
        <ele>65.246475</ele>
        <time>2022-01-09T04:51:59.747Z</time>
      </trkpt>
      <trkpt lat="50.410074" lon="7.491822">
        <ele>65.305007</ele>
        <time>2022-01-09T04:52:33.350Z</time>
      </trkpt>
      <trkpt lat="50.409875" lon="7.488272">
        <ele>65.671266</ele>
        <time>2022-01-09T04:53:27.492Z</time>
      </trkpt>
      <trkpt lat="50.410044" lon="7.485029">
        <ele>65.414524</ele>
        <time>2022-01-09T04:54:11.221Z</time>
      </trkpt>
      <trkpt lat="50.410197" lon="7.482252">
        <ele>65.234572</ele>
        <time>2022-01-09T04:54:50.438Z</time>
      </trkpt>
      <trkpt lat="50.410255" lon="7.481010">
        <ele>65.156120</ele>
        <time>2022-01-09T04:55:08.275Z</time>
      </trkpt>
      <trkpt lat="50.410565" lon="7.477592">
        <ele>64.455384</ele>
        <time>2022-01-09T04:55:54.459Z</time>
      </trkpt>
      <trkpt lat="50.410901" lon="7.475180">
        <ele>63.934354</ele>
        <time>2022-01-09T04:56:26.831Z</time>
      </trkpt>
      <trkpt lat="50.411338" lon="7.472974">
        <ele>63.910056</ele>
        <time>2022-01-09T04:57:00.133Z</time>
      </trkpt>
      <trkpt lat="50.411320" lon="7.472787">
        <ele>63.930054</ele>
        <time>2022-01-09T04:57:02.873Z</time>
      </trkpt>
      <trkpt lat="50.411338" lon="7.472709">
        <ele>63.938826</ele>
        <time>2022-01-09T04:57:04.150Z</time>
      </trkpt>
      <trkpt lat="50.411549" lon="7.471648">
        <ele>64.056353</ele>
        <time>2022-01-09T04:57:20.799Z</time>
      </trkpt>
      <trkpt lat="50.411853" lon="7.470351">
        <ele>64.194597</ele>
        <time>2022-01-09T04:57:41.004Z</time>
      </trkpt>
      <trkpt lat="50.412628" lon="7.467826">
        <ele>63.903757</ele>
        <time>2022-01-09T04:58:19.296Z</time>
      </trkpt>
      <trkpt lat="50.413557" lon="7.465168">
        <ele>63.499872</ele>
        <time>2022-01-09T04:59:00.622Z</time>
      </trkpt>
      <trkpt lat="50.413800" lon="7.464576">
        <ele>63.487702</ele>
        <time>2022-01-09T04:59:10.106Z</time>
      </trkpt>
      <trkpt lat="50.414422" lon="7.463029">
        <ele>63.456089</ele>
        <time>2022-01-09T04:59:44.129Z</time>
      </trkpt>
      <trkpt lat="50.414411" lon="7.462897">
        <ele>63.481428</ele>
        <time>2022-01-09T04:59:46.697Z</time>
      </trkpt>
      <trkpt lat="50.415392" lon="7.460715">
        <ele>64.477911</ele>
        <time>2022-01-09T05:00:29.524Z</time>
      </trkpt>
      <trkpt lat="50.415832" lon="7.459901">
        <ele>64.466177</ele>
        <time>2022-01-09T05:00:45.678Z</time>
      </trkpt>
      <trkpt lat="50.417490" lon="7.457466">
        <ele>64.102536</ele>
        <time>2022-01-09T05:01:33.160Z</time>
      </trkpt>
      <trkpt lat="50.418371" lon="7.456420">
        <ele>64.055672</ele>
        <time>2022-01-09T05:01:57.074Z</time>
      </trkpt>
      <trkpt lat="50.419557" lon="7.455256">
        <ele>64.516795</ele>
        <time>2022-01-09T05:02:30.987Z</time>
      </trkpt>
      <trkpt lat="50.420122" lon="7.454683">
        <ele>64.705708</ele>
        <time>2022-01-09T05:02:47.412Z</time>
      </trkpt>
      <trkpt lat="50.420761" lon="7.454049">
        <ele>64.918009</ele>
        <time>2022-01-09T05:03:05.380Z</time>
      </trkpt>
      <trkpt lat="50.421786" lon="7.453070">
        <ele>64.542440</ele>
        <time>2022-01-09T05:03:30.857Z</time>
      </trkpt>
      <trkpt lat="50.422605" lon="7.452349">
        <ele>64.006328</ele>
        <time>2022-01-09T05:03:49.217Z</time>
      </trkpt>
      <trkpt lat="50.423279" lon="7.451806">
        <ele>63.382522</ele>
        <time>2022-01-09T05:04:04.098Z</time>
      </trkpt>
      <trkpt lat="50.423550" lon="7.451583">
        <ele>63.128150</ele>
        <time>2022-01-09T05:04:10.037Z</time>
      </trkpt>
      <trkpt lat="50.424367" lon="7.450875">
        <ele>62.383340</ele>
        <time>2022-01-09T05:04:28.348Z</time>
      </trkpt>
      <trkpt lat="50.425215" lon="7.450255">
        <ele>61.771355</ele>
        <time>2022-01-09T05:04:47.504Z</time>
      </trkpt>
      <trkpt lat="50.425738" lon="7.449799">
        <ele>61.379973</ele>
        <time>2022-01-09T05:05:00.193Z</time>
      </trkpt>
      <trkpt lat="50.425929" lon="7.449684">
        <ele>61.252782</ele>
        <time>2022-01-09T05:05:04.363Z</time>
      </trkpt>
      <trkpt lat="50.426890" lon="7.449133">
        <ele>60.642620</ele>
        <time>2022-01-09T05:05:32.080Z</time>
      </trkpt>
      <trkpt lat="50.426953" lon="7.449032">
        <ele>60.588915</ele>
        <time>2022-01-09T05:05:33.825Z</time>
      </trkpt>
      <trkpt lat="50.427934" lon="7.448379">
        <ele>60.065902</ele>
        <time>2022-01-09T05:05:55.705Z</time>
      </trkpt>
      <trkpt lat="50.427982" lon="7.448347">
        <ele>60.046652</ele>
        <time>2022-01-09T05:05:56.791Z</time>
      </trkpt>
      <trkpt lat="50.428177" lon="7.448222">
        <ele>59.968904</ele>
        <time>2022-01-09T05:06:01.219Z</time>
      </trkpt>
      <trkpt lat="50.428633" lon="7.447925">
        <ele>59.786674</ele>
        <time>2022-01-09T05:06:12.673Z</time>
      </trkpt>
      <trkpt lat="50.429210" lon="7.447745">
        <ele>59.580921</ele>
        <time>2022-01-09T05:06:26.746Z</time>
      </trkpt>
      <trkpt lat="50.429840" lon="7.447456">
        <ele>59.521081</ele>
        <time>2022-01-09T05:06:42.779Z</time>
      </trkpt>
      <trkpt lat="50.430731" lon="7.446950">
        <ele>59.434696</ele>
        <time>2022-01-09T05:07:05.939Z</time>
      </trkpt>
      <trkpt lat="50.431390" lon="7.446513">
        <ele>59.475322</ele>
        <time>2022-01-09T05:07:23.577Z</time>
      </trkpt>
      <trkpt lat="50.431992" lon="7.445853">
        <ele>59.546775</ele>
        <time>2022-01-09T05:07:41.901Z</time>
      </trkpt>
      <trkpt lat="50.432240" lon="7.445693">
        <ele>59.572866</ele>
        <time>2022-01-09T05:07:48.762Z</time>
      </trkpt>
      <trkpt lat="50.432719" lon="7.445390">
        <ele>59.730398</ele>
        <time>2022-01-09T05:08:02.019Z</time>
      </trkpt>
      <trkpt lat="50.433070" lon="7.445056">
        <ele>59.926612</ele>
        <time>2022-01-09T05:08:12.683Z</time>
      </trkpt>
      <trkpt lat="50.434893" lon="7.443670">
        <ele>61.041411</ele>
        <time>2022-01-09T05:09:07.590Z</time>
      </trkpt>
      <trkpt lat="50.435114" lon="7.443415">
        <ele>61.216241</ele>
        <time>2022-01-09T05:09:15.240Z</time>
      </trkpt>
      <trkpt lat="50.435473" lon="7.443184">
        <ele>61.463557</ele>
        <time>2022-01-09T05:09:26.169Z</time>
      </trkpt>
      <trkpt lat="50.436943" lon="7.441767">
        <ele>62.336420</ele>
        <time>2022-01-09T05:10:12.696Z</time>
      </trkpt>
      <trkpt lat="50.437618" lon="7.441217">
        <ele>62.490814</ele>
        <time>2022-01-09T05:10:31.687Z</time>
      </trkpt>
      <trkpt lat="50.438157" lon="7.440505">
        <ele>62.509801</ele>
        <time>2022-01-09T05:10:48.794Z</time>
      </trkpt>
      <trkpt lat="50.438450" lon="7.440254">
        <ele>62.518797</ele>
        <time>2022-01-09T05:10:56.862Z</time>
      </trkpt>
      <trkpt lat="50.438730" lon="7.439872">
        <ele>62.543282</ele>
        <time>2022-01-09T05:11:06.424Z</time>
      </trkpt>
      <trkpt lat="50.439184" lon="7.438718">
        <ele>62.723095</ele>
        <time>2022-01-09T05:11:28.289Z</time>
      </trkpt>
      <trkpt lat="50.439406" lon="7.438333">
        <ele>62.791942</ele>
        <time>2022-01-09T05:11:36.834Z</time>
      </trkpt>
      <trkpt lat="50.439519" lon="7.437968">
        <ele>62.845741</ele>
        <time>2022-01-09T05:11:43.015Z</time>
      </trkpt>
      <trkpt lat="50.439884" lon="7.437524">
        <ele>62.952019</ele>
        <time>2022-01-09T05:11:53.529Z</time>
      </trkpt>
      <trkpt lat="50.440820" lon="7.436003">
        <ele>63.302245</ele>
        <time>2022-01-09T05:12:25.087Z</time>
      </trkpt>
      <trkpt lat="50.441245" lon="7.435132">
        <ele>63.457692</ele>
        <time>2022-01-09T05:12:41.111Z</time>
      </trkpt>
      <trkpt lat="50.441711" lon="7.433978">
        <ele>63.632442</ele>
        <time>2022-01-09T05:13:01.272Z</time>
      </trkpt>
      <trkpt lat="50.441913" lon="7.433339">
        <ele>63.723676</ele>
        <time>2022-01-09T05:13:11.649Z</time>
      </trkpt>
      <trkpt lat="50.441894" lon="7.433214">
        <ele>63.748468</ele>
        <time>2022-01-09T05:13:13.481Z</time>
      </trkpt>
      <trkpt lat="50.441452" lon="7.433063">
        <ele>63.913253</ele>
        <time>2022-01-09T05:13:24.074Z</time>
      </trkpt>
      <trkpt lat="50.440766" lon="7.432807">
        <ele>64.170121</ele>
        <time>2022-01-09T05:13:40.950Z</time>
      </trkpt>
      <trkpt lat="50.439056" lon="7.432113">
        <ele>65.159861</ele>
        <time>2022-01-09T05:14:27.628Z</time>
      </trkpt>
      <trkpt lat="50.439003" lon="7.431975">
        <ele>65.227473</ele>
        <time>2022-01-09T05:14:30.735Z</time>
      </trkpt>
      <trkpt lat="50.439076" lon="7.430308">
        <ele>65.379868</ele>
        <time>2022-01-09T05:14:56.457Z</time>
      </trkpt>
      <trkpt lat="50.439640" lon="7.428264">
        <ele>64.887392</ele>
        <time>2022-01-09T05:15:26.141Z</time>
      </trkpt>
      <trkpt lat="50.440170" lon="7.426374">
        <ele>64.451690</ele>
        <time>2022-01-09T05:15:54.243Z</time>
      </trkpt>
      <trkpt lat="50.439375" lon="7.425769">
        <ele>64.705174</ele>
        <time>2022-01-09T05:16:16.353Z</time>
      </trkpt>
      <trkpt lat="50.438760" lon="7.425372">
        <ele>65.128262</ele>
        <time>2022-01-09T05:16:33.832Z</time>
      </trkpt>
      <trkpt lat="50.436707" lon="7.424047">
        <ele>66.660724</ele>
        <time>2022-01-09T05:17:32.597Z</time>
      </trkpt>
      <trkpt lat="50.436022" lon="7.423668">
        <ele>66.786395</ele>
        <time>2022-01-09T05:17:49.682Z</time>
      </trkpt>
      <trkpt lat="50.436003" lon="7.423579">
        <ele>66.788525</ele>
        <time>2022-01-09T05:17:51.197Z</time>
      </trkpt>
      <trkpt lat="50.434881" lon="7.422859">
        <ele>66.811352</ele>
        <time>2022-01-09T05:18:26.961Z</time>
      </trkpt>
      <trkpt lat="50.435029" lon="7.422358">
        <ele>66.684396</ele>
        <time>2022-01-09T05:18:36.771Z</time>
      </trkpt>
      <trkpt lat="50.434990" lon="7.422333">
        <ele>66.669192</ele>
        <time>2022-01-09T05:18:37.562Z</time>
      </trkpt>
      <trkpt lat="50.434956" lon="7.422313">
        <ele>66.656088</ele>
        <time>2022-01-09T05:18:38.252Z</time>
      </trkpt>
      <trkpt lat="50.434983" lon="7.422223">
        <ele>66.633218</ele>
        <time>2022-01-09T05:18:39.662Z</time>
      </trkpt>
      <trkpt lat="50.435021" lon="7.422095">
        <ele>66.600754</ele>
        <time>2022-01-09T05:18:41.581Z</time>
      </trkpt>
      <trkpt lat="50.435047" lon="7.422015">
        <ele>66.580107</ele>
        <time>2022-01-09T05:18:42.812Z</time>
      </trkpt>
      <trkpt lat="50.435467" lon="7.420702">
        <ele>66.242345</ele>
        <time>2022-01-09T05:19:02.077Z</time>
      </trkpt>
      <trkpt lat="50.435555" lon="7.420400">
        <ele>66.161178</ele>
        <time>2022-01-09T05:19:06.679Z</time>
      </trkpt>
      <trkpt lat="50.435625" lon="7.420173">
        <ele>66.084224</ele>
        <time>2022-01-09T05:19:09.913Z</time>
      </trkpt>
      <trkpt lat="50.435967" lon="7.419143">
        <ele>65.729805</ele>
        <time>2022-01-09T05:19:25.985Z</time>
      </trkpt>
      <trkpt lat="50.436080" lon="7.418780">
        <ele>65.606524</ele>
        <time>2022-01-09T05:19:31.461Z</time>
      </trkpt>
      <trkpt lat="50.436217" lon="7.418326">
        <ele>65.453238</ele>
        <time>2022-01-09T05:19:38.195Z</time>
      </trkpt>
      <trkpt lat="50.436483" lon="7.417578">
        <ele>65.299850</ele>
        <time>2022-01-09T05:19:49.877Z</time>
      </trkpt>
      <trkpt lat="50.436664" lon="7.416998">
        <ele>65.270043</ele>
        <time>2022-01-09T05:19:59.186Z</time>
      </trkpt>
      <trkpt lat="50.436804" lon="7.416584">
        <ele>65.248410</ele>
        <time>2022-01-09T05:20:06.330Z</time>
      </trkpt>
      <trkpt lat="50.436904" lon="7.416294">
        <ele>65.233191</ele>
        <time>2022-01-09T05:20:11.400Z</time>
      </trkpt>
      <trkpt lat="50.436962" lon="7.416130">
        <ele>65.224534</ele>
        <time>2022-01-09T05:20:14.177Z</time>
      </trkpt>
      <trkpt lat="50.437118" lon="7.415692">
        <ele>65.201374</ele>
        <time>2022-01-09T05:20:21.630Z</time>
      </trkpt>
      <trkpt lat="50.437321" lon="7.415093">
        <ele>65.161858</ele>
        <time>2022-01-09T05:20:31.640Z</time>
      </trkpt>
      <trkpt lat="50.437555" lon="7.414403">
        <ele>65.109967</ele>
        <time>2022-01-09T05:20:43.132Z</time>
      </trkpt>
      <trkpt lat="50.437785" lon="7.413750">
        <ele>65.060434</ele>
        <time>2022-01-09T05:20:53.753Z</time>
      </trkpt>
      <trkpt lat="50.438034" lon="7.412856">
        <ele>65.012038</ele>
        <time>2022-01-09T05:21:07.667Z</time>
      </trkpt>
      <trkpt lat="50.438109" lon="7.412585">
        <ele>65.049260</ele>
        <time>2022-01-09T05:21:11.785Z</time>
      </trkpt>
      <trkpt lat="50.438164" lon="7.412333">
        <ele>65.082816</ele>
        <time>2022-01-09T05:21:15.698Z</time>
      </trkpt>
      <trkpt lat="50.438270" lon="7.411810">
        <ele>65.151954</ele>
        <time>2022-01-09T05:21:23.676Z</time>
      </trkpt>
      <trkpt lat="50.438448" lon="7.410856">
        <ele>65.277180</ele>
        <time>2022-01-09T05:21:38.988Z</time>
      </trkpt>
      <trkpt lat="50.438540" lon="7.410325">
        <ele>65.346500</ele>
        <time>2022-01-09T05:21:47.891Z</time>
      </trkpt>
      <trkpt lat="50.438565" lon="7.410181">
        <ele>65.391530</ele>
        <time>2022-01-09T05:21:50.395Z</time>
      </trkpt>
      <trkpt lat="50.438617" lon="7.409863">
        <ele>65.564455</ele>
        <time>2022-01-09T05:21:55.921Z</time>
      </trkpt>
      <trkpt lat="50.438716" lon="7.409196">
        <ele>65.925182</ele>
        <time>2022-01-09T05:22:07.677Z</time>
      </trkpt>
      <trkpt lat="50.438818" lon="7.408591">
        <ele>66.254814</ele>
        <time>2022-01-09T05:22:18.677Z</time>
      </trkpt>
      <trkpt lat="50.438916" lon="7.407888">
        <ele>66.633852</ele>
        <time>2022-01-09T05:22:31.269Z</time>
      </trkpt>
      <trkpt lat="50.438940" lon="7.407729">
        <ele>66.719918</ele>
        <time>2022-01-09T05:22:34.035Z</time>
      </trkpt>
      <trkpt lat="50.439024" lon="7.407150">
        <ele>66.826745</ele>
        <time>2022-01-09T05:22:43.612Z</time>
      </trkpt>
      <trkpt lat="50.439095" lon="7.406744">
        <ele>66.805829</ele>
        <time>2022-01-09T05:22:49.970Z</time>
      </trkpt>
      <trkpt lat="50.439199" lon="7.406214">
        <ele>66.778277</ele>
        <time>2022-01-09T05:22:58.313Z</time>
      </trkpt>
      <trkpt lat="50.439181" lon="7.406122">
        <ele>66.773495</ele>
        <time>2022-01-09T05:22:59.826Z</time>
      </trkpt>
      <trkpt lat="50.439381" lon="7.405744">
        <ele>66.749081</ele>
        <time>2022-01-09T05:23:08.941Z</time>
      </trkpt>
      <trkpt lat="50.439516" lon="7.405651">
        <ele>66.737582</ele>
        <time>2022-01-09T05:23:13.195Z</time>
      </trkpt>
      <trkpt lat="50.439723" lon="7.405629">
        <ele>66.721398</ele>
        <time>2022-01-09T05:23:18.931Z</time>
      </trkpt>
      <trkpt lat="50.439891" lon="7.405641">
        <ele>66.708280</ele>
        <time>2022-01-09T05:23:23.329Z</time>
      </trkpt>
      <trkpt lat="50.439919" lon="7.405724">
        <ele>66.697352</ele>
        <time>2022-01-09T05:23:24.461Z</time>
      </trkpt>
      <trkpt lat="50.440235" lon="7.405833">
        <ele>66.400492</ele>
        <time>2022-01-09T05:23:30.868Z</time>
      </trkpt>
      <trkpt lat="50.440766" lon="7.406017">
        <ele>65.901550</ele>
        <time>2022-01-09T05:23:41.634Z</time>
      </trkpt>
      <trkpt lat="50.441099" lon="7.405988">
        <ele>65.595537</ele>
        <time>2022-01-09T05:23:48.415Z</time>
      </trkpt>
      <trkpt lat="50.441097" lon="7.405889">
        <ele>65.537656</ele>
        <time>2022-01-09T05:23:49.601Z</time>
      </trkpt>
      <trkpt lat="50.441268" lon="7.405870">
        <ele>65.380363</ele>
        <time>2022-01-09T05:23:52.986Z</time>
      </trkpt>
      <trkpt lat="50.441290" lon="7.405765">
        <ele>65.315770</ele>
        <time>2022-01-09T05:23:54.520Z</time>
      </trkpt>
      <trkpt lat="50.441422" lon="7.405396">
        <ele>65.068456</ele>
        <time>2022-01-09T05:23:59.915Z</time>
      </trkpt>
      <trkpt lat="50.441456" lon="7.405085">
        <ele>65.027962</ele>
        <time>2022-01-09T05:24:03.985Z</time>
      </trkpt>
      <trkpt lat="50.441461" lon="7.404249">
        <ele>64.953465</ele>
        <time>2022-01-09T05:24:14.827Z</time>
      </trkpt>
      <trkpt lat="50.441407" lon="7.403793">
        <ele>64.912136</ele>
        <time>2022-01-09T05:24:20.961Z</time>
      </trkpt>
      <trkpt lat="50.441316" lon="7.403026">
        <ele>64.842615</ele>
        <time>2022-01-09T05:24:32.474Z</time>
      </trkpt>
      <trkpt lat="50.441278" lon="7.402712">
        <ele>64.814134</ele>
        <time>2022-01-09T05:24:37.453Z</time>
      </trkpt>
      <trkpt lat="50.441255" lon="7.402506">
        <ele>64.828791</ele>
        <time>2022-01-09T05:24:40.726Z</time>
      </trkpt>
      <trkpt lat="50.441248" lon="7.402428">
        <ele>64.856662</ele>
        <time>2022-01-09T05:24:41.945Z</time>
      </trkpt>
      <trkpt lat="50.441235" lon="7.402311">
        <ele>64.898685</ele>
        <time>2022-01-09T05:24:43.766Z</time>
      </trkpt>
      <trkpt lat="50.441178" lon="7.401594">
        <ele>65.154346</ele>
        <time>2022-01-09T05:24:54.815Z</time>
      </trkpt>
      <trkpt lat="50.441138" lon="7.401088">
        <ele>65.334756</ele>
        <time>2022-01-09T05:25:02.831Z</time>
      </trkpt>
      <trkpt lat="50.441268" lon="7.399812">
        <ele>65.791978</ele>
        <time>2022-01-09T05:25:24.232Z</time>
      </trkpt>
      <trkpt lat="50.441299" lon="7.399507">
        <ele>65.710063</ele>
        <time>2022-01-09T05:25:28.777Z</time>
      </trkpt>
      <trkpt lat="50.441377" lon="7.399492">
        <ele>65.670075</ele>
        <time>2022-01-09T05:25:30.603Z</time>
      </trkpt>
      <trkpt lat="50.441522" lon="7.397720">
        <ele>65.091080</ele>
        <time>2022-01-09T05:26:01.752Z</time>
      </trkpt>
      <trkpt lat="50.441725" lon="7.397749">
        <ele>64.987352</ele>
        <time>2022-01-09T05:26:06.888Z</time>
      </trkpt>
      <trkpt lat="50.441990" lon="7.396044">
        <ele>63.896843</ele>
        <time>2022-01-09T05:26:35.209Z</time>
      </trkpt>
      <trkpt lat="50.442263" lon="7.394880">
        <ele>63.046325</ele>
        <time>2022-01-09T05:26:55.153Z</time>
      </trkpt>
      <trkpt lat="50.442510" lon="7.393778">
        <ele>64.704879</ele>
        <time>2022-01-09T05:27:17.318Z</time>
      </trkpt>
      <trkpt lat="50.442756" lon="7.392926">
        <ele>66.303115</ele>
        <time>2022-01-09T05:27:43.496Z</time>
      </trkpt>
      <trkpt lat="50.442901" lon="7.392659">
        <ele>66.902612</ele>
        <time>2022-01-09T05:27:53.686Z</time>
      </trkpt>
      <trkpt lat="50.443013" lon="7.392408">
        <ele>67.426222</ele>
        <time>2022-01-09T05:28:02.715Z</time>
      </trkpt>
      <trkpt lat="50.443031" lon="7.392071">
        <ele>68.420632</ele>
        <time>2022-01-09T05:28:13.179Z</time>
      </trkpt>
      <trkpt lat="50.442989" lon="7.392018">
        <ele>68.828069</ele>
        <time>2022-01-09T05:28:15.930Z</time>
      </trkpt>
      <trkpt lat="50.442974" lon="7.391962">
        <ele>69.120626</ele>
        <time>2022-01-09T05:28:18.122Z</time>
      </trkpt>
      <trkpt lat="50.443066" lon="7.391814">
        <ele>70.116578</ele>
        <time>2022-01-09T05:28:24.555Z</time>
      </trkpt>
      <trkpt lat="50.443033" lon="7.391740">
        <ele>70.551614</ele>
        <time>2022-01-09T05:28:27.965Z</time>
      </trkpt>
      <trkpt lat="50.442859" lon="7.391791">
        <ele>71.890071</ele>
        <time>2022-01-09T05:28:36.315Z</time>
      </trkpt>
      <trkpt lat="50.442830" lon="7.391741">
        <ele>72.215744</ele>
        <time>2022-01-09T05:28:38.845Z</time>
      </trkpt>
      <trkpt lat="50.442822" lon="7.391727">
        <ele>72.306324</ele>
        <time>2022-01-09T05:28:39.499Z</time>
      </trkpt>
      <trkpt lat="50.442768" lon="7.391552">
        <ele>73.242774</ele>
        <time>2022-01-09T05:28:46.414Z</time>
      </trkpt>
      <trkpt lat="50.442751" lon="7.391426">
        <ele>73.863013</ele>
        <time>2022-01-09T05:28:49.718Z</time>
      </trkpt>
      <trkpt lat="50.442814" lon="7.391326">
        <ele>74.540395</ele>
        <time>2022-01-09T05:28:54.802Z</time>
      </trkpt>
      <trkpt lat="50.442892" lon="7.391380">
        <ele>75.184987</ele>
        <time>2022-01-09T05:28:59.733Z</time>
      </trkpt>
      <trkpt lat="50.443076" lon="7.391266">
        <ele>76.680724</ele>
        <time>2022-01-09T05:29:09.618Z</time>
      </trkpt>
      <trkpt lat="50.443768" lon="7.390390">
        <ele>83.506619</ele>
        <time>2022-01-09T05:30:09.957Z</time>
      </trkpt>
      <trkpt lat="50.444218" lon="7.389647">
        <ele>88.699068</ele>
        <time>2022-01-09T05:30:49.157Z</time>
      </trkpt>
      <trkpt lat="50.444619" lon="7.388826">
        <ele>93.938618</ele>
        <time>2022-01-09T05:31:29.130Z</time>
      </trkpt>
      <trkpt lat="50.445129" lon="7.387421">
        <ele>100.750144</ele>
        <time>2022-01-09T05:32:27.803Z</time>
      </trkpt>
      <trkpt lat="50.445381" lon="7.386293">
        <ele>105.510260</ele>
        <time>2022-01-09T05:33:08.830Z</time>
      </trkpt>
      <trkpt lat="50.445400" lon="7.386046">
        <ele>106.500968</ele>
        <time>2022-01-09T05:33:17.247Z</time>
      </trkpt>
      <trkpt lat="50.445504" lon="7.384427">
        <ele>109.743891</ele>
        <time>2022-01-09T05:33:57.373Z</time>
      </trkpt>
      <trkpt lat="50.445957" lon="7.382174">
        <ele>112.209306</ele>
        <time>2022-01-09T05:34:37.405Z</time>
      </trkpt>
      <trkpt lat="50.446463" lon="7.380397">
        <ele>111.947416</ele>
        <time>2022-01-09T05:35:03.565Z</time>
      </trkpt>
      <trkpt lat="50.446816" lon="7.378344">
        <ele>107.913120</ele>
        <time>2022-01-09T05:35:27.051Z</time>
      </trkpt>
      <trkpt lat="50.447212" lon="7.376180">
        <ele>97.970394</ele>
        <time>2022-01-09T05:35:47.663Z</time>
      </trkpt>
      <trkpt lat="50.447351" lon="7.375457">
        <ele>94.068312</ele>
        <time>2022-01-09T05:35:56.610Z</time>
      </trkpt>
      <trkpt lat="50.447435" lon="7.375063">
        <ele>91.805629</ele>
        <time>2022-01-09T05:36:01.459Z</time>
      </trkpt>
      <trkpt lat="50.447550" lon="7.374556">
        <ele>88.251599</ele>
        <time>2022-01-09T05:36:07.705Z</time>
      </trkpt>
      <trkpt lat="50.447930" lon="7.373470">
        <ele>80.068875</ele>
        <time>2022-01-09T05:36:22.194Z</time>
      </trkpt>
      <trkpt lat="50.448355" lon="7.372597">
        <ele>73.246899</ele>
        <time>2022-01-09T05:36:35.219Z</time>
      </trkpt>
      <trkpt lat="50.448733" lon="7.371970">
        <ele>70.379832</ele>
        <time>2022-01-09T05:36:46.166Z</time>
      </trkpt>
      <trkpt lat="50.449045" lon="7.371327">
        <ele>67.695489</ele>
        <time>2022-01-09T05:36:56.675Z</time>
      </trkpt>
      <trkpt lat="50.449495" lon="7.370364">
        <ele>64.247657</ele>
        <time>2022-01-09T05:37:14.251Z</time>
      </trkpt>
      <trkpt lat="50.450046" lon="7.369212">
        <ele>63.755670</ele>
        <time>2022-01-09T05:37:39.278Z</time>
      </trkpt>
      <trkpt lat="50.450705" lon="7.368049">
        <ele>63.415629</ele>
        <time>2022-01-09T05:38:09.369Z</time>
      </trkpt>
      <trkpt lat="50.450903" lon="7.367721">
        <ele>63.510850</ele>
        <time>2022-01-09T05:38:18.277Z</time>
      </trkpt>
      <trkpt lat="50.451053" lon="7.367322">
        <ele>63.608468</ele>
        <time>2022-01-09T05:38:27.418Z</time>
      </trkpt>
      <trkpt lat="50.451517" lon="7.365729">
        <ele>63.949549</ele>
        <time>2022-01-09T05:39:01.677Z</time>
      </trkpt>
      <trkpt lat="50.451624" lon="7.365358">
        <ele>63.975146</ele>
        <time>2022-01-09T05:39:09.591Z</time>
      </trkpt>
      <trkpt lat="50.452336" lon="7.363385">
        <ele>64.113865</ele>
        <time>2022-01-09T05:39:52.082Z</time>
      </trkpt>
      <trkpt lat="50.452685" lon="7.362784">
        <ele>64.086620</ele>
        <time>2022-01-09T05:40:06.649Z</time>
      </trkpt>
      <trkpt lat="50.453940" lon="7.361494">
        <ele>64.030505</ele>
        <time>2022-01-09T05:40:50.616Z</time>
      </trkpt>
      <trkpt lat="50.454018" lon="7.361391">
        <ele>64.034648</ele>
        <time>2022-01-09T05:40:53.640Z</time>
      </trkpt>
      <trkpt lat="50.454359" lon="7.360981">
        <ele>64.052107</ele>
        <time>2022-01-09T05:41:06.466Z</time>
      </trkpt>
      <trkpt lat="50.454550" lon="7.360732">
        <ele>64.062198</ele>
        <time>2022-01-09T05:41:13.992Z</time>
      </trkpt>
      <trkpt lat="50.455618" lon="7.359153">
        <ele>63.749889</ele>
        <time>2022-01-09T05:41:56.420Z</time>
      </trkpt>
      <trkpt lat="50.455647" lon="7.359104">
        <ele>63.728728</ele>
        <time>2022-01-09T05:41:57.627Z</time>
      </trkpt>
      <trkpt lat="50.455750" lon="7.358923">
        <ele>63.651938</ele>
        <time>2022-01-09T05:42:01.975Z</time>
      </trkpt>
      <trkpt lat="50.455863" lon="7.358741">
        <ele>63.571526</ele>
        <time>2022-01-09T05:42:06.382Z</time>
      </trkpt>
      <trkpt lat="50.456385" lon="7.357978">
        <ele>63.217254</ele>
        <time>2022-01-09T05:42:20.524Z</time>
      </trkpt>
      <trkpt lat="50.456477" lon="7.357841">
        <ele>63.092075</ele>
        <time>2022-01-09T05:42:23.083Z</time>
      </trkpt>
      <trkpt lat="50.456831" lon="7.357324">
        <ele>62.525855</ele>
        <time>2022-01-09T05:42:32.209Z</time>
      </trkpt>
      <trkpt lat="50.458206" lon="7.355406">
        <ele>60.737981</ele>
        <time>2022-01-09T05:43:06.730Z</time>
      </trkpt>
      <trkpt lat="50.459636" lon="7.353796">
        <ele>60.230813</ele>
        <time>2022-01-09T05:43:44.191Z</time>
      </trkpt>
      <trkpt lat="50.460753" lon="7.352366">
        <ele>60.579865</ele>
        <time>2022-01-09T05:44:19.956Z</time>
      </trkpt>
      <trkpt lat="50.461248" lon="7.351621">
        <ele>60.511550</ele>
        <time>2022-01-09T05:44:35.649Z</time>
      </trkpt>
      <trkpt lat="50.461796" lon="7.351017">
        <ele>60.444838</ele>
        <time>2022-01-09T05:44:49.612Z</time>
      </trkpt>
      <trkpt lat="50.462145" lon="7.350730">
        <ele>60.345417</ele>
        <time>2022-01-09T05:44:57.415Z</time>
      </trkpt>
      <trkpt lat="50.463287" lon="7.349748">
        <ele>59.752842</ele>
        <time>2022-01-09T05:45:24.039Z</time>
      </trkpt>
      <trkpt lat="50.464010" lon="7.349109">
        <ele>59.575525</ele>
        <time>2022-01-09T05:45:42.071Z</time>
      </trkpt>
      <trkpt lat="50.464605" lon="7.348709">
        <ele>59.539112</ele>
        <time>2022-01-09T05:45:56.207Z</time>
      </trkpt>
      <trkpt lat="50.465994" lon="7.348436">
        <ele>59.954231</ele>
        <time>2022-01-09T05:46:27.570Z</time>
      </trkpt>
      <trkpt lat="50.466466" lon="7.348242">
        <ele>60.247867</ele>
        <time>2022-01-09T05:46:39.328Z</time>
      </trkpt>
      <trkpt lat="50.469325" lon="7.346362">
        <ele>64.052353</ele>
        <time>2022-01-09T05:48:06.922Z</time>
      </trkpt>
      <trkpt lat="50.470382" lon="7.345863">
        <ele>65.205626</ele>
        <time>2022-01-09T05:48:34.650Z</time>
      </trkpt>
      <trkpt lat="50.470490" lon="7.345868">
        <ele>65.294825</ele>
        <time>2022-01-09T05:48:37.556Z</time>
      </trkpt>
      <trkpt lat="50.470589" lon="7.345983">
        <ele>65.396467</ele>
        <time>2022-01-09T05:48:40.676Z</time>
      </trkpt>
      <trkpt lat="50.470619" lon="7.346098">
        <ele>65.461772</ele>
        <time>2022-01-09T05:48:42.228Z</time>
      </trkpt>
      <trkpt lat="50.471589" lon="7.345686">
        <ele>66.291310</ele>
        <time>2022-01-09T05:49:07.762Z</time>
      </trkpt>
      <trkpt lat="50.472697" lon="7.344968">
        <ele>67.138876</ele>
        <time>2022-01-09T05:49:39.559Z</time>
      </trkpt>
      <trkpt lat="50.473008" lon="7.344697">
        <ele>67.366103</ele>
        <time>2022-01-09T05:49:49.325Z</time>
      </trkpt>
      <trkpt lat="50.474373" lon="7.342972">
        <ele>67.133238</ele>
        <time>2022-01-09T05:50:27.656Z</time>
      </trkpt>
      <trkpt lat="50.474577" lon="7.342854">
        <ele>66.997200</ele>
        <time>2022-01-09T05:50:31.501Z</time>
      </trkpt>
      <trkpt lat="50.474827" lon="7.342556">
        <ele>66.800827</ele>
        <time>2022-01-09T05:50:37.588Z</time>
      </trkpt>
      <trkpt lat="50.477459" lon="7.339426">
        <ele>62.594174</ele>
        <time>2022-01-09T05:51:38.451Z</time>
      </trkpt>
      <trkpt lat="50.479458" lon="7.336999">
        <ele>60.758075</ele>
        <time>2022-01-09T05:52:29.206Z</time>
      </trkpt>
      <trkpt lat="50.480556" lon="7.335531">
        <ele>60.411281</ele>
        <time>2022-01-09T05:53:00.365Z</time>
      </trkpt>
      <trkpt lat="50.481932" lon="7.333525">
        <ele>60.572790</ele>
        <time>2022-01-09T05:53:43.059Z</time>
      </trkpt>
      <trkpt lat="50.482009" lon="7.333380">
        <ele>60.585440</ele>
        <time>2022-01-09T05:53:45.712Z</time>
      </trkpt>
      <trkpt lat="50.482014" lon="7.333254">
        <ele>60.593696</ele>
        <time>2022-01-09T05:53:47.429Z</time>
      </trkpt>
      <trkpt lat="50.481869" lon="7.332957">
        <ele>60.618178</ele>
        <time>2022-01-09T05:53:52.995Z</time>
      </trkpt>
      <trkpt lat="50.481905" lon="7.332798">
        <ele>60.629215</ele>
        <time>2022-01-09T05:53:55.280Z</time>
      </trkpt>
      <trkpt lat="50.482071" lon="7.332684">
        <ele>60.647834</ele>
        <time>2022-01-09T05:53:59.550Z</time>
      </trkpt>
      <trkpt lat="50.482236" lon="7.332633">
        <ele>60.665117</ele>
        <time>2022-01-09T05:54:03.179Z</time>
      </trkpt>
      <trkpt lat="50.482388" lon="7.332745">
        <ele>60.682372</ele>
        <time>2022-01-09T05:54:07.089Z</time>
      </trkpt>
      <trkpt lat="50.482476" lon="7.332730">
        <ele>60.691469</ele>
        <time>2022-01-09T05:54:09.085Z</time>
      </trkpt>
      <trkpt lat="50.483248" lon="7.331689">
        <ele>60.823058</ele>
        <time>2022-01-09T05:54:32.012Z</time>
      </trkpt>
      <trkpt lat="50.483489" lon="7.331345">
        <ele>60.883670</ele>
        <time>2022-01-09T05:54:39.325Z</time>
      </trkpt>
      <trkpt lat="50.483767" lon="7.330964">
        <ele>60.952341</ele>
        <time>2022-01-09T05:54:48.085Z</time>
      </trkpt>
      <trkpt lat="50.483914" lon="7.330776">
        <ele>60.987624</ele>
        <time>2022-01-09T05:54:52.808Z</time>
      </trkpt>
      <trkpt lat="50.484365" lon="7.330221">
        <ele>61.094265</ele>
        <time>2022-01-09T05:55:06.284Z</time>
      </trkpt>
      <trkpt lat="50.484512" lon="7.330060">
        <ele>61.070474</ele>
        <time>2022-01-09T05:55:10.362Z</time>
      </trkpt>
      <trkpt lat="50.485052" lon="7.329531">
        <ele>60.963826</ele>
        <time>2022-01-09T05:55:24.253Z</time>
      </trkpt>
      <trkpt lat="50.485417" lon="7.329172">
        <ele>60.891660</ele>
        <time>2022-01-09T05:55:33.631Z</time>
      </trkpt>
      <trkpt lat="50.486106" lon="7.328493">
        <ele>60.695526</ele>
        <time>2022-01-09T05:55:50.382Z</time>
      </trkpt>
      <trkpt lat="50.486538" lon="7.328002">
        <ele>60.474927</ele>
        <time>2022-01-09T05:56:01.188Z</time>
      </trkpt>
      <trkpt lat="50.486932" lon="7.327541">
        <ele>60.271679</ele>
        <time>2022-01-09T05:56:11.099Z</time>
      </trkpt>
      <trkpt lat="50.487060" lon="7.327380">
        <ele>60.203842</ele>
        <time>2022-01-09T05:56:14.510Z</time>
      </trkpt>
      <trkpt lat="50.487844" lon="7.326297">
        <ele>60.261606</ele>
        <time>2022-01-09T05:56:37.561Z</time>
      </trkpt>
      <trkpt lat="50.488334" lon="7.325443">
        <ele>60.488500</ele>
        <time>2022-01-09T05:56:54.755Z</time>
      </trkpt>
      <trkpt lat="50.488447" lon="7.325257">
        <ele>60.539242</ele>
        <time>2022-01-09T05:56:58.729Z</time>
      </trkpt>
      <trkpt lat="50.488539" lon="7.325251">
        <ele>60.567796</ele>
        <time>2022-01-09T05:57:00.890Z</time>
      </trkpt>
      <trkpt lat="50.488579" lon="7.325178">
        <ele>60.586805</ele>
        <time>2022-01-09T05:57:02.470Z</time>
      </trkpt>
      <trkpt lat="50.489573" lon="7.323358">
        <ele>62.616962</ele>
        <time>2022-01-09T05:57:46.038Z</time>
      </trkpt>
      <trkpt lat="50.489615" lon="7.323289">
        <ele>62.700925</ele>
        <time>2022-01-09T05:57:47.900Z</time>
      </trkpt>
      <trkpt lat="50.489908" lon="7.322835">
        <ele>63.246129</ele>
        <time>2022-01-09T05:58:00.722Z</time>
      </trkpt>
      <trkpt lat="50.489607" lon="7.322181">
        <ele>63.860512</ele>
        <time>2022-01-09T05:58:16.041Z</time>
      </trkpt>
      <trkpt lat="50.489272" lon="7.322586">
        <ele>64.366133</ele>
        <time>2022-01-09T05:58:45.445Z</time>
      </trkpt>
      <trkpt lat="50.489187" lon="7.322421">
        <ele>64.527730</ele>
        <time>2022-01-09T05:58:54.774Z</time>
      </trkpt>
      <trkpt lat="50.489497" lon="7.322039">
        <ele>64.998991</ele>
        <time>2022-01-09T05:59:22.105Z</time>
      </trkpt>
      <trkpt lat="50.489424" lon="7.321958">
        <ele>65.105894</ele>
        <time>2022-01-09T05:59:28.323Z</time>
      </trkpt>
      <trkpt lat="50.489459" lon="7.321906">
        <ele>65.163512</ele>
        <time>2022-01-09T05:59:31.694Z</time>
      </trkpt>
      <trkpt lat="50.489566" lon="7.321936">
        <ele>65.252161</ele>
        <time>2022-01-09T05:59:33.877Z</time>
      </trkpt>
      <trkpt lat="50.490131" lon="7.321278">
        <ele>65.342863</ele>
        <time>2022-01-09T05:59:48.808Z</time>
      </trkpt>
      <trkpt lat="50.491133" lon="7.320292">
        <ele>65.638835</ele>
        <time>2022-01-09T06:00:14.544Z</time>
      </trkpt>
      <trkpt lat="50.493244" lon="7.318429">
        <ele>69.736222</ele>
        <time>2022-01-09T06:01:23.401Z</time>
      </trkpt>
      <trkpt lat="50.493806" lon="7.318013">
        <ele>71.371246</ele>
        <time>2022-01-09T06:01:45.226Z</time>
      </trkpt>
      <trkpt lat="50.495766" lon="7.316408">
        <ele>78.584576</ele>
        <time>2022-01-09T06:03:06.647Z</time>
      </trkpt>
      <trkpt lat="50.497583" lon="7.314195">
        <ele>81.974773</ele>
        <time>2022-01-09T06:04:15.119Z</time>
      </trkpt>
      <trkpt lat="50.498453" lon="7.313326">
        <ele>81.321179</ele>
        <time>2022-01-09T06:04:36.054Z</time>
      </trkpt>
      <trkpt lat="50.498687" lon="7.312995">
        <ele>80.980570</ele>
        <time>2022-01-09T06:04:41.440Z</time>
      </trkpt>
      <trkpt lat="50.499523" lon="7.311405">
        <ele>73.650109</ele>
        <time>2022-01-09T06:05:00.811Z</time>
      </trkpt>
      <trkpt lat="50.499699" lon="7.311142">
        <ele>72.293587</ele>
        <time>2022-01-09T06:05:04.300Z</time>
      </trkpt>
      <trkpt lat="50.499727" lon="7.310971">
        <ele>71.666131</ele>
        <time>2022-01-09T06:05:05.842Z</time>
      </trkpt>
      <trkpt lat="50.499593" lon="7.310903">
        <ele>70.892634</ele>
        <time>2022-01-09T06:05:07.917Z</time>
      </trkpt>
      <trkpt lat="50.499638" lon="7.310495">
        <ele>69.512307</ele>
        <time>2022-01-09T06:05:11.614Z</time>
      </trkpt>
      <trkpt lat="50.499672" lon="7.310307">
        <ele>68.860787</ele>
        <time>2022-01-09T06:05:13.446Z</time>
      </trkpt>
      <trkpt lat="50.499781" lon="7.310090">
        <ele>67.939091</ele>
        <time>2022-01-09T06:05:15.913Z</time>
      </trkpt>
      <trkpt lat="50.499933" lon="7.310027">
        <ele>67.115313</ele>
        <time>2022-01-09T06:05:18.286Z</time>
      </trkpt>
      <trkpt lat="50.500085" lon="7.310115">
        <ele>66.266457</ele>
        <time>2022-01-09T06:05:20.576Z</time>
      </trkpt>
      <trkpt lat="50.500457" lon="7.310628">
        <ele>63.673268</ele>
        <time>2022-01-09T06:05:28.006Z</time>
      </trkpt>
      <trkpt lat="50.500633" lon="7.310611">
        <ele>62.749195</ele>
        <time>2022-01-09T06:05:30.801Z</time>
      </trkpt>
      <trkpt lat="50.500730" lon="7.310489">
        <ele>62.098212</ele>
        <time>2022-01-09T06:05:32.874Z</time>
      </trkpt>
      <trkpt lat="50.501095" lon="7.309742">
        <ele>61.819107</ele>
        <time>2022-01-09T06:05:44.224Z</time>
      </trkpt>
      <trkpt lat="50.501143" lon="7.309673">
        <ele>61.838428</ele>
        <time>2022-01-09T06:05:45.974Z</time>
      </trkpt>
      <trkpt lat="50.501284" lon="7.309658">
        <ele>61.880409</ele>
        <time>2022-01-09T06:05:49.836Z</time>
      </trkpt>
      <trkpt lat="50.501386" lon="7.309807">
        <ele>61.921770</ele>
        <time>2022-01-09T06:05:53.312Z</time>
      </trkpt>
      <trkpt lat="50.501677" lon="7.309208">
        <ele>62.064187</ele>
        <time>2022-01-09T06:06:06.958Z</time>
      </trkpt>
      <trkpt lat="50.501812" lon="7.308928">
        <ele>62.130575</ele>
        <time>2022-01-09T06:06:13.391Z</time>
      </trkpt>
      <trkpt lat="50.502128" lon="7.308308">
        <ele>62.330606</ele>
        <time>2022-01-09T06:06:27.891Z</time>
      </trkpt>
      <trkpt lat="50.502162" lon="7.308233">
        <ele>62.358765</ele>
        <time>2022-01-09T06:06:29.558Z</time>
      </trkpt>
      <trkpt lat="50.502683" lon="7.307258">
        <ele>62.748109</ele>
        <time>2022-01-09T06:06:51.069Z</time>
      </trkpt>
      <trkpt lat="50.503013" lon="7.306768">
        <ele>62.966303</ele>
        <time>2022-01-09T06:07:01.029Z</time>
      </trkpt>
      <trkpt lat="50.503588" lon="7.306006">
        <ele>62.709896</ele>
        <time>2022-01-09T06:07:16.457Z</time>
      </trkpt>
      <trkpt lat="50.503842" lon="7.305662">
        <ele>62.492771</ele>
        <time>2022-01-09T06:07:23.253Z</time>
      </trkpt>
      <trkpt lat="50.504006" lon="7.305440">
        <ele>62.352610</ele>
        <time>2022-01-09T06:07:27.588Z</time>
      </trkpt>
      <trkpt lat="50.504399" lon="7.304924">
        <ele>62.020996</ele>
        <time>2022-01-09T06:07:38.522Z</time>
      </trkpt>
      <trkpt lat="50.504639" lon="7.304616">
        <ele>61.912999</ele>
        <time>2022-01-09T06:07:45.278Z</time>
      </trkpt>
      <trkpt lat="50.505368" lon="7.303774">
        <ele>62.011729</ele>
        <time>2022-01-09T06:08:06.810Z</time>
      </trkpt>
      <trkpt lat="50.506159" lon="7.302862">
        <ele>62.098197</ele>
        <time>2022-01-09T06:08:30.770Z</time>
      </trkpt>
      <trkpt lat="50.506791" lon="7.302128">
        <ele>62.106619</ele>
        <time>2022-01-09T06:08:48.803Z</time>
      </trkpt>
      <trkpt lat="50.506901" lon="7.302000">
        <ele>62.108086</ele>
        <time>2022-01-09T06:08:52.039Z</time>
      </trkpt>
      <trkpt lat="50.507326" lon="7.301500">
        <ele>62.113776</ele>
        <time>2022-01-09T06:09:03.928Z</time>
      </trkpt>
      <trkpt lat="50.507423" lon="7.301390">
        <ele>62.115058</ele>
        <time>2022-01-09T06:09:06.716Z</time>
      </trkpt>
      <trkpt lat="50.507661" lon="7.301111">
        <ele>62.176524</ele>
        <time>2022-01-09T06:09:13.510Z</time>
      </trkpt>
      <trkpt lat="50.507783" lon="7.300967">
        <ele>62.209870</ele>
        <time>2022-01-09T06:09:17.145Z</time>
      </trkpt>
      <trkpt lat="50.508003" lon="7.300702">
        <ele>62.270450</ele>
        <time>2022-01-09T06:09:23.567Z</time>
      </trkpt>
      <trkpt lat="50.508199" lon="7.300478">
        <ele>62.323415</ele>
        <time>2022-01-09T06:09:29.170Z</time>
      </trkpt>
      <trkpt lat="50.508359" lon="7.300298">
        <ele>62.366420</ele>
        <time>2022-01-09T06:09:33.808Z</time>
      </trkpt>
      <trkpt lat="50.508461" lon="7.300177">
        <ele>62.394350</ele>
        <time>2022-01-09T06:09:36.839Z</time>
      </trkpt>
      <trkpt lat="50.508909" lon="7.299659">
        <ele>62.534099</ele>
        <time>2022-01-09T06:09:50.963Z</time>
      </trkpt>
      <trkpt lat="50.509115" lon="7.299426">
        <ele>62.724137</ele>
        <time>2022-01-09T06:09:57.820Z</time>
      </trkpt>
      <trkpt lat="50.509208" lon="7.299315">
        <ele>62.811575</ele>
        <time>2022-01-09T06:10:01.009Z</time>
      </trkpt>
      <trkpt lat="50.509454" lon="7.298978">
        <ele>63.055912</ele>
        <time>2022-01-09T06:10:09.906Z</time>
      </trkpt>
      <trkpt lat="50.509800" lon="7.298505">
        <ele>63.399262</ele>
        <time>2022-01-09T06:10:22.370Z</time>
      </trkpt>
      <trkpt lat="50.509858" lon="7.298417">
        <ele>63.459621</ele>
        <time>2022-01-09T06:10:24.491Z</time>
      </trkpt>
      <trkpt lat="50.510299" lon="7.297767">
        <ele>63.823631</ele>
        <time>2022-01-09T06:10:39.967Z</time>
      </trkpt>
      <trkpt lat="50.510535" lon="7.297450">
        <ele>63.693789</ele>
        <time>2022-01-09T06:10:47.360Z</time>
      </trkpt>
      <trkpt lat="50.510750" lon="7.297174">
        <ele>63.577682</ele>
        <time>2022-01-09T06:10:53.823Z</time>
      </trkpt>
      <trkpt lat="50.511274" lon="7.296437">
        <ele>63.283586</ele>
        <time>2022-01-09T06:11:09.212Z</time>
      </trkpt>
      <trkpt lat="50.511589" lon="7.296131">
        <ele>63.128694</ele>
        <time>2022-01-09T06:11:16.645Z</time>
      </trkpt>
      <trkpt lat="50.511594" lon="7.296308">
        <ele>63.018291</ele>
        <time>2022-01-09T06:11:18.784Z</time>
      </trkpt>
      <trkpt lat="50.511941" lon="7.297839">
        <ele>61.308224</ele>
        <time>2022-01-09T06:11:38.085Z</time>
      </trkpt>
      <trkpt lat="50.512331" lon="7.299370">
        <ele>59.732253</ele>
        <time>2022-01-09T06:12:03.821Z</time>
      </trkpt>
      <trkpt lat="50.512472" lon="7.299280">
        <ele>59.552846</ele>
        <time>2022-01-09T06:12:06.531Z</time>
      </trkpt>
      <trkpt lat="50.514697" lon="7.297370">
        <ele>57.117740</ele>
        <time>2022-01-09T06:13:12.857Z</time>
      </trkpt>
      <trkpt lat="50.518191" lon="7.295242">
        <ele>56.025763</ele>
        <time>2022-01-09T06:14:59.462Z</time>
      </trkpt>
      <trkpt lat="50.518697" lon="7.294934">
        <ele>55.936503</ele>
        <time>2022-01-09T06:15:15.082Z</time>
      </trkpt>
      <trkpt lat="50.519056" lon="7.294669">
        <ele>55.914998</ele>
        <time>2022-01-09T06:15:23.776Z</time>
      </trkpt>
      <trkpt lat="50.519365" lon="7.294437">
        <ele>55.896430</ele>
        <time>2022-01-09T06:15:31.315Z</time>
      </trkpt>
      <trkpt lat="50.519169" lon="7.294521">
        <ele>55.885414</ele>
        <time>2022-01-09T06:15:35.797Z</time>
      </trkpt>
      <trkpt lat="50.519365" lon="7.294437">
        <ele>55.874398</ele>
        <time>2022-01-09T06:15:40.307Z</time>
      </trkpt>
      <trkpt lat="50.522974" lon="7.292570">
        <ele>56.019230</ele>
        <time>2022-01-09T06:17:05.774Z</time>
      </trkpt>
      <trkpt lat="50.526030" lon="7.291010">
        <ele>55.644583</ele>
        <time>2022-01-09T06:18:37.856Z</time>
      </trkpt>
      <trkpt lat="50.531304" lon="7.288119">
        <ele>55.404129</ele>
        <time>2022-01-09T06:21:20.236Z</time>
      </trkpt>
      <trkpt lat="50.533100" lon="7.286963">
        <ele>55.691997</ele>
        <time>2022-01-09T06:22:18.653Z</time>
      </trkpt>
      <trkpt lat="50.536274" lon="7.285174">
        <ele>56.225437</ele>
        <time>2022-01-09T06:23:59.657Z</time>
      </trkpt>
      <trkpt lat="50.538014" lon="7.284490">
        <ele>56.240724</ele>
        <time>2022-01-09T06:24:51.980Z</time>
      </trkpt>
      <trkpt lat="50.542210" lon="7.282670">
        <ele>55.629372</ele>
        <time>2022-01-09T06:26:57.323Z</time>
      </trkpt>
      <trkpt lat="50.544365" lon="7.281562">
        <ele>55.011695</ele>
        <time>2022-01-09T06:28:00.419Z</time>
      </trkpt>
      <trkpt lat="50.545177" lon="7.280932">
        <ele>54.954796</ele>
        <time>2022-01-09T06:28:26.665Z</time>
      </trkpt>
      <trkpt lat="50.545224" lon="7.280788">
        <ele>54.948331</ele>
        <time>2022-01-09T06:28:29.684Z</time>
      </trkpt>
      <trkpt lat="50.545525" lon="7.280532">
        <ele>55.030306</ele>
        <time>2022-01-09T06:28:40.181Z</time>
      </trkpt>
      <trkpt lat="50.545757" lon="7.280446">
        <ele>55.172950</ele>
        <time>2022-01-09T06:28:47.710Z</time>
      </trkpt>
      <trkpt lat="50.547827" lon="7.279209">
        <ele>56.291549</ele>
        <time>2022-01-09T06:29:45.169Z</time>
      </trkpt>
      <trkpt lat="50.548753" lon="7.278760">
        <ele>56.624488</ele>
        <time>2022-01-09T06:30:08.151Z</time>
      </trkpt>
      <trkpt lat="50.550697" lon="7.277965">
        <ele>56.274451</ele>
        <time>2022-01-09T06:30:53.095Z</time>
      </trkpt>
      <trkpt lat="50.553060" lon="7.276965">
        <ele>55.876450</ele>
        <time>2022-01-09T06:31:45.190Z</time>
      </trkpt>
      <trkpt lat="50.552914" lon="7.273164">
        <ele>56.263690</ele>
        <time>2022-01-09T06:32:41.928Z</time>
      </trkpt>
      <trkpt lat="50.552856" lon="7.268211">
        <ele>56.386663</ele>
        <time>2022-01-09T06:33:51.176Z</time>
      </trkpt>
      <trkpt lat="50.552839" lon="7.266740">
        <ele>56.529949</ele>
        <time>2022-01-09T06:34:13.514Z</time>
      </trkpt>
      <trkpt lat="50.552838" lon="7.266631">
        <ele>56.552552</ele>
        <time>2022-01-09T06:34:15.140Z</time>
      </trkpt>
      <trkpt lat="50.552837" lon="7.266455">
        <ele>56.589045</ele>
        <time>2022-01-09T06:34:17.528Z</time>
      </trkpt>
      <trkpt lat="50.552837" lon="7.266200">
        <ele>56.641918</ele>
        <time>2022-01-09T06:34:21.340Z</time>
      </trkpt>
      <trkpt lat="50.552837" lon="7.265503">
        <ele>56.786435</ele>
        <time>2022-01-09T06:34:31.620Z</time>
      </trkpt>
      <trkpt lat="50.552762" lon="7.264749">
        <ele>56.944675</ele>
        <time>2022-01-09T06:34:42.847Z</time>
      </trkpt>
      <trkpt lat="50.552713" lon="7.264429">
        <ele>57.012925</ele>
        <time>2022-01-09T06:34:48.115Z</time>
      </trkpt>
      <trkpt lat="50.552628" lon="7.264213">
        <ele>57.065605</ele>
        <time>2022-01-09T06:34:51.800Z</time>
      </trkpt>
      <trkpt lat="50.552227" lon="7.263563">
        <ele>57.560067</ele>
        <time>2022-01-09T06:35:06.143Z</time>
      </trkpt>
      <trkpt lat="50.551917" lon="7.263145">
        <ele>57.915009</ele>
        <time>2022-01-09T06:35:16.017Z</time>
      </trkpt>
      <trkpt lat="50.551516" lon="7.262191">
        <ele>58.546956</ele>
        <time>2022-01-09T06:35:34.838Z</time>
      </trkpt>
      <trkpt lat="50.551090" lon="7.260689">
        <ele>60.367200</ele>
        <time>2022-01-09T06:36:05.898Z</time>
      </trkpt>
      <trkpt lat="50.550965" lon="7.260242">
        <ele>60.936027</ele>
        <time>2022-01-09T06:36:15.613Z</time>
      </trkpt>
      <trkpt lat="50.550674" lon="7.259183">
        <ele>62.194961</ele>
        <time>2022-01-09T06:36:37.823Z</time>
      </trkpt>
      <trkpt lat="50.549989" lon="7.259510">
        <ele>63.188394</ele>
        <time>2022-01-09T06:36:59.127Z</time>
      </trkpt>
      <trkpt lat="50.549639" lon="7.259677">
        <ele>63.695967</ele>
        <time>2022-01-09T06:37:08.895Z</time>
      </trkpt>
      <trkpt lat="50.549044" lon="7.259969">
        <ele>64.471991</ele>
        <time>2022-01-09T06:37:24.623Z</time>
      </trkpt>
      <trkpt lat="50.548782" lon="7.258598">
        <ele>64.899397</ele>
        <time>2022-01-09T06:37:46.916Z</time>
      </trkpt>
      <trkpt lat="50.548777" lon="7.258207">
        <ele>65.016150</ele>
        <time>2022-01-09T06:37:53.206Z</time>
      </trkpt>
      <trkpt lat="50.548788" lon="7.258070">
        <ele>65.057375</ele>
        <time>2022-01-09T06:37:55.381Z</time>
      </trkpt>
      <trkpt lat="50.548800" lon="7.258003">
        <ele>65.078157</ele>
        <time>2022-01-09T06:37:56.501Z</time>
      </trkpt>
      <trkpt lat="50.548808" lon="7.257969">
        <ele>65.088980</ele>
        <time>2022-01-09T06:37:57.084Z</time>
      </trkpt>
      <trkpt lat="50.549014" lon="7.257219">
        <ele>65.360103</ele>
        <time>2022-01-09T06:38:09.643Z</time>
      </trkpt>
      <trkpt lat="50.548988" lon="7.256969">
        <ele>65.469235</ele>
        <time>2022-01-09T06:38:13.658Z</time>
      </trkpt>
      <trkpt lat="50.548907" lon="7.256763">
        <ele>65.573597</ele>
        <time>2022-01-09T06:38:17.595Z</time>
      </trkpt>
      <trkpt lat="50.548718" lon="7.256586">
        <ele>65.722705</ele>
        <time>2022-01-09T06:38:23.058Z</time>
      </trkpt>
      <trkpt lat="50.548417" lon="7.256623">
        <ele>65.927397</ele>
        <time>2022-01-09T06:38:30.827Z</time>
      </trkpt>
      <trkpt lat="50.547891" lon="7.256965">
        <ele>66.313249</ele>
        <time>2022-01-09T06:38:46.170Z</time>
      </trkpt>
      <trkpt lat="50.547281" lon="7.257392">
        <ele>66.508128</ele>
        <time>2022-01-09T06:39:03.987Z</time>
      </trkpt>
      <trkpt lat="50.547163" lon="7.257403">
        <ele>66.513134</ele>
        <time>2022-01-09T06:39:06.882Z</time>
      </trkpt>
      <trkpt lat="50.546968" lon="7.257137">
        <ele>66.524063</ele>
        <time>2022-01-09T06:39:12.995Z</time>
      </trkpt>
      <trkpt lat="50.547177" lon="7.257005">
        <ele>66.533599</ele>
        <time>2022-01-09T06:39:18.188Z</time>
      </trkpt>
      <trkpt lat="50.547492" lon="7.256798">
        <ele>66.548055</ele>
        <time>2022-01-09T06:39:25.651Z</time>
      </trkpt>
      <trkpt lat="50.547498" lon="7.256794">
        <ele>66.548331</ele>
        <time>2022-01-09T06:39:25.795Z</time>
      </trkpt>
      <trkpt lat="50.547580" lon="7.256742">
        <ele>66.552075</ele>
        <time>2022-01-09T06:39:27.663Z</time>
      </trkpt>
      <trkpt lat="50.548261" lon="7.256259">
        <ele>66.196264</ele>
        <time>2022-01-09T06:39:43.494Z</time>
      </trkpt>
      <trkpt lat="50.548676" lon="7.255994">
        <ele>65.772107</ele>
        <time>2022-01-09T06:39:52.484Z</time>
      </trkpt>
      <trkpt lat="50.548952" lon="7.255797">
        <ele>65.485087</ele>
        <time>2022-01-09T06:39:58.422Z</time>
      </trkpt>
      <trkpt lat="50.549638" lon="7.255318">
        <ele>64.776990</ele>
        <time>2022-01-09T06:40:13.434Z</time>
      </trkpt>
      <trkpt lat="50.550024" lon="7.255055">
        <ele>64.390534</ele>
        <time>2022-01-09T06:40:22.117Z</time>
      </trkpt>
      <trkpt lat="50.550261" lon="7.254623">
        <ele>64.057341</ele>
        <time>2022-01-09T06:40:34.700Z</time>
      </trkpt>
      <trkpt lat="50.550532" lon="7.254421">
        <ele>63.781839</ele>
        <time>2022-01-09T06:40:45.041Z</time>
      </trkpt>
      <trkpt lat="50.551522" lon="7.253684">
        <ele>62.911084</ele>
        <time>2022-01-09T06:41:21.715Z</time>
      </trkpt>
      <trkpt lat="50.551531" lon="7.253484">
        <ele>62.830441</ele>
        <time>2022-01-09T06:41:25.867Z</time>
      </trkpt>
      <trkpt lat="50.551372" lon="7.252400">
        <ele>62.382983</ele>
        <time>2022-01-09T06:41:50.548Z</time>
      </trkpt>
      <trkpt lat="50.551330" lon="7.252244">
        <ele>62.314839</ele>
        <time>2022-01-09T06:41:53.062Z</time>
      </trkpt>
      <trkpt lat="50.551303" lon="7.251650">
        <ele>62.075317</ele>
        <time>2022-01-09T06:42:02.269Z</time>
      </trkpt>
      <trkpt lat="50.551286" lon="7.251381">
        <ele>62.149958</ele>
        <time>2022-01-09T06:42:06.636Z</time>
      </trkpt>
      <trkpt lat="50.551270" lon="7.251131">
        <ele>62.223748</ele>
        <time>2022-01-09T06:42:10.324Z</time>
      </trkpt>
      <trkpt lat="50.551150" lon="7.250404">
        <ele>62.444334</ele>
        <time>2022-01-09T06:42:22.817Z</time>
      </trkpt>
      <trkpt lat="50.550997" lon="7.249843">
        <ele>62.623620</ele>
        <time>2022-01-09T06:42:33.383Z</time>
      </trkpt>
      <trkpt lat="50.550970" lon="7.249742">
        <ele>62.655799</ele>
        <time>2022-01-09T06:42:35.343Z</time>
      </trkpt>
      <trkpt lat="50.550620" lon="7.248423">
        <ele>63.099594</ele>
        <time>2022-01-09T06:43:01.392Z</time>
      </trkpt>
      <trkpt lat="50.549803" lon="7.245544">
        <ele>63.815711</ele>
        <time>2022-01-09T06:43:48.884Z</time>
      </trkpt>
      <trkpt lat="50.549530" lon="7.245034">
        <ele>63.789392</ele>
        <time>2022-01-09T06:44:04.250Z</time>
      </trkpt>
      <trkpt lat="50.549440" lon="7.244838">
        <ele>63.779848</ele>
        <time>2022-01-09T06:44:09.993Z</time>
      </trkpt>
      <trkpt lat="50.549431" lon="7.244689">
        <ele>63.773941</ele>
        <time>2022-01-09T06:44:13.481Z</time>
      </trkpt>
      <trkpt lat="50.549618" lon="7.244671">
        <ele>63.762304</ele>
        <time>2022-01-09T06:44:17.407Z</time>
      </trkpt>
      <trkpt lat="50.550261" lon="7.244581">
        <ele>63.556555</ele>
        <time>2022-01-09T06:44:30.822Z</time>
      </trkpt>
      <trkpt lat="50.550639" lon="7.244537">
        <ele>63.311158</ele>
        <time>2022-01-09T06:44:38.390Z</time>
      </trkpt>
      <trkpt lat="50.550713" lon="7.244769">
        <ele>63.204369</ele>
        <time>2022-01-09T06:44:41.935Z</time>
      </trkpt>
      <trkpt lat="50.551110" lon="7.245777">
        <ele>62.716506</ele>
        <time>2022-01-09T06:44:57.368Z</time>
      </trkpt>
      <trkpt lat="50.551386" lon="7.246481">
        <ele>62.458177</ele>
        <time>2022-01-09T06:45:08.624Z</time>
      </trkpt>
      <trkpt lat="50.551586" lon="7.247000">
        <ele>62.311287</ele>
        <time>2022-01-09T06:45:17.070Z</time>
      </trkpt>
      <trkpt lat="50.551936" lon="7.247922">
        <ele>62.051381</ele>
        <time>2022-01-09T06:45:31.753Z</time>
      </trkpt>
      <trkpt lat="50.552243" lon="7.248779">
        <ele>61.864763</ele>
        <time>2022-01-09T06:45:45.847Z</time>
      </trkpt>
      <trkpt lat="50.552607" lon="7.249767">
        <ele>61.773224</ele>
        <time>2022-01-09T06:46:02.931Z</time>
      </trkpt>
      <trkpt lat="50.553029" lon="7.251182">
        <ele>61.578486</ele>
        <time>2022-01-09T06:46:25.145Z</time>
      </trkpt>
      <trkpt lat="50.553190" lon="7.251747">
        <ele>61.305245</ele>
        <time>2022-01-09T06:46:33.551Z</time>
      </trkpt>
      <trkpt lat="50.553669" lon="7.253492">
        <ele>60.466451</ele>
        <time>2022-01-09T06:46:58.656Z</time>
      </trkpt>
      <trkpt lat="50.553701" lon="7.253659">
        <ele>60.377455</ele>
        <time>2022-01-09T06:47:00.735Z</time>
      </trkpt>
      <trkpt lat="50.553842" lon="7.253684">
        <ele>60.230916</ele>
        <time>2022-01-09T06:47:03.455Z</time>
      </trkpt>
      <trkpt lat="50.553911" lon="7.253820">
        <ele>60.116717</ele>
        <time>2022-01-09T06:47:05.532Z</time>
      </trkpt>
      <trkpt lat="50.555145" lon="7.257498">
        <ele>57.776830</ele>
        <time>2022-01-09T06:47:56.329Z</time>
      </trkpt>
      <trkpt lat="50.555815" lon="7.259323">
        <ele>57.328686</ele>
        <time>2022-01-09T06:48:25.249Z</time>
      </trkpt>
      <trkpt lat="50.556451" lon="7.261552">
        <ele>57.401850</ele>
        <time>2022-01-09T06:49:00.705Z</time>
      </trkpt>
      <trkpt lat="50.556666" lon="7.262456">
        <ele>57.480384</ele>
        <time>2022-01-09T06:49:14.839Z</time>
      </trkpt>
      <trkpt lat="50.556927" lon="7.263926">
        <ele>57.563125</ele>
        <time>2022-01-09T06:49:36.914Z</time>
      </trkpt>
      <trkpt lat="50.556942" lon="7.264077">
        <ele>57.556448</ele>
        <time>2022-01-09T06:49:39.094Z</time>
      </trkpt>
      <trkpt lat="50.557053" lon="7.264645">
        <ele>57.530484</ele>
        <time>2022-01-09T06:49:47.469Z</time>
      </trkpt>
      <trkpt lat="50.557449" lon="7.265647">
        <ele>57.478926</ele>
        <time>2022-01-09T06:50:03.874Z</time>
      </trkpt>
      <trkpt lat="50.557550" lon="7.266077">
        <ele>57.458897</ele>
        <time>2022-01-09T06:50:10.110Z</time>
      </trkpt>
      <trkpt lat="50.557676" lon="7.267118">
        <ele>57.197701</ele>
        <time>2022-01-09T06:50:24.272Z</time>
      </trkpt>
      <trkpt lat="50.558047" lon="7.269074">
        <ele>56.663856</ele>
        <time>2022-01-09T06:50:50.831Z</time>
      </trkpt>
      <trkpt lat="50.558366" lon="7.270788">
        <ele>56.400779</ele>
        <time>2022-01-09T06:51:14.646Z</time>
      </trkpt>
      <trkpt lat="50.558568" lon="7.271323">
        <ele>56.309108</ele>
        <time>2022-01-09T06:51:23.343Z</time>
      </trkpt>
      <trkpt lat="50.558729" lon="7.271553">
        <ele>56.280780</ele>
        <time>2022-01-09T06:51:28.371Z</time>
      </trkpt>
      <trkpt lat="50.559317" lon="7.272118">
        <ele>56.439697</ele>
        <time>2022-01-09T06:51:44.360Z</time>
      </trkpt>
      <trkpt lat="50.560125" lon="7.272837">
        <ele>56.653811</ele>
        <time>2022-01-09T06:52:06.184Z</time>
      </trkpt>
      <trkpt lat="50.560317" lon="7.272998">
        <ele>56.665256</ele>
        <time>2022-01-09T06:52:11.352Z</time>
      </trkpt>
      <trkpt lat="50.560575" lon="7.273248">
        <ele>56.594933</ele>
        <time>2022-01-09T06:52:18.180Z</time>
      </trkpt>
      <trkpt lat="50.560702" lon="7.273244">
        <ele>56.565449</ele>
        <time>2022-01-09T06:52:21.070Z</time>
      </trkpt>
      <trkpt lat="50.560843" lon="7.273140">
        <ele>56.529305</ele>
        <time>2022-01-09T06:52:24.391Z</time>
      </trkpt>
      <trkpt lat="50.560872" lon="7.273215">
        <ele>56.516359</ele>
        <time>2022-01-09T06:52:25.529Z</time>
      </trkpt>
      <trkpt lat="50.561174" lon="7.274006">
        <ele>56.380279</ele>
        <time>2022-01-09T06:52:37.837Z</time>
      </trkpt>
      <trkpt lat="50.561317" lon="7.274379">
        <ele>56.316039</ele>
        <time>2022-01-09T06:52:43.478Z</time>
      </trkpt>
      <trkpt lat="50.561613" lon="7.275032">
        <ele>56.168655</ele>
        <time>2022-01-09T06:52:53.846Z</time>
      </trkpt>
      <trkpt lat="50.561603" lon="7.275254">
        <ele>56.122087</ele>
        <time>2022-01-09T06:52:56.702Z</time>
      </trkpt>
      <trkpt lat="50.561735" lon="7.275191">
        <ele>56.076654</ele>
        <time>2022-01-09T06:52:59.606Z</time>
      </trkpt>
      <trkpt lat="50.563540" lon="7.274256">
        <ele>55.570157</ele>
        <time>2022-01-09T06:53:40.016Z</time>
      </trkpt>
      <trkpt lat="50.563678" lon="7.274130">
        <ele>55.545622</ele>
        <time>2022-01-09T06:53:43.529Z</time>
      </trkpt>
      <trkpt lat="50.563677" lon="7.274018">
        <ele>55.534679</ele>
        <time>2022-01-09T06:53:45.107Z</time>
      </trkpt>
      <trkpt lat="50.563699" lon="7.273905">
        <ele>55.523133</ele>
        <time>2022-01-09T06:53:46.843Z</time>
      </trkpt>
      <trkpt lat="50.563856" lon="7.273796">
        <ele>55.496743</ele>
        <time>2022-01-09T06:53:50.611Z</time>
      </trkpt>
      <trkpt lat="50.564142" lon="7.273583">
        <ele>55.448083</ele>
        <time>2022-01-09T06:53:57.623Z</time>
      </trkpt>
      <trkpt lat="50.564365" lon="7.273431">
        <ele>55.410709</ele>
        <time>2022-01-09T06:54:02.970Z</time>
      </trkpt>
      <trkpt lat="50.564772" lon="7.273101">
        <ele>55.377844</ele>
        <time>2022-01-09T06:54:12.933Z</time>
      </trkpt>
      <trkpt lat="50.564858" lon="7.273031">
        <ele>55.372623</ele>
        <time>2022-01-09T06:54:15.053Z</time>
      </trkpt>
      <trkpt lat="50.565369" lon="7.272614">
        <ele>55.341584</ele>
        <time>2022-01-09T06:54:27.650Z</time>
      </trkpt>
      <trkpt lat="50.565514" lon="7.272468">
        <ele>55.332302</ele>
        <time>2022-01-09T06:54:31.511Z</time>
      </trkpt>
      <trkpt lat="50.565716" lon="7.272286">
        <ele>55.319751</ele>
        <time>2022-01-09T06:54:36.676Z</time>
      </trkpt>
      <trkpt lat="50.567269" lon="7.270903">
        <ele>55.258777</ele>
        <time>2022-01-09T06:55:16.272Z</time>
      </trkpt>
      <trkpt lat="50.568734" lon="7.269546">
        <ele>55.142563</ele>
        <time>2022-01-09T06:56:05.113Z</time>
      </trkpt>
      <trkpt lat="50.570245" lon="7.268092">
        <ele>55.173088</ele>
        <time>2022-01-09T06:56:57.120Z</time>
      </trkpt>
      <trkpt lat="50.571043" lon="7.267109">
        <ele>55.195378</ele>
        <time>2022-01-09T06:57:27.422Z</time>
      </trkpt>
      <trkpt lat="50.571074" lon="7.267067">
        <ele>55.195188</ele>
        <time>2022-01-09T06:57:28.651Z</time>
      </trkpt>
      <trkpt lat="50.571393" lon="7.266653">
        <ele>55.193272</ele>
        <time>2022-01-09T06:57:40.846Z</time>
      </trkpt>
      <trkpt lat="50.571986" lon="7.265923">
        <ele>55.189784</ele>
        <time>2022-01-09T06:58:02.620Z</time>
      </trkpt>
      <trkpt lat="50.573037" lon="7.264385">
        <ele>55.075305</ele>
        <time>2022-01-09T06:58:43.565Z</time>
      </trkpt>
      <trkpt lat="50.574120" lon="7.262563">
        <ele>55.148166</ele>
        <time>2022-01-09T06:59:30.271Z</time>
      </trkpt>
      <trkpt lat="50.574483" lon="7.261849">
        <ele>55.202729</ele>
        <time>2022-01-09T06:59:47.692Z</time>
      </trkpt>
      <trkpt lat="50.575185" lon="7.260160">
        <ele>55.403060</ele>
        <time>2022-01-09T07:00:26.142Z</time>
      </trkpt>
      <trkpt lat="50.575598" lon="7.259039">
        <ele>55.538997</ele>
        <time>2022-01-09T07:00:50.755Z</time>
      </trkpt>
      <trkpt lat="50.575702" lon="7.258757">
        <ele>55.576014</ele>
        <time>2022-01-09T07:00:57.014Z</time>
      </trkpt>
      <trkpt lat="50.576212" lon="7.257151">
        <ele>55.779837</ele>
        <time>2022-01-09T07:01:31.407Z</time>
      </trkpt>
      <trkpt lat="50.576826" lon="7.254663">
        <ele>55.867928</ele>
        <time>2022-01-09T07:02:21.537Z</time>
      </trkpt>
      <trkpt lat="50.577333" lon="7.251866">
        <ele>55.516183</ele>
        <time>2022-01-09T07:03:14.008Z</time>
      </trkpt>
      <trkpt lat="50.577817" lon="7.248068">
        <ele>55.299932</ele>
        <time>2022-01-09T07:04:24.017Z</time>
      </trkpt>
      <trkpt lat="50.577976" lon="7.246653">
        <ele>55.697520</ele>
        <time>2022-01-09T07:04:52.068Z</time>
      </trkpt>
      <trkpt lat="50.578041" lon="7.245381">
        <ele>56.220639</ele>
        <time>2022-01-09T07:05:19.233Z</time>
      </trkpt>
      <trkpt lat="50.578151" lon="7.244316">
        <ele>56.878909</ele>
        <time>2022-01-09T07:05:42.156Z</time>
      </trkpt>
      <trkpt lat="50.578145" lon="7.244114">
        <ele>57.002279</ele>
        <time>2022-01-09T07:05:46.518Z</time>
      </trkpt>
      <trkpt lat="50.578189" lon="7.243582">
        <ele>57.329581</ele>
        <time>2022-01-09T07:05:57.888Z</time>
      </trkpt>
      <trkpt lat="50.578367" lon="7.241618">
        <ele>57.994305</ele>
        <time>2022-01-09T07:06:38.462Z</time>
      </trkpt>
      <trkpt lat="50.578379" lon="7.241502">
        <ele>58.022657</ele>
        <time>2022-01-09T07:06:40.653Z</time>
      </trkpt>
      <trkpt lat="50.578494" lon="7.240426">
        <ele>58.285875</ele>
        <time>2022-01-09T07:07:00.628Z</time>
      </trkpt>
      <trkpt lat="50.578592" lon="7.239512">
        <ele>58.329074</ele>
        <time>2022-01-09T07:07:17.709Z</time>
      </trkpt>
      <trkpt lat="50.578782" lon="7.237999">
        <ele>58.345514</ele>
        <time>2022-01-09T07:07:46.258Z</time>
      </trkpt>
      <trkpt lat="50.578861" lon="7.237669">
        <ele>58.349273</ele>
        <time>2022-01-09T07:07:52.772Z</time>
      </trkpt>
      <trkpt lat="50.579096" lon="7.236173">
        <ele>58.931389</ele>
        <time>2022-01-09T07:08:23.133Z</time>
      </trkpt>
      <trkpt lat="50.579375" lon="7.234534">
        <ele>59.699199</ele>
        <time>2022-01-09T07:08:58.291Z</time>
      </trkpt>
      <trkpt lat="50.579401" lon="7.234359">
        <ele>59.815502</ele>
        <time>2022-01-09T07:09:02.202Z</time>
      </trkpt>
      <trkpt lat="50.579348" lon="7.234235">
        <ele>59.912228</ele>
        <time>2022-01-09T07:09:05.760Z</time>
      </trkpt>
      <trkpt lat="50.579610" lon="7.232727">
        <ele>60.923934</ele>
        <time>2022-01-09T07:09:32.597Z</time>
      </trkpt>
      <trkpt lat="50.579689" lon="7.232184">
        <ele>61.284418</ele>
        <time>2022-01-09T07:09:41.713Z</time>
      </trkpt>
      <trkpt lat="50.579689" lon="7.232119">
        <ele>61.326480</ele>
        <time>2022-01-09T07:09:42.932Z</time>
      </trkpt>
      <trkpt lat="50.579690" lon="7.231898">
        <ele>61.369187</ele>
        <time>2022-01-09T07:09:52.695Z</time>
      </trkpt>
      <trkpt lat="50.579768" lon="7.231317">
        <ele>61.365928</ele>
        <time>2022-01-09T07:10:18.914Z</time>
      </trkpt>
      <trkpt lat="50.579835" lon="7.230830">
        <ele>61.363193</ele>
        <time>2022-01-09T07:10:40.896Z</time>
      </trkpt>
      <trkpt lat="50.579859" lon="7.230654">
        <ele>61.362205</ele>
        <time>2022-01-09T07:10:48.848Z</time>
      </trkpt>
      <trkpt lat="50.579877" lon="7.230530">
        <ele>61.361507</ele>
        <time>2022-01-09T07:10:54.457Z</time>
      </trkpt>
      <trkpt lat="50.580025" lon="7.229460">
        <ele>61.355496</ele>
        <time>2022-01-09T07:11:42.776Z</time>
      </trkpt>
      <trkpt lat="50.580036" lon="7.229379">
        <ele>61.355042</ele>
        <time>2022-01-09T07:11:46.436Z</time>
      </trkpt>
      <trkpt lat="50.580045" lon="7.229330">
        <ele>61.354762</ele>
        <time>2022-01-09T07:11:48.702Z</time>
      </trkpt>
      <trkpt lat="50.580168" lon="7.229297">
        <ele>61.312461</ele>
        <time>2022-01-09T07:11:50.983Z</time>
      </trkpt>
      <trkpt lat="50.580206" lon="7.229159">
        <ele>61.269160</ele>
        <time>2022-01-09T07:11:52.869Z</time>
      </trkpt>
      <trkpt lat="50.580452" lon="7.227470">
        <ele>60.770319</ele>
        <time>2022-01-09T07:12:15.353Z</time>
      </trkpt>
      <trkpt lat="50.580702" lon="7.226088">
        <ele>60.949876</ele>
        <time>2022-01-09T07:12:34.632Z</time>
      </trkpt>
      <trkpt lat="50.580725" lon="7.225990">
        <ele>61.017604</ele>
        <time>2022-01-09T07:12:36.002Z</time>
      </trkpt>
      <trkpt lat="50.581285" lon="7.223434">
        <ele>63.466645</ele>
        <time>2022-01-09T07:13:24.180Z</time>
      </trkpt>
      <trkpt lat="50.581570" lon="7.222150">
        <ele>65.902256</ele>
        <time>2022-01-09T07:13:54.852Z</time>
      </trkpt>
      <trkpt lat="50.581699" lon="7.221811">
        <ele>66.609940</ele>
        <time>2022-01-09T07:14:03.829Z</time>
      </trkpt>
      <trkpt lat="50.582051" lon="7.221174">
        <ele>67.842484</ele>
        <time>2022-01-09T07:14:23.566Z</time>
      </trkpt>
      <trkpt lat="50.582095" lon="7.220980">
        <ele>68.058510</ele>
        <time>2022-01-09T07:14:28.489Z</time>
      </trkpt>
      <trkpt lat="50.584889" lon="7.216405">
        <ele>72.064605</ele>
        <time>2022-01-09T07:16:14.436Z</time>
      </trkpt>
      <trkpt lat="50.586511" lon="7.214131">
        <ele>70.236948</ele>
        <time>2022-01-09T07:16:55.821Z</time>
      </trkpt>
      <trkpt lat="50.590302" lon="7.209959">
        <ele>61.599806</ele>
        <time>2022-01-09T07:18:17.300Z</time>
      </trkpt>
      <trkpt lat="50.591036" lon="7.209338">
        <ele>60.175816</ele>
        <time>2022-01-09T07:18:31.999Z</time>
      </trkpt>
      <trkpt lat="50.591895" lon="7.208772">
        <ele>59.002279</ele>
        <time>2022-01-09T07:18:49.465Z</time>
      </trkpt>
      <trkpt lat="50.592836" lon="7.208295">
        <ele>58.427615</ele>
        <time>2022-01-09T07:19:09.734Z</time>
      </trkpt>
      <trkpt lat="50.593839" lon="7.207953">
        <ele>57.967738</ele>
        <time>2022-01-09T07:19:32.308Z</time>
      </trkpt>
      <trkpt lat="50.595217" lon="7.207775">
        <ele>57.435903</ele>
        <time>2022-01-09T07:20:00.990Z</time>
      </trkpt>
      <trkpt lat="50.596174" lon="7.207788">
        <ele>56.820560</ele>
        <time>2022-01-09T07:20:20.295Z</time>
      </trkpt>
      <trkpt lat="50.597340" lon="7.207974">
        <ele>56.102083</ele>
        <time>2022-01-09T07:20:43.643Z</time>
      </trkpt>
      <trkpt lat="50.598126" lon="7.208234">
        <ele>55.641893</ele>
        <time>2022-01-09T07:20:59.846Z</time>
      </trkpt>
      <trkpt lat="50.599235" lon="7.209249">
        <ele>55.125744</ele>
        <time>2022-01-09T07:21:26.790Z</time>
      </trkpt>
      <trkpt lat="50.599261" lon="7.209461">
        <ele>55.085259</ele>
        <time>2022-01-09T07:21:29.736Z</time>
      </trkpt>
      <trkpt lat="50.599314" lon="7.209551">
        <ele>55.062239</ele>
        <time>2022-01-09T07:21:31.403Z</time>
      </trkpt>
      <trkpt lat="50.599950" lon="7.210315">
        <ele>54.826692</ele>
        <time>2022-01-09T07:21:48.373Z</time>
      </trkpt>
      <trkpt lat="50.600635" lon="7.210918">
        <ele>54.729411</ele>
        <time>2022-01-09T07:22:05.277Z</time>
      </trkpt>
      <trkpt lat="50.600929" lon="7.211169">
        <ele>54.687954</ele>
        <time>2022-01-09T07:22:12.597Z</time>
      </trkpt>
      <trkpt lat="50.601695" lon="7.211763">
        <ele>54.612076</ele>
        <time>2022-01-09T07:22:37.299Z</time>
      </trkpt>
      <trkpt lat="50.602508" lon="7.212235">
        <ele>54.650269</ele>
        <time>2022-01-09T07:23:02.791Z</time>
      </trkpt>
      <trkpt lat="50.602810" lon="7.212295">
        <ele>54.663687</ele>
        <time>2022-01-09T07:23:11.950Z</time>
      </trkpt>
      <trkpt lat="50.603447" lon="7.212198">
        <ele>54.675279</ele>
        <time>2022-01-09T07:23:31.002Z</time>
      </trkpt>
      <trkpt lat="50.604319" lon="7.212061">
        <ele>54.637450</ele>
        <time>2022-01-09T07:23:56.525Z</time>
      </trkpt>
      <trkpt lat="50.604770" lon="7.211994">
        <ele>54.617895</ele>
        <time>2022-01-09T07:24:09.610Z</time>
      </trkpt>
      <trkpt lat="50.605523" lon="7.212013">
        <ele>54.543222</ele>
        <time>2022-01-09T07:24:31.211Z</time>
      </trkpt>
      <trkpt lat="50.607507" lon="7.211842">
        <ele>54.420600</ele>
        <time>2022-01-09T07:25:28.498Z</time>
      </trkpt>
      <trkpt lat="50.607696" lon="7.211882">
        <ele>54.435649</ele>
        <time>2022-01-09T07:25:34.027Z</time>
      </trkpt>
      <trkpt lat="50.607723" lon="7.211806">
        <ele>54.440012</ele>
        <time>2022-01-09T07:25:35.649Z</time>
      </trkpt>
      <trkpt lat="50.608749" lon="7.211480">
        <ele>54.576871</ele>
        <time>2022-01-09T07:26:06.837Z</time>
      </trkpt>
      <trkpt lat="50.609595" lon="7.211078">
        <ele>54.952849</ele>
        <time>2022-01-09T07:26:34.592Z</time>
      </trkpt>
      <trkpt lat="50.609832" lon="7.210953">
        <ele>55.059189</ele>
        <time>2022-01-09T07:26:42.551Z</time>
      </trkpt>
      <trkpt lat="50.610514" lon="7.210659">
        <ele>55.319935</ele>
        <time>2022-01-09T07:27:04.519Z</time>
      </trkpt>
      <trkpt lat="50.611788" lon="7.210328">
        <ele>55.608496</ele>
        <time>2022-01-09T07:27:43.494Z</time>
      </trkpt>
      <trkpt lat="50.611974" lon="7.210229">
        <ele>55.652371</ele>
        <time>2022-01-09T07:27:49.062Z</time>
      </trkpt>
      <trkpt lat="50.612375" lon="7.210161">
        <ele>55.714248</ele>
        <time>2022-01-09T07:28:01.016Z</time>
      </trkpt>
      <trkpt lat="50.612758" lon="7.210119">
        <ele>55.762731</ele>
        <time>2022-01-09T07:28:09.707Z</time>
      </trkpt>
      <trkpt lat="50.613076" lon="7.210096">
        <ele>55.802931</ele>
        <time>2022-01-09T07:28:16.648Z</time>
      </trkpt>
      <trkpt lat="50.613073" lon="7.209995">
        <ele>55.811034</ele>
        <time>2022-01-09T07:28:18.264Z</time>
      </trkpt>
      <trkpt lat="50.613191" lon="7.209964">
        <ele>55.826141</ele>
        <time>2022-01-09T07:28:21.045Z</time>
      </trkpt>
      <trkpt lat="50.613513" lon="7.209880">
        <ele>55.867357</ele>
        <time>2022-01-09T07:28:28.408Z</time>
      </trkpt>
      <trkpt lat="50.613905" lon="7.209741">
        <ele>55.908041</ele>
        <time>2022-01-09T07:28:37.800Z</time>
      </trkpt>
      <trkpt lat="50.614115" lon="7.209621">
        <ele>55.915118</ele>
        <time>2022-01-09T07:28:42.897Z</time>
      </trkpt>
      <trkpt lat="50.614561" lon="7.209365">
        <ele>55.930155</ele>
        <time>2022-01-09T07:28:53.888Z</time>
      </trkpt>
      <trkpt lat="50.614777" lon="7.209241">
        <ele>55.937438</ele>
        <time>2022-01-09T07:28:58.960Z</time>
      </trkpt>
      <trkpt lat="50.614939" lon="7.209148">
        <ele>55.942900</ele>
        <time>2022-01-09T07:29:02.756Z</time>
      </trkpt>
      <trkpt lat="50.615080" lon="7.209060">
        <ele>55.947704</ele>
        <time>2022-01-09T07:29:06.080Z</time>
      </trkpt>
      <trkpt lat="50.615140" lon="7.209109">
        <ele>55.949845</ele>
        <time>2022-01-09T07:29:07.904Z</time>
      </trkpt>
      <trkpt lat="50.616010" lon="7.208555">
        <ele>55.852453</ele>
        <time>2022-01-09T07:29:28.257Z</time>
      </trkpt>
      <trkpt lat="50.616049" lon="7.208533">
        <ele>55.844455</ele>
        <time>2022-01-09T07:29:29.193Z</time>
      </trkpt>
      <trkpt lat="50.616780" lon="7.208079">
        <ele>55.692747</ele>
        <time>2022-01-09T07:29:45.921Z</time>
      </trkpt>
      <trkpt lat="50.617754" lon="7.207489">
        <ele>55.509870</ele>
        <time>2022-01-09T07:30:08.386Z</time>
      </trkpt>
      <trkpt lat="50.617795" lon="7.207467">
        <ele>55.502771</ele>
        <time>2022-01-09T07:30:09.310Z</time>
      </trkpt>
      <trkpt lat="50.618324" lon="7.207255">
        <ele>55.413303</ele>
        <time>2022-01-09T07:30:20.943Z</time>
      </trkpt>
      <trkpt lat="50.618710" lon="7.207223">
        <ele>55.349946</ele>
        <time>2022-01-09T07:30:29.376Z</time>
      </trkpt>
      <trkpt lat="50.619073" lon="7.207278">
        <ele>55.348839</ele>
        <time>2022-01-09T07:30:37.545Z</time>
      </trkpt>
      <trkpt lat="50.619399" lon="7.207423">
        <ele>55.404194</ele>
        <time>2022-01-09T07:30:45.341Z</time>
      </trkpt>
      <trkpt lat="50.619667" lon="7.207560">
        <ele>55.450236</ele>
        <time>2022-01-09T07:30:51.897Z</time>
      </trkpt>
      <trkpt lat="50.620837" lon="7.208154">
        <ele>55.597956</ele>
        <time>2022-01-09T07:31:20.287Z</time>
      </trkpt>
      <trkpt lat="50.621178" lon="7.208249">
        <ele>55.574608</ele>
        <time>2022-01-09T07:31:28.177Z</time>
      </trkpt>
      <trkpt lat="50.621288" lon="7.208254">
        <ele>55.567189</ele>
        <time>2022-01-09T07:31:30.694Z</time>
      </trkpt>
      <trkpt lat="50.621752" lon="7.208259">
        <ele>55.535904</ele>
        <time>2022-01-09T07:31:44.245Z</time>
      </trkpt>
      <trkpt lat="50.624952" lon="7.208061">
        <ele>54.774645</ele>
        <time>2022-01-09T07:33:14.252Z</time>
      </trkpt>
      <trkpt lat="50.624953" lon="7.208227">
        <ele>54.751905</ele>
        <time>2022-01-09T07:33:17.233Z</time>
      </trkpt>
      <trkpt lat="50.624887" lon="7.208359">
        <ele>54.728882</ele>
        <time>2022-01-09T07:33:20.257Z</time>
      </trkpt>
      <trkpt lat="50.624894" lon="7.209284">
        <ele>54.602165</ele>
        <time>2022-01-09T07:33:37.048Z</time>
      </trkpt>
      <trkpt lat="50.625076" lon="7.209420">
        <ele>54.558675</ele>
        <time>2022-01-09T07:33:42.826Z</time>
      </trkpt>
      <trkpt lat="50.625080" lon="7.209617">
        <ele>54.538028</ele>
        <time>2022-01-09T07:33:46.443Z</time>
      </trkpt>
      <trkpt lat="50.626536" lon="7.209715">
        <ele>54.335726</ele>
        <time>2022-01-09T07:34:28.431Z</time>
      </trkpt>
      <trkpt lat="50.628951" lon="7.209760">
        <ele>53.885662</ele>
        <time>2022-01-09T07:35:36.790Z</time>
      </trkpt>
      <trkpt lat="50.630458" lon="7.209506">
        <ele>54.091144</ele>
        <time>2022-01-09T07:36:22.324Z</time>
      </trkpt>
      <trkpt lat="50.630526" lon="7.209478">
        <ele>54.124628</ele>
        <time>2022-01-09T07:36:24.520Z</time>
      </trkpt>
      <trkpt lat="50.630803" lon="7.209354">
        <ele>54.261818</ele>
        <time>2022-01-09T07:36:33.367Z</time>
      </trkpt>
      <trkpt lat="50.631374" lon="7.209031">
        <ele>54.550843</ele>
        <time>2022-01-09T07:36:52.450Z</time>
      </trkpt>
      <trkpt lat="50.631441" lon="7.208966">
        <ele>54.588324</ele>
        <time>2022-01-09T07:36:54.858Z</time>
      </trkpt>
      <trkpt lat="50.631508" lon="7.208742">
        <ele>54.663166</ele>
        <time>2022-01-09T07:36:59.894Z</time>
      </trkpt>
      <trkpt lat="50.631769" lon="7.208713">
        <ele>54.787824</ele>
        <time>2022-01-09T07:37:08.185Z</time>
      </trkpt>
      <trkpt lat="50.633325" lon="7.207636">
        <ele>55.571721</ele>
        <time>2022-01-09T07:38:01.170Z</time>
      </trkpt>
      <trkpt lat="50.633441" lon="7.207550">
        <ele>55.630499</ele>
        <time>2022-01-09T07:38:05.157Z</time>
      </trkpt>
      <trkpt lat="50.633621" lon="7.207418">
        <ele>55.721526</ele>
        <time>2022-01-09T07:38:09.893Z</time>
      </trkpt>
      <trkpt lat="50.635921" lon="7.206543">
        <ele>56.217464</ele>
        <time>2022-01-09T07:39:04.643Z</time>
      </trkpt>
      <trkpt lat="50.636920" lon="7.206139">
        <ele>56.283860</ele>
        <time>2022-01-09T07:39:27.981Z</time>
      </trkpt>
      <trkpt lat="50.637384" lon="7.206035">
        <ele>56.185032</ele>
        <time>2022-01-09T07:39:38.118Z</time>
      </trkpt>
      <trkpt lat="50.638013" lon="7.205986">
        <ele>55.878870</ele>
        <time>2022-01-09T07:39:55.668Z</time>
      </trkpt>
      <trkpt lat="50.639522" lon="7.206158">
        <ele>55.025016</ele>
        <time>2022-01-09T07:40:36.449Z</time>
      </trkpt>
      <trkpt lat="50.639710" lon="7.206202">
        <ele>54.893731</ele>
        <time>2022-01-09T07:40:41.450Z</time>
      </trkpt>
      <trkpt lat="50.640143" lon="7.206356">
        <ele>54.587121</ele>
        <time>2022-01-09T07:40:50.168Z</time>
      </trkpt>
      <trkpt lat="50.640304" lon="7.206414">
        <ele>54.473044</ele>
        <time>2022-01-09T07:40:53.477Z</time>
      </trkpt>
      <trkpt lat="50.640565" lon="7.206427">
        <ele>54.292667</ele>
        <time>2022-01-09T07:41:00.453Z</time>
      </trkpt>
      <trkpt lat="50.641099" lon="7.206442">
        <ele>54.154517</ele>
        <time>2022-01-09T07:41:15.133Z</time>
      </trkpt>
      <trkpt lat="50.641833" lon="7.206521">
        <ele>54.100234</ele>
        <time>2022-01-09T07:41:36.714Z</time>
      </trkpt>
      <trkpt lat="50.641937" lon="7.206531">
        <ele>54.092547</ele>
        <time>2022-01-09T07:41:39.871Z</time>
      </trkpt>
      <trkpt lat="50.642149" lon="7.206558">
        <ele>54.076854</ele>
        <time>2022-01-09T07:41:46.189Z</time>
      </trkpt>
      <trkpt lat="50.642755" lon="7.206559">
        <ele>54.082392</ele>
        <time>2022-01-09T07:42:04.586Z</time>
      </trkpt>
      <trkpt lat="50.644052" lon="7.206408">
        <ele>54.265737</ele>
        <time>2022-01-09T07:42:43.234Z</time>
      </trkpt>
      <trkpt lat="50.644145" lon="7.206479">
        <ele>54.280304</ele>
        <time>2022-01-09T07:42:46.144Z</time>
      </trkpt>
      <trkpt lat="50.644169" lon="7.206336">
        <ele>54.293528</ele>
        <time>2022-01-09T07:42:48.576Z</time>
      </trkpt>
      <trkpt lat="50.644381" lon="7.206351">
        <ele>54.306181</ele>
        <time>2022-01-09T07:42:53.165Z</time>
      </trkpt>
      <trkpt lat="50.644643" lon="7.206285">
        <ele>54.312041</ele>
        <time>2022-01-09T07:42:59.356Z</time>
      </trkpt>
      <trkpt lat="50.644733" lon="7.206263">
        <ele>54.314052</ele>
        <time>2022-01-09T07:43:01.194Z</time>
      </trkpt>
      <trkpt lat="50.644803" lon="7.206361">
        <ele>54.316120</ele>
        <time>2022-01-09T07:43:03.986Z</time>
      </trkpt>
      <trkpt lat="50.645033" lon="7.206341">
        <ele>54.321207</ele>
        <time>2022-01-09T07:43:10.819Z</time>
      </trkpt>
      <trkpt lat="50.645667" lon="7.206349">
        <ele>54.335211</ele>
        <time>2022-01-09T07:43:24.878Z</time>
      </trkpt>
      <trkpt lat="50.646137" lon="7.206361">
        <ele>54.314969</ele>
        <time>2022-01-09T07:43:38.766Z</time>
      </trkpt>
      <trkpt lat="50.647357" lon="7.206321">
        <ele>54.056672</ele>
        <time>2022-01-09T07:44:13.771Z</time>
      </trkpt>
      <trkpt lat="50.649189" lon="7.206462">
        <ele>53.499108</ele>
        <time>2022-01-09T07:45:04.177Z</time>
      </trkpt>
      <trkpt lat="50.649217" lon="7.206461">
        <ele>53.489760</ele>
        <time>2022-01-09T07:45:04.783Z</time>
      </trkpt>
      <trkpt lat="50.649295" lon="7.206457">
        <ele>53.463713</ele>
        <time>2022-01-09T07:45:06.492Z</time>
      </trkpt>
      <trkpt lat="50.650670" lon="7.206220">
        <ele>53.468959</ele>
        <time>2022-01-09T07:45:37.755Z</time>
      </trkpt>
      <trkpt lat="50.651639" lon="7.206072">
        <ele>53.600670</ele>
        <time>2022-01-09T07:46:00.391Z</time>
      </trkpt>
      <trkpt lat="50.652358" lon="7.205683">
        <ele>53.781069</ele>
        <time>2022-01-09T07:46:17.733Z</time>
      </trkpt>
      <trkpt lat="50.652678" lon="7.205429">
        <ele>53.866089</ele>
        <time>2022-01-09T07:46:26.040Z</time>
      </trkpt>
      <trkpt lat="50.654899" lon="7.203129">
        <ele>54.552904</ele>
        <time>2022-01-09T07:47:28.962Z</time>
      </trkpt>
      <trkpt lat="50.654975" lon="7.203051">
        <ele>54.542206</ele>
        <time>2022-01-09T07:47:30.937Z</time>
      </trkpt>
      <trkpt lat="50.655561" lon="7.202454">
        <ele>54.459897</ele>
        <time>2022-01-09T07:47:45.933Z</time>
      </trkpt>
      <trkpt lat="50.657068" lon="7.201267">
        <ele>54.197231</ele>
        <time>2022-01-09T07:48:21.059Z</time>
      </trkpt>
      <trkpt lat="50.657612" lon="7.200730">
        <ele>54.084369</ele>
        <time>2022-01-09T07:48:35.397Z</time>
      </trkpt>
      <trkpt lat="50.658452" lon="7.199696">
        <ele>54.288278</ele>
        <time>2022-01-09T07:49:00.337Z</time>
      </trkpt>
      <trkpt lat="50.659234" lon="7.198819">
        <ele>54.470687</ele>
        <time>2022-01-09T07:49:22.636Z</time>
      </trkpt>
      <trkpt lat="50.660486" lon="7.197748">
        <ele>54.610656</ele>
        <time>2022-01-09T07:49:54.817Z</time>
      </trkpt>
      <trkpt lat="50.660687" lon="7.197564">
        <ele>54.637732</ele>
        <time>2022-01-09T07:49:59.894Z</time>
      </trkpt>
      <trkpt lat="50.661274" lon="7.197041">
        <ele>54.793867</ele>
        <time>2022-01-09T07:50:14.892Z</time>
      </trkpt>
      <trkpt lat="50.662356" lon="7.195974">
        <ele>55.119161</ele>
        <time>2022-01-09T07:50:44.995Z</time>
      </trkpt>
      <trkpt lat="50.663318" lon="7.194989">
        <ele>55.571035</ele>
        <time>2022-01-09T07:51:12.904Z</time>
      </trkpt>
      <trkpt lat="50.664195" lon="7.194046">
        <ele>55.626390</ele>
        <time>2022-01-09T07:51:37.544Z</time>
      </trkpt>
      <trkpt lat="50.665435" lon="7.192744">
        <ele>55.239313</ele>
        <time>2022-01-09T07:52:08.358Z</time>
      </trkpt>
      <trkpt lat="50.665510" lon="7.192852">
        <ele>55.194852</ele>
        <time>2022-01-09T07:52:10.223Z</time>
      </trkpt>
      <trkpt lat="50.666975" lon="7.191522">
        <ele>54.628748</ele>
        <time>2022-01-09T07:52:45.346Z</time>
      </trkpt>
      <trkpt lat="50.667575" lon="7.191146">
        <ele>54.751748</ele>
        <time>2022-01-09T07:53:00.265Z</time>
      </trkpt>
      <trkpt lat="50.668048" lon="7.190576">
        <ele>54.865143</ele>
        <time>2022-01-09T07:53:14.458Z</time>
      </trkpt>
      <trkpt lat="50.668574" lon="7.190220">
        <ele>55.051739</ele>
        <time>2022-01-09T07:53:28.112Z</time>
      </trkpt>
      <trkpt lat="50.668869" lon="7.189789">
        <ele>55.235352</ele>
        <time>2022-01-09T07:53:38.027Z</time>
      </trkpt>
      <trkpt lat="50.669061" lon="7.189554">
        <ele>55.346327</ele>
        <time>2022-01-09T07:53:43.964Z</time>
      </trkpt>
      <trkpt lat="50.669691" lon="7.189021">
        <ele>55.672794</ele>
        <time>2022-01-09T07:54:00.994Z</time>
      </trkpt>
      <trkpt lat="50.670713" lon="7.188192">
        <ele>56.056187</ele>
        <time>2022-01-09T07:54:28.292Z</time>
      </trkpt>
      <trkpt lat="50.673441" lon="7.185979">
        <ele>56.690246</ele>
        <time>2022-01-09T07:55:39.502Z</time>
      </trkpt>
      <trkpt lat="50.677368" lon="7.182599">
        <ele>55.868447</ele>
        <time>2022-01-09T07:57:15.779Z</time>
      </trkpt>
      <trkpt lat="50.678922" lon="7.181087">
        <ele>55.010762</ele>
        <time>2022-01-09T07:57:53.157Z</time>
      </trkpt>
      <trkpt lat="50.679729" lon="7.180219">
        <ele>54.612047</ele>
        <time>2022-01-09T07:58:13.131Z</time>
      </trkpt>
      <trkpt lat="50.679902" lon="7.180041">
        <ele>54.546358</ele>
        <time>2022-01-09T07:58:17.409Z</time>
      </trkpt>
      <trkpt lat="50.681296" lon="7.178658">
        <ele>54.360918</ele>
        <time>2022-01-09T07:58:52.804Z</time>
      </trkpt>
      <trkpt lat="50.681465" lon="7.178497">
        <ele>54.408113</ele>
        <time>2022-01-09T07:58:57.337Z</time>
      </trkpt>
      <trkpt lat="50.681486" lon="7.178477">
        <ele>54.413978</ele>
        <time>2022-01-09T07:58:57.907Z</time>
      </trkpt>
      <trkpt lat="50.682695" lon="7.177228">
        <ele>54.961920</ele>
        <time>2022-01-09T07:59:33.232Z</time>
      </trkpt>
      <trkpt lat="50.683874" lon="7.175762">
        <ele>55.946790</ele>
        <time>2022-01-09T08:00:10.683Z</time>
      </trkpt>
      <trkpt lat="50.684043" lon="7.175638">
        <ele>56.056904</ele>
        <time>2022-01-09T08:00:15.232Z</time>
      </trkpt>
      <trkpt lat="50.684966" lon="7.174671">
        <ele>56.711457</ele>
        <time>2022-01-09T08:00:42.356Z</time>
      </trkpt>
      <trkpt lat="50.685353" lon="7.174354">
        <ele>56.947689</ele>
        <time>2022-01-09T08:00:53.240Z</time>
      </trkpt>
      <trkpt lat="50.685663" lon="7.174115">
        <ele>57.084056</ele>
        <time>2022-01-09T08:01:01.881Z</time>
      </trkpt>
      <trkpt lat="50.688418" lon="7.172622">
        <ele>57.640793</ele>
        <time>2022-01-09T08:02:09.988Z</time>
      </trkpt>
      <trkpt lat="50.688746" lon="7.172467">
        <ele>57.541903</ele>
        <time>2022-01-09T08:02:16.610Z</time>
      </trkpt>
      <trkpt lat="50.689074" lon="7.172311">
        <ele>57.228849</ele>
        <time>2022-01-09T08:02:23.098Z</time>
      </trkpt>
      <trkpt lat="50.689114" lon="7.172289">
        <ele>57.190140</ele>
        <time>2022-01-09T08:02:23.913Z</time>
      </trkpt>
      <trkpt lat="50.689169" lon="7.172253">
        <ele>57.135728</ele>
        <time>2022-01-09T08:02:25.021Z</time>
      </trkpt>
      <trkpt lat="50.689642" lon="7.172034">
        <ele>56.685266</ele>
        <time>2022-01-09T08:02:34.206Z</time>
      </trkpt>
      <trkpt lat="50.689976" lon="7.171873">
        <ele>56.366126</ele>
        <time>2022-01-09T08:02:40.813Z</time>
      </trkpt>
      <trkpt lat="50.690250" lon="7.171733">
        <ele>56.102940</ele>
        <time>2022-01-09T08:02:46.518Z</time>
      </trkpt>
      <trkpt lat="50.690591" lon="7.171558">
        <ele>56.036051</ele>
        <time>2022-01-09T08:02:54.025Z</time>
      </trkpt>
      <trkpt lat="50.690631" lon="7.171536">
        <ele>56.042095</ele>
        <time>2022-01-09T08:02:54.952Z</time>
      </trkpt>
      <trkpt lat="50.690923" lon="7.171427">
        <ele>56.084913</ele>
        <time>2022-01-09T08:03:01.537Z</time>
      </trkpt>
      <trkpt lat="50.690959" lon="7.171355">
        <ele>56.093205</ele>
        <time>2022-01-09T08:03:02.914Z</time>
      </trkpt>
      <trkpt lat="50.690997" lon="7.171358">
        <ele>56.098634</ele>
        <time>2022-01-09T08:03:03.781Z</time>
      </trkpt>
      <trkpt lat="50.691283" lon="7.171208">
        <ele>56.141640</ele>
        <time>2022-01-09T08:03:10.979Z</time>
      </trkpt>
      <trkpt lat="50.691487" lon="7.171102">
        <ele>56.172288</ele>
        <time>2022-01-09T08:03:16.162Z</time>
      </trkpt>
      <trkpt lat="50.691743" lon="7.170976">
        <ele>56.210554</ele>
        <time>2022-01-09T08:03:22.620Z</time>
      </trkpt>
      <trkpt lat="50.692425" lon="7.170638">
        <ele>56.212893</ele>
        <time>2022-01-09T08:03:40.096Z</time>
      </trkpt>
      <trkpt lat="50.692535" lon="7.170588">
        <ele>56.199662</ele>
        <time>2022-01-09T08:03:42.836Z</time>
      </trkpt>
      <trkpt lat="50.692584" lon="7.170567">
        <ele>56.193793</ele>
        <time>2022-01-09T08:03:43.942Z</time>
      </trkpt>
      <trkpt lat="50.693219" lon="7.170225">
        <ele>56.116242</ele>
        <time>2022-01-09T08:03:58.480Z</time>
      </trkpt>
      <trkpt lat="50.693611" lon="7.169935">
        <ele>56.066203</ele>
        <time>2022-01-09T08:04:07.120Z</time>
      </trkpt>
      <trkpt lat="50.693846" lon="7.169731">
        <ele>56.012254</ele>
        <time>2022-01-09T08:04:12.562Z</time>
      </trkpt>
      <trkpt lat="50.694092" lon="7.169695">
        <ele>55.938160</ele>
        <time>2022-01-09T08:04:19.221Z</time>
      </trkpt>
      <trkpt lat="50.694796" lon="7.169527">
        <ele>55.724625</ele>
        <time>2022-01-09T08:04:34.168Z</time>
      </trkpt>
      <trkpt lat="50.696320" lon="7.168949">
        <ele>55.339809</ele>
        <time>2022-01-09T08:05:08.331Z</time>
      </trkpt>
      <trkpt lat="50.698153" lon="7.168176">
        <ele>54.850518</ele>
        <time>2022-01-09T08:05:48.924Z</time>
      </trkpt>
      <trkpt lat="50.698976" lon="7.167825">
        <ele>54.582284</ele>
        <time>2022-01-09T08:06:06.601Z</time>
      </trkpt>
      <trkpt lat="50.698988" lon="7.167889">
        <ele>54.576348</ele>
        <time>2022-01-09T08:06:09.516Z</time>
      </trkpt>
      <trkpt lat="50.699087" lon="7.167845">
        <ele>54.561907</ele>
        <time>2022-01-09T08:06:16.684Z</time>
      </trkpt>
      <trkpt lat="50.699699" lon="7.167583">
        <ele>54.472871</ele>
        <time>2022-01-09T08:07:00.745Z</time>
      </trkpt>
      <trkpt lat="50.700693" lon="7.167048">
        <ele>54.340793</ele>
        <time>2022-01-09T08:08:13.716Z</time>
      </trkpt>
      <trkpt lat="50.700932" lon="7.166919">
        <ele>54.414689</ele>
        <time>2022-01-09T08:08:31.251Z</time>
      </trkpt>
      <trkpt lat="50.701699" lon="7.166444">
        <ele>54.655734</ele>
        <time>2022-01-09T08:09:28.516Z</time>
      </trkpt>
      <trkpt lat="50.702079" lon="7.166114">
        <ele>54.782617</ele>
        <time>2022-01-09T08:09:58.663Z</time>
      </trkpt>
      <trkpt lat="50.702173" lon="7.166051">
        <ele>54.812494</ele>
        <time>2022-01-09T08:10:00.987Z</time>
      </trkpt>
      <trkpt lat="50.702170" lon="7.165921">
        <ele>54.836598</ele>
        <time>2022-01-09T08:10:03.139Z</time>
      </trkpt>
      <trkpt lat="50.702676" lon="7.165454">
        <ele>54.994999</ele>
        <time>2022-01-09T08:10:17.348Z</time>
      </trkpt>
      <trkpt lat="50.702744" lon="7.165396">
        <ele>55.015658</ele>
        <time>2022-01-09T08:10:19.271Z</time>
      </trkpt>
      <trkpt lat="50.703354" lon="7.164878">
        <ele>55.200803</ele>
        <time>2022-01-09T08:10:36.046Z</time>
      </trkpt>
      <trkpt lat="50.704123" lon="7.164219">
        <ele>55.213204</ele>
        <time>2022-01-09T08:10:55.044Z</time>
      </trkpt>
      <trkpt lat="50.705486" lon="7.162954">
        <ele>54.656867</ele>
        <time>2022-01-09T08:11:27.918Z</time>
      </trkpt>
      <trkpt lat="50.706476" lon="7.161883">
        <ele>54.110747</ele>
        <time>2022-01-09T08:11:52.382Z</time>
      </trkpt>
      <trkpt lat="50.707754" lon="7.160382">
        <ele>53.550127</ele>
        <time>2022-01-09T08:12:26.251Z</time>
      </trkpt>
      <trkpt lat="50.708746" lon="7.159113">
        <ele>53.201482</ele>
        <time>2022-01-09T08:12:53.077Z</time>
      </trkpt>
      <trkpt lat="50.710663" lon="7.156051">
        <ele>52.877730</ele>
        <time>2022-01-09T08:13:52.009Z</time>
      </trkpt>
      <trkpt lat="50.711480" lon="7.154646">
        <ele>53.389670</ele>
        <time>2022-01-09T08:14:20.720Z</time>
      </trkpt>
      <trkpt lat="50.711708" lon="7.154154">
        <ele>53.599711</ele>
        <time>2022-01-09T08:14:30.642Z</time>
      </trkpt>
      <trkpt lat="50.712412" lon="7.152675">
        <ele>54.253934</ele>
        <time>2022-01-09T08:15:00.168Z</time>
      </trkpt>
      <trkpt lat="50.712499" lon="7.152389">
        <ele>54.367961</ele>
        <time>2022-01-09T08:15:05.332Z</time>
      </trkpt>
      <trkpt lat="50.712806" lon="7.151862">
        <ele>54.625309</ele>
        <time>2022-01-09T08:15:16.220Z</time>
      </trkpt>
      <trkpt lat="50.713100" lon="7.151155">
        <ele>54.909913</ele>
        <time>2022-01-09T08:15:28.812Z</time>
      </trkpt>
      <trkpt lat="50.713838" lon="7.149382">
        <ele>55.427051</ele>
        <time>2022-01-09T08:16:01.160Z</time>
      </trkpt>
      <trkpt lat="50.714553" lon="7.147642">
        <ele>55.734775</ele>
        <time>2022-01-09T08:16:31.554Z</time>
      </trkpt>
      <trkpt lat="50.714799" lon="7.147123">
        <ele>55.808568</ele>
        <time>2022-01-09T08:16:40.964Z</time>
      </trkpt>
      <trkpt lat="50.714898" lon="7.146774">
        <ele>55.852097</ele>
        <time>2022-01-09T08:16:46.335Z</time>
      </trkpt>
      <trkpt lat="50.715172" lon="7.145810">
        <ele>55.932691</ele>
        <time>2022-01-09T08:17:01.314Z</time>
      </trkpt>
      <trkpt lat="50.715365" lon="7.145277">
        <ele>55.970928</ele>
        <time>2022-01-09T08:17:09.923Z</time>
      </trkpt>
      <trkpt lat="50.715404" lon="7.144886">
        <ele>55.995578</ele>
        <time>2022-01-09T08:17:15.638Z</time>
      </trkpt>
      <trkpt lat="50.715639" lon="7.143867">
        <ele>56.058116</ele>
        <time>2022-01-09T08:17:31.571Z</time>
      </trkpt>
      <trkpt lat="50.715943" lon="7.142589">
        <ele>55.851375</ele>
        <time>2022-01-09T08:17:51.220Z</time>
      </trkpt>
      <trkpt lat="50.716603" lon="7.139981">
        <ele>55.278615</ele>
        <time>2022-01-09T08:18:27.120Z</time>
      </trkpt>
      <trkpt lat="50.716860" lon="7.138911">
        <ele>54.980925</ele>
        <time>2022-01-09T08:18:42.520Z</time>
      </trkpt>
      <trkpt lat="50.717082" lon="7.137919">
        <ele>54.875967</ele>
        <time>2022-01-09T08:18:56.858Z</time>
      </trkpt>
      <trkpt lat="50.717280" lon="7.137050">
        <ele>54.854509</ele>
        <time>2022-01-09T08:19:10.053Z</time>
      </trkpt>
      <trkpt lat="50.717416" lon="7.136499">
        <ele>54.840769</ele>
        <time>2022-01-09T08:19:18.604Z</time>
      </trkpt>
      <trkpt lat="50.717621" lon="7.135722">
        <ele>54.786711</ele>
        <time>2022-01-09T08:19:30.576Z</time>
      </trkpt>
      <trkpt lat="50.718193" lon="7.133175">
        <ele>54.309772</ele>
        <time>2022-01-09T08:20:06.430Z</time>
      </trkpt>
      <trkpt lat="50.718401" lon="7.132125">
        <ele>54.049828</ele>
        <time>2022-01-09T08:20:21.230Z</time>
      </trkpt>
      <trkpt lat="50.718674" lon="7.130745">
        <ele>53.708231</ele>
        <time>2022-01-09T08:20:40.064Z</time>
      </trkpt>
      <trkpt lat="50.718930" lon="7.129400">
        <ele>53.786272</ele>
        <time>2022-01-09T08:20:59.490Z</time>
      </trkpt>
      <trkpt lat="50.719028" lon="7.129064">
        <ele>53.825284</ele>
        <time>2022-01-09T08:21:05.026Z</time>
      </trkpt>
      <trkpt lat="50.719118" lon="7.128620">
        <ele>53.874448</ele>
        <time>2022-01-09T08:21:12.205Z</time>
      </trkpt>
      <trkpt lat="50.719158" lon="7.128439">
        <ele>53.894665</ele>
        <time>2022-01-09T08:21:15.294Z</time>
      </trkpt>
      <trkpt lat="50.719587" lon="7.126695">
        <ele>54.588878</ele>
        <time>2022-01-09T08:21:44.408Z</time>
      </trkpt>
      <trkpt lat="50.719859" lon="7.125743">
        <ele>55.111777</ele>
        <time>2022-01-09T08:22:01.728Z</time>
      </trkpt>
      <trkpt lat="50.720185" lon="7.124757">
        <ele>55.677877</ele>
        <time>2022-01-09T08:22:20.019Z</time>
      </trkpt>
      <trkpt lat="50.720328" lon="7.124354">
        <ele>55.916583</ele>
        <time>2022-01-09T08:22:27.624Z</time>
      </trkpt>
      <trkpt lat="50.720912" lon="7.122840">
        <ele>56.832624</ele>
        <time>2022-01-09T08:22:55.819Z</time>
      </trkpt>
      <trkpt lat="50.721427" lon="7.121617">
        <ele>57.508932</ele>
        <time>2022-01-09T08:23:19.776Z</time>
      </trkpt>
      <trkpt lat="50.722446" lon="7.119719">
        <ele>58.238765</ele>
        <time>2022-01-09T08:23:58.632Z</time>
      </trkpt>
      <trkpt lat="50.723829" lon="7.117462">
        <ele>57.893763</ele>
        <time>2022-01-09T08:24:41.331Z</time>
      </trkpt>
      <trkpt lat="50.724103" lon="7.117062">
        <ele>57.688280</ele>
        <time>2022-01-09T08:24:48.722Z</time>
      </trkpt>
      <trkpt lat="50.725684" lon="7.114750">
        <ele>55.998801</ele>
        <time>2022-01-09T08:25:30.748Z</time>
      </trkpt>
      <trkpt lat="50.725852" lon="7.114551">
        <ele>55.819233</ele>
        <time>2022-01-09T08:25:34.929Z</time>
      </trkpt>
      <trkpt lat="50.727075" lon="7.113114">
        <ele>54.681092</ele>
        <time>2022-01-09T08:26:05.562Z</time>
      </trkpt>
      <trkpt lat="50.727889" lon="7.112297">
        <ele>53.859140</ele>
        <time>2022-01-09T08:26:24.154Z</time>
      </trkpt>
      <trkpt lat="50.728450" lon="7.111791">
        <ele>53.283599</ele>
        <time>2022-01-09T08:26:36.477Z</time>
      </trkpt>
      <trkpt lat="50.728923" lon="7.111419">
        <ele>52.889246</ele>
        <time>2022-01-09T08:26:47.013Z</time>
      </trkpt>
      <trkpt lat="50.729885" lon="7.110769">
        <ele>52.934683</ele>
        <time>2022-01-09T08:27:09.482Z</time>
      </trkpt>
      <trkpt lat="50.730323" lon="7.110502">
        <ele>52.955071</ele>
        <time>2022-01-09T08:27:27.873Z</time>
      </trkpt>
      <trkpt lat="50.731105" lon="7.110024">
        <ele>53.312426</ele>
        <time>2022-01-09T08:28:02.161Z</time>
      </trkpt>
      <trkpt lat="50.732225" lon="7.109339">
        <ele>53.943253</ele>
        <time>2022-01-09T08:28:49.033Z</time>
      </trkpt>
      <trkpt lat="50.732375" lon="7.109413">
        <ele>53.926046</ele>
        <time>2022-01-09T08:28:52.320Z</time>
      </trkpt>
      <trkpt lat="50.734575" lon="7.108423">
        <ele>53.627408</ele>
        <time>2022-01-09T08:29:41.331Z</time>
      </trkpt>
      <trkpt lat="50.735738" lon="7.107757">
        <ele>53.412462</ele>
        <time>2022-01-09T08:30:08.113Z</time>
      </trkpt>
      <trkpt lat="50.736116" lon="7.107628">
        <ele>53.365984</ele>
        <time>2022-01-09T08:30:16.735Z</time>
      </trkpt>
      <trkpt lat="50.736254" lon="7.107581">
        <ele>53.349017</ele>
        <time>2022-01-09T08:30:19.732Z</time>
      </trkpt>
      <trkpt lat="50.737063" lon="7.107356">
        <ele>53.250290</ele>
        <time>2022-01-09T08:30:37.571Z</time>
      </trkpt>
      <trkpt lat="50.737413" lon="7.107254">
        <ele>53.207363</ele>
        <time>2022-01-09T08:30:45.402Z</time>
      </trkpt>
      <trkpt lat="50.738605" lon="7.106909">
        <ele>53.055721</ele>
        <time>2022-01-09T08:31:12.511Z</time>
      </trkpt>
      <trkpt lat="50.738595" lon="7.106827">
        <ele>53.049107</ele>
        <time>2022-01-09T08:31:13.837Z</time>
      </trkpt>
      <trkpt lat="50.739395" lon="7.106580">
        <ele>52.894829</ele>
        <time>2022-01-09T08:31:30.461Z</time>
      </trkpt>
      <trkpt lat="50.739956" lon="7.106400">
        <ele>52.727233</ele>
        <time>2022-01-09T08:31:42.657Z</time>
      </trkpt>
      <trkpt lat="50.740413" lon="7.106245">
        <ele>52.590390</ele>
        <time>2022-01-09T08:31:52.703Z</time>
      </trkpt>
      <trkpt lat="50.740557" lon="7.106200">
        <ele>52.547414</ele>
        <time>2022-01-09T08:31:55.910Z</time>
      </trkpt>
      <trkpt lat="50.741560" lon="7.105860">
        <ele>52.458816</ele>
        <time>2022-01-09T08:32:17.371Z</time>
      </trkpt>
      <trkpt lat="50.741723" lon="7.105796">
        <ele>52.458649</ele>
        <time>2022-01-09T08:32:21.042Z</time>
      </trkpt>
      <trkpt lat="50.742410" lon="7.105522">
        <ele>52.457942</ele>
        <time>2022-01-09T08:32:38.097Z</time>
      </trkpt>
      <trkpt lat="50.742585" lon="7.105312">
        <ele>52.451909</ele>
        <time>2022-01-09T08:32:43.360Z</time>
      </trkpt>
      <trkpt lat="50.742661" lon="7.105327">
        <ele>52.432694</ele>
        <time>2022-01-09T08:32:44.944Z</time>
      </trkpt>
      <trkpt lat="50.742922" lon="7.105226">
        <ele>52.365280</ele>
        <time>2022-01-09T08:32:51.095Z</time>
      </trkpt>
      <trkpt lat="50.743074" lon="7.105175">
        <ele>52.326296</ele>
        <time>2022-01-09T08:32:54.339Z</time>
      </trkpt>
      <trkpt lat="50.743910" lon="7.104912">
        <ele>52.112445</ele>
        <time>2022-01-09T08:33:12.200Z</time>
      </trkpt>
      <trkpt lat="50.745234" lon="7.104496">
        <ele>51.598817</ele>
        <time>2022-01-09T08:33:39.940Z</time>
      </trkpt>
      <trkpt lat="50.746168" lon="7.104171">
        <ele>51.202256</ele>
        <time>2022-01-09T08:33:59.532Z</time>
      </trkpt>
      <trkpt lat="50.747600" lon="7.103596">
        <ele>50.964085</ele>
        <time>2022-01-09T08:34:31.868Z</time>
      </trkpt>
      <trkpt lat="50.748000" lon="7.103431">
        <ele>50.935676</ele>
        <time>2022-01-09T08:34:41.049Z</time>
      </trkpt>
      <trkpt lat="50.749465" lon="7.102730">
        <ele>51.018416</ele>
        <time>2022-01-09T08:35:15.464Z</time>
      </trkpt>
      <trkpt lat="50.750210" lon="7.102296">
        <ele>51.155999</ele>
        <time>2022-01-09T08:35:33.639Z</time>
      </trkpt>
      <trkpt lat="50.751127" lon="7.101774">
        <ele>51.339811</ele>
        <time>2022-01-09T08:35:55.745Z</time>
      </trkpt>
      <trkpt lat="50.751594" lon="7.101536">
        <ele>51.576459</ele>
        <time>2022-01-09T08:36:07.152Z</time>
      </trkpt>
      <trkpt lat="50.752642" lon="7.100780">
        <ele>52.242003</ele>
        <time>2022-01-09T08:36:35.887Z</time>
      </trkpt>
      <trkpt lat="50.753712" lon="7.099757">
        <ele>52.982502</ele>
        <time>2022-01-09T08:37:07.263Z</time>
      </trkpt>
      <trkpt lat="50.755154" lon="7.098158">
        <ele>54.113776</ele>
        <time>2022-01-09T08:37:49.723Z</time>
      </trkpt>
      <trkpt lat="50.755156" lon="7.097878">
        <ele>54.234718</ele>
        <time>2022-01-09T08:37:55.613Z</time>
      </trkpt>
      <trkpt lat="50.754686" lon="7.096327">
        <ele>55.187802</ele>
        <time>2022-01-09T08:38:31.553Z</time>
      </trkpt>
      <trkpt lat="50.754647" lon="7.096362">
        <ele>55.241796</ele>
        <time>2022-01-09T08:38:32.946Z</time>
      </trkpt>
      <trkpt lat="50.754538" lon="7.096230">
        <ele>55.407113</ele>
        <time>2022-01-09T08:38:38.539Z</time>
      </trkpt>
      <trkpt lat="50.754465" lon="7.096036">
        <ele>55.579039</ele>
        <time>2022-01-09T08:38:43.960Z</time>
      </trkpt>
      <trkpt lat="50.754395" lon="7.095847">
        <ele>55.745849</ele>
        <time>2022-01-09T08:38:48.630Z</time>
      </trkpt>
      <trkpt lat="50.754345" lon="7.095707">
        <ele>55.868302</ele>
        <time>2022-01-09T08:38:52.119Z</time>
      </trkpt>
      <trkpt lat="50.754177" lon="7.095856">
        <ele>56.100229</ele>
        <time>2022-01-09T08:38:58.905Z</time>
      </trkpt>
      <trkpt lat="50.754090" lon="7.095910">
        <ele>56.212759</ele>
        <time>2022-01-09T08:39:02.007Z</time>
      </trkpt>
      <trkpt lat="50.754021" lon="7.095829">
        <ele>56.316235</ele>
        <time>2022-01-09T08:39:05.050Z</time>
      </trkpt>
      <trkpt lat="50.753946" lon="7.095118">
        <ele>56.865265</ele>
        <time>2022-01-09T08:39:17.633Z</time>
      </trkpt>
      <trkpt lat="50.754092" lon="7.094932">
        <ele>56.979705</ele>
        <time>2022-01-09T08:39:22.406Z</time>
      </trkpt>
      <trkpt lat="50.754204" lon="7.094738">
        <ele>57.080119</ele>
        <time>2022-01-09T08:39:27.046Z</time>
      </trkpt>
      <trkpt lat="50.754309" lon="7.094531">
        <ele>57.181560</ele>
        <time>2022-01-09T08:39:31.509Z</time>
      </trkpt>
      <trkpt lat="50.754390" lon="7.094363">
        <ele>57.262318</ele>
        <time>2022-01-09T08:39:35.096Z</time>
      </trkpt>
      <trkpt lat="50.754652" lon="7.093898">
        <ele>57.500389</ele>
        <time>2022-01-09T08:39:45.065Z</time>
      </trkpt>
      <trkpt lat="50.755948" lon="7.091809">
        <ele>57.567620</ele>
        <time>2022-01-09T08:40:26.174Z</time>
      </trkpt>
      <trkpt lat="50.756340" lon="7.091178">
        <ele>57.370777</ele>
        <time>2022-01-09T08:40:37.351Z</time>
      </trkpt>
      <trkpt lat="50.757191" lon="7.089709">
        <ele>56.476785</ele>
        <time>2022-01-09T08:41:01.744Z</time>
      </trkpt>
      <trkpt lat="50.757715" lon="7.088986">
        <ele>55.968258</ele>
        <time>2022-01-09T08:41:15.614Z</time>
      </trkpt>
      <trkpt lat="50.757810" lon="7.088702">
        <ele>56.001063</ele>
        <time>2022-01-09T08:41:19.789Z</time>
      </trkpt>
      <trkpt lat="50.757797" lon="7.088565">
        <ele>56.015210</ele>
        <time>2022-01-09T08:41:21.690Z</time>
      </trkpt>
      <trkpt lat="50.757790" lon="7.088530">
        <ele>56.018958</ele>
        <time>2022-01-09T08:41:22.201Z</time>
      </trkpt>
      <trkpt lat="50.758852" lon="7.086502">
        <ele>56.149911</ele>
        <time>2022-01-09T08:42:01.946Z</time>
      </trkpt>
      <trkpt lat="50.758917" lon="7.086378">
        <ele>56.095510</ele>
        <time>2022-01-09T08:42:04.294Z</time>
      </trkpt>
      <trkpt lat="50.759069" lon="7.086095">
        <ele>55.970098</ele>
        <time>2022-01-09T08:42:09.618Z</time>
      </trkpt>
      <trkpt lat="50.759217" lon="7.085812">
        <ele>55.846058</ele>
        <time>2022-01-09T08:42:14.704Z</time>
      </trkpt>
      <trkpt lat="50.759502" lon="7.085334">
        <ele>55.624164</ele>
        <time>2022-01-09T08:42:23.067Z</time>
      </trkpt>
      <trkpt lat="50.759826" lon="7.085190">
        <ele>55.444434</ele>
        <time>2022-01-09T08:42:29.439Z</time>
      </trkpt>
      <trkpt lat="50.760054" lon="7.085097">
        <ele>55.318690</ele>
        <time>2022-01-09T08:42:33.871Z</time>
      </trkpt>
      <trkpt lat="50.760344" lon="7.084581">
        <ele>54.746761</ele>
        <time>2022-01-09T08:42:41.887Z</time>
      </trkpt>
      <trkpt lat="50.760431" lon="7.084611">
        <ele>54.622411</ele>
        <time>2022-01-09T08:42:43.458Z</time>
      </trkpt>
      <trkpt lat="50.760549" lon="7.084809">
        <ele>54.382107</ele>
        <time>2022-01-09T08:42:46.596Z</time>
      </trkpt>
      <trkpt lat="50.760635" lon="7.084780">
        <ele>54.259308</ele>
        <time>2022-01-09T08:42:48.361Z</time>
      </trkpt>
      <trkpt lat="50.760761" lon="7.084547">
        <ele>53.988525</ele>
        <time>2022-01-09T08:42:52.340Z</time>
      </trkpt>
      <trkpt lat="50.760951" lon="7.084781">
        <ele>53.652181</ele>
        <time>2022-01-09T08:42:56.615Z</time>
      </trkpt>
      <trkpt lat="50.761744" lon="7.083291">
        <ele>52.473299</ele>
        <time>2022-01-09T08:43:20.169Z</time>
      </trkpt>
      <trkpt lat="50.762038" lon="7.082927">
        <ele>52.283294</ele>
        <time>2022-01-09T08:43:27.928Z</time>
      </trkpt>
      <trkpt lat="50.762223" lon="7.082541">
        <ele>52.127429</ele>
        <time>2022-01-09T08:43:34.552Z</time>
      </trkpt>
      <trkpt lat="50.762303" lon="7.082149">
        <ele>51.994863</ele>
        <time>2022-01-09T08:43:40.307Z</time>
      </trkpt>
      <trkpt lat="50.762341" lon="7.082088">
        <ele>51.967308</ele>
        <time>2022-01-09T08:43:41.444Z</time>
      </trkpt>
      <trkpt lat="50.762361" lon="7.082056">
        <ele>51.952829</ele>
        <time>2022-01-09T08:43:42.033Z</time>
      </trkpt>
      <trkpt lat="50.763338" lon="7.080493">
        <ele>51.645466</ele>
        <time>2022-01-09T08:44:12.173Z</time>
      </trkpt>
      <trkpt lat="50.764049" lon="7.079119">
        <ele>51.409702</ele>
        <time>2022-01-09T08:44:36.160Z</time>
      </trkpt>
      <trkpt lat="50.764427" lon="7.078362">
        <ele>51.263794</ele>
        <time>2022-01-09T08:44:49.184Z</time>
      </trkpt>
      <trkpt lat="50.764798" lon="7.077454">
        <ele>51.104129</ele>
        <time>2022-01-09T08:45:03.873Z</time>
      </trkpt>
      <trkpt lat="50.765212" lon="7.076548">
        <ele>50.998269</ele>
        <time>2022-01-09T08:45:19.261Z</time>
      </trkpt>
      <trkpt lat="50.765861" lon="7.074894">
        <ele>50.820806</ele>
        <time>2022-01-09T08:45:45.975Z</time>
      </trkpt>
      <trkpt lat="50.765909" lon="7.074761">
        <ele>50.809955</ele>
        <time>2022-01-09T08:45:48.093Z</time>
      </trkpt>
      <trkpt lat="50.768209" lon="7.068490">
        <ele>50.528189</ele>
        <time>2022-01-09T08:47:28.158Z</time>
      </trkpt>
      <trkpt lat="50.768246" lon="7.068401">
        <ele>50.532971</ele>
        <time>2022-01-09T08:47:29.728Z</time>
      </trkpt>
      <trkpt lat="50.768305" lon="7.068257">
        <ele>50.540674</ele>
        <time>2022-01-09T08:47:32.269Z</time>
      </trkpt>
      <trkpt lat="50.768385" lon="7.068062">
        <ele>50.551111</ele>
        <time>2022-01-09T08:47:35.724Z</time>
      </trkpt>
      <trkpt lat="50.769380" lon="7.065589">
        <ele>51.313156</ele>
        <time>2022-01-09T08:48:20.715Z</time>
      </trkpt>
      <trkpt lat="50.769597" lon="7.065042">
        <ele>51.345999</ele>
        <time>2022-01-09T08:48:30.712Z</time>
      </trkpt>
      <trkpt lat="50.770503" lon="7.062874">
        <ele>51.080167</ele>
        <time>2022-01-09T08:49:05.595Z</time>
      </trkpt>
      <trkpt lat="50.770738" lon="7.062237">
        <ele>50.882709</ele>
        <time>2022-01-09T08:49:14.793Z</time>
      </trkpt>
      <trkpt lat="50.771142" lon="7.061140">
        <ele>50.542810</ele>
        <time>2022-01-09T08:49:31.189Z</time>
      </trkpt>
      <trkpt lat="50.771188" lon="7.061008">
        <ele>50.502456</ele>
        <time>2022-01-09T08:49:33.238Z</time>
      </trkpt>
      <trkpt lat="50.771230" lon="7.060881">
        <ele>50.464083</ele>
        <time>2022-01-09T08:49:35.202Z</time>
      </trkpt>
      <trkpt lat="50.771431" lon="7.060283">
        <ele>50.410383</ele>
        <time>2022-01-09T08:49:44.411Z</time>
      </trkpt>
      <trkpt lat="50.772072" lon="7.058085">
        <ele>50.821942</ele>
        <time>2022-01-09T08:50:21.425Z</time>
      </trkpt>
      <trkpt lat="50.772797" lon="7.054671">
        <ele>50.865801</ele>
        <time>2022-01-09T08:51:10.408Z</time>
      </trkpt>
      <trkpt lat="50.772927" lon="7.053695">
        <ele>51.232615</ele>
        <time>2022-01-09T08:51:25.373Z</time>
      </trkpt>
      <trkpt lat="50.772954" lon="7.053426">
        <ele>51.332782</ele>
        <time>2022-01-09T08:51:29.661Z</time>
      </trkpt>
      <trkpt lat="50.773031" lon="7.052873">
        <ele>51.541026</ele>
        <time>2022-01-09T08:51:39.140Z</time>
      </trkpt>
      <trkpt lat="50.773038" lon="7.052560">
        <ele>51.656208</ele>
        <time>2022-01-09T08:51:44.655Z</time>
      </trkpt>
      <trkpt lat="50.773045" lon="7.052226">
        <ele>51.978273</ele>
        <time>2022-01-09T08:51:50.523Z</time>
      </trkpt>
      <trkpt lat="50.772609" lon="7.052049">
        <ele>52.776434</ele>
        <time>2022-01-09T08:52:03.499Z</time>
      </trkpt>
      <trkpt lat="50.772614" lon="7.051763">
        <ele>53.097259</ele>
        <time>2022-01-09T08:52:08.946Z</time>
      </trkpt>
      <trkpt lat="50.772636" lon="7.051562">
        <ele>53.325998</ele>
        <time>2022-01-09T08:52:12.646Z</time>
      </trkpt>
      <trkpt lat="50.773035" lon="7.050149">
        <ele>54.994425</ele>
        <time>2022-01-09T08:52:43.044Z</time>
      </trkpt>
      <trkpt lat="50.773092" lon="7.050198">
        <ele>55.069036</ele>
        <time>2022-01-09T08:52:44.716Z</time>
      </trkpt>
      <trkpt lat="50.773122" lon="7.050135">
        <ele>55.126391</ele>
        <time>2022-01-09T08:52:46.247Z</time>
      </trkpt>
      <trkpt lat="50.773548" lon="7.048832">
        <ele>56.193158</ele>
        <time>2022-01-09T08:53:11.330Z</time>
      </trkpt>
      <trkpt lat="50.773890" lon="7.047784">
        <ele>56.964565</ele>
        <time>2022-01-09T08:53:29.656Z</time>
      </trkpt>
      <trkpt lat="50.774329" lon="7.046922">
        <ele>57.145064</ele>
        <time>2022-01-09T08:53:46.669Z</time>
      </trkpt>
      <trkpt lat="50.775369" lon="7.044947">
        <ele>57.356596</ele>
        <time>2022-01-09T08:54:22.977Z</time>
      </trkpt>
      <trkpt lat="50.775761" lon="7.044194">
        <ele>57.310190</ele>
        <time>2022-01-09T08:54:37.266Z</time>
      </trkpt>
      <trkpt lat="50.777131" lon="7.041707">
        <ele>56.338590</ele>
        <time>2022-01-09T08:55:20.668Z</time>
      </trkpt>
      <trkpt lat="50.778202" lon="7.040105">
        <ele>54.663897</ele>
        <time>2022-01-09T08:55:47.835Z</time>
      </trkpt>
      <trkpt lat="50.778354" lon="7.039876">
        <ele>54.400406</ele>
        <time>2022-01-09T08:55:51.680Z</time>
      </trkpt>
      <trkpt lat="50.778546" lon="7.039604">
        <ele>54.076875</ele>
        <time>2022-01-09T08:55:56.518Z</time>
      </trkpt>
      <trkpt lat="50.779044" lon="7.039016">
        <ele>53.787364</ele>
        <time>2022-01-09T08:56:08.855Z</time>
      </trkpt>
      <trkpt lat="50.781293" lon="7.036512">
        <ele>53.354336</ele>
        <time>2022-01-09T08:57:10.381Z</time>
      </trkpt>
      <trkpt lat="50.781666" lon="7.036101">
        <ele>53.298064</ele>
        <time>2022-01-09T08:57:19.866Z</time>
      </trkpt>
      <trkpt lat="50.781975" lon="7.035760">
        <ele>53.173016</ele>
        <time>2022-01-09T08:57:27.719Z</time>
      </trkpt>
      <trkpt lat="50.783669" lon="7.034158">
        <ele>52.577231</ele>
        <time>2022-01-09T08:58:09.061Z</time>
      </trkpt>
      <trkpt lat="50.786181" lon="7.031937">
        <ele>52.043678</ele>
        <time>2022-01-09T08:59:11.240Z</time>
      </trkpt>
      <trkpt lat="50.786977" lon="7.031269">
        <ele>52.106187</ele>
        <time>2022-01-09T08:59:31.304Z</time>
      </trkpt>
      <trkpt lat="50.788362" lon="7.030258">
        <ele>52.291452</ele>
        <time>2022-01-09T09:00:06.432Z</time>
      </trkpt>
      <trkpt lat="50.789735" lon="7.029391">
        <ele>52.449749</ele>
        <time>2022-01-09T09:00:40.562Z</time>
      </trkpt>
      <trkpt lat="50.790772" lon="7.028977">
        <ele>52.157835</ele>
        <time>2022-01-09T09:01:03.975Z</time>
      </trkpt>
      <trkpt lat="50.792474" lon="7.028127">
        <ele>50.859086</ele>
        <time>2022-01-09T09:01:38.863Z</time>
      </trkpt>
      <trkpt lat="50.792911" lon="7.028046">
        <ele>50.463545</ele>
        <time>2022-01-09T09:01:47.490Z</time>
      </trkpt>
      <trkpt lat="50.793207" lon="7.027991">
        <ele>50.205133</ele>
        <time>2022-01-09T09:01:53.238Z</time>
      </trkpt>
      <trkpt lat="50.793720" lon="7.027728">
        <ele>49.742108</ele>
        <time>2022-01-09T09:02:03.508Z</time>
      </trkpt>
      <trkpt lat="50.793742" lon="7.027699">
        <ele>49.717521</ele>
        <time>2022-01-09T09:02:04.075Z</time>
      </trkpt>
      <trkpt lat="50.793928" lon="7.027443">
        <ele>49.505836</ele>
        <time>2022-01-09T09:02:08.889Z</time>
      </trkpt>
      <trkpt lat="50.794367" lon="7.027384">
        <ele>49.127543</ele>
        <time>2022-01-09T09:02:18.522Z</time>
      </trkpt>
      <trkpt lat="50.795257" lon="7.027182">
        <ele>48.572183</ele>
        <time>2022-01-09T09:02:39.225Z</time>
      </trkpt>
      <trkpt lat="50.796386" lon="7.026949">
        <ele>48.011740</ele>
        <time>2022-01-09T09:03:05.201Z</time>
      </trkpt>
      <trkpt lat="50.797508" lon="7.026926">
        <ele>47.774757</ele>
        <time>2022-01-09T09:03:32.543Z</time>
      </trkpt>
      <trkpt lat="50.799281" lon="7.026874">
        <ele>47.291550</ele>
        <time>2022-01-09T09:04:14.997Z</time>
      </trkpt>
      <trkpt lat="50.799640" lon="7.026629">
        <ele>47.162435</ele>
        <time>2022-01-09T09:04:23.914Z</time>
      </trkpt>
      <trkpt lat="50.799742" lon="7.026693">
        <ele>47.126199</ele>
        <time>2022-01-09T09:04:26.950Z</time>
      </trkpt>
      <trkpt lat="50.799900" lon="7.027003">
        <ele>47.043078</ele>
        <time>2022-01-09T09:04:33.790Z</time>
      </trkpt>
      <trkpt lat="50.800734" lon="7.027096">
        <ele>46.864781</ele>
        <time>2022-01-09T09:04:51.168Z</time>
      </trkpt>
      <trkpt lat="50.801236" lon="7.027101">
        <ele>46.759037</ele>
        <time>2022-01-09T09:05:01.621Z</time>
      </trkpt>
      <trkpt lat="50.803901" lon="7.027292">
        <ele>47.217493</ele>
        <time>2022-01-09T09:06:03.723Z</time>
      </trkpt>
      <trkpt lat="50.805014" lon="7.027306">
        <ele>47.557835</ele>
        <time>2022-01-09T09:06:29.882Z</time>
      </trkpt>
      <trkpt lat="50.805889" lon="7.027246">
        <ele>47.818987</ele>
        <time>2022-01-09T09:06:51.042Z</time>
      </trkpt>
      <trkpt lat="50.807472" lon="7.027122">
        <ele>48.177383</ele>
        <time>2022-01-09T09:07:27.567Z</time>
      </trkpt>
      <trkpt lat="50.808253" lon="7.027044">
        <ele>48.177101</ele>
        <time>2022-01-09T09:07:44.731Z</time>
      </trkpt>
      <trkpt lat="50.808603" lon="7.027004">
        <ele>48.176974</ele>
        <time>2022-01-09T09:07:52.469Z</time>
      </trkpt>
      <trkpt lat="50.810157" lon="7.026651">
        <ele>48.066681</ele>
        <time>2022-01-09T09:08:27.085Z</time>
      </trkpt>
      <trkpt lat="50.810478" lon="7.026511">
        <ele>48.037827</ele>
        <time>2022-01-09T09:08:34.561Z</time>
      </trkpt>
      <trkpt lat="50.812057" lon="7.025862">
        <ele>47.780301</ele>
        <time>2022-01-09T09:09:09.336Z</time>
      </trkpt>
      <trkpt lat="50.813818" lon="7.025067">
        <ele>47.734278</ele>
        <time>2022-01-09T09:09:50.026Z</time>
      </trkpt>
      <trkpt lat="50.814367" lon="7.024728">
        <ele>47.718259</ele>
        <time>2022-01-09T09:10:03.413Z</time>
      </trkpt>
      <trkpt lat="50.817206" lon="7.022582">
        <ele>47.598898</ele>
        <time>2022-01-09T09:11:11.884Z</time>
      </trkpt>
      <trkpt lat="50.817998" lon="7.021773">
        <ele>48.337024</ele>
        <time>2022-01-09T09:11:35.074Z</time>
      </trkpt>
      <trkpt lat="50.819154" lon="7.020088">
        <ele>50.030287</ele>
        <time>2022-01-09T09:12:18.731Z</time>
      </trkpt>
      <trkpt lat="50.819763" lon="7.018834">
        <ele>51.296277</ele>
        <time>2022-01-09T09:12:46.438Z</time>
      </trkpt>
      <trkpt lat="50.820316" lon="7.017479">
        <ele>51.931268</ele>
        <time>2022-01-09T09:13:12.246Z</time>
      </trkpt>
      <trkpt lat="50.820813" lon="7.015999">
        <ele>52.336989</ele>
        <time>2022-01-09T09:13:36.306Z</time>
      </trkpt>
      <trkpt lat="50.821630" lon="7.012801">
        <ele>51.910239</ele>
        <time>2022-01-09T09:14:23.101Z</time>
      </trkpt>
      <trkpt lat="50.821801" lon="7.011908">
        <ele>51.701208</ele>
        <time>2022-01-09T09:14:35.352Z</time>
      </trkpt>
      <trkpt lat="50.821893" lon="7.011026">
        <ele>51.500954</ele>
        <time>2022-01-09T09:14:47.004Z</time>
      </trkpt>
      <trkpt lat="50.822020" lon="7.009806">
        <ele>51.381297</ele>
        <time>2022-01-09T09:15:03.693Z</time>
      </trkpt>
      <trkpt lat="50.821965" lon="7.009097">
        <ele>51.357269</ele>
        <time>2022-01-09T09:15:13.534Z</time>
      </trkpt>
      <trkpt lat="50.821932" lon="7.008739">
        <ele>51.345099</ele>
        <time>2022-01-09T09:15:18.759Z</time>
      </trkpt>
      <trkpt lat="50.821809" lon="7.007409">
        <ele>51.379222</ele>
        <time>2022-01-09T09:15:38.073Z</time>
      </trkpt>
      <trkpt lat="50.821765" lon="7.006376">
        <ele>51.550000</ele>
        <time>2022-01-09T09:15:53.642Z</time>
      </trkpt>
      <trkpt lat="50.821935" lon="7.001751">
        <ele>52.109048</ele>
        <time>2022-01-09T09:17:01.217Z</time>
      </trkpt>
      <trkpt lat="50.821942" lon="7.000069">
        <ele>51.978075</ele>
        <time>2022-01-09T09:17:25.026Z</time>
      </trkpt>
      <trkpt lat="50.821963" lon="6.999816">
        <ele>51.958206</ele>
        <time>2022-01-09T09:17:28.521Z</time>
      </trkpt>
      <trkpt lat="50.822280" lon="6.994550">
        <ele>49.938462</ele>
        <time>2022-01-09T09:18:35.039Z</time>
      </trkpt>
      <trkpt lat="50.822430" lon="6.993241">
        <ele>49.593096</ele>
        <time>2022-01-09T09:18:52.509Z</time>
      </trkpt>
      <trkpt lat="50.822711" lon="6.991891">
        <ele>49.641483</ele>
        <time>2022-01-09T09:19:12.337Z</time>
      </trkpt>
      <trkpt lat="50.822927" lon="6.990944">
        <ele>49.675758</ele>
        <time>2022-01-09T09:19:27.754Z</time>
      </trkpt>
      <trkpt lat="50.823135" lon="6.990326">
        <ele>49.960723</ele>
        <time>2022-01-09T09:19:38.058Z</time>
      </trkpt>
      <trkpt lat="50.823573" lon="6.989283">
        <ele>50.491063</ele>
        <time>2022-01-09T09:19:57.122Z</time>
      </trkpt>
      <trkpt lat="50.823613" lon="6.989184">
        <ele>50.540825</ele>
        <time>2022-01-09T09:19:59.322Z</time>
      </trkpt>
      <trkpt lat="50.823905" lon="6.989074">
        <ele>50.742023</ele>
        <time>2022-01-09T09:20:09.573Z</time>
      </trkpt>
      <trkpt lat="50.824078" lon="6.988893">
        <ele>50.881027</ele>
        <time>2022-01-09T09:20:16.496Z</time>
      </trkpt>
      <trkpt lat="50.824288" lon="6.988538">
        <ele>51.256960</ele>
        <time>2022-01-09T09:20:27.125Z</time>
      </trkpt>
      <trkpt lat="50.824372" lon="6.988141">
        <ele>51.581584</ele>
        <time>2022-01-09T09:20:36.319Z</time>
      </trkpt>
      <trkpt lat="50.824364" lon="6.987876">
        <ele>51.787288</ele>
        <time>2022-01-09T09:20:42.220Z</time>
      </trkpt>
      <trkpt lat="50.824583" lon="6.987437">
        <ele>52.221009</ele>
        <time>2022-01-09T09:20:54.063Z</time>
      </trkpt>
      <trkpt lat="50.824678" lon="6.987288">
        <ele>52.385153</ele>
        <time>2022-01-09T09:20:58.583Z</time>
      </trkpt>
      <trkpt lat="50.824696" lon="6.987252">
        <ele>52.420751</ele>
        <time>2022-01-09T09:20:59.550Z</time>
      </trkpt>
      <trkpt lat="50.824870" lon="6.986911">
        <ele>52.760628</ele>
        <time>2022-01-09T09:21:09.053Z</time>
      </trkpt>
      <trkpt lat="50.824913" lon="6.986828">
        <ele>52.843856</ele>
        <time>2022-01-09T09:21:11.377Z</time>
      </trkpt>
      <trkpt lat="50.824965" lon="6.986738">
        <ele>52.938424</ele>
        <time>2022-01-09T09:21:14.102Z</time>
      </trkpt>
      <trkpt lat="50.825009" lon="6.986651">
        <ele>53.024835</ele>
        <time>2022-01-09T09:21:16.676Z</time>
      </trkpt>
      <trkpt lat="50.825034" lon="6.986608">
        <ele>53.070147</ele>
        <time>2022-01-09T09:21:17.996Z</time>
      </trkpt>
      <trkpt lat="50.825055" lon="6.986570">
        <ele>53.101573</ele>
        <time>2022-01-09T09:21:19.136Z</time>
      </trkpt>
      <trkpt lat="50.825095" lon="6.986499">
        <ele>53.145657</ele>
        <time>2022-01-09T09:21:21.177Z</time>
      </trkpt>
      <trkpt lat="50.825151" lon="6.986385">
        <ele>53.212576</ele>
        <time>2022-01-09T09:21:24.318Z</time>
      </trkpt>
      <trkpt lat="50.825197" lon="6.986300">
        <ele>53.264442</ele>
        <time>2022-01-09T09:21:26.817Z</time>
      </trkpt>
      <trkpt lat="50.825241" lon="6.986213">
        <ele>53.316086</ele>
        <time>2022-01-09T09:21:29.379Z</time>
      </trkpt>
      <trkpt lat="50.825313" lon="6.986072">
        <ele>53.400101</ele>
        <time>2022-01-09T09:21:33.396Z</time>
      </trkpt>
      <trkpt lat="50.825355" lon="6.985990">
        <ele>53.449020</ele>
        <time>2022-01-09T09:21:35.652Z</time>
      </trkpt>
      <trkpt lat="50.825419" lon="6.985880">
        <ele>53.518319</ele>
        <time>2022-01-09T09:21:38.822Z</time>
      </trkpt>
      <trkpt lat="50.825437" lon="6.985853">
        <ele>53.536509</ele>
        <time>2022-01-09T09:21:39.613Z</time>
      </trkpt>
      <trkpt lat="50.825494" lon="6.985713">
        <ele>53.613691</ele>
        <time>2022-01-09T09:21:42.991Z</time>
      </trkpt>
      <trkpt lat="50.825526" lon="6.985628">
        <ele>53.659543</ele>
        <time>2022-01-09T09:21:44.901Z</time>
      </trkpt>
      <trkpt lat="50.825570" lon="6.985542">
        <ele>53.710825</ele>
        <time>2022-01-09T09:21:47.022Z</time>
      </trkpt>
      <trkpt lat="50.825613" lon="6.985458">
        <ele>53.760926</ele>
        <time>2022-01-09T09:21:49.051Z</time>
      </trkpt>
      <trkpt lat="50.825649" lon="6.985378">
        <ele>53.806441</ele>
        <time>2022-01-09T09:21:50.873Z</time>
      </trkpt>
      <trkpt lat="50.825719" lon="6.985242">
        <ele>53.887733</ele>
        <time>2022-01-09T09:21:54.023Z</time>
      </trkpt>
      <trkpt lat="50.825785" lon="6.985110">
        <ele>53.965742</ele>
        <time>2022-01-09T09:21:57.327Z</time>
      </trkpt>
      <trkpt lat="50.825806" lon="6.985072">
        <ele>53.989138</ele>
        <time>2022-01-09T09:21:58.330Z</time>
      </trkpt>
      <trkpt lat="50.825879" lon="6.984943">
        <ele>54.069392</ele>
        <time>2022-01-09T09:22:01.703Z</time>
      </trkpt>
      <trkpt lat="50.825954" lon="6.984811">
        <ele>54.151662</ele>
        <time>2022-01-09T09:22:05.068Z</time>
      </trkpt>
      <trkpt lat="50.826000" lon="6.984731">
        <ele>54.201790</ele>
        <time>2022-01-09T09:22:07.270Z</time>
      </trkpt>
      <trkpt lat="50.826025" lon="6.984686">
        <ele>54.229560</ele>
        <time>2022-01-09T09:22:08.534Z</time>
      </trkpt>
      <trkpt lat="50.826068" lon="6.984610">
        <ele>54.276838</ele>
        <time>2022-01-09T09:22:10.628Z</time>
      </trkpt>
      <trkpt lat="50.826168" lon="6.984433">
        <ele>54.386875</ele>
        <time>2022-01-09T09:22:15.441Z</time>
      </trkpt>
      <trkpt lat="50.826240" lon="6.984307">
        <ele>54.427661</ele>
        <time>2022-01-09T09:22:18.885Z</time>
      </trkpt>
      <trkpt lat="50.826287" lon="6.984224">
        <ele>54.444361</ele>
        <time>2022-01-09T09:22:21.107Z</time>
      </trkpt>
      <trkpt lat="50.826311" lon="6.984180">
        <ele>54.453070</ele>
        <time>2022-01-09T09:22:22.261Z</time>
      </trkpt>
      <trkpt lat="50.826348" lon="6.984115">
        <ele>54.466179</ele>
        <time>2022-01-09T09:22:23.985Z</time>
      </trkpt>
      <trkpt lat="50.826425" lon="6.983977">
        <ele>54.493764</ele>
        <time>2022-01-09T09:22:27.575Z</time>
      </trkpt>
      <trkpt lat="50.826512" lon="6.983821">
        <ele>54.524941</ele>
        <time>2022-01-09T09:22:31.715Z</time>
      </trkpt>
      <trkpt lat="50.826611" lon="6.983644">
        <ele>54.560360</ele>
        <time>2022-01-09T09:22:36.286Z</time>
      </trkpt>
      <trkpt lat="50.826697" lon="6.983539">
        <ele>54.586118</ele>
        <time>2022-01-09T09:22:39.565Z</time>
      </trkpt>
      <trkpt lat="50.826401" lon="6.982497">
        <ele>54.757285</ele>
        <time>2022-01-09T09:22:55.706Z</time>
      </trkpt>
      <trkpt lat="50.826386" lon="6.982447">
        <ele>54.765578</ele>
        <time>2022-01-09T09:22:56.570Z</time>
      </trkpt>
      <trkpt lat="50.826583" lon="6.982256">
        <ele>54.820367</ele>
        <time>2022-01-09T09:23:01.703Z</time>
      </trkpt>
      <trkpt lat="50.827120" lon="6.981723">
        <ele>54.768397</ele>
        <time>2022-01-09T09:23:16.022Z</time>
      </trkpt>
      <trkpt lat="50.827429" lon="6.981448">
        <ele>54.726085</ele>
        <time>2022-01-09T09:23:24.172Z</time>
      </trkpt>
      <trkpt lat="50.827497" lon="6.981387">
        <ele>54.716756</ele>
        <time>2022-01-09T09:23:26.440Z</time>
      </trkpt>
      <trkpt lat="50.827733" lon="6.981184">
        <ele>54.684697</ele>
        <time>2022-01-09T09:23:34.044Z</time>
      </trkpt>
      <trkpt lat="50.827895" lon="6.980945">
        <ele>54.658265</ele>
        <time>2022-01-09T09:23:40.166Z</time>
      </trkpt>
      <trkpt lat="50.828024" lon="6.980632">
        <ele>54.630087</ele>
        <time>2022-01-09T09:23:46.626Z</time>
      </trkpt>
      <trkpt lat="50.828170" lon="6.980189">
        <ele>54.585105</ele>
        <time>2022-01-09T09:23:55.440Z</time>
      </trkpt>
      <trkpt lat="50.828199" lon="6.980109">
        <ele>54.576399</ele>
        <time>2022-01-09T09:23:56.664Z</time>
      </trkpt>
      <trkpt lat="50.828233" lon="6.980015">
        <ele>54.566175</ele>
        <time>2022-01-09T09:23:58.162Z</time>
      </trkpt>
      <trkpt lat="50.828308" lon="6.979807">
        <ele>54.543569</ele>
        <time>2022-01-09T09:24:01.366Z</time>
      </trkpt>
      <trkpt lat="50.828632" lon="6.978870">
        <ele>54.442744</ele>
        <time>2022-01-09T09:24:16.047Z</time>
      </trkpt>
      <trkpt lat="50.828940" lon="6.977990">
        <ele>54.341580</ele>
        <time>2022-01-09T09:24:31.028Z</time>
      </trkpt>
      <trkpt lat="50.829189" lon="6.977338">
        <ele>54.178091</ele>
        <time>2022-01-09T09:24:41.818Z</time>
      </trkpt>
      <trkpt lat="50.829503" lon="6.976425">
        <ele>53.955025</ele>
        <time>2022-01-09T09:24:56.140Z</time>
      </trkpt>
      <trkpt lat="50.829694" lon="6.976027">
        <ele>53.847770</ele>
        <time>2022-01-09T09:25:03.095Z</time>
      </trkpt>
      <trkpt lat="50.829907" lon="6.975738">
        <ele>53.752474</ele>
        <time>2022-01-09T09:25:09.357Z</time>
      </trkpt>
      <trkpt lat="50.829979" lon="6.975682">
        <ele>53.684353</ele>
        <time>2022-01-09T09:25:11.087Z</time>
      </trkpt>
      <trkpt lat="50.830252" lon="6.975474">
        <ele>53.325079</ele>
        <time>2022-01-09T09:25:17.399Z</time>
      </trkpt>
      <trkpt lat="50.830771" lon="6.975408">
        <ele>52.707640</ele>
        <time>2022-01-09T09:25:27.479Z</time>
      </trkpt>
      <trkpt lat="50.830924" lon="6.975400">
        <ele>52.526106</ele>
        <time>2022-01-09T09:25:30.396Z</time>
      </trkpt>
      <trkpt lat="50.831320" lon="6.975321">
        <ele>52.052795</ele>
        <time>2022-01-09T09:25:38.064Z</time>
      </trkpt>
      <trkpt lat="50.831367" lon="6.975179">
        <ele>51.932720</ele>
        <time>2022-01-09T09:25:39.966Z</time>
      </trkpt>
      <trkpt lat="50.831404" lon="6.973995">
        <ele>51.122378</ele>
        <time>2022-01-09T09:25:54.098Z</time>
      </trkpt>
      <trkpt lat="50.831406" lon="6.973561">
        <ele>50.842014</ele>
        <time>2022-01-09T09:25:59.485Z</time>
      </trkpt>
      <trkpt lat="50.831408" lon="6.973398">
        <ele>50.736699</ele>
        <time>2022-01-09T09:26:01.368Z</time>
      </trkpt>
      <trkpt lat="50.831306" lon="6.973275">
        <ele>50.605563</ele>
        <time>2022-01-09T09:26:03.797Z</time>
      </trkpt>
      <trkpt lat="50.831259" lon="6.973213">
        <ele>50.542995</ele>
        <time>2022-01-09T09:26:04.966Z</time>
      </trkpt>
      <trkpt lat="50.831142" lon="6.973322">
        <ele>50.404152</ele>
        <time>2022-01-09T09:26:07.417Z</time>
      </trkpt>
      <trkpt lat="50.830791" lon="6.973329">
        <ele>50.045132</ele>
        <time>2022-01-09T09:26:14.067Z</time>
      </trkpt>
      <trkpt lat="50.830641" lon="6.973250">
        <ele>49.883452</ele>
        <time>2022-01-09T09:26:17.325Z</time>
      </trkpt>
      <trkpt lat="50.830506" lon="6.972991">
        <ele>49.856191</ele>
        <time>2022-01-09T09:26:21.727Z</time>
      </trkpt>
      <trkpt lat="50.830448" lon="6.972560">
        <ele>50.097821</ele>
        <time>2022-01-09T09:26:28.249Z</time>
      </trkpt>
      <trkpt lat="50.830392" lon="6.972573">
        <ele>50.146956</ele>
        <time>2022-01-09T09:26:29.617Z</time>
      </trkpt>
      <trkpt lat="50.830363" lon="6.972338">
        <ele>50.278247</ele>
        <time>2022-01-09T09:26:33.470Z</time>
      </trkpt>
      <trkpt lat="50.831220" lon="6.972156">
        <ele>51.028890</ele>
        <time>2022-01-09T09:26:56.608Z</time>
      </trkpt>
      <trkpt lat="50.831705" lon="6.972183">
        <ele>51.529362</ele>
        <time>2022-01-09T09:27:10.523Z</time>
      </trkpt>
      <trkpt lat="50.832437" lon="6.972391">
        <ele>52.602240</ele>
        <time>2022-01-09T09:27:32.620Z</time>
      </trkpt>
      <trkpt lat="50.833156" lon="6.972822">
        <ele>53.711343</ele>
        <time>2022-01-09T09:27:54.431Z</time>
      </trkpt>
      <trkpt lat="50.833822" lon="6.973452">
        <ele>53.839074</ele>
        <time>2022-01-09T09:28:13.676Z</time>
      </trkpt>
      <trkpt lat="50.835045" lon="6.974914">
        <ele>53.297736</ele>
        <time>2022-01-09T09:28:44.455Z</time>
      </trkpt>
      <trkpt lat="50.835488" lon="6.975317">
        <ele>52.759823</ele>
        <time>2022-01-09T09:28:54.027Z</time>
      </trkpt>
      <trkpt lat="50.836053" lon="6.975642">
        <ele>52.126923</ele>
        <time>2022-01-09T09:29:05.312Z</time>
      </trkpt>
      <trkpt lat="50.836600" lon="6.975819">
        <ele>51.619329</ele>
        <time>2022-01-09T09:29:16.070Z</time>
      </trkpt>
      <trkpt lat="50.837168" lon="6.975930">
        <ele>51.213864</ele>
        <time>2022-01-09T09:29:27.226Z</time>
      </trkpt>
      <trkpt lat="50.840186" lon="6.976523">
        <ele>49.467971</ele>
        <time>2022-01-09T09:30:29.642Z</time>
      </trkpt>
      <trkpt lat="50.841564" lon="6.976661">
        <ele>48.712441</ele>
        <time>2022-01-09T09:30:57.496Z</time>
      </trkpt>
      <trkpt lat="50.841657" lon="6.976711">
        <ele>48.658700</ele>
        <time>2022-01-09T09:30:59.517Z</time>
      </trkpt>
      <trkpt lat="50.841655" lon="6.976769">
        <ele>48.638629</ele>
        <time>2022-01-09T09:31:00.275Z</time>
      </trkpt>
      <trkpt lat="50.841821" lon="6.976761">
        <ele>48.624500</ele>
        <time>2022-01-09T09:31:03.665Z</time>
      </trkpt>
      <trkpt lat="50.844217" lon="6.976518">
        <ele>48.998645</ele>
        <time>2022-01-09T09:31:58.699Z</time>
      </trkpt>
      <trkpt lat="50.844818" lon="6.976677">
        <ele>49.262882</ele>
        <time>2022-01-09T09:32:13.373Z</time>
      </trkpt>
      <trkpt lat="50.845506" lon="6.977111">
        <ele>49.724760</ele>
        <time>2022-01-09T09:32:31.683Z</time>
      </trkpt>
      <trkpt lat="50.846256" lon="6.977671">
        <ele>50.492757</ele>
        <time>2022-01-09T09:32:53.597Z</time>
      </trkpt>
      <trkpt lat="50.846838" lon="6.977943">
        <ele>51.054798</ele>
        <time>2022-01-09T09:33:09.755Z</time>
      </trkpt>
      <trkpt lat="50.847161" lon="6.978031">
        <ele>51.236015</ele>
        <time>2022-01-09T09:33:18.190Z</time>
      </trkpt>
      <trkpt lat="50.848197" lon="6.978337">
        <ele>51.697999</ele>
        <time>2022-01-09T09:33:44.536Z</time>
      </trkpt>
      <trkpt lat="50.848293" lon="6.978397">
        <ele>51.743241</ele>
        <time>2022-01-09T09:33:46.820Z</time>
      </trkpt>
      <trkpt lat="50.848671" lon="6.978651">
        <ele>51.897676</ele>
        <time>2022-01-09T09:33:55.742Z</time>
      </trkpt>
      <trkpt lat="50.849008" lon="6.978980">
        <ele>51.560652</ele>
        <time>2022-01-09T09:34:03.739Z</time>
      </trkpt>
      <trkpt lat="50.849058" lon="6.978880">
        <ele>51.492087</ele>
        <time>2022-01-09T09:34:05.441Z</time>
      </trkpt>
      <trkpt lat="50.849161" lon="6.979000">
        <ele>51.383231</ele>
        <time>2022-01-09T09:34:07.934Z</time>
      </trkpt>
      <trkpt lat="50.849240" lon="6.979100">
        <ele>51.297135</ele>
        <time>2022-01-09T09:34:09.861Z</time>
      </trkpt>
      <trkpt lat="50.849622" lon="6.979608">
        <ele>50.872493</ele>
        <time>2022-01-09T09:34:19.361Z</time>
      </trkpt>
      <trkpt lat="50.850683" lon="6.981022">
        <ele>49.775914</ele>
        <time>2022-01-09T09:34:45.946Z</time>
      </trkpt>
      <trkpt lat="50.850850" lon="6.981236">
        <ele>49.615233</ele>
        <time>2022-01-09T09:34:50.239Z</time>
      </trkpt>
      <trkpt lat="50.851107" lon="6.981566">
        <ele>49.367760</ele>
        <time>2022-01-09T09:34:57.066Z</time>
      </trkpt>
      <trkpt lat="50.851385" lon="6.981922">
        <ele>49.100352</ele>
        <time>2022-01-09T09:35:04.443Z</time>
      </trkpt>
      <trkpt lat="50.851741" lon="6.982513">
        <ele>48.815582</ele>
        <time>2022-01-09T09:35:15.122Z</time>
      </trkpt>
      <trkpt lat="50.852016" lon="6.983240">
        <ele>48.540375</ele>
        <time>2022-01-09T09:35:26.410Z</time>
      </trkpt>
      <trkpt lat="50.852119" lon="6.983688">
        <ele>48.385552</ele>
        <time>2022-01-09T09:35:32.716Z</time>
      </trkpt>
      <trkpt lat="50.851949" lon="6.983766">
        <ele>48.294517</ele>
        <time>2022-01-09T09:35:36.279Z</time>
      </trkpt>
      <trkpt lat="50.851845" lon="6.983708">
        <ele>48.237806</ele>
        <time>2022-01-09T09:35:38.608Z</time>
      </trkpt>
      <trkpt lat="50.851371" lon="6.982604">
        <ele>47.581039</ele>
        <time>2022-01-09T09:35:54.880Z</time>
      </trkpt>
      <trkpt lat="50.850837" lon="6.981586">
        <ele>46.840243</ele>
        <time>2022-01-09T09:36:10.766Z</time>
      </trkpt>
      <trkpt lat="50.850723" lon="6.981465">
        <ele>46.718583</ele>
        <time>2022-01-09T09:36:13.514Z</time>
      </trkpt>
      <trkpt lat="50.850572" lon="6.981489">
        <ele>46.584042</ele>
        <time>2022-01-09T09:36:16.524Z</time>
      </trkpt>
      <trkpt lat="50.850388" lon="6.981644">
        <ele>46.532328</ele>
        <time>2022-01-09T09:36:21.171Z</time>
      </trkpt>
      <trkpt lat="50.850303" lon="6.981771">
        <ele>46.544678</ele>
        <time>2022-01-09T09:36:23.652Z</time>
      </trkpt>
      <trkpt lat="50.850300" lon="6.981810">
        <ele>46.547299</ele>
        <time>2022-01-09T09:36:24.189Z</time>
      </trkpt>
      <trkpt lat="50.850350" lon="6.981962">
        <ele>46.558735</ele>
        <time>2022-01-09T09:36:26.766Z</time>
      </trkpt>
      <trkpt lat="50.850802" lon="6.982456">
        <ele>46.616773</ele>
        <time>2022-01-09T09:36:38.606Z</time>
      </trkpt>
      <trkpt lat="50.851080" lon="6.982989">
        <ele>46.662902</ele>
        <time>2022-01-09T09:36:48.667Z</time>
      </trkpt>
      <trkpt lat="50.851303" lon="6.983614">
        <ele>46.714761</ele>
        <time>2022-01-09T09:37:00.099Z</time>
      </trkpt>
      <trkpt lat="50.851477" lon="6.984103">
        <ele>46.810189</ele>
        <time>2022-01-09T09:37:09.379Z</time>
      </trkpt>
      <trkpt lat="50.851656" lon="6.984607">
        <ele>46.908499</ele>
        <time>2022-01-09T09:37:18.652Z</time>
      </trkpt>
      <trkpt lat="50.851718" lon="6.984834">
        <ele>46.950547</ele>
        <time>2022-01-09T09:37:22.543Z</time>
      </trkpt>
      <trkpt lat="50.851613" lon="6.985012">
        <ele>46.991962</ele>
        <time>2022-01-09T09:37:26.166Z</time>
      </trkpt>
      <trkpt lat="50.850833" lon="6.985512">
        <ele>47.116058</ele>
        <time>2022-01-09T09:37:44.421Z</time>
      </trkpt>
      <trkpt lat="50.850660" lon="6.985631">
        <ele>46.966352</ele>
        <time>2022-01-09T09:37:48.412Z</time>
      </trkpt>
      <trkpt lat="50.848833" lon="6.986890">
        <ele>45.419675</ele>
        <time>2022-01-09T09:38:28.845Z</time>
      </trkpt>
      <trkpt lat="50.848843" lon="6.987080">
        <ele>45.332873</ele>
        <time>2022-01-09T09:38:31.352Z</time>
      </trkpt>
      <trkpt lat="50.849000" lon="6.987428">
        <ele>45.138146</ele>
        <time>2022-01-09T09:38:36.900Z</time>
      </trkpt>
      <trkpt lat="50.849143" lon="6.988018">
        <ele>44.850422</ele>
        <time>2022-01-09T09:38:44.893Z</time>
      </trkpt>
      <trkpt lat="50.849842" lon="6.989765">
        <ele>44.187667</ele>
        <time>2022-01-09T09:39:11.913Z</time>
      </trkpt>
      <trkpt lat="50.851749" lon="6.995216">
        <ele>42.942849</ele>
        <time>2022-01-09T09:40:34.785Z</time>
      </trkpt>
      <trkpt lat="50.852970" lon="6.998438">
        <ele>42.945339</ele>
        <time>2022-01-09T09:41:27.538Z</time>
      </trkpt>
      <trkpt lat="50.853917" lon="7.000588">
        <ele>43.469720</ele>
        <time>2022-01-09T09:42:07.691Z</time>
      </trkpt>
      <trkpt lat="50.855271" lon="7.003440">
        <ele>43.143585</ele>
        <time>2022-01-09T09:42:56.049Z</time>
      </trkpt>
      <trkpt lat="50.856195" lon="7.005039">
        <ele>42.723206</ele>
        <time>2022-01-09T09:43:24.220Z</time>
      </trkpt>
      <trkpt lat="50.856895" lon="7.005942">
        <ele>43.069600</ele>
        <time>2022-01-09T09:43:45.039Z</time>
      </trkpt>
      <trkpt lat="50.857546" lon="7.006631">
        <ele>43.557031</ele>
        <time>2022-01-09T09:44:05.088Z</time>
      </trkpt>
      <trkpt lat="50.858259" lon="7.007579">
        <ele>44.122174</ele>
        <time>2022-01-09T09:44:29.976Z</time>
      </trkpt>
      <trkpt lat="50.859167" lon="7.008516">
        <ele>44.770234</ele>
        <time>2022-01-09T09:44:56.377Z</time>
      </trkpt>
      <trkpt lat="50.859147" lon="7.008571">
        <ele>44.794195</ele>
        <time>2022-01-09T09:44:57.228Z</time>
      </trkpt>
      <trkpt lat="50.859855" lon="7.009437">
        <ele>44.469446</ele>
        <time>2022-01-09T09:45:16.473Z</time>
      </trkpt>
      <trkpt lat="50.860023" lon="7.009642">
        <ele>44.369941</ele>
        <time>2022-01-09T09:45:20.733Z</time>
      </trkpt>
      <trkpt lat="50.860692" lon="7.010341">
        <ele>43.989663</ele>
        <time>2022-01-09T09:45:36.504Z</time>
      </trkpt>
      <trkpt lat="50.860967" lon="7.010755">
        <ele>43.732452</ele>
        <time>2022-01-09T09:45:43.833Z</time>
      </trkpt>
      <trkpt lat="50.862216" lon="7.012391">
        <ele>42.981180</ele>
        <time>2022-01-09T09:46:16.335Z</time>
      </trkpt>
      <trkpt lat="50.862906" lon="7.013089">
        <ele>43.709866</ele>
        <time>2022-01-09T09:46:35.532Z</time>
      </trkpt>
      <trkpt lat="50.863560" lon="7.013524">
        <ele>44.341210</ele>
        <time>2022-01-09T09:46:56.740Z</time>
      </trkpt>
      <trkpt lat="50.863758" lon="7.013584">
        <ele>44.704656</ele>
        <time>2022-01-09T09:47:03.187Z</time>
      </trkpt>
      <trkpt lat="50.864081" lon="7.013505">
        <ele>45.389893</ele>
        <time>2022-01-09T09:47:13.849Z</time>
      </trkpt>
      <trkpt lat="50.864182" lon="7.013503">
        <ele>45.601670</ele>
        <time>2022-01-09T09:47:17.096Z</time>
      </trkpt>
      <trkpt lat="50.864207" lon="7.013477">
        <ele>45.664370</ele>
        <time>2022-01-09T09:47:18.115Z</time>
      </trkpt>
      <trkpt lat="50.864350" lon="7.013423">
        <ele>45.972588</ele>
        <time>2022-01-09T09:47:22.777Z</time>
      </trkpt>
      <trkpt lat="50.864548" lon="7.013203">
        <ele>46.479631</ele>
        <time>2022-01-09T09:47:30.407Z</time>
      </trkpt>
      <trkpt lat="50.865088" lon="7.012484">
        <ele>47.958519</ele>
        <time>2022-01-09T09:47:52.092Z</time>
      </trkpt>
      <trkpt lat="50.865126" lon="7.012549">
        <ele>48.075763</ele>
        <time>2022-01-09T09:47:53.804Z</time>
      </trkpt>
      <trkpt lat="50.865774" lon="7.013813">
        <ele>48.775481</ele>
        <time>2022-01-09T09:48:21.173Z</time>
      </trkpt>
      <trkpt lat="50.865999" lon="7.014246">
        <ele>48.997093</ele>
        <time>2022-01-09T09:48:29.028Z</time>
      </trkpt>
      <trkpt lat="50.866332" lon="7.014884">
        <ele>49.259780</ele>
        <time>2022-01-09T09:48:39.784Z</time>
      </trkpt>
      <trkpt lat="50.866389" lon="7.014998">
        <ele>49.229461</ele>
        <time>2022-01-09T09:48:41.686Z</time>
      </trkpt>
      <trkpt lat="50.866573" lon="7.015357">
        <ele>49.133055</ele>
        <time>2022-01-09T09:48:47.887Z</time>
      </trkpt>
      <trkpt lat="50.866810" lon="7.015824">
        <ele>49.008135</ele>
        <time>2022-01-09T09:48:56.183Z</time>
      </trkpt>
      <trkpt lat="50.867063" lon="7.016345">
        <ele>48.871101</ele>
        <time>2022-01-09T09:49:05.562Z</time>
      </trkpt>
      <trkpt lat="50.867187" lon="7.016582">
        <ele>48.806927</ele>
        <time>2022-01-09T09:49:09.732Z</time>
      </trkpt>
      <trkpt lat="50.867326" lon="7.016845">
        <ele>48.735418</ele>
        <time>2022-01-09T09:49:14.246Z</time>
      </trkpt>
      <trkpt lat="50.867582" lon="7.017335">
        <ele>48.317416</ele>
        <time>2022-01-09T09:49:22.122Z</time>
      </trkpt>
      <trkpt lat="50.867602" lon="7.017374">
        <ele>48.271822</ele>
        <time>2022-01-09T09:49:22.706Z</time>
      </trkpt>
      <trkpt lat="50.867766" lon="7.017666">
        <ele>47.917170</ele>
        <time>2022-01-09T09:49:27.182Z</time>
      </trkpt>
      <trkpt lat="50.867781" lon="7.017687">
        <ele>47.888394</ele>
        <time>2022-01-09T09:49:27.555Z</time>
      </trkpt>
      <trkpt lat="50.867979" lon="7.017950">
        <ele>47.516957</ele>
        <time>2022-01-09T09:49:32.283Z</time>
      </trkpt>
      <trkpt lat="50.867930" lon="7.018124">
        <ele>47.344082</ele>
        <time>2022-01-09T09:49:34.426Z</time>
      </trkpt>
      <trkpt lat="50.867655" lon="7.018373">
        <ele>46.888737</ele>
        <time>2022-01-09T09:49:40.451Z</time>
      </trkpt>
      <trkpt lat="50.867688" lon="7.018453">
        <ele>46.802023</ele>
        <time>2022-01-09T09:49:41.636Z</time>
      </trkpt>
      <trkpt lat="50.867521" lon="7.018622">
        <ele>46.517151</ele>
        <time>2022-01-09T09:49:45.373Z</time>
      </trkpt>
      <trkpt lat="50.867389" lon="7.018757">
        <ele>46.291287</ele>
        <time>2022-01-09T09:49:48.326Z</time>
      </trkpt>
      <trkpt lat="50.867095" lon="7.019054">
        <ele>45.771543</ele>
        <time>2022-01-09T09:49:54.810Z</time>
      </trkpt>
      <trkpt lat="50.868407" lon="7.021412">
        <ele>42.991454</ele>
        <time>2022-01-09T09:50:31.150Z</time>
      </trkpt>
      <trkpt lat="50.869646" lon="7.023813">
        <ele>41.370596</ele>
        <time>2022-01-09T09:51:10.185Z</time>
      </trkpt>
      <trkpt lat="50.870131" lon="7.024902">
        <ele>40.874620</ele>
        <time>2022-01-09T09:51:27.185Z</time>
      </trkpt>
      <trkpt lat="50.870168" lon="7.024992">
        <ele>40.834651</ele>
        <time>2022-01-09T09:51:28.565Z</time>
      </trkpt>
      <trkpt lat="50.871132" lon="7.027618">
        <ele>40.393348</ele>
        <time>2022-01-09T09:52:09.436Z</time>
      </trkpt>
      <trkpt lat="50.872096" lon="7.030699">
        <ele>40.959608</ele>
        <time>2022-01-09T09:53:00.754Z</time>
      </trkpt>
      <trkpt lat="50.872566" lon="7.032234">
        <ele>41.177644</ele>
        <time>2022-01-09T09:53:25.982Z</time>
      </trkpt>
      <trkpt lat="50.873089" lon="7.034438">
        <ele>41.288654</ele>
        <time>2022-01-09T09:53:58.953Z</time>
      </trkpt>
      <trkpt lat="50.873185" lon="7.034742">
        <ele>41.288073</ele>
        <time>2022-01-09T09:54:03.646Z</time>
      </trkpt>
      <trkpt lat="50.873609" lon="7.036100">
        <ele>41.270824</ele>
        <time>2022-01-09T09:54:25.028Z</time>
      </trkpt>
      <trkpt lat="50.874308" lon="7.038139">
        <ele>41.194665</ele>
        <time>2022-01-09T09:54:56.952Z</time>
      </trkpt>
      <trkpt lat="50.874697" lon="7.039138">
        <ele>41.259654</ele>
        <time>2022-01-09T09:55:14.116Z</time>
      </trkpt>
      <trkpt lat="50.875076" lon="7.040065">
        <ele>41.325928</ele>
        <time>2022-01-09T09:55:29.898Z</time>
      </trkpt>
      <trkpt lat="50.875471" lon="7.040941">
        <ele>41.355787</ele>
        <time>2022-01-09T09:55:44.872Z</time>
      </trkpt>
      <trkpt lat="50.875900" lon="7.041986">
        <ele>41.333497</ele>
        <time>2022-01-09T09:56:02.894Z</time>
      </trkpt>
      <trkpt lat="50.877124" lon="7.044479">
        <ele>41.029692</ele>
        <time>2022-01-09T09:56:45.376Z</time>
      </trkpt>
      <trkpt lat="50.877869" lon="7.045711">
        <ele>40.880942</ele>
        <time>2022-01-09T09:57:08.683Z</time>
      </trkpt>
      <trkpt lat="50.878349" lon="7.046370">
        <ele>40.847378</ele>
        <time>2022-01-09T09:57:22.828Z</time>
      </trkpt>
      <trkpt lat="50.878973" lon="7.047098">
        <ele>40.825728</ele>
        <time>2022-01-09T09:57:40.207Z</time>
      </trkpt>
      <trkpt lat="50.879874" lon="7.048034">
        <ele>40.905589</ele>
        <time>2022-01-09T09:58:04.439Z</time>
      </trkpt>
      <trkpt lat="50.881097" lon="7.048684">
        <ele>41.236868</ele>
        <time>2022-01-09T09:58:33.685Z</time>
      </trkpt>
      <trkpt lat="50.881641" lon="7.048893">
        <ele>41.461421</ele>
        <time>2022-01-09T09:58:46.964Z</time>
      </trkpt>
      <trkpt lat="50.882157" lon="7.048949">
        <ele>41.668906</ele>
        <time>2022-01-09T09:58:59.702Z</time>
      </trkpt>
      <trkpt lat="50.882442" lon="7.049087">
        <ele>42.069992</ele>
        <time>2022-01-09T09:59:07.377Z</time>
      </trkpt>
      <trkpt lat="50.883238" lon="7.049075">
        <ele>43.144151</ele>
        <time>2022-01-09T09:59:28.658Z</time>
      </trkpt>
      <trkpt lat="50.883990" lon="7.048777">
        <ele>44.259873</ele>
        <time>2022-01-09T09:59:51.468Z</time>
      </trkpt>
      <trkpt lat="50.884253" lon="7.048734">
        <ele>44.882187</ele>
        <time>2022-01-09T09:59:59.745Z</time>
      </trkpt>
      <trkpt lat="50.884889" lon="7.048435">
        <ele>46.443613</ele>
        <time>2022-01-09T10:00:21.359Z</time>
      </trkpt>
      <trkpt lat="50.885805" lon="7.047644">
        <ele>48.723334</ele>
        <time>2022-01-09T10:00:55.092Z</time>
      </trkpt>
      <trkpt lat="50.888205" lon="7.045314">
        <ele>52.512191</ele>
        <time>2022-01-09T10:02:13.417Z</time>
      </trkpt>
      <trkpt lat="50.889418" lon="7.043417">
        <ele>53.760128</ele>
        <time>2022-01-09T10:02:52.595Z</time>
      </trkpt>
      <trkpt lat="50.890080" lon="7.042009">
        <ele>54.836472</ele>
        <time>2022-01-09T10:03:22.663Z</time>
      </trkpt>
      <trkpt lat="50.890630" lon="7.039859">
        <ele>56.739302</ele>
        <time>2022-01-09T10:04:05.374Z</time>
      </trkpt>
      <trkpt lat="50.890821" lon="7.039280">
        <ele>56.633125</ele>
        <time>2022-01-09T10:04:15.776Z</time>
      </trkpt>
      <trkpt lat="50.891108" lon="7.038121">
        <ele>56.430795</ele>
        <time>2022-01-09T10:04:32.360Z</time>
      </trkpt>
      <trkpt lat="50.891397" lon="7.036045">
        <ele>54.831561</ele>
        <time>2022-01-09T10:04:56.057Z</time>
      </trkpt>
      <trkpt lat="50.891611" lon="7.034301">
        <ele>53.180957</ele>
        <time>2022-01-09T10:05:16.238Z</time>
      </trkpt>
      <trkpt lat="50.891810" lon="7.033455">
        <ele>52.910219</ele>
        <time>2022-01-09T10:05:27.715Z</time>
      </trkpt>
      <trkpt lat="50.892077" lon="7.031507">
        <ele>52.362379</ele>
        <time>2022-01-09T10:05:55.533Z</time>
      </trkpt>
      <trkpt lat="50.892127" lon="7.031139">
        <ele>52.301682</ele>
        <time>2022-01-09T10:06:01.632Z</time>
      </trkpt>
      <trkpt lat="50.892212" lon="7.029668">
        <ele>52.063506</ele>
        <time>2022-01-09T10:06:22.488Z</time>
      </trkpt>
      <trkpt lat="50.891484" lon="7.029637">
        <ele>51.259721</ele>
        <time>2022-01-09T10:06:36.320Z</time>
      </trkpt>
      <trkpt lat="50.891444" lon="7.029033">
        <ele>50.435792</ele>
        <time>2022-01-09T10:06:43.432Z</time>
      </trkpt>
      <trkpt lat="50.891398" lon="7.028522">
        <ele>49.735513</ele>
        <time>2022-01-09T10:06:49.030Z</time>
      </trkpt>
      <trkpt lat="50.891146" lon="7.026774">
        <ele>47.357649</ele>
        <time>2022-01-09T10:07:14.872Z</time>
      </trkpt>
      <trkpt lat="50.891109" lon="7.026045">
        <ele>46.434245</ele>
        <time>2022-01-09T10:07:25.536Z</time>
      </trkpt>
      <trkpt lat="50.891106" lon="7.025909">
        <ele>46.262427</ele>
        <time>2022-01-09T10:07:27.558Z</time>
      </trkpt>
      <trkpt lat="50.891097" lon="7.025495">
        <ele>45.739403</ele>
        <time>2022-01-09T10:07:33.852Z</time>
      </trkpt>
      <trkpt lat="50.890854" lon="7.025431">
        <ele>45.246351</ele>
        <time>2022-01-09T10:07:39.890Z</time>
      </trkpt>
      <trkpt lat="50.890652" lon="7.025377">
        <ele>44.836322</ele>
        <time>2022-01-09T10:07:43.760Z</time>
      </trkpt>
      <trkpt lat="50.890769" lon="7.023005">
        <ele>44.337142</ele>
        <time>2022-01-09T10:08:17.446Z</time>
      </trkpt>
      <trkpt lat="50.890808" lon="7.020273">
        <ele>45.050643</ele>
        <time>2022-01-09T10:09:00.823Z</time>
      </trkpt>
      <trkpt lat="50.890837" lon="7.019304">
        <ele>45.502247</ele>
        <time>2022-01-09T10:09:16.843Z</time>
      </trkpt>
      <trkpt lat="50.890899" lon="7.019216">
        <ele>45.648070</ele>
        <time>2022-01-09T10:09:18.911Z</time>
      </trkpt>
      <trkpt lat="50.890948" lon="7.018744">
        <ele>46.176807</ele>
        <time>2022-01-09T10:09:26.789Z</time>
      </trkpt>
      <trkpt lat="50.891570" lon="7.012156">
        <ele>52.566100</ele>
        <time>2022-01-09T10:11:32.241Z</time>
      </trkpt>
      <trkpt lat="50.891903" lon="7.011676">
        <ele>52.940112</ele>
        <time>2022-01-09T10:11:42.368Z</time>
      </trkpt>
      <trkpt lat="50.892001" lon="7.011544">
        <ele>53.046976</ele>
        <time>2022-01-09T10:11:44.781Z</time>
      </trkpt>
      <trkpt lat="50.892213" lon="7.010867">
        <ele>52.617403</ele>
        <time>2022-01-09T10:11:54.087Z</time>
      </trkpt>
      <trkpt lat="50.892457" lon="7.008742">
        <ele>50.163484</ele>
        <time>2022-01-09T10:12:17.914Z</time>
      </trkpt>
      <trkpt lat="50.892485" lon="7.008055">
        <ele>49.402780</ele>
        <time>2022-01-09T10:12:25.275Z</time>
      </trkpt>
      <trkpt lat="50.892499" lon="7.007713">
        <ele>49.028274</ele>
        <time>2022-01-09T10:12:28.980Z</time>
      </trkpt>
      <trkpt lat="50.892536" lon="7.006921">
        <ele>48.160448</ele>
        <time>2022-01-09T10:12:37.800Z</time>
      </trkpt>
      <trkpt lat="50.892583" lon="7.005617">
        <ele>46.808349</ele>
        <time>2022-01-09T10:12:53.123Z</time>
      </trkpt>
      <trkpt lat="50.892687" lon="7.003684">
        <ele>46.388051</ele>
        <time>2022-01-09T10:13:18.047Z</time>
      </trkpt>
      <trkpt lat="50.892872" lon="7.002554">
        <ele>46.356580</ele>
        <time>2022-01-09T10:13:35.849Z</time>
      </trkpt>
      <trkpt lat="50.893385" lon="7.000478">
        <ele>47.318192</ele>
        <time>2022-01-09T10:14:11.956Z</time>
      </trkpt>
      <trkpt lat="50.893562" lon="6.999541">
        <ele>47.568607</ele>
        <time>2022-01-09T10:14:26.662Z</time>
      </trkpt>
      <trkpt lat="50.893646" lon="6.999043">
        <ele>47.664325</ele>
        <time>2022-01-09T10:14:34.598Z</time>
      </trkpt>
      <trkpt lat="50.893641" lon="6.998612">
        <ele>47.744368</ele>
        <time>2022-01-09T10:14:41.240Z</time>
      </trkpt>
      <trkpt lat="50.893668" lon="6.998498">
        <ele>47.766978</ele>
        <time>2022-01-09T10:14:43.072Z</time>
      </trkpt>
      <trkpt lat="50.893955" lon="6.997851">
        <ele>47.913847</ele>
        <time>2022-01-09T10:14:54.402Z</time>
      </trkpt>
      <trkpt lat="50.894098" lon="6.997504">
        <ele>47.973605</ele>
        <time>2022-01-09T10:15:00.018Z</time>
      </trkpt>
      <trkpt lat="50.894219" lon="6.997209">
        <ele>47.988606</ele>
        <time>2022-01-09T10:15:04.575Z</time>
      </trkpt>
      <trkpt lat="50.894393" lon="6.996786">
        <ele>48.010134</ele>
        <time>2022-01-09T10:15:11.100Z</time>
      </trkpt>
      <trkpt lat="50.894789" lon="6.995790">
        <ele>48.060324</ele>
        <time>2022-01-09T10:15:27.903Z</time>
      </trkpt>
      <trkpt lat="50.894815" lon="6.995726">
        <ele>48.063569</ele>
        <time>2022-01-09T10:15:28.950Z</time>
      </trkpt>
      <trkpt lat="50.894993" lon="6.995301">
        <ele>48.085317</ele>
        <time>2022-01-09T10:15:37.135Z</time>
      </trkpt>
      <trkpt lat="50.895221" lon="6.995152">
        <ele>48.133756</ele>
        <time>2022-01-09T10:15:43.316Z</time>
      </trkpt>
      <trkpt lat="50.895354" lon="6.995061">
        <ele>48.169586</ele>
        <time>2022-01-09T10:15:46.440Z</time>
      </trkpt>
      <trkpt lat="50.895467" lon="6.994853">
        <ele>48.212415</ele>
        <time>2022-01-09T10:15:50.701Z</time>
      </trkpt>
      <trkpt lat="50.895578" lon="6.994593">
        <ele>48.261397</ele>
        <time>2022-01-09T10:15:54.813Z</time>
      </trkpt>
      <trkpt lat="50.895488" lon="6.994412">
        <ele>48.297355</ele>
        <time>2022-01-09T10:15:58.500Z</time>
      </trkpt>
      <trkpt lat="50.895789" lon="6.993632">
        <ele>48.440014</ele>
        <time>2022-01-09T10:16:11.257Z</time>
      </trkpt>
      <trkpt lat="50.895897" lon="6.993406">
        <ele>48.484250</ele>
        <time>2022-01-09T10:16:15.709Z</time>
      </trkpt>
      <trkpt lat="50.897339" lon="6.990220">
        <ele>49.078239</ele>
        <time>2022-01-09T10:17:12.712Z</time>
      </trkpt>
      <trkpt lat="50.897413" lon="6.990014">
        <ele>49.124339</ele>
        <time>2022-01-09T10:17:16.593Z</time>
      </trkpt>
      <trkpt lat="50.897463" lon="6.989875">
        <ele>49.155456</ele>
        <time>2022-01-09T10:17:19.305Z</time>
      </trkpt>
      <trkpt lat="50.897884" lon="6.988951">
        <ele>49.377113</ele>
        <time>2022-01-09T10:17:37.221Z</time>
      </trkpt>
      <trkpt lat="50.898523" lon="6.987817">
        <ele>48.568609</ele>
        <time>2022-01-09T10:17:57.527Z</time>
      </trkpt>
      <trkpt lat="50.898733" lon="6.987498">
        <ele>48.122707</ele>
        <time>2022-01-09T10:18:03.103Z</time>
      </trkpt>
      <trkpt lat="50.899154" lon="6.986819">
        <ele>47.201956</ele>
        <time>2022-01-09T10:18:13.526Z</time>
      </trkpt>
      <trkpt lat="50.899744" lon="6.985932">
        <ele>45.709897</ele>
        <time>2022-01-09T10:18:26.737Z</time>
      </trkpt>
      <trkpt lat="50.899823" lon="6.985817">
        <ele>45.493375</ele>
        <time>2022-01-09T10:18:28.439Z</time>
      </trkpt>
      <trkpt lat="50.900214" lon="6.985256">
        <ele>44.428746</ele>
        <time>2022-01-09T10:18:37.690Z</time>
      </trkpt>
      <trkpt lat="50.900448" lon="6.985382">
        <ele>43.929811</ele>
        <time>2022-01-09T10:18:42.136Z</time>
      </trkpt>
      <trkpt lat="50.900991" lon="6.984612">
        <ele>43.179733</ele>
        <time>2022-01-09T10:18:56.463Z</time>
      </trkpt>
      <trkpt lat="50.900950" lon="6.984539">
        <ele>43.195479</ele>
        <time>2022-01-09T10:18:58.182Z</time>
      </trkpt>
      <trkpt lat="50.901475" lon="6.983827">
        <ele>43.371934</ele>
        <time>2022-01-09T10:19:13.253Z</time>
      </trkpt>
      <trkpt lat="50.902037" lon="6.983149">
        <ele>43.552305</ele>
        <time>2022-01-09T10:19:32.791Z</time>
      </trkpt>
      <trkpt lat="50.902404" lon="6.982700">
        <ele>43.857054</ele>
        <time>2022-01-09T10:19:44.786Z</time>
      </trkpt>
      <trkpt lat="50.902909" lon="6.982105">
        <ele>44.283962</ele>
        <time>2022-01-09T10:20:00.049Z</time>
      </trkpt>
      <trkpt lat="50.903357" lon="6.981585">
        <ele>44.660691</ele>
        <time>2022-01-09T10:20:13.698Z</time>
      </trkpt>
      <trkpt lat="50.903476" lon="6.981448">
        <ele>44.760475</ele>
        <time>2022-01-09T10:20:17.427Z</time>
      </trkpt>
      <trkpt lat="50.903994" lon="6.980868">
        <ele>44.921262</ele>
        <time>2022-01-09T10:20:32.823Z</time>
      </trkpt>
      <trkpt lat="50.904583" lon="6.980233">
        <ele>45.088477</ele>
        <time>2022-01-09T10:20:48.714Z</time>
      </trkpt>
      <trkpt lat="50.904955" lon="6.979826">
        <ele>45.194585</ele>
        <time>2022-01-09T10:20:58.864Z</time>
      </trkpt>
      <trkpt lat="50.905266" lon="6.979494">
        <ele>45.141790</ele>
        <time>2022-01-09T10:21:07.508Z</time>
      </trkpt>
      <trkpt lat="50.905611" lon="6.979147">
        <ele>45.072263</ele>
        <time>2022-01-09T10:21:17.082Z</time>
      </trkpt>
      <trkpt lat="50.905881" lon="6.978875">
        <ele>45.017826</ele>
        <time>2022-01-09T10:21:24.103Z</time>
      </trkpt>
      <trkpt lat="50.906183" lon="6.978590">
        <ele>44.958019</ele>
        <time>2022-01-09T10:21:31.382Z</time>
      </trkpt>
      <trkpt lat="50.906827" lon="6.977982">
        <ele>44.730332</ele>
        <time>2022-01-09T10:21:46.312Z</time>
      </trkpt>
      <trkpt lat="50.907278" lon="6.977555">
        <ele>44.501945</ele>
        <time>2022-01-09T10:21:57.231Z</time>
      </trkpt>
      <trkpt lat="50.907761" lon="6.977120">
        <ele>44.260429</ele>
        <time>2022-01-09T10:22:09.306Z</time>
      </trkpt>
      <trkpt lat="50.908055" lon="6.976848">
        <ele>44.112061</ele>
        <time>2022-01-09T10:22:16.544Z</time>
      </trkpt>
      <trkpt lat="50.908412" lon="6.976546">
        <ele>43.760890</ele>
        <time>2022-01-09T10:22:24.809Z</time>
      </trkpt>
      <trkpt lat="50.909100" lon="6.975960">
        <ele>43.083094</ele>
        <time>2022-01-09T10:22:39.443Z</time>
      </trkpt>
      <trkpt lat="50.909782" lon="6.975363">
        <ele>42.526944</ele>
        <time>2022-01-09T10:22:54.637Z</time>
      </trkpt>
      <trkpt lat="50.910420" lon="6.974806">
        <ele>42.418671</ele>
        <time>2022-01-09T10:23:09.892Z</time>
      </trkpt>
      <trkpt lat="50.910613" lon="6.974769">
        <ele>42.389769</ele>
        <time>2022-01-09T10:23:16.651Z</time>
      </trkpt>
      <trkpt lat="50.910955" lon="6.974483">
        <ele>42.332289</ele>
        <time>2022-01-09T10:23:30.579Z</time>
      </trkpt>
      <trkpt lat="50.911305" lon="6.974189">
        <ele>42.378497</ele>
        <time>2022-01-09T10:23:46.009Z</time>
      </trkpt>
      <trkpt lat="50.912151" lon="6.973499">
        <ele>43.597170</ele>
        <time>2022-01-09T10:24:27.796Z</time>
      </trkpt>
      <trkpt lat="50.912343" lon="6.973353">
        <ele>43.869940</ele>
        <time>2022-01-09T10:24:37.401Z</time>
      </trkpt>
      <trkpt lat="50.913123" lon="6.972762">
        <ele>44.674574</ele>
        <time>2022-01-09T10:25:13.035Z</time>
      </trkpt>
      <trkpt lat="50.913204" lon="6.972692">
        <ele>44.700737</ele>
        <time>2022-01-09T10:25:16.708Z</time>
      </trkpt>
      <trkpt lat="50.913997" lon="6.972239">
        <ele>44.939801</ele>
        <time>2022-01-09T10:25:36.912Z</time>
      </trkpt>
      <trkpt lat="50.913958" lon="6.972088">
        <ele>44.968981</ele>
        <time>2022-01-09T10:25:39.609Z</time>
      </trkpt>
      <trkpt lat="50.913941" lon="6.972019">
        <ele>44.982229</ele>
        <time>2022-01-09T10:25:40.621Z</time>
      </trkpt>
      <trkpt lat="50.914032" lon="6.971957">
        <ele>45.010320</ele>
        <time>2022-01-09T10:25:42.520Z</time>
      </trkpt>
      <trkpt lat="50.914535" lon="6.971622">
        <ele>44.971662</ele>
        <time>2022-01-09T10:25:53.868Z</time>
      </trkpt>
      <trkpt lat="50.915725" lon="6.970835">
        <ele>44.272594</ele>
        <time>2022-01-09T10:26:20.994Z</time>
      </trkpt>
      <trkpt lat="50.915955" lon="6.970705">
        <ele>44.140205</ele>
        <time>2022-01-09T10:26:26.344Z</time>
      </trkpt>
      <trkpt lat="50.916086" lon="6.970708">
        <ele>44.175795</ele>
        <time>2022-01-09T10:26:29.121Z</time>
      </trkpt>
      <trkpt lat="50.916208" lon="6.970597">
        <ele>44.249482</ele>
        <time>2022-01-09T10:26:32.390Z</time>
      </trkpt>
      <trkpt lat="50.916254" lon="6.970546">
        <ele>44.278886</ele>
        <time>2022-01-09T10:26:33.773Z</time>
      </trkpt>
      <trkpt lat="50.916682" lon="6.970307">
        <ele>44.516613</ele>
        <time>2022-01-09T10:26:44.027Z</time>
      </trkpt>
      <trkpt lat="50.918445" lon="6.969332">
        <ele>45.684335</ele>
        <time>2022-01-09T10:27:32.950Z</time>
      </trkpt>
      <trkpt lat="50.918479" lon="6.969312">
        <ele>45.711725</ele>
        <time>2022-01-09T10:27:33.984Z</time>
      </trkpt>
      <trkpt lat="50.918535" lon="6.969285">
        <ele>45.755935</ele>
        <time>2022-01-09T10:27:35.640Z</time>
      </trkpt>
      <trkpt lat="50.918584" lon="6.969253">
        <ele>45.795961</ele>
        <time>2022-01-09T10:27:37.481Z</time>
      </trkpt>
      <trkpt lat="50.921996" lon="6.967582">
        <ele>47.125848</ele>
        <time>2022-01-09T10:29:27.529Z</time>
      </trkpt>
      <trkpt lat="50.922449" lon="6.967356">
        <ele>47.123060</ele>
        <time>2022-01-09T10:29:40.637Z</time>
      </trkpt>
      <trkpt lat="50.922830" lon="6.967206">
        <ele>47.119381</ele>
        <time>2022-01-09T10:29:51.489Z</time>
      </trkpt>
      <trkpt lat="50.922913" lon="6.967165">
        <ele>47.105828</ele>
        <time>2022-01-09T10:29:53.948Z</time>
      </trkpt>
      <trkpt lat="50.923426" lon="6.966915">
        <ele>47.022161</ele>
        <time>2022-01-09T10:30:08.881Z</time>
      </trkpt>
      <trkpt lat="50.923800" lon="6.966663">
        <ele>46.958811</ele>
        <time>2022-01-09T10:30:20.493Z</time>
      </trkpt>
      <trkpt lat="50.924389" lon="6.966325">
        <ele>46.861161</ele>
        <time>2022-01-09T10:30:39.364Z</time>
      </trkpt>
      <trkpt lat="50.924743" lon="6.965981">
        <ele>46.699411</ele>
        <time>2022-01-09T10:30:51.453Z</time>
      </trkpt>
      <trkpt lat="50.925281" lon="6.965509">
        <ele>46.391979</ele>
        <time>2022-01-09T10:31:08.904Z</time>
      </trkpt>
      <trkpt lat="50.927245" lon="6.963743">
        <ele>44.901180</ele>
        <time>2022-01-09T10:32:08.655Z</time>
      </trkpt>
      <trkpt lat="50.927790" lon="6.963323">
        <ele>44.338897</ele>
        <time>2022-01-09T10:32:25.479Z</time>
      </trkpt>
      <trkpt lat="50.928427" lon="6.963084">
        <ele>43.444718</ele>
        <time>2022-01-09T10:32:42.980Z</time>
      </trkpt>
      <trkpt lat="50.928485" lon="6.963068">
        <ele>43.364298</ele>
        <time>2022-01-09T10:32:44.530Z</time>
      </trkpt>
      <trkpt lat="50.928535" lon="6.963052">
        <ele>43.294620</ele>
        <time>2022-01-09T10:32:45.828Z</time>
      </trkpt>
      <trkpt lat="50.929230" lon="6.962931">
        <ele>42.339512</ele>
        <time>2022-01-09T10:33:02.712Z</time>
      </trkpt>
      <trkpt lat="50.929941" lon="6.962905">
        <ele>41.629526</ele>
        <time>2022-01-09T10:33:19.483Z</time>
      </trkpt>
      <trkpt lat="50.930202" lon="6.962883">
        <ele>41.399304</ele>
        <time>2022-01-09T10:33:26.108Z</time>
      </trkpt>
      <trkpt lat="50.930329" lon="6.962900">
        <ele>41.287041</ele>
        <time>2022-01-09T10:33:29.319Z</time>
      </trkpt>
      <trkpt lat="50.930605" lon="6.962873">
        <ele>41.043469</ele>
        <time>2022-01-09T10:33:37.178Z</time>
      </trkpt>
      <trkpt lat="50.931065" lon="6.962853">
        <ele>40.638134</ele>
        <time>2022-01-09T10:33:50.583Z</time>
      </trkpt>
      <trkpt lat="50.931449" lon="6.962855">
        <ele>40.778707</ele>
        <time>2022-01-09T10:34:02.677Z</time>
      </trkpt>
      <trkpt lat="50.931725" lon="6.962917">
        <ele>41.067311</ele>
        <time>2022-01-09T10:34:11.688Z</time>
      </trkpt>
      <trkpt lat="50.932159" lon="6.963066">
        <ele>41.527048</ele>
        <time>2022-01-09T10:34:27.426Z</time>
      </trkpt>
      <trkpt lat="50.932473" lon="6.963194">
        <ele>41.862703</ele>
        <time>2022-01-09T10:34:39.199Z</time>
      </trkpt>
      <trkpt lat="50.932710" lon="6.963269">
        <ele>42.112912</ele>
        <time>2022-01-09T10:34:46.681Z</time>
      </trkpt>
      <trkpt lat="50.933009" lon="6.963300">
        <ele>42.364818</ele>
        <time>2022-01-09T10:34:55.219Z</time>
      </trkpt>
      <trkpt lat="50.933897" lon="6.963393">
        <ele>41.973386</ele>
        <time>2022-01-09T10:35:14.988Z</time>
      </trkpt>
      <trkpt lat="50.934848" lon="6.963323">
        <ele>41.547236</ele>
        <time>2022-01-09T10:35:33.734Z</time>
      </trkpt>
      <trkpt lat="50.934909" lon="6.963379">
        <ele>41.509937</ele>
        <time>2022-01-09T10:35:35.144Z</time>
      </trkpt>
      <trkpt lat="50.935116" lon="6.963369">
        <ele>41.400329</ele>
        <time>2022-01-09T10:35:39.502Z</time>
      </trkpt>
      <trkpt lat="50.935167" lon="6.963463">
        <ele>41.358957</ele>
        <time>2022-01-09T10:35:41.006Z</time>
      </trkpt>
      <trkpt lat="50.935355" lon="6.963449">
        <ele>41.259346</ele>
        <time>2022-01-09T10:35:46.137Z</time>
      </trkpt>
      <trkpt lat="50.935484" lon="6.963445">
        <ele>41.191059</ele>
        <time>2022-01-09T10:35:49.580Z</time>
      </trkpt>
      <trkpt lat="50.935525" lon="6.963444">
        <ele>41.169356</ele>
        <time>2022-01-09T10:35:50.610Z</time>
      </trkpt>
      <trkpt lat="50.936118" lon="6.963412">
        <ele>40.855322</ele>
        <time>2022-01-09T10:36:07.113Z</time>
      </trkpt>
      <trkpt lat="50.936451" lon="6.963406">
        <ele>40.679067</ele>
        <time>2022-01-09T10:36:16.623Z</time>
      </trkpt>
      <trkpt lat="50.936698" lon="6.963381">
        <ele>40.730157</ele>
        <time>2022-01-09T10:36:23.877Z</time>
      </trkpt>
      <trkpt lat="50.936782" lon="6.963371">
        <ele>40.774727</ele>
        <time>2022-01-09T10:36:26.519Z</time>
      </trkpt>
      <trkpt lat="50.937602" lon="6.963247">
        <ele>41.210556</ele>
        <time>2022-01-09T10:36:51.990Z</time>
      </trkpt>
      <trkpt lat="50.937753" lon="6.963238">
        <ele>41.290506</ele>
        <time>2022-01-09T10:36:56.777Z</time>
      </trkpt>
      <trkpt lat="50.938487" lon="6.963044">
        <ele>41.636637</ele>
        <time>2022-01-09T10:37:21.576Z</time>
      </trkpt>
      <trkpt lat="50.939323" lon="6.962960">
        <ele>41.854125</ele>
        <time>2022-01-09T10:37:48.902Z</time>
      </trkpt>
      <trkpt lat="50.939642" lon="6.962874">
        <ele>41.938135</ele>
        <time>2022-01-09T10:37:57.947Z</time>
      </trkpt>
      <trkpt lat="50.940268" lon="6.962854">
        <ele>41.926834</ele>
        <time>2022-01-09T10:38:14.858Z</time>
      </trkpt>
      <trkpt lat="50.940288" lon="6.962859">
        <ele>41.910795</ele>
        <time>2022-01-09T10:38:15.433Z</time>
      </trkpt>
      <trkpt lat="50.940361" lon="6.962863">
        <ele>41.852930</ele>
        <time>2022-01-09T10:38:17.475Z</time>
      </trkpt>
      <trkpt lat="50.940434" lon="6.962866">
        <ele>41.795080</ele>
        <time>2022-01-09T10:38:19.567Z</time>
      </trkpt>
      <trkpt lat="50.940998" lon="6.962897">
        <ele>41.348014</ele>
        <time>2022-01-09T10:38:34.718Z</time>
      </trkpt>
      <trkpt lat="50.941064" lon="6.962903">
        <ele>41.295643</ele>
        <time>2022-01-09T10:38:36.461Z</time>
      </trkpt>
      <trkpt lat="50.941690" lon="6.962897">
        <ele>40.799719</ele>
        <time>2022-01-09T10:38:53.091Z</time>
      </trkpt>
      <trkpt lat="50.941893" lon="6.962836">
        <ele>40.636046</ele>
        <time>2022-01-09T10:38:58.616Z</time>
      </trkpt>
      <trkpt lat="50.942062" lon="6.962873">
        <ele>40.511694</ele>
        <time>2022-01-09T10:39:02.663Z</time>
      </trkpt>
      <trkpt lat="50.942188" lon="6.962887">
        <ele>40.419818</ele>
        <time>2022-01-09T10:39:05.792Z</time>
      </trkpt>
      <trkpt lat="50.942197" lon="6.962748">
        <ele>40.355773</ele>
        <time>2022-01-09T10:39:08.616Z</time>
      </trkpt>
      <trkpt lat="50.942529" lon="6.962791">
        <ele>40.113474</ele>
        <time>2022-01-09T10:39:17.398Z</time>
      </trkpt>
      <trkpt lat="50.942951" lon="6.962846">
        <ele>39.805478</ele>
        <time>2022-01-09T10:39:29.310Z</time>
      </trkpt>
      <trkpt lat="50.943111" lon="6.962879">
        <ele>39.688116</ele>
        <time>2022-01-09T10:39:33.484Z</time>
      </trkpt>
      <trkpt lat="50.943699" lon="6.962981">
        <ele>39.254423</ele>
        <time>2022-01-09T10:39:50.155Z</time>
      </trkpt>
      <trkpt lat="50.944250" lon="6.963145">
        <ele>38.825639</ele>
        <time>2022-01-09T10:40:04.573Z</time>
      </trkpt>
      <trkpt lat="50.945391" lon="6.963485">
        <ele>37.957340</ele>
        <time>2022-01-09T10:40:35.167Z</time>
      </trkpt>
      <trkpt lat="50.946161" lon="6.963837">
        <ele>38.421982</ele>
        <time>2022-01-09T10:40:58.996Z</time>
      </trkpt>
      <trkpt lat="50.946355" lon="6.963937">
        <ele>38.540258</ele>
        <time>2022-01-09T10:41:05.546Z</time>
      </trkpt>
      <trkpt lat="50.946513" lon="6.964018">
        <ele>38.636536</ele>
        <time>2022-01-09T10:41:11.004Z</time>
      </trkpt>
      <trkpt lat="50.946848" lon="6.964191">
        <ele>38.840812</ele>
        <time>2022-01-09T10:41:22.918Z</time>
      </trkpt>
      <trkpt lat="50.947304" lon="6.964474">
        <ele>39.281395</ele>
        <time>2022-01-09T10:41:40.200Z</time>
      </trkpt>
      <trkpt lat="50.947447" lon="6.964563">
        <ele>39.475461</ele>
        <time>2022-01-09T10:41:45.842Z</time>
      </trkpt>
      <trkpt lat="50.947581" lon="6.964649">
        <ele>39.658080</ele>
        <time>2022-01-09T10:41:50.925Z</time>
      </trkpt>
      <trkpt lat="50.948164" lon="6.965042">
        <ele>40.458348</ele>
        <time>2022-01-09T10:42:13.250Z</time>
      </trkpt>
      <trkpt lat="50.948367" lon="6.965185">
        <ele>40.738952</ele>
        <time>2022-01-09T10:42:20.817Z</time>
      </trkpt>
      <trkpt lat="50.948553" lon="6.965316">
        <ele>40.996050</ele>
        <time>2022-01-09T10:42:27.652Z</time>
      </trkpt>
      <trkpt lat="50.948734" lon="6.965444">
        <ele>41.246404</ele>
        <time>2022-01-09T10:42:34.417Z</time>
      </trkpt>
      <trkpt lat="50.948742" lon="6.965450">
        <ele>41.257583</ele>
        <time>2022-01-09T10:42:34.737Z</time>
      </trkpt>
      <trkpt lat="50.948799" lon="6.965491">
        <ele>41.262103</ele>
        <time>2022-01-09T10:42:36.805Z</time>
      </trkpt>
      <trkpt lat="50.949303" lon="6.965912">
        <ele>41.240083</ele>
        <time>2022-01-09T10:42:54.166Z</time>
      </trkpt>
      <trkpt lat="50.949861" lon="6.966346">
        <ele>41.216057</ele>
        <time>2022-01-09T10:43:11.617Z</time>
      </trkpt>
      <trkpt lat="50.949904" lon="6.966380">
        <ele>41.214200</ele>
        <time>2022-01-09T10:43:12.930Z</time>
      </trkpt>
      <trkpt lat="50.950034" lon="6.966484">
        <ele>41.208571</ele>
        <time>2022-01-09T10:43:16.669Z</time>
      </trkpt>
      <trkpt lat="50.950236" lon="6.966676">
        <ele>41.199468</ele>
        <time>2022-01-09T10:43:22.855Z</time>
      </trkpt>
      <trkpt lat="50.950195" lon="6.966784">
        <ele>41.196397</ele>
        <time>2022-01-09T10:43:24.326Z</time>
      </trkpt>
      <trkpt lat="50.950862" lon="6.967525">
        <ele>42.507795</ele>
        <time>2022-01-09T10:43:43.976Z</time>
      </trkpt>
      <trkpt lat="50.950959" lon="6.967624">
        <ele>42.703892</ele>
        <time>2022-01-09T10:43:47.534Z</time>
      </trkpt>
      <trkpt lat="50.951130" lon="6.967798">
        <ele>43.049284</ele>
        <time>2022-01-09T10:43:55.130Z</time>
      </trkpt>
      <trkpt lat="50.951408" lon="6.968089">
        <ele>43.615541</ele>
        <time>2022-01-09T10:44:06.594Z</time>
      </trkpt>
      <trkpt lat="50.951511" lon="6.968196">
        <ele>43.824860</ele>
        <time>2022-01-09T10:44:10.626Z</time>
      </trkpt>
      <trkpt lat="50.951530" lon="6.968150">
        <ele>43.883785</ele>
        <time>2022-01-09T10:44:12.042Z</time>
      </trkpt>
      <trkpt lat="50.951570" lon="6.968061">
        <ele>44.000901</ele>
        <time>2022-01-09T10:44:20.527Z</time>
      </trkpt>
      <trkpt lat="50.951580" lon="6.968038">
        <ele>44.030838</ele>
        <time>2022-01-09T10:44:21.360Z</time>
      </trkpt>
      <trkpt lat="50.951597" lon="6.967996">
        <ele>44.084317</ele>
        <time>2022-01-09T10:44:22.849Z</time>
      </trkpt>
      <trkpt lat="50.951644" lon="6.968047">
        <ele>44.181127</ele>
        <time>2022-01-09T10:44:25.396Z</time>
      </trkpt>
      <trkpt lat="50.951679" lon="6.967961">
        <ele>44.329451</ele>
        <time>2022-01-09T10:44:27.939Z</time>
      </trkpt>
      <trkpt lat="50.951762" lon="6.968052">
        <ele>44.677601</ele>
        <time>2022-01-09T10:44:30.895Z</time>
      </trkpt>
      <trkpt lat="50.951816" lon="6.967939">
        <ele>44.985983</ele>
        <time>2022-01-09T10:44:34.172Z</time>
      </trkpt>
      <trkpt lat="50.951938" lon="6.967681">
        <ele>45.687389</ele>
        <time>2022-01-09T10:44:41.835Z</time>
      </trkpt>
      <trkpt lat="50.951969" lon="6.967615">
        <ele>45.866386</ele>
        <time>2022-01-09T10:44:43.289Z</time>
      </trkpt>
      <trkpt lat="50.952102" lon="6.967341">
        <ele>46.618463</ele>
        <time>2022-01-09T10:44:51.579Z</time>
      </trkpt>
      <trkpt lat="50.952138" lon="6.967266">
        <ele>46.823473</ele>
        <time>2022-01-09T10:44:53.977Z</time>
      </trkpt>
      <trkpt lat="50.952906" lon="6.965663">
        <ele>50.736751</ele>
        <time>2022-01-09T10:45:41.373Z</time>
      </trkpt>
      <trkpt lat="50.953094" lon="6.965294">
        <ele>51.120608</ele>
        <time>2022-01-09T10:45:49.800Z</time>
      </trkpt>
      <trkpt lat="50.953799" lon="6.963802">
        <ele>52.629148</ele>
        <time>2022-01-09T10:46:19.061Z</time>
      </trkpt>
      <trkpt lat="50.953885" lon="6.963671">
        <ele>52.773388</ele>
        <time>2022-01-09T10:46:22.228Z</time>
      </trkpt>
      <trkpt lat="50.954010" lon="6.963399">
        <ele>52.842171</ele>
        <time>2022-01-09T10:46:28.047Z</time>
      </trkpt>
      <trkpt lat="50.954470" lon="6.963425">
        <ele>52.991447</ele>
        <time>2022-01-09T10:46:39.748Z</time>
      </trkpt>
      <trkpt lat="50.955356" lon="6.963462">
        <ele>53.278882</ele>
        <time>2022-01-09T10:47:00.841Z</time>
      </trkpt>
      <trkpt lat="50.955919" lon="6.963485">
        <ele>53.020113</ele>
        <time>2022-01-09T10:47:12.353Z</time>
      </trkpt>
      <trkpt lat="50.956488" lon="6.963527">
        <ele>52.448416</ele>
        <time>2022-01-09T10:47:23.761Z</time>
      </trkpt>
      <trkpt lat="50.956671" lon="6.963539">
        <ele>52.264590</ele>
        <time>2022-01-09T10:47:27.368Z</time>
      </trkpt>
      <trkpt lat="50.957334" lon="6.963562">
        <ele>51.599007</ele>
        <time>2022-01-09T10:47:40.117Z</time>
      </trkpt>
      <trkpt lat="50.957878" lon="6.963569">
        <ele>50.984638</ele>
        <time>2022-01-09T10:47:49.835Z</time>
      </trkpt>
      <trkpt lat="50.957901" lon="6.963569">
        <ele>50.958369</ele>
        <time>2022-01-09T10:47:50.249Z</time>
      </trkpt>
      <trkpt lat="50.958070" lon="6.963569">
        <ele>50.765350</ele>
        <time>2022-01-09T10:47:53.289Z</time>
      </trkpt>
      <trkpt lat="50.958170" lon="6.963567">
        <ele>50.651129</ele>
        <time>2022-01-09T10:47:55.080Z</time>
      </trkpt>
      <trkpt lat="50.958177" lon="6.963567">
        <ele>50.643134</ele>
        <time>2022-01-09T10:47:55.216Z</time>
      </trkpt>
      <trkpt lat="50.958236" lon="6.963553">
        <ele>50.575000</ele>
        <time>2022-01-09T10:47:56.309Z</time>
      </trkpt>
      <trkpt lat="50.958392" lon="6.963505">
        <ele>50.393513</ele>
        <time>2022-01-09T10:47:59.312Z</time>
      </trkpt>
      <trkpt lat="50.958457" lon="6.963659">
        <ele>50.260152</ele>
        <time>2022-01-09T10:48:03.214Z</time>
      </trkpt>
      <trkpt lat="50.959514" lon="6.963718">
        <ele>49.219577</ele>
        <time>2022-01-09T10:48:25.124Z</time>
      </trkpt>
      <trkpt lat="50.959531" lon="6.963718">
        <ele>49.207513</ele>
        <time>2022-01-09T10:48:25.477Z</time>
      </trkpt>
      <trkpt lat="50.959784" lon="6.963736">
        <ele>49.027797</ele>
        <time>2022-01-09T10:48:30.788Z</time>
      </trkpt>
      <trkpt lat="50.959782" lon="6.963684">
        <ele>49.004511</ele>
        <time>2022-01-09T10:48:31.707Z</time>
      </trkpt>
      <trkpt lat="50.959544" lon="6.963566">
        <ele>48.827576</ele>
        <time>2022-01-09T10:48:38.266Z</time>
      </trkpt>
      <trkpt lat="50.959504" lon="6.963479">
        <ele>48.779432</ele>
        <time>2022-01-09T10:48:40.078Z</time>
      </trkpt>
      <trkpt lat="50.959724" lon="6.963489">
        <ele>48.623250</ele>
        <time>2022-01-09T10:48:44.310Z</time>
      </trkpt>
      <trkpt lat="50.959771" lon="6.963493">
        <ele>48.589849</ele>
        <time>2022-01-09T10:48:45.208Z</time>
      </trkpt>
      <trkpt lat="50.959934" lon="6.963504">
        <ele>48.474076</ele>
        <time>2022-01-09T10:48:48.412Z</time>
      </trkpt>
      <trkpt lat="50.960486" lon="6.963540">
        <ele>48.065751</ele>
        <time>2022-01-09T10:48:59.231Z</time>
      </trkpt>
      <trkpt lat="50.960930" lon="6.963569">
        <ele>47.712616</ele>
        <time>2022-01-09T10:49:08.116Z</time>
      </trkpt>
      <trkpt lat="50.961031" lon="6.963571">
        <ele>47.632348</ele>
        <time>2022-01-09T10:49:10.122Z</time>
      </trkpt>
      <trkpt lat="50.961079" lon="6.963710">
        <ele>47.553004</ele>
        <time>2022-01-09T10:49:12.100Z</time>
      </trkpt>
      <trkpt lat="50.961180" lon="6.963843">
        <ele>47.448728</ele>
        <time>2022-01-09T10:49:14.694Z</time>
      </trkpt>
      <trkpt lat="50.962675" lon="6.964876">
        <ele>46.090414</ele>
        <time>2022-01-09T10:49:46.703Z</time>
      </trkpt>
      <trkpt lat="50.962729" lon="6.964927">
        <ele>46.035562</ele>
        <time>2022-01-09T10:49:47.980Z</time>
      </trkpt>
      <trkpt lat="50.962982" lon="6.965113">
        <ele>45.792162</ele>
        <time>2022-01-09T10:49:53.410Z</time>
      </trkpt>
      <trkpt lat="50.963504" lon="6.965304">
        <ele>45.324505</ele>
        <time>2022-01-09T10:50:03.876Z</time>
      </trkpt>
      <trkpt lat="50.963800" lon="6.965164">
        <ele>45.183392</ele>
        <time>2022-01-09T10:50:09.809Z</time>
      </trkpt>
      <trkpt lat="50.964055" lon="6.965035">
        <ele>45.133494</ele>
        <time>2022-01-09T10:50:14.931Z</time>
      </trkpt>
      <trkpt lat="50.965502" lon="6.964783">
        <ele>44.945423</ele>
        <time>2022-01-09T10:50:47.388Z</time>
      </trkpt>
      <trkpt lat="50.965722" lon="6.964567">
        <ele>45.089897</ele>
        <time>2022-01-09T10:50:54.173Z</time>
      </trkpt>
      <trkpt lat="50.966039" lon="6.964609">
        <ele>45.267572</ele>
        <time>2022-01-09T10:51:02.534Z</time>
      </trkpt>
      <trkpt lat="50.966572" lon="6.964734">
        <ele>45.568508</ele>
        <time>2022-01-09T10:51:16.478Z</time>
      </trkpt>
      <trkpt lat="50.966704" lon="6.964754">
        <ele>45.642571</ele>
        <time>2022-01-09T10:51:19.855Z</time>
      </trkpt>
      <trkpt lat="50.966803" lon="6.964769">
        <ele>45.698119</ele>
        <time>2022-01-09T10:51:22.351Z</time>
      </trkpt>
      <trkpt lat="50.966861" lon="6.964791">
        <ele>45.731426</ele>
        <time>2022-01-09T10:51:24.038Z</time>
      </trkpt>
      <trkpt lat="50.966899" lon="6.964700">
        <ele>45.769833</ele>
        <time>2022-01-09T10:51:25.982Z</time>
      </trkpt>
      <trkpt lat="50.969342" lon="6.964897">
        <ele>45.536058</ele>
        <time>2022-01-09T10:52:24.053Z</time>
      </trkpt>
      <trkpt lat="50.969498" lon="6.964933">
        <ele>45.536721</ele>
        <time>2022-01-09T10:52:27.673Z</time>
      </trkpt>
      <trkpt lat="50.970158" lon="6.964993">
        <ele>45.539501</ele>
        <time>2022-01-09T10:52:51.699Z</time>
      </trkpt>
      <trkpt lat="50.970329" lon="6.965109">
        <ele>45.540283</ele>
        <time>2022-01-09T10:52:58.745Z</time>
      </trkpt>
      <trkpt lat="50.970411" lon="6.965246">
        <ele>45.540783</ele>
        <time>2022-01-09T10:53:01.927Z</time>
      </trkpt>
      <trkpt lat="50.970500" lon="6.965398">
        <ele>45.541333</ele>
        <time>2022-01-09T10:53:05.399Z</time>
      </trkpt>
      <trkpt lat="50.970710" lon="6.965226">
        <ele>45.604028</ele>
        <time>2022-01-09T10:53:12.017Z</time>
      </trkpt>
      <trkpt lat="50.971088" lon="6.965241">
        <ele>45.786834</ele>
        <time>2022-01-09T10:53:22.327Z</time>
      </trkpt>
      <trkpt lat="50.971133" lon="6.965236">
        <ele>45.808643</ele>
        <time>2022-01-09T10:53:23.522Z</time>
      </trkpt>
      <trkpt lat="50.971200" lon="6.965229">
        <ele>45.841105</ele>
        <time>2022-01-09T10:53:25.255Z</time>
      </trkpt>
      <trkpt lat="50.971729" lon="6.965230">
        <ele>46.096856</ele>
        <time>2022-01-09T10:53:38.126Z</time>
      </trkpt>
      <trkpt lat="50.972157" lon="6.965243">
        <ele>46.303816</ele>
        <time>2022-01-09T10:53:48.394Z</time>
      </trkpt>
      <trkpt lat="50.972190" lon="6.965241">
        <ele>46.319782</ele>
        <time>2022-01-09T10:53:49.135Z</time>
      </trkpt>
      <trkpt lat="50.972741" lon="6.965256">
        <ele>46.410119</ele>
        <time>2022-01-09T10:54:02.293Z</time>
      </trkpt>
      <trkpt lat="50.973460" lon="6.965305">
        <ele>46.407649</ele>
        <time>2022-01-09T10:54:18.929Z</time>
      </trkpt>
      <trkpt lat="50.973670" lon="6.965312">
        <ele>46.406928</ele>
        <time>2022-01-09T10:54:23.256Z</time>
      </trkpt>
      <trkpt lat="50.974161" lon="6.965323">
        <ele>46.405243</ele>
        <time>2022-01-09T10:54:33.357Z</time>
      </trkpt>
      <trkpt lat="50.974241" lon="6.965298">
        <ele>46.419247</ele>
        <time>2022-01-09T10:54:35.034Z</time>
      </trkpt>
      <trkpt lat="50.974326" lon="6.965276">
        <ele>46.437789</ele>
        <time>2022-01-09T10:54:36.849Z</time>
      </trkpt>
      <trkpt lat="50.974499" lon="6.965265">
        <ele>46.475065</ele>
        <time>2022-01-09T10:54:40.688Z</time>
      </trkpt>
      <trkpt lat="50.974541" lon="6.965263">
        <ele>46.484111</ele>
        <time>2022-01-09T10:54:41.622Z</time>
      </trkpt>
      <trkpt lat="50.974854" lon="6.965256">
        <ele>46.551506</ele>
        <time>2022-01-09T10:54:48.530Z</time>
      </trkpt>
      <trkpt lat="50.975124" lon="6.965250">
        <ele>46.609642</ele>
        <time>2022-01-09T10:54:54.802Z</time>
      </trkpt>
      <trkpt lat="50.975382" lon="6.965185">
        <ele>46.665883</ele>
        <time>2022-01-09T10:55:01.452Z</time>
      </trkpt>
      <trkpt lat="50.975723" lon="6.965024">
        <ele>46.742474</ele>
        <time>2022-01-09T10:55:10.526Z</time>
      </trkpt>
      <trkpt lat="50.975776" lon="6.965001">
        <ele>46.754304</ele>
        <time>2022-01-09T10:55:11.897Z</time>
      </trkpt>
      <trkpt lat="50.975937" lon="6.964940">
        <ele>46.789939</ele>
        <time>2022-01-09T10:55:15.833Z</time>
      </trkpt>
      <trkpt lat="50.976092" lon="6.964895">
        <ele>46.850217</ele>
        <time>2022-01-09T10:55:19.423Z</time>
      </trkpt>
      <trkpt lat="50.976495" lon="6.964829">
        <ele>47.010570</ele>
        <time>2022-01-09T10:55:28.716Z</time>
      </trkpt>
      <trkpt lat="50.976884" lon="6.964718">
        <ele>47.167001</ele>
        <time>2022-01-09T10:55:37.886Z</time>
      </trkpt>
      <trkpt lat="50.977168" lon="6.964637">
        <ele>47.281206</ele>
        <time>2022-01-09T10:55:44.705Z</time>
      </trkpt>
      <trkpt lat="50.977237" lon="6.965121">
        <ele>47.404875</ele>
        <time>2022-01-09T10:55:52.487Z</time>
      </trkpt>
      <trkpt lat="50.978304" lon="6.964823">
        <ele>47.856892</ele>
        <time>2022-01-09T10:56:18.520Z</time>
      </trkpt>
      <trkpt lat="50.978806" lon="6.964671">
        <ele>48.073421</ele>
        <time>2022-01-09T10:56:30.566Z</time>
      </trkpt>
      <trkpt lat="50.979366" lon="6.964556">
        <ele>48.209967</ele>
        <time>2022-01-09T10:56:44.334Z</time>
      </trkpt>
      <trkpt lat="50.979524" lon="6.964654">
        <ele>48.122239</ele>
        <time>2022-01-09T10:56:48.538Z</time>
      </trkpt>
      <trkpt lat="50.980136" lon="6.965215">
        <ele>47.756779</ele>
        <time>2022-01-09T10:57:04.209Z</time>
      </trkpt>
      <trkpt lat="50.980385" lon="6.965687">
        <ele>47.556261</ele>
        <time>2022-01-09T10:57:11.914Z</time>
      </trkpt>
      <trkpt lat="50.980574" lon="6.966309">
        <ele>47.324203</ele>
        <time>2022-01-09T10:57:20.595Z</time>
      </trkpt>
      <trkpt lat="50.980672" lon="6.966628">
        <ele>47.035719</ele>
        <time>2022-01-09T10:57:25.111Z</time>
      </trkpt>
      <trkpt lat="50.980852" lon="6.967220">
        <ele>46.501404</ele>
        <time>2022-01-09T10:57:33.302Z</time>
      </trkpt>
      <trkpt lat="50.980873" lon="6.967292">
        <ele>46.436913</ele>
        <time>2022-01-09T10:57:34.274Z</time>
      </trkpt>
      <trkpt lat="50.981017" lon="6.967783">
        <ele>45.996685</ele>
        <time>2022-01-09T10:57:40.812Z</time>
      </trkpt>
      <trkpt lat="50.981015" lon="6.967906">
        <ele>45.896686</ele>
        <time>2022-01-09T10:57:43.263Z</time>
      </trkpt>
      <trkpt lat="50.981021" lon="6.967977">
        <ele>45.838464</ele>
        <time>2022-01-09T10:57:44.706Z</time>
      </trkpt>
      <trkpt lat="50.981036" lon="6.968249">
        <ele>45.616553</ele>
        <time>2022-01-09T10:57:50.208Z</time>
      </trkpt>
      <trkpt lat="50.981044" lon="6.968357">
        <ele>45.528173</ele>
        <time>2022-01-09T10:57:52.387Z</time>
      </trkpt>
      <trkpt lat="50.981176" lon="6.968341">
        <ele>45.357275</ele>
        <time>2022-01-09T10:57:56.657Z</time>
      </trkpt>
      <trkpt lat="50.981276" lon="6.968327">
        <ele>45.227683</ele>
        <time>2022-01-09T10:57:59.965Z</time>
      </trkpt>
      <trkpt lat="50.981324" lon="6.968406">
        <ele>45.138453</ele>
        <time>2022-01-09T10:58:02.209Z</time>
      </trkpt>
      <trkpt lat="50.981372" lon="6.968487">
        <ele>45.048047</ele>
        <time>2022-01-09T10:58:04.506Z</time>
      </trkpt>
      <trkpt lat="50.981467" lon="6.968363">
        <ele>44.964774</ele>
        <time>2022-01-09T10:58:08.667Z</time>
      </trkpt>
      <trkpt lat="50.981581" lon="6.968323">
        <ele>44.905092</ele>
        <time>2022-01-09T10:58:12.713Z</time>
      </trkpt>
      <trkpt lat="50.981939" lon="6.968439">
        <ele>44.718309</ele>
        <time>2022-01-09T10:58:25.605Z</time>
      </trkpt>
      <trkpt lat="50.982341" lon="6.968703">
        <ele>44.495931</ele>
        <time>2022-01-09T10:58:41.203Z</time>
      </trkpt>
      <trkpt lat="50.982467" lon="6.968714">
        <ele>44.431422</ele>
        <time>2022-01-09T10:58:45.795Z</time>
      </trkpt>
      <trkpt lat="50.982726" lon="6.968490">
        <ele>44.280664</ele>
        <time>2022-01-09T10:58:56.370Z</time>
      </trkpt>
      <trkpt lat="50.983170" lon="6.968148">
        <ele>44.078044</ele>
        <time>2022-01-09T10:59:10.205Z</time>
      </trkpt>
      <trkpt lat="50.985192" lon="6.967147">
        <ele>43.943303</ele>
        <time>2022-01-09T11:00:11.279Z</time>
      </trkpt>
      <trkpt lat="50.985869" lon="6.966683">
        <ele>44.075044</ele>
        <time>2022-01-09T11:00:33.526Z</time>
      </trkpt>
      <trkpt lat="50.986721" lon="6.966127">
        <ele>44.223263</ele>
        <time>2022-01-09T11:01:01.887Z</time>
      </trkpt>
      <trkpt lat="50.987880" lon="6.965314">
        <ele>44.382544</ele>
        <time>2022-01-09T11:01:39.782Z</time>
      </trkpt>
      <trkpt lat="50.988071" lon="6.965196">
        <ele>44.408308</ele>
        <time>2022-01-09T11:01:45.542Z</time>
      </trkpt>
      <trkpt lat="50.988503" lon="6.964909">
        <ele>44.160384</ele>
        <time>2022-01-09T11:01:58.861Z</time>
      </trkpt>
      <trkpt lat="50.988827" lon="6.964686">
        <ele>43.964240</ele>
        <time>2022-01-09T11:02:08.760Z</time>
      </trkpt>
      <trkpt lat="50.989233" lon="6.964387">
        <ele>43.715657</ele>
        <time>2022-01-09T11:02:20.943Z</time>
      </trkpt>
      <trkpt lat="50.989279" lon="6.964361">
        <ele>43.688536</ele>
        <time>2022-01-09T11:02:22.227Z</time>
      </trkpt>
      <trkpt lat="50.990005" lon="6.963875">
        <ele>43.168958</ele>
        <time>2022-01-09T11:02:42.888Z</time>
      </trkpt>
      <trkpt lat="50.990436" lon="6.963593">
        <ele>42.777841</ele>
        <time>2022-01-09T11:02:54.795Z</time>
      </trkpt>
      <trkpt lat="50.990569" lon="6.963518">
        <ele>42.659421</ele>
        <time>2022-01-09T11:02:58.352Z</time>
      </trkpt>
      <trkpt lat="50.990570" lon="6.963516">
        <ele>42.658072</ele>
        <time>2022-01-09T11:02:58.386Z</time>
      </trkpt>
      <trkpt lat="50.991534" lon="6.962888">
        <ele>41.905305</ele>
        <time>2022-01-09T11:03:26.464Z</time>
      </trkpt>
      <trkpt lat="50.992525" lon="6.962228">
        <ele>41.928846</ele>
        <time>2022-01-09T11:03:57.917Z</time>
      </trkpt>
      <trkpt lat="50.993682" lon="6.961513">
        <ele>42.077153</ele>
        <time>2022-01-09T11:04:36.198Z</time>
      </trkpt>
      <trkpt lat="50.994426" lon="6.961112">
        <ele>42.238873</ele>
        <time>2022-01-09T11:04:59.843Z</time>
      </trkpt>
      <trkpt lat="50.996315" lon="6.960287">
        <ele>42.345458</ele>
        <time>2022-01-09T11:05:57.626Z</time>
      </trkpt>
      <trkpt lat="50.996554" lon="6.960149">
        <ele>42.333397</ele>
        <time>2022-01-09T11:06:04.924Z</time>
      </trkpt>
      <trkpt lat="50.996544" lon="6.960078">
        <ele>42.321120</ele>
        <time>2022-01-09T11:06:06.072Z</time>
      </trkpt>
      <trkpt lat="50.997741" lon="6.959824">
        <ele>41.997335</ele>
        <time>2022-01-09T11:06:31.797Z</time>
      </trkpt>
      <trkpt lat="50.998622" lon="6.959734">
        <ele>41.656954</ele>
        <time>2022-01-09T11:06:49.977Z</time>
      </trkpt>
      <trkpt lat="50.999824" lon="6.959721">
        <ele>41.021325</ele>
        <time>2022-01-09T11:07:14.596Z</time>
      </trkpt>
      <trkpt lat="50.999935" lon="6.959720">
        <ele>40.962627</ele>
        <time>2022-01-09T11:07:16.860Z</time>
      </trkpt>
      <trkpt lat="51.001188" lon="6.959876">
        <ele>40.729020</ele>
        <time>2022-01-09T11:07:41.787Z</time>
      </trkpt>
      <trkpt lat="51.002476" lon="6.960210">
        <ele>41.532565</ele>
        <time>2022-01-09T11:08:15.207Z</time>
      </trkpt>
      <trkpt lat="51.002683" lon="6.960277">
        <ele>41.815441</ele>
        <time>2022-01-09T11:08:21.327Z</time>
      </trkpt>
      <trkpt lat="51.002612" lon="6.959251">
        <ele>42.685211</ele>
        <time>2022-01-09T11:08:40.131Z</time>
      </trkpt>
      <trkpt lat="51.002595" lon="6.958354">
        <ele>43.349632</ele>
        <time>2022-01-09T11:08:56.177Z</time>
      </trkpt>
      <trkpt lat="51.002589" lon="6.958045">
        <ele>43.551058</ele>
        <time>2022-01-09T11:09:02.026Z</time>
      </trkpt>
      <trkpt lat="51.002591" lon="6.957729">
        <ele>43.756960</ele>
        <time>2022-01-09T11:09:07.900Z</time>
      </trkpt>
      <trkpt lat="51.002594" lon="6.957448">
        <ele>43.940073</ele>
        <time>2022-01-09T11:09:13.234Z</time>
      </trkpt>
      <trkpt lat="51.002601" lon="6.956910">
        <ele>44.290684</ele>
        <time>2022-01-09T11:09:22.288Z</time>
      </trkpt>
      <trkpt lat="51.002695" lon="6.956900">
        <ele>44.388229</ele>
        <time>2022-01-09T11:09:24.360Z</time>
      </trkpt>
      <trkpt lat="51.002693" lon="6.956734">
        <ele>44.496406</ele>
        <time>2022-01-09T11:09:27.493Z</time>
      </trkpt>
      <trkpt lat="51.002678" lon="6.955514">
        <ele>44.855862</ele>
        <time>2022-01-09T11:09:49.945Z</time>
      </trkpt>
      <trkpt lat="51.002788" lon="6.955497">
        <ele>44.843284</ele>
        <time>2022-01-09T11:09:53.062Z</time>
      </trkpt>
      <trkpt lat="51.002832" lon="6.955424">
        <ele>44.836045</ele>
        <time>2022-01-09T11:09:54.853Z</time>
      </trkpt>
      <trkpt lat="51.002844" lon="6.955169">
        <ele>44.817732</ele>
        <time>2022-01-09T11:09:59.511Z</time>
      </trkpt>
      <trkpt lat="51.007761" lon="6.955246">
        <ele>44.237523</ele>
        <time>2022-01-09T11:12:20.878Z</time>
      </trkpt>
      <trkpt lat="51.007795" lon="6.955246">
        <ele>44.235760</ele>
        <time>2022-01-09T11:12:21.866Z</time>
      </trkpt>
      <trkpt lat="51.007900" lon="6.955245">
        <ele>44.230314</ele>
        <time>2022-01-09T11:12:24.848Z</time>
      </trkpt>
      <trkpt lat="51.008061" lon="6.955251">
        <ele>44.221962</ele>
        <time>2022-01-09T11:12:29.646Z</time>
      </trkpt>
      <trkpt lat="51.010958" lon="6.955212">
        <ele>44.112155</ele>
        <time>2022-01-09T11:13:53.784Z</time>
      </trkpt>
      <trkpt lat="51.011083" lon="6.955198">
        <ele>44.108758</ele>
        <time>2022-01-09T11:13:57.450Z</time>
      </trkpt>
      <trkpt lat="51.011298" lon="6.955232">
        <ele>44.126262</ele>
        <time>2022-01-09T11:14:03.790Z</time>
      </trkpt>
      <trkpt lat="51.011562" lon="6.955231">
        <ele>44.154022</ele>
        <time>2022-01-09T11:14:11.573Z</time>
      </trkpt>
      <trkpt lat="51.011567" lon="6.955349">
        <ele>44.161847</ele>
        <time>2022-01-09T11:14:13.767Z</time>
      </trkpt>
      <trkpt lat="51.011578" lon="6.955477">
        <ele>44.170394</ele>
        <time>2022-01-09T11:14:16.252Z</time>
      </trkpt>
      <trkpt lat="51.011593" lon="6.955540">
        <ele>44.174850</ele>
        <time>2022-01-09T11:14:17.484Z</time>
      </trkpt>
      <trkpt lat="51.016193" lon="6.955529">
        <ele>44.663111</ele>
        <time>2022-01-09T11:16:34.269Z</time>
      </trkpt>
      <trkpt lat="51.017279" lon="6.955527">
        <ele>44.643419</ele>
        <time>2022-01-09T11:17:06.252Z</time>
      </trkpt>
      <trkpt lat="51.017335" lon="6.955528">
        <ele>44.641208</ele>
        <time>2022-01-09T11:17:07.866Z</time>
      </trkpt>
      <trkpt lat="51.017428" lon="6.955532">
        <ele>44.637536</ele>
        <time>2022-01-09T11:17:10.510Z</time>
      </trkpt>
      <trkpt lat="51.017518" lon="6.955522">
        <ele>44.633974</ele>
        <time>2022-01-09T11:17:13.077Z</time>
      </trkpt>
      <trkpt lat="51.017529" lon="6.955273">
        <ele>44.627776</ele>
        <time>2022-01-09T11:17:17.631Z</time>
      </trkpt>
      <trkpt lat="51.019257" lon="6.955275">
        <ele>44.628769</ele>
        <time>2022-01-09T11:18:07.247Z</time>
      </trkpt>
      <trkpt lat="51.019366" lon="6.955531">
        <ele>44.631821</ele>
        <time>2022-01-09T11:18:13.174Z</time>
      </trkpt>
      <trkpt lat="51.019416" lon="6.955532">
        <ele>44.632605</ele>
        <time>2022-01-09T11:18:14.720Z</time>
      </trkpt>
      <trkpt lat="51.019418" lon="6.955672">
        <ele>44.633988</ele>
        <time>2022-01-09T11:18:16.763Z</time>
      </trkpt>
      <trkpt lat="51.019419" lon="6.955730">
        <ele>44.634561</ele>
        <time>2022-01-09T11:18:17.608Z</time>
      </trkpt>
      <trkpt lat="51.019423" lon="6.956107">
        <ele>44.664132</ele>
        <time>2022-01-09T11:18:23.308Z</time>
      </trkpt>
      <trkpt lat="51.019424" lon="6.956457">
        <ele>44.759357</ele>
        <time>2022-01-09T11:18:28.535Z</time>
      </trkpt>
      <trkpt lat="51.019412" lon="6.957798">
        <ele>45.124240</ele>
        <time>2022-01-09T11:18:49.245Z</time>
      </trkpt>
      <trkpt lat="51.019450" lon="6.958531">
        <ele>45.324342</ele>
        <time>2022-01-09T11:19:00.563Z</time>
      </trkpt>
      <trkpt lat="51.019795" lon="6.960080">
        <ele>45.266164</ele>
        <time>2022-01-09T11:19:23.854Z</time>
      </trkpt>
      <trkpt lat="51.019834" lon="6.960260">
        <ele>45.244487</ele>
        <time>2022-01-09T11:19:26.348Z</time>
      </trkpt>
      <trkpt lat="51.020117" lon="6.961514">
        <ele>45.092794</ele>
        <time>2022-01-09T11:19:43.527Z</time>
      </trkpt>
      <trkpt lat="51.020424" lon="6.961663">
        <ele>45.009362</ele>
        <time>2022-01-09T11:19:50.214Z</time>
      </trkpt>
      <trkpt lat="51.021402" lon="6.961258">
        <ele>44.742136</ele>
        <time>2022-01-09T11:20:11.539Z</time>
      </trkpt>
      <trkpt lat="51.021673" lon="6.961148">
        <ele>44.668181</ele>
        <time>2022-01-09T11:20:17.656Z</time>
      </trkpt>
      <trkpt lat="51.022677" lon="6.960727">
        <ele>44.533137</ele>
        <time>2022-01-09T11:20:40.854Z</time>
      </trkpt>
      <trkpt lat="51.023932" lon="6.960180">
        <ele>44.399580</ele>
        <time>2022-01-09T11:21:09.113Z</time>
      </trkpt>
      <trkpt lat="51.024568" lon="6.959788">
        <ele>44.318714</ele>
        <time>2022-01-09T11:21:23.505Z</time>
      </trkpt>
      <trkpt lat="51.025000" lon="6.959271">
        <ele>44.254613</ele>
        <time>2022-01-09T11:21:35.583Z</time>
      </trkpt>
      <trkpt lat="51.025345" lon="6.958822">
        <ele>44.278201</ele>
        <time>2022-01-09T11:21:45.535Z</time>
      </trkpt>
      <trkpt lat="51.025795" lon="6.958325">
        <ele>44.416150</ele>
        <time>2022-01-09T11:21:58.009Z</time>
      </trkpt>
      <trkpt lat="51.026100" lon="6.958095">
        <ele>44.501138</ele>
        <time>2022-01-09T11:22:05.783Z</time>
      </trkpt>
      <trkpt lat="51.026162" lon="6.958046">
        <ele>44.518570</ele>
        <time>2022-01-09T11:22:07.434Z</time>
      </trkpt>
      <trkpt lat="51.026720" lon="6.957652">
        <ele>44.672288</ele>
        <time>2022-01-09T11:22:22.189Z</time>
      </trkpt>
      <trkpt lat="51.027793" lon="6.956650">
        <ele>44.885784</ele>
        <time>2022-01-09T11:22:51.298Z</time>
      </trkpt>
      <trkpt lat="51.028195" lon="6.956212">
        <ele>44.968530</ele>
        <time>2022-01-09T11:23:02.073Z</time>
      </trkpt>
      <trkpt lat="51.028649" lon="6.955523">
        <ele>44.971418</ele>
        <time>2022-01-09T11:23:15.662Z</time>
      </trkpt>
      <trkpt lat="51.028711" lon="6.955416">
        <ele>44.969180</ele>
        <time>2022-01-09T11:23:17.709Z</time>
      </trkpt>
      <trkpt lat="51.029092" lon="6.954785">
        <ele>44.955729</ele>
        <time>2022-01-09T11:23:29.847Z</time>
      </trkpt>
      <trkpt lat="51.029774" lon="6.953560">
        <ele>44.878080</ele>
        <time>2022-01-09T11:23:52.936Z</time>
      </trkpt>
      <trkpt lat="51.030377" lon="6.952567">
        <ele>44.744524</ele>
        <time>2022-01-09T11:24:11.718Z</time>
      </trkpt>
      <trkpt lat="51.030711" lon="6.951962">
        <ele>44.666633</ele>
        <time>2022-01-09T11:24:22.577Z</time>
      </trkpt>
      <trkpt lat="51.031105" lon="6.952508">
        <ele>44.254269</ele>
        <time>2022-01-09T11:24:33.761Z</time>
      </trkpt>
      <trkpt lat="51.031265" lon="6.952729">
        <ele>44.082088</ele>
        <time>2022-01-09T11:24:37.806Z</time>
      </trkpt>
      <trkpt lat="51.031940" lon="6.953665">
        <ele>43.354476</ele>
        <time>2022-01-09T11:24:54.706Z</time>
      </trkpt>
      <trkpt lat="51.032650" lon="6.954713">
        <ele>42.560423</ele>
        <time>2022-01-09T11:25:13.741Z</time>
      </trkpt>
      <trkpt lat="51.033865" lon="6.953210">
        <ele>41.479865</ele>
        <time>2022-01-09T11:25:44.276Z</time>
      </trkpt>
      <trkpt lat="51.035850" lon="6.950208">
        <ele>40.439707</ele>
        <time>2022-01-09T11:26:41.877Z</time>
      </trkpt>
      <trkpt lat="51.036562" lon="6.949344">
        <ele>40.262426</ele>
        <time>2022-01-09T11:27:01.206Z</time>
      </trkpt>
      <trkpt lat="51.036588" lon="6.949317">
        <ele>40.258205</ele>
        <time>2022-01-09T11:27:01.884Z</time>
      </trkpt>
      <trkpt lat="51.037375" lon="6.948689">
        <ele>40.138502</ele>
        <time>2022-01-09T11:27:21.200Z</time>
      </trkpt>
      <trkpt lat="51.037616" lon="6.948352">
        <ele>40.094875</ele>
        <time>2022-01-09T11:27:28.253Z</time>
      </trkpt>
      <trkpt lat="51.038498" lon="6.946634">
        <ele>40.092936</ele>
        <time>2022-01-09T11:27:58.653Z</time>
      </trkpt>
      <trkpt lat="51.038710" lon="6.946408">
        <ele>40.092730</ele>
        <time>2022-01-09T11:28:04.567Z</time>
      </trkpt>
      <trkpt lat="51.039139" lon="6.945440">
        <ele>40.346732</ele>
        <time>2022-01-09T11:28:21.852Z</time>
      </trkpt>
      <trkpt lat="51.039460" lon="6.944509">
        <ele>40.634396</ele>
        <time>2022-01-09T11:28:37.750Z</time>
      </trkpt>
      <trkpt lat="51.039906" lon="6.942734">
        <ele>41.268648</ele>
        <time>2022-01-09T11:29:08.040Z</time>
      </trkpt>
      <trkpt lat="51.040176" lon="6.941048">
        <ele>41.932717</ele>
        <time>2022-01-09T11:29:34.849Z</time>
      </trkpt>
      <trkpt lat="51.040271" lon="6.940124">
        <ele>42.231989</ele>
        <time>2022-01-09T11:29:48.939Z</time>
      </trkpt>
      <trkpt lat="51.040260" lon="6.938842">
        <ele>42.635385</ele>
        <time>2022-01-09T11:30:08.331Z</time>
      </trkpt>
      <trkpt lat="51.040260" lon="6.938812">
        <ele>42.644824</ele>
        <time>2022-01-09T11:30:08.775Z</time>
      </trkpt>
      <trkpt lat="51.040443" lon="6.937843">
        <ele>42.934242</ele>
        <time>2022-01-09T11:30:24.551Z</time>
      </trkpt>
      <trkpt lat="51.040656" lon="6.937222">
        <ele>43.094759</ele>
        <time>2022-01-09T11:30:35.343Z</time>
      </trkpt>
      <trkpt lat="51.040549" lon="6.937082">
        <ele>43.144762</ele>
        <time>2022-01-09T11:30:38.643Z</time>
      </trkpt>
      <trkpt lat="51.040137" lon="6.936854">
        <ele>43.302191</ele>
        <time>2022-01-09T11:30:48.686Z</time>
      </trkpt>
      <trkpt lat="51.039803" lon="6.936383">
        <ele>43.463287</ele>
        <time>2022-01-09T11:30:59.110Z</time>
      </trkpt>
      <trkpt lat="51.039848" lon="6.936309">
        <ele>43.486647</ele>
        <time>2022-01-09T11:31:01.142Z</time>
      </trkpt>
      <trkpt lat="51.039868" lon="6.936277">
        <ele>43.496885</ele>
        <time>2022-01-09T11:31:01.995Z</time>
      </trkpt>
      <trkpt lat="51.040030" lon="6.936058">
        <ele>43.499046</ele>
        <time>2022-01-09T11:31:08.362Z</time>
      </trkpt>
      <trkpt lat="51.040058" lon="6.936088">
        <ele>43.497267</ele>
        <time>2022-01-09T11:31:09.421Z</time>
      </trkpt>
      <trkpt lat="51.040084" lon="6.936115">
        <ele>43.495631</ele>
        <time>2022-01-09T11:31:10.361Z</time>
      </trkpt>
      <trkpt lat="51.040141" lon="6.936133">
        <ele>43.492568</ele>
        <time>2022-01-09T11:31:12.156Z</time>
      </trkpt>
      <trkpt lat="51.040233" lon="6.936161">
        <ele>43.487632</ele>
        <time>2022-01-09T11:31:14.925Z</time>
      </trkpt>
      <trkpt lat="51.040549" lon="6.935578">
        <ele>43.462126</ele>
        <time>2022-01-09T11:31:29.044Z</time>
      </trkpt>
      <trkpt lat="51.040691" lon="6.935574">
        <ele>43.454641</ele>
        <time>2022-01-09T11:31:33.390Z</time>
      </trkpt>
      <trkpt lat="51.040714" lon="6.935498">
        <ele>43.451846</ele>
        <time>2022-01-09T11:31:34.833Z</time>
      </trkpt>
      <trkpt lat="51.040825" lon="6.935131">
        <ele>43.438351</ele>
        <time>2022-01-09T11:31:42.152Z</time>
      </trkpt>
      <trkpt lat="51.041484" lon="6.933917">
        <ele>43.315251</ele>
        <time>2022-01-09T11:32:03.241Z</time>
      </trkpt>
      <trkpt lat="51.041549" lon="6.933797">
        <ele>43.297144</ele>
        <time>2022-01-09T11:32:05.455Z</time>
      </trkpt>
      <trkpt lat="51.042104" lon="6.932905">
        <ele>43.153681</ele>
        <time>2022-01-09T11:32:22.835Z</time>
      </trkpt>
      <trkpt lat="51.042727" lon="6.932251">
        <ele>42.974885</ele>
        <time>2022-01-09T11:32:38.945Z</time>
      </trkpt>
      <trkpt lat="51.042787" lon="6.932103">
        <ele>42.942145</ele>
        <time>2022-01-09T11:32:41.303Z</time>
      </trkpt>
      <trkpt lat="51.043046" lon="6.931754">
        <ele>42.841767</ele>
        <time>2022-01-09T11:32:48.446Z</time>
      </trkpt>
      <trkpt lat="51.044670" lon="6.928669">
        <ele>42.173983</ele>
        <time>2022-01-09T11:33:41.556Z</time>
      </trkpt>
      <trkpt lat="51.045682" lon="6.926924">
        <ele>42.174745</ele>
        <time>2022-01-09T11:34:15.843Z</time>
      </trkpt>
      <trkpt lat="51.045728" lon="6.926850">
        <ele>42.177833</ele>
        <time>2022-01-09T11:34:17.354Z</time>
      </trkpt>
      <trkpt lat="51.048504" lon="6.922272">
        <ele>41.548996</ele>
        <time>2022-01-09T11:35:43.704Z</time>
      </trkpt>
      <trkpt lat="51.048740" lon="6.921981">
        <ele>41.506449</ele>
        <time>2022-01-09T11:35:49.859Z</time>
      </trkpt>
      <trkpt lat="51.049096" lon="6.921374">
        <ele>41.443654</ele>
        <time>2022-01-09T11:36:00.865Z</time>
      </trkpt>
      <trkpt lat="51.049146" lon="6.921384">
        <ele>41.437590</ele>
        <time>2022-01-09T11:36:01.833Z</time>
      </trkpt>
      <trkpt lat="51.049516" lon="6.920818">
        <ele>41.375822</ele>
        <time>2022-01-09T11:36:13.014Z</time>
      </trkpt>
      <trkpt lat="51.050496" lon="6.919255">
        <ele>41.587919</ele>
        <time>2022-01-09T11:36:45.332Z</time>
      </trkpt>
      <trkpt lat="51.051538" lon="6.917815">
        <ele>41.871859</ele>
        <time>2022-01-09T11:37:18.084Z</time>
      </trkpt>
      <trkpt lat="51.051923" lon="6.917226">
        <ele>41.882915</ele>
        <time>2022-01-09T11:37:29.599Z</time>
      </trkpt>
      <trkpt lat="51.052939" lon="6.915430">
        <ele>41.994491</ele>
        <time>2022-01-09T11:38:02.753Z</time>
      </trkpt>
      <trkpt lat="51.053255" lon="6.914890">
        <ele>42.054940</ele>
        <time>2022-01-09T11:38:13.537Z</time>
      </trkpt>
      <trkpt lat="51.053021" lon="6.914507">
        <ele>42.098701</ele>
        <time>2022-01-09T11:38:21.556Z</time>
      </trkpt>
      <trkpt lat="51.052904" lon="6.914296">
        <ele>42.121754</ele>
        <time>2022-01-09T11:38:25.880Z</time>
      </trkpt>
      <trkpt lat="51.052793" lon="6.914105">
        <ele>42.132335</ele>
        <time>2022-01-09T11:38:29.655Z</time>
      </trkpt>
      <trkpt lat="51.052745" lon="6.914025">
        <ele>42.131051</ele>
        <time>2022-01-09T11:38:31.247Z</time>
      </trkpt>
      <trkpt lat="51.052593" lon="6.913780">
        <ele>42.127057</ele>
        <time>2022-01-09T11:38:36.548Z</time>
      </trkpt>
      <trkpt lat="51.052507" lon="6.913675">
        <ele>42.125055</ele>
        <time>2022-01-09T11:38:38.897Z</time>
      </trkpt>
      <trkpt lat="51.052365" lon="6.913558">
        <ele>42.122103</ele>
        <time>2022-01-09T11:38:42.822Z</time>
      </trkpt>
      <trkpt lat="51.052487" lon="6.913521">
        <ele>42.119810</ele>
        <time>2022-01-09T11:38:45.756Z</time>
      </trkpt>
      <trkpt lat="51.053530" lon="6.911857">
        <ele>41.925811</ele>
        <time>2022-01-09T11:39:17.066Z</time>
      </trkpt>
      <trkpt lat="51.054502" lon="6.910004">
        <ele>41.371858</ele>
        <time>2022-01-09T11:39:48.069Z</time>
      </trkpt>
      <trkpt lat="51.058677" lon="6.898687">
        <ele>41.460733</ele>
        <time>2022-01-09T11:42:53.020Z</time>
      </trkpt>
      <trkpt lat="51.061851" lon="6.890057">
        <ele>39.893843</ele>
        <time>2022-01-09T11:45:06.194Z</time>
      </trkpt>
      <trkpt lat="51.062329" lon="6.888705">
        <ele>39.830220</ele>
        <time>2022-01-09T11:45:27.954Z</time>
      </trkpt>
      <trkpt lat="51.062448" lon="6.888250">
        <ele>39.810008</ele>
        <time>2022-01-09T11:45:34.866Z</time>
      </trkpt>
      <trkpt lat="51.062692" lon="6.886911">
        <ele>39.650295</ele>
        <time>2022-01-09T11:45:54.314Z</time>
      </trkpt>
      <trkpt lat="51.063744" lon="6.880124">
        <ele>39.128306</ele>
        <time>2022-01-09T11:47:27.867Z</time>
      </trkpt>
      <trkpt lat="51.064656" lon="6.876005">
        <ele>41.857808</ele>
        <time>2022-01-09T11:48:42.465Z</time>
      </trkpt>
      <trkpt lat="51.064709" lon="6.875516">
        <ele>42.173419</ele>
        <time>2022-01-09T11:48:50.658Z</time>
      </trkpt>
      <trkpt lat="51.064666" lon="6.874742">
        <ele>42.667629</ele>
        <time>2022-01-09T11:49:03.314Z</time>
      </trkpt>
      <trkpt lat="51.064639" lon="6.874437">
        <ele>42.863534</ele>
        <time>2022-01-09T11:49:08.095Z</time>
      </trkpt>
      <trkpt lat="51.064438" lon="6.872918">
        <ele>43.556261</ele>
        <time>2022-01-09T11:49:32.756Z</time>
      </trkpt>
      <trkpt lat="51.064394" lon="6.872212">
        <ele>43.836199</ele>
        <time>2022-01-09T11:49:43.845Z</time>
      </trkpt>
      <trkpt lat="51.064468" lon="6.871611">
        <ele>44.077848</ele>
        <time>2022-01-09T11:49:53.500Z</time>
      </trkpt>
      <trkpt lat="51.064674" lon="6.870694">
        <ele>44.119667</ele>
        <time>2022-01-09T11:50:08.381Z</time>
      </trkpt>
      <trkpt lat="51.066331" lon="6.868172">
        <ele>43.217305</ele>
        <time>2022-01-09T11:50:55.607Z</time>
      </trkpt>
      <trkpt lat="51.066737" lon="6.867426">
        <ele>42.794578</ele>
        <time>2022-01-09T11:51:07.614Z</time>
      </trkpt>
      <trkpt lat="51.067347" lon="6.866079">
        <ele>42.073866</ele>
        <time>2022-01-09T11:51:28.131Z</time>
      </trkpt>
      <trkpt lat="51.067317" lon="6.866040">
        <ele>42.046982</ele>
        <time>2022-01-09T11:51:28.814Z</time>
      </trkpt>
      <trkpt lat="51.067494" lon="6.865653">
        <ele>41.838238</ele>
        <time>2022-01-09T11:51:35.083Z</time>
      </trkpt>
      <trkpt lat="51.067686" lon="6.865212">
        <ele>41.604264</ele>
        <time>2022-01-09T11:51:42.243Z</time>
      </trkpt>
      <trkpt lat="51.067790" lon="6.864975">
        <ele>41.478200</ele>
        <time>2022-01-09T11:51:46.115Z</time>
      </trkpt>
      <trkpt lat="51.068136" lon="6.864136">
        <ele>41.293475</ele>
        <time>2022-01-09T11:51:59.751Z</time>
      </trkpt>
      <trkpt lat="51.069411" lon="6.860980">
        <ele>41.343184</ele>
        <time>2022-01-09T11:52:54.485Z</time>
      </trkpt>
      <trkpt lat="51.069607" lon="6.860500">
        <ele>41.428982</ele>
        <time>2022-01-09T11:53:03.746Z</time>
      </trkpt>
      <trkpt lat="51.069673" lon="6.860339">
        <ele>41.457794</ele>
        <time>2022-01-09T11:53:06.857Z</time>
      </trkpt>
      <trkpt lat="51.070275" lon="6.858865">
        <ele>41.562853</ele>
        <time>2022-01-09T11:53:34.119Z</time>
      </trkpt>
      <trkpt lat="51.070550" lon="6.858206">
        <ele>41.583695</ele>
        <time>2022-01-09T11:53:45.482Z</time>
      </trkpt>
      <trkpt lat="51.070672" lon="6.858019">
        <ele>41.590798</ele>
        <time>2022-01-09T11:53:49.237Z</time>
      </trkpt>
      <trkpt lat="51.070863" lon="6.857826">
        <ele>41.600284</ele>
        <time>2022-01-09T11:53:54.227Z</time>
      </trkpt>
      <trkpt lat="51.070977" lon="6.857712">
        <ele>41.589760</ele>
        <time>2022-01-09T11:53:57.154Z</time>
      </trkpt>
      <trkpt lat="51.071228" lon="6.857466">
        <ele>41.464309</ele>
        <time>2022-01-09T11:54:03.480Z</time>
      </trkpt>
      <trkpt lat="51.071398" lon="6.857299">
        <ele>41.379289</ele>
        <time>2022-01-09T11:54:07.686Z</time>
      </trkpt>
      <trkpt lat="51.071919" lon="6.856795">
        <ele>41.119815</ele>
        <time>2022-01-09T11:54:20.622Z</time>
      </trkpt>
      <trkpt lat="51.072804" lon="6.855929">
        <ele>40.854296</ele>
        <time>2022-01-09T11:54:43.503Z</time>
      </trkpt>
      <trkpt lat="51.072905" lon="6.855835">
        <ele>40.859011</ele>
        <time>2022-01-09T11:54:46.215Z</time>
      </trkpt>
      <trkpt lat="51.072852" lon="6.855703">
        <ele>40.862978</ele>
        <time>2022-01-09T11:54:48.576Z</time>
      </trkpt>
      <trkpt lat="51.078614" lon="6.850151">
        <ele>41.325963</ele>
        <time>2022-01-09T11:57:20.159Z</time>
      </trkpt>
      <trkpt lat="51.079122" lon="6.849811">
        <ele>41.570075</ele>
        <time>2022-01-09T11:57:33.771Z</time>
      </trkpt>
      <trkpt lat="51.080246" lon="6.849385">
        <ele>42.062430</ele>
        <time>2022-01-09T11:58:01.964Z</time>
      </trkpt>
      <trkpt lat="51.080324" lon="6.849349">
        <ele>42.062030</ele>
        <time>2022-01-09T11:58:03.986Z</time>
      </trkpt>
      <trkpt lat="51.081049" lon="6.849369">
        <ele>42.058452</ele>
        <time>2022-01-09T11:58:20.936Z</time>
      </trkpt>
      <trkpt lat="51.083225" lon="6.848946">
        <ele>41.574638</ele>
        <time>2022-01-09T11:59:06.915Z</time>
      </trkpt>
      <trkpt lat="51.084071" lon="6.848716">
        <ele>41.240346</ele>
        <time>2022-01-09T11:59:24.595Z</time>
      </trkpt>
      <trkpt lat="51.084543" lon="6.848588">
        <ele>41.050225</ele>
        <time>2022-01-09T11:59:34.758Z</time>
      </trkpt>
      <trkpt lat="51.084651" lon="6.848565">
        <ele>41.006959</ele>
        <time>2022-01-09T11:59:37.037Z</time>
      </trkpt>
      <trkpt lat="51.084661" lon="6.848758">
        <ele>40.958655</ele>
        <time>2022-01-09T11:59:39.549Z</time>
      </trkpt>
      <trkpt lat="51.084736" lon="6.849068">
        <ele>40.875794</ele>
        <time>2022-01-09T11:59:44.062Z</time>
      </trkpt>
      <trkpt lat="51.084755" lon="6.849106">
        <ele>40.863680</ele>
        <time>2022-01-09T11:59:44.717Z</time>
      </trkpt>
      <trkpt lat="51.084913" lon="6.849114">
        <ele>40.800910</ele>
        <time>2022-01-09T11:59:47.910Z</time>
      </trkpt>
      <trkpt lat="51.085065" lon="6.848897">
        <ele>40.719839</ele>
        <time>2022-01-09T11:59:52.170Z</time>
      </trkpt>
      <trkpt lat="51.085448" lon="6.848827">
        <ele>40.613473</ele>
        <time>2022-01-09T12:00:00.155Z</time>
      </trkpt>
      <trkpt lat="51.085602" lon="6.848863">
        <ele>40.587911</ele>
        <time>2022-01-09T12:00:03.401Z</time>
      </trkpt>
      <trkpt lat="51.086096" lon="6.849575">
        <ele>40.478474</ele>
        <time>2022-01-09T12:00:17.467Z</time>
      </trkpt>
      <trkpt lat="51.086229" lon="6.849693">
        <ele>40.453469</ele>
        <time>2022-01-09T12:00:20.907Z</time>
      </trkpt>
      <trkpt lat="51.088693" lon="6.850984">
        <ele>40.379874</ele>
        <time>2022-01-09T12:01:19.353Z</time>
      </trkpt>
      <trkpt lat="51.089453" lon="6.851613">
        <ele>40.074337</ele>
        <time>2022-01-09T12:01:37.890Z</time>
      </trkpt>
      <trkpt lat="51.090321" lon="6.852565">
        <ele>39.665788</ele>
        <time>2022-01-09T12:01:58.929Z</time>
      </trkpt>
      <trkpt lat="51.091385" lon="6.854209">
        <ele>38.966594</ele>
        <time>2022-01-09T12:02:29.323Z</time>
      </trkpt>
      <trkpt lat="51.091415" lon="6.854254">
        <ele>38.952648</ele>
        <time>2022-01-09T12:02:30.207Z</time>
      </trkpt>
      <trkpt lat="51.091580" lon="6.854370">
        <ele>38.979931</ele>
        <time>2022-01-09T12:02:34.240Z</time>
      </trkpt>
      <trkpt lat="51.092622" lon="6.855987">
        <ele>39.200032</ele>
        <time>2022-01-09T12:03:08.131Z</time>
      </trkpt>
      <trkpt lat="51.092850" lon="6.856554">
        <ele>39.256977</ele>
        <time>2022-01-09T12:03:18.110Z</time>
      </trkpt>
      <trkpt lat="51.093582" lon="6.858007">
        <ele>39.403357</ele>
        <time>2022-01-09T12:03:44.644Z</time>
      </trkpt>
      <trkpt lat="51.093726" lon="6.858242">
        <ele>39.429158</ele>
        <time>2022-01-09T12:03:49.134Z</time>
      </trkpt>
      <trkpt lat="51.096199" lon="6.862168">
        <ele>39.665701</ele>
        <time>2022-01-09T12:05:11.087Z</time>
      </trkpt>
      <trkpt lat="51.099484" lon="6.867340">
        <ele>39.661727</ele>
        <time>2022-01-09T12:06:57.813Z</time>
      </trkpt>
      <trkpt lat="51.100546" lon="6.869258">
        <ele>39.832591</ele>
        <time>2022-01-09T12:07:35.542Z</time>
      </trkpt>
      <trkpt lat="51.100603" lon="6.869330">
        <ele>39.846703</ele>
        <time>2022-01-09T12:07:37.177Z</time>
      </trkpt>
      <trkpt lat="51.100699" lon="6.869321">
        <ele>39.865356</ele>
        <time>2022-01-09T12:07:39.656Z</time>
      </trkpt>
      <trkpt lat="51.100074" lon="6.868050">
        <ele>40.061988</ele>
        <time>2022-01-09T12:08:03.000Z</time>
      </trkpt>
      <trkpt lat="51.101511" lon="6.870305">
        <ele>40.799783</ele>
        <time>2022-01-09T12:09:05.716Z</time>
      </trkpt>
      <trkpt lat="51.102352" lon="6.871304">
        <ele>40.886959</ele>
        <time>2022-01-09T12:09:37.104Z</time>
      </trkpt>
      <trkpt lat="51.103030" lon="6.871907">
        <ele>40.887406</ele>
        <time>2022-01-09T12:09:59.178Z</time>
      </trkpt>
      <trkpt lat="51.103676" lon="6.872343">
        <ele>40.721023</ele>
        <time>2022-01-09T12:10:18.976Z</time>
      </trkpt>
      <trkpt lat="51.104170" lon="6.872606">
        <ele>40.597503</ele>
        <time>2022-01-09T12:10:33.715Z</time>
      </trkpt>
      <trkpt lat="51.104795" lon="6.872811">
        <ele>40.481177</ele>
        <time>2022-01-09T12:10:51.854Z</time>
      </trkpt>
      <trkpt lat="51.105623" lon="6.872988">
        <ele>40.394634</ele>
        <time>2022-01-09T12:11:15.936Z</time>
      </trkpt>
      <trkpt lat="51.106129" lon="6.872990">
        <ele>40.342217</ele>
        <time>2022-01-09T12:11:30.593Z</time>
      </trkpt>
      <trkpt lat="51.107034" lon="6.872857">
        <ele>40.148913</ele>
        <time>2022-01-09T12:11:56.976Z</time>
      </trkpt>
      <trkpt lat="51.107633" lon="6.872660">
        <ele>40.000576</ele>
        <time>2022-01-09T12:12:14.403Z</time>
      </trkpt>
      <trkpt lat="51.108260" lon="6.872340">
        <ele>39.740682</ele>
        <time>2022-01-09T12:12:32.758Z</time>
      </trkpt>
      <trkpt lat="51.109273" lon="6.871608">
        <ele>38.868604</ele>
        <time>2022-01-09T12:13:02.494Z</time>
      </trkpt>
      <trkpt lat="51.109978" lon="6.870887">
        <ele>38.236983</ele>
        <time>2022-01-09T12:13:24.202Z</time>
      </trkpt>
      <trkpt lat="51.110960" lon="6.869583">
        <ele>37.330395</ele>
        <time>2022-01-09T12:13:58.131Z</time>
      </trkpt>
      <trkpt lat="51.115446" lon="6.863664">
        <ele>36.904811</ele>
        <time>2022-01-09T12:16:47.933Z</time>
      </trkpt>
      <trkpt lat="51.119234" lon="6.858652">
        <ele>36.796349</ele>
        <time>2022-01-09T12:19:11.854Z</time>
      </trkpt>
      <trkpt lat="51.121623" lon="6.855521">
        <ele>36.785536</ele>
        <time>2022-01-09T12:20:41.907Z</time>
      </trkpt>
      <trkpt lat="51.122632" lon="6.854309">
        <ele>36.945427</ele>
        <time>2022-01-09T12:21:19.729Z</time>
      </trkpt>
      <trkpt lat="51.123609" lon="6.853136">
        <ele>37.232169</ele>
        <time>2022-01-09T12:21:56.542Z</time>
      </trkpt>
      <trkpt lat="51.123827" lon="6.852758">
        <ele>37.405114</ele>
        <time>2022-01-09T12:22:06.395Z</time>
      </trkpt>
      <trkpt lat="51.124100" lon="6.852286">
        <ele>37.639400</ele>
        <time>2022-01-09T12:22:18.930Z</time>
      </trkpt>
      <trkpt lat="51.124195" lon="6.852185">
        <ele>37.705819</ele>
        <time>2022-01-09T12:22:22.349Z</time>
      </trkpt>
      <trkpt lat="51.125661" lon="6.850595">
        <ele>38.606789</ele>
        <time>2022-01-09T12:23:19.653Z</time>
      </trkpt>
      <trkpt lat="51.125871" lon="6.850123">
        <ele>38.756673</ele>
        <time>2022-01-09T12:23:30.858Z</time>
      </trkpt>
      <trkpt lat="51.125858" lon="6.849963">
        <ele>38.798468</ele>
        <time>2022-01-09T12:23:34.717Z</time>
      </trkpt>
      <trkpt lat="51.126088" lon="6.849864">
        <ele>38.896808</ele>
        <time>2022-01-09T12:23:40.211Z</time>
      </trkpt>
      <trkpt lat="51.126918" lon="6.849473">
        <ele>39.006928</ele>
        <time>2022-01-09T12:24:00.454Z</time>
      </trkpt>
      <trkpt lat="51.126947" lon="6.849442">
        <ele>39.005418</ele>
        <time>2022-01-09T12:24:01.214Z</time>
      </trkpt>
      <trkpt lat="51.127364" lon="6.848713">
        <ele>38.978645</ele>
        <time>2022-01-09T12:24:14.362Z</time>
      </trkpt>
      <trkpt lat="51.127891" lon="6.847901">
        <ele>38.972825</ele>
        <time>2022-01-09T12:24:30.565Z</time>
      </trkpt>
      <trkpt lat="51.128204" lon="6.847428">
        <ele>39.039832</ele>
        <time>2022-01-09T12:24:40.671Z</time>
      </trkpt>
      <trkpt lat="51.128582" lon="6.846517">
        <ele>39.146293</ele>
        <time>2022-01-09T12:24:57.270Z</time>
      </trkpt>
      <trkpt lat="51.128772" lon="6.846304">
        <ele>39.182378</ele>
        <time>2022-01-09T12:25:02.548Z</time>
      </trkpt>
      <trkpt lat="51.128809" lon="6.846189">
        <ele>39.194976</ele>
        <time>2022-01-09T12:25:04.339Z</time>
      </trkpt>
      <trkpt lat="51.128875" lon="6.846166">
        <ele>39.205470</ele>
        <time>2022-01-09T12:25:05.755Z</time>
      </trkpt>
      <trkpt lat="51.129580" lon="6.845874">
        <ele>39.085761</ele>
        <time>2022-01-09T12:25:21.299Z</time>
      </trkpt>
      <trkpt lat="51.129617" lon="6.845858">
        <ele>39.075714</ele>
        <time>2022-01-09T12:25:22.116Z</time>
      </trkpt>
      <trkpt lat="51.130398" lon="6.845342">
        <ele>38.854142</ele>
        <time>2022-01-09T12:25:39.840Z</time>
      </trkpt>
      <trkpt lat="51.131558" lon="6.844474">
        <ele>38.827154</ele>
        <time>2022-01-09T12:26:07.366Z</time>
      </trkpt>
      <trkpt lat="51.132989" lon="6.842711">
        <ele>38.848426</ele>
        <time>2022-01-09T12:26:49.992Z</time>
      </trkpt>
      <trkpt lat="51.133329" lon="6.842288">
        <ele>38.829205</ele>
        <time>2022-01-09T12:26:59.395Z</time>
      </trkpt>
      <trkpt lat="51.134553" lon="6.840591">
        <ele>38.098911</ele>
        <time>2022-01-09T12:27:32.108Z</time>
      </trkpt>
      <trkpt lat="51.135842" lon="6.838514">
        <ele>37.217557</ele>
        <time>2022-01-09T12:28:09.205Z</time>
      </trkpt>
      <trkpt lat="51.136783" lon="6.836948">
        <ele>37.081448</ele>
        <time>2022-01-09T12:28:39.119Z</time>
      </trkpt>
      <trkpt lat="51.136969" lon="6.836570">
        <ele>37.122371</ele>
        <time>2022-01-09T12:28:46.131Z</time>
      </trkpt>
      <trkpt lat="51.137255" lon="6.835780">
        <ele>37.200070</ele>
        <time>2022-01-09T12:28:59.548Z</time>
      </trkpt>
      <trkpt lat="51.138537" lon="6.831411">
        <ele>38.568590</ele>
        <time>2022-01-09T12:30:12.540Z</time>
      </trkpt>
      <trkpt lat="51.139007" lon="6.829841">
        <ele>39.031854</ele>
        <time>2022-01-09T12:30:38.791Z</time>
      </trkpt>
      <trkpt lat="51.139035" lon="6.829755">
        <ele>39.052871</ele>
        <time>2022-01-09T12:30:40.189Z</time>
      </trkpt>
      <trkpt lat="51.139325" lon="6.828862">
        <ele>39.270984</ele>
        <time>2022-01-09T12:30:54.772Z</time>
      </trkpt>
      <trkpt lat="51.139831" lon="6.827164">
        <ele>39.769488</ele>
        <time>2022-01-09T12:31:23.167Z</time>
      </trkpt>
      <trkpt lat="51.140123" lon="6.824469">
        <ele>40.464578</ele>
        <time>2022-01-09T12:32:05.422Z</time>
      </trkpt>
      <trkpt lat="51.140259" lon="6.823149">
        <ele>40.377526</ele>
        <time>2022-01-09T12:32:24.552Z</time>
      </trkpt>
      <trkpt lat="51.140358" lon="6.822411">
        <ele>40.328415</ele>
        <time>2022-01-09T12:32:34.156Z</time>
      </trkpt>
      <trkpt lat="51.140431" lon="6.821848">
        <ele>40.242553</ele>
        <time>2022-01-09T12:32:41.364Z</time>
      </trkpt>
      <trkpt lat="51.140609" lon="6.820779">
        <ele>40.034005</ele>
        <time>2022-01-09T12:32:55.344Z</time>
      </trkpt>
      <trkpt lat="51.140619" lon="6.820739">
        <ele>40.025886</ele>
        <time>2022-01-09T12:32:55.890Z</time>
      </trkpt>
      <trkpt lat="51.141245" lon="6.817372">
        <ele>39.946101</ele>
        <time>2022-01-09T12:33:45.881Z</time>
      </trkpt>
      <trkpt lat="51.141291" lon="6.817124">
        <ele>39.966223</ele>
        <time>2022-01-09T12:33:49.664Z</time>
      </trkpt>
      <trkpt lat="51.141306" lon="6.817047">
        <ele>39.972496</ele>
        <time>2022-01-09T12:33:50.796Z</time>
      </trkpt>
      <trkpt lat="51.141322" lon="6.816600">
        <ele>39.987772</ele>
        <time>2022-01-09T12:33:57.286Z</time>
      </trkpt>
      <trkpt lat="51.141186" lon="6.816015">
        <ele>39.921761</ele>
        <time>2022-01-09T12:34:06.172Z</time>
      </trkpt>
      <trkpt lat="51.141149" lon="6.815938">
        <ele>39.911499</ele>
        <time>2022-01-09T12:34:07.493Z</time>
      </trkpt>
      <trkpt lat="51.140994" lon="6.815603">
        <ele>39.867457</ele>
        <time>2022-01-09T12:34:13.317Z</time>
      </trkpt>
      <trkpt lat="51.140967" lon="6.815524">
        <ele>39.857938</ele>
        <time>2022-01-09T12:34:14.559Z</time>
      </trkpt>
      <trkpt lat="51.140891" lon="6.815302">
        <ele>39.831179</ele>
        <time>2022-01-09T12:34:18.027Z</time>
      </trkpt>
      <trkpt lat="51.140574" lon="6.814139">
        <ele>39.697012</ele>
        <time>2022-01-09T12:34:34.668Z</time>
      </trkpt>
      <trkpt lat="51.140203" lon="6.812909">
        <ele>39.254899</ele>
        <time>2022-01-09T12:34:51.509Z</time>
      </trkpt>
      <trkpt lat="51.139839" lon="6.811637">
        <ele>38.799225</ele>
        <time>2022-01-09T12:35:10.714Z</time>
      </trkpt>
      <trkpt lat="51.139868" lon="6.811594">
        <ele>38.778649</ele>
        <time>2022-01-09T12:35:12.126Z</time>
      </trkpt>
      <trkpt lat="51.139751" lon="6.811103">
        <ele>38.724337</ele>
        <time>2022-01-09T12:35:24.223Z</time>
      </trkpt>
      <trkpt lat="51.139584" lon="6.810516">
        <ele>38.673815</ele>
        <time>2022-01-09T12:35:38.890Z</time>
      </trkpt>
      <trkpt lat="51.139432" lon="6.809983">
        <ele>38.627921</ele>
        <time>2022-01-09T12:35:52.244Z</time>
      </trkpt>
      <trkpt lat="51.139203" lon="6.809190">
        <ele>38.559492</ele>
        <time>2022-01-09T12:36:12.450Z</time>
      </trkpt>
      <trkpt lat="51.138974" lon="6.808593">
        <ele>38.630243</ele>
        <time>2022-01-09T12:36:28.669Z</time>
      </trkpt>
      <trkpt lat="51.138208" lon="6.806848">
        <ele>39.118726</ele>
        <time>2022-01-09T12:37:19.740Z</time>
      </trkpt>
      <trkpt lat="51.138199" lon="6.806651">
        <ele>39.164032</ele>
        <time>2022-01-09T12:37:24.663Z</time>
      </trkpt>
      <trkpt lat="51.138163" lon="6.806574">
        <ele>39.186058</ele>
        <time>2022-01-09T12:37:26.907Z</time>
      </trkpt>
      <trkpt lat="51.138134" lon="6.806522">
        <ele>39.217699</ele>
        <time>2022-01-09T12:37:28.530Z</time>
      </trkpt>
      <trkpt lat="51.138080" lon="6.806500">
        <ele>39.278740</ele>
        <time>2022-01-09T12:37:30.619Z</time>
      </trkpt>
      <trkpt lat="51.138047" lon="6.806305">
        <ele>39.417526</ele>
        <time>2022-01-09T12:37:36.400Z</time>
      </trkpt>
      <trkpt lat="51.137423" lon="6.805082">
        <ele>40.500723</ele>
        <time>2022-01-09T12:38:17.488Z</time>
      </trkpt>
      <trkpt lat="51.137227" lon="6.804719">
        <ele>40.829812</ele>
        <time>2022-01-09T12:38:30.431Z</time>
      </trkpt>
      <trkpt lat="51.137067" lon="6.804596">
        <ele>41.024361</ele>
        <time>2022-01-09T12:38:38.754Z</time>
      </trkpt>
      <trkpt lat="51.136999" lon="6.804606">
        <ele>41.099150</ele>
        <time>2022-01-09T12:38:41.395Z</time>
      </trkpt>
      <trkpt lat="51.136977" lon="6.804562">
        <ele>41.137812</ele>
        <time>2022-01-09T12:38:42.332Z</time>
      </trkpt>
      <trkpt lat="51.136495" lon="6.803620">
        <ele>41.641238</ele>
        <time>2022-01-09T12:39:02.313Z</time>
      </trkpt>
      <trkpt lat="51.136414" lon="6.803444">
        <ele>41.729710</ele>
        <time>2022-01-09T12:39:05.896Z</time>
      </trkpt>
      <trkpt lat="51.136359" lon="6.803317">
        <ele>41.792259</ele>
        <time>2022-01-09T12:39:08.478Z</time>
      </trkpt>
      <trkpt lat="51.136156" lon="6.802851">
        <ele>42.022205</ele>
        <time>2022-01-09T12:39:17.500Z</time>
      </trkpt>
      <trkpt lat="51.135784" lon="6.802002">
        <ele>42.255267</ele>
        <time>2022-01-09T12:39:32.055Z</time>
      </trkpt>
      <trkpt lat="51.135726" lon="6.801864">
        <ele>42.214284</ele>
        <time>2022-01-09T12:39:34.315Z</time>
      </trkpt>
      <trkpt lat="51.135695" lon="6.801762">
        <ele>42.186320</ele>
        <time>2022-01-09T12:39:35.819Z</time>
      </trkpt>
      <trkpt lat="51.135833" lon="6.801683">
        <ele>42.128660</ele>
        <time>2022-01-09T12:39:38.927Z</time>
      </trkpt>
      <trkpt lat="51.136042" lon="6.801563">
        <ele>42.041304</ele>
        <time>2022-01-09T12:39:43.557Z</time>
      </trkpt>
      <trkpt lat="51.136221" lon="6.801463">
        <ele>41.966717</ele>
        <time>2022-01-09T12:39:47.483Z</time>
      </trkpt>
      <trkpt lat="51.137292" lon="6.800863">
        <ele>41.404037</ele>
        <time>2022-01-09T12:40:10.499Z</time>
      </trkpt>
      <trkpt lat="51.140628" lon="6.797952">
        <ele>38.043711</ele>
        <time>2022-01-09T12:41:24.505Z</time>
      </trkpt>
      <trkpt lat="51.140743" lon="6.797865">
        <ele>37.941214</ele>
        <time>2022-01-09T12:41:27.005Z</time>
      </trkpt>
      <trkpt lat="51.140825" lon="6.797798">
        <ele>37.867020</ele>
        <time>2022-01-09T12:41:28.782Z</time>
      </trkpt>
      <trkpt lat="51.140829" lon="6.797721">
        <ele>37.827988</ele>
        <time>2022-01-09T12:41:29.712Z</time>
      </trkpt>
      <trkpt lat="51.140855" lon="6.797644">
        <ele>37.783814</ele>
        <time>2022-01-09T12:41:30.699Z</time>
      </trkpt>
      <trkpt lat="51.141275" lon="6.797422">
        <ele>37.427529</ele>
        <time>2022-01-09T12:41:39.308Z</time>
      </trkpt>
      <trkpt lat="51.144108" lon="6.794978">
        <ele>36.145117</ele>
        <time>2022-01-09T12:42:46.176Z</time>
      </trkpt>
      <trkpt lat="51.144414" lon="6.794687">
        <ele>36.135467</ele>
        <time>2022-01-09T12:42:54.252Z</time>
      </trkpt>
      <trkpt lat="51.146503" lon="6.792573">
        <ele>36.785071</ele>
        <time>2022-01-09T12:43:52.912Z</time>
      </trkpt>
      <trkpt lat="51.147751" lon="6.791444">
        <ele>37.086291</ele>
        <time>2022-01-09T12:44:27.045Z</time>
      </trkpt>
      <trkpt lat="51.148644" lon="6.790676">
        <ele>36.969028</ele>
        <time>2022-01-09T12:44:48.428Z</time>
      </trkpt>
      <trkpt lat="51.148952" lon="6.790391">
        <ele>36.882620</ele>
        <time>2022-01-09T12:45:01.049Z</time>
      </trkpt>
      <trkpt lat="51.149605" lon="6.789762">
        <ele>36.733421</ele>
        <time>2022-01-09T12:45:16.897Z</time>
      </trkpt>
      <trkpt lat="51.150838" lon="6.788501">
        <ele>37.425991</ele>
        <time>2022-01-09T12:45:52.743Z</time>
      </trkpt>
      <trkpt lat="51.151312" lon="6.787828">
        <ele>37.597874</ele>
        <time>2022-01-09T12:46:08.990Z</time>
      </trkpt>
      <trkpt lat="51.151356" lon="6.787766">
        <ele>37.604201</ele>
        <time>2022-01-09T12:46:10.705Z</time>
      </trkpt>
      <trkpt lat="51.151401" lon="6.787831">
        <ele>37.610743</ele>
        <time>2022-01-09T12:46:12.001Z</time>
      </trkpt>
      <trkpt lat="51.151444" lon="6.787895">
        <ele>37.617082</ele>
        <time>2022-01-09T12:46:13.314Z</time>
      </trkpt>
      <trkpt lat="51.151536" lon="6.787736">
        <ele>37.631701</ele>
        <time>2022-01-09T12:46:16.428Z</time>
      </trkpt>
      <trkpt lat="51.152271" lon="6.788580">
        <ele>37.729297</ele>
        <time>2022-01-09T12:46:42.883Z</time>
      </trkpt>
      <trkpt lat="51.152585" lon="6.788949">
        <ele>37.618418</ele>
        <time>2022-01-09T12:46:53.594Z</time>
      </trkpt>
      <trkpt lat="51.156050" lon="6.789657">
        <ele>34.735929</ele>
        <time>2022-01-09T12:48:25.382Z</time>
      </trkpt>
      <trkpt lat="51.156072" lon="6.789665">
        <ele>34.742349</ele>
        <time>2022-01-09T12:48:25.995Z</time>
      </trkpt>
      <trkpt lat="51.156362" lon="6.789801">
        <ele>34.828360</ele>
        <time>2022-01-09T12:48:34.541Z</time>
      </trkpt>
      <trkpt lat="51.156769" lon="6.790216">
        <ele>34.965822</ele>
        <time>2022-01-09T12:48:48.945Z</time>
      </trkpt>
      <trkpt lat="51.157662" lon="6.790487">
        <ele>35.224472</ele>
        <time>2022-01-09T12:49:17.751Z</time>
      </trkpt>
      <trkpt lat="51.158463" lon="6.790736">
        <ele>36.346542</ele>
        <time>2022-01-09T12:49:46.497Z</time>
      </trkpt>
      <trkpt lat="51.159061" lon="6.790922">
        <ele>37.203672</ele>
        <time>2022-01-09T12:50:08.384Z</time>
      </trkpt>
      <trkpt lat="51.159423" lon="6.790872">
        <ele>37.714844</ele>
        <time>2022-01-09T12:50:21.343Z</time>
      </trkpt>
      <trkpt lat="51.160125" lon="6.790721">
        <ele>38.315663</ele>
        <time>2022-01-09T12:50:40.738Z</time>
      </trkpt>
      <trkpt lat="51.160216" lon="6.790694">
        <ele>38.391638</ele>
        <time>2022-01-09T12:50:43.156Z</time>
      </trkpt>
      <trkpt lat="51.160288" lon="6.790663">
        <ele>38.452852</ele>
        <time>2022-01-09T12:50:45.106Z</time>
      </trkpt>
      <trkpt lat="51.160423" lon="6.790587">
        <ele>38.570364</ele>
        <time>2022-01-09T12:50:48.776Z</time>
      </trkpt>
      <trkpt lat="51.160941" lon="6.790259">
        <ele>39.027835</ele>
        <time>2022-01-09T12:51:02.353Z</time>
      </trkpt>
      <trkpt lat="51.160965" lon="6.790245">
        <ele>39.048811</ele>
        <time>2022-01-09T12:51:02.945Z</time>
      </trkpt>
      <trkpt lat="51.160998" lon="6.790226">
        <ele>39.077609</ele>
        <time>2022-01-09T12:51:03.745Z</time>
      </trkpt>
      <trkpt lat="51.161421" lon="6.790046">
        <ele>39.279696</ele>
        <time>2022-01-09T12:51:13.566Z</time>
      </trkpt>
      <trkpt lat="51.161826" lon="6.789863">
        <ele>39.352462</ele>
        <time>2022-01-09T12:51:22.821Z</time>
      </trkpt>
      <trkpt lat="51.161882" lon="6.789827">
        <ele>39.362900</ele>
        <time>2022-01-09T12:51:24.154Z</time>
      </trkpt>
      <trkpt lat="51.162060" lon="6.789714">
        <ele>39.396019</ele>
        <time>2022-01-09T12:51:28.445Z</time>
      </trkpt>
      <trkpt lat="51.162295" lon="6.789516">
        <ele>39.441964</ele>
        <time>2022-01-09T12:51:34.482Z</time>
      </trkpt>
      <trkpt lat="51.162445" lon="6.789390">
        <ele>39.471271</ele>
        <time>2022-01-09T12:51:38.394Z</time>
      </trkpt>
      <trkpt lat="51.162554" lon="6.789300">
        <ele>39.492490</ele>
        <time>2022-01-09T12:51:41.239Z</time>
      </trkpt>
      <trkpt lat="51.162580" lon="6.789279">
        <ele>39.497528</ele>
        <time>2022-01-09T12:51:41.911Z</time>
      </trkpt>
      <trkpt lat="51.162718" lon="6.789167">
        <ele>39.524295</ele>
        <time>2022-01-09T12:51:45.615Z</time>
      </trkpt>
      <trkpt lat="51.162831" lon="6.789103">
        <ele>39.545024</ele>
        <time>2022-01-09T12:51:48.368Z</time>
      </trkpt>
      <trkpt lat="51.162893" lon="6.789060">
        <ele>39.575097</ele>
        <time>2022-01-09T12:51:49.938Z</time>
      </trkpt>
      <trkpt lat="51.163416" lon="6.788599">
        <ele>39.914303</ele>
        <time>2022-01-09T12:52:04.133Z</time>
      </trkpt>
      <trkpt lat="51.163536" lon="6.788427">
        <ele>40.005891</ele>
        <time>2022-01-09T12:52:08.086Z</time>
      </trkpt>
      <trkpt lat="51.163909" lon="6.787858">
        <ele>40.298894</ele>
        <time>2022-01-09T12:52:21.203Z</time>
      </trkpt>
      <trkpt lat="51.163933" lon="6.787822">
        <ele>40.317597</ele>
        <time>2022-01-09T12:52:22.032Z</time>
      </trkpt>
      <trkpt lat="51.164397" lon="6.787124">
        <ele>40.576249</ele>
        <time>2022-01-09T12:52:38.217Z</time>
      </trkpt>
      <trkpt lat="51.164566" lon="6.786877">
        <ele>40.584080</ele>
        <time>2022-01-09T12:52:43.699Z</time>
      </trkpt>
      <trkpt lat="51.164595" lon="6.786834">
        <ele>40.585433</ele>
        <time>2022-01-09T12:52:44.653Z</time>
      </trkpt>
      <trkpt lat="51.165222" lon="6.785939">
        <ele>40.614177</ele>
        <time>2022-01-09T12:53:03.291Z</time>
      </trkpt>
      <trkpt lat="51.166047" lon="6.784919">
        <ele>40.283453</ele>
        <time>2022-01-09T12:53:24.755Z</time>
      </trkpt>
      <trkpt lat="51.166452" lon="6.784422">
        <ele>39.960158</ele>
        <time>2022-01-09T12:53:35.026Z</time>
      </trkpt>
      <trkpt lat="51.166784" lon="6.784025">
        <ele>39.697637</ele>
        <time>2022-01-09T12:53:43.304Z</time>
      </trkpt>
      <trkpt lat="51.166830" lon="6.783963">
        <ele>39.659534</ele>
        <time>2022-01-09T12:53:44.528Z</time>
      </trkpt>
      <trkpt lat="51.167090" lon="6.783601">
        <ele>39.444354</ele>
        <time>2022-01-09T12:53:51.399Z</time>
      </trkpt>
      <trkpt lat="51.167284" lon="6.783279">
        <ele>39.278018</ele>
        <time>2022-01-09T12:53:56.988Z</time>
      </trkpt>
      <trkpt lat="51.167408" lon="6.783294">
        <ele>39.204145</ele>
        <time>2022-01-09T12:54:01.365Z</time>
      </trkpt>
      <trkpt lat="51.167456" lon="6.783127">
        <ele>39.135715</ele>
        <time>2022-01-09T12:54:05.316Z</time>
      </trkpt>
      <trkpt lat="51.168731" lon="6.780777">
        <ele>38.023542</ele>
        <time>2022-01-09T12:55:13.600Z</time>
      </trkpt>
      <trkpt lat="51.170091" lon="6.778118">
        <ele>37.121637</ele>
        <time>2022-01-09T12:55:57.828Z</time>
      </trkpt>
      <trkpt lat="51.170368" lon="6.778400">
        <ele>37.019550</ele>
        <time>2022-01-09T12:56:05.001Z</time>
      </trkpt>
      <trkpt lat="51.171672" lon="6.778077">
        <ele>36.902861</ele>
        <time>2022-01-09T12:56:34.309Z</time>
      </trkpt>
      <trkpt lat="51.172354" lon="6.778618">
        <ele>36.900324</ele>
        <time>2022-01-09T12:56:51.330Z</time>
      </trkpt>
      <trkpt lat="51.172526" lon="6.778756">
        <ele>36.901258</ele>
        <time>2022-01-09T12:56:55.617Z</time>
      </trkpt>
      <trkpt lat="51.172760" lon="6.778951">
        <ele>36.904166</ele>
        <time>2022-01-09T12:57:01.624Z</time>
      </trkpt>
      <trkpt lat="51.173656" lon="6.779728">
        <ele>36.915397</ele>
        <time>2022-01-09T12:57:24.220Z</time>
      </trkpt>
      <trkpt lat="51.173879" lon="6.779772">
        <ele>36.917871</ele>
        <time>2022-01-09T12:57:29.156Z</time>
      </trkpt>
      <trkpt lat="51.174143" lon="6.779604">
        <ele>36.939396</ele>
        <time>2022-01-09T12:57:35.542Z</time>
      </trkpt>
      <trkpt lat="51.174160" lon="6.779589">
        <ele>36.943046</ele>
        <time>2022-01-09T12:57:35.989Z</time>
      </trkpt>
      <trkpt lat="51.174135" lon="6.779301">
        <ele>36.977295</ele>
        <time>2022-01-09T12:57:40.022Z</time>
      </trkpt>
      <trkpt lat="51.174254" lon="6.778535">
        <ele>37.070254</ele>
        <time>2022-01-09T12:57:51.440Z</time>
      </trkpt>
      <trkpt lat="51.174540" lon="6.777907">
        <ele>37.161685</ele>
        <time>2022-01-09T12:58:02.745Z</time>
      </trkpt>
      <trkpt lat="51.174610" lon="6.776189">
        <ele>37.537964</ele>
        <time>2022-01-09T12:58:27.994Z</time>
      </trkpt>
      <trkpt lat="51.174780" lon="6.775303">
        <ele>37.824579</ele>
        <time>2022-01-09T12:58:42.357Z</time>
      </trkpt>
      <trkpt lat="51.174865" lon="6.775221">
        <ele>37.873592</ele>
        <time>2022-01-09T12:58:44.808Z</time>
      </trkpt>
      <trkpt lat="51.176096" lon="6.774757">
        <ele>38.255964</ele>
        <time>2022-01-09T12:59:15.456Z</time>
      </trkpt>
      <trkpt lat="51.176981" lon="6.774387">
        <ele>38.397789</ele>
        <time>2022-01-09T12:59:36.121Z</time>
      </trkpt>
      <trkpt lat="51.177966" lon="6.774161">
        <ele>37.966995</ele>
        <time>2022-01-09T12:59:56.729Z</time>
      </trkpt>
      <trkpt lat="51.178976" lon="6.774081">
        <ele>37.401135</ele>
        <time>2022-01-09T13:00:16.964Z</time>
      </trkpt>
      <trkpt lat="51.179709" lon="6.774112">
        <ele>36.877980</ele>
        <time>2022-01-09T13:00:31.580Z</time>
      </trkpt>
      <trkpt lat="51.180797" lon="6.774278">
        <ele>36.095991</ele>
        <time>2022-01-09T13:00:53.341Z</time>
      </trkpt>
      <trkpt lat="51.185429" lon="6.775341">
        <ele>32.940988</ele>
        <time>2022-01-09T13:02:26.409Z</time>
      </trkpt>
      <trkpt lat="51.187329" lon="6.775796">
        <ele>32.430928</ele>
        <time>2022-01-09T13:03:09.571Z</time>
      </trkpt>
      <trkpt lat="51.187482" lon="6.775847">
        <ele>32.404271</ele>
        <time>2022-01-09T13:03:14.913Z</time>
      </trkpt>
      <trkpt lat="51.187522" lon="6.775991">
        <ele>32.387434</ele>
        <time>2022-01-09T13:03:17.278Z</time>
      </trkpt>
      <trkpt lat="51.187812" lon="6.776212">
        <ele>32.304965</ele>
        <time>2022-01-09T13:03:25.962Z</time>
      </trkpt>
      <trkpt lat="51.187784" lon="6.776261">
        <ele>32.274287</ele>
        <time>2022-01-09T13:03:26.852Z</time>
      </trkpt>
      <trkpt lat="51.187455" lon="6.776180">
        <ele>32.028552</ele>
        <time>2022-01-09T13:03:35.817Z</time>
      </trkpt>
      <trkpt lat="51.187373" lon="6.776164">
        <ele>31.967570</ele>
        <time>2022-01-09T13:03:37.589Z</time>
      </trkpt>
      <trkpt lat="51.187335" lon="6.776035">
        <ele>31.901622</ele>
        <time>2022-01-09T13:03:40.412Z</time>
      </trkpt>
      <trkpt lat="51.187279" lon="6.776059">
        <ele>31.858819</ele>
        <time>2022-01-09T13:03:42.084Z</time>
      </trkpt>
      <trkpt lat="51.187242" lon="6.775791">
        <ele>31.731850</ele>
        <time>2022-01-09T13:03:45.519Z</time>
      </trkpt>
      <trkpt lat="51.187269" lon="6.775011">
        <ele>31.370415</ele>
        <time>2022-01-09T13:03:56.063Z</time>
      </trkpt>
      <trkpt lat="51.187053" lon="6.774670">
        <ele>31.146105</ele>
        <time>2022-01-09T13:04:01.470Z</time>
      </trkpt>
      <trkpt lat="51.186906" lon="6.773866">
        <ele>31.123035</ele>
        <time>2022-01-09T13:04:11.631Z</time>
      </trkpt>
      <trkpt lat="51.186769" lon="6.773103">
        <ele>31.281430</ele>
        <time>2022-01-09T13:04:23.906Z</time>
      </trkpt>
      <trkpt lat="51.186747" lon="6.772995">
        <ele>31.304094</ele>
        <time>2022-01-09T13:04:25.742Z</time>
      </trkpt>
      <trkpt lat="51.186534" lon="6.771898">
        <ele>31.533285</ele>
        <time>2022-01-09T13:04:44.460Z</time>
      </trkpt>
      <trkpt lat="51.186528" lon="6.771868">
        <ele>31.539570</ele>
        <time>2022-01-09T13:04:44.966Z</time>
      </trkpt>
      <trkpt lat="51.186355" lon="6.770946">
        <ele>31.581891</ele>
        <time>2022-01-09T13:05:00.552Z</time>
      </trkpt>
      <trkpt lat="51.186015" lon="6.769466">
        <ele>31.573228</ele>
        <time>2022-01-09T13:05:21.396Z</time>
      </trkpt>
      <trkpt lat="51.185898" lon="6.768974">
        <ele>31.570335</ele>
        <time>2022-01-09T13:05:28.055Z</time>
      </trkpt>
      <trkpt lat="51.185892" lon="6.768941">
        <ele>31.570147</ele>
        <time>2022-01-09T13:05:28.490Z</time>
      </trkpt>
      <trkpt lat="51.185820" lon="6.768704">
        <ele>31.496174</ele>
        <time>2022-01-09T13:05:31.882Z</time>
      </trkpt>
      <trkpt lat="51.185735" lon="6.768472">
        <ele>31.419988</ele>
        <time>2022-01-09T13:05:35.305Z</time>
      </trkpt>
      <trkpt lat="51.185335" lon="6.767447">
        <ele>31.077672</ele>
        <time>2022-01-09T13:05:50.832Z</time>
      </trkpt>
      <trkpt lat="51.185156" lon="6.766854">
        <ele>30.891071</ele>
        <time>2022-01-09T13:05:59.243Z</time>
      </trkpt>
      <trkpt lat="51.184987" lon="6.766104">
        <ele>30.764571</ele>
        <time>2022-01-09T13:06:09.701Z</time>
      </trkpt>
      <trkpt lat="51.184658" lon="6.764469">
        <ele>30.807063</ele>
        <time>2022-01-09T13:06:34.012Z</time>
      </trkpt>
      <trkpt lat="51.184623" lon="6.763620">
        <ele>30.833387</ele>
        <time>2022-01-09T13:06:46.221Z</time>
      </trkpt>
      <trkpt lat="51.184548" lon="6.761550">
        <ele>31.401410</ele>
        <time>2022-01-09T13:07:17.069Z</time>
      </trkpt>
      <trkpt lat="51.184420" lon="6.759175">
        <ele>32.508693</ele>
        <time>2022-01-09T13:07:54.901Z</time>
      </trkpt>
      <trkpt lat="51.184406" lon="6.758942">
        <ele>32.638904</ele>
        <time>2022-01-09T13:07:58.849Z</time>
      </trkpt>
      <trkpt lat="51.184384" lon="6.758588">
        <ele>32.836797</ele>
        <time>2022-01-09T13:08:04.773Z</time>
      </trkpt>
      <trkpt lat="51.184372" lon="6.758411">
        <ele>32.935836</ele>
        <time>2022-01-09T13:08:07.740Z</time>
      </trkpt>
      <trkpt lat="51.184353" lon="6.758072">
        <ele>33.125172</ele>
        <time>2022-01-09T13:08:13.377Z</time>
      </trkpt>
      <trkpt lat="51.184327" lon="6.757568">
        <ele>33.358624</ele>
        <time>2022-01-09T13:08:21.669Z</time>
      </trkpt>
      <trkpt lat="51.184269" lon="6.756725">
        <ele>33.715481</ele>
        <time>2022-01-09T13:08:35.259Z</time>
      </trkpt>
      <trkpt lat="51.184245" lon="6.756441">
        <ele>33.836067</ele>
        <time>2022-01-09T13:08:39.848Z</time>
      </trkpt>
      <trkpt lat="51.184202" lon="6.755933">
        <ele>34.051769</ele>
        <time>2022-01-09T13:08:47.713Z</time>
      </trkpt>
      <trkpt lat="51.183923" lon="6.752481">
        <ele>34.798394</ele>
        <time>2022-01-09T13:09:39.590Z</time>
      </trkpt>
      <trkpt lat="51.183931" lon="6.751282">
        <ele>34.600412</ele>
        <time>2022-01-09T13:09:54.802Z</time>
      </trkpt>
      <trkpt lat="51.183998" lon="6.750147">
        <ele>34.315045</ele>
        <time>2022-01-09T13:10:09.736Z</time>
      </trkpt>
      <trkpt lat="51.184135" lon="6.749063">
        <ele>34.086723</ele>
        <time>2022-01-09T13:10:24.194Z</time>
      </trkpt>
      <trkpt lat="51.184171" lon="6.748867">
        <ele>34.066778</ele>
        <time>2022-01-09T13:10:26.806Z</time>
      </trkpt>
      <trkpt lat="51.184422" lon="6.747769">
        <ele>33.952650</ele>
        <time>2022-01-09T13:10:41.800Z</time>
      </trkpt>
      <trkpt lat="51.185071" lon="6.745443">
        <ele>33.934380</ele>
        <time>2022-01-09T13:11:19.096Z</time>
      </trkpt>
      <trkpt lat="51.185752" lon="6.743200">
        <ele>34.033041</ele>
        <time>2022-01-09T13:11:53.689Z</time>
      </trkpt>
      <trkpt lat="51.185854" lon="6.742943">
        <ele>34.030650</ele>
        <time>2022-01-09T13:11:57.729Z</time>
      </trkpt>
      <trkpt lat="51.186225" lon="6.742076">
        <ele>34.022399</ele>
        <time>2022-01-09T13:12:12.118Z</time>
      </trkpt>
      <trkpt lat="51.186235" lon="6.742053">
        <ele>34.022179</ele>
        <time>2022-01-09T13:12:12.498Z</time>
      </trkpt>
      <trkpt lat="51.186766" lon="6.741028">
        <ele>34.197834</ele>
        <time>2022-01-09T13:12:31.925Z</time>
      </trkpt>
      <trkpt lat="51.187856" lon="6.739444">
        <ele>34.708700</ele>
        <time>2022-01-09T13:13:06.872Z</time>
      </trkpt>
      <trkpt lat="51.188800" lon="6.738490">
        <ele>35.111534</ele>
        <time>2022-01-09T13:13:34.489Z</time>
      </trkpt>
      <trkpt lat="51.189609" lon="6.737844">
        <ele>35.085032</ele>
        <time>2022-01-09T13:13:54.876Z</time>
      </trkpt>
      <trkpt lat="51.190662" lon="6.737268">
        <ele>34.553212</ele>
        <time>2022-01-09T13:14:17.375Z</time>
      </trkpt>
      <trkpt lat="51.191412" lon="6.737013">
        <ele>34.116990</ele>
        <time>2022-01-09T13:14:32.216Z</time>
      </trkpt>
      <trkpt lat="51.191740" lon="6.736901">
        <ele>33.910061</ele>
        <time>2022-01-09T13:14:38.725Z</time>
      </trkpt>
      <trkpt lat="51.191872" lon="6.736874">
        <ele>33.827962</ele>
        <time>2022-01-09T13:14:41.321Z</time>
      </trkpt>
      <trkpt lat="51.196795" lon="6.736447">
        <ele>33.148999</ele>
        <time>2022-01-09T13:16:26.763Z</time>
      </trkpt>
      <trkpt lat="51.196944" lon="6.736433">
        <ele>33.314166</ele>
        <time>2022-01-09T13:16:30.768Z</time>
      </trkpt>
      <trkpt lat="51.197253" lon="6.736408">
        <ele>33.656540</ele>
        <time>2022-01-09T13:16:40.178Z</time>
      </trkpt>
      <trkpt lat="51.198014" lon="6.736345">
        <ele>34.499783</ele>
        <time>2022-01-09T13:17:02.384Z</time>
      </trkpt>
      <trkpt lat="51.198163" lon="6.736325">
        <ele>34.630384</ele>
        <time>2022-01-09T13:17:06.778Z</time>
      </trkpt>
      <trkpt lat="51.198206" lon="6.736320">
        <ele>34.658429</ele>
        <time>2022-01-09T13:17:08.011Z</time>
      </trkpt>
      <trkpt lat="51.198670" lon="6.736268">
        <ele>34.960995</ele>
        <time>2022-01-09T13:17:20.810Z</time>
      </trkpt>
      <trkpt lat="51.198805" lon="6.736237">
        <ele>35.049714</ele>
        <time>2022-01-09T13:17:24.591Z</time>
      </trkpt>
      <trkpt lat="51.200915" lon="6.735776">
        <ele>35.630106</ele>
        <time>2022-01-09T13:18:12.717Z</time>
      </trkpt>
      <trkpt lat="51.201193" lon="6.735774">
        <ele>35.598255</ele>
        <time>2022-01-09T13:18:18.347Z</time>
      </trkpt>
      <trkpt lat="51.201192" lon="6.735881">
        <ele>35.590573</ele>
        <time>2022-01-09T13:18:19.616Z</time>
      </trkpt>
      <trkpt lat="51.201269" lon="6.735880">
        <ele>35.581751</ele>
        <time>2022-01-09T13:18:21.331Z</time>
      </trkpt>
      <trkpt lat="51.201304" lon="6.735765">
        <ele>35.572573</ele>
        <time>2022-01-09T13:18:23.019Z</time>
      </trkpt>
      <trkpt lat="51.201298" lon="6.735722">
        <ele>35.569411</ele>
        <time>2022-01-09T13:18:23.602Z</time>
      </trkpt>
      <trkpt lat="51.201353" lon="6.735671">
        <ele>35.562123</ele>
        <time>2022-01-09T13:18:24.894Z</time>
      </trkpt>
      <trkpt lat="51.201931" lon="6.735077">
        <ele>35.842501</ele>
        <time>2022-01-09T13:18:40.035Z</time>
      </trkpt>
      <trkpt lat="51.202657" lon="6.734624">
        <ele>36.277137</ele>
        <time>2022-01-09T13:19:00.157Z</time>
      </trkpt>
      <trkpt lat="51.202860" lon="6.734507">
        <ele>36.397479</ele>
        <time>2022-01-09T13:19:05.432Z</time>
      </trkpt>
      <trkpt lat="51.202944" lon="6.734501">
        <ele>36.444362</ele>
        <time>2022-01-09T13:19:07.541Z</time>
      </trkpt>
      <trkpt lat="51.203000" lon="6.734518">
        <ele>36.476146</ele>
        <time>2022-01-09T13:19:09.062Z</time>
      </trkpt>
      <trkpt lat="51.203732" lon="6.735573">
        <ele>37.134723</ele>
        <time>2022-01-09T13:19:35.580Z</time>
      </trkpt>
      <trkpt lat="51.203908" lon="6.735798">
        <ele>37.288996</ele>
        <time>2022-01-09T13:19:41.547Z</time>
      </trkpt>
      <trkpt lat="51.204042" lon="6.735873">
        <ele>37.386145</ele>
        <time>2022-01-09T13:19:45.138Z</time>
      </trkpt>
      <trkpt lat="51.204135" lon="6.735905">
        <ele>37.451232</ele>
        <time>2022-01-09T13:19:47.567Z</time>
      </trkpt>
      <trkpt lat="51.204397" lon="6.736285">
        <ele>37.693432</ele>
        <time>2022-01-09T13:19:55.939Z</time>
      </trkpt>
      <trkpt lat="51.204482" lon="6.736408">
        <ele>37.771927</ele>
        <time>2022-01-09T13:19:58.494Z</time>
      </trkpt>
      <trkpt lat="51.206001" lon="6.735070">
        <ele>36.789985</ele>
        <time>2022-01-09T13:20:33.261Z</time>
      </trkpt>
      <trkpt lat="51.206187" lon="6.734908">
        <ele>36.612876</ele>
        <time>2022-01-09T13:20:37.476Z</time>
      </trkpt>
      <trkpt lat="51.206532" lon="6.734610">
        <ele>36.231198</ele>
        <time>2022-01-09T13:20:45.088Z</time>
      </trkpt>
      <trkpt lat="51.207122" lon="6.734099">
        <ele>35.578076</ele>
        <time>2022-01-09T13:20:57.649Z</time>
      </trkpt>
      <trkpt lat="51.207147" lon="6.734079">
        <ele>35.550867</ele>
        <time>2022-01-09T13:20:58.172Z</time>
      </trkpt>
      <trkpt lat="51.207233" lon="6.734006">
        <ele>35.456095</ele>
        <time>2022-01-09T13:21:00.015Z</time>
      </trkpt>
      <trkpt lat="51.207267" lon="6.733964">
        <ele>35.414264</ele>
        <time>2022-01-09T13:21:00.904Z</time>
      </trkpt>
      <trkpt lat="51.207665" lon="6.733590">
        <ele>34.984834</ele>
        <time>2022-01-09T13:21:10.173Z</time>
      </trkpt>
      <trkpt lat="51.208190" lon="6.733210">
        <ele>34.757382</ele>
        <time>2022-01-09T13:21:21.586Z</time>
      </trkpt>
      <trkpt lat="51.208292" lon="6.733151">
        <ele>34.714574</ele>
        <time>2022-01-09T13:21:23.729Z</time>
      </trkpt>
      <trkpt lat="51.209984" lon="6.732410">
        <ele>34.359521</ele>
        <time>2022-01-09T13:22:01.807Z</time>
      </trkpt>
      <trkpt lat="51.210378" lon="6.732211">
        <ele>34.402832</ele>
        <time>2022-01-09T13:22:18.381Z</time>
      </trkpt>
      <trkpt lat="51.210731" lon="6.732023">
        <ele>34.441834</ele>
        <time>2022-01-09T13:22:27.406Z</time>
      </trkpt>
      <trkpt lat="51.214449" lon="6.730056">
        <ele>33.175735</ele>
        <time>2022-01-09T13:23:49.130Z</time>
      </trkpt>
      <trkpt lat="51.214903" lon="6.729862">
        <ele>33.052899</ele>
        <time>2022-01-09T13:23:59.489Z</time>
      </trkpt>
      <trkpt lat="51.216051" lon="6.729565">
        <ele>32.753890</ele>
        <time>2022-01-09T13:24:23.689Z</time>
      </trkpt>
      <trkpt lat="51.216681" lon="6.729371">
        <ele>32.781524</ele>
        <time>2022-01-09T13:24:37.688Z</time>
      </trkpt>
      <trkpt lat="51.217395" lon="6.729257">
        <ele>32.899079</ele>
        <time>2022-01-09T13:24:53.914Z</time>
      </trkpt>
      <trkpt lat="51.218093" lon="6.729153">
        <ele>33.105324</ele>
        <time>2022-01-09T13:25:10.237Z</time>
      </trkpt>
      <trkpt lat="51.219271" lon="6.729096">
        <ele>34.688309</ele>
        <time>2022-01-09T13:25:43.107Z</time>
      </trkpt>
      <trkpt lat="51.221239" lon="6.729244">
        <ele>37.734626</ele>
        <time>2022-01-09T13:26:40.179Z</time>
      </trkpt>
      <trkpt lat="51.221807" lon="6.729403">
        <ele>38.562201</ele>
        <time>2022-01-09T13:26:56.518Z</time>
      </trkpt>
      <trkpt lat="51.222538" lon="6.730059">
        <ele>39.480670</ele>
        <time>2022-01-09T13:27:19.733Z</time>
      </trkpt>
      <trkpt lat="51.222870" lon="6.730464">
        <ele>39.938297</ele>
        <time>2022-01-09T13:27:30.755Z</time>
      </trkpt>
      <trkpt lat="51.223155" lon="6.730965">
        <ele>40.266451</ele>
        <time>2022-01-09T13:27:41.283Z</time>
      </trkpt>
      <trkpt lat="51.223546" lon="6.731956">
        <ele>39.924668</ele>
        <time>2022-01-09T13:27:57.601Z</time>
      </trkpt>
      <trkpt lat="51.223686" lon="6.732551">
        <ele>39.739194</ele>
        <time>2022-01-09T13:28:05.727Z</time>
      </trkpt>
      <trkpt lat="51.223768" lon="6.733252">
        <ele>39.531101</ele>
        <time>2022-01-09T13:28:14.278Z</time>
      </trkpt>
      <trkpt lat="51.223845" lon="6.734584">
        <ele>38.494700</ele>
        <time>2022-01-09T13:28:29.281Z</time>
      </trkpt>
      <trkpt lat="51.223782" lon="6.735305">
        <ele>37.864184</ele>
        <time>2022-01-09T13:28:37.594Z</time>
      </trkpt>
      <trkpt lat="51.223623" lon="6.736075">
        <ele>37.161960</ele>
        <time>2022-01-09T13:28:47.127Z</time>
      </trkpt>
      <trkpt lat="51.223590" lon="6.736159">
        <ele>37.076077</ele>
        <time>2022-01-09T13:28:48.775Z</time>
      </trkpt>
      <trkpt lat="51.223365" lon="6.736719">
        <ele>36.858011</ele>
        <time>2022-01-09T13:28:59.947Z</time>
      </trkpt>
      <trkpt lat="51.223298" lon="6.737061">
        <ele>36.778395</ele>
        <time>2022-01-09T13:29:06.034Z</time>
      </trkpt>
      <trkpt lat="51.223283" lon="6.737260">
        <ele>36.733862</ele>
        <time>2022-01-09T13:29:09.529Z</time>
      </trkpt>
      <trkpt lat="51.223079" lon="6.737973">
        <ele>36.559699</ele>
        <time>2022-01-09T13:29:23.241Z</time>
      </trkpt>
      <trkpt lat="51.222958" lon="6.738393">
        <ele>36.456984</ele>
        <time>2022-01-09T13:29:31.748Z</time>
      </trkpt>
      <trkpt lat="51.222910" lon="6.738554">
        <ele>36.417366</ele>
        <time>2022-01-09T13:29:35.156Z</time>
      </trkpt>
      <trkpt lat="51.223101" lon="6.738715">
        <ele>36.343166</ele>
        <time>2022-01-09T13:29:41.685Z</time>
      </trkpt>
      <trkpt lat="51.222302" lon="6.742700">
        <ele>36.033921</ele>
        <time>2022-01-09T13:30:57.697Z</time>
      </trkpt>
      <trkpt lat="51.221853" lon="6.744782">
        <ele>35.540552</ele>
        <time>2022-01-09T13:31:35.960Z</time>
      </trkpt>
      <trkpt lat="51.221651" lon="6.745491">
        <ele>35.271781</ele>
        <time>2022-01-09T13:31:49.189Z</time>
      </trkpt>
      <trkpt lat="51.221484" lon="6.745996">
        <ele>35.074726</ele>
        <time>2022-01-09T13:31:58.872Z</time>
      </trkpt>
      <trkpt lat="51.221343" lon="6.746388">
        <ele>34.918741</ele>
        <time>2022-01-09T13:32:06.677Z</time>
      </trkpt>
      <trkpt lat="51.220860" lon="6.747646">
        <ele>34.478798</ele>
        <time>2022-01-09T13:32:31.807Z</time>
      </trkpt>
      <trkpt lat="51.219756" lon="6.750536">
        <ele>32.874398</ele>
        <time>2022-01-09T13:33:30.868Z</time>
      </trkpt>
      <trkpt lat="51.219571" lon="6.750981">
        <ele>32.501948</ele>
        <time>2022-01-09T13:33:39.206Z</time>
      </trkpt>
      <trkpt lat="51.219401" lon="6.751346">
        <ele>32.184760</ele>
        <time>2022-01-09T13:33:46.089Z</time>
      </trkpt>
      <trkpt lat="51.219313" lon="6.751530">
        <ele>32.023321</ele>
        <time>2022-01-09T13:33:49.499Z</time>
      </trkpt>
      <trkpt lat="51.219171" lon="6.751834">
        <ele>31.631762</ele>
        <time>2022-01-09T13:33:55.199Z</time>
      </trkpt>
      <trkpt lat="51.219099" lon="6.751997">
        <ele>31.408745</ele>
        <time>2022-01-09T13:33:58.121Z</time>
      </trkpt>
      <trkpt lat="51.218926" lon="6.752429">
        <ele>30.835427</ele>
        <time>2022-01-09T13:34:05.742Z</time>
      </trkpt>
      <trkpt lat="51.218825" lon="6.752675">
        <ele>30.506542</ele>
        <time>2022-01-09T13:34:10.100Z</time>
      </trkpt>
      <trkpt lat="51.218595" lon="6.753309">
        <ele>29.687329</ele>
        <time>2022-01-09T13:34:21.029Z</time>
      </trkpt>
      <trkpt lat="51.218551" lon="6.753501">
        <ele>29.458730</ele>
        <time>2022-01-09T13:34:24.117Z</time>
      </trkpt>
      <trkpt lat="51.218362" lon="6.754814">
        <ele>28.840848</ele>
        <time>2022-01-09T13:34:40.509Z</time>
      </trkpt>
      <trkpt lat="51.218371" lon="6.755797">
        <ele>28.952880</ele>
        <time>2022-01-09T13:34:54.682Z</time>
      </trkpt>
      <trkpt lat="51.218419" lon="6.756237">
        <ele>29.003776</ele>
        <time>2022-01-09T13:35:01.992Z</time>
      </trkpt>
      <trkpt lat="51.217709" lon="6.757192">
        <ele>29.688819</ele>
        <time>2022-01-09T13:35:40.732Z</time>
      </trkpt>
      <trkpt lat="51.218119" lon="6.758611">
        <ele>30.926137</ele>
        <time>2022-01-09T13:36:05.986Z</time>
      </trkpt>
      <trkpt lat="51.218148" lon="6.758678">
        <ele>30.990621</ele>
        <time>2022-01-09T13:36:07.670Z</time>
      </trkpt>
      <trkpt lat="51.218246" lon="6.759025">
        <ele>31.292005</ele>
        <time>2022-01-09T13:36:15.909Z</time>
      </trkpt>
      <trkpt lat="51.218519" lon="6.760231">
        <ele>33.665165</ele>
        <time>2022-01-09T13:36:48.151Z</time>
      </trkpt>
      <trkpt lat="51.218524" lon="6.760451">
        <ele>34.089192</ele>
        <time>2022-01-09T13:36:53.844Z</time>
      </trkpt>
      <trkpt lat="51.218285" lon="6.760953">
        <ele>35.303732</ele>
        <time>2022-01-09T13:37:10.825Z</time>
      </trkpt>
      <trkpt lat="51.218215" lon="6.761105">
        <ele>35.667124</ele>
        <time>2022-01-09T13:37:15.950Z</time>
      </trkpt>
      <trkpt lat="51.218207" lon="6.761116">
        <ele>35.699592</ele>
        <time>2022-01-09T13:37:16.498Z</time>
      </trkpt>
      <trkpt lat="51.218355" lon="6.761485">
        <ele>36.543569</ele>
        <time>2022-01-09T13:37:29.205Z</time>
      </trkpt>
      <trkpt lat="51.218372" lon="6.761606">
        <ele>36.782423</ele>
        <time>2022-01-09T13:37:32.642Z</time>
      </trkpt>
      <trkpt lat="51.218333" lon="6.761933">
        <ele>37.288256</ele>
        <time>2022-01-09T13:37:42.543Z</time>
      </trkpt>
      <trkpt lat="51.218041" lon="6.762145">
        <ele>38.024181</ele>
        <time>2022-01-09T13:37:56.575Z</time>
      </trkpt>
      <trkpt lat="51.217876" lon="6.762170">
        <ele>38.404426</ele>
        <time>2022-01-09T13:38:02.917Z</time>
      </trkpt>
      <trkpt lat="51.217862" lon="6.762377">
        <ele>38.703615</ele>
        <time>2022-01-09T13:38:09.217Z</time>
      </trkpt>
      <trkpt lat="51.217858" lon="6.762508">
        <ele>38.892086</ele>
        <time>2022-01-09T13:38:12.151Z</time>
      </trkpt>
      <trkpt lat="51.217858" lon="6.762766">
        <ele>39.262833</ele>
        <time>2022-01-09T13:38:17.897Z</time>
      </trkpt>
      <trkpt lat="51.217881" lon="6.762915">
        <ele>39.483352</ele>
        <time>2022-01-09T13:38:22.317Z</time>
      </trkpt>
      <trkpt lat="51.218039" lon="6.763428">
        <ele>40.304833</ele>
        <time>2022-01-09T13:38:35.112Z</time>
      </trkpt>
      <trkpt lat="51.218125" lon="6.763949">
        <ele>41.004724</ele>
        <time>2022-01-09T13:38:44.862Z</time>
      </trkpt>
      <trkpt lat="51.218155" lon="6.764115">
        <ele>40.954866</ele>
        <time>2022-01-09T13:38:47.811Z</time>
      </trkpt>
      <trkpt lat="51.218193" lon="6.764272">
        <ele>40.906295</ele>
        <time>2022-01-09T13:38:50.491Z</time>
      </trkpt>
      <trkpt lat="51.218264" lon="6.764539">
        <ele>40.822589</ele>
        <time>2022-01-09T13:38:55.847Z</time>
      </trkpt>
      <trkpt lat="51.218306" lon="6.764672">
        <ele>40.779607</ele>
        <time>2022-01-09T13:38:58.330Z</time>
      </trkpt>
      <trkpt lat="51.218348" lon="6.764804">
        <ele>40.736882</ele>
        <time>2022-01-09T13:39:00.854Z</time>
      </trkpt>
      <trkpt lat="51.218432" lon="6.765009">
        <ele>40.666190</ele>
        <time>2022-01-09T13:39:05.020Z</time>
      </trkpt>
      <trkpt lat="51.218532" lon="6.765231">
        <ele>40.587280</ele>
        <time>2022-01-09T13:39:09.147Z</time>
      </trkpt>
      <trkpt lat="51.218570" lon="6.765313">
        <ele>40.557845</ele>
        <time>2022-01-09T13:39:10.699Z</time>
      </trkpt>
      <trkpt lat="51.218653" lon="6.765474">
        <ele>40.497671</ele>
        <time>2022-01-09T13:39:13.898Z</time>
      </trkpt>
      <trkpt lat="51.218764" lon="6.765661">
        <ele>40.423325</ele>
        <time>2022-01-09T13:39:18.081Z</time>
      </trkpt>
      <trkpt lat="51.218862" lon="6.765815">
        <ele>40.359973</ele>
        <time>2022-01-09T13:39:21.743Z</time>
      </trkpt>
      <trkpt lat="51.218959" lon="6.765944">
        <ele>40.301810</ele>
        <time>2022-01-09T13:39:25.268Z</time>
      </trkpt>
      <trkpt lat="51.219185" lon="6.766206">
        <ele>40.218804</ele>
        <time>2022-01-09T13:39:33.862Z</time>
      </trkpt>
      <trkpt lat="51.219208" lon="6.766232">
        <ele>40.244446</ele>
        <time>2022-01-09T13:39:34.592Z</time>
      </trkpt>
      <trkpt lat="51.219289" lon="6.766310">
        <ele>40.330516</ele>
        <time>2022-01-09T13:39:36.994Z</time>
      </trkpt>
      <trkpt lat="51.219615" lon="6.766591">
        <ele>40.667610</ele>
        <time>2022-01-09T13:39:46.633Z</time>
      </trkpt>
      <trkpt lat="51.220118" lon="6.767016">
        <ele>41.185426</ele>
        <time>2022-01-09T13:40:02.184Z</time>
      </trkpt>
      <trkpt lat="51.220537" lon="6.767268">
        <ele>41.592824</ele>
        <time>2022-01-09T13:40:15.105Z</time>
      </trkpt>
      <trkpt lat="51.221623" lon="6.767948">
        <ele>42.582453</ele>
        <time>2022-01-09T13:40:47.907Z</time>
      </trkpt>
      <trkpt lat="51.221743" lon="6.768029">
        <ele>42.690733</ele>
        <time>2022-01-09T13:40:51.152Z</time>
      </trkpt>
      <trkpt lat="51.222468" lon="6.768517">
        <ele>43.305235</ele>
        <time>2022-01-09T13:41:10.861Z</time>
      </trkpt>
      <trkpt lat="51.222804" lon="6.768715">
        <ele>43.127914</ele>
        <time>2022-01-09T13:41:19.279Z</time>
      </trkpt>
      <trkpt lat="51.222857" lon="6.768746">
        <ele>43.099968</ele>
        <time>2022-01-09T13:41:20.761Z</time>
      </trkpt>
      <trkpt lat="51.223502" lon="6.769163">
        <ele>42.755444</ele>
        <time>2022-01-09T13:41:35.867Z</time>
      </trkpt>
      <trkpt lat="51.223490" lon="6.769211">
        <ele>42.739419</ele>
        <time>2022-01-09T13:41:36.715Z</time>
      </trkpt>
      <trkpt lat="51.223707" lon="6.769351">
        <ele>42.623543</ele>
        <time>2022-01-09T13:41:42.744Z</time>
      </trkpt>
      <trkpt lat="51.223744" lon="6.769374">
        <ele>42.603885</ele>
        <time>2022-01-09T13:41:43.780Z</time>
      </trkpt>
      <trkpt lat="51.223864" lon="6.769451">
        <ele>42.539856</ele>
        <time>2022-01-09T13:41:47.063Z</time>
      </trkpt>
      <trkpt lat="51.224252" lon="6.769700">
        <ele>42.124663</ele>
        <time>2022-01-09T13:41:57.945Z</time>
      </trkpt>
      <trkpt lat="51.224264" lon="6.769657">
        <ele>42.078618</ele>
        <time>2022-01-09T13:41:58.986Z</time>
      </trkpt>
      <trkpt lat="51.224561" lon="6.769859">
        <ele>41.574448</ele>
        <time>2022-01-09T13:42:05.172Z</time>
      </trkpt>
      <trkpt lat="51.224915" lon="6.770056">
        <ele>40.988969</ele>
        <time>2022-01-09T13:42:12.325Z</time>
      </trkpt>
      <trkpt lat="51.225023" lon="6.770115">
        <ele>40.810700</ele>
        <time>2022-01-09T13:42:14.488Z</time>
      </trkpt>
      <trkpt lat="51.225136" lon="6.770176">
        <ele>40.624408</ele>
        <time>2022-01-09T13:42:16.723Z</time>
      </trkpt>
      <trkpt lat="51.225380" lon="6.770302">
        <ele>40.223906</ele>
        <time>2022-01-09T13:42:21.451Z</time>
      </trkpt>
      <trkpt lat="51.225544" lon="6.770386">
        <ele>39.954922</ele>
        <time>2022-01-09T13:42:24.726Z</time>
      </trkpt>
      <trkpt lat="51.226650" lon="6.770816">
        <ele>38.548805</ele>
        <time>2022-01-09T13:42:46.135Z</time>
      </trkpt>
      <trkpt lat="51.226858" lon="6.770766">
        <ele>38.304894</ele>
        <time>2022-01-09T13:42:50.553Z</time>
      </trkpt>
      <trkpt lat="51.227232" lon="6.770834">
        <ele>37.868408</ele>
        <time>2022-01-09T13:42:59.001Z</time>
      </trkpt>
      <trkpt lat="51.227381" lon="6.770852">
        <ele>37.695136</ele>
        <time>2022-01-09T13:43:02.388Z</time>
      </trkpt>
      <trkpt lat="51.227517" lon="6.770869">
        <ele>37.536950</ele>
        <time>2022-01-09T13:43:05.286Z</time>
      </trkpt>
      <trkpt lat="51.227718" lon="6.770718">
        <ele>37.394484</ele>
        <time>2022-01-09T13:43:09.946Z</time>
      </trkpt>
      <trkpt lat="51.227739" lon="6.770720">
        <ele>37.381088</ele>
        <time>2022-01-09T13:43:10.499Z</time>
      </trkpt>
      <trkpt lat="51.228203" lon="6.770773">
        <ele>37.084859</ele>
        <time>2022-01-09T13:43:22.601Z</time>
      </trkpt>
      <trkpt lat="51.228375" lon="6.770792">
        <ele>36.975068</ele>
        <time>2022-01-09T13:43:26.917Z</time>
      </trkpt>
      <trkpt lat="51.228473" lon="6.770811">
        <ele>36.912203</ele>
        <time>2022-01-09T13:43:29.489Z</time>
      </trkpt>
      <trkpt lat="51.228551" lon="6.770826">
        <ele>36.862174</ele>
        <time>2022-01-09T13:43:31.517Z</time>
      </trkpt>
      <trkpt lat="51.228857" lon="6.770878">
        <ele>36.666213</ele>
        <time>2022-01-09T13:43:39.488Z</time>
      </trkpt>
      <trkpt lat="51.228992" lon="6.770892">
        <ele>36.580065</ele>
        <time>2022-01-09T13:43:43.111Z</time>
      </trkpt>
      <trkpt lat="51.230270" lon="6.771027">
        <ele>36.856421</ele>
        <time>2022-01-09T13:44:22.848Z</time>
      </trkpt>
      <trkpt lat="51.231412" lon="6.771288">
        <ele>37.492755</ele>
        <time>2022-01-09T13:44:59.430Z</time>
      </trkpt>
      <trkpt lat="51.231829" lon="6.771439">
        <ele>37.807167</ele>
        <time>2022-01-09T13:45:11.419Z</time>
      </trkpt>
      <trkpt lat="51.232188" lon="6.771534">
        <ele>38.074747</ele>
        <time>2022-01-09T13:45:21.485Z</time>
      </trkpt>
      <trkpt lat="51.232630" lon="6.771543">
        <ele>38.399786</ele>
        <time>2022-01-09T13:45:32.655Z</time>
      </trkpt>
      <trkpt lat="51.233265" lon="6.771556">
        <ele>38.707925</ele>
        <time>2022-01-09T13:45:47.899Z</time>
      </trkpt>
      <trkpt lat="51.233387" lon="6.771491">
        <ele>38.752206</ele>
        <time>2022-01-09T13:45:50.937Z</time>
      </trkpt>
      <trkpt lat="51.233920" lon="6.771489">
        <ele>38.935720</ele>
        <time>2022-01-09T13:46:03.780Z</time>
      </trkpt>
      <trkpt lat="51.234003" lon="6.771490">
        <ele>38.964298</ele>
        <time>2022-01-09T13:46:05.821Z</time>
      </trkpt>
      <trkpt lat="51.234065" lon="6.771486">
        <ele>38.985663</ele>
        <time>2022-01-09T13:46:07.324Z</time>
      </trkpt>
      <trkpt lat="51.234332" lon="6.771492">
        <ele>39.077601</ele>
        <time>2022-01-09T13:46:13.711Z</time>
      </trkpt>
      <trkpt lat="51.235013" lon="6.771496">
        <ele>39.134503</ele>
        <time>2022-01-09T13:46:29.518Z</time>
      </trkpt>
      <trkpt lat="51.235562" lon="6.771487">
        <ele>39.054404</ele>
        <time>2022-01-09T13:46:42.414Z</time>
      </trkpt>
      <trkpt lat="51.235630" lon="6.771486">
        <ele>39.044483</ele>
        <time>2022-01-09T13:46:43.888Z</time>
      </trkpt>
      <trkpt lat="51.236378" lon="6.771525">
        <ele>38.935297</ele>
        <time>2022-01-09T13:46:59.550Z</time>
      </trkpt>
      <trkpt lat="51.236684" lon="6.771651">
        <ele>38.606816</ele>
        <time>2022-01-09T13:47:05.570Z</time>
      </trkpt>
      <trkpt lat="51.236751" lon="6.771700">
        <ele>38.511145</ele>
        <time>2022-01-09T13:47:06.937Z</time>
      </trkpt>
      <trkpt lat="51.237119" lon="6.771388">
        <ele>37.970236</ele>
        <time>2022-01-09T13:47:17.302Z</time>
      </trkpt>
      <trkpt lat="51.236968" lon="6.771058">
        <ele>37.637991</ele>
        <time>2022-01-09T13:47:23.639Z</time>
      </trkpt>
      <trkpt lat="51.237153" lon="6.770417">
        <ele>37.064256</ele>
        <time>2022-01-09T13:47:34.720Z</time>
      </trkpt>
      <trkpt lat="51.237631" lon="6.770211">
        <ele>36.471499</ele>
        <time>2022-01-09T13:47:45.080Z</time>
      </trkpt>
      <trkpt lat="51.239223" lon="6.769525">
        <ele>34.966921</ele>
        <time>2022-01-09T13:48:21.361Z</time>
      </trkpt>
      <trkpt lat="51.240046" lon="6.769037">
        <ele>34.352238</ele>
        <time>2022-01-09T13:48:41.375Z</time>
      </trkpt>
      <trkpt lat="51.241435" lon="6.768117">
        <ele>33.123200</ele>
        <time>2022-01-09T13:49:14.868Z</time>
      </trkpt>
      <trkpt lat="51.243270" lon="6.766621">
        <ele>30.898675</ele>
        <time>2022-01-09T13:49:58.927Z</time>
      </trkpt>
      <trkpt lat="51.243284" lon="6.766609">
        <ele>30.880132</ele>
        <time>2022-01-09T13:49:59.250Z</time>
      </trkpt>
      <trkpt lat="51.243868" lon="6.766029">
        <ele>30.077547</ele>
        <time>2022-01-09T13:50:13.474Z</time>
      </trkpt>
      <trkpt lat="51.245011" lon="6.764727">
        <ele>29.689698</ele>
        <time>2022-01-09T13:50:44.733Z</time>
      </trkpt>
      <trkpt lat="51.246628" lon="6.762541">
        <ele>32.100904</ele>
        <time>2022-01-09T13:51:47.596Z</time>
      </trkpt>
      <trkpt lat="51.246602" lon="6.762499">
        <ele>32.163348</ele>
        <time>2022-01-09T13:51:48.846Z</time>
      </trkpt>
      <trkpt lat="51.247149" lon="6.761646">
        <ele>33.828406</ele>
        <time>2022-01-09T13:52:17.667Z</time>
      </trkpt>
      <trkpt lat="51.247344" lon="6.761576">
        <ele>34.330096</ele>
        <time>2022-01-09T13:52:25.004Z</time>
      </trkpt>
      <trkpt lat="51.247429" lon="6.761648">
        <ele>34.571598</ele>
        <time>2022-01-09T13:52:28.837Z</time>
      </trkpt>
      <trkpt lat="51.247838" lon="6.762374">
        <ele>36.106299</ele>
        <time>2022-01-09T13:52:49.937Z</time>
      </trkpt>
      <trkpt lat="51.247889" lon="6.762460">
        <ele>36.292439</ele>
        <time>2022-01-09T13:52:52.635Z</time>
      </trkpt>
      <trkpt lat="51.248090" lon="6.762821">
        <ele>37.051587</ele>
        <time>2022-01-09T13:53:02.391Z</time>
      </trkpt>
      <trkpt lat="51.248124" lon="6.762745">
        <ele>37.198364</ele>
        <time>2022-01-09T13:53:05.207Z</time>
      </trkpt>
      <trkpt lat="51.248359" lon="6.762300">
        <ele>37.111732</ele>
        <time>2022-01-09T13:53:21.063Z</time>
      </trkpt>
      <trkpt lat="51.248483" lon="6.762153">
        <ele>37.074299</ele>
        <time>2022-01-09T13:53:27.549Z</time>
      </trkpt>
      <trkpt lat="51.248649" lon="6.761864">
        <ele>37.014779</ele>
        <time>2022-01-09T13:53:33.529Z</time>
      </trkpt>
      <trkpt lat="51.248756" lon="6.761688">
        <ele>36.977548</ele>
        <time>2022-01-09T13:53:36.992Z</time>
      </trkpt>
      <trkpt lat="51.248777" lon="6.761645">
        <ele>36.969272</ele>
        <time>2022-01-09T13:53:37.699Z</time>
      </trkpt>
      <trkpt lat="51.249411" lon="6.760335">
        <ele>36.448781</ele>
        <time>2022-01-09T13:53:57.351Z</time>
      </trkpt>
      <trkpt lat="51.250153" lon="6.758784">
        <ele>34.414852</ele>
        <time>2022-01-09T13:54:20.020Z</time>
      </trkpt>
      <trkpt lat="51.250697" lon="6.757585">
        <ele>33.407017</ele>
        <time>2022-01-09T13:54:38.423Z</time>
      </trkpt>
      <trkpt lat="51.251762" lon="6.753858">
        <ele>31.989957</ele>
        <time>2022-01-09T13:55:31.867Z</time>
      </trkpt>
      <trkpt lat="51.252336" lon="6.751576">
        <ele>31.160396</ele>
        <time>2022-01-09T13:56:03.589Z</time>
      </trkpt>
      <trkpt lat="51.252789" lon="6.749904">
        <ele>30.560068</ele>
        <time>2022-01-09T13:56:26.200Z</time>
      </trkpt>
      <trkpt lat="51.253118" lon="6.748657">
        <ele>30.214021</ele>
        <time>2022-01-09T13:56:43.288Z</time>
      </trkpt>
      <trkpt lat="51.253856" lon="6.745981">
        <ele>30.673525</ele>
        <time>2022-01-09T13:57:24.929Z</time>
      </trkpt>
      <trkpt lat="51.254410" lon="6.743961">
        <ele>32.616492</ele>
        <time>2022-01-09T13:58:04.134Z</time>
      </trkpt>
      <trkpt lat="51.254567" lon="6.743502">
        <ele>33.254712</ele>
        <time>2022-01-09T13:58:14.544Z</time>
      </trkpt>
      <trkpt lat="51.254747" lon="6.743328">
        <ele>33.664848</ele>
        <time>2022-01-09T13:58:23.186Z</time>
      </trkpt>
      <trkpt lat="51.254881" lon="6.743115">
        <ele>34.033337</ele>
        <time>2022-01-09T13:58:30.444Z</time>
      </trkpt>
      <trkpt lat="51.255050" lon="6.742539">
        <ele>34.675928</ele>
        <time>2022-01-09T13:58:45.742Z</time>
      </trkpt>
      <trkpt lat="51.255125" lon="6.742293">
        <ele>34.878345</ele>
        <time>2022-01-09T13:58:51.897Z</time>
      </trkpt>
      <trkpt lat="51.255173" lon="6.742161">
        <ele>34.991275</ele>
        <time>2022-01-09T13:58:55.147Z</time>
      </trkpt>
      <trkpt lat="51.255233" lon="6.742204">
        <ele>35.069000</ele>
        <time>2022-01-09T13:58:57.805Z</time>
      </trkpt>
      <trkpt lat="51.255291" lon="6.742247">
        <ele>35.144573</ele>
        <time>2022-01-09T13:59:00.295Z</time>
      </trkpt>
      <trkpt lat="51.255408" lon="6.741859">
        <ele>35.463166</ele>
        <time>2022-01-09T13:59:07.519Z</time>
      </trkpt>
      <trkpt lat="51.255426" lon="6.741797">
        <ele>35.513723</ele>
        <time>2022-01-09T13:59:09.116Z</time>
      </trkpt>
      <trkpt lat="51.255502" lon="6.741537">
        <ele>35.725996</ele>
        <time>2022-01-09T13:59:14.067Z</time>
      </trkpt>
      <trkpt lat="51.255902" lon="6.740175">
        <ele>36.470809</ele>
        <time>2022-01-09T13:59:38.454Z</time>
      </trkpt>
      <trkpt lat="51.255972" lon="6.739937">
        <ele>36.370396</ele>
        <time>2022-01-09T13:59:41.777Z</time>
      </trkpt>
      <trkpt lat="51.256020" lon="6.739775">
        <ele>36.301957</ele>
        <time>2022-01-09T13:59:44.058Z</time>
      </trkpt>
      <trkpt lat="51.256170" lon="6.739280">
        <ele>36.091958</ele>
        <time>2022-01-09T13:59:50.986Z</time>
      </trkpt>
      <trkpt lat="51.256191" lon="6.739210">
        <ele>36.062317</ele>
        <time>2022-01-09T13:59:52.015Z</time>
      </trkpt>
      <trkpt lat="51.256386" lon="6.738536">
        <ele>35.778792</ele>
        <time>2022-01-09T14:00:01.396Z</time>
      </trkpt>
      <trkpt lat="51.256523" lon="6.738086">
        <ele>35.587715</ele>
        <time>2022-01-09T14:00:07.938Z</time>
      </trkpt>
      <trkpt lat="51.256697" lon="6.737474">
        <ele>35.319665</ele>
        <time>2022-01-09T14:00:16.597Z</time>
      </trkpt>
      <trkpt lat="51.256944" lon="6.736597">
        <ele>34.927521</ele>
        <time>2022-01-09T14:00:28.819Z</time>
      </trkpt>
      <trkpt lat="51.257057" lon="6.736141">
        <ele>34.727540</ele>
        <time>2022-01-09T14:00:35.150Z</time>
      </trkpt>
      <trkpt lat="51.257205" lon="6.735639">
        <ele>34.501273</ele>
        <time>2022-01-09T14:00:42.560Z</time>
      </trkpt>
      <trkpt lat="51.257324" lon="6.735235">
        <ele>34.327564</ele>
        <time>2022-01-09T14:00:48.856Z</time>
      </trkpt>
      <trkpt lat="51.257290" lon="6.735207">
        <ele>34.329854</ele>
        <time>2022-01-09T14:00:50.045Z</time>
      </trkpt>
      <trkpt lat="51.257225" lon="6.735154">
        <ele>34.334221</ele>
        <time>2022-01-09T14:00:52.234Z</time>
      </trkpt>
      <trkpt lat="51.257724" lon="6.733325">
        <ele>34.408959</ele>
        <time>2022-01-09T14:01:22.581Z</time>
      </trkpt>
      <trkpt lat="51.257750" lon="6.733227">
        <ele>34.412946</ele>
        <time>2022-01-09T14:01:24.269Z</time>
      </trkpt>
      <trkpt lat="51.257881" lon="6.733192">
        <ele>34.420896</ele>
        <time>2022-01-09T14:01:29.439Z</time>
      </trkpt>
      <trkpt lat="51.257925" lon="6.732982">
        <ele>34.429191</ele>
        <time>2022-01-09T14:01:32.733Z</time>
      </trkpt>
      <trkpt lat="51.257979" lon="6.732719">
        <ele>34.486106</ele>
        <time>2022-01-09T14:01:37.288Z</time>
      </trkpt>
      <trkpt lat="51.258104" lon="6.732230">
        <ele>34.688545</ele>
        <time>2022-01-09T14:01:45.653Z</time>
      </trkpt>
      <trkpt lat="51.258254" lon="6.731642">
        <ele>34.931898</ele>
        <time>2022-01-09T14:01:55.834Z</time>
      </trkpt>
      <trkpt lat="51.258206" lon="6.731479">
        <ele>35.000938</ele>
        <time>2022-01-09T14:01:59.317Z</time>
      </trkpt>
      <trkpt lat="51.258429" lon="6.730635">
        <ele>35.352044</ele>
        <time>2022-01-09T14:02:15.007Z</time>
      </trkpt>
      <trkpt lat="51.258436" lon="6.730614">
        <ele>35.361163</ele>
        <time>2022-01-09T14:02:15.395Z</time>
      </trkpt>
      <trkpt lat="51.258655" lon="6.729759">
        <ele>35.550460</ele>
        <time>2022-01-09T14:02:30.867Z</time>
      </trkpt>
      <trkpt lat="51.258845" lon="6.729020">
        <ele>35.575157</ele>
        <time>2022-01-09T14:02:43.875Z</time>
      </trkpt>
      <trkpt lat="51.259538" lon="6.726316">
        <ele>35.323639</ele>
        <time>2022-01-09T14:03:27.279Z</time>
      </trkpt>
      <trkpt lat="51.259780" lon="6.726056">
        <ele>35.216852</ele>
        <time>2022-01-09T14:03:33.355Z</time>
      </trkpt>
      <trkpt lat="51.260307" lon="6.724274">
        <ele>34.712424</ele>
        <time>2022-01-09T14:03:58.843Z</time>
      </trkpt>
      <trkpt lat="51.262354" lon="6.717722">
        <ele>32.715073</ele>
        <time>2022-01-09T14:05:33.367Z</time>
      </trkpt>
      <trkpt lat="51.262853" lon="6.716504">
        <ele>32.642210</ele>
        <time>2022-01-09T14:05:53.322Z</time>
      </trkpt>
      <trkpt lat="51.263457" lon="6.715156">
        <ele>32.687884</ele>
        <time>2022-01-09T14:06:16.756Z</time>
      </trkpt>
      <trkpt lat="51.264170" lon="6.713935">
        <ele>33.099372</ele>
        <time>2022-01-09T14:06:41.777Z</time>
      </trkpt>
      <trkpt lat="51.264846" lon="6.713046">
        <ele>33.481035</ele>
        <time>2022-01-09T14:07:02.945Z</time>
      </trkpt>
      <trkpt lat="51.265526" lon="6.712347">
        <ele>33.750762</ele>
        <time>2022-01-09T14:07:22.781Z</time>
      </trkpt>
      <trkpt lat="51.266535" lon="6.711590">
        <ele>34.032957</ele>
        <time>2022-01-09T14:07:48.678Z</time>
      </trkpt>
      <trkpt lat="51.267280" lon="6.711207">
        <ele>33.761612</ele>
        <time>2022-01-09T14:08:05.385Z</time>
      </trkpt>
      <trkpt lat="51.268557" lon="6.710848">
        <ele>33.261133</ele>
        <time>2022-01-09T14:08:31.670Z</time>
      </trkpt>
      <trkpt lat="51.269379" lon="6.710837">
        <ele>32.874615</ele>
        <time>2022-01-09T14:08:48.262Z</time>
      </trkpt>
      <trkpt lat="51.271001" lon="6.711059">
        <ele>32.528627</ele>
        <time>2022-01-09T14:09:23.361Z</time>
      </trkpt>
      <trkpt lat="51.271691" lon="6.711229">
        <ele>32.475681</ele>
        <time>2022-01-09T14:09:39.126Z</time>
      </trkpt>
      <trkpt lat="51.272543" lon="6.711598">
        <ele>32.485661</ele>
        <time>2022-01-09T14:09:58.804Z</time>
      </trkpt>
      <trkpt lat="51.274486" lon="6.712676">
        <ele>32.580490</ele>
        <time>2022-01-09T14:10:44.449Z</time>
      </trkpt>
      <trkpt lat="51.274597" lon="6.712888">
        <ele>32.593092</ele>
        <time>2022-01-09T14:10:48.442Z</time>
      </trkpt>
      <trkpt lat="51.275017" lon="6.713159">
        <ele>32.626094</ele>
        <time>2022-01-09T14:10:58.883Z</time>
      </trkpt>
      <trkpt lat="51.275446" lon="6.713413">
        <ele>32.671567</ele>
        <time>2022-01-09T14:11:09.545Z</time>
      </trkpt>
      <trkpt lat="51.275612" lon="6.713500">
        <ele>32.689752</ele>
        <time>2022-01-09T14:11:13.583Z</time>
      </trkpt>
      <trkpt lat="51.276024" lon="6.713648">
        <ele>32.733709</ele>
        <time>2022-01-09T14:11:23.316Z</time>
      </trkpt>
      <trkpt lat="51.276237" lon="6.713650">
        <ele>32.755882</ele>
        <time>2022-01-09T14:11:28.222Z</time>
      </trkpt>
      <trkpt lat="51.276580" lon="6.713911">
        <ele>32.795426</ele>
        <time>2022-01-09T14:11:36.757Z</time>
      </trkpt>
      <trkpt lat="51.276893" lon="6.714099">
        <ele>32.782701</ele>
        <time>2022-01-09T14:11:44.044Z</time>
      </trkpt>
      <trkpt lat="51.278433" lon="6.715961">
        <ele>32.246396</ele>
        <time>2022-01-09T14:12:24.228Z</time>
      </trkpt>
      <trkpt lat="51.281627" lon="6.719735">
        <ele>32.908504</ele>
        <time>2022-01-09T14:13:53.271Z</time>
      </trkpt>
      <trkpt lat="51.283304" lon="6.721490">
        <ele>35.153401</ele>
        <time>2022-01-09T14:14:49.966Z</time>
      </trkpt>
      <trkpt lat="51.284017" lon="6.722109">
        <ele>36.223860</ele>
        <time>2022-01-09T14:15:12.789Z</time>
      </trkpt>
      <trkpt lat="51.286249" lon="6.724032">
        <ele>37.574293</ele>
        <time>2022-01-09T14:16:14.553Z</time>
      </trkpt>
      <trkpt lat="51.286399" lon="6.724171">
        <ele>37.599808</ele>
        <time>2022-01-09T14:16:18.403Z</time>
      </trkpt>
      <trkpt lat="51.288430" lon="6.725860">
        <ele>37.426960</ele>
        <time>2022-01-09T14:17:08.882Z</time>
      </trkpt>
      <trkpt lat="51.288826" lon="6.726101">
        <ele>37.315141</ele>
        <time>2022-01-09T14:17:17.588Z</time>
      </trkpt>
      <trkpt lat="51.289746" lon="6.726457">
        <ele>36.191211</ele>
        <time>2022-01-09T14:17:35.998Z</time>
      </trkpt>
      <trkpt lat="51.289981" lon="6.726520">
        <ele>35.871717</ele>
        <time>2022-01-09T14:17:40.414Z</time>
      </trkpt>
      <trkpt lat="51.291520" lon="6.727033">
        <ele>33.695480</ele>
        <time>2022-01-09T14:18:08.292Z</time>
      </trkpt>
      <trkpt lat="51.292143" lon="6.727355">
        <ele>32.763253</ele>
        <time>2022-01-09T14:18:20.274Z</time>
      </trkpt>
      <trkpt lat="51.294352" lon="6.729028">
        <ele>31.715578</ele>
        <time>2022-01-09T14:19:11.853Z</time>
      </trkpt>
      <trkpt lat="51.294773" lon="6.729367">
        <ele>31.801649</ele>
        <time>2022-01-09T14:19:22.762Z</time>
      </trkpt>
      <trkpt lat="51.295324" lon="6.729826">
        <ele>31.915094</ele>
        <time>2022-01-09T14:19:37.179Z</time>
      </trkpt>
      <trkpt lat="51.295562" lon="6.730121">
        <ele>31.970079</ele>
        <time>2022-01-09T14:19:44.489Z</time>
      </trkpt>
      <trkpt lat="51.296183" lon="6.731191">
        <ele>32.283511</ele>
        <time>2022-01-09T14:20:06.787Z</time>
      </trkpt>
      <trkpt lat="51.296363" lon="6.731417">
        <ele>32.365611</ele>
        <time>2022-01-09T14:20:12.100Z</time>
      </trkpt>
      <trkpt lat="51.296867" lon="6.731607">
        <ele>32.551382</ele>
        <time>2022-01-09T14:20:24.198Z</time>
      </trkpt>
      <trkpt lat="51.296528" lon="6.730977">
        <ele>32.631615</ele>
        <time>2022-01-09T14:20:36.009Z</time>
      </trkpt>
      <trkpt lat="51.296462" lon="6.730854">
        <ele>32.632180</ele>
        <time>2022-01-09T14:20:38.245Z</time>
      </trkpt>
      <trkpt lat="51.295972" lon="6.729882">
        <ele>32.636534</ele>
        <time>2022-01-09T14:20:55.869Z</time>
      </trkpt>
      <trkpt lat="51.295826" lon="6.729436">
        <ele>32.638289</ele>
        <time>2022-01-09T14:21:02.482Z</time>
      </trkpt>
      <trkpt lat="51.295821" lon="6.729290">
        <ele>32.638799</ele>
        <time>2022-01-09T14:21:04.479Z</time>
      </trkpt>
      <trkpt lat="51.295857" lon="6.729248">
        <ele>32.639048</ele>
        <time>2022-01-09T14:21:05.433Z</time>
      </trkpt>
      <trkpt lat="51.295953" lon="6.729254">
        <ele>32.639584</ele>
        <time>2022-01-09T14:21:07.455Z</time>
      </trkpt>
      <trkpt lat="51.297238" lon="6.730449">
        <ele>32.934494</ele>
        <time>2022-01-09T14:21:40.200Z</time>
      </trkpt>
      <trkpt lat="51.297713" lon="6.730680">
        <ele>33.163641</ele>
        <time>2022-01-09T14:21:53.344Z</time>
      </trkpt>
      <trkpt lat="51.298064" lon="6.730765">
        <ele>33.625293</ele>
        <time>2022-01-09T14:22:02.980Z</time>
      </trkpt>
      <trkpt lat="51.298096" lon="6.730768">
        <ele>33.666978</ele>
        <time>2022-01-09T14:22:03.867Z</time>
      </trkpt>
      <trkpt lat="51.298192" lon="6.730765">
        <ele>33.791842</ele>
        <time>2022-01-09T14:22:06.355Z</time>
      </trkpt>
      <trkpt lat="51.298274" lon="6.730761">
        <ele>33.898526</ele>
        <time>2022-01-09T14:22:08.585Z</time>
      </trkpt>
      <trkpt lat="51.298544" lon="6.730862">
        <ele>34.259117</ele>
        <time>2022-01-09T14:22:16.257Z</time>
      </trkpt>
      <trkpt lat="51.299099" lon="6.731278">
        <ele>35.056182</ele>
        <time>2022-01-09T14:22:33.952Z</time>
      </trkpt>
      <trkpt lat="51.299885" lon="6.731686">
        <ele>35.724619</ele>
        <time>2022-01-09T14:22:56.669Z</time>
      </trkpt>
      <trkpt lat="51.300311" lon="6.732108">
        <ele>36.036092</ele>
        <time>2022-01-09T14:23:09.449Z</time>
      </trkpt>
      <trkpt lat="51.300361" lon="6.732149">
        <ele>36.071018</ele>
        <time>2022-01-09T14:23:10.702Z</time>
      </trkpt>
      <trkpt lat="51.301014" lon="6.732630">
        <ele>36.444886</ele>
        <time>2022-01-09T14:23:26.355Z</time>
      </trkpt>
      <trkpt lat="51.301595" lon="6.733196">
        <ele>36.213510</ele>
        <time>2022-01-09T14:23:40.844Z</time>
      </trkpt>
      <trkpt lat="51.301637" lon="6.733234">
        <ele>36.197098</ele>
        <time>2022-01-09T14:23:41.803Z</time>
      </trkpt>
      <trkpt lat="51.302779" lon="6.734258">
        <ele>35.527104</ele>
        <time>2022-01-09T14:24:09.067Z</time>
      </trkpt>
      <trkpt lat="51.303249" lon="6.734467">
        <ele>35.013216</ele>
        <time>2022-01-09T14:24:18.497Z</time>
      </trkpt>
      <trkpt lat="51.303910" lon="6.734753">
        <ele>34.291876</ele>
        <time>2022-01-09T14:24:31.402Z</time>
      </trkpt>
      <trkpt lat="51.303947" lon="6.734764">
        <ele>34.252231</ele>
        <time>2022-01-09T14:24:32.097Z</time>
      </trkpt>
      <trkpt lat="51.304422" lon="6.734868">
        <ele>33.688404</ele>
        <time>2022-01-09T14:24:40.845Z</time>
      </trkpt>
      <trkpt lat="51.305435" lon="6.735229">
        <ele>32.299006</ele>
        <time>2022-01-09T14:24:59.671Z</time>
      </trkpt>
      <trkpt lat="51.306331" lon="6.735787">
        <ele>31.408184</ele>
        <time>2022-01-09T14:25:18.518Z</time>
      </trkpt>
      <trkpt lat="51.307523" lon="6.736406">
        <ele>30.951805</ele>
        <time>2022-01-09T14:25:45.473Z</time>
      </trkpt>
      <trkpt lat="51.308703" lon="6.736944">
        <ele>30.816373</ele>
        <time>2022-01-09T14:26:12.431Z</time>
      </trkpt>
      <trkpt lat="51.309406" lon="6.737190">
        <ele>30.759463</ele>
        <time>2022-01-09T14:26:28.232Z</time>
      </trkpt>
      <trkpt lat="51.312149" lon="6.737651">
        <ele>30.479502</ele>
        <time>2022-01-09T14:27:27.758Z</time>
      </trkpt>
      <trkpt lat="51.314416" lon="6.737303">
        <ele>30.745823</ele>
        <time>2022-01-09T14:28:20.644Z</time>
      </trkpt>
      <trkpt lat="51.317525" lon="6.737028">
        <ele>30.474978</ele>
        <time>2022-01-09T14:29:30.576Z</time>
      </trkpt>
      <trkpt lat="51.319383" lon="6.736428">
        <ele>29.321961</ele>
        <time>2022-01-09T14:30:06.652Z</time>
      </trkpt>
      <trkpt lat="51.321342" lon="6.735475">
        <ele>29.351596</ele>
        <time>2022-01-09T14:30:51.249Z</time>
      </trkpt>
      <trkpt lat="51.321849" lon="6.735154">
        <ele>29.683061</ele>
        <time>2022-01-09T14:31:07.106Z</time>
      </trkpt>
      <trkpt lat="51.322357" lon="6.735017">
        <ele>30.828014</ele>
        <time>2022-01-09T14:31:22.055Z</time>
      </trkpt>
      <trkpt lat="51.322446" lon="6.735043">
        <ele>31.029086</ele>
        <time>2022-01-09T14:31:24.779Z</time>
      </trkpt>
      <trkpt lat="51.322722" lon="6.735308">
        <ele>31.744448</ele>
        <time>2022-01-09T14:31:35.079Z</time>
      </trkpt>
      <trkpt lat="51.321901" lon="6.736502">
        <ele>34.037488</ele>
        <time>2022-01-09T14:32:11.915Z</time>
      </trkpt>
      <trkpt lat="51.322105" lon="6.736771">
        <ele>34.470062</ele>
        <time>2022-01-09T14:32:20.457Z</time>
      </trkpt>
      <trkpt lat="51.322401" lon="6.737149">
        <ele>35.089785</ele>
        <time>2022-01-09T14:32:30.729Z</time>
      </trkpt>
      <trkpt lat="51.322605" lon="6.737404">
        <ele>35.513397</ele>
        <time>2022-01-09T14:32:38.234Z</time>
      </trkpt>
      <trkpt lat="51.322828" lon="6.737672">
        <ele>35.969776</ele>
        <time>2022-01-09T14:32:47.653Z</time>
      </trkpt>
      <trkpt lat="51.323684" lon="6.738754">
        <ele>36.935545</ele>
        <time>2022-01-09T14:33:24.275Z</time>
      </trkpt>
      <trkpt lat="51.324420" lon="6.737412">
        <ele>37.551748</ele>
        <time>2022-01-09T14:33:57.817Z</time>
      </trkpt>
      <trkpt lat="51.324398" lon="6.737382">
        <ele>37.561803</ele>
        <time>2022-01-09T14:33:58.641Z</time>
      </trkpt>
      <trkpt lat="51.325113" lon="6.735805">
        <ele>37.985372</ele>
        <time>2022-01-09T14:34:36.159Z</time>
      </trkpt>
      <trkpt lat="51.325247" lon="6.735879">
        <ele>38.034687</ele>
        <time>2022-01-09T14:34:39.428Z</time>
      </trkpt>
      <trkpt lat="51.325369" lon="6.735216">
        <ele>38.171830</ele>
        <time>2022-01-09T14:34:49.528Z</time>
      </trkpt>
      <trkpt lat="51.325399" lon="6.735126">
        <ele>38.186136</ele>
        <time>2022-01-09T14:34:51.065Z</time>
      </trkpt>
      <trkpt lat="51.325418" lon="6.735072">
        <ele>38.194828</ele>
        <time>2022-01-09T14:34:51.983Z</time>
      </trkpt>
      <trkpt lat="51.325778" lon="6.734116">
        <ele>38.351371</ele>
        <time>2022-01-09T14:35:08.572Z</time>
      </trkpt>
      <trkpt lat="51.326001" lon="6.733642">
        <ele>38.434585</ele>
        <time>2022-01-09T14:35:17.328Z</time>
      </trkpt>
      <trkpt lat="51.326210" lon="6.733198">
        <ele>38.512546</ele>
        <time>2022-01-09T14:35:25.364Z</time>
      </trkpt>
      <trkpt lat="51.326329" lon="6.732949">
        <ele>38.539999</ele>
        <time>2022-01-09T14:35:29.712Z</time>
      </trkpt>
      <trkpt lat="51.326536" lon="6.732479">
        <ele>38.344856</ele>
        <time>2022-01-09T14:35:37.234Z</time>
      </trkpt>
      <trkpt lat="51.326881" lon="6.731798">
        <ele>38.047331</ele>
        <time>2022-01-09T14:35:48.097Z</time>
      </trkpt>
      <trkpt lat="51.327334" lon="6.731126">
        <ele>37.711864</ele>
        <time>2022-01-09T14:36:00.426Z</time>
      </trkpt>
      <trkpt lat="51.327570" lon="6.730819">
        <ele>37.564991</ele>
        <time>2022-01-09T14:36:06.557Z</time>
      </trkpt>
      <trkpt lat="51.327584" lon="6.730806">
        <ele>37.561916</ele>
        <time>2022-01-09T14:36:06.905Z</time>
      </trkpt>
      <trkpt lat="51.327797" lon="6.730545">
        <ele>37.510953</ele>
        <time>2022-01-09T14:36:12.386Z</time>
      </trkpt>
      <trkpt lat="51.328003" lon="6.730357">
        <ele>37.465903</ele>
        <time>2022-01-09T14:36:17.359Z</time>
      </trkpt>
      <trkpt lat="51.328195" lon="6.730181">
        <ele>37.423869</ele>
        <time>2022-01-09T14:36:22.112Z</time>
      </trkpt>
      <trkpt lat="51.328287" lon="6.730098">
        <ele>37.403806</ele>
        <time>2022-01-09T14:36:24.393Z</time>
      </trkpt>
      <trkpt lat="51.328475" lon="6.729935">
        <ele>37.363187</ele>
        <time>2022-01-09T14:36:29.116Z</time>
      </trkpt>
      <trkpt lat="51.328502" lon="6.729911">
        <ele>37.357319</ele>
        <time>2022-01-09T14:36:29.834Z</time>
      </trkpt>
      <trkpt lat="51.328621" lon="6.729790">
        <ele>37.330536</ele>
        <time>2022-01-09T14:36:32.896Z</time>
      </trkpt>
      <trkpt lat="51.328647" lon="6.729764">
        <ele>37.324712</ele>
        <time>2022-01-09T14:36:33.563Z</time>
      </trkpt>
      <trkpt lat="51.329036" lon="6.729368">
        <ele>37.237130</ele>
        <time>2022-01-09T14:36:43.721Z</time>
      </trkpt>
      <trkpt lat="51.329378" lon="6.728866">
        <ele>37.234697</ele>
        <time>2022-01-09T14:36:54.656Z</time>
      </trkpt>
      <trkpt lat="51.329487" lon="6.728639">
        <ele>37.235323</ele>
        <time>2022-01-09T14:36:58.977Z</time>
      </trkpt>
      <trkpt lat="51.329525" lon="6.728559">
        <ele>37.235543</ele>
        <time>2022-01-09T14:37:00.514Z</time>
      </trkpt>
      <trkpt lat="51.329600" lon="6.728412">
        <ele>37.235958</ele>
        <time>2022-01-09T14:37:03.233Z</time>
      </trkpt>
      <trkpt lat="51.329638" lon="6.728336">
        <ele>37.236171</ele>
        <time>2022-01-09T14:37:04.589Z</time>
      </trkpt>
      <trkpt lat="51.329771" lon="6.728056">
        <ele>37.236940</ele>
        <time>2022-01-09T14:37:09.714Z</time>
      </trkpt>
      <trkpt lat="51.329947" lon="6.727765">
        <ele>37.237826</ele>
        <time>2022-01-09T14:37:15.239Z</time>
      </trkpt>
      <trkpt lat="51.329971" lon="6.727729">
        <ele>37.237941</ele>
        <time>2022-01-09T14:37:15.975Z</time>
      </trkpt>
      <trkpt lat="51.330123" lon="6.727497">
        <ele>37.238676</ele>
        <time>2022-01-09T14:37:20.391Z</time>
      </trkpt>
      <trkpt lat="51.330490" lon="6.726910">
        <ele>36.959095</ele>
        <time>2022-01-09T14:37:31.337Z</time>
      </trkpt>
      <trkpt lat="51.330514" lon="6.726875">
        <ele>36.928768</ele>
        <time>2022-01-09T14:37:31.982Z</time>
      </trkpt>
      <trkpt lat="51.330697" lon="6.726646">
        <ele>36.711793</ele>
        <time>2022-01-09T14:37:36.495Z</time>
      </trkpt>
      <trkpt lat="51.331091" lon="6.725667">
        <ele>36.032182</ele>
        <time>2022-01-09T14:37:50.100Z</time>
      </trkpt>
      <trkpt lat="51.331265" lon="6.725177">
        <ele>35.703260</ele>
        <time>2022-01-09T14:37:56.775Z</time>
      </trkpt>
      <trkpt lat="51.331486" lon="6.723699">
        <ele>35.016391</ele>
        <time>2022-01-09T14:38:15.479Z</time>
      </trkpt>
      <trkpt lat="51.331661" lon="6.723378">
        <ele>34.834701</ele>
        <time>2022-01-09T14:38:21.049Z</time>
      </trkpt>
      <trkpt lat="51.331787" lon="6.723285">
        <ele>34.739990</ele>
        <time>2022-01-09T14:38:23.665Z</time>
      </trkpt>
      <trkpt lat="51.332355" lon="6.723312">
        <ele>34.352109</ele>
        <time>2022-01-09T14:38:35.298Z</time>
      </trkpt>
      <trkpt lat="51.332409" lon="6.723073">
        <ele>34.313145</ele>
        <time>2022-01-09T14:38:39.435Z</time>
      </trkpt>
      <trkpt lat="51.333637" lon="6.721078">
        <ele>34.048517</ele>
        <time>2022-01-09T14:39:30.512Z</time>
      </trkpt>
      <trkpt lat="51.334110" lon="6.720260">
        <ele>33.838593</ele>
        <time>2022-01-09T14:39:50.427Z</time>
      </trkpt>
      <trkpt lat="51.334582" lon="6.719451">
        <ele>33.630118</ele>
        <time>2022-01-09T14:40:09.843Z</time>
      </trkpt>
      <trkpt lat="51.334730" lon="6.719204">
        <ele>33.565661</ele>
        <time>2022-01-09T14:40:15.726Z</time>
      </trkpt>
      <trkpt lat="51.334880" lon="6.719004">
        <ele>33.493725</ele>
        <time>2022-01-09T14:40:21.070Z</time>
      </trkpt>
      <trkpt lat="51.335144" lon="6.718703">
        <ele>33.341889</ele>
        <time>2022-01-09T14:40:29.834Z</time>
      </trkpt>
      <trkpt lat="51.335417" lon="6.718146">
        <ele>33.134697</ele>
        <time>2022-01-09T14:40:38.523Z</time>
      </trkpt>
      <trkpt lat="51.335901" lon="6.717116">
        <ele>32.757507</ele>
        <time>2022-01-09T14:40:55.168Z</time>
      </trkpt>
      <trkpt lat="51.336259" lon="6.716168">
        <ele>32.683614</ele>
        <time>2022-01-09T14:41:10.741Z</time>
      </trkpt>
      <trkpt lat="51.336426" lon="6.715672">
        <ele>32.680859</ele>
        <time>2022-01-09T14:41:18.747Z</time>
      </trkpt>
      <trkpt lat="51.336597" lon="6.715165">
        <ele>32.678041</ele>
        <time>2022-01-09T14:41:27.019Z</time>
      </trkpt>
      <trkpt lat="51.336549" lon="6.714797">
        <ele>32.676203</ele>
        <time>2022-01-09T14:41:34.211Z</time>
      </trkpt>
      <trkpt lat="51.336419" lon="6.714620">
        <ele>32.674867</ele>
        <time>2022-01-09T14:41:39.332Z</time>
      </trkpt>
      <trkpt lat="51.338971" lon="6.706445">
        <ele>30.066158</ele>
        <time>2022-01-09T14:43:49.996Z</time>
      </trkpt>
      <trkpt lat="51.339408" lon="6.705582">
        <ele>30.179916</ele>
        <time>2022-01-09T14:44:06.700Z</time>
      </trkpt>
      <trkpt lat="51.340185" lon="6.704279">
        <ele>30.294004</ele>
        <time>2022-01-09T14:44:33.252Z</time>
      </trkpt>
      <trkpt lat="51.340974" lon="6.703015">
        <ele>30.076709</ele>
        <time>2022-01-09T14:44:56.709Z</time>
      </trkpt>
      <trkpt lat="51.342102" lon="6.701241">
        <ele>29.812001</ele>
        <time>2022-01-09T14:45:30.432Z</time>
      </trkpt>
      <trkpt lat="51.343631" lon="6.698828">
        <ele>29.829498</ele>
        <time>2022-01-09T14:46:18.184Z</time>
      </trkpt>
      <trkpt lat="51.346308" lon="6.695119">
        <ele>30.748913</ele>
        <time>2022-01-09T14:47:50.770Z</time>
      </trkpt>
      <trkpt lat="51.348717" lon="6.691789">
        <ele>30.554371</ele>
        <time>2022-01-09T14:49:05.911Z</time>
      </trkpt>
      <trkpt lat="51.351500" lon="6.687939">
        <ele>33.102890</ele>
        <time>2022-01-09T14:50:50.084Z</time>
      </trkpt>
      <trkpt lat="51.351609" lon="6.687790">
        <ele>33.194916</ele>
        <time>2022-01-09T14:50:53.744Z</time>
      </trkpt>
      <trkpt lat="51.352471" lon="6.686615">
        <ele>33.364407</ele>
        <time>2022-01-09T14:51:21.231Z</time>
      </trkpt>
      <trkpt lat="51.353182" lon="6.685626">
        <ele>32.977209</ele>
        <time>2022-01-09T14:51:41.358Z</time>
      </trkpt>
      <trkpt lat="51.353029" lon="6.685085">
        <ele>32.794249</ele>
        <time>2022-01-09T14:51:48.564Z</time>
      </trkpt>
      <trkpt lat="51.353054" lon="6.684995">
        <ele>32.725662</ele>
        <time>2022-01-09T14:51:49.753Z</time>
      </trkpt>
      <trkpt lat="51.352719" lon="6.683100">
        <ele>31.354307</ele>
        <time>2022-01-09T14:52:12.670Z</time>
      </trkpt>
      <trkpt lat="51.352578" lon="6.682216">
        <ele>30.839084</ele>
        <time>2022-01-09T14:52:23.663Z</time>
      </trkpt>
      <trkpt lat="51.352370" lon="6.681135">
        <ele>30.852092</ele>
        <time>2022-01-09T14:52:38.370Z</time>
      </trkpt>
      <trkpt lat="51.352464" lon="6.680992">
        <ele>30.854480</ele>
        <time>2022-01-09T14:52:41.572Z</time>
      </trkpt>
      <trkpt lat="51.352503" lon="6.680975">
        <ele>30.855224</ele>
        <time>2022-01-09T14:52:42.455Z</time>
      </trkpt>
      <trkpt lat="51.353047" lon="6.680731">
        <ele>30.865627</ele>
        <time>2022-01-09T14:52:55.426Z</time>
      </trkpt>
      <trkpt lat="51.353703" lon="6.680533">
        <ele>31.205641</ele>
        <time>2022-01-09T14:53:12.787Z</time>
      </trkpt>
      <trkpt lat="51.354502" lon="6.680510">
        <ele>31.849440</ele>
        <time>2022-01-09T14:53:34.457Z</time>
      </trkpt>
      <trkpt lat="51.355617" lon="6.680865">
        <ele>32.278829</ele>
        <time>2022-01-09T14:54:02.611Z</time>
      </trkpt>
      <trkpt lat="51.356541" lon="6.680949">
        <ele>32.211196</ele>
        <time>2022-01-09T14:54:23.694Z</time>
      </trkpt>
      <trkpt lat="51.356883" lon="6.680980">
        <ele>32.170768</ele>
        <time>2022-01-09T14:54:30.867Z</time>
      </trkpt>
      <trkpt lat="51.357349" lon="6.681022">
        <ele>31.824401</ele>
        <time>2022-01-09T14:54:40.410Z</time>
      </trkpt>
      <trkpt lat="51.357861" lon="6.681131">
        <ele>31.441102</ele>
        <time>2022-01-09T14:54:50.768Z</time>
      </trkpt>
      <trkpt lat="51.357927" lon="6.681142">
        <ele>31.391859</ele>
        <time>2022-01-09T14:54:51.907Z</time>
      </trkpt>
      <trkpt lat="51.357973" lon="6.680993">
        <ele>31.314833</ele>
        <time>2022-01-09T14:54:54.051Z</time>
      </trkpt>
      <trkpt lat="51.357881" lon="6.680362">
        <ele>31.014558</ele>
        <time>2022-01-09T14:55:02.335Z</time>
      </trkpt>
      <trkpt lat="51.357632" lon="6.679045">
        <ele>30.488033</ele>
        <time>2022-01-09T14:55:19.159Z</time>
      </trkpt>
      <trkpt lat="51.357362" lon="6.677894">
        <ele>30.051246</ele>
        <time>2022-01-09T14:55:34.507Z</time>
      </trkpt>
      <trkpt lat="51.357302" lon="6.677642">
        <ele>29.955437</ele>
        <time>2022-01-09T14:55:37.935Z</time>
      </trkpt>
      <trkpt lat="51.356403" lon="6.674589">
        <ele>29.909096</ele>
        <time>2022-01-09T14:56:26.026Z</time>
      </trkpt>
      <trkpt lat="51.356312" lon="6.674435">
        <ele>29.862915</ele>
        <time>2022-01-09T14:56:29.035Z</time>
      </trkpt>
      <trkpt lat="51.356123" lon="6.674359">
        <ele>29.794945</ele>
        <time>2022-01-09T14:56:33.284Z</time>
      </trkpt>
      <trkpt lat="51.356146" lon="6.674341">
        <ele>29.786015</ele>
        <time>2022-01-09T14:56:34.032Z</time>
      </trkpt>
      <trkpt lat="51.356384" lon="6.674165">
        <ele>29.694576</ele>
        <time>2022-01-09T14:56:41.479Z</time>
      </trkpt>
      <trkpt lat="51.356250" lon="6.673700">
        <ele>29.583027</ele>
        <time>2022-01-09T14:56:48.376Z</time>
      </trkpt>
      <trkpt lat="51.356089" lon="6.673129">
        <ele>29.446563</ele>
        <time>2022-01-09T14:56:56.677Z</time>
      </trkpt>
      <trkpt lat="51.355626" lon="6.671512">
        <ele>29.299790</ele>
        <time>2022-01-09T14:57:20.256Z</time>
      </trkpt>
      <trkpt lat="51.355150" lon="6.669921">
        <ele>29.318722</ele>
        <time>2022-01-09T14:57:46.301Z</time>
      </trkpt>
      <trkpt lat="51.354454" lon="6.667496">
        <ele>31.434117</ele>
        <time>2022-01-09T14:58:34.411Z</time>
      </trkpt>
      <trkpt lat="51.354098" lon="6.666513">
        <ele>32.181830</ele>
        <time>2022-01-09T14:58:55.135Z</time>
      </trkpt>
      <trkpt lat="51.353850" lon="6.665973">
        <ele>32.607711</ele>
        <time>2022-01-09T14:59:06.582Z</time>
      </trkpt>
      <trkpt lat="51.353371" lon="6.665117">
        <ele>33.337973</ele>
        <time>2022-01-09T14:59:25.204Z</time>
      </trkpt>
      <trkpt lat="51.353011" lon="6.664512">
        <ele>33.497354</ele>
        <time>2022-01-09T14:59:38.302Z</time>
      </trkpt>
      <trkpt lat="51.352980" lon="6.664297">
        <ele>33.527927</ele>
        <time>2022-01-09T14:59:41.706Z</time>
      </trkpt>
      <trkpt lat="51.352944" lon="6.664223">
        <ele>33.540924</ele>
        <time>2022-01-09T14:59:43.173Z</time>
      </trkpt>
      <trkpt lat="51.347990" lon="6.655899">
        <ele>34.708309</ele>
        <time>2022-01-09T15:02:27.734Z</time>
      </trkpt>
      <trkpt lat="51.347633" lon="6.655136">
        <ele>34.548545</ele>
        <time>2022-01-09T15:02:40.158Z</time>
      </trkpt>
      <trkpt lat="51.347622" lon="6.655104">
        <ele>34.542423</ele>
        <time>2022-01-09T15:02:40.634Z</time>
      </trkpt>
      <trkpt lat="51.347352" lon="6.654251">
        <ele>34.362142</ele>
        <time>2022-01-09T15:02:52.714Z</time>
      </trkpt>
      <trkpt lat="51.347152" lon="6.652937">
        <ele>33.883011</ele>
        <time>2022-01-09T15:03:09.443Z</time>
      </trkpt>
      <trkpt lat="51.347052" lon="6.649836">
        <ele>33.235416</ele>
        <time>2022-01-09T15:03:50.056Z</time>
      </trkpt>
      <trkpt lat="51.347257" lon="6.649513">
        <ele>33.195917</ele>
        <time>2022-01-09T15:03:56.729Z</time>
      </trkpt>
      <trkpt lat="51.347277" lon="6.649497">
        <ele>33.192846</ele>
        <time>2022-01-09T15:03:57.217Z</time>
      </trkpt>
      <trkpt lat="51.347493" lon="6.649355">
        <ele>33.160780</ele>
        <time>2022-01-09T15:04:02.784Z</time>
      </trkpt>
      <trkpt lat="51.347676" lon="6.649374">
        <ele>33.135596</ele>
        <time>2022-01-09T15:04:07.075Z</time>
      </trkpt>
      <trkpt lat="51.347793" lon="6.649387">
        <ele>33.153343</ele>
        <time>2022-01-09T15:04:09.955Z</time>
      </trkpt>
      <trkpt lat="51.347881" lon="6.649419">
        <ele>33.172103</ele>
        <time>2022-01-09T15:04:12.212Z</time>
      </trkpt>
      <trkpt lat="51.348110" lon="6.649617">
        <ele>33.226208</ele>
        <time>2022-01-09T15:04:18.548Z</time>
      </trkpt>
      <trkpt lat="51.348190" lon="6.649743">
        <ele>33.249537</ele>
        <time>2022-01-09T15:04:21.408Z</time>
      </trkpt>
      <trkpt lat="51.348257" lon="6.649855">
        <ele>33.269674</ele>
        <time>2022-01-09T15:04:23.741Z</time>
      </trkpt>
      <trkpt lat="51.348277" lon="6.650046">
        <ele>33.294820</ele>
        <time>2022-01-09T15:04:27.068Z</time>
      </trkpt>
      <trkpt lat="51.348452" lon="6.652146">
        <ele>33.587491</ele>
        <time>2022-01-09T15:04:56.597Z</time>
      </trkpt>
      <trkpt lat="51.348464" lon="6.652301">
        <ele>33.613428</ele>
        <time>2022-01-09T15:04:58.779Z</time>
      </trkpt>
      <trkpt lat="51.348477" lon="6.652450">
        <ele>33.638411</ele>
        <time>2022-01-09T15:05:00.812Z</time>
      </trkpt>
      <trkpt lat="51.348585" lon="6.652677">
        <ele>33.685798</ele>
        <time>2022-01-09T15:05:07.375Z</time>
      </trkpt>
      <trkpt lat="51.348703" lon="6.654337">
        <ele>33.963240</ele>
        <time>2022-01-09T15:05:48.207Z</time>
      </trkpt>
      <trkpt lat="51.348771" lon="6.654653">
        <ele>34.003186</ele>
        <time>2022-01-09T15:05:56.298Z</time>
      </trkpt>
      <trkpt lat="51.349024" lon="6.654709">
        <ele>34.039698</ele>
        <time>2022-01-09T15:06:05.815Z</time>
      </trkpt>
      <trkpt lat="51.349510" lon="6.654173">
        <ele>34.124064</ele>
        <time>2022-01-09T15:06:28.507Z</time>
      </trkpt>
      <trkpt lat="51.349598" lon="6.654191">
        <ele>34.136746</ele>
        <time>2022-01-09T15:06:31.779Z</time>
      </trkpt>
      <trkpt lat="51.350050" lon="6.653449">
        <ele>34.229291</ele>
        <time>2022-01-09T15:06:46.833Z</time>
      </trkpt>
      <trkpt lat="51.350088" lon="6.653389">
        <ele>34.236920</ele>
        <time>2022-01-09T15:06:48.077Z</time>
      </trkpt>
      <trkpt lat="51.350420" lon="6.652531">
        <ele>33.645214</ele>
        <time>2022-01-09T15:07:02.359Z</time>
      </trkpt>
      <trkpt lat="51.350809" lon="6.652915">
        <ele>33.185361</ele>
        <time>2022-01-09T15:07:11.584Z</time>
      </trkpt>
      <trkpt lat="51.351251" lon="6.652912">
        <ele>32.740587</ele>
        <time>2022-01-09T15:07:19.949Z</time>
      </trkpt>
      <trkpt lat="51.351359" lon="6.652915">
        <ele>32.631893</ele>
        <time>2022-01-09T15:07:21.938Z</time>
      </trkpt>
      <trkpt lat="51.351858" lon="6.652882">
        <ele>31.897324</ele>
        <time>2022-01-09T15:07:31.242Z</time>
      </trkpt>
      <trkpt lat="51.351923" lon="6.652879">
        <ele>31.781779</ele>
        <time>2022-01-09T15:07:32.468Z</time>
      </trkpt>
      <trkpt lat="51.352381" lon="6.652899">
        <ele>30.967670</ele>
        <time>2022-01-09T15:07:40.985Z</time>
      </trkpt>
      <trkpt lat="51.352781" lon="6.652884">
        <ele>30.256727</ele>
        <time>2022-01-09T15:07:48.162Z</time>
      </trkpt>
      <trkpt lat="51.353652" lon="6.652680">
        <ele>29.189569</ele>
        <time>2022-01-09T15:08:03.947Z</time>
      </trkpt>
      <trkpt lat="51.354119" lon="6.652482">
        <ele>29.115716</ele>
        <time>2022-01-09T15:08:12.773Z</time>
      </trkpt>
      <trkpt lat="51.355547" lon="6.651932">
        <ele>30.014015</ele>
        <time>2022-01-09T15:08:50.836Z</time>
      </trkpt>
      <trkpt lat="51.355794" lon="6.651692">
        <ele>30.676314</ele>
        <time>2022-01-09T15:09:00.572Z</time>
      </trkpt>
      <trkpt lat="51.356652" lon="6.650942">
        <ele>32.917123</ele>
        <time>2022-01-09T15:09:34.932Z</time>
      </trkpt>
      <trkpt lat="51.356756" lon="6.650844">
        <ele>33.121559</ele>
        <time>2022-01-09T15:09:38.866Z</time>
      </trkpt>
      <trkpt lat="51.356783" lon="6.650698">
        <ele>33.195455</ele>
        <time>2022-01-09T15:09:42.266Z</time>
      </trkpt>
      <trkpt lat="51.356783" lon="6.650690">
        <ele>33.199338</ele>
        <time>2022-01-09T15:09:42.458Z</time>
      </trkpt>
      <trkpt lat="51.356775" lon="6.650592">
        <ele>33.247302</ele>
        <time>2022-01-09T15:09:45.109Z</time>
      </trkpt>
      <trkpt lat="51.356869" lon="6.650580">
        <ele>33.320586</ele>
        <time>2022-01-09T15:09:48.210Z</time>
      </trkpt>
      <trkpt lat="51.356897" lon="6.650576">
        <ele>33.342433</ele>
        <time>2022-01-09T15:09:49.077Z</time>
      </trkpt>
      <trkpt lat="51.357227" lon="6.650534">
        <ele>33.599701</ele>
        <time>2022-01-09T15:09:59.617Z</time>
      </trkpt>
      <trkpt lat="51.358838" lon="6.650295">
        <ele>33.879909</ele>
        <time>2022-01-09T15:10:33.838Z</time>
      </trkpt>
      <trkpt lat="51.358985" lon="6.650516">
        <ele>33.627976</ele>
        <time>2022-01-09T15:10:37.409Z</time>
      </trkpt>
      <trkpt lat="51.359040" lon="6.650599">
        <ele>33.533549</ele>
        <time>2022-01-09T15:10:38.746Z</time>
      </trkpt>
      <trkpt lat="51.359440" lon="6.651174">
        <ele>32.861929</ele>
        <time>2022-01-09T15:10:48.360Z</time>
      </trkpt>
      <trkpt lat="51.359929" lon="6.651449">
        <ele>32.219545</ele>
        <time>2022-01-09T15:10:57.792Z</time>
      </trkpt>
      <trkpt lat="51.360174" lon="6.651576">
        <ele>31.979021</ele>
        <time>2022-01-09T15:11:02.489Z</time>
      </trkpt>
      <trkpt lat="51.361213" lon="6.652114">
        <ele>30.959109</ele>
        <time>2022-01-09T15:11:23.646Z</time>
      </trkpt>
      <trkpt lat="51.361447" lon="6.652308">
        <ele>30.712999</ele>
        <time>2022-01-09T15:11:29.113Z</time>
      </trkpt>
      <trkpt lat="51.361659" lon="6.652805">
        <ele>30.492128</ele>
        <time>2022-01-09T15:11:37.030Z</time>
      </trkpt>
      <trkpt lat="51.361887" lon="6.653273">
        <ele>30.379405</ele>
        <time>2022-01-09T15:11:44.853Z</time>
      </trkpt>
      <trkpt lat="51.362169" lon="6.653673">
        <ele>30.264840</ele>
        <time>2022-01-09T15:11:52.829Z</time>
      </trkpt>
      <trkpt lat="51.363128" lon="6.654503">
        <ele>29.898436</ele>
        <time>2022-01-09T15:12:16.193Z</time>
      </trkpt>
      <trkpt lat="51.363974" lon="6.655379">
        <ele>29.448858</ele>
        <time>2022-01-09T15:12:36.918Z</time>
      </trkpt>
      <trkpt lat="51.364637" lon="6.656183">
        <ele>29.157452</ele>
        <time>2022-01-09T15:12:53.906Z</time>
      </trkpt>
      <trkpt lat="51.365242" lon="6.657043">
        <ele>29.022090</ele>
        <time>2022-01-09T15:13:11.169Z</time>
      </trkpt>
      <trkpt lat="51.365759" lon="6.657880">
        <ele>28.910577</ele>
        <time>2022-01-09T15:13:27.736Z</time>
      </trkpt>
      <trkpt lat="51.366569" lon="6.659453">
        <ele>29.167354</ele>
        <time>2022-01-09T15:13:56.886Z</time>
      </trkpt>
      <trkpt lat="51.367804" lon="6.662311">
        <ele>30.537289</ele>
        <time>2022-01-09T15:14:48.080Z</time>
      </trkpt>
      <trkpt lat="51.368268" lon="6.662855">
        <ele>31.753831</ele>
        <time>2022-01-09T15:15:07.742Z</time>
      </trkpt>
      <trkpt lat="51.368546" lon="6.663039">
        <ele>32.501423</ele>
        <time>2022-01-09T15:15:17.933Z</time>
      </trkpt>
      <trkpt lat="51.368779" lon="6.663162">
        <ele>33.111149</ele>
        <time>2022-01-09T15:15:26.120Z</time>
      </trkpt>
      <trkpt lat="51.369189" lon="6.663605">
        <ele>34.340305</ele>
        <time>2022-01-09T15:15:42.641Z</time>
      </trkpt>
      <trkpt lat="51.369288" lon="6.663756">
        <ele>34.680061</ele>
        <time>2022-01-09T15:15:47.248Z</time>
      </trkpt>
      <trkpt lat="51.369524" lon="6.664150">
        <ele>35.190324</ele>
        <time>2022-01-09T15:15:58.429Z</time>
      </trkpt>
      <trkpt lat="51.369673" lon="6.664331">
        <ele>35.287842</ele>
        <time>2022-01-09T15:16:04.013Z</time>
      </trkpt>
      <trkpt lat="51.370028" lon="6.664547">
        <ele>35.485873</ele>
        <time>2022-01-09T15:16:15.255Z</time>
      </trkpt>
      <trkpt lat="51.370542" lon="6.664787">
        <ele>35.765070</ele>
        <time>2022-01-09T15:16:28.483Z</time>
      </trkpt>
      <trkpt lat="51.370872" lon="6.664729">
        <ele>35.938192</ele>
        <time>2022-01-09T15:16:35.039Z</time>
      </trkpt>
      <trkpt lat="51.371236" lon="6.664606">
        <ele>35.909140</ele>
        <time>2022-01-09T15:16:41.779Z</time>
      </trkpt>
      <trkpt lat="51.371550" lon="6.664670">
        <ele>35.679914</ele>
        <time>2022-01-09T15:16:47.759Z</time>
      </trkpt>
      <trkpt lat="51.371942" lon="6.665050">
        <ele>35.348102</ele>
        <time>2022-01-09T15:16:56.764Z</time>
      </trkpt>
      <trkpt lat="51.372214" lon="6.665521">
        <ele>35.058035</ele>
        <time>2022-01-09T15:17:04.896Z</time>
      </trkpt>
      <trkpt lat="51.372364" lon="6.665899">
        <ele>34.855547</ele>
        <time>2022-01-09T15:17:10.775Z</time>
      </trkpt>
      <trkpt lat="51.372575" lon="6.666203">
        <ele>34.702315</ele>
        <time>2022-01-09T15:17:17.046Z</time>
      </trkpt>
      <trkpt lat="51.372719" lon="6.666388">
        <ele>34.649681</ele>
        <time>2022-01-09T15:17:21.128Z</time>
      </trkpt>
      <trkpt lat="51.373314" lon="6.667150">
        <ele>34.432473</ele>
        <time>2022-01-09T15:17:37.182Z</time>
      </trkpt>
      <trkpt lat="51.373819" lon="6.667828">
        <ele>34.244596</ele>
        <time>2022-01-09T15:17:51.239Z</time>
      </trkpt>
      <trkpt lat="51.373996" lon="6.668365">
        <ele>34.042561</ele>
        <time>2022-01-09T15:17:59.100Z</time>
      </trkpt>
      <trkpt lat="51.374081" lon="6.668777">
        <ele>33.881831</ele>
        <time>2022-01-09T15:18:04.619Z</time>
      </trkpt>
      <trkpt lat="51.374111" lon="6.668921">
        <ele>33.825600</ele>
        <time>2022-01-09T15:18:06.567Z</time>
      </trkpt>
      <trkpt lat="51.374214" lon="6.669297">
        <ele>33.673503</ele>
        <time>2022-01-09T15:18:11.716Z</time>
      </trkpt>
      <trkpt lat="51.375566" lon="6.672804">
        <ele>31.762263</ele>
        <time>2022-01-09T15:19:02.949Z</time>
      </trkpt>
      <trkpt lat="51.375596" lon="6.672881">
        <ele>31.715837</ele>
        <time>2022-01-09T15:19:03.917Z</time>
      </trkpt>
      <trkpt lat="51.375767" lon="6.673121">
        <ele>31.506729</ele>
        <time>2022-01-09T15:19:08.392Z</time>
      </trkpt>
      <trkpt lat="51.376012" lon="6.673321">
        <ele>31.247748</ele>
        <time>2022-01-09T15:19:13.624Z</time>
      </trkpt>
      <trkpt lat="51.376401" lon="6.673424">
        <ele>30.876403</ele>
        <time>2022-01-09T15:19:21.153Z</time>
      </trkpt>
      <trkpt lat="51.376417" lon="6.673574">
        <ele>30.786940</ele>
        <time>2022-01-09T15:19:24.341Z</time>
      </trkpt>
      <trkpt lat="51.376457" lon="6.674777">
        <ele>30.078698</ele>
        <time>2022-01-09T15:19:49.548Z</time>
      </trkpt>
      <trkpt lat="51.377746" lon="6.677528">
        <ele>29.160106</ele>
        <time>2022-01-09T15:21:06.192Z</time>
      </trkpt>
      <trkpt lat="51.376924" lon="6.678402">
        <ele>28.949994</ele>
        <time>2022-01-09T15:21:34.496Z</time>
      </trkpt>
      <trkpt lat="51.377192" lon="6.680868">
        <ele>28.803609</ele>
        <time>2022-01-09T15:22:19.340Z</time>
      </trkpt>
      <trkpt lat="51.377404" lon="6.682146">
        <ele>28.793505</ele>
        <time>2022-01-09T15:22:43.523Z</time>
      </trkpt>
      <trkpt lat="51.377434" lon="6.683009">
        <ele>29.003084</ele>
        <time>2022-01-09T15:23:00.035Z</time>
      </trkpt>
      <trkpt lat="51.377439" lon="6.683043">
        <ele>29.011554</ele>
        <time>2022-01-09T15:23:00.720Z</time>
      </trkpt>
      <trkpt lat="51.377829" lon="6.684634">
        <ele>29.426011</ele>
        <time>2022-01-09T15:23:34.275Z</time>
      </trkpt>
      <trkpt lat="51.378048" lon="6.685839">
        <ele>29.474962</ele>
        <time>2022-01-09T15:23:58.120Z</time>
      </trkpt>
      <trkpt lat="51.378133" lon="6.685928">
        <ele>29.474051</ele>
        <time>2022-01-09T15:24:01.194Z</time>
      </trkpt>
      <trkpt lat="51.378723" lon="6.689389">
        <ele>29.237728</ele>
        <time>2022-01-09T15:25:04.831Z</time>
      </trkpt>
      <trkpt lat="51.378817" lon="6.689921">
        <ele>29.171649</ele>
        <time>2022-01-09T15:25:14.484Z</time>
      </trkpt>
      <trkpt lat="51.378876" lon="6.690259">
        <ele>29.129704</ele>
        <time>2022-01-09T15:25:19.638Z</time>
      </trkpt>
      <trkpt lat="51.379557" lon="6.694250">
        <ele>29.688612</ele>
        <time>2022-01-09T15:26:25.184Z</time>
      </trkpt>
      <trkpt lat="51.379733" lon="6.694689">
        <ele>29.833896</ele>
        <time>2022-01-09T15:26:35.630Z</time>
      </trkpt>
      <trkpt lat="51.379831" lon="6.694909">
        <ele>29.909156</ele>
        <time>2022-01-09T15:26:41.104Z</time>
      </trkpt>
      <trkpt lat="51.379730" lon="6.695049">
        <ele>29.968737</ele>
        <time>2022-01-09T15:26:44.485Z</time>
      </trkpt>
      <trkpt lat="51.379780" lon="6.696044">
        <ele>30.208486</ele>
        <time>2022-01-09T15:27:00.229Z</time>
      </trkpt>
      <trkpt lat="51.380492" lon="6.699488">
        <ele>30.367683</ele>
        <time>2022-01-09T15:27:51.800Z</time>
      </trkpt>
      <trkpt lat="51.380564" lon="6.699858">
        <ele>30.282500</ele>
        <time>2022-01-09T15:27:56.545Z</time>
      </trkpt>
      <trkpt lat="51.380674" lon="6.700369">
        <ele>30.163696</ele>
        <time>2022-01-09T15:28:03.370Z</time>
      </trkpt>
      <trkpt lat="51.380800" lon="6.700911">
        <ele>30.036576</ele>
        <time>2022-01-09T15:28:10.659Z</time>
      </trkpt>
      <trkpt lat="51.380862" lon="6.701192">
        <ele>29.971070</ele>
        <time>2022-01-09T15:28:14.498Z</time>
      </trkpt>
      <trkpt lat="51.380973" lon="6.701627">
        <ele>29.879622</ele>
        <time>2022-01-09T15:28:20.711Z</time>
      </trkpt>
      <trkpt lat="51.380841" lon="6.701932">
        <ele>29.808089</ele>
        <time>2022-01-09T15:28:25.478Z</time>
      </trkpt>
      <trkpt lat="51.380979" lon="6.702446">
        <ele>29.700248</ele>
        <time>2022-01-09T15:28:35.152Z</time>
      </trkpt>
      <trkpt lat="51.381305" lon="6.703693">
        <ele>29.439679</ele>
        <time>2022-01-09T15:28:59.568Z</time>
      </trkpt>
      <trkpt lat="51.381367" lon="6.703935">
        <ele>29.398775</ele>
        <time>2022-01-09T15:29:04.313Z</time>
      </trkpt>
      <trkpt lat="51.381878" lon="6.706293">
        <ele>29.154848</ele>
        <time>2022-01-09T15:29:49.489Z</time>
      </trkpt>
      <trkpt lat="51.382127" lon="6.707419">
        <ele>28.759684</ele>
        <time>2022-01-09T15:30:10.063Z</time>
      </trkpt>
      <trkpt lat="51.382438" lon="6.709267">
        <ele>27.986379</ele>
        <time>2022-01-09T15:30:41.620Z</time>
      </trkpt>
      <trkpt lat="51.382653" lon="6.710071">
        <ele>27.998918</ele>
        <time>2022-01-09T15:30:56.697Z</time>
      </trkpt>
      <trkpt lat="51.383134" lon="6.711394">
        <ele>28.067105</ele>
        <time>2022-01-09T15:31:24.552Z</time>
      </trkpt>
      <trkpt lat="51.383326" lon="6.711951">
        <ele>28.193732</ele>
        <time>2022-01-09T15:31:37.504Z</time>
      </trkpt>
      <trkpt lat="51.383764" lon="6.713127">
        <ele>29.583434</ele>
        <time>2022-01-09T15:32:07.991Z</time>
      </trkpt>
      <trkpt lat="51.383957" lon="6.713603">
        <ele>30.159442</ele>
        <time>2022-01-09T15:32:21.376Z</time>
      </trkpt>
      <trkpt lat="51.384062" lon="6.713803">
        <ele>30.424649</ele>
        <time>2022-01-09T15:32:27.750Z</time>
      </trkpt>
      <trkpt lat="51.384239" lon="6.713801">
        <ele>30.712449</ele>
        <time>2022-01-09T15:32:34.189Z</time>
      </trkpt>
      <trkpt lat="51.384319" lon="6.714257">
        <ele>31.134278</ele>
        <time>2022-01-09T15:32:43.365Z</time>
      </trkpt>
      <trkpt lat="51.385263" lon="6.716505">
        <ele>32.971087</ele>
        <time>2022-01-09T15:33:30.306Z</time>
      </trkpt>
      <trkpt lat="51.385295" lon="6.716578">
        <ele>32.951027</ele>
        <time>2022-01-09T15:33:31.529Z</time>
      </trkpt>
      <trkpt lat="51.386034" lon="6.718324">
        <ele>32.476622</ele>
        <time>2022-01-09T15:34:00.359Z</time>
      </trkpt>
      <trkpt lat="51.386209" lon="6.718877">
        <ele>32.337196</ele>
        <time>2022-01-09T15:34:08.390Z</time>
      </trkpt>
      <trkpt lat="51.386714" lon="6.720715">
        <ele>31.203140</ele>
        <time>2022-01-09T15:34:32.938Z</time>
      </trkpt>
      <trkpt lat="51.387026" lon="6.721852">
        <ele>30.665016</ele>
        <time>2022-01-09T15:34:49.648Z</time>
      </trkpt>
      <trkpt lat="51.387458" lon="6.723388">
        <ele>30.662075</ele>
        <time>2022-01-09T15:35:13.044Z</time>
      </trkpt>
      <trkpt lat="51.387823" lon="6.724197">
        <ele>30.680506</ele>
        <time>2022-01-09T15:35:28.993Z</time>
      </trkpt>
      <trkpt lat="51.388234" lon="6.724729">
        <ele>30.836538</ele>
        <time>2022-01-09T15:35:42.562Z</time>
      </trkpt>
      <trkpt lat="51.389067" lon="6.725487">
        <ele>31.119443</ele>
        <time>2022-01-09T15:36:05.796Z</time>
      </trkpt>
      <trkpt lat="51.389466" lon="6.725820">
        <ele>31.159768</ele>
        <time>2022-01-09T15:36:16.484Z</time>
      </trkpt>
      <trkpt lat="51.390831" lon="6.726997">
        <ele>30.918439</ele>
        <time>2022-01-09T15:36:50.980Z</time>
      </trkpt>
      <trkpt lat="51.391385" lon="6.727477">
        <ele>30.886097</ele>
        <time>2022-01-09T15:37:05.134Z</time>
      </trkpt>
      <trkpt lat="51.391485" lon="6.727564">
        <ele>30.881133</ele>
        <time>2022-01-09T15:37:07.758Z</time>
      </trkpt>
      <trkpt lat="51.391535" lon="6.727779">
        <ele>30.874887</ele>
        <time>2022-01-09T15:37:10.719Z</time>
      </trkpt>
      <trkpt lat="51.391614" lon="6.727806">
        <ele>30.871363</ele>
        <time>2022-01-09T15:37:12.568Z</time>
      </trkpt>
      <trkpt lat="51.391695" lon="6.727728">
        <ele>30.867240</ele>
        <time>2022-01-09T15:37:14.746Z</time>
      </trkpt>
      <trkpt lat="51.391923" lon="6.727850">
        <ele>30.856753</ele>
        <time>2022-01-09T15:37:20.214Z</time>
      </trkpt>
      <trkpt lat="51.392794" lon="6.728608">
        <ele>30.875963</ele>
        <time>2022-01-09T15:37:43.716Z</time>
      </trkpt>
      <trkpt lat="51.393440" lon="6.729173">
        <ele>30.945658</ele>
        <time>2022-01-09T15:38:01.523Z</time>
      </trkpt>
      <trkpt lat="51.393602" lon="6.729314">
        <ele>30.963116</ele>
        <time>2022-01-09T15:38:05.862Z</time>
      </trkpt>
      <trkpt lat="51.394292" lon="6.729844">
        <ele>30.871724</ele>
        <time>2022-01-09T15:38:23.082Z</time>
      </trkpt>
      <trkpt lat="51.394763" lon="6.729921">
        <ele>30.687220</ele>
        <time>2022-01-09T15:38:33.356Z</time>
      </trkpt>
      <trkpt lat="51.395126" lon="6.729768">
        <ele>30.540947</ele>
        <time>2022-01-09T15:38:41.280Z</time>
      </trkpt>
      <trkpt lat="51.395382" lon="6.729572">
        <ele>30.430383</ele>
        <time>2022-01-09T15:38:47.330Z</time>
      </trkpt>
      <trkpt lat="51.395680" lon="6.729345">
        <ele>30.302402</ele>
        <time>2022-01-09T15:38:54.534Z</time>
      </trkpt>
      <trkpt lat="51.396613" lon="6.728624">
        <ele>30.201080</ele>
        <time>2022-01-09T15:39:18.013Z</time>
      </trkpt>
      <trkpt lat="51.396895" lon="6.728405">
        <ele>30.170426</ele>
        <time>2022-01-09T15:39:25.337Z</time>
      </trkpt>
      <trkpt lat="51.397413" lon="6.728002">
        <ele>30.108258</ele>
        <time>2022-01-09T15:39:38.885Z</time>
      </trkpt>
      <trkpt lat="51.399683" lon="6.726246">
        <ele>29.763945</ele>
        <time>2022-01-09T15:40:35.597Z</time>
      </trkpt>
      <trkpt lat="51.399787" lon="6.726177">
        <ele>29.750058</ele>
        <time>2022-01-09T15:40:38.111Z</time>
      </trkpt>
      <trkpt lat="51.399799" lon="6.726203">
        <ele>29.747569</ele>
        <time>2022-01-09T15:40:38.545Z</time>
      </trkpt>
      <trkpt lat="51.399892" lon="6.726238">
        <ele>29.735783</ele>
        <time>2022-01-09T15:40:40.584Z</time>
      </trkpt>
      <trkpt lat="51.399939" lon="6.726053">
        <ele>29.720408</ele>
        <time>2022-01-09T15:40:43.306Z</time>
      </trkpt>
      <trkpt lat="51.400039" lon="6.725965">
        <ele>29.706333</ele>
        <time>2022-01-09T15:40:45.809Z</time>
      </trkpt>
      <trkpt lat="51.400120" lon="6.725904">
        <ele>29.695291</ele>
        <time>2022-01-09T15:40:47.778Z</time>
      </trkpt>
      <trkpt lat="51.400895" lon="6.725232">
        <ele>29.660591</ele>
        <time>2022-01-09T15:41:07.020Z</time>
      </trkpt>
      <trkpt lat="51.401534" lon="6.724450">
        <ele>29.683028</ele>
        <time>2022-01-09T15:41:25.468Z</time>
      </trkpt>
      <trkpt lat="51.401547" lon="6.724434">
        <ele>29.683485</ele>
        <time>2022-01-09T15:41:25.826Z</time>
      </trkpt>
      <trkpt lat="51.401585" lon="6.724388">
        <ele>29.684814</ele>
        <time>2022-01-09T15:41:26.908Z</time>
      </trkpt>
      <trkpt lat="51.401639" lon="6.724327">
        <ele>29.686658</ele>
        <time>2022-01-09T15:41:28.427Z</time>
      </trkpt>
      <trkpt lat="51.401995" lon="6.723926">
        <ele>29.749929</ele>
        <time>2022-01-09T15:41:38.704Z</time>
      </trkpt>
      <trkpt lat="51.402143" lon="6.723743">
        <ele>29.915239</ele>
        <time>2022-01-09T15:41:43.316Z</time>
      </trkpt>
      <trkpt lat="51.402232" lon="6.723630">
        <ele>30.015651</ele>
        <time>2022-01-09T15:41:46.493Z</time>
      </trkpt>
      <trkpt lat="51.402350" lon="6.723488">
        <ele>30.146146</ele>
        <time>2022-01-09T15:41:50.399Z</time>
      </trkpt>
      <trkpt lat="51.402681" lon="6.723079">
        <ele>30.515764</ele>
        <time>2022-01-09T15:42:01.720Z</time>
      </trkpt>
      <trkpt lat="51.402713" lon="6.723046">
        <ele>30.549415</ele>
        <time>2022-01-09T15:42:02.703Z</time>
      </trkpt>
      <trkpt lat="51.402817" lon="6.722939">
        <ele>30.658709</ele>
        <time>2022-01-09T15:42:06.159Z</time>
      </trkpt>
      <trkpt lat="51.403137" lon="6.723703">
        <ele>31.166422</ele>
        <time>2022-01-09T15:42:21.405Z</time>
      </trkpt>
      <trkpt lat="51.403242" lon="6.723833">
        <ele>31.283758</ele>
        <time>2022-01-09T15:42:25.300Z</time>
      </trkpt>
      <trkpt lat="51.403556" lon="6.723898">
        <ele>31.495145</ele>
        <time>2022-01-09T15:42:33.603Z</time>
      </trkpt>
      <trkpt lat="51.403674" lon="6.723888">
        <ele>31.573658</ele>
        <time>2022-01-09T15:42:36.718Z</time>
      </trkpt>
      <trkpt lat="51.403842" lon="6.723874">
        <ele>31.685434</ele>
        <time>2022-01-09T15:42:40.707Z</time>
      </trkpt>
      <trkpt lat="51.403986" lon="6.724702">
        <ele>32.041722</ele>
        <time>2022-01-09T15:42:55.164Z</time>
      </trkpt>
      <trkpt lat="51.404074" lon="6.725260">
        <ele>32.280286</ele>
        <time>2022-01-09T15:43:04.492Z</time>
      </trkpt>
      <trkpt lat="51.404168" lon="6.725826">
        <ele>32.461594</ele>
        <time>2022-01-09T15:43:13.222Z</time>
      </trkpt>
      <trkpt lat="51.404195" lon="6.725983">
        <ele>32.425654</ele>
        <time>2022-01-09T15:43:15.393Z</time>
      </trkpt>
      <trkpt lat="51.404629" lon="6.727952">
        <ele>31.964800</ele>
        <time>2022-01-09T15:43:43.493Z</time>
      </trkpt>
      <trkpt lat="51.404858" lon="6.728943">
        <ele>31.693041</ele>
        <time>2022-01-09T15:43:57.679Z</time>
      </trkpt>
      <trkpt lat="51.405196" lon="6.729796">
        <ele>31.395347</ele>
        <time>2022-01-09T15:44:11.117Z</time>
      </trkpt>
      <trkpt lat="51.405391" lon="6.730012">
        <ele>31.283414</ele>
        <time>2022-01-09T15:44:16.260Z</time>
      </trkpt>
      <trkpt lat="51.405797" lon="6.729868">
        <ele>31.087048</ele>
        <time>2022-01-09T15:44:25.275Z</time>
      </trkpt>
      <trkpt lat="51.405826" lon="6.730007">
        <ele>31.043871</ele>
        <time>2022-01-09T15:44:27.190Z</time>
      </trkpt>
      <trkpt lat="51.406065" lon="6.731152">
        <ele>30.846866</ele>
        <time>2022-01-09T15:44:43.570Z</time>
      </trkpt>
      <trkpt lat="51.406065" lon="6.731534">
        <ele>30.792109</ele>
        <time>2022-01-09T15:44:48.800Z</time>
      </trkpt>
      <trkpt lat="51.406232" lon="6.732393">
        <ele>30.663134</ele>
        <time>2022-01-09T15:45:01.239Z</time>
      </trkpt>
      <trkpt lat="51.406366" lon="6.732748">
        <ele>30.603655</ele>
        <time>2022-01-09T15:45:07.321Z</time>
      </trkpt>
      <trkpt lat="51.406824" lon="6.733779">
        <ele>30.788825</ele>
        <time>2022-01-09T15:45:26.254Z</time>
      </trkpt>
      <trkpt lat="51.406960" lon="6.734301">
        <ele>30.891555</ele>
        <time>2022-01-09T15:45:34.869Z</time>
      </trkpt>
      <trkpt lat="51.406835" lon="6.734808">
        <ele>30.990556</ele>
        <time>2022-01-09T15:45:43.238Z</time>
      </trkpt>
      <trkpt lat="51.406877" lon="6.734933">
        <ele>31.016340</ele>
        <time>2022-01-09T15:45:45.872Z</time>
      </trkpt>
      <trkpt lat="51.408108" lon="6.733746">
        <ele>31.442860</ele>
        <time>2022-01-09T15:46:24.614Z</time>
      </trkpt>
      <trkpt lat="51.409432" lon="6.732685">
        <ele>31.390520</ele>
        <time>2022-01-09T15:47:00.541Z</time>
      </trkpt>
      <trkpt lat="51.409869" lon="6.732163">
        <ele>31.218508</ele>
        <time>2022-01-09T15:47:13.176Z</time>
      </trkpt>
      <trkpt lat="51.410189" lon="6.731703">
        <ele>31.082847</ele>
        <time>2022-01-09T15:47:23.132Z</time>
      </trkpt>
      <trkpt lat="51.410411" lon="6.731385">
        <ele>30.978232</ele>
        <time>2022-01-09T15:47:29.832Z</time>
      </trkpt>
      <trkpt lat="51.410646" lon="6.732532">
        <ele>30.711755</ele>
        <time>2022-01-09T15:47:47.152Z</time>
      </trkpt>
      <trkpt lat="51.410978" lon="6.732550">
        <ele>30.594203</ele>
        <time>2022-01-09T15:47:54.726Z</time>
      </trkpt>
      <trkpt lat="51.411038" lon="6.732588">
        <ele>30.571374</ele>
        <time>2022-01-09T15:47:56.286Z</time>
      </trkpt>
      <trkpt lat="51.411177" lon="6.732609">
        <ele>30.521968</ele>
        <time>2022-01-09T15:47:59.591Z</time>
      </trkpt>
      <trkpt lat="51.411985" lon="6.731755">
        <ele>30.415362</ele>
        <time>2022-01-09T15:48:24.275Z</time>
      </trkpt>
      <trkpt lat="51.412190" lon="6.731526">
        <ele>30.406907</ele>
        <time>2022-01-09T15:48:30.258Z</time>
      </trkpt>
      <trkpt lat="51.412259" lon="6.731453">
        <ele>30.404110</ele>
        <time>2022-01-09T15:48:32.172Z</time>
      </trkpt>
      <trkpt lat="51.414418" lon="6.728978">
        <ele>30.263071</ele>
        <time>2022-01-09T15:49:37.117Z</time>
      </trkpt>
      <trkpt lat="51.418956" lon="6.722866">
        <ele>30.208515</ele>
        <time>2022-01-09T15:51:59.884Z</time>
      </trkpt>
      <trkpt lat="51.419039" lon="6.722753">
        <ele>30.338916</ele>
        <time>2022-01-09T15:52:02.680Z</time>
      </trkpt>
      <trkpt lat="51.419594" lon="6.722005">
        <ele>31.207205</ele>
        <time>2022-01-09T15:52:25.172Z</time>
      </trkpt>
      <trkpt lat="51.421151" lon="6.719914">
        <ele>35.644336</ele>
        <time>2022-01-09T15:54:05.249Z</time>
      </trkpt>
      <trkpt lat="51.423243" lon="6.717129">
        <ele>33.101261</ele>
        <time>2022-01-09T15:55:36.144Z</time>
      </trkpt>
      <trkpt lat="51.424139" lon="6.715943">
        <ele>31.059855</ele>
        <time>2022-01-09T15:56:12.028Z</time>
      </trkpt>
      <trkpt lat="51.425701" lon="6.713828">
        <ele>27.590921</ele>
        <time>2022-01-09T15:57:17.144Z</time>
      </trkpt>
      <trkpt lat="51.426260" lon="6.713234">
        <ele>26.892747</ele>
        <time>2022-01-09T15:57:39.681Z</time>
      </trkpt>
      <trkpt lat="51.426429" lon="6.712825">
        <ele>26.574216</ele>
        <time>2022-01-09T15:57:50.235Z</time>
      </trkpt>
      <trkpt lat="51.427744" lon="6.711558">
        <ele>25.860486</ele>
        <time>2022-01-09T15:58:45.709Z</time>
      </trkpt>
      <trkpt lat="51.427771" lon="6.711466">
        <ele>25.842545</ele>
        <time>2022-01-09T15:58:47.975Z</time>
      </trkpt>
      <trkpt lat="51.427815" lon="6.711318">
        <ele>25.813614</ele>
        <time>2022-01-09T15:58:51.660Z</time>
      </trkpt>
      <trkpt lat="51.427774" lon="6.710790">
        <ele>25.719733</ele>
        <time>2022-01-09T15:59:03.548Z</time>
      </trkpt>
      <trkpt lat="51.427896" lon="6.710122">
        <ele>25.666734</ele>
        <time>2022-01-09T15:59:19.178Z</time>
      </trkpt>
      <trkpt lat="51.428130" lon="6.710099">
        <ele>25.655318</ele>
        <time>2022-01-09T15:59:25.666Z</time>
      </trkpt>
      <trkpt lat="51.428171" lon="6.710089">
        <ele>25.653299</ele>
        <time>2022-01-09T15:59:26.528Z</time>
      </trkpt>
      <trkpt lat="51.428304" lon="6.710057">
        <ele>25.646750</ele>
        <time>2022-01-09T15:59:29.611Z</time>
      </trkpt>
      <trkpt lat="51.428583" lon="6.709989">
        <ele>25.633008</ele>
        <time>2022-01-09T15:59:36.017Z</time>
      </trkpt>
      <trkpt lat="51.428675" lon="6.709967">
        <ele>25.628479</ele>
        <time>2022-01-09T15:59:38.301Z</time>
      </trkpt>
      <trkpt lat="51.428839" lon="6.709927">
        <ele>25.620401</ele>
        <time>2022-01-09T15:59:42.343Z</time>
      </trkpt>
      <trkpt lat="51.428963" lon="6.709904">
        <ele>25.614323</ele>
        <time>2022-01-09T15:59:45.527Z</time>
      </trkpt>
      <trkpt lat="51.429312" lon="6.709919">
        <ele>25.597323</ele>
        <time>2022-01-09T15:59:53.513Z</time>
      </trkpt>
      <trkpt lat="51.429621" lon="6.709943">
        <ele>25.594303</ele>
        <time>2022-01-09T15:59:59.675Z</time>
      </trkpt>
      <trkpt lat="51.430147" lon="6.709983">
        <ele>25.595748</ele>
        <time>2022-01-09T16:00:10.320Z</time>
      </trkpt>
      <trkpt lat="51.430338" lon="6.710043">
        <ele>25.596282</ele>
        <time>2022-01-09T16:00:14.482Z</time>
      </trkpt>
      <trkpt lat="51.430497" lon="6.710093">
        <ele>25.596726</ele>
        <time>2022-01-09T16:00:18.245Z</time>
      </trkpt>
      <trkpt lat="51.430977" lon="6.710174">
        <ele>25.598050</ele>
        <time>2022-01-09T16:00:29.756Z</time>
      </trkpt>
      <trkpt lat="51.431025" lon="6.710160">
        <ele>25.598184</ele>
        <time>2022-01-09T16:00:30.981Z</time>
      </trkpt>
      <trkpt lat="51.431175" lon="6.710103">
        <ele>25.600525</ele>
        <time>2022-01-09T16:00:34.980Z</time>
      </trkpt>
      <trkpt lat="51.431341" lon="6.710007">
        <ele>25.678722</ele>
        <time>2022-01-09T16:00:39.455Z</time>
      </trkpt>
      <trkpt lat="51.432395" lon="6.709506">
        <ele>26.165869</ele>
        <time>2022-01-09T16:01:04.367Z</time>
      </trkpt>
      <trkpt lat="51.432698" lon="6.709388">
        <ele>26.304042</ele>
        <time>2022-01-09T16:01:12.190Z</time>
      </trkpt>
      <trkpt lat="51.432925" lon="6.709605">
        <ele>26.448414</ele>
        <time>2022-01-09T16:01:19.230Z</time>
      </trkpt>
      <trkpt lat="51.433169" lon="6.709736">
        <ele>26.684382</ele>
        <time>2022-01-09T16:01:25.992Z</time>
      </trkpt>
      <trkpt lat="51.433544" lon="6.709742">
        <ele>27.028303</ele>
        <time>2022-01-09T16:01:35.546Z</time>
      </trkpt>
      <trkpt lat="51.434292" lon="6.709611">
        <ele>27.718354</ele>
        <time>2022-01-09T16:01:55.139Z</time>
      </trkpt>
      <trkpt lat="51.434901" lon="6.709255">
        <ele>28.458111</ele>
        <time>2022-01-09T16:02:11.662Z</time>
      </trkpt>
      <trkpt lat="51.435088" lon="6.709210">
        <ele>28.725686</ele>
        <time>2022-01-09T16:02:16.857Z</time>
      </trkpt>
      <trkpt lat="51.435065" lon="6.708727">
        <ele>29.153000</ele>
        <time>2022-01-09T16:02:25.670Z</time>
      </trkpt>
      <trkpt lat="51.435065" lon="6.708658">
        <ele>29.213868</ele>
        <time>2022-01-09T16:02:26.824Z</time>
      </trkpt>
      <trkpt lat="51.435045" lon="6.708080">
        <ele>29.724530</ele>
        <time>2022-01-09T16:02:37.168Z</time>
      </trkpt>
      <trkpt lat="51.435139" lon="6.707996">
        <ele>29.876791</ele>
        <time>2022-01-09T16:02:40.202Z</time>
      </trkpt>
      <trkpt lat="51.435947" lon="6.707711">
        <ele>31.051636</ele>
        <time>2022-01-09T16:03:04.233Z</time>
      </trkpt>
      <trkpt lat="51.436062" lon="6.707670">
        <ele>31.219859</ele>
        <time>2022-01-09T16:03:07.976Z</time>
      </trkpt>
      <trkpt lat="51.436832" lon="6.707551">
        <ele>32.324483</ele>
        <time>2022-01-09T16:03:30.002Z</time>
      </trkpt>
      <trkpt lat="51.436830" lon="6.707417">
        <ele>32.443799</ele>
        <time>2022-01-09T16:03:32.311Z</time>
      </trkpt>
      <trkpt lat="51.436828" lon="6.707262">
        <ele>32.581803</ele>
        <time>2022-01-09T16:03:34.848Z</time>
      </trkpt>
      <trkpt lat="51.436765" lon="6.707263">
        <ele>32.671770</ele>
        <time>2022-01-09T16:03:36.740Z</time>
      </trkpt>
      <trkpt lat="51.436548" lon="6.707300">
        <ele>32.983384</ele>
        <time>2022-01-09T16:03:43.067Z</time>
      </trkpt>
      <trkpt lat="51.436400" lon="6.707319">
        <ele>33.136631</ele>
        <time>2022-01-09T16:03:47.156Z</time>
      </trkpt>
      <trkpt lat="51.436498" lon="6.706979">
        <ele>32.936101</ele>
        <time>2022-01-09T16:03:53.082Z</time>
      </trkpt>
      <trkpt lat="51.436306" lon="6.706147">
        <ele>32.461159</ele>
        <time>2022-01-09T16:04:04.881Z</time>
      </trkpt>
      <trkpt lat="51.436257" lon="6.706177">
        <ele>32.416119</ele>
        <time>2022-01-09T16:04:06.017Z</time>
      </trkpt>
      <trkpt lat="51.436334" lon="6.707197">
        <ele>31.866082</ele>
        <time>2022-01-09T16:04:17.641Z</time>
      </trkpt>
      <trkpt lat="51.436583" lon="6.708728">
        <ele>30.683812</ele>
        <time>2022-01-09T16:04:34.416Z</time>
      </trkpt>
      <trkpt lat="51.436734" lon="6.709656">
        <ele>29.881119</ele>
        <time>2022-01-09T16:04:44.727Z</time>
      </trkpt>
      <trkpt lat="51.438083" lon="6.718044">
        <ele>33.446994</ele>
        <time>2022-01-09T16:07:04.291Z</time>
      </trkpt>
      <trkpt lat="51.438279" lon="6.719243">
        <ele>33.935720</ele>
        <time>2022-01-09T16:07:24.281Z</time>
      </trkpt>
      <trkpt lat="51.438365" lon="6.719289">
        <ele>33.953336</ele>
        <time>2022-01-09T16:07:26.514Z</time>
      </trkpt>
      <trkpt lat="51.438398" lon="6.719135">
        <ele>33.973063</ele>
        <time>2022-01-09T16:07:28.975Z</time>
      </trkpt>
      <trkpt lat="51.438228" lon="6.717968">
        <ele>34.118236</ele>
        <time>2022-01-09T16:07:45.743Z</time>
      </trkpt>
      <trkpt lat="51.438795" lon="6.717945">
        <ele>34.228455</ele>
        <time>2022-01-09T16:08:01.814Z</time>
      </trkpt>
      <trkpt lat="51.439406" lon="6.717987">
        <ele>34.222214</ele>
        <time>2022-01-09T16:08:19.722Z</time>
      </trkpt>
      <trkpt lat="51.439816" lon="6.718015">
        <ele>34.214699</ele>
        <time>2022-01-09T16:08:31.548Z</time>
      </trkpt>
      <trkpt lat="51.441267" lon="6.718327">
        <ele>34.151587</ele>
        <time>2022-01-09T16:09:14.560Z</time>
      </trkpt>
      <trkpt lat="51.442242" lon="6.718633">
        <ele>34.079072</ele>
        <time>2022-01-09T16:09:43.629Z</time>
      </trkpt>
      <trkpt lat="51.443326" lon="6.719231">
        <ele>33.395056</ele>
        <time>2022-01-09T16:10:15.296Z</time>
      </trkpt>
      <trkpt lat="51.443968" lon="6.719698">
        <ele>32.922557</ele>
        <time>2022-01-09T16:10:33.542Z</time>
      </trkpt>
      <trkpt lat="51.444739" lon="6.720430">
        <ele>32.171510</ele>
        <time>2022-01-09T16:10:57.195Z</time>
      </trkpt>
      <trkpt lat="51.445143" lon="6.720908">
        <ele>31.741426</ele>
        <time>2022-01-09T16:11:10.628Z</time>
      </trkpt>
      <trkpt lat="51.446849" lon="6.723441">
        <ele>30.049909</ele>
        <time>2022-01-09T16:12:12.658Z</time>
      </trkpt>
      <trkpt lat="51.446942" lon="6.723695">
        <ele>30.021981</ele>
        <time>2022-01-09T16:12:17.960Z</time>
      </trkpt>
      <trkpt lat="51.446978" lon="6.723961">
        <ele>29.996177</ele>
        <time>2022-01-09T16:12:22.671Z</time>
      </trkpt>
      <trkpt lat="51.446919" lon="6.724277">
        <ele>29.964904</ele>
        <time>2022-01-09T16:12:28.697Z</time>
      </trkpt>
      <trkpt lat="51.446608" lon="6.724865">
        <ele>29.891793</ele>
        <time>2022-01-09T16:12:42.654Z</time>
      </trkpt>
      <trkpt lat="51.446439" lon="6.725122">
        <ele>29.856375</ele>
        <time>2022-01-09T16:12:49.635Z</time>
      </trkpt>
      <trkpt lat="51.445823" lon="6.726536">
        <ele>29.449167</ele>
        <time>2022-01-09T16:13:20.900Z</time>
      </trkpt>
      <trkpt lat="51.445472" lon="6.727605">
        <ele>29.021058</ele>
        <time>2022-01-09T16:13:41.377Z</time>
      </trkpt>
      <trkpt lat="51.445213" lon="6.728712">
        <ele>28.452283</ele>
        <time>2022-01-09T16:14:00.456Z</time>
      </trkpt>
      <trkpt lat="51.444803" lon="6.731313">
        <ele>26.712754</ele>
        <time>2022-01-09T16:14:43.136Z</time>
      </trkpt>
      <trkpt lat="51.443605" lon="6.735425">
        <ele>26.272180</ele>
        <time>2022-01-09T16:16:04.215Z</time>
      </trkpt>
      <trkpt lat="51.443384" lon="6.736121">
        <ele>26.315573</ele>
        <time>2022-01-09T16:16:19.485Z</time>
      </trkpt>
      <trkpt lat="51.443167" lon="6.736807">
        <ele>26.532492</ele>
        <time>2022-01-09T16:16:34.677Z</time>
      </trkpt>
      <trkpt lat="51.442613" lon="6.738758">
        <ele>27.320021</ele>
        <time>2022-01-09T16:17:07.581Z</time>
      </trkpt>
      <trkpt lat="51.442003" lon="6.738566">
        <ele>27.660896</ele>
        <time>2022-01-09T16:17:32.246Z</time>
      </trkpt>
      <trkpt lat="51.441879" lon="6.739566">
        <ele>28.003534</ele>
        <time>2022-01-09T16:17:48.336Z</time>
      </trkpt>
      <trkpt lat="51.441714" lon="6.739817">
        <ele>28.126125</ele>
        <time>2022-01-09T16:17:53.548Z</time>
      </trkpt>
      <trkpt lat="51.441657" lon="6.739880">
        <ele>28.163443</ele>
        <time>2022-01-09T16:17:55.125Z</time>
      </trkpt>
      <trkpt lat="51.441575" lon="6.739956">
        <ele>28.214499</ele>
        <time>2022-01-09T16:17:58.051Z</time>
      </trkpt>
      <trkpt lat="51.441645" lon="6.740572">
        <ele>28.445803</ele>
        <time>2022-01-09T16:18:09.693Z</time>
      </trkpt>
      <trkpt lat="51.441548" lon="6.741657">
        <ele>28.927415</ele>
        <time>2022-01-09T16:18:31.013Z</time>
      </trkpt>
      <trkpt lat="51.441606" lon="6.742180">
        <ele>29.160822</ele>
        <time>2022-01-09T16:18:41.875Z</time>
      </trkpt>
      <trkpt lat="51.441767" lon="6.742825">
        <ele>29.466105</ele>
        <time>2022-01-09T16:18:56.622Z</time>
      </trkpt>
      <trkpt lat="51.441793" lon="6.743182">
        <ele>29.624032</ele>
        <time>2022-01-09T16:19:03.647Z</time>
      </trkpt>
      <trkpt lat="51.441743" lon="6.743555">
        <ele>29.834270</ele>
        <time>2022-01-09T16:19:11.614Z</time>
      </trkpt>
      <trkpt lat="51.441455" lon="6.744424">
        <ele>30.377184</ele>
        <time>2022-01-09T16:19:31.262Z</time>
      </trkpt>
      <trkpt lat="51.441420" lon="6.744544">
        <ele>30.450268</ele>
        <time>2022-01-09T16:19:34.194Z</time>
      </trkpt>
      <trkpt lat="51.441386" lon="6.744745">
        <ele>30.565157</ele>
        <time>2022-01-09T16:19:38.390Z</time>
      </trkpt>
      <trkpt lat="51.441344" lon="6.745150">
        <ele>30.791639</ele>
        <time>2022-01-09T16:19:47.370Z</time>
      </trkpt>
      <trkpt lat="51.441288" lon="6.745267">
        <ele>30.873013</ele>
        <time>2022-01-09T16:19:50.301Z</time>
      </trkpt>
      <trkpt lat="51.441316" lon="6.745349">
        <ele>30.924590</ele>
        <time>2022-01-09T16:19:52.279Z</time>
      </trkpt>
      <trkpt lat="51.441343" lon="6.745611">
        <ele>31.071080</ele>
        <time>2022-01-09T16:19:58.133Z</time>
      </trkpt>
      <trkpt lat="51.441339" lon="6.745721">
        <ele>31.131862</ele>
        <time>2022-01-09T16:20:00.465Z</time>
      </trkpt>
      <trkpt lat="51.441354" lon="6.745905">
        <ele>31.219217</ele>
        <time>2022-01-09T16:20:04.175Z</time>
      </trkpt>
      <trkpt lat="51.441422" lon="6.746142">
        <ele>31.239857</ele>
        <time>2022-01-09T16:20:09.305Z</time>
      </trkpt>
      <trkpt lat="51.441474" lon="6.746111">
        <ele>31.246898</ele>
        <time>2022-01-09T16:20:10.998Z</time>
      </trkpt>
      <trkpt lat="51.441496" lon="6.746077">
        <ele>31.250775</ele>
        <time>2022-01-09T16:20:11.939Z</time>
      </trkpt>
      <trkpt lat="51.441603" lon="6.746021">
        <ele>31.265061</ele>
        <time>2022-01-09T16:20:15.346Z</time>
      </trkpt>
      <trkpt lat="51.441886" lon="6.746107">
        <ele>31.301619</ele>
        <time>2022-01-09T16:20:23.902Z</time>
      </trkpt>
      <trkpt lat="51.442464" lon="6.746386">
        <ele>31.378229</ele>
        <time>2022-01-09T16:20:37.633Z</time>
      </trkpt>
      <trkpt lat="51.442697" lon="6.746637">
        <ele>31.413850</ele>
        <time>2022-01-09T16:20:44.092Z</time>
      </trkpt>
      <trkpt lat="51.442746" lon="6.746805">
        <ele>31.428523</ele>
        <time>2022-01-09T16:20:46.767Z</time>
      </trkpt>
      <trkpt lat="51.442787" lon="6.747009">
        <ele>31.442238</ele>
        <time>2022-01-09T16:20:49.772Z</time>
      </trkpt>
      <trkpt lat="51.442889" lon="6.747151">
        <ele>31.345390</ele>
        <time>2022-01-09T16:20:52.726Z</time>
      </trkpt>
      <trkpt lat="51.442946" lon="6.747214">
        <ele>31.295751</ele>
        <time>2022-01-09T16:20:54.212Z</time>
      </trkpt>
      <trkpt lat="51.443011" lon="6.747270">
        <ele>31.242841</ele>
        <time>2022-01-09T16:20:55.764Z</time>
      </trkpt>
      <trkpt lat="51.443069" lon="6.747305">
        <ele>31.198401</ele>
        <time>2022-01-09T16:20:57.054Z</time>
      </trkpt>
      <trkpt lat="51.443143" lon="6.747327">
        <ele>31.144429</ele>
        <time>2022-01-09T16:20:58.637Z</time>
      </trkpt>
      <trkpt lat="51.443397" lon="6.747183">
        <ele>30.951236</ele>
        <time>2022-01-09T16:21:04.221Z</time>
      </trkpt>
      <trkpt lat="51.443451" lon="6.747097">
        <ele>30.896670</ele>
        <time>2022-01-09T16:21:05.784Z</time>
      </trkpt>
      <trkpt lat="51.443520" lon="6.746939">
        <ele>30.810436</ele>
        <time>2022-01-09T16:21:08.248Z</time>
      </trkpt>
      <trkpt lat="51.443575" lon="6.746786">
        <ele>30.731487</ele>
        <time>2022-01-09T16:21:10.450Z</time>
      </trkpt>
      <trkpt lat="51.443557" lon="6.746614">
        <ele>30.653529</ele>
        <time>2022-01-09T16:21:12.722Z</time>
      </trkpt>
      <trkpt lat="51.443541" lon="6.746470">
        <ele>30.588148</ele>
        <time>2022-01-09T16:21:14.545Z</time>
      </trkpt>
      <trkpt lat="51.443520" lon="6.746363">
        <ele>30.538006</ele>
        <time>2022-01-09T16:21:16.002Z</time>
      </trkpt>
      <trkpt lat="51.443599" lon="6.746173">
        <ele>30.435915</ele>
        <time>2022-01-09T16:21:18.783Z</time>
      </trkpt>
      <trkpt lat="51.444728" lon="6.745271">
        <ele>28.610450</ele>
        <time>2022-01-09T16:21:41.945Z</time>
      </trkpt>
      <trkpt lat="51.445077" lon="6.744989">
        <ele>27.916401</ele>
        <time>2022-01-09T16:21:48.370Z</time>
      </trkpt>
      <trkpt lat="51.445193" lon="6.744898">
        <ele>27.687058</ele>
        <time>2022-01-09T16:21:50.569Z</time>
      </trkpt>
      <trkpt lat="51.445231" lon="6.745015">
        <ele>27.541007</ele>
        <time>2022-01-09T16:21:51.978Z</time>
      </trkpt>
      <trkpt lat="51.445306" lon="6.744950">
        <ele>27.389603</ele>
        <time>2022-01-09T16:21:53.433Z</time>
      </trkpt>
      <trkpt lat="51.446322" lon="6.744123">
        <ele>27.249965</ele>
        <time>2022-01-09T16:22:15.555Z</time>
      </trkpt>
      <trkpt lat="51.446415" lon="6.744063">
        <ele>27.282297</ele>
        <time>2022-01-09T16:22:18.073Z</time>
      </trkpt>
      <trkpt lat="51.446489" lon="6.744006">
        <ele>27.308774</ele>
        <time>2022-01-09T16:22:20.124Z</time>
      </trkpt>
      <trkpt lat="51.447426" lon="6.743228">
        <ele>27.979127</ele>
        <time>2022-01-09T16:22:51.905Z</time>
      </trkpt>
      <trkpt lat="51.448096" lon="6.742891">
        <ele>28.894630</ele>
        <time>2022-01-09T16:23:19.756Z</time>
      </trkpt>
      <trkpt lat="51.448261" lon="6.742774">
        <ele>29.129838</ele>
        <time>2022-01-09T16:23:25.815Z</time>
      </trkpt>
      <trkpt lat="51.448288" lon="6.742754">
        <ele>29.168613</ele>
        <time>2022-01-09T16:23:26.889Z</time>
      </trkpt>
      <trkpt lat="51.448369" lon="6.742671">
        <ele>29.293924</ele>
        <time>2022-01-09T16:23:30.088Z</time>
      </trkpt>
      <trkpt lat="51.448682" lon="6.742355">
        <ele>29.776093</ele>
        <time>2022-01-09T16:23:40.859Z</time>
      </trkpt>
      <trkpt lat="51.448793" lon="6.742211">
        <ele>29.832319</ele>
        <time>2022-01-09T16:23:44.551Z</time>
      </trkpt>
      <trkpt lat="51.448848" lon="6.742137">
        <ele>29.766881</ele>
        <time>2022-01-09T16:23:45.881Z</time>
      </trkpt>
      <trkpt lat="51.448817" lon="6.742094">
        <ele>29.729522</ele>
        <time>2022-01-09T16:23:46.819Z</time>
      </trkpt>
      <trkpt lat="51.449308" lon="6.741425">
        <ele>29.142266</ele>
        <time>2022-01-09T16:23:58.735Z</time>
      </trkpt>
      <trkpt lat="51.449517" lon="6.741144">
        <ele>28.893675</ele>
        <time>2022-01-09T16:24:03.772Z</time>
      </trkpt>
      <trkpt lat="51.449873" lon="6.740665">
        <ele>28.470107</ele>
        <time>2022-01-09T16:24:12.548Z</time>
      </trkpt>
      <trkpt lat="51.449993" lon="6.740506">
        <ele>28.328226</ele>
        <time>2022-01-09T16:24:15.727Z</time>
      </trkpt>
      <trkpt lat="51.449969" lon="6.740446">
        <ele>28.287718</ele>
        <time>2022-01-09T16:24:16.555Z</time>
      </trkpt>
      <trkpt lat="51.449917" lon="6.740314">
        <ele>28.298416</ele>
        <time>2022-01-09T16:24:18.420Z</time>
      </trkpt>
      <trkpt lat="51.449893" lon="6.740253">
        <ele>28.344211</ele>
        <time>2022-01-09T16:24:19.318Z</time>
      </trkpt>
      <trkpt lat="51.449875" lon="6.740207">
        <ele>28.378691</ele>
        <time>2022-01-09T16:24:20.034Z</time>
      </trkpt>
      <trkpt lat="51.449746" lon="6.739868">
        <ele>28.630840</ele>
        <time>2022-01-09T16:24:25.458Z</time>
      </trkpt>
      <trkpt lat="51.449530" lon="6.739161">
        <ele>29.130686</ele>
        <time>2022-01-09T16:24:38.404Z</time>
      </trkpt>
      <trkpt lat="51.449411" lon="6.738406">
        <ele>29.625065</ele>
        <time>2022-01-09T16:24:53.057Z</time>
      </trkpt>
      <trkpt lat="51.449396" lon="6.737839">
        <ele>29.985332</ele>
        <time>2022-01-09T16:25:04.222Z</time>
      </trkpt>
      <trkpt lat="51.449444" lon="6.736998">
        <ele>30.166179</ele>
        <time>2022-01-09T16:25:19.081Z</time>
      </trkpt>
      <trkpt lat="51.449536" lon="6.735909">
        <ele>30.304763</ele>
        <time>2022-01-09T16:25:34.899Z</time>
      </trkpt>
      <trkpt lat="51.449572" lon="6.735552">
        <ele>30.350367</ele>
        <time>2022-01-09T16:25:39.290Z</time>
      </trkpt>
      <trkpt lat="51.449628" lon="6.735024">
        <ele>30.417907</ele>
        <time>2022-01-09T16:25:45.898Z</time>
      </trkpt>
      <trkpt lat="51.449800" lon="6.733472">
        <ele>30.131026</ele>
        <time>2022-01-09T16:26:04.865Z</time>
      </trkpt>
      <trkpt lat="51.449918" lon="6.732737">
        <ele>29.960547</ele>
        <time>2022-01-09T16:26:14.707Z</time>
      </trkpt>
      <trkpt lat="51.450058" lon="6.732472">
        <ele>29.882516</ele>
        <time>2022-01-09T16:26:19.653Z</time>
      </trkpt>
      <trkpt lat="51.450341" lon="6.732114">
        <ele>29.893165</ele>
        <time>2022-01-09T16:26:28.419Z</time>
      </trkpt>
      <trkpt lat="51.450452" lon="6.732002">
        <ele>30.007209</ele>
        <time>2022-01-09T16:26:32.756Z</time>
      </trkpt>
      <trkpt lat="51.450688" lon="6.731800">
        <ele>30.239849</ele>
        <time>2022-01-09T16:26:41.644Z</time>
      </trkpt>
      <trkpt lat="51.451202" lon="6.731828">
        <ele>30.687166</ele>
        <time>2022-01-09T16:26:59.124Z</time>
      </trkpt>
      <trkpt lat="51.451275" lon="6.731826">
        <ele>30.750668</ele>
        <time>2022-01-09T16:27:01.628Z</time>
      </trkpt>
      <trkpt lat="51.451356" lon="6.731754">
        <ele>30.831206</ele>
        <time>2022-01-09T16:27:04.596Z</time>
      </trkpt>
      <trkpt lat="51.451591" lon="6.731601">
        <ele>31.051783</ele>
        <time>2022-01-09T16:27:13.235Z</time>
      </trkpt>
      <trkpt lat="51.451969" lon="6.731344">
        <ele>31.377361</ele>
        <time>2022-01-09T16:27:26.641Z</time>
      </trkpt>
      <trkpt lat="51.452218" lon="6.731149">
        <ele>31.468522</ele>
        <time>2022-01-09T16:27:35.490Z</time>
      </trkpt>
      <trkpt lat="51.452344" lon="6.731049">
        <ele>31.514772</ele>
        <time>2022-01-09T16:27:39.901Z</time>
      </trkpt>
      <trkpt lat="51.452607" lon="6.730843">
        <ele>31.611062</ele>
        <time>2022-01-09T16:27:49.064Z</time>
      </trkpt>
      <trkpt lat="51.453017" lon="6.730517">
        <ele>31.761612</ele>
        <time>2022-01-09T16:27:59.824Z</time>
      </trkpt>
      <trkpt lat="51.453496" lon="6.730142">
        <ele>31.936967</ele>
        <time>2022-01-09T16:28:11.833Z</time>
      </trkpt>
      <trkpt lat="51.453705" lon="6.730067">
        <ele>31.845091</ele>
        <time>2022-01-09T16:28:16.371Z</time>
      </trkpt>
      <trkpt lat="51.453792" lon="6.730030">
        <ele>31.791007</ele>
        <time>2022-01-09T16:28:18.222Z</time>
      </trkpt>
      <trkpt lat="51.453978" lon="6.730018">
        <ele>31.679147</ele>
        <time>2022-01-09T16:28:22.354Z</time>
      </trkpt>
      <trkpt lat="51.454443" lon="6.729768">
        <ele>31.384459</ele>
        <time>2022-01-09T16:28:32.643Z</time>
      </trkpt>
      <trkpt lat="51.454544" lon="6.729717">
        <ele>31.320833</ele>
        <time>2022-01-09T16:28:34.876Z</time>
      </trkpt>
      <trkpt lat="51.454645" lon="6.729681">
        <ele>31.258662</ele>
        <time>2022-01-09T16:28:37.096Z</time>
      </trkpt>
      <trkpt lat="51.454670" lon="6.729459">
        <ele>31.174188</ele>
        <time>2022-01-09T16:28:39.971Z</time>
      </trkpt>
      <trkpt lat="51.455038" lon="6.728833">
        <ele>30.824904</ele>
        <time>2022-01-09T16:28:51.352Z</time>
      </trkpt>
      <trkpt lat="51.455282" lon="6.728631">
        <ele>30.401077</ele>
        <time>2022-01-09T16:28:56.812Z</time>
      </trkpt>
      <trkpt lat="51.455448" lon="6.728472">
        <ele>30.102653</ele>
        <time>2022-01-09T16:29:00.539Z</time>
      </trkpt>
      <trkpt lat="51.455736" lon="6.728334">
        <ele>29.638675</ele>
        <time>2022-01-09T16:29:06.197Z</time>
      </trkpt>
      <trkpt lat="51.456097" lon="6.728328">
        <ele>29.081372</ele>
        <time>2022-01-09T16:29:12.748Z</time>
      </trkpt>
      <trkpt lat="51.456568" lon="6.728346">
        <ele>28.354087</ele>
        <time>2022-01-09T16:29:21.508Z</time>
      </trkpt>
      <trkpt lat="51.456738" lon="6.728348">
        <ele>28.092107</ele>
        <time>2022-01-09T16:29:24.727Z</time>
      </trkpt>
      <trkpt lat="51.457405" lon="6.728356">
        <ele>27.548514</ele>
        <time>2022-01-09T16:29:37.952Z</time>
      </trkpt>
      <trkpt lat="51.457513" lon="6.728345">
        <ele>27.460321</ele>
        <time>2022-01-09T16:29:40.260Z</time>
      </trkpt>
      <trkpt lat="51.457709" lon="6.728357">
        <ele>27.300473</ele>
        <time>2022-01-09T16:29:44.258Z</time>
      </trkpt>
      <trkpt lat="51.458801" lon="6.728426">
        <ele>26.364239</ele>
        <time>2022-01-09T16:30:07.194Z</time>
      </trkpt>
      <trkpt lat="51.459099" lon="6.728445">
        <ele>26.070092</ele>
        <time>2022-01-09T16:30:12.923Z</time>
      </trkpt>
      <trkpt lat="51.459389" lon="6.728297">
        <ele>25.769955</ele>
        <time>2022-01-09T16:30:18.829Z</time>
      </trkpt>
      <trkpt lat="51.459440" lon="6.728268">
        <ele>25.716590</ele>
        <time>2022-01-09T16:30:19.873Z</time>
      </trkpt>
      <trkpt lat="51.459507" lon="6.728230">
        <ele>25.646504</ele>
        <time>2022-01-09T16:30:21.269Z</time>
      </trkpt>
      <trkpt lat="51.460486" lon="6.727706">
        <ele>24.646759</ele>
        <time>2022-01-09T16:30:40.683Z</time>
      </trkpt>
      <trkpt lat="51.460566" lon="6.727556">
        <ele>24.535227</ele>
        <time>2022-01-09T16:30:43.798Z</time>
      </trkpt>
      <trkpt lat="51.460767" lon="6.727406">
        <ele>24.334267</ele>
        <time>2022-01-09T16:30:49.383Z</time>
      </trkpt>
      <trkpt lat="51.460940" lon="6.727309">
        <ele>24.168131</ele>
        <time>2022-01-09T16:30:53.865Z</time>
      </trkpt>
      <trkpt lat="51.461320" lon="6.727084">
        <ele>23.800929</ele>
        <time>2022-01-09T16:31:02.253Z</time>
      </trkpt>
      <trkpt lat="51.462250" lon="6.726503">
        <ele>23.200534</ele>
        <time>2022-01-09T16:31:26.786Z</time>
      </trkpt>
      <trkpt lat="51.463492" lon="6.725585">
        <ele>23.118287</ele>
        <time>2022-01-09T16:32:00.223Z</time>
      </trkpt>
      <trkpt lat="51.464526" lon="6.724703">
        <ele>23.290411</ele>
        <time>2022-01-09T16:32:29.205Z</time>
      </trkpt>
      <trkpt lat="51.465806" lon="6.723656">
        <ele>23.998340</ele>
        <time>2022-01-09T16:33:06.970Z</time>
      </trkpt>
      <trkpt lat="51.466583" lon="6.722926">
        <ele>24.725799</ele>
        <time>2022-01-09T16:33:33.680Z</time>
      </trkpt>
      <trkpt lat="51.467328" lon="6.722142">
        <ele>25.154326</ele>
        <time>2022-01-09T16:33:58.515Z</time>
      </trkpt>
      <trkpt lat="51.468136" lon="6.721307">
        <ele>25.547201</ele>
        <time>2022-01-09T16:34:23.313Z</time>
      </trkpt>
      <trkpt lat="51.468590" lon="6.720839">
        <ele>25.351922</ele>
        <time>2022-01-09T16:34:36.001Z</time>
      </trkpt>
      <trkpt lat="51.468882" lon="6.720414">
        <ele>25.133228</ele>
        <time>2022-01-09T16:34:45.169Z</time>
      </trkpt>
      <trkpt lat="51.469283" lon="6.719557">
        <ele>24.762766</ele>
        <time>2022-01-09T16:34:59.892Z</time>
      </trkpt>
      <trkpt lat="51.470596" lon="6.716745">
        <ele>23.320868</ele>
        <time>2022-01-09T16:35:48.667Z</time>
      </trkpt>
      <trkpt lat="51.471035" lon="6.715407">
        <ele>23.127972</ele>
        <time>2022-01-09T16:36:10.921Z</time>
      </trkpt>
      <trkpt lat="51.471506" lon="6.713920">
        <ele>23.042665</ele>
        <time>2022-01-09T16:36:36.485Z</time>
      </trkpt>
      <trkpt lat="51.471563" lon="6.713735">
        <ele>23.077557</ele>
        <time>2022-01-09T16:36:40.248Z</time>
      </trkpt>
      <trkpt lat="51.471580" lon="6.713680">
        <ele>23.087936</ele>
        <time>2022-01-09T16:36:41.265Z</time>
      </trkpt>
      <trkpt lat="51.471740" lon="6.712941">
        <ele>23.220197</ele>
        <time>2022-01-09T16:36:54.294Z</time>
      </trkpt>
      <trkpt lat="51.471859" lon="6.711219">
        <ele>23.410921</ele>
        <time>2022-01-09T16:37:22.069Z</time>
      </trkpt>
      <trkpt lat="51.472053" lon="6.708077">
        <ele>23.006419</ele>
        <time>2022-01-09T16:38:08.286Z</time>
      </trkpt>
      <trkpt lat="51.472087" lon="6.707598">
        <ele>22.980385</ele>
        <time>2022-01-09T16:38:15.327Z</time>
      </trkpt>
      <trkpt lat="51.472195" lon="6.706077">
        <ele>22.897715</ele>
        <time>2022-01-09T16:38:38.982Z</time>
      </trkpt>
      <trkpt lat="51.472569" lon="6.701129">
        <ele>23.429097</ele>
        <time>2022-01-09T16:39:58.611Z</time>
      </trkpt>
      <trkpt lat="51.472708" lon="6.699527">
        <ele>23.623641</ele>
        <time>2022-01-09T16:40:22.929Z</time>
      </trkpt>
      <trkpt lat="51.472845" lon="6.698904">
        <ele>23.772768</ele>
        <time>2022-01-09T16:40:33.409Z</time>
      </trkpt>
      <trkpt lat="51.473223" lon="6.697938">
        <ele>24.030264</ele>
        <time>2022-01-09T16:40:52.376Z</time>
      </trkpt>
      <trkpt lat="51.473969" lon="6.696434">
        <ele>24.420723</ele>
        <time>2022-01-09T16:41:26.264Z</time>
      </trkpt>
      <trkpt lat="51.474640" lon="6.695082">
        <ele>24.646716</ele>
        <time>2022-01-09T16:41:52.470Z</time>
      </trkpt>
      <trkpt lat="51.475453" lon="6.693262">
        <ele>23.985568</ele>
        <time>2022-01-09T16:42:23.725Z</time>
      </trkpt>
      <trkpt lat="51.476617" lon="6.690892">
        <ele>23.731242</ele>
        <time>2022-01-09T16:43:09.568Z</time>
      </trkpt>
      <trkpt lat="51.477182" lon="6.690008">
        <ele>23.981503</ele>
        <time>2022-01-09T16:43:29.366Z</time>
      </trkpt>
      <trkpt lat="51.478091" lon="6.689124">
        <ele>24.445822</ele>
        <time>2022-01-09T16:43:56.978Z</time>
      </trkpt>
      <trkpt lat="51.478943" lon="6.688668">
        <ele>26.259607</ele>
        <time>2022-01-09T16:44:25.021Z</time>
      </trkpt>
      <trkpt lat="51.479016" lon="6.688641">
        <ele>26.430906</ele>
        <time>2022-01-09T16:44:27.652Z</time>
      </trkpt>
      <trkpt lat="51.479638" lon="6.688436">
        <ele>27.882874</ele>
        <time>2022-01-09T16:44:49.369Z</time>
      </trkpt>
      <trkpt lat="51.479812" lon="6.688417">
        <ele>28.281675</ele>
        <time>2022-01-09T16:44:55.605Z</time>
      </trkpt>
      <trkpt lat="51.480177" lon="6.688384">
        <ele>29.107814</ele>
        <time>2022-01-09T16:45:08.372Z</time>
      </trkpt>
      <trkpt lat="51.480356" lon="6.688368">
        <ele>29.509747</ele>
        <time>2022-01-09T16:45:15.741Z</time>
      </trkpt>
      <trkpt lat="51.481114" lon="6.688706">
        <ele>31.273469</ele>
        <time>2022-01-09T16:45:46.741Z</time>
      </trkpt>
      <trkpt lat="51.481120" lon="6.690460">
        <ele>32.856341</ele>
        <time>2022-01-09T16:46:24.534Z</time>
      </trkpt>
      <trkpt lat="51.481091" lon="6.690531">
        <ele>32.879338</ele>
        <time>2022-01-09T16:46:26.137Z</time>
      </trkpt>
      <trkpt lat="51.481022" lon="6.690523">
        <ele>32.909424</ele>
        <time>2022-01-09T16:46:28.224Z</time>
      </trkpt>
      <trkpt lat="51.480999" lon="6.690444">
        <ele>32.933043</ele>
        <time>2022-01-09T16:46:29.872Z</time>
      </trkpt>
      <trkpt lat="51.480946" lon="6.688815">
        <ele>33.374844</ele>
        <time>2022-01-09T16:46:59.627Z</time>
      </trkpt>
      <trkpt lat="51.481167" lon="6.676305">
        <ele>34.001148</ele>
        <time>2022-01-09T16:49:56.135Z</time>
      </trkpt>
      <trkpt lat="51.481290" lon="6.673971">
        <ele>33.585543</ele>
        <time>2022-01-09T16:50:26.558Z</time>
      </trkpt>
      <trkpt lat="51.481344" lon="6.673554">
        <ele>33.452567</ele>
        <time>2022-01-09T16:50:33.746Z</time>
      </trkpt>
      <trkpt lat="51.481557" lon="6.672641">
        <ele>33.148175</ele>
        <time>2022-01-09T16:50:50.580Z</time>
      </trkpt>
      <trkpt lat="51.481664" lon="6.672465">
        <ele>33.071385</ele>
        <time>2022-01-09T16:50:54.887Z</time>
      </trkpt>
      <trkpt lat="51.481821" lon="6.672398">
        <ele>32.989944</ele>
        <time>2022-01-09T16:50:59.326Z</time>
      </trkpt>
      <trkpt lat="51.481946" lon="6.672444">
        <ele>32.925654</ele>
        <time>2022-01-09T16:51:02.690Z</time>
      </trkpt>
      <trkpt lat="51.482057" lon="6.672600">
        <ele>32.851703</ele>
        <time>2022-01-09T16:51:06.895Z</time>
      </trkpt>
      <trkpt lat="51.482106" lon="6.673045">
        <ele>32.669936</ele>
        <time>2022-01-09T16:51:14.319Z</time>
      </trkpt>
      <trkpt lat="51.481979" lon="6.673435">
        <ele>32.391511</ele>
        <time>2022-01-09T16:51:21.948Z</time>
      </trkpt>
      <trkpt lat="51.481603" lon="6.673995">
        <ele>31.870538</ele>
        <time>2022-01-09T16:51:36.111Z</time>
      </trkpt>
      <trkpt lat="51.481367" lon="6.674115">
        <ele>31.619060</ele>
        <time>2022-01-09T16:51:42.414Z</time>
      </trkpt>
      <trkpt lat="51.480818" lon="6.674004">
        <ele>31.056945</ele>
        <time>2022-01-09T16:51:56.341Z</time>
      </trkpt>
      <trkpt lat="51.480381" lon="6.673595">
        <ele>30.264667</ele>
        <time>2022-01-09T16:52:08.948Z</time>
      </trkpt>
      <trkpt lat="51.480168" lon="6.673263">
        <ele>29.742124</ele>
        <time>2022-01-09T16:52:16.106Z</time>
      </trkpt>
      <trkpt lat="51.480085" lon="6.673004">
        <ele>29.422803</ele>
        <time>2022-01-09T16:52:20.254Z</time>
      </trkpt>
      <trkpt lat="51.480008" lon="6.673099">
        <ele>29.251869</ele>
        <time>2022-01-09T16:52:22.708Z</time>
      </trkpt>
      <trkpt lat="51.479949" lon="6.673180">
        <ele>29.115225</ele>
        <time>2022-01-09T16:52:24.677Z</time>
      </trkpt>
      <trkpt lat="51.479878" lon="6.673343">
        <ele>28.897161</ele>
        <time>2022-01-09T16:52:27.683Z</time>
      </trkpt>
      <trkpt lat="51.479880" lon="6.673400">
        <ele>28.834574</ele>
        <time>2022-01-09T16:52:28.431Z</time>
      </trkpt>
      <trkpt lat="51.479609" lon="6.673637">
        <ele>28.291369</ele>
        <time>2022-01-09T16:52:36.191Z</time>
      </trkpt>
      <trkpt lat="51.479038" lon="6.674423">
        <ele>27.374699</ele>
        <time>2022-01-09T16:52:54.815Z</time>
      </trkpt>
      <trkpt lat="51.478934" lon="6.674550">
        <ele>27.263343</ele>
        <time>2022-01-09T16:52:58.058Z</time>
      </trkpt>
      <trkpt lat="51.478880" lon="6.674417">
        <ele>27.179071</ele>
        <time>2022-01-09T16:53:00.620Z</time>
      </trkpt>
      <trkpt lat="51.478610" lon="6.673485">
        <ele>26.633475</ele>
        <time>2022-01-09T16:53:17.946Z</time>
      </trkpt>
      <trkpt lat="51.478616" lon="6.673017">
        <ele>26.385012</ele>
        <time>2022-01-09T16:53:26.123Z</time>
      </trkpt>
      <trkpt lat="51.478795" lon="6.672571">
        <ele>26.233150</ele>
        <time>2022-01-09T16:53:35.572Z</time>
      </trkpt>
      <trkpt lat="51.478770" lon="6.672233">
        <ele>26.246796</ele>
        <time>2022-01-09T16:53:41.597Z</time>
      </trkpt>
      <trkpt lat="51.478656" lon="6.671260">
        <ele>26.286490</ele>
        <time>2022-01-09T16:54:05.060Z</time>
      </trkpt>
      <trkpt lat="51.478541" lon="6.670058">
        <ele>26.335245</ele>
        <time>2022-01-09T16:54:22.507Z</time>
      </trkpt>
      <trkpt lat="51.478840" lon="6.668012">
        <ele>26.961631</ele>
        <time>2022-01-09T16:54:55.614Z</time>
      </trkpt>
      <trkpt lat="51.479016" lon="6.668063">
        <ele>27.051473</ele>
        <time>2022-01-09T16:54:59.739Z</time>
      </trkpt>
      <trkpt lat="51.478951" lon="6.667828">
        <ele>27.131921</ele>
        <time>2022-01-09T16:55:06.301Z</time>
      </trkpt>
      <trkpt lat="51.479007" lon="6.667245">
        <ele>27.351537</ele>
        <time>2022-01-09T16:55:20.795Z</time>
      </trkpt>
      <trkpt lat="51.480001" lon="6.663651">
        <ele>28.766007</ele>
        <time>2022-01-09T16:56:58.955Z</time>
      </trkpt>
      <trkpt lat="51.480109" lon="6.663263">
        <ele>28.827783</ele>
        <time>2022-01-09T16:57:09.083Z</time>
      </trkpt>
      <trkpt lat="51.480181" lon="6.662853">
        <ele>28.889704</ele>
        <time>2022-01-09T16:57:18.591Z</time>
      </trkpt>
      <trkpt lat="51.480222" lon="6.662516">
        <ele>28.939616</ele>
        <time>2022-01-09T16:57:26.285Z</time>
      </trkpt>
      <trkpt lat="51.480213" lon="6.661458">
        <ele>28.954800</ele>
        <time>2022-01-09T16:57:50.148Z</time>
      </trkpt>
      <trkpt lat="51.480085" lon="6.660563">
        <ele>28.890159</ele>
        <time>2022-01-09T16:58:10.391Z</time>
      </trkpt>
      <trkpt lat="51.480146" lon="6.660512">
        <ele>28.882386</ele>
        <time>2022-01-09T16:58:11.948Z</time>
      </trkpt>
      <trkpt lat="51.480264" lon="6.660570">
        <ele>28.868437</ele>
        <time>2022-01-09T16:58:14.619Z</time>
      </trkpt>
      <trkpt lat="51.480855" lon="6.661474">
        <ele>28.998800</ele>
        <time>2022-01-09T16:58:33.716Z</time>
      </trkpt>
      <trkpt lat="51.481247" lon="6.661714">
        <ele>29.465069</ele>
        <time>2022-01-09T16:58:44.708Z</time>
      </trkpt>
      <trkpt lat="51.482504" lon="6.663568">
        <ele>31.307102</ele>
        <time>2022-01-09T16:59:34.887Z</time>
      </trkpt>
      <trkpt lat="51.483917" lon="6.664886">
        <ele>32.561215</ele>
        <time>2022-01-09T17:00:18.326Z</time>
      </trkpt>
      <trkpt lat="51.484395" lon="6.665360">
        <ele>32.496565</ele>
        <time>2022-01-09T17:00:30.600Z</time>
      </trkpt>
      <trkpt lat="51.484761" lon="6.665931">
        <ele>32.437842</ele>
        <time>2022-01-09T17:00:41.581Z</time>
      </trkpt>
      <trkpt lat="51.484816" lon="6.666015">
        <ele>32.429107</ele>
        <time>2022-01-09T17:00:43.169Z</time>
      </trkpt>
      <trkpt lat="51.485341" lon="6.666816">
        <ele>32.255312</ele>
        <time>2022-01-09T17:00:58.922Z</time>
      </trkpt>
      <trkpt lat="51.485483" lon="6.667589">
        <ele>32.089065</ele>
        <time>2022-01-09T17:01:09.614Z</time>
      </trkpt>
      <trkpt lat="51.485926" lon="6.667595">
        <ele>31.942314</ele>
        <time>2022-01-09T17:01:19.111Z</time>
      </trkpt>
      <trkpt lat="51.486056" lon="6.667670">
        <ele>31.896556</ele>
        <time>2022-01-09T17:01:22.220Z</time>
      </trkpt>
      <trkpt lat="51.486775" lon="6.667407">
        <ele>31.858396</ele>
        <time>2022-01-09T17:01:38.825Z</time>
      </trkpt>
      <trkpt lat="51.487282" lon="6.667372">
        <ele>31.927884</ele>
        <time>2022-01-09T17:01:50.734Z</time>
      </trkpt>
      <trkpt lat="51.487628" lon="6.667389">
        <ele>31.975284</ele>
        <time>2022-01-09T17:01:58.787Z</time>
      </trkpt>
      <trkpt lat="51.488393" lon="6.667373">
        <ele>32.010307</ele>
        <time>2022-01-09T17:02:16.201Z</time>
      </trkpt>
      <trkpt lat="51.488791" lon="6.667374">
        <ele>31.958170</ele>
        <time>2022-01-09T17:02:25.139Z</time>
      </trkpt>
      <trkpt lat="51.489016" lon="6.667504">
        <ele>31.926847</ele>
        <time>2022-01-09T17:02:30.490Z</time>
      </trkpt>
      <trkpt lat="51.489213" lon="6.667969">
        <ele>31.880971</ele>
        <time>2022-01-09T17:02:38.115Z</time>
      </trkpt>
      <trkpt lat="51.490261" lon="6.671091">
        <ele>31.151557</ele>
        <time>2022-01-09T17:03:23.552Z</time>
      </trkpt>
      <trkpt lat="51.490420" lon="6.671308">
        <ele>31.108979</ele>
        <time>2022-01-09T17:03:28.077Z</time>
      </trkpt>
      <trkpt lat="51.490734" lon="6.671530">
        <ele>31.177353</ele>
        <time>2022-01-09T17:03:35.609Z</time>
      </trkpt>
      <trkpt lat="51.491495" lon="6.672079">
        <ele>31.343614</ele>
        <time>2022-01-09T17:03:55.952Z</time>
      </trkpt>
      <trkpt lat="51.491445" lon="6.672305">
        <ele>31.373376</ele>
        <time>2022-01-09T17:03:59.644Z</time>
      </trkpt>
      <trkpt lat="51.491548" lon="6.672884">
        <ele>31.448097</ele>
        <time>2022-01-09T17:04:09.173Z</time>
      </trkpt>
      <trkpt lat="51.491723" lon="6.673680">
        <ele>31.430577</ele>
        <time>2022-01-09T17:04:22.054Z</time>
      </trkpt>
      <trkpt lat="51.492008" lon="6.674704">
        <ele>31.397587</ele>
        <time>2022-01-09T17:04:37.724Z</time>
      </trkpt>
      <trkpt lat="51.492176" lon="6.675288">
        <ele>31.378665</ele>
        <time>2022-01-09T17:04:46.522Z</time>
      </trkpt>
      <trkpt lat="51.492193" lon="6.675493">
        <ele>31.372582</ele>
        <time>2022-01-09T17:04:49.430Z</time>
      </trkpt>
      <trkpt lat="51.492157" lon="6.676730">
        <ele>31.228776</ele>
        <time>2022-01-09T17:05:06.802Z</time>
      </trkpt>
      <trkpt lat="51.492050" lon="6.677008">
        <ele>31.187768</ele>
        <time>2022-01-09T17:05:11.424Z</time>
      </trkpt>
      <trkpt lat="51.492470" lon="6.678160">
        <ele>31.020266</ele>
        <time>2022-01-09T17:05:30.059Z</time>
      </trkpt>
      <trkpt lat="51.492652" lon="6.678637">
        <ele>30.903661</ele>
        <time>2022-01-09T17:05:37.504Z</time>
      </trkpt>
      <trkpt lat="51.492779" lon="6.678918">
        <ele>30.824306</ele>
        <time>2022-01-09T17:05:42.344Z</time>
      </trkpt>
      <trkpt lat="51.492920" lon="6.679179">
        <ele>30.745334</ele>
        <time>2022-01-09T17:05:47.023Z</time>
      </trkpt>
      <trkpt lat="51.493269" lon="6.679793">
        <ele>30.555331</ele>
        <time>2022-01-09T17:05:58.588Z</time>
      </trkpt>
      <trkpt lat="51.493596" lon="6.680414">
        <ele>30.369459</ele>
        <time>2022-01-09T17:06:09.113Z</time>
      </trkpt>
      <trkpt lat="51.493744" lon="6.680839">
        <ele>29.958612</ele>
        <time>2022-01-09T17:06:15.239Z</time>
      </trkpt>
      <trkpt lat="51.493859" lon="6.681575">
        <ele>29.196101</ele>
        <time>2022-01-09T17:06:24.317Z</time>
      </trkpt>
      <trkpt lat="51.494024" lon="6.681996">
        <ele>28.696216</ele>
        <time>2022-01-09T17:06:30.148Z</time>
      </trkpt>
      <trkpt lat="51.494269" lon="6.682353">
        <ele>28.162317</ele>
        <time>2022-01-09T17:06:36.357Z</time>
      </trkpt>
      <trkpt lat="51.495532" lon="6.684210">
        <ele>24.446071</ele>
        <time>2022-01-09T17:07:05.973Z</time>
      </trkpt>
      <trkpt lat="51.495704" lon="6.684502">
        <ele>23.853941</ele>
        <time>2022-01-09T17:07:10.190Z</time>
      </trkpt>
      <trkpt lat="51.495784" lon="6.684645">
        <ele>23.570749</ele>
        <time>2022-01-09T17:07:12.200Z</time>
      </trkpt>
      <trkpt lat="51.496433" lon="6.684464">
        <ele>22.080549</ele>
        <time>2022-01-09T17:07:32.016Z</time>
      </trkpt>
      <trkpt lat="51.497732" lon="6.685151">
        <ele>19.134748</ele>
        <time>2022-01-09T17:07:55.537Z</time>
      </trkpt>
      <trkpt lat="51.502327" lon="6.688438">
        <ele>16.422371</ele>
        <time>2022-01-09T17:09:38.243Z</time>
      </trkpt>
      <trkpt lat="51.503870" lon="6.689512">
        <ele>17.506405</ele>
        <time>2022-01-09T17:10:22.330Z</time>
      </trkpt>
      <trkpt lat="51.504057" lon="6.689549">
        <ele>17.662769</ele>
        <time>2022-01-09T17:10:27.319Z</time>
      </trkpt>
      <trkpt lat="51.507093" lon="6.688464">
        <ele>19.418157</ele>
        <time>2022-01-09T17:11:42.970Z</time>
      </trkpt>
      <trkpt lat="51.508610" lon="6.694958">
        <ele>21.810984</ele>
        <time>2022-01-09T17:13:28.494Z</time>
      </trkpt>
      <trkpt lat="51.509410" lon="6.697576">
        <ele>22.710024</ele>
        <time>2022-01-09T17:14:13.199Z</time>
      </trkpt>
      <trkpt lat="51.511810" lon="6.695127">
        <ele>22.225714</ele>
        <time>2022-01-09T17:15:14.382Z</time>
      </trkpt>
      <trkpt lat="51.512260" lon="6.694626">
        <ele>22.071970</ele>
        <time>2022-01-09T17:15:25.794Z</time>
      </trkpt>
      <trkpt lat="51.513036" lon="6.693604">
        <ele>21.687112</ele>
        <time>2022-01-09T17:15:46.514Z</time>
      </trkpt>
      <trkpt lat="51.513821" lon="6.692803">
        <ele>21.308676</ele>
        <time>2022-01-09T17:16:05.670Z</time>
      </trkpt>
      <trkpt lat="51.516152" lon="6.691170">
        <ele>21.380143</ele>
        <time>2022-01-09T17:17:01.440Z</time>
      </trkpt>
      <trkpt lat="51.516884" lon="6.693704">
        <ele>22.285259</ele>
        <time>2022-01-09T17:17:45.550Z</time>
      </trkpt>
      <trkpt lat="51.516908" lon="6.693791">
        <ele>22.322898</ele>
        <time>2022-01-09T17:17:47.151Z</time>
      </trkpt>
      <trkpt lat="51.517713" lon="6.693375">
        <ele>22.860356</ele>
        <time>2022-01-09T17:18:08.061Z</time>
      </trkpt>
      <trkpt lat="51.517795" lon="6.693310">
        <ele>22.918471</ele>
        <time>2022-01-09T17:18:10.281Z</time>
      </trkpt>
      <trkpt lat="51.518401" lon="6.692822">
        <ele>23.263456</ele>
        <time>2022-01-09T17:18:26.294Z</time>
      </trkpt>
      <trkpt lat="51.518364" lon="6.692749">
        <ele>23.290796</ele>
        <time>2022-01-09T17:18:27.640Z</time>
      </trkpt>
      <trkpt lat="51.518784" lon="6.692111">
        <ele>23.560491</ele>
        <time>2022-01-09T17:18:41.229Z</time>
      </trkpt>
      <trkpt lat="51.519348" lon="6.690857">
        <ele>24.116954</ele>
        <time>2022-01-09T17:19:05.127Z</time>
      </trkpt>
      <trkpt lat="51.519757" lon="6.690226">
        <ele>24.578327</ele>
        <time>2022-01-09T17:19:19.271Z</time>
      </trkpt>
      <trkpt lat="51.520258" lon="6.689780">
        <ele>25.044394</ele>
        <time>2022-01-09T17:19:33.831Z</time>
      </trkpt>
      <trkpt lat="51.520433" lon="6.689679">
        <ele>25.195707</ele>
        <time>2022-01-09T17:19:38.692Z</time>
      </trkpt>
      <trkpt lat="51.520450" lon="6.689769">
        <ele>25.243333</ele>
        <time>2022-01-09T17:19:40.251Z</time>
      </trkpt>
      <trkpt lat="51.521033" lon="6.689525">
        <ele>25.891680</ele>
        <time>2022-01-09T17:19:56.727Z</time>
      </trkpt>
      <trkpt lat="51.521234" lon="6.689441">
        <ele>26.126790</ele>
        <time>2022-01-09T17:20:02.351Z</time>
      </trkpt>
      <trkpt lat="51.521839" lon="6.688975">
        <ele>26.886278</ele>
        <time>2022-01-09T17:20:20.257Z</time>
      </trkpt>
      <trkpt lat="51.522084" lon="6.688779">
        <ele>27.196092</ele>
        <time>2022-01-09T17:20:29.583Z</time>
      </trkpt>
      <trkpt lat="51.522126" lon="6.688747">
        <ele>27.248711</ele>
        <time>2022-01-09T17:20:31.139Z</time>
      </trkpt>
      <trkpt lat="51.522171" lon="6.688707">
        <ele>27.306926</ele>
        <time>2022-01-09T17:20:32.864Z</time>
      </trkpt>
      <trkpt lat="51.522760" lon="6.688190">
        <ele>27.656968</ele>
        <time>2022-01-09T17:20:55.152Z</time>
      </trkpt>
      <trkpt lat="51.522982" lon="6.687973">
        <ele>27.779235</ele>
        <time>2022-01-09T17:21:03.460Z</time>
      </trkpt>
      <trkpt lat="51.523369" lon="6.687609">
        <ele>27.990231</ele>
        <time>2022-01-09T17:21:17.384Z</time>
      </trkpt>
      <trkpt lat="51.523438" lon="6.687545">
        <ele>28.027718</ele>
        <time>2022-01-09T17:21:19.210Z</time>
      </trkpt>
      <trkpt lat="51.523404" lon="6.687440">
        <ele>28.062374</ele>
        <time>2022-01-09T17:21:20.762Z</time>
      </trkpt>
      <trkpt lat="51.522685" lon="6.685336">
        <ele>27.755585</ele>
        <time>2022-01-09T17:22:02.380Z</time>
      </trkpt>
      <trkpt lat="51.522523" lon="6.684836">
        <ele>27.619466</ele>
        <time>2022-01-09T17:22:12.330Z</time>
      </trkpt>
      <trkpt lat="51.522407" lon="6.684243">
        <ele>27.436097</ele>
        <time>2022-01-09T17:22:22.994Z</time>
      </trkpt>
      <trkpt lat="51.522373" lon="6.684007">
        <ele>27.333884</ele>
        <time>2022-01-09T17:22:27.022Z</time>
      </trkpt>
      <trkpt lat="51.522377" lon="6.683600">
        <ele>27.162132</ele>
        <time>2022-01-09T17:22:32.119Z</time>
      </trkpt>
      <trkpt lat="51.522476" lon="6.683376">
        <ele>27.046200</ele>
        <time>2022-01-09T17:22:35.472Z</time>
      </trkpt>
      <trkpt lat="51.522621" lon="6.683089">
        <ele>26.890208</ele>
        <time>2022-01-09T17:22:39.965Z</time>
      </trkpt>
      <trkpt lat="51.522670" lon="6.682994">
        <ele>26.838142</ele>
        <time>2022-01-09T17:22:41.472Z</time>
      </trkpt>
      <trkpt lat="51.522755" lon="6.682819">
        <ele>26.744468</ele>
        <time>2022-01-09T17:22:44.193Z</time>
      </trkpt>
      <trkpt lat="51.522973" lon="6.682273">
        <ele>26.470736</ele>
        <time>2022-01-09T17:22:52.240Z</time>
      </trkpt>
      <trkpt lat="51.523078" lon="6.681746">
        <ele>26.238589</ele>
        <time>2022-01-09T17:22:59.283Z</time>
      </trkpt>
      <trkpt lat="51.523175" lon="6.681787">
        <ele>26.172172</ele>
        <time>2022-01-09T17:23:01.345Z</time>
      </trkpt>
      <trkpt lat="51.523132" lon="6.681179">
        <ele>25.920050</ele>
        <time>2022-01-09T17:23:14.671Z</time>
      </trkpt>
      <trkpt lat="51.522985" lon="6.680819">
        <ele>25.742633</ele>
        <time>2022-01-09T17:23:23.980Z</time>
      </trkpt>
      <trkpt lat="51.522977" lon="6.680614">
        <ele>25.658002</ele>
        <time>2022-01-09T17:23:28.341Z</time>
      </trkpt>
      <trkpt lat="51.523605" lon="6.679124">
        <ele>24.808123</ele>
        <time>2022-01-09T17:24:07.203Z</time>
      </trkpt>
      <trkpt lat="51.523824" lon="6.678495">
        <ele>24.338656</ele>
        <time>2022-01-09T17:24:22.704Z</time>
      </trkpt>
      <trkpt lat="51.523858" lon="6.677895">
        <ele>23.946244</ele>
        <time>2022-01-09T17:24:35.278Z</time>
      </trkpt>
      <trkpt lat="51.524121" lon="6.676622">
        <ele>23.021625</ele>
        <time>2022-01-09T17:25:02.772Z</time>
      </trkpt>
      <trkpt lat="51.524267" lon="6.675722">
        <ele>22.206681</ele>
        <time>2022-01-09T17:25:21.303Z</time>
      </trkpt>
      <trkpt lat="51.524380" lon="6.673802">
        <ele>20.593590</ele>
        <time>2022-01-09T17:26:00.507Z</time>
      </trkpt>
      <trkpt lat="51.524701" lon="6.671659">
        <ele>19.531894</ele>
        <time>2022-01-09T17:26:47.988Z</time>
      </trkpt>
      <trkpt lat="51.524836" lon="6.669832">
        <ele>18.881517</ele>
        <time>2022-01-09T17:27:28.489Z</time>
      </trkpt>
      <trkpt lat="51.525011" lon="6.668889">
        <ele>18.579720</ele>
        <time>2022-01-09T17:27:50.096Z</time>
      </trkpt>
      <trkpt lat="51.525480" lon="6.666944">
        <ele>18.137189</ele>
        <time>2022-01-09T17:28:35.951Z</time>
      </trkpt>
      <trkpt lat="51.525561" lon="6.666100">
        <ele>17.985590</ele>
        <time>2022-01-09T17:28:55.178Z</time>
      </trkpt>
      <trkpt lat="51.525589" lon="6.665072">
        <ele>18.053587</ele>
        <time>2022-01-09T17:29:19.045Z</time>
      </trkpt>
      <trkpt lat="51.525711" lon="6.663996">
        <ele>18.387862</ele>
        <time>2022-01-09T17:29:45.323Z</time>
      </trkpt>
      <trkpt lat="51.526475" lon="6.660624">
        <ele>19.938017</ele>
        <time>2022-01-09T17:31:15.478Z</time>
      </trkpt>
      <trkpt lat="51.526778" lon="6.659870">
        <ele>20.349744</ele>
        <time>2022-01-09T17:31:37.729Z</time>
      </trkpt>
      <trkpt lat="51.527206" lon="6.659004">
        <ele>20.769523</ele>
        <time>2022-01-09T17:32:04.929Z</time>
      </trkpt>
      <trkpt lat="51.527167" lon="6.658927">
        <ele>20.807209</ele>
        <time>2022-01-09T17:32:06.841Z</time>
      </trkpt>
      <trkpt lat="51.527311" lon="6.658577">
        <ele>20.966471</ele>
        <time>2022-01-09T17:32:13.300Z</time>
      </trkpt>
      <trkpt lat="51.527167" lon="6.658927">
        <ele>21.125733</ele>
        <time>2022-01-09T17:32:19.641Z</time>
      </trkpt>
      <trkpt lat="51.527206" lon="6.659004">
        <ele>21.163419</ele>
        <time>2022-01-09T17:32:21.595Z</time>
      </trkpt>
      <trkpt lat="51.527618" lon="6.658025">
        <ele>21.568621</ele>
        <time>2022-01-09T17:32:50.672Z</time>
      </trkpt>
      <trkpt lat="51.528403" lon="6.655858">
        <ele>22.301627</ele>
        <time>2022-01-09T17:33:51.844Z</time>
      </trkpt>
      <trkpt lat="51.528509" lon="6.655636">
        <ele>22.335471</ele>
        <time>2022-01-09T17:33:58.540Z</time>
      </trkpt>
      <trkpt lat="51.528613" lon="6.655417">
        <ele>22.368791</ele>
        <time>2022-01-09T17:34:02.522Z</time>
      </trkpt>
      <trkpt lat="51.528905" lon="6.654805">
        <ele>22.462064</ele>
        <time>2022-01-09T17:34:20.555Z</time>
      </trkpt>
      <trkpt lat="51.529698" lon="6.653162">
        <ele>22.946635</ele>
        <time>2022-01-09T17:35:08.366Z</time>
      </trkpt>
      <trkpt lat="51.529941" lon="6.652611">
        <ele>23.206601</ele>
        <time>2022-01-09T17:35:24.344Z</time>
      </trkpt>
      <trkpt lat="51.530323" lon="6.651483">
        <ele>23.700930</ele>
        <time>2022-01-09T17:35:56.945Z</time>
      </trkpt>
      <trkpt lat="51.530641" lon="6.650116">
        <ele>25.287211</ele>
        <time>2022-01-09T17:36:38.280Z</time>
      </trkpt>
      <trkpt lat="51.530696" lon="6.649814">
        <ele>25.636824</ele>
        <time>2022-01-09T17:36:47.187Z</time>
      </trkpt>
      <trkpt lat="51.530932" lon="6.648379">
        <ele>27.022747</ele>
        <time>2022-01-09T17:37:28.462Z</time>
      </trkpt>
      <trkpt lat="51.531343" lon="6.646047">
        <ele>27.713905</ele>
        <time>2022-01-09T17:38:26.720Z</time>
      </trkpt>
      <trkpt lat="51.531448" lon="6.645437">
        <ele>27.519239</ele>
        <time>2022-01-09T17:38:39.937Z</time>
      </trkpt>
      <trkpt lat="51.531583" lon="6.644622">
        <ele>27.106120</ele>
        <time>2022-01-09T17:38:57.674Z</time>
      </trkpt>
      <trkpt lat="51.531757" lon="6.643718">
        <ele>26.642607</ele>
        <time>2022-01-09T17:39:17.645Z</time>
      </trkpt>
      <trkpt lat="51.532066" lon="6.642738">
        <ele>26.195395</ele>
        <time>2022-01-09T17:39:41.149Z</time>
      </trkpt>
      <trkpt lat="51.532023" lon="6.642698">
        <ele>26.171374</ele>
        <time>2022-01-09T17:39:42.503Z</time>
      </trkpt>
      <trkpt lat="51.532112" lon="6.642447">
        <ele>26.084476</ele>
        <time>2022-01-09T17:39:46.331Z</time>
      </trkpt>
      <trkpt lat="51.532352" lon="6.641770">
        <ele>25.850107</ele>
        <time>2022-01-09T17:39:56.738Z</time>
      </trkpt>
      <trkpt lat="51.533285" lon="6.638839">
        <ele>25.204413</ele>
        <time>2022-01-09T17:40:41.974Z</time>
      </trkpt>
      <trkpt lat="51.533577" lon="6.638281">
        <ele>25.108861</ele>
        <time>2022-01-09T17:40:52.436Z</time>
      </trkpt>
      <trkpt lat="51.533760" lon="6.637966">
        <ele>25.064424</ele>
        <time>2022-01-09T17:40:58.618Z</time>
      </trkpt>
      <trkpt lat="51.534252" lon="6.637089">
        <ele>24.957239</ele>
        <time>2022-01-09T17:41:15.500Z</time>
      </trkpt>
      <trkpt lat="51.534410" lon="6.636626">
        <ele>24.909309</ele>
        <time>2022-01-09T17:41:22.965Z</time>
      </trkpt>
      <trkpt lat="51.534452" lon="6.636440">
        <ele>24.891350</ele>
        <time>2022-01-09T17:41:25.671Z</time>
      </trkpt>
      <trkpt lat="51.534467" lon="6.636364">
        <ele>24.884114</ele>
        <time>2022-01-09T17:41:26.792Z</time>
      </trkpt>
      <trkpt lat="51.534522" lon="6.636389">
        <ele>24.875774</ele>
        <time>2022-01-09T17:41:27.998Z</time>
      </trkpt>
      <trkpt lat="51.535352" lon="6.631922">
        <ele>24.005132</ele>
        <time>2022-01-09T17:42:28.341Z</time>
      </trkpt>
      <trkpt lat="51.535959" lon="6.628715">
        <ele>24.027960</ele>
        <time>2022-01-09T17:43:15.280Z</time>
      </trkpt>
      <trkpt lat="51.536181" lon="6.627728">
        <ele>24.137449</ele>
        <time>2022-01-09T17:43:30.747Z</time>
      </trkpt>
      <trkpt lat="51.536512" lon="6.626642">
        <ele>24.066836</ele>
        <time>2022-01-09T17:43:48.059Z</time>
      </trkpt>
      <trkpt lat="51.536618" lon="6.626274">
        <ele>24.035558</ele>
        <time>2022-01-09T17:43:53.747Z</time>
      </trkpt>
      <trkpt lat="51.538088" lon="6.621566">
        <ele>23.323066</ele>
        <time>2022-01-09T17:45:01.687Z</time>
      </trkpt>
      <trkpt lat="51.539150" lon="6.618121">
        <ele>24.287163</ele>
        <time>2022-01-09T17:46:00.317Z</time>
      </trkpt>
      <trkpt lat="51.539628" lon="6.615935">
        <ele>24.851660</ele>
        <time>2022-01-09T17:46:35.903Z</time>
      </trkpt>
      <trkpt lat="51.539812" lon="6.614770">
        <ele>25.047013</ele>
        <time>2022-01-09T17:46:52.924Z</time>
      </trkpt>
      <trkpt lat="51.540123" lon="6.613417">
        <ele>25.102531</ele>
        <time>2022-01-09T17:47:11.904Z</time>
      </trkpt>
      <trkpt lat="51.540271" lon="6.613302">
        <ele>25.102719</ele>
        <time>2022-01-09T17:47:15.327Z</time>
      </trkpt>
      <trkpt lat="51.540297" lon="6.613188">
        <ele>25.102806</ele>
        <time>2022-01-09T17:47:16.910Z</time>
      </trkpt>
      <trkpt lat="51.540324" lon="6.613069">
        <ele>25.102896</ele>
        <time>2022-01-09T17:47:18.619Z</time>
      </trkpt>
      <trkpt lat="51.540278" lon="6.612889">
        <ele>25.103034</ele>
        <time>2022-01-09T17:47:21.240Z</time>
      </trkpt>
      <trkpt lat="51.540200" lon="6.612837">
        <ele>25.103131</ele>
        <time>2022-01-09T17:47:23.740Z</time>
      </trkpt>
      <trkpt lat="51.540669" lon="6.611359">
        <ele>25.345610</ele>
        <time>2022-01-09T17:47:48.216Z</time>
      </trkpt>
      <trkpt lat="51.541305" lon="6.609929">
        <ele>25.939482</ele>
        <time>2022-01-09T17:48:15.479Z</time>
      </trkpt>
      <trkpt lat="51.541515" lon="6.609459">
        <ele>26.115969</ele>
        <time>2022-01-09T17:48:24.322Z</time>
      </trkpt>
      <trkpt lat="51.542857" lon="6.606524">
        <ele>26.794587</ele>
        <time>2022-01-09T17:49:17.552Z</time>
      </trkpt>
      <trkpt lat="51.542897" lon="6.606297">
        <ele>26.815082</ele>
        <time>2022-01-09T17:49:20.880Z</time>
      </trkpt>
      <trkpt lat="51.542974" lon="6.606288">
        <ele>26.825865</ele>
        <time>2022-01-09T17:49:23.076Z</time>
      </trkpt>
      <trkpt lat="51.543104" lon="6.605931">
        <ele>26.861799</ele>
        <time>2022-01-09T17:49:28.708Z</time>
      </trkpt>
      <trkpt lat="51.543247" lon="6.605678">
        <ele>26.891496</ele>
        <time>2022-01-09T17:49:33.346Z</time>
      </trkpt>
      <trkpt lat="51.543293" lon="6.605318">
        <ele>26.923420</ele>
        <time>2022-01-09T17:49:40.146Z</time>
      </trkpt>
      <trkpt lat="51.543637" lon="6.604812">
        <ele>27.061723</ele>
        <time>2022-01-09T17:49:50.710Z</time>
      </trkpt>
      <trkpt lat="51.543800" lon="6.604635">
        <ele>27.180968</ele>
        <time>2022-01-09T17:49:55.418Z</time>
      </trkpt>
      <trkpt lat="51.544525" lon="6.603618">
        <ele>27.764262</ele>
        <time>2022-01-09T17:50:25.399Z</time>
      </trkpt>
      <trkpt lat="51.545130" lon="6.602747">
        <ele>28.330421</ele>
        <time>2022-01-09T17:50:52.710Z</time>
      </trkpt>
      <trkpt lat="51.545242" lon="6.602513">
        <ele>28.482955</ele>
        <time>2022-01-09T17:50:58.969Z</time>
      </trkpt>
      <trkpt lat="51.545414" lon="6.602290">
        <ele>28.666483</ele>
        <time>2022-01-09T17:51:06.342Z</time>
      </trkpt>
      <trkpt lat="51.545548" lon="6.602156">
        <ele>28.797558</ele>
        <time>2022-01-09T17:51:11.642Z</time>
      </trkpt>
      <trkpt lat="51.545742" lon="6.602160">
        <ele>28.958717</ele>
        <time>2022-01-09T17:51:18.027Z</time>
      </trkpt>
      <trkpt lat="51.545809" lon="6.602168">
        <ele>29.014523</ele>
        <time>2022-01-09T17:51:20.292Z</time>
      </trkpt>
      <trkpt lat="51.546902" lon="6.601446">
        <ele>29.511111</ele>
        <time>2022-01-09T17:51:57.484Z</time>
      </trkpt>
      <trkpt lat="51.547066" lon="6.601323">
        <ele>29.497595</ele>
        <time>2022-01-09T17:52:02.768Z</time>
      </trkpt>
      <trkpt lat="51.547327" lon="6.601128">
        <ele>29.476100</ele>
        <time>2022-01-09T17:52:10.999Z</time>
      </trkpt>
      <trkpt lat="51.547662" lon="6.600873">
        <ele>29.448417</ele>
        <time>2022-01-09T17:52:21.432Z</time>
      </trkpt>
      <trkpt lat="51.548009" lon="6.600610">
        <ele>29.419764</ele>
        <time>2022-01-09T17:52:32.108Z</time>
      </trkpt>
      <trkpt lat="51.548158" lon="6.600464">
        <ele>29.301665</ele>
        <time>2022-01-09T17:52:35.608Z</time>
      </trkpt>
      <trkpt lat="51.548404" lon="6.600274">
        <ele>29.068060</ele>
        <time>2022-01-09T17:52:41.200Z</time>
      </trkpt>
      <trkpt lat="51.548815" lon="6.599939">
        <ele>28.673632</ele>
        <time>2022-01-09T17:52:50.433Z</time>
      </trkpt>
      <trkpt lat="51.549150" lon="6.599565">
        <ele>28.324541</ele>
        <time>2022-01-09T17:52:58.577Z</time>
      </trkpt>
      <trkpt lat="51.549287" lon="6.599337">
        <ele>28.155775</ele>
        <time>2022-01-09T17:53:02.587Z</time>
      </trkpt>
      <trkpt lat="51.549579" lon="6.598712">
        <ele>27.783055</ele>
        <time>2022-01-09T17:53:12.644Z</time>
      </trkpt>
      <trkpt lat="51.549706" lon="6.598435">
        <ele>27.657694</ele>
        <time>2022-01-09T17:53:17.163Z</time>
      </trkpt>
      <trkpt lat="51.549730" lon="6.598383">
        <ele>27.634105</ele>
        <time>2022-01-09T17:53:17.989Z</time>
      </trkpt>
      <trkpt lat="51.549968" lon="6.597860">
        <ele>27.398032</ele>
        <time>2022-01-09T17:53:26.460Z</time>
      </trkpt>
      <trkpt lat="51.550319" lon="6.597280">
        <ele>27.103227</ele>
        <time>2022-01-09T17:53:36.985Z</time>
      </trkpt>
      <trkpt lat="51.550831" lon="6.596585">
        <ele>26.781495</ele>
        <time>2022-01-09T17:53:51.746Z</time>
      </trkpt>
      <trkpt lat="51.550934" lon="6.596449">
        <ele>26.752403</ele>
        <time>2022-01-09T17:53:54.824Z</time>
      </trkpt>
      <trkpt lat="51.551516" lon="6.595669">
        <ele>26.587023</ele>
        <time>2022-01-09T17:54:12.319Z</time>
      </trkpt>
      <trkpt lat="51.552050" lon="6.594957">
        <ele>26.435602</ele>
        <time>2022-01-09T17:54:27.591Z</time>
      </trkpt>
      <trkpt lat="51.552173" lon="6.594776">
        <ele>26.347313</ele>
        <time>2022-01-09T17:54:31.247Z</time>
      </trkpt>
      <trkpt lat="51.552618" lon="6.594175">
        <ele>26.012671</ele>
        <time>2022-01-09T17:54:43.688Z</time>
      </trkpt>
      <trkpt lat="51.552916" lon="6.593776">
        <ele>25.789372</ele>
        <time>2022-01-09T17:54:51.946Z</time>
      </trkpt>
      <trkpt lat="51.553142" lon="6.593473">
        <ele>25.619932</ele>
        <time>2022-01-09T17:54:58.103Z</time>
      </trkpt>
      <trkpt lat="51.553281" lon="6.593349">
        <ele>25.528395</ele>
        <time>2022-01-09T17:55:01.428Z</time>
      </trkpt>
      <trkpt lat="51.553509" lon="6.593304">
        <ele>25.396111</ele>
        <time>2022-01-09T17:55:06.166Z</time>
      </trkpt>
      <trkpt lat="51.553674" lon="6.593336">
        <ele>25.292256</ele>
        <time>2022-01-09T17:55:09.626Z</time>
      </trkpt>
      <trkpt lat="51.553884" lon="6.593485">
        <ele>25.148705</ele>
        <time>2022-01-09T17:55:14.408Z</time>
      </trkpt>
      <trkpt lat="51.554094" lon="6.592760">
        <ele>24.837681</ele>
        <time>2022-01-09T17:55:24.333Z</time>
      </trkpt>
      <trkpt lat="51.554590" lon="6.591644">
        <ele>24.304234</ele>
        <time>2022-01-09T17:55:41.641Z</time>
      </trkpt>
      <trkpt lat="51.555409" lon="6.590475">
        <ele>24.197739</ele>
        <time>2022-01-09T17:56:05.236Z</time>
      </trkpt>
      <trkpt lat="51.556171" lon="6.589388">
        <ele>24.207568</ele>
        <time>2022-01-09T17:56:28.447Z</time>
      </trkpt>
      <trkpt lat="51.556205" lon="6.589447">
        <ele>24.219591</ele>
        <time>2022-01-09T17:56:29.620Z</time>
      </trkpt>
      <trkpt lat="51.556767" lon="6.589139">
        <ele>24.362303</ele>
        <time>2022-01-09T17:56:43.448Z</time>
      </trkpt>
      <trkpt lat="51.557472" lon="6.588451">
        <ele>24.560514</ele>
        <time>2022-01-09T17:57:02.781Z</time>
      </trkpt>
      <trkpt lat="51.559384" lon="6.586605">
        <ele>24.896920</ele>
        <time>2022-01-09T17:57:53.851Z</time>
      </trkpt>
      <trkpt lat="51.559727" lon="6.586190">
        <ele>24.889929</ele>
        <time>2022-01-09T17:58:03.329Z</time>
      </trkpt>
      <trkpt lat="51.559899" lon="6.586607">
        <ele>24.884862</ele>
        <time>2022-01-09T17:58:10.143Z</time>
      </trkpt>
      <trkpt lat="51.560051" lon="6.586799">
        <ele>24.881714</ele>
        <time>2022-01-09T17:58:14.372Z</time>
      </trkpt>
      <trkpt lat="51.560163" lon="6.586846">
        <ele>24.879828</ele>
        <time>2022-01-09T17:58:16.904Z</time>
      </trkpt>
      <trkpt lat="51.561885" lon="6.586500">
        <ele>24.858233</ele>
        <time>2022-01-09T17:58:54.996Z</time>
      </trkpt>
      <trkpt lat="51.562288" lon="6.586486">
        <ele>24.853663</ele>
        <time>2022-01-09T17:59:03.978Z</time>
      </trkpt>
      <trkpt lat="51.566718" lon="6.587786">
        <ele>25.709682</ele>
        <time>2022-01-09T18:00:47.823Z</time>
      </trkpt>
      <trkpt lat="51.567358" lon="6.588013">
        <ele>25.847987</ele>
        <time>2022-01-09T18:01:03.264Z</time>
      </trkpt>
      <trkpt lat="51.567999" lon="6.588363">
        <ele>25.828178</ele>
        <time>2022-01-09T18:01:18.627Z</time>
      </trkpt>
      <trkpt lat="51.568976" lon="6.588923">
        <ele>25.616177</ele>
        <time>2022-01-09T18:01:41.533Z</time>
      </trkpt>
      <trkpt lat="51.569908" lon="6.589325">
        <ele>25.064260</ele>
        <time>2022-01-09T18:02:00.447Z</time>
      </trkpt>
      <trkpt lat="51.570074" lon="6.589292">
        <ele>24.930358</ele>
        <time>2022-01-09T18:02:03.704Z</time>
      </trkpt>
      <trkpt lat="51.570326" lon="6.588953">
        <ele>24.667391</ele>
        <time>2022-01-09T18:02:10.164Z</time>
      </trkpt>
      <trkpt lat="51.570554" lon="6.589297">
        <ele>24.417163</ele>
        <time>2022-01-09T18:02:16.315Z</time>
      </trkpt>
      <trkpt lat="51.570792" lon="6.589533">
        <ele>24.193352</ele>
        <time>2022-01-09T18:02:21.800Z</time>
      </trkpt>
      <trkpt lat="51.571036" lon="6.589572">
        <ele>24.011035</ele>
        <time>2022-01-09T18:02:26.651Z</time>
      </trkpt>
      <trkpt lat="51.571227" lon="6.589521">
        <ele>23.876953</ele>
        <time>2022-01-09T18:02:30.514Z</time>
      </trkpt>
      <trkpt lat="51.571492" lon="6.589282">
        <ele>23.666566</ele>
        <time>2022-01-09T18:02:36.498Z</time>
      </trkpt>
      <trkpt lat="51.572155" lon="6.588424">
        <ele>23.077324</ele>
        <time>2022-01-09T18:02:53.226Z</time>
      </trkpt>
      <trkpt lat="51.576541" lon="6.582338">
        <ele>21.340190</ele>
        <time>2022-01-09T18:04:56.051Z</time>
      </trkpt>
      <trkpt lat="51.577051" lon="6.581543">
        <ele>21.664306</ele>
        <time>2022-01-09T18:05:12.299Z</time>
      </trkpt>
      <trkpt lat="51.577164" lon="6.581104">
        <ele>21.799097</ele>
        <time>2022-01-09T18:05:19.635Z</time>
      </trkpt>
      <trkpt lat="51.577145" lon="6.580927">
        <ele>21.850050</ele>
        <time>2022-01-09T18:05:22.313Z</time>
      </trkpt>
      <trkpt lat="51.577835" lon="6.580207">
        <ele>22.360495</ele>
        <time>2022-01-09T18:05:43.292Z</time>
      </trkpt>
      <trkpt lat="51.578175" lon="6.579729">
        <ele>22.849497</ele>
        <time>2022-01-09T18:05:55.112Z</time>
      </trkpt>
      <trkpt lat="51.579594" lon="6.577733">
        <ele>24.472940</ele>
        <time>2022-01-09T18:06:46.313Z</time>
      </trkpt>
      <trkpt lat="51.580403" lon="6.578198">
        <ele>24.926705</ele>
        <time>2022-01-09T18:07:06.275Z</time>
      </trkpt>
      <trkpt lat="51.581929" lon="6.579055">
        <ele>24.700887</ele>
        <time>2022-01-09T18:07:39.566Z</time>
      </trkpt>
      <trkpt lat="51.586480" lon="6.581666">
        <ele>24.951148</ele>
        <time>2022-01-09T18:09:30.884Z</time>
      </trkpt>
      <trkpt lat="51.593252" lon="6.585541">
        <ele>22.495179</ele>
        <time>2022-01-09T18:11:59.772Z</time>
      </trkpt>
      <trkpt lat="51.593476" lon="6.585520">
        <ele>22.449431</ele>
        <time>2022-01-09T18:12:04.696Z</time>
      </trkpt>
      <trkpt lat="51.594892" lon="6.585040">
        <ele>22.457764</ele>
        <time>2022-01-09T18:12:37.385Z</time>
      </trkpt>
      <trkpt lat="51.595166" lon="6.584964">
        <ele>22.516496</ele>
        <time>2022-01-09T18:12:43.870Z</time>
      </trkpt>
      <trkpt lat="51.596506" lon="6.584454">
        <ele>22.741669</ele>
        <time>2022-01-09T18:13:16.368Z</time>
      </trkpt>
      <trkpt lat="51.597021" lon="6.584254">
        <ele>22.794305</ele>
        <time>2022-01-09T18:13:28.535Z</time>
      </trkpt>
      <trkpt lat="51.597673" lon="6.583967">
        <ele>22.861462</ele>
        <time>2022-01-09T18:13:43.045Z</time>
      </trkpt>
      <trkpt lat="51.598122" lon="6.583601">
        <ele>22.586223</ele>
        <time>2022-01-09T18:13:53.827Z</time>
      </trkpt>
      <trkpt lat="51.598326" lon="6.583238">
        <ele>22.417634</ele>
        <time>2022-01-09T18:14:00.103Z</time>
      </trkpt>
      <trkpt lat="51.598521" lon="6.582564">
        <ele>22.161566</ele>
        <time>2022-01-09T18:14:09.230Z</time>
      </trkpt>
      <trkpt lat="51.598720" lon="6.582220">
        <ele>21.999673</ele>
        <time>2022-01-09T18:14:15.103Z</time>
      </trkpt>
      <trkpt lat="51.599043" lon="6.582086">
        <ele>21.821117</ele>
        <time>2022-01-09T18:14:21.781Z</time>
      </trkpt>
      <trkpt lat="51.599456" lon="6.582007">
        <ele>21.619900</ele>
        <time>2022-01-09T18:14:30.008Z</time>
      </trkpt>
      <trkpt lat="51.599662" lon="6.581821">
        <ele>21.505632</ele>
        <time>2022-01-09T18:14:34.778Z</time>
      </trkpt>
      <trkpt lat="51.600214" lon="6.581098">
        <ele>21.161352</ele>
        <time>2022-01-09T18:14:49.599Z</time>
      </trkpt>
      <trkpt lat="51.603732" lon="6.576199">
        <ele>19.731479</ele>
        <time>2022-01-09T18:16:28.212Z</time>
      </trkpt>
      <trkpt lat="51.605489" lon="6.574108">
        <ele>19.383856</ele>
        <time>2022-01-09T18:17:14.745Z</time>
      </trkpt>
      <trkpt lat="51.606101" lon="6.573544">
        <ele>19.342433</ele>
        <time>2022-01-09T18:17:30.603Z</time>
      </trkpt>
      <trkpt lat="51.607325" lon="6.572872">
        <ele>20.242183</ele>
        <time>2022-01-09T18:18:02.458Z</time>
      </trkpt>
      <trkpt lat="51.608125" lon="6.572806">
        <ele>20.968985</ele>
        <time>2022-01-09T18:18:23.825Z</time>
      </trkpt>
      <trkpt lat="51.608717" lon="6.572936">
        <ele>21.724698</ele>
        <time>2022-01-09T18:18:40.168Z</time>
      </trkpt>
      <trkpt lat="51.608899" lon="6.573055">
        <ele>21.973152</ele>
        <time>2022-01-09T18:18:45.924Z</time>
      </trkpt>
      <trkpt lat="51.609197" lon="6.573462">
        <ele>22.467393</ele>
        <time>2022-01-09T18:18:57.149Z</time>
      </trkpt>
      <trkpt lat="51.609418" lon="6.573645">
        <ele>22.781716</ele>
        <time>2022-01-09T18:19:03.847Z</time>
      </trkpt>
      <trkpt lat="51.610022" lon="6.573783">
        <ele>23.082676</ele>
        <time>2022-01-09T18:19:19.589Z</time>
      </trkpt>
      <trkpt lat="51.610269" lon="6.573681">
        <ele>23.183926</ele>
        <time>2022-01-09T18:19:26.016Z</time>
      </trkpt>
      <trkpt lat="51.610546" lon="6.573528">
        <ele>23.300205</ele>
        <time>2022-01-09T18:19:33.031Z</time>
      </trkpt>
      <trkpt lat="51.611006" lon="6.573404">
        <ele>23.485399</ele>
        <time>2022-01-09T18:19:43.513Z</time>
      </trkpt>
      <trkpt lat="51.611486" lon="6.573604">
        <ele>23.358438</ele>
        <time>2022-01-09T18:19:53.975Z</time>
      </trkpt>
      <trkpt lat="51.612208" lon="6.573574">
        <ele>22.723590</ele>
        <time>2022-01-09T18:20:07.875Z</time>
      </trkpt>
      <trkpt lat="51.613164" lon="6.574024">
        <ele>21.837234</ele>
        <time>2022-01-09T18:20:26.783Z</time>
      </trkpt>
      <trkpt lat="51.613426" lon="6.574048">
        <ele>21.590110</ele>
        <time>2022-01-09T18:20:31.769Z</time>
      </trkpt>
      <trkpt lat="51.615184" lon="6.573510">
        <ele>20.058344</ele>
        <time>2022-01-09T18:21:06.920Z</time>
      </trkpt>
      <trkpt lat="51.616819" lon="6.573701">
        <ele>19.259302</ele>
        <time>2022-01-09T18:21:40.685Z</time>
      </trkpt>
      <trkpt lat="51.617163" lon="6.573872">
        <ele>19.258979</ele>
        <time>2022-01-09T18:21:48.305Z</time>
      </trkpt>
      <trkpt lat="51.617452" lon="6.574104">
        <ele>19.258689</ele>
        <time>2022-01-09T18:21:55.361Z</time>
      </trkpt>
      <trkpt lat="51.617630" lon="6.574293">
        <ele>19.258497</ele>
        <time>2022-01-09T18:22:00.113Z</time>
      </trkpt>
      <trkpt lat="51.618305" lon="6.575371">
        <ele>19.487571</ele>
        <time>2022-01-09T18:22:22.550Z</time>
      </trkpt>
      <trkpt lat="51.619550" lon="6.578328">
        <ele>20.972611</ele>
        <time>2022-01-09T18:23:19.500Z</time>
      </trkpt>
      <trkpt lat="51.620152" lon="6.579223">
        <ele>21.423887</ele>
        <time>2022-01-09T18:23:39.312Z</time>
      </trkpt>
      <trkpt lat="51.620774" lon="6.579771">
        <ele>21.416644</ele>
        <time>2022-01-09T18:23:55.185Z</time>
      </trkpt>
      <trkpt lat="51.623320" lon="6.581237">
        <ele>20.375321</ele>
        <time>2022-01-09T18:24:50.842Z</time>
      </trkpt>
      <trkpt lat="51.623824" lon="6.581840">
        <ele>20.118714</ele>
        <time>2022-01-09T18:25:03.994Z</time>
      </trkpt>
      <trkpt lat="51.624276" lon="6.582576">
        <ele>19.931009</ele>
        <time>2022-01-09T18:25:17.636Z</time>
      </trkpt>
      <trkpt lat="51.624730" lon="6.583164">
        <ele>19.760874</ele>
        <time>2022-01-09T18:25:30.150Z</time>
      </trkpt>
      <trkpt lat="51.627099" lon="6.585537">
        <ele>18.654902</ele>
        <time>2022-01-09T18:26:28.459Z</time>
      </trkpt>
      <trkpt lat="51.627557" lon="6.585991">
        <ele>18.343006</ele>
        <time>2022-01-09T18:26:39.268Z</time>
      </trkpt>
      <trkpt lat="51.627843" lon="6.586127">
        <ele>18.170055</ele>
        <time>2022-01-09T18:26:45.268Z</time>
      </trkpt>
      <trkpt lat="51.627960" lon="6.586246">
        <ele>18.089804</ele>
        <time>2022-01-09T18:26:48.082Z</time>
      </trkpt>
      <trkpt lat="51.630453" lon="6.589473">
        <ele>16.566023</ele>
        <time>2022-01-09T18:27:52.238Z</time>
      </trkpt>
      <trkpt lat="51.630992" lon="6.590521">
        <ele>16.738192</ele>
        <time>2022-01-09T18:28:13.172Z</time>
      </trkpt>
      <trkpt lat="51.631097" lon="6.590696">
        <ele>16.917596</ele>
        <time>2022-01-09T18:28:17.038Z</time>
      </trkpt>
      <trkpt lat="51.631648" lon="6.591343">
        <ele>17.727259</ele>
        <time>2022-01-09T18:28:36.145Z</time>
      </trkpt>
      <trkpt lat="51.632190" lon="6.591471">
        <ele>18.377757</ele>
        <time>2022-01-09T18:28:51.535Z</time>
      </trkpt>
      <trkpt lat="51.632940" lon="6.591613">
        <ele>18.824853</ele>
        <time>2022-01-09T18:29:12.071Z</time>
      </trkpt>
      <trkpt lat="51.633667" lon="6.592010">
        <ele>19.136199</ele>
        <time>2022-01-09T18:29:30.402Z</time>
      </trkpt>
      <trkpt lat="51.633999" lon="6.592264">
        <ele>19.285267</ele>
        <time>2022-01-09T18:29:37.736Z</time>
      </trkpt>
      <trkpt lat="51.634256" lon="6.592555">
        <ele>19.277540</ele>
        <time>2022-01-09T18:29:43.970Z</time>
      </trkpt>
      <trkpt lat="51.634728" lon="6.593437">
        <ele>19.137962</ele>
        <time>2022-01-09T18:29:58.684Z</time>
      </trkpt>
      <trkpt lat="51.635085" lon="6.593919">
        <ele>19.048019</ele>
        <time>2022-01-09T18:30:09.211Z</time>
      </trkpt>
      <trkpt lat="51.635512" lon="6.594354">
        <ele>18.996744</ele>
        <time>2022-01-09T18:30:21.178Z</time>
      </trkpt>
      <trkpt lat="51.636557" lon="6.595117">
        <ele>19.214511</ele>
        <time>2022-01-09T18:30:48.282Z</time>
      </trkpt>
      <trkpt lat="51.639451" lon="6.597210">
        <ele>19.296693</ele>
        <time>2022-01-09T18:31:57.318Z</time>
      </trkpt>
      <trkpt lat="51.639860" lon="6.597436">
        <ele>19.394156</ele>
        <time>2022-01-09T18:32:07.469Z</time>
      </trkpt>
      <trkpt lat="51.640466" lon="6.597658">
        <ele>19.605967</ele>
        <time>2022-01-09T18:32:22.744Z</time>
      </trkpt>
      <trkpt lat="51.640808" lon="6.597720">
        <ele>19.934859</ele>
        <time>2022-01-09T18:32:31.724Z</time>
      </trkpt>
      <trkpt lat="51.640927" lon="6.597632">
        <ele>20.059984</ele>
        <time>2022-01-09T18:32:35.274Z</time>
      </trkpt>
      <trkpt lat="51.641007" lon="6.597454">
        <ele>20.190324</ele>
        <time>2022-01-09T18:32:38.864Z</time>
      </trkpt>
      <trkpt lat="51.641051" lon="6.597324">
        <ele>20.278143</ele>
        <time>2022-01-09T18:32:41.329Z</time>
      </trkpt>
      <trkpt lat="51.640769" lon="6.596325">
        <ele>20.929021</ele>
        <time>2022-01-09T18:33:04.207Z</time>
      </trkpt>
      <trkpt lat="51.640756" lon="6.596117">
        <ele>21.053001</ele>
        <time>2022-01-09T18:33:08.613Z</time>
      </trkpt>
      <trkpt lat="51.640792" lon="6.596018">
        <ele>21.121051</ele>
        <time>2022-01-09T18:33:11.556Z</time>
      </trkpt>
      <trkpt lat="51.640346" lon="6.595494">
        <ele>21.407774</ele>
        <time>2022-01-09T18:33:25.581Z</time>
      </trkpt>
      <trkpt lat="51.640387" lon="6.595408">
        <ele>21.435008</ele>
        <time>2022-01-09T18:33:27.502Z</time>
      </trkpt>
      <trkpt lat="51.640465" lon="6.595313">
        <ele>21.474573</ele>
        <time>2022-01-09T18:33:30.138Z</time>
      </trkpt>
      <trkpt lat="51.640625" lon="6.595278">
        <ele>21.539912</ele>
        <time>2022-01-09T18:33:34.175Z</time>
      </trkpt>
      <trkpt lat="51.641994" lon="6.595383">
        <ele>21.899692</ele>
        <time>2022-01-09T18:34:05.027Z</time>
      </trkpt>
      <trkpt lat="51.642008" lon="6.595365">
        <ele>21.896536</ele>
        <time>2022-01-09T18:34:05.391Z</time>
      </trkpt>
      <trkpt lat="51.642180" lon="6.595147">
        <ele>21.857981</ele>
        <time>2022-01-09T18:34:10.346Z</time>
      </trkpt>
      <trkpt lat="51.642604" lon="6.593935">
        <ele>21.705858</ele>
        <time>2022-01-09T18:34:28.424Z</time>
      </trkpt>
      <trkpt lat="51.642739" lon="6.593867">
        <ele>21.680938</ele>
        <time>2022-01-09T18:34:31.967Z</time>
      </trkpt>
      <trkpt lat="51.642933" lon="6.593963">
        <ele>21.645182</ele>
        <time>2022-01-09T18:34:35.987Z</time>
      </trkpt>
      <trkpt lat="51.643639" lon="6.595061">
        <ele>21.377587</ele>
        <time>2022-01-09T18:34:56.579Z</time>
      </trkpt>
      <trkpt lat="51.643879" lon="6.595155">
        <ele>21.309763</ele>
        <time>2022-01-09T18:35:02.366Z</time>
      </trkpt>
      <trkpt lat="51.644255" lon="6.595060">
        <ele>21.205250</ele>
        <time>2022-01-09T18:35:10.536Z</time>
      </trkpt>
      <trkpt lat="51.644763" lon="6.594904">
        <ele>20.940269</ele>
        <time>2022-01-09T18:35:21.226Z</time>
      </trkpt>
      <trkpt lat="51.644874" lon="6.594787">
        <ele>20.850984</ele>
        <time>2022-01-09T18:35:23.966Z</time>
      </trkpt>
      <trkpt lat="51.645155" lon="6.593880">
        <ele>20.427518</ele>
        <time>2022-01-09T18:35:40.744Z</time>
      </trkpt>
      <trkpt lat="51.645920" lon="6.592580">
        <ele>19.811791</ele>
        <time>2022-01-09T18:36:18.841Z</time>
      </trkpt>
      <trkpt lat="51.646189" lon="6.592018">
        <ele>19.667715</ele>
        <time>2022-01-09T18:36:34.466Z</time>
      </trkpt>
      <trkpt lat="51.647043" lon="6.589747">
        <ele>19.541943</ele>
        <time>2022-01-09T18:37:35.101Z</time>
      </trkpt>
      <trkpt lat="51.647880" lon="6.587519">
        <ele>20.096206</ele>
        <time>2022-01-09T18:38:38.270Z</time>
      </trkpt>
      <trkpt lat="51.648196" lon="6.586995">
        <ele>20.309928</ele>
        <time>2022-01-09T18:38:55.992Z</time>
      </trkpt>
      <trkpt lat="51.648271" lon="6.586653">
        <ele>20.416022</ele>
        <time>2022-01-09T18:39:04.807Z</time>
      </trkpt>
      <trkpt lat="51.648292" lon="6.586224">
        <ele>20.541887</ele>
        <time>2022-01-09T18:39:15.305Z</time>
      </trkpt>
      <trkpt lat="51.648548" lon="6.586261">
        <ele>20.663045</ele>
        <time>2022-01-09T18:39:23.135Z</time>
      </trkpt>
      <trkpt lat="51.648799" lon="6.586202">
        <ele>20.691407</ele>
        <time>2022-01-09T18:39:30.909Z</time>
      </trkpt>
      <trkpt lat="51.649114" lon="6.586024">
        <ele>20.642865</ele>
        <time>2022-01-09T18:39:41.128Z</time>
      </trkpt>
      <trkpt lat="51.649220" lon="6.585893">
        <ele>20.623440</ele>
        <time>2022-01-09T18:39:45.130Z</time>
      </trkpt>
      <trkpt lat="51.649464" lon="6.585132">
        <ele>20.546150</ele>
        <time>2022-01-09T18:40:00.472Z</time>
      </trkpt>
      <trkpt lat="51.649486" lon="6.583773">
        <ele>20.407133</ele>
        <time>2022-01-09T18:40:23.302Z</time>
      </trkpt>
      <trkpt lat="51.649400" lon="6.582863">
        <ele>20.275330</ele>
        <time>2022-01-09T18:40:39.039Z</time>
      </trkpt>
      <trkpt lat="51.649448" lon="6.582317">
        <ele>20.196369</ele>
        <time>2022-01-09T18:40:48.536Z</time>
      </trkpt>
      <trkpt lat="51.649565" lon="6.581900">
        <ele>20.130839</ele>
        <time>2022-01-09T18:40:56.517Z</time>
      </trkpt>
      <trkpt lat="51.652282" lon="6.575309">
        <ele>21.781055</ele>
        <time>2022-01-09T18:43:28.772Z</time>
      </trkpt>
      <trkpt lat="51.652769" lon="6.573878">
        <ele>21.933110</ele>
        <time>2022-01-09T18:43:58.645Z</time>
      </trkpt>
      <trkpt lat="51.652355" lon="6.573461">
        <ele>21.798944</ele>
        <time>2022-01-09T18:44:12.513Z</time>
      </trkpt>
      <trkpt lat="51.652569" lon="6.572754">
        <ele>21.664814</ele>
        <time>2022-01-09T18:44:22.806Z</time>
      </trkpt>
      <trkpt lat="51.653115" lon="6.570950">
        <ele>21.285872</ele>
        <time>2022-01-09T18:44:48.681Z</time>
      </trkpt>
      <trkpt lat="51.653479" lon="6.569453">
        <ele>20.943873</ele>
        <time>2022-01-09T18:45:10.142Z</time>
      </trkpt>
      <trkpt lat="51.653961" lon="6.566990">
        <ele>19.970309</ele>
        <time>2022-01-09T18:45:42.320Z</time>
      </trkpt>
      <trkpt lat="51.654380" lon="6.565100">
        <ele>19.386782</ele>
        <time>2022-01-09T18:46:07.251Z</time>
      </trkpt>
      <trkpt lat="51.654571" lon="6.564219">
        <ele>19.179640</ele>
        <time>2022-01-09T18:46:19.471Z</time>
      </trkpt>
      <trkpt lat="51.654686" lon="6.563028">
        <ele>19.142227</ele>
        <time>2022-01-09T18:46:36.374Z</time>
      </trkpt>
      <trkpt lat="51.654621" lon="6.561224">
        <ele>19.559003</ele>
        <time>2022-01-09T18:47:03.859Z</time>
      </trkpt>
      <trkpt lat="51.654522" lon="6.560649">
        <ele>19.693840</ele>
        <time>2022-01-09T18:47:12.895Z</time>
      </trkpt>
      <trkpt lat="51.654097" lon="6.558648">
        <ele>19.728990</ele>
        <time>2022-01-09T18:47:42.301Z</time>
      </trkpt>
      <trkpt lat="51.653828" lon="6.557365">
        <ele>19.589308</ele>
        <time>2022-01-09T18:48:00.113Z</time>
      </trkpt>
      <trkpt lat="51.653388" lon="6.555911">
        <ele>19.166298</ele>
        <time>2022-01-09T18:48:20.550Z</time>
      </trkpt>
      <trkpt lat="51.653288" lon="6.555337">
        <ele>19.010402</ele>
        <time>2022-01-09T18:48:28.201Z</time>
      </trkpt>
      <trkpt lat="51.653231" lon="6.553667">
        <ele>19.034281</ele>
        <time>2022-01-09T18:48:50.843Z</time>
      </trkpt>
      <trkpt lat="51.653243" lon="6.552028">
        <ele>19.157646</ele>
        <time>2022-01-09T18:49:14.762Z</time>
      </trkpt>
      <trkpt lat="51.653119" lon="6.550533">
        <ele>19.549120</ele>
        <time>2022-01-09T18:49:37.333Z</time>
      </trkpt>
      <trkpt lat="51.653167" lon="6.550041">
        <ele>19.678386</ele>
        <time>2022-01-09T18:49:44.759Z</time>
      </trkpt>
      <trkpt lat="51.653169" lon="6.548276">
        <ele>19.917597</ele>
        <time>2022-01-09T18:50:10.552Z</time>
      </trkpt>
      <trkpt lat="51.653108" lon="6.547681">
        <ele>19.962525</ele>
        <time>2022-01-09T18:50:19.186Z</time>
      </trkpt>
      <trkpt lat="51.652127" lon="6.543845">
        <ele>19.866009</ele>
        <time>2022-01-09T18:51:15.333Z</time>
      </trkpt>
      <trkpt lat="51.651672" lon="6.541675">
        <ele>19.597598</ele>
        <time>2022-01-09T18:51:45.880Z</time>
      </trkpt>
      <trkpt lat="51.651541" lon="6.541069">
        <ele>19.558858</ele>
        <time>2022-01-09T18:51:54.506Z</time>
      </trkpt>
      <trkpt lat="51.651334" lon="6.539962">
        <ele>19.670958</ele>
        <time>2022-01-09T18:52:10.123Z</time>
      </trkpt>
      <trkpt lat="51.651336" lon="6.539878">
        <ele>19.679108</ele>
        <time>2022-01-09T18:52:11.310Z</time>
      </trkpt>
      <trkpt lat="51.650722" lon="6.537629">
        <ele>20.130396</ele>
        <time>2022-01-09T18:52:47.876Z</time>
      </trkpt>
      <trkpt lat="51.650847" lon="6.536911">
        <ele>20.366724</ele>
        <time>2022-01-09T18:52:59.009Z</time>
      </trkpt>
      <trkpt lat="51.650883" lon="6.536241">
        <ele>20.579847</ele>
        <time>2022-01-09T18:53:09.179Z</time>
      </trkpt>
      <trkpt lat="51.650693" lon="6.534987">
        <ele>20.850636</ele>
        <time>2022-01-09T18:53:29.072Z</time>
      </trkpt>
      <trkpt lat="51.650582" lon="6.534513">
        <ele>20.921232</ele>
        <time>2022-01-09T18:53:36.619Z</time>
      </trkpt>
      <trkpt lat="51.651052" lon="6.534310">
        <ele>21.030510</ele>
        <time>2022-01-09T18:53:47.620Z</time>
      </trkpt>
      <trkpt lat="51.651125" lon="6.534222">
        <ele>21.050982</ele>
        <time>2022-01-09T18:53:49.723Z</time>
      </trkpt>
      <trkpt lat="51.651116" lon="6.533932">
        <ele>21.091442</ele>
        <time>2022-01-09T18:53:53.587Z</time>
      </trkpt>
      <trkpt lat="51.650948" lon="6.533346">
        <ele>21.070504</ele>
        <time>2022-01-09T18:54:02.260Z</time>
      </trkpt>
      <trkpt lat="51.650485" lon="6.532403">
        <ele>20.712226</ele>
        <time>2022-01-09T18:54:17.988Z</time>
      </trkpt>
      <trkpt lat="51.650000" lon="6.530940">
        <ele>20.192896</ele>
        <time>2022-01-09T18:54:38.553Z</time>
      </trkpt>
      <trkpt lat="51.649855" lon="6.530311">
        <ele>19.914882</ele>
        <time>2022-01-09T18:54:46.819Z</time>
      </trkpt>
      <trkpt lat="51.649734" lon="6.529728">
        <ele>19.660177</ele>
        <time>2022-01-09T18:54:54.449Z</time>
      </trkpt>
      <trkpt lat="51.649748" lon="6.529411">
        <ele>19.528505</ele>
        <time>2022-01-09T18:54:58.356Z</time>
      </trkpt>
      <trkpt lat="51.649821" lon="6.529105">
        <ele>19.392674</ele>
        <time>2022-01-09T18:55:02.538Z</time>
      </trkpt>
      <trkpt lat="51.650321" lon="6.528121">
        <ele>18.909420</ele>
        <time>2022-01-09T18:55:18.745Z</time>
      </trkpt>
      <trkpt lat="51.650531" lon="6.527362">
        <ele>18.634905</ele>
        <time>2022-01-09T18:55:29.337Z</time>
      </trkpt>
      <trkpt lat="51.650564" lon="6.526794">
        <ele>18.446460</ele>
        <time>2022-01-09T18:55:36.677Z</time>
      </trkpt>
      <trkpt lat="51.650512" lon="6.526207">
        <ele>18.250592</ele>
        <time>2022-01-09T18:55:44.220Z</time>
      </trkpt>
      <trkpt lat="51.649845" lon="6.522791">
        <ele>16.988305</ele>
        <time>2022-01-09T18:56:28.781Z</time>
      </trkpt>
      <trkpt lat="51.649320" lon="6.520316">
        <ele>16.783336</ele>
        <time>2022-01-09T18:57:04.359Z</time>
      </trkpt>
      <trkpt lat="51.649116" lon="6.518779">
        <ele>16.930843</ele>
        <time>2022-01-09T18:57:27.085Z</time>
      </trkpt>
      <trkpt lat="51.649117" lon="6.518352">
        <ele>16.970916</ele>
        <time>2022-01-09T18:57:33.250Z</time>
      </trkpt>
      <trkpt lat="51.650123" lon="6.513443">
        <ele>17.325175</ele>
        <time>2022-01-09T18:58:45.532Z</time>
      </trkpt>
      <trkpt lat="51.652332" lon="6.508478">
        <ele>17.764980</ele>
        <time>2022-01-09T19:00:11.869Z</time>
      </trkpt>
      <trkpt lat="51.653042" lon="6.505614">
        <ele>18.190146</ele>
        <time>2022-01-09T19:00:54.789Z</time>
      </trkpt>
      <trkpt lat="51.653750" lon="6.502783">
        <ele>19.327053</ele>
        <time>2022-01-09T19:01:42.445Z</time>
      </trkpt>
      <trkpt lat="51.653876" lon="6.502303">
        <ele>19.569483</ele>
        <time>2022-01-09T19:01:50.782Z</time>
      </trkpt>
      <trkpt lat="51.653917" lon="6.502156">
        <ele>19.644450</ele>
        <time>2022-01-09T19:01:53.414Z</time>
      </trkpt>
      <trkpt lat="51.654074" lon="6.501592">
        <ele>19.888399</ele>
        <time>2022-01-09T19:02:03.192Z</time>
      </trkpt>
      <trkpt lat="51.654362" lon="6.500471">
        <ele>20.331914</ele>
        <time>2022-01-09T19:02:22.170Z</time>
      </trkpt>
      <trkpt lat="51.654433" lon="6.500204">
        <ele>20.438100</ele>
        <time>2022-01-09T19:02:26.645Z</time>
      </trkpt>
      <trkpt lat="51.654895" lon="6.498599">
        <ele>20.765074</ele>
        <time>2022-01-09T19:02:52.512Z</time>
      </trkpt>
      <trkpt lat="51.655195" lon="6.497738">
        <ele>20.736959</ele>
        <time>2022-01-09T19:03:05.854Z</time>
      </trkpt>
      <trkpt lat="51.656221" lon="6.496139">
        <ele>20.401091</ele>
        <time>2022-01-09T19:03:35.982Z</time>
      </trkpt>
      <trkpt lat="51.656878" lon="6.495008">
        <ele>20.007977</ele>
        <time>2022-01-09T19:03:55.672Z</time>
      </trkpt>
      <trkpt lat="51.657650" lon="6.493276">
        <ele>19.469046</ele>
        <time>2022-01-09T19:04:23.213Z</time>
      </trkpt>
      <trkpt lat="51.658374" lon="6.492124">
        <ele>19.106488</ele>
        <time>2022-01-09T19:04:44.747Z</time>
      </trkpt>
      <trkpt lat="51.659196" lon="6.491102">
        <ele>18.803307</ele>
        <time>2022-01-09T19:05:06.707Z</time>
      </trkpt>
      <trkpt lat="51.660917" lon="6.489113">
        <ele>18.237175</ele>
        <time>2022-01-09T19:05:51.566Z</time>
      </trkpt>
      <trkpt lat="51.661618" lon="6.488409">
        <ele>18.220754</ele>
        <time>2022-01-09T19:06:09.387Z</time>
      </trkpt>
      <trkpt lat="51.661715" lon="6.488238">
        <ele>18.217896</ele>
        <time>2022-01-09T19:06:12.542Z</time>
      </trkpt>
      <trkpt lat="51.661897" lon="6.487792">
        <ele>18.211312</ele>
        <time>2022-01-09T19:06:19.904Z</time>
      </trkpt>
      <trkpt lat="51.662588" lon="6.485451">
        <ele>18.471516</ele>
        <time>2022-01-09T19:06:57.706Z</time>
      </trkpt>
      <trkpt lat="51.663449" lon="6.483093">
        <ele>18.379413</ele>
        <time>2022-01-09T19:07:35.957Z</time>
      </trkpt>
      <trkpt lat="51.663547" lon="6.482512">
        <ele>18.285111</ele>
        <time>2022-01-09T19:07:43.380Z</time>
      </trkpt>
      <trkpt lat="51.663572" lon="6.482166">
        <ele>18.230554</ele>
        <time>2022-01-09T19:07:47.857Z</time>
      </trkpt>
      <trkpt lat="51.663742" lon="6.481594">
        <ele>18.104299</ele>
        <time>2022-01-09T19:07:55.850Z</time>
      </trkpt>
      <trkpt lat="51.664253" lon="6.480610">
        <ele>17.796465</ele>
        <time>2022-01-09T19:08:11.833Z</time>
      </trkpt>
      <trkpt lat="51.664238" lon="6.480459">
        <ele>17.759784</ele>
        <time>2022-01-09T19:08:14.238Z</time>
      </trkpt>
      <trkpt lat="51.663499" lon="6.479565">
        <ele>17.576426</ele>
        <time>2022-01-09T19:08:33.816Z</time>
      </trkpt>
      <trkpt lat="51.662906" lon="6.478091">
        <ele>18.029766</ele>
        <time>2022-01-09T19:09:00.618Z</time>
      </trkpt>
      <trkpt lat="51.662357" lon="6.476940">
        <ele>18.530239</ele>
        <time>2022-01-09T19:09:22.501Z</time>
      </trkpt>
      <trkpt lat="51.660585" lon="6.474832">
        <ele>20.236668</ele>
        <time>2022-01-09T19:10:18.509Z</time>
      </trkpt>
      <trkpt lat="51.659927" lon="6.473914">
        <ele>20.986679</ele>
        <time>2022-01-09T19:10:41.405Z</time>
      </trkpt>
      <trkpt lat="51.659182" lon="6.472711">
        <ele>21.470189</ele>
        <time>2022-01-09T19:11:07.244Z</time>
      </trkpt>
      <trkpt lat="51.658302" lon="6.470983">
        <ele>21.951984</ele>
        <time>2022-01-09T19:11:39.005Z</time>
      </trkpt>
      <trkpt lat="51.658375" lon="6.470744">
        <ele>21.992889</ele>
        <time>2022-01-09T19:11:42.704Z</time>
      </trkpt>
      <trkpt lat="51.658666" lon="6.469676">
        <ele>22.171998</ele>
        <time>2022-01-09T19:11:59.409Z</time>
      </trkpt>
      <trkpt lat="51.658714" lon="6.469518">
        <ele>22.199011</ele>
        <time>2022-01-09T19:12:02.031Z</time>
      </trkpt>
      <trkpt lat="51.658812" lon="6.469199">
        <ele>22.253669</ele>
        <time>2022-01-09T19:12:07.231Z</time>
      </trkpt>
      <trkpt lat="51.659250" lon="6.467778">
        <ele>22.689881</ele>
        <time>2022-01-09T19:12:31.078Z</time>
      </trkpt>
      <trkpt lat="51.659352" lon="6.467791">
        <ele>22.736374</ele>
        <time>2022-01-09T19:12:33.620Z</time>
      </trkpt>
      <trkpt lat="51.659386" lon="6.467725">
        <ele>22.760557</ele>
        <time>2022-01-09T19:12:34.979Z</time>
      </trkpt>
      <trkpt lat="51.659359" lon="6.467564">
        <ele>22.807569</ele>
        <time>2022-01-09T19:12:37.542Z</time>
      </trkpt>
      <trkpt lat="51.659692" lon="6.466267">
        <ele>23.157345</ele>
        <time>2022-01-09T19:13:04.287Z</time>
      </trkpt>
      <trkpt lat="51.659819" lon="6.465494">
        <ele>23.295834</ele>
        <time>2022-01-09T19:13:19.250Z</time>
      </trkpt>
      <trkpt lat="51.660283" lon="6.463389">
        <ele>23.867259</ele>
        <time>2022-01-09T19:14:01.379Z</time>
      </trkpt>
      <trkpt lat="51.660389" lon="6.462909">
        <ele>24.124489</ele>
        <time>2022-01-09T19:14:10.502Z</time>
      </trkpt>
      <trkpt lat="51.660468" lon="6.462200">
        <ele>24.488162</ele>
        <time>2022-01-09T19:14:24.956Z</time>
      </trkpt>
      <trkpt lat="51.660499" lon="6.461807">
        <ele>24.688169</ele>
        <time>2022-01-09T19:14:31.755Z</time>
      </trkpt>
      <trkpt lat="51.660671" lon="6.461647">
        <ele>24.849788</ele>
        <time>2022-01-09T19:14:37.203Z</time>
      </trkpt>
      <trkpt lat="51.660670" lon="6.461511">
        <ele>24.918453</ele>
        <time>2022-01-09T19:14:39.760Z</time>
      </trkpt>
      <trkpt lat="51.660821" lon="6.461298">
        <ele>25.107711</ele>
        <time>2022-01-09T19:14:45.325Z</time>
      </trkpt>
      <trkpt lat="51.660919" lon="6.461188">
        <ele>25.284916</ele>
        <time>2022-01-09T19:14:48.663Z</time>
      </trkpt>
      <trkpt lat="51.660848" lon="6.461018">
        <ele>25.473565</ele>
        <time>2022-01-09T19:14:52.445Z</time>
      </trkpt>
      <trkpt lat="51.660743" lon="6.460853">
        <ele>25.691158</ele>
        <time>2022-01-09T19:14:56.668Z</time>
      </trkpt>
      <trkpt lat="51.660610" lon="6.460818">
        <ele>25.891134</ele>
        <time>2022-01-09T19:15:00.875Z</time>
      </trkpt>
      <trkpt lat="51.660329" lon="6.460559">
        <ele>26.371466</ele>
        <time>2022-01-09T19:15:10.105Z</time>
      </trkpt>
      <trkpt lat="51.660091" lon="6.460339">
        <ele>26.778586</ele>
        <time>2022-01-09T19:15:17.791Z</time>
      </trkpt>
      <trkpt lat="51.660132" lon="6.460069">
        <ele>27.034465</ele>
        <time>2022-01-09T19:15:22.768Z</time>
      </trkpt>
      <trkpt lat="51.660200" lon="6.459659">
        <ele>27.425137</ele>
        <time>2022-01-09T19:15:30.040Z</time>
      </trkpt>
      <trkpt lat="51.659863" lon="6.459410">
        <ele>27.705999</ele>
        <time>2022-01-09T19:15:40.714Z</time>
      </trkpt>
      <trkpt lat="51.659367" lon="6.458846">
        <ele>27.659211</ele>
        <time>2022-01-09T19:15:55.201Z</time>
      </trkpt>
      <trkpt lat="51.659324" lon="6.458785">
        <ele>27.654796</ele>
        <time>2022-01-09T19:15:56.402Z</time>
      </trkpt>
      <trkpt lat="51.658863" lon="6.458032">
        <ele>27.604206</ele>
        <time>2022-01-09T19:16:09.803Z</time>
      </trkpt>
      <trkpt lat="51.658741" lon="6.457752">
        <ele>27.587845</ele>
        <time>2022-01-09T19:16:13.974Z</time>
      </trkpt>
      <trkpt lat="51.658667" lon="6.457270">
        <ele>27.341209</ele>
        <time>2022-01-09T19:16:19.769Z</time>
      </trkpt>
      <trkpt lat="51.658678" lon="6.456909">
        <ele>27.091131</ele>
        <time>2022-01-09T19:16:23.902Z</time>
      </trkpt>
      <trkpt lat="51.658836" lon="6.456458">
        <ele>26.732761</ele>
        <time>2022-01-09T19:16:29.724Z</time>
      </trkpt>
      <trkpt lat="51.659166" lon="6.455513">
        <ele>25.982439</ele>
        <time>2022-01-09T19:16:42.361Z</time>
      </trkpt>
      <trkpt lat="51.659451" lon="6.454876">
        <ele>25.557637</ele>
        <time>2022-01-09T19:16:51.931Z</time>
      </trkpt>
      <trkpt lat="51.659645" lon="6.454496">
        <ele>25.515188</ele>
        <time>2022-01-09T19:16:58.195Z</time>
      </trkpt>
      <trkpt lat="51.659953" lon="6.453780">
        <ele>25.440034</ele>
        <time>2022-01-09T19:17:09.480Z</time>
      </trkpt>
      <trkpt lat="51.660425" lon="6.452835">
        <ele>25.335387</ele>
        <time>2022-01-09T19:17:26.547Z</time>
      </trkpt>
      <trkpt lat="51.660473" lon="6.452728">
        <ele>25.326729</ele>
        <time>2022-01-09T19:17:28.730Z</time>
      </trkpt>
      <trkpt lat="51.660523" lon="6.452647">
        <ele>25.378266</ele>
        <time>2022-01-09T19:17:30.577Z</time>
      </trkpt>
      <trkpt lat="51.661148" lon="6.451678">
        <ele>26.008717</ele>
        <time>2022-01-09T19:17:53.306Z</time>
      </trkpt>
      <trkpt lat="51.661208" lon="6.451779">
        <ele>26.071786</ele>
        <time>2022-01-09T19:17:55.592Z</time>
      </trkpt>
      <trkpt lat="51.661502" lon="6.452299">
        <ele>26.389100</ele>
        <time>2022-01-09T19:18:06.756Z</time>
      </trkpt>
      <trkpt lat="51.661527" lon="6.452262">
        <ele>26.413775</ele>
        <time>2022-01-09T19:18:07.640Z</time>
      </trkpt>
      <trkpt lat="51.661564" lon="6.452205">
        <ele>26.450983</ele>
        <time>2022-01-09T19:18:08.914Z</time>
      </trkpt>
      <trkpt lat="51.661573" lon="6.452189">
        <ele>26.460724</ele>
        <time>2022-01-09T19:18:09.243Z</time>
      </trkpt>
      <trkpt lat="51.661626" lon="6.452063">
        <ele>26.529382</ele>
        <time>2022-01-09T19:18:11.492Z</time>
      </trkpt>
      <trkpt lat="51.661747" lon="6.451759">
        <ele>26.632616</ele>
        <time>2022-01-09T19:18:17.138Z</time>
      </trkpt>
      <trkpt lat="51.662242" lon="6.450926">
        <ele>26.636774</ele>
        <time>2022-01-09T19:18:34.671Z</time>
      </trkpt>
      <trkpt lat="51.662819" lon="6.449781">
        <ele>26.642092</ele>
        <time>2022-01-09T19:18:55.325Z</time>
      </trkpt>
      <trkpt lat="51.663152" lon="6.450174">
        <ele>26.307322</ele>
        <time>2022-01-09T19:19:03.680Z</time>
      </trkpt>
      <trkpt lat="51.663469" lon="6.450571">
        <ele>25.896268</ele>
        <time>2022-01-09T19:19:11.268Z</time>
      </trkpt>
      <trkpt lat="51.663547" lon="6.450683">
        <ele>25.789306</ele>
        <time>2022-01-09T19:19:13.253Z</time>
      </trkpt>
      <trkpt lat="51.663886" lon="6.451109">
        <ele>25.349161</ele>
        <time>2022-01-09T19:19:21.414Z</time>
      </trkpt>
      <trkpt lat="51.664226" lon="6.451676">
        <ele>24.848236</ele>
        <time>2022-01-09T19:19:30.739Z</time>
      </trkpt>
      <trkpt lat="51.664445" lon="6.452150">
        <ele>24.333902</ele>
        <time>2022-01-09T19:19:37.580Z</time>
      </trkpt>
      <trkpt lat="51.664702" lon="6.453078">
        <ele>23.414907</ele>
        <time>2022-01-09T19:19:49.108Z</time>
      </trkpt>
      <trkpt lat="51.664786" lon="6.453078">
        <ele>23.292447</ele>
        <time>2022-01-09T19:19:50.607Z</time>
      </trkpt>
      <trkpt lat="51.665080" lon="6.453144">
        <ele>22.859702</ele>
        <time>2022-01-09T19:19:55.977Z</time>
      </trkpt>
      <trkpt lat="51.665084" lon="6.453332">
        <ele>22.689603</ele>
        <time>2022-01-09T19:19:58.110Z</time>
      </trkpt>
      <trkpt lat="51.665136" lon="6.453452">
        <ele>22.557235</ele>
        <time>2022-01-09T19:19:59.781Z</time>
      </trkpt>
      <trkpt lat="51.665210" lon="6.453512">
        <ele>22.436479</ele>
        <time>2022-01-09T19:20:01.258Z</time>
      </trkpt>
      <trkpt lat="51.665324" lon="6.453496">
        <ele>22.269655</ele>
        <time>2022-01-09T19:20:03.304Z</time>
      </trkpt>
      <trkpt lat="51.665409" lon="6.453372">
        <ele>22.109097</ele>
        <time>2022-01-09T19:20:05.469Z</time>
      </trkpt>
      <trkpt lat="51.665431" lon="6.453259">
        <ele>22.011241</ele>
        <time>2022-01-09T19:20:06.871Z</time>
      </trkpt>
      <trkpt lat="51.666443" lon="6.453422">
        <ele>20.656456</ele>
        <time>2022-01-09T19:20:25.808Z</time>
      </trkpt>
      <trkpt lat="51.666441" lon="6.453497">
        <ele>20.594433</ele>
        <time>2022-01-09T19:20:26.700Z</time>
      </trkpt>
      <trkpt lat="51.667423" lon="6.453612">
        <ele>19.371912</ele>
        <time>2022-01-09T19:20:45.243Z</time>
      </trkpt>
      <trkpt lat="51.667737" lon="6.453661">
        <ele>19.026554</ele>
        <time>2022-01-09T19:20:51.256Z</time>
      </trkpt>
      <trkpt lat="51.668025" lon="6.453844">
        <ele>18.687665</ele>
        <time>2022-01-09T19:20:57.167Z</time>
      </trkpt>
      <trkpt lat="51.668380" lon="6.454352">
        <ele>18.168041</ele>
        <time>2022-01-09T19:21:06.258Z</time>
      </trkpt>
      <trkpt lat="51.668392" lon="6.454510">
        <ele>18.059962</ele>
        <time>2022-01-09T19:21:08.136Z</time>
      </trkpt>
      <trkpt lat="51.668442" lon="6.454671">
        <ele>17.937708</ele>
        <time>2022-01-09T19:21:10.250Z</time>
      </trkpt>
      <trkpt lat="51.668526" lon="6.454715">
        <ele>17.841018</ele>
        <time>2022-01-09T19:21:11.900Z</time>
      </trkpt>
      <trkpt lat="51.668655" lon="6.454549">
        <ele>17.749387</ele>
        <time>2022-01-09T19:21:15.152Z</time>
      </trkpt>
      <trkpt lat="51.668746" lon="6.454460">
        <ele>17.700597</ele>
        <time>2022-01-09T19:21:17.222Z</time>
      </trkpt>
      <trkpt lat="51.669001" lon="6.454866">
        <ele>17.536317</ele>
        <time>2022-01-09T19:21:26.874Z</time>
      </trkpt>
      <trkpt lat="51.669044" lon="6.454783">
        <ele>17.505570</ele>
        <time>2022-01-09T19:21:28.636Z</time>
      </trkpt>
      <trkpt lat="51.669423" lon="6.455346">
        <ele>17.269340</ele>
        <time>2022-01-09T19:21:42.910Z</time>
      </trkpt>
      <trkpt lat="51.669625" lon="6.455645">
        <ele>17.143640</ele>
        <time>2022-01-09T19:21:50.550Z</time>
      </trkpt>
      <trkpt lat="51.669511" lon="6.455844">
        <ele>17.066621</ele>
        <time>2022-01-09T19:21:55.525Z</time>
      </trkpt>
      <trkpt lat="51.670033" lon="6.456597">
        <ele>17.157236</ele>
        <time>2022-01-09T19:22:11.362Z</time>
      </trkpt>
      <trkpt lat="51.670594" lon="6.457234">
        <ele>17.374530</ele>
        <time>2022-01-09T19:22:27.887Z</time>
      </trkpt>
      <trkpt lat="51.670924" lon="6.457601">
        <ele>17.501483</ele>
        <time>2022-01-09T19:22:37.819Z</time>
      </trkpt>
      <trkpt lat="51.671014" lon="6.457359">
        <ele>17.556904</ele>
        <time>2022-01-09T19:22:42.380Z</time>
      </trkpt>
      <trkpt lat="51.671167" lon="6.457295">
        <ele>17.545065</ele>
        <time>2022-01-09T19:22:46.678Z</time>
      </trkpt>
      <trkpt lat="51.671312" lon="6.457016">
        <ele>17.524984</ele>
        <time>2022-01-09T19:22:52.434Z</time>
      </trkpt>
      <trkpt lat="51.671366" lon="6.457001">
        <ele>17.520109</ele>
        <time>2022-01-09T19:22:53.910Z</time>
      </trkpt>
      <trkpt lat="51.671896" lon="6.457449">
        <ele>17.466880</ele>
        <time>2022-01-09T19:23:08.754Z</time>
      </trkpt>
      <trkpt lat="51.672077" lon="6.457443">
        <ele>17.450776</ele>
        <time>2022-01-09T19:23:13.170Z</time>
      </trkpt>
      <trkpt lat="51.672208" lon="6.457187">
        <ele>17.432467</ele>
        <time>2022-01-09T19:23:17.924Z</time>
      </trkpt>
      <trkpt lat="51.672733" lon="6.454848">
        <ele>16.635013</ele>
        <time>2022-01-09T19:23:52.563Z</time>
      </trkpt>
      <trkpt lat="51.672739" lon="6.454507">
        <ele>16.496032</ele>
        <time>2022-01-09T19:23:57.193Z</time>
      </trkpt>
      <trkpt lat="51.672646" lon="6.454263">
        <ele>16.379351</ele>
        <time>2022-01-09T19:24:01.303Z</time>
      </trkpt>
      <trkpt lat="51.672544" lon="6.453693">
        <ele>16.232796</ele>
        <time>2022-01-09T19:24:09.683Z</time>
      </trkpt>
      <trkpt lat="51.672414" lon="6.453480">
        <ele>16.256968</ele>
        <time>2022-01-09T19:24:13.857Z</time>
      </trkpt>
      <trkpt lat="51.672106" lon="6.453329">
        <ele>16.298953</ele>
        <time>2022-01-09T19:24:21.372Z</time>
      </trkpt>
      <trkpt lat="51.672062" lon="6.452950">
        <ele>16.330140</ele>
        <time>2022-01-09T19:24:27.328Z</time>
      </trkpt>
      <trkpt lat="51.672646" lon="6.452030">
        <ele>16.436622</ele>
        <time>2022-01-09T19:24:48.776Z</time>
      </trkpt>
      <trkpt lat="51.672653" lon="6.452019">
        <ele>16.437897</ele>
        <time>2022-01-09T19:24:49.097Z</time>
      </trkpt>
      <trkpt lat="51.672929" lon="6.451807">
        <ele>16.706644</ele>
        <time>2022-01-09T19:24:57.809Z</time>
      </trkpt>
      <trkpt lat="51.673045" lon="6.451793">
        <ele>16.854602</ele>
        <time>2022-01-09T19:25:01.192Z</time>
      </trkpt>
      <trkpt lat="51.673607" lon="6.452438">
        <ele>17.732002</ele>
        <time>2022-01-09T19:25:22.141Z</time>
      </trkpt>
      <trkpt lat="51.674803" lon="6.453170">
        <ele>18.910796</ele>
        <time>2022-01-09T19:26:01.306Z</time>
      </trkpt>
      <trkpt lat="51.675231" lon="6.453123">
        <ele>19.061710</ele>
        <time>2022-01-09T19:26:13.035Z</time>
      </trkpt>
      <trkpt lat="51.675655" lon="6.453546">
        <ele>19.237105</ele>
        <time>2022-01-09T19:26:24.537Z</time>
      </trkpt>
      <trkpt lat="51.675832" lon="6.453625">
        <ele>19.301713</ele>
        <time>2022-01-09T19:26:28.738Z</time>
      </trkpt>
      <trkpt lat="51.676286" lon="6.453579">
        <ele>19.191852</ele>
        <time>2022-01-09T19:26:39.264Z</time>
      </trkpt>
      <trkpt lat="51.676869" lon="6.453271">
        <ele>18.757643</ele>
        <time>2022-01-09T19:26:52.835Z</time>
      </trkpt>
      <trkpt lat="51.677109" lon="6.453281">
        <ele>18.587721</ele>
        <time>2022-01-09T19:26:58.108Z</time>
      </trkpt>
      <trkpt lat="51.677217" lon="6.453446">
        <ele>18.482426</ele>
        <time>2022-01-09T19:27:01.453Z</time>
      </trkpt>
      <trkpt lat="51.677287" lon="6.453803">
        <ele>18.318099</ele>
        <time>2022-01-09T19:27:06.601Z</time>
      </trkpt>
      <trkpt lat="51.677042" lon="6.454355">
        <ele>18.062242</ele>
        <time>2022-01-09T19:27:15.977Z</time>
      </trkpt>
      <trkpt lat="51.677030" lon="6.454643">
        <ele>18.003078</ele>
        <time>2022-01-09T19:27:20.051Z</time>
      </trkpt>
      <trkpt lat="51.677232" lon="6.455142">
        <ele>17.880935</ele>
        <time>2022-01-09T19:27:28.989Z</time>
      </trkpt>
      <trkpt lat="51.677664" lon="6.455831">
        <ele>17.680104</ele>
        <time>2022-01-09T19:27:44.619Z</time>
      </trkpt>
      <trkpt lat="51.678106" lon="6.456254">
        <ele>17.510217</ele>
        <time>2022-01-09T19:27:56.167Z</time>
      </trkpt>
      <trkpt lat="51.678549" lon="6.456509">
        <ele>17.132456</ele>
        <time>2022-01-09T19:28:06.585Z</time>
      </trkpt>
      <trkpt lat="51.678945" lon="6.456518">
        <ele>16.807353</ele>
        <time>2022-01-09T19:28:15.377Z</time>
      </trkpt>
      <trkpt lat="51.679601" lon="6.456176">
        <ele>16.241413</ele>
        <time>2022-01-09T19:28:30.415Z</time>
      </trkpt>
      <trkpt lat="51.679931" lon="6.455873">
        <ele>16.007375</ele>
        <time>2022-01-09T19:28:38.738Z</time>
      </trkpt>
      <trkpt lat="51.680384" lon="6.455697">
        <ele>15.926825</ele>
        <time>2022-01-09T19:28:49.126Z</time>
      </trkpt>
      <trkpt lat="51.680875" lon="6.454995">
        <ele>15.813396</ele>
        <time>2022-01-09T19:29:04.733Z</time>
      </trkpt>
      <trkpt lat="51.681581" lon="6.454305">
        <ele>15.860153</ele>
        <time>2022-01-09T19:29:27.000Z</time>
      </trkpt>
      <trkpt lat="51.681790" lon="6.454234">
        <ele>15.973743</ele>
        <time>2022-01-09T19:29:32.847Z</time>
      </trkpt>
      <trkpt lat="51.682225" lon="6.454350">
        <ele>16.208225</ele>
        <time>2022-01-09T19:29:44.690Z</time>
      </trkpt>
      <trkpt lat="51.682420" lon="6.454639">
        <ele>16.349065</ele>
        <time>2022-01-09T19:29:51.956Z</time>
      </trkpt>
      <trkpt lat="51.682601" lon="6.455050">
        <ele>16.515295</ele>
        <time>2022-01-09T19:30:00.344Z</time>
      </trkpt>
      <trkpt lat="51.682858" lon="6.455564">
        <ele>16.670908</ele>
        <time>2022-01-09T19:30:11.249Z</time>
      </trkpt>
      <trkpt lat="51.683098" lon="6.455805">
        <ele>16.663767</ele>
        <time>2022-01-09T19:30:18.572Z</time>
      </trkpt>
      <trkpt lat="51.683280" lon="6.455806">
        <ele>16.659171</ele>
        <time>2022-01-09T19:30:23.182Z</time>
      </trkpt>
      <trkpt lat="51.684274" lon="6.455404">
        <ele>16.633287</ele>
        <time>2022-01-09T19:30:47.951Z</time>
      </trkpt>
      <trkpt lat="51.686045" lon="6.452844">
        <ele>16.269658</ele>
        <time>2022-01-09T19:31:44.092Z</time>
      </trkpt>
      <trkpt lat="51.686167" lon="6.453021">
        <ele>16.311229</ele>
        <time>2022-01-09T19:31:48.369Z</time>
      </trkpt>
      <trkpt lat="51.687324" lon="6.451029">
        <ele>16.889663</ele>
        <time>2022-01-09T19:32:28.725Z</time>
      </trkpt>
      <trkpt lat="51.687672" lon="6.450431">
        <ele>17.191668</ele>
        <time>2022-01-09T19:32:41.454Z</time>
      </trkpt>
      <trkpt lat="51.688060" lon="6.449760">
        <ele>17.529531</ele>
        <time>2022-01-09T19:32:56.525Z</time>
      </trkpt>
      <trkpt lat="51.688562" lon="6.448896">
        <ele>17.967258</ele>
        <time>2022-01-09T19:33:14.962Z</time>
      </trkpt>
      <trkpt lat="51.688847" lon="6.448420">
        <ele>18.212474</ele>
        <time>2022-01-09T19:33:25.782Z</time>
      </trkpt>
      <trkpt lat="51.689231" lon="6.447758">
        <ele>18.548417</ele>
        <time>2022-01-09T19:33:40.368Z</time>
      </trkpt>
      <trkpt lat="51.688798" lon="6.446962">
        <ele>18.814468</ele>
        <time>2022-01-09T19:33:56.579Z</time>
      </trkpt>
      <trkpt lat="51.689136" lon="6.446453">
        <ele>18.884002</ele>
        <time>2022-01-09T19:34:07.470Z</time>
      </trkpt>
      <trkpt lat="51.689403" lon="6.446081">
        <ele>18.937056</ele>
        <time>2022-01-09T19:34:15.646Z</time>
      </trkpt>
      <trkpt lat="51.690844" lon="6.444693">
        <ele>19.105745</ele>
        <time>2022-01-09T19:34:54.931Z</time>
      </trkpt>
      <trkpt lat="51.690325" lon="6.442570">
        <ele>19.212887</ele>
        <time>2022-01-09T19:35:28.297Z</time>
      </trkpt>
      <trkpt lat="51.692239" lon="6.441796">
        <ele>19.396370</ele>
        <time>2022-01-09T19:36:14.802Z</time>
      </trkpt>
      <trkpt lat="51.692830" lon="6.441502">
        <ele>19.455861</ele>
        <time>2022-01-09T19:36:29.282Z</time>
      </trkpt>
      <trkpt lat="51.692813" lon="6.441388">
        <ele>19.462852</ele>
        <time>2022-01-09T19:36:31.061Z</time>
      </trkpt>
      <trkpt lat="51.692557" lon="6.440443">
        <ele>19.516255</ele>
        <time>2022-01-09T19:36:45.960Z</time>
      </trkpt>
      <trkpt lat="51.691804" lon="6.438109">
        <ele>19.623691</ele>
        <time>2022-01-09T19:37:24.318Z</time>
      </trkpt>
      <trkpt lat="51.691757" lon="6.437854">
        <ele>19.628318</ele>
        <time>2022-01-09T19:37:28.224Z</time>
      </trkpt>
      <trkpt lat="51.692090" lon="6.436904">
        <ele>19.647303</ele>
        <time>2022-01-09T19:37:44.127Z</time>
      </trkpt>
      <trkpt lat="51.692118" lon="6.436682">
        <ele>19.651244</ele>
        <time>2022-01-09T19:37:47.391Z</time>
      </trkpt>
      <trkpt lat="51.692059" lon="6.436415">
        <ele>19.656175</ele>
        <time>2022-01-09T19:37:51.583Z</time>
      </trkpt>
      <trkpt lat="51.692853" lon="6.434426">
        <ele>19.301089</ele>
        <time>2022-01-09T19:38:23.116Z</time>
      </trkpt>
      <trkpt lat="51.692994" lon="6.434105">
        <ele>19.207023</ele>
        <time>2022-01-09T19:38:28.213Z</time>
      </trkpt>
      <trkpt lat="51.693141" lon="6.433743">
        <ele>19.103552</ele>
        <time>2022-01-09T19:38:33.687Z</time>
      </trkpt>
      <trkpt lat="51.693637" lon="6.432921">
        <ele>18.769530</ele>
        <time>2022-01-09T19:38:47.939Z</time>
      </trkpt>
      <trkpt lat="51.693803" lon="6.432646">
        <ele>18.640558</ele>
        <time>2022-01-09T19:38:52.800Z</time>
      </trkpt>
      <trkpt lat="51.693883" lon="6.432507">
        <ele>18.576828</ele>
        <time>2022-01-09T19:38:55.076Z</time>
      </trkpt>
      <trkpt lat="51.693982" lon="6.432342">
        <ele>18.499671</ele>
        <time>2022-01-09T19:38:57.986Z</time>
      </trkpt>
      <trkpt lat="51.694088" lon="6.432181">
        <ele>18.420757</ele>
        <time>2022-01-09T19:39:00.933Z</time>
      </trkpt>
      <trkpt lat="51.694200" lon="6.432008">
        <ele>18.336708</ele>
        <time>2022-01-09T19:39:04.480Z</time>
      </trkpt>
      <trkpt lat="51.694307" lon="6.431982">
        <ele>18.278055</ele>
        <time>2022-01-09T19:39:07.055Z</time>
      </trkpt>
      <trkpt lat="51.694380" lon="6.431964">
        <ele>18.238026</ele>
        <time>2022-01-09T19:39:08.757Z</time>
      </trkpt>
      <trkpt lat="51.694424" lon="6.432234">
        <ele>18.144227</ele>
        <time>2022-01-09T19:39:12.771Z</time>
      </trkpt>
      <trkpt lat="51.695000" lon="6.434133">
        <ele>17.769137</ele>
        <time>2022-01-09T19:39:43.350Z</time>
      </trkpt>
      <trkpt lat="51.695200" lon="6.436177">
        <ele>17.535190</ele>
        <time>2022-01-09T19:40:15.143Z</time>
      </trkpt>
      <trkpt lat="51.695265" lon="6.436839">
        <ele>17.482682</ele>
        <time>2022-01-09T19:40:25.304Z</time>
      </trkpt>
      <trkpt lat="51.695330" lon="6.437166">
        <ele>17.455779</ele>
        <time>2022-01-09T19:40:30.444Z</time>
      </trkpt>
      <trkpt lat="51.695431" lon="6.437411">
        <ele>17.432728</ele>
        <time>2022-01-09T19:40:34.805Z</time>
      </trkpt>
      <trkpt lat="51.695549" lon="6.437595">
        <ele>17.411987</ele>
        <time>2022-01-09T19:40:38.687Z</time>
      </trkpt>
      <trkpt lat="51.695884" lon="6.437773">
        <ele>17.356940</ele>
        <time>2022-01-09T19:40:46.962Z</time>
      </trkpt>
      <trkpt lat="51.696191" lon="6.437690">
        <ele>17.263715</ele>
        <time>2022-01-09T19:40:54.179Z</time>
      </trkpt>
      <trkpt lat="51.696331" lon="6.437559">
        <ele>17.215245</ele>
        <time>2022-01-09T19:40:57.971Z</time>
      </trkpt>
      <trkpt lat="51.697197" lon="6.436162">
        <ele>16.848482</ele>
        <time>2022-01-09T19:41:26.724Z</time>
      </trkpt>
      <trkpt lat="51.697734" lon="6.435525">
        <ele>16.857158</ele>
        <time>2022-01-09T19:41:42.976Z</time>
      </trkpt>
      <trkpt lat="51.698241" lon="6.434801">
        <ele>16.879625</ele>
        <time>2022-01-09T19:41:59.999Z</time>
      </trkpt>
      <trkpt lat="51.698339" lon="6.434719">
        <ele>16.883289</ele>
        <time>2022-01-09T19:42:02.801Z</time>
      </trkpt>
      <trkpt lat="51.698641" lon="6.434464">
        <ele>16.894600</ele>
        <time>2022-01-09T19:42:11.575Z</time>
      </trkpt>
      <trkpt lat="51.699053" lon="6.434332">
        <ele>16.854120</ele>
        <time>2022-01-09T19:42:22.260Z</time>
      </trkpt>
      <trkpt lat="51.699179" lon="6.434383">
        <ele>16.839621</ele>
        <time>2022-01-09T19:42:25.522Z</time>
      </trkpt>
      <trkpt lat="51.699569" lon="6.434392">
        <ele>16.796089</ele>
        <time>2022-01-09T19:42:35.309Z</time>
      </trkpt>
      <trkpt lat="51.699689" lon="6.434314">
        <ele>16.781650</ele>
        <time>2022-01-09T19:42:38.537Z</time>
      </trkpt>
      <trkpt lat="51.700626" lon="6.431859">
        <ele>16.279543</ele>
        <time>2022-01-09T19:43:20.216Z</time>
      </trkpt>
      <trkpt lat="51.700763" lon="6.431493">
        <ele>16.170823</ele>
        <time>2022-01-09T19:43:26.234Z</time>
      </trkpt>
      <trkpt lat="51.701017" lon="6.430354">
        <ele>15.936134</ele>
        <time>2022-01-09T19:43:43.626Z</time>
      </trkpt>
      <trkpt lat="51.701159" lon="6.429527">
        <ele>15.886973</ele>
        <time>2022-01-09T19:43:56.238Z</time>
      </trkpt>
      <trkpt lat="51.701254" lon="6.429299">
        <ele>15.871234</ele>
        <time>2022-01-09T19:44:00.267Z</time>
      </trkpt>
      <trkpt lat="51.702433" lon="6.427070">
        <ele>15.972780</ele>
        <time>2022-01-09T19:44:46.619Z</time>
      </trkpt>
      <trkpt lat="51.702934" lon="6.426479">
        <ele>16.091488</ele>
        <time>2022-01-09T19:45:02.278Z</time>
      </trkpt>
      <trkpt lat="51.703290" lon="6.425401">
        <ele>16.203467</ele>
        <time>2022-01-09T19:45:21.591Z</time>
      </trkpt>
      <trkpt lat="51.703502" lon="6.424567">
        <ele>16.275639</ele>
        <time>2022-01-09T19:45:35.866Z</time>
      </trkpt>
      <trkpt lat="51.704038" lon="6.423890">
        <ele>16.363576</ele>
        <time>2022-01-09T19:45:52.877Z</time>
      </trkpt>
      <trkpt lat="51.704097" lon="6.423814">
        <ele>16.356796</ele>
        <time>2022-01-09T19:45:54.706Z</time>
      </trkpt>
      <trkpt lat="51.704266" lon="6.423492">
        <ele>16.294029</ele>
        <time>2022-01-09T19:46:01.106Z</time>
      </trkpt>
      <trkpt lat="51.705285" lon="6.421324">
        <ele>15.897756</ele>
        <time>2022-01-09T19:46:40.998Z</time>
      </trkpt>
      <trkpt lat="51.705663" lon="6.420923">
        <ele>15.808949</ele>
        <time>2022-01-09T19:46:51.370Z</time>
      </trkpt>
      <trkpt lat="51.705763" lon="6.420678">
        <ele>15.773258</ele>
        <time>2022-01-09T19:46:55.629Z</time>
      </trkpt>
      <trkpt lat="51.705848" lon="6.420170">
        <ele>15.709243</ele>
        <time>2022-01-09T19:47:03.403Z</time>
      </trkpt>
      <trkpt lat="51.705705" lon="6.418904">
        <ele>15.604024</ele>
        <time>2022-01-09T19:47:23.322Z</time>
      </trkpt>
      <trkpt lat="51.705761" lon="6.418671">
        <ele>15.625597</ele>
        <time>2022-01-09T19:47:27.281Z</time>
      </trkpt>
      <trkpt lat="51.707200" lon="6.418870">
        <ele>15.826782</ele>
        <time>2022-01-09T19:48:03.867Z</time>
      </trkpt>
      <trkpt lat="51.707473" lon="6.418482">
        <ele>15.929737</ele>
        <time>2022-01-09T19:48:12.652Z</time>
      </trkpt>
      <trkpt lat="51.707876" lon="6.417933">
        <ele>16.090116</ele>
        <time>2022-01-09T19:48:25.307Z</time>
      </trkpt>
      <trkpt lat="51.707913" lon="6.417818">
        <ele>16.114534</ele>
        <time>2022-01-09T19:48:27.168Z</time>
      </trkpt>
      <trkpt lat="51.708545" lon="6.415887">
        <ele>16.651839</ele>
        <time>2022-01-09T19:48:59.008Z</time>
      </trkpt>
      <trkpt lat="51.709156" lon="6.414739">
        <ele>17.183010</ele>
        <time>2022-01-09T19:49:22.739Z</time>
      </trkpt>
      <trkpt lat="51.709810" lon="6.413422">
        <ele>17.589575</ele>
        <time>2022-01-09T19:49:48.301Z</time>
      </trkpt>
      <trkpt lat="51.711131" lon="6.411838">
        <ele>17.811550</ele>
        <time>2022-01-09T19:50:25.597Z</time>
      </trkpt>
      <trkpt lat="51.711488" lon="6.411356">
        <ele>17.717557</ele>
        <time>2022-01-09T19:50:35.377Z</time>
      </trkpt>
      <trkpt lat="51.711694" lon="6.411024">
        <ele>17.658767</ele>
        <time>2022-01-09T19:50:41.462Z</time>
      </trkpt>
      <trkpt lat="51.711920" lon="6.410626">
        <ele>17.591218</ele>
        <time>2022-01-09T19:50:48.492Z</time>
      </trkpt>
      <trkpt lat="51.712650" lon="6.409308">
        <ele>17.399042</ele>
        <time>2022-01-09T19:51:11.924Z</time>
      </trkpt>
      <trkpt lat="51.713279" lon="6.408191">
        <ele>17.252128</ele>
        <time>2022-01-09T19:51:32.312Z</time>
      </trkpt>
      <trkpt lat="51.713469" lon="6.407870">
        <ele>17.295664</ele>
        <time>2022-01-09T19:51:38.432Z</time>
      </trkpt>
      <trkpt lat="51.713768" lon="6.407343">
        <ele>17.365742</ele>
        <time>2022-01-09T19:51:48.547Z</time>
      </trkpt>
      <trkpt lat="51.713924" lon="6.407062">
        <ele>17.402744</ele>
        <time>2022-01-09T19:51:54.006Z</time>
      </trkpt>
      <trkpt lat="51.714066" lon="6.406804">
        <ele>17.436587</ele>
        <time>2022-01-09T19:51:59.042Z</time>
      </trkpt>
      <trkpt lat="51.714406" lon="6.406352">
        <ele>17.506308</ele>
        <time>2022-01-09T19:52:09.394Z</time>
      </trkpt>
      <trkpt lat="51.714717" lon="6.406061">
        <ele>17.535701</ele>
        <time>2022-01-09T19:52:17.634Z</time>
      </trkpt>
      <trkpt lat="51.715013" lon="6.405804">
        <ele>17.543263</ele>
        <time>2022-01-09T19:52:25.065Z</time>
      </trkpt>
      <trkpt lat="51.715254" lon="6.405599">
        <ele>17.549393</ele>
        <time>2022-01-09T19:52:31.042Z</time>
      </trkpt>
      <trkpt lat="51.716153" lon="6.404780">
        <ele>17.572202</ele>
        <time>2022-01-09T19:52:54.040Z</time>
      </trkpt>
      <trkpt lat="51.716752" lon="6.404240">
        <ele>17.581248</ele>
        <time>2022-01-09T19:53:08.951Z</time>
      </trkpt>
      <trkpt lat="51.717250" lon="6.403801">
        <ele>17.588730</ele>
        <time>2022-01-09T19:53:21.477Z</time>
      </trkpt>
      <trkpt lat="51.717692" lon="6.403411">
        <ele>17.595153</ele>
        <time>2022-01-09T19:53:32.954Z</time>
      </trkpt>
      <trkpt lat="51.718267" lon="6.402888">
        <ele>17.561611</ele>
        <time>2022-01-09T19:53:48.181Z</time>
      </trkpt>
      <trkpt lat="51.718394" lon="6.402773">
        <ele>17.554210</ele>
        <time>2022-01-09T19:53:51.421Z</time>
      </trkpt>
      <trkpt lat="51.718503" lon="6.402674">
        <ele>17.547854</ele>
        <time>2022-01-09T19:53:54.207Z</time>
      </trkpt>
      <trkpt lat="51.718890" lon="6.402426">
        <ele>17.526692</ele>
        <time>2022-01-09T19:54:03.189Z</time>
      </trkpt>
      <trkpt lat="51.719393" lon="6.402275">
        <ele>17.490182</ele>
        <time>2022-01-09T19:54:14.171Z</time>
      </trkpt>
      <trkpt lat="51.720186" lon="6.402218">
        <ele>17.318401</ele>
        <time>2022-01-09T19:54:31.177Z</time>
      </trkpt>
      <trkpt lat="51.720863" lon="6.401828">
        <ele>17.162844</ele>
        <time>2022-01-09T19:54:46.374Z</time>
      </trkpt>
      <trkpt lat="51.721256" lon="6.401718">
        <ele>17.159808</ele>
        <time>2022-01-09T19:54:54.991Z</time>
      </trkpt>
      <trkpt lat="51.722209" lon="6.401688">
        <ele>17.403821</ele>
        <time>2022-01-09T19:55:16.985Z</time>
      </trkpt>
      <trkpt lat="51.722552" lon="6.401739">
        <ele>17.492000</ele>
        <time>2022-01-09T19:55:25.227Z</time>
      </trkpt>
      <trkpt lat="51.723635" lon="6.402160">
        <ele>17.810926</ele>
        <time>2022-01-09T19:55:52.234Z</time>
      </trkpt>
      <trkpt lat="51.725369" lon="6.402131">
        <ele>18.114704</ele>
        <time>2022-01-09T19:56:31.762Z</time>
      </trkpt>
      <trkpt lat="51.725650" lon="6.402066">
        <ele>18.115567</ele>
        <time>2022-01-09T19:56:37.858Z</time>
      </trkpt>
      <trkpt lat="51.726252" lon="6.401907">
        <ele>18.117420</ele>
        <time>2022-01-09T19:56:51.144Z</time>
      </trkpt>
      <trkpt lat="51.726588" lon="6.401993">
        <ele>18.142728</ele>
        <time>2022-01-09T19:56:58.707Z</time>
      </trkpt>
      <trkpt lat="51.727372" lon="6.402729">
        <ele>18.282979</ele>
        <time>2022-01-09T19:57:19.326Z</time>
      </trkpt>
      <trkpt lat="51.727640" lon="6.402431">
        <ele>18.333303</ele>
        <time>2022-01-09T19:57:26.979Z</time>
      </trkpt>
      <trkpt lat="51.728279" lon="6.401571">
        <ele>18.391718</ele>
        <time>2022-01-09T19:57:46.447Z</time>
      </trkpt>
      <trkpt lat="51.728617" lon="6.401382">
        <ele>18.388018</ele>
        <time>2022-01-09T19:57:54.690Z</time>
      </trkpt>
      <trkpt lat="51.728855" lon="6.401879">
        <ele>18.383993</ele>
        <time>2022-01-09T19:58:03.404Z</time>
      </trkpt>
      <trkpt lat="51.728996" lon="6.401965">
        <ele>18.382434</ele>
        <time>2022-01-09T19:58:06.570Z</time>
      </trkpt>
      <trkpt lat="51.729251" lon="6.401777">
        <ele>18.379535</ele>
        <time>2022-01-09T19:58:12.582Z</time>
      </trkpt>
      <trkpt lat="51.729967" lon="6.400983">
        <ele>18.108369</ele>
        <time>2022-01-09T19:58:30.592Z</time>
      </trkpt>
      <trkpt lat="51.730145" lon="6.400840">
        <ele>18.028922</ele>
        <time>2022-01-09T19:58:34.678Z</time>
      </trkpt>
      <trkpt lat="51.730685" lon="6.400545">
        <ele>17.801121</ele>
        <time>2022-01-09T19:58:46.602Z</time>
      </trkpt>
      <trkpt lat="51.731082" lon="6.400442">
        <ele>17.645626</ele>
        <time>2022-01-09T19:58:54.986Z</time>
      </trkpt>
      <trkpt lat="51.734917" lon="6.400300">
        <ele>16.685553</ele>
        <time>2022-01-09T20:00:16.551Z</time>
      </trkpt>
      <trkpt lat="51.735035" lon="6.400279">
        <ele>16.678849</ele>
        <time>2022-01-09T20:00:19.184Z</time>
      </trkpt>
      <trkpt lat="51.737714" lon="6.399305">
        <ele>16.624568</ele>
        <time>2022-01-09T20:01:20.093Z</time>
      </trkpt>
      <trkpt lat="51.738150" lon="6.399133">
        <ele>16.632808</ele>
        <time>2022-01-09T20:01:30.063Z</time>
      </trkpt>
      <trkpt lat="51.740065" lon="6.397900">
        <ele>16.853345</ele>
        <time>2022-01-09T20:02:17.222Z</time>
      </trkpt>
      <trkpt lat="51.740502" lon="6.397527">
        <ele>16.868387</ele>
        <time>2022-01-09T20:02:28.190Z</time>
      </trkpt>
      <trkpt lat="51.740925" lon="6.396919">
        <ele>16.885619</ele>
        <time>2022-01-09T20:02:40.716Z</time>
      </trkpt>
      <trkpt lat="51.741422" lon="6.395860">
        <ele>16.920078</ele>
        <time>2022-01-09T20:02:59.026Z</time>
      </trkpt>
      <trkpt lat="51.741552" lon="6.395561">
        <ele>16.933076</ele>
        <time>2022-01-09T20:03:04.106Z</time>
      </trkpt>
      <trkpt lat="51.741651" lon="6.395336">
        <ele>16.942896</ele>
        <time>2022-01-09T20:03:07.898Z</time>
      </trkpt>
      <trkpt lat="51.741786" lon="6.395030">
        <ele>16.956263</ele>
        <time>2022-01-09T20:03:13.144Z</time>
      </trkpt>
      <trkpt lat="51.742029" lon="6.394532">
        <ele>16.978821</ele>
        <time>2022-01-09T20:03:21.998Z</time>
      </trkpt>
      <trkpt lat="51.742595" lon="6.393369">
        <ele>17.092684</ele>
        <time>2022-01-09T20:03:43.183Z</time>
      </trkpt>
      <trkpt lat="51.743090" lon="6.392571">
        <ele>17.220583</ele>
        <time>2022-01-09T20:03:59.136Z</time>
      </trkpt>
      <trkpt lat="51.743275" lon="6.392258">
        <ele>17.269578</ele>
        <time>2022-01-09T20:04:05.186Z</time>
      </trkpt>
      <trkpt lat="51.743323" lon="6.392172">
        <ele>17.282687</ele>
        <time>2022-01-09T20:04:06.844Z</time>
      </trkpt>
      <trkpt lat="51.743499" lon="6.391773">
        <ele>17.339204</ele>
        <time>2022-01-09T20:04:13.754Z</time>
      </trkpt>
      <trkpt lat="51.743652" lon="6.391323">
        <ele>17.407727</ele>
        <time>2022-01-09T20:04:21.076Z</time>
      </trkpt>
      <trkpt lat="51.743851" lon="6.390740">
        <ele>17.496583</ele>
        <time>2022-01-09T20:04:30.660Z</time>
      </trkpt>
      <trkpt lat="51.743896" lon="6.390772">
        <ele>17.507182</ele>
        <time>2022-01-09T20:04:32.189Z</time>
      </trkpt>
      <trkpt lat="51.744031" lon="6.390200">
        <ele>17.588887</ele>
        <time>2022-01-09T20:04:41.081Z</time>
      </trkpt>
      <trkpt lat="51.744220" lon="6.389035">
        <ele>17.717433</ele>
        <time>2022-01-09T20:04:58.413Z</time>
      </trkpt>
      <trkpt lat="51.744238" lon="6.388682">
        <ele>17.713290</ele>
        <time>2022-01-09T20:05:03.315Z</time>
      </trkpt>
      <trkpt lat="51.744355" lon="6.387708">
        <ele>17.701686</ele>
        <time>2022-01-09T20:05:16.933Z</time>
      </trkpt>
      <trkpt lat="51.744552" lon="6.386200">
        <ele>17.683070</ele>
        <time>2022-01-09T20:05:37.677Z</time>
      </trkpt>
      <trkpt lat="51.744663" lon="6.385009">
        <ele>17.665505</ele>
        <time>2022-01-09T20:05:53.538Z</time>
      </trkpt>
      <trkpt lat="51.744730" lon="6.384278">
        <ele>17.654729</ele>
        <time>2022-01-09T20:06:03.589Z</time>
      </trkpt>
      <trkpt lat="51.745006" lon="6.381054">
        <ele>18.269941</ele>
        <time>2022-01-09T20:06:51.758Z</time>
      </trkpt>
      <trkpt lat="51.745120" lon="6.380497">
        <ele>18.393649</ele>
        <time>2022-01-09T20:07:00.385Z</time>
      </trkpt>
      <trkpt lat="51.745320" lon="6.379956">
        <ele>18.469415</ele>
        <time>2022-01-09T20:07:09.586Z</time>
      </trkpt>
      <trkpt lat="51.746833" lon="6.377528">
        <ele>18.585128</ele>
        <time>2022-01-09T20:07:58.153Z</time>
      </trkpt>
      <trkpt lat="51.747170" lon="6.376833">
        <ele>18.495959</ele>
        <time>2022-01-09T20:08:17.746Z</time>
      </trkpt>
      <trkpt lat="51.747437" lon="6.375853">
        <ele>18.305069</ele>
        <time>2022-01-09T20:08:41.147Z</time>
      </trkpt>
      <trkpt lat="51.747613" lon="6.374708">
        <ele>17.940353</ele>
        <time>2022-01-09T20:09:06.516Z</time>
      </trkpt>
      <trkpt lat="51.747693" lon="6.374100">
        <ele>17.748197</ele>
        <time>2022-01-09T20:09:19.980Z</time>
      </trkpt>
      <trkpt lat="51.747825" lon="6.373276">
        <ele>17.530799</ele>
        <time>2022-01-09T20:09:38.772Z</time>
      </trkpt>
      <trkpt lat="51.748025" lon="6.372403">
        <ele>17.536808</ele>
        <time>2022-01-09T20:09:59.994Z</time>
      </trkpt>
      <trkpt lat="51.748227" lon="6.371727">
        <ele>17.541653</ele>
        <time>2022-01-09T20:10:17.540Z</time>
      </trkpt>
      <trkpt lat="51.748279" lon="6.370798">
        <ele>17.547673</ele>
        <time>2022-01-09T20:10:39.179Z</time>
      </trkpt>
      <trkpt lat="51.748292" lon="6.370610">
        <ele>17.548889</ele>
        <time>2022-01-09T20:10:43.602Z</time>
      </trkpt>
      <trkpt lat="51.748298" lon="6.370374">
        <ele>17.550386</ele>
        <time>2022-01-09T20:10:49.181Z</time>
      </trkpt>
      <trkpt lat="51.748344" lon="6.368505">
        <ele>17.562240</ele>
        <time>2022-01-09T20:11:32.295Z</time>
      </trkpt>
      <trkpt lat="51.748213" lon="6.365973">
        <ele>17.526325</ele>
        <time>2022-01-09T20:12:30.132Z</time>
      </trkpt>
      <trkpt lat="51.748156" lon="6.364507">
        <ele>17.491377</ele>
        <time>2022-01-09T20:13:03.954Z</time>
      </trkpt>
      <trkpt lat="51.747985" lon="6.362123">
        <ele>17.426622</ele>
        <time>2022-01-09T20:13:58.963Z</time>
      </trkpt>
      <trkpt lat="51.747850" lon="6.360416">
        <ele>17.212136</ele>
        <time>2022-01-09T20:14:37.230Z</time>
      </trkpt>
      <trkpt lat="51.747592" lon="6.358679">
        <ele>16.986328</ele>
        <time>2022-01-09T20:15:17.278Z</time>
      </trkpt>
      <trkpt lat="51.747445" lon="6.357785">
        <ele>16.891534</ele>
        <time>2022-01-09T20:15:37.925Z</time>
      </trkpt>
      <trkpt lat="51.747295" lon="6.356319">
        <ele>16.739259</ele>
        <time>2022-01-09T20:16:11.418Z</time>
      </trkpt>
      <trkpt lat="51.747266" lon="6.355014">
        <ele>16.865415</ele>
        <time>2022-01-09T20:16:42.299Z</time>
      </trkpt>
      <trkpt lat="51.747337" lon="6.353740">
        <ele>16.998763</ele>
        <time>2022-01-09T20:17:12.463Z</time>
      </trkpt>
      <trkpt lat="51.747314" lon="6.353230">
        <ele>17.014986</ele>
        <time>2022-01-09T20:17:24.278Z</time>
      </trkpt>
      <trkpt lat="51.747377" lon="6.352186">
        <ele>16.852284</ele>
        <time>2022-01-09T20:17:47.998Z</time>
      </trkpt>
      <trkpt lat="51.747411" lon="6.351915">
        <ele>16.809395</ele>
        <time>2022-01-09T20:17:51.432Z</time>
      </trkpt>
      <trkpt lat="51.747610" lon="6.351308">
        <ele>16.702858</ele>
        <time>2022-01-09T20:18:00.638Z</time>
      </trkpt>
      <trkpt lat="51.747716" lon="6.350755">
        <ele>16.613066</ele>
        <time>2022-01-09T20:18:08.173Z</time>
      </trkpt>
      <trkpt lat="51.747941" lon="6.349853">
        <ele>16.480105</ele>
        <time>2022-01-09T20:18:20.378Z</time>
      </trkpt>
      <trkpt lat="51.748898" lon="6.345909">
        <ele>16.130115</ele>
        <time>2022-01-09T20:19:17.851Z</time>
      </trkpt>
      <trkpt lat="51.749077" lon="6.344922">
        <ele>16.114123</ele>
        <time>2022-01-09T20:19:32.018Z</time>
      </trkpt>
      <trkpt lat="51.749177" lon="6.343990">
        <ele>16.149617</ele>
        <time>2022-01-09T20:19:45.073Z</time>
      </trkpt>
      <trkpt lat="51.748927" lon="6.339505">
        <ele>16.373220</ele>
        <time>2022-01-09T20:20:48.202Z</time>
      </trkpt>
      <trkpt lat="51.748960" lon="6.338785">
        <ele>16.371239</ele>
        <time>2022-01-09T20:20:58.120Z</time>
      </trkpt>
      <trkpt lat="51.748908" lon="6.338718">
        <ele>16.369843</ele>
        <time>2022-01-09T20:20:59.587Z</time>
      </trkpt>
      <trkpt lat="51.748337" lon="6.337992">
        <ele>16.354590</ele>
        <time>2022-01-09T20:21:16.206Z</time>
      </trkpt>
      <trkpt lat="51.747833" lon="6.337618">
        <ele>16.342948</ele>
        <time>2022-01-09T20:21:28.995Z</time>
      </trkpt>
      <trkpt lat="51.747386" lon="6.337184">
        <ele>16.432373</ele>
        <time>2022-01-09T20:21:40.919Z</time>
      </trkpt>
      <trkpt lat="51.747293" lon="6.337094">
        <ele>16.454156</ele>
        <time>2022-01-09T20:21:43.445Z</time>
      </trkpt>
      <trkpt lat="51.747022" lon="6.336894">
        <ele>16.514022</ele>
        <time>2022-01-09T20:21:50.272Z</time>
      </trkpt>
      <trkpt lat="51.746533" lon="6.336534">
        <ele>16.621999</ele>
        <time>2022-01-09T20:22:03.036Z</time>
      </trkpt>
      <trkpt lat="51.745971" lon="6.336119">
        <ele>16.683735</ele>
        <time>2022-01-09T20:22:17.852Z</time>
      </trkpt>
      <trkpt lat="51.745331" lon="6.335572">
        <ele>16.619345</ele>
        <time>2022-01-09T20:22:34.367Z</time>
      </trkpt>
      <trkpt lat="51.744976" lon="6.335178">
        <ele>16.581041</ele>
        <time>2022-01-09T20:22:43.628Z</time>
      </trkpt>
      <trkpt lat="51.744955" lon="6.335160">
        <ele>16.578927</ele>
        <time>2022-01-09T20:22:44.132Z</time>
      </trkpt>
      <trkpt lat="51.743268" lon="6.333690">
        <ele>15.801470</ele>
        <time>2022-01-09T20:23:23.048Z</time>
      </trkpt>
      <trkpt lat="51.742778" lon="6.333154">
        <ele>15.622464</ele>
        <time>2022-01-09T20:23:35.557Z</time>
      </trkpt>
      <trkpt lat="51.742578" lon="6.332960">
        <ele>15.593005</ele>
        <time>2022-01-09T20:23:40.604Z</time>
      </trkpt>
      <trkpt lat="51.742047" lon="6.332667">
        <ele>15.522151</ele>
        <time>2022-01-09T20:23:52.951Z</time>
      </trkpt>
      <trkpt lat="51.741966" lon="6.332493">
        <ele>15.505131</ele>
        <time>2022-01-09T20:23:55.996Z</time>
      </trkpt>
      <trkpt lat="51.741925" lon="6.332107">
        <ele>15.474510</ele>
        <time>2022-01-09T20:24:01.458Z</time>
      </trkpt>
      <trkpt lat="51.741911" lon="6.331987">
        <ele>15.464963</ele>
        <time>2022-01-09T20:24:03.140Z</time>
      </trkpt>
      <trkpt lat="51.741806" lon="6.331677">
        <ele>15.437336</ele>
        <time>2022-01-09T20:24:08.033Z</time>
      </trkpt>
      <trkpt lat="51.741658" lon="6.331560">
        <ele>15.387871</ele>
        <time>2022-01-09T20:24:11.621Z</time>
      </trkpt>
      <trkpt lat="51.741579" lon="6.331513">
        <ele>15.359714</ele>
        <time>2022-01-09T20:24:14.688Z</time>
      </trkpt>
      <trkpt lat="51.741670" lon="6.331316">
        <ele>15.308815</ele>
        <time>2022-01-09T20:24:17.978Z</time>
      </trkpt>
      <trkpt lat="51.741797" lon="6.330598">
        <ele>15.154175</ele>
        <time>2022-01-09T20:24:27.526Z</time>
      </trkpt>
      <trkpt lat="51.741914" lon="6.330297">
        <ele>15.080577</ele>
        <time>2022-01-09T20:24:32.197Z</time>
      </trkpt>
      <trkpt lat="51.741951" lon="6.330162">
        <ele>15.050003</ele>
        <time>2022-01-09T20:24:34.026Z</time>
      </trkpt>
      <trkpt lat="51.742771" lon="6.328824">
        <ele>14.731943</ele>
        <time>2022-01-09T20:24:58.246Z</time>
      </trkpt>
      <trkpt lat="51.743052" lon="6.328348">
        <ele>14.652528</ele>
        <time>2022-01-09T20:25:06.812Z</time>
      </trkpt>
      <trkpt lat="51.743191" lon="6.327978">
        <ele>14.600269</ele>
        <time>2022-01-09T20:25:12.662Z</time>
      </trkpt>
      <trkpt lat="51.743223" lon="6.327992">
        <ele>14.593804</ele>
        <time>2022-01-09T20:25:13.439Z</time>
      </trkpt>
      <trkpt lat="51.743306" lon="6.328136">
        <ele>14.570048</ele>
        <time>2022-01-09T20:25:16.129Z</time>
      </trkpt>
      <trkpt lat="51.743368" lon="6.328037">
        <ele>14.553045</ele>
        <time>2022-01-09T20:25:18.104Z</time>
      </trkpt>
      <trkpt lat="51.743414" lon="6.327960">
        <ele>14.540125</ele>
        <time>2022-01-09T20:25:19.585Z</time>
      </trkpt>
      <trkpt lat="51.743616" lon="6.327616">
        <ele>14.482878</ele>
        <time>2022-01-09T20:25:26.183Z</time>
      </trkpt>
      <trkpt lat="51.743664" lon="6.327529">
        <ele>14.478576</ele>
        <time>2022-01-09T20:25:27.795Z</time>
      </trkpt>
      <trkpt lat="51.743812" lon="6.327259">
        <ele>14.468296</ele>
        <time>2022-01-09T20:25:32.807Z</time>
      </trkpt>
      <trkpt lat="51.744369" lon="6.326308">
        <ele>14.430976</ele>
        <time>2022-01-09T20:25:50.829Z</time>
      </trkpt>
      <trkpt lat="51.744940" lon="6.325366">
        <ele>14.378860</ele>
        <time>2022-01-09T20:26:08.767Z</time>
      </trkpt>
      <trkpt lat="51.745958" lon="6.323687">
        <ele>14.131083</ele>
        <time>2022-01-09T20:26:40.026Z</time>
      </trkpt>
      <trkpt lat="51.746712" lon="6.322514">
        <ele>14.050331</ele>
        <time>2022-01-09T20:27:02.823Z</time>
      </trkpt>
      <trkpt lat="51.747873" lon="6.320706">
        <ele>14.000049</ele>
        <time>2022-01-09T20:27:38.611Z</time>
      </trkpt>
      <trkpt lat="51.749291" lon="6.318546">
        <ele>14.000049</ele>
        <time>2022-01-09T20:28:22.035Z</time>
      </trkpt>
      <trkpt lat="51.750167" lon="6.317199">
        <ele>13.995846</ele>
        <time>2022-01-09T20:28:48.767Z</time>
      </trkpt>
      <trkpt lat="51.750358" lon="6.316855">
        <ele>13.989700</ele>
        <time>2022-01-09T20:28:55.091Z</time>
      </trkpt>
      <trkpt lat="51.750498" lon="6.316603">
        <ele>13.985197</ele>
        <time>2022-01-09T20:28:59.736Z</time>
      </trkpt>
      <trkpt lat="51.750755" lon="6.315969">
        <ele>13.975117</ele>
        <time>2022-01-09T20:29:10.245Z</time>
      </trkpt>
      <trkpt lat="51.751066" lon="6.315201">
        <ele>13.962911</ele>
        <time>2022-01-09T20:29:22.981Z</time>
      </trkpt>
      <trkpt lat="51.751609" lon="6.313201">
        <ele>13.821449</ele>
        <time>2022-01-09T20:29:52.219Z</time>
      </trkpt>
      <trkpt lat="51.751770" lon="6.312701">
        <ele>13.783357</ele>
        <time>2022-01-09T20:29:59.906Z</time>
      </trkpt>
      <trkpt lat="51.752157" lon="6.311841">
        <ele>13.747318</ele>
        <time>2022-01-09T20:30:14.376Z</time>
      </trkpt>
      <trkpt lat="51.752317" lon="6.311584">
        <ele>13.739165</ele>
        <time>2022-01-09T20:30:19.345Z</time>
      </trkpt>
      <trkpt lat="51.752611" lon="6.311128">
        <ele>13.724439</ele>
        <time>2022-01-09T20:30:28.231Z</time>
      </trkpt>
      <trkpt lat="51.753629" lon="6.309819">
        <ele>13.703692</ele>
        <time>2022-01-09T20:30:57.482Z</time>
      </trkpt>
      <trkpt lat="51.753815" lon="6.309497">
        <ele>13.705279</ele>
        <time>2022-01-09T20:31:03.476Z</time>
      </trkpt>
      <trkpt lat="51.753821" lon="6.309485">
        <ele>13.705334</ele>
        <time>2022-01-09T20:31:03.687Z</time>
      </trkpt>
      <trkpt lat="51.754184" lon="6.308636">
        <ele>13.709051</ele>
        <time>2022-01-09T20:31:17.842Z</time>
      </trkpt>
      <trkpt lat="51.754446" lon="6.307786">
        <ele>13.766769</ele>
        <time>2022-01-09T20:31:31.038Z</time>
      </trkpt>
      <trkpt lat="51.754491" lon="6.307853">
        <ele>13.777010</ele>
        <time>2022-01-09T20:31:32.375Z</time>
      </trkpt>
      <trkpt lat="51.755082" lon="6.308360">
        <ele>13.888981</ele>
        <time>2022-01-09T20:31:47.474Z</time>
      </trkpt>
      <trkpt lat="51.755288" lon="6.308537">
        <ele>13.928024</ele>
        <time>2022-01-09T20:31:52.863Z</time>
      </trkpt>
      <trkpt lat="51.755408" lon="6.308648">
        <ele>13.951162</ele>
        <time>2022-01-09T20:31:55.985Z</time>
      </trkpt>
      <trkpt lat="51.756069" lon="6.309266">
        <ele>14.122189</ele>
        <time>2022-01-09T20:32:14.319Z</time>
      </trkpt>
      <trkpt lat="51.756410" lon="6.309584">
        <ele>14.230289</ele>
        <time>2022-01-09T20:32:23.719Z</time>
      </trkpt>
      <trkpt lat="51.756764" lon="6.309914">
        <ele>14.342500</ele>
        <time>2022-01-09T20:32:33.228Z</time>
      </trkpt>
      <trkpt lat="51.757064" lon="6.310195">
        <ele>14.437707</ele>
        <time>2022-01-09T20:32:41.135Z</time>
      </trkpt>
      <trkpt lat="51.757693" lon="6.310790">
        <ele>14.484626</ele>
        <time>2022-01-09T20:32:57.583Z</time>
      </trkpt>
      <trkpt lat="51.758506" lon="6.311560">
        <ele>14.444266</ele>
        <time>2022-01-09T20:33:18.318Z</time>
      </trkpt>
      <trkpt lat="51.758922" lon="6.311995">
        <ele>14.409082</ele>
        <time>2022-01-09T20:33:28.993Z</time>
      </trkpt>
      <trkpt lat="51.759534" lon="6.312636">
        <ele>14.294371</ele>
        <time>2022-01-09T20:33:44.777Z</time>
      </trkpt>
      <trkpt lat="51.759566" lon="6.312568">
        <ele>14.286055</ele>
        <time>2022-01-09T20:33:46.332Z</time>
      </trkpt>
      <trkpt lat="51.761507" lon="6.314601">
        <ele>13.932090</ele>
        <time>2022-01-09T20:35:10.439Z</time>
      </trkpt>
      <trkpt lat="51.762077" lon="6.315125">
        <ele>13.887348</ele>
        <time>2022-01-09T20:35:34.580Z</time>
      </trkpt>
      <trkpt lat="51.762466" lon="6.314132">
        <ele>13.919942</ele>
        <time>2022-01-09T20:36:01.630Z</time>
      </trkpt>
      <trkpt lat="51.762929" lon="6.312633">
        <ele>13.944701</ele>
        <time>2022-01-09T20:36:40.528Z</time>
      </trkpt>
      <trkpt lat="51.763323" lon="6.310677">
        <ele>13.887341</ele>
        <time>2022-01-09T20:37:27.435Z</time>
      </trkpt>
      <trkpt lat="51.763470" lon="6.308836">
        <ele>13.951394</ele>
        <time>2022-01-09T20:37:53.500Z</time>
      </trkpt>
      <trkpt lat="51.763684" lon="6.304342">
        <ele>14.584896</ele>
        <time>2022-01-09T20:39:01.147Z</time>
      </trkpt>
      <trkpt lat="51.763774" lon="6.302240">
        <ele>15.217149</ele>
        <time>2022-01-09T20:39:34.533Z</time>
      </trkpt>
      <trkpt lat="51.763861" lon="6.300359">
        <ele>15.405599</ele>
        <time>2022-01-09T20:40:03.217Z</time>
      </trkpt>
      <trkpt lat="51.764015" lon="6.299028">
        <ele>15.378459</ele>
        <time>2022-01-09T20:40:21.945Z</time>
      </trkpt>
      <trkpt lat="51.764062" lon="6.298611">
        <ele>15.356159</ele>
        <time>2022-01-09T20:40:27.624Z</time>
      </trkpt>
      <trkpt lat="51.764534" lon="6.294420">
        <ele>14.599650</ele>
        <time>2022-01-09T20:41:24.180Z</time>
      </trkpt>
      <trkpt lat="51.764573" lon="6.294073">
        <ele>14.617416</ele>
        <time>2022-01-09T20:41:29.301Z</time>
      </trkpt>
      <trkpt lat="51.764632" lon="6.293543">
        <ele>14.644542</ele>
        <time>2022-01-09T20:41:37.683Z</time>
      </trkpt>
      <trkpt lat="51.764701" lon="6.292934">
        <ele>14.679487</ele>
        <time>2022-01-09T20:41:47.725Z</time>
      </trkpt>
      <trkpt lat="51.764732" lon="6.292663">
        <ele>14.809837</ele>
        <time>2022-01-09T20:41:52.559Z</time>
      </trkpt>
      <trkpt lat="51.765853" lon="6.293415">
        <ele>15.737452</ele>
        <time>2022-01-09T20:42:25.441Z</time>
      </trkpt>
      <trkpt lat="51.766193" lon="6.293553">
        <ele>16.005367</ele>
        <time>2022-01-09T20:42:34.307Z</time>
      </trkpt>
      <trkpt lat="51.766485" lon="6.293533">
        <ele>16.052037</ele>
        <time>2022-01-09T20:42:41.251Z</time>
      </trkpt>
      <trkpt lat="51.767675" lon="6.293034">
        <ele>16.063356</ele>
        <time>2022-01-09T20:43:09.277Z</time>
      </trkpt>
      <trkpt lat="51.768648" lon="6.292652">
        <ele>16.072891</ele>
        <time>2022-01-09T20:43:32.112Z</time>
      </trkpt>
      <trkpt lat="51.768974" lon="6.292530">
        <ele>16.076130</ele>
        <time>2022-01-09T20:43:39.971Z</time>
      </trkpt>
      <trkpt lat="51.770136" lon="6.292608">
        <ele>16.159131</ele>
        <time>2022-01-09T20:44:07.319Z</time>
      </trkpt>
      <trkpt lat="51.770862" lon="6.292505">
        <ele>16.309401</ele>
        <time>2022-01-09T20:44:25.025Z</time>
      </trkpt>
      <trkpt lat="51.771406" lon="6.292433">
        <ele>16.421945</ele>
        <time>2022-01-09T20:44:38.062Z</time>
      </trkpt>
      <trkpt lat="51.771468" lon="6.292425">
        <ele>16.434769</ele>
        <time>2022-01-09T20:44:39.580Z</time>
      </trkpt>
      <trkpt lat="51.771790" lon="6.292378">
        <ele>16.558646</ele>
        <time>2022-01-09T20:44:47.287Z</time>
      </trkpt>
      <trkpt lat="51.772214" lon="6.292190">
        <ele>16.760331</ele>
        <time>2022-01-09T20:44:58.070Z</time>
      </trkpt>
      <trkpt lat="51.772323" lon="6.292105">
        <ele>16.815848</ele>
        <time>2022-01-09T20:45:01.063Z</time>
      </trkpt>
      <trkpt lat="51.772588" lon="6.291901">
        <ele>16.950495</ele>
        <time>2022-01-09T20:45:08.518Z</time>
      </trkpt>
      <trkpt lat="51.772834" lon="6.291612">
        <ele>17.090006</ele>
        <time>2022-01-09T20:45:16.474Z</time>
      </trkpt>
      <trkpt lat="51.773207" lon="6.291177">
        <ele>17.270242</ele>
        <time>2022-01-09T20:45:28.336Z</time>
      </trkpt>
      <trkpt lat="51.773376" lon="6.291076">
        <ele>17.233045</ele>
        <time>2022-01-09T20:45:32.781Z</time>
      </trkpt>
      <trkpt lat="51.774014" lon="6.290719">
        <ele>17.093667</ele>
        <time>2022-01-09T20:45:48.559Z</time>
      </trkpt>
      <trkpt lat="51.774196" lon="6.291098">
        <ele>17.032387</ele>
        <time>2022-01-09T20:45:55.068Z</time>
      </trkpt>
      <trkpt lat="51.774531" lon="6.291753">
        <ele>16.923839</ele>
        <time>2022-01-09T20:46:05.741Z</time>
      </trkpt>
      <trkpt lat="51.775165" lon="6.292607">
        <ele>15.837551</ele>
        <time>2022-01-09T20:46:20.963Z</time>
      </trkpt>
      <trkpt lat="51.775198" lon="6.292522">
        <ele>15.749006</ele>
        <time>2022-01-09T20:46:22.165Z</time>
      </trkpt>
      <trkpt lat="51.775342" lon="6.292709">
        <ele>15.485569</ele>
        <time>2022-01-09T20:46:25.437Z</time>
      </trkpt>
      <trkpt lat="51.776157" lon="6.293797">
        <ele>14.175605</ele>
        <time>2022-01-09T20:46:44.714Z</time>
      </trkpt>
      <trkpt lat="51.776673" lon="6.294487">
        <ele>13.736855</ele>
        <time>2022-01-09T20:46:57.692Z</time>
      </trkpt>
      <trkpt lat="51.777319" lon="6.295425">
        <ele>13.167935</ele>
        <time>2022-01-09T20:47:16.342Z</time>
      </trkpt>
      <trkpt lat="51.777369" lon="6.295507">
        <ele>13.182166</ele>
        <time>2022-01-09T20:47:18.157Z</time>
      </trkpt>
      <trkpt lat="51.778401" lon="6.297207">
        <ele>13.557709</ele>
        <time>2022-01-09T20:47:53.086Z</time>
      </trkpt>
      <trkpt lat="51.779482" lon="6.299524">
        <ele>13.902462</ele>
        <time>2022-01-09T20:48:33.951Z</time>
      </trkpt>
      <trkpt lat="51.780324" lon="6.301788">
        <ele>14.261473</ele>
        <time>2022-01-09T20:49:11.484Z</time>
      </trkpt>
      <trkpt lat="51.781115" lon="6.304271">
        <ele>14.628304</ele>
        <time>2022-01-09T20:49:52.377Z</time>
      </trkpt>
      <trkpt lat="51.781611" lon="6.305828">
        <ele>14.647939</ele>
        <time>2022-01-09T20:50:15.961Z</time>
      </trkpt>
      <trkpt lat="51.782342" lon="6.307879">
        <ele>14.549920</ele>
        <time>2022-01-09T20:50:47.450Z</time>
      </trkpt>
      <trkpt lat="51.782697" lon="6.308687">
        <ele>14.729901</ele>
        <time>2022-01-09T20:51:01.321Z</time>
      </trkpt>
      <trkpt lat="51.782866" lon="6.308974">
        <ele>14.801859</ele>
        <time>2022-01-09T20:51:07.231Z</time>
      </trkpt>
      <trkpt lat="51.783374" lon="6.309836">
        <ele>15.028744</ele>
        <time>2022-01-09T20:51:25.487Z</time>
      </trkpt>
      <trkpt lat="51.783608" lon="6.310144">
        <ele>15.183443</ele>
        <time>2022-01-09T20:51:33.169Z</time>
      </trkpt>
      <trkpt lat="51.783672" lon="6.310224">
        <ele>15.224917</ele>
        <time>2022-01-09T20:51:35.212Z</time>
      </trkpt>
      <trkpt lat="51.783653" lon="6.310318">
        <ele>15.256280</ele>
        <time>2022-01-09T20:51:37.160Z</time>
      </trkpt>
      <trkpt lat="51.784046" lon="6.310754">
        <ele>15.500635</ele>
        <time>2022-01-09T20:51:49.040Z</time>
      </trkpt>
      <trkpt lat="51.784538" lon="6.311198">
        <ele>15.789500</ele>
        <time>2022-01-09T20:52:02.487Z</time>
      </trkpt>
      <trkpt lat="51.785179" lon="6.311612">
        <ele>16.063528</ele>
        <time>2022-01-09T20:52:18.384Z</time>
      </trkpt>
      <trkpt lat="51.786103" lon="6.311834">
        <ele>16.366661</ele>
        <time>2022-01-09T20:52:40.278Z</time>
      </trkpt>
      <trkpt lat="51.786581" lon="6.311861">
        <ele>16.520563</ele>
        <time>2022-01-09T20:52:51.711Z</time>
      </trkpt>
      <trkpt lat="51.787541" lon="6.311602">
        <ele>16.803111</ele>
        <time>2022-01-09T20:53:15.151Z</time>
      </trkpt>
      <trkpt lat="51.788408" lon="6.311137">
        <ele>16.958565</ele>
        <time>2022-01-09T20:53:36.351Z</time>
      </trkpt>
      <trkpt lat="51.789118" lon="6.310528">
        <ele>16.493240</ele>
        <time>2022-01-09T20:53:52.721Z</time>
      </trkpt>
      <trkpt lat="51.789355" lon="6.310298">
        <ele>16.333206</ele>
        <time>2022-01-09T20:53:58.025Z</time>
      </trkpt>
      <trkpt lat="51.789323" lon="6.310200">
        <ele>16.293522</ele>
        <time>2022-01-09T20:53:59.357Z</time>
      </trkpt>
      <trkpt lat="51.790136" lon="6.309166">
        <ele>15.767768</ele>
        <time>2022-01-09T20:54:19.805Z</time>
      </trkpt>
      <trkpt lat="51.790311" lon="6.308935">
        <ele>15.669317</ele>
        <time>2022-01-09T20:54:24.357Z</time>
      </trkpt>
      <trkpt lat="51.790437" lon="6.308768">
        <ele>15.598316</ele>
        <time>2022-01-09T20:54:27.587Z</time>
      </trkpt>
      <trkpt lat="51.790619" lon="6.308534">
        <ele>15.496983</ele>
        <time>2022-01-09T20:54:32.412Z</time>
      </trkpt>
      <trkpt lat="51.792012" lon="6.306739">
        <ele>15.139757</ele>
        <time>2022-01-09T20:55:12.052Z</time>
      </trkpt>
      <trkpt lat="51.793631" lon="6.304668">
        <ele>14.943748</ele>
        <time>2022-01-09T20:55:56.929Z</time>
      </trkpt>
      <trkpt lat="51.796717" lon="6.301009">
        <ele>14.807744</ele>
        <time>2022-01-09T20:57:21.558Z</time>
      </trkpt>
      <trkpt lat="51.798381" lon="6.299078">
        <ele>14.859725</ele>
        <time>2022-01-09T20:58:07.288Z</time>
      </trkpt>
      <trkpt lat="51.799639" lon="6.297503">
        <ele>15.135077</ele>
        <time>2022-01-09T20:58:44.112Z</time>
      </trkpt>
      <trkpt lat="51.800571" lon="6.295990">
        <ele>15.077073</ele>
        <time>2022-01-09T20:59:13.304Z</time>
      </trkpt>
      <trkpt lat="51.800911" lon="6.295321">
        <ele>15.039042</ele>
        <time>2022-01-09T20:59:24.780Z</time>
      </trkpt>
      <trkpt lat="51.800925" lon="6.295294">
        <ele>15.037495</ele>
        <time>2022-01-09T20:59:25.206Z</time>
      </trkpt>
      <trkpt lat="51.801463" lon="6.294054">
        <ele>15.136297</ele>
        <time>2022-01-09T20:59:45.478Z</time>
      </trkpt>
      <trkpt lat="51.803861" lon="6.288138">
        <ele>15.754590</ele>
        <time>2022-01-09T21:01:26.264Z</time>
      </trkpt>
      <trkpt lat="51.805106" lon="6.285085">
        <ele>15.871541</ele>
        <time>2022-01-09T21:02:17.190Z</time>
      </trkpt>
      <trkpt lat="51.806466" lon="6.281749">
        <ele>15.766207</ele>
        <time>2022-01-09T21:03:11.678Z</time>
      </trkpt>
      <trkpt lat="51.807885" lon="6.278261">
        <ele>15.555321</ele>
        <time>2022-01-09T21:04:07.926Z</time>
      </trkpt>
      <trkpt lat="51.808354" lon="6.277119">
        <ele>15.560766</ele>
        <time>2022-01-09T21:04:27.339Z</time>
      </trkpt>
      <trkpt lat="51.810199" lon="6.272579">
        <ele>15.408886</ele>
        <time>2022-01-09T21:05:41.622Z</time>
      </trkpt>
      <trkpt lat="51.810586" lon="6.271628">
        <ele>15.285586</ele>
        <time>2022-01-09T21:05:56.611Z</time>
      </trkpt>
      <trkpt lat="51.811049" lon="6.270487">
        <ele>15.156931</ele>
        <time>2022-01-09T21:06:14.554Z</time>
      </trkpt>
      <trkpt lat="51.810999" lon="6.270442">
        <ele>15.150277</ele>
        <time>2022-01-09T21:06:15.761Z</time>
      </trkpt>
      <trkpt lat="51.813039" lon="6.265426">
        <ele>14.894003</ele>
        <time>2022-01-09T21:07:36.954Z</time>
      </trkpt>
      <trkpt lat="51.814044" lon="6.262927">
        <ele>15.009235</ele>
        <time>2022-01-09T21:08:19.467Z</time>
      </trkpt>
      <trkpt lat="51.814426" lon="6.261708">
        <ele>15.014118</ele>
        <time>2022-01-09T21:08:38.287Z</time>
      </trkpt>
      <trkpt lat="51.814687" lon="6.260613">
        <ele>14.940707</ele>
        <time>2022-01-09T21:08:53.827Z</time>
      </trkpt>
      <trkpt lat="51.814996" lon="6.258671">
        <ele>14.640830</ele>
        <time>2022-01-09T21:09:20.006Z</time>
      </trkpt>
      <trkpt lat="51.815153" lon="6.256617">
        <ele>14.477620</ele>
        <time>2022-01-09T21:09:47.798Z</time>
      </trkpt>
      <trkpt lat="51.815343" lon="6.255229">
        <ele>14.401106</ele>
        <time>2022-01-09T21:10:07.321Z</time>
      </trkpt>
      <trkpt lat="51.816363" lon="6.251896">
        <ele>14.438468</ele>
        <time>2022-01-09T21:10:58.554Z</time>
      </trkpt>
      <trkpt lat="51.816529" lon="6.251228">
        <ele>14.462625</ele>
        <time>2022-01-09T21:11:08.568Z</time>
      </trkpt>
      <trkpt lat="51.816853" lon="6.249419">
        <ele>14.522601</ele>
        <time>2022-01-09T21:11:34.625Z</time>
      </trkpt>
      <trkpt lat="51.817098" lon="6.247099">
        <ele>14.580748</ele>
        <time>2022-01-09T21:12:07.367Z</time>
      </trkpt>
      <trkpt lat="51.817242" lon="6.246264">
        <ele>14.541222</ele>
        <time>2022-01-09T21:12:19.375Z</time>
      </trkpt>
      <trkpt lat="51.817406" lon="6.245613">
        <ele>14.509170</ele>
        <time>2022-01-09T21:12:29.125Z</time>
      </trkpt>
      <trkpt lat="51.818043" lon="6.243857">
        <ele>14.265998</ele>
        <time>2022-01-09T21:12:55.864Z</time>
      </trkpt>
      <trkpt lat="51.818231" lon="6.243187">
        <ele>14.098858</ele>
        <time>2022-01-09T21:13:05.176Z</time>
      </trkpt>
      <trkpt lat="51.818564" lon="6.241620">
        <ele>13.812550</ele>
        <time>2022-01-09T21:13:26.297Z</time>
      </trkpt>
      <trkpt lat="51.819285" lon="6.238241">
        <ele>14.238600</ele>
        <time>2022-01-09T21:14:17.627Z</time>
      </trkpt>
      <trkpt lat="51.819527" lon="6.237121">
        <ele>14.559482</ele>
        <time>2022-01-09T21:14:35.803Z</time>
      </trkpt>
      <trkpt lat="51.820043" lon="6.234735">
        <ele>15.074121</ele>
        <time>2022-01-09T21:15:12.944Z</time>
      </trkpt>
      <trkpt lat="51.821243" lon="6.229067">
        <ele>15.911704</ele>
        <time>2022-01-09T21:16:36.783Z</time>
      </trkpt>
      <trkpt lat="51.821317" lon="6.228652">
        <ele>16.009493</ele>
        <time>2022-01-09T21:16:43.763Z</time>
      </trkpt>
      <trkpt lat="51.821334" lon="6.228157">
        <ele>16.121735</ele>
        <time>2022-01-09T21:16:51.804Z</time>
      </trkpt>
      <trkpt lat="51.821168" lon="6.226879">
        <ele>16.511460</ele>
        <time>2022-01-09T21:17:12.340Z</time>
      </trkpt>
      <trkpt lat="51.821311" lon="6.225842">
        <ele>16.830338</ele>
        <time>2022-01-09T21:17:28.324Z</time>
      </trkpt>
      <trkpt lat="51.821295" lon="6.225797">
        <ele>16.845918</ele>
        <time>2022-01-09T21:17:29.059Z</time>
      </trkpt>
      <trkpt lat="51.821320" lon="6.225667">
        <ele>16.886779</ele>
        <time>2022-01-09T21:17:31.082Z</time>
      </trkpt>
      <trkpt lat="51.821347" lon="6.225522">
        <ele>16.932228</ele>
        <time>2022-01-09T21:17:33.307Z</time>
      </trkpt>
      <trkpt lat="51.821424" lon="6.225437">
        <ele>16.977489</ele>
        <time>2022-01-09T21:17:35.169Z</time>
      </trkpt>
      <trkpt lat="51.821667" lon="6.224602">
        <ele>16.643131</ele>
        <time>2022-01-09T21:17:47.449Z</time>
      </trkpt>
      <trkpt lat="51.822225" lon="6.223881">
        <ele>16.150829</ele>
        <time>2022-01-09T21:18:01.492Z</time>
      </trkpt>
      <trkpt lat="51.822466" lon="6.223453">
        <ele>15.904125</ele>
        <time>2022-01-09T21:18:08.172Z</time>
      </trkpt>
      <trkpt lat="51.823193" lon="6.220328">
        <ele>13.953024</ele>
        <time>2022-01-09T21:18:47.522Z</time>
      </trkpt>
      <trkpt lat="51.823246" lon="6.220379">
        <ele>13.947243</ele>
        <time>2022-01-09T21:18:49.229Z</time>
      </trkpt>
      <trkpt lat="51.824141" lon="6.216341">
        <ele>14.047226</ele>
        <time>2022-01-09T21:21:53.489Z</time>
      </trkpt>
      <trkpt lat="51.824581" lon="6.214360">
        <ele>14.281078</ele>
        <time>2022-01-09T21:23:23.913Z</time>
      </trkpt>
      <trkpt lat="51.824741" lon="6.213273">
        <ele>14.303833</ele>
        <time>2022-01-09T21:24:11.917Z</time>
      </trkpt>
      <trkpt lat="51.824786" lon="6.212364">
        <ele>14.322402</ele>
        <time>2022-01-09T21:24:51.076Z</time>
      </trkpt>
      <trkpt lat="51.824811" lon="6.211879">
        <ele>14.182664</ele>
        <time>2022-01-09T21:25:11.979Z</time>
      </trkpt>
      <trkpt lat="51.824732" lon="6.208700">
        <ele>13.109554</ele>
        <time>2022-01-09T21:27:28.620Z</time>
      </trkpt>
      <trkpt lat="51.824760" lon="6.205195">
        <ele>12.695279</ele>
        <time>2022-01-09T21:29:59.212Z</time>
      </trkpt>
      <trkpt lat="51.824883" lon="6.203073">
        <ele>12.702472</ele>
        <time>2022-01-09T21:31:30.737Z</time>
      </trkpt>
      <trkpt lat="51.825596" lon="6.195328">
        <ele>13.125036</ele>
        <time>2022-01-09T21:37:07.098Z</time>
      </trkpt>
      <trkpt lat="51.825632" lon="6.194942">
        <ele>13.148920</ele>
        <time>2022-01-09T21:37:23.848Z</time>
      </trkpt>
      <trkpt lat="51.825613" lon="6.194431">
        <ele>13.207007</ele>
        <time>2022-01-09T21:37:45.858Z</time>
      </trkpt>
      <trkpt lat="51.825586" lon="6.193498">
        <ele>13.317820</ele>
        <time>2022-01-09T21:38:25.972Z</time>
      </trkpt>
      <trkpt lat="51.824729" lon="6.186293">
        <ele>14.091922</ele>
        <time>2022-01-09T21:43:41.147Z</time>
      </trkpt>
      <trkpt lat="51.824673" lon="6.186311">
        <ele>14.077945</ele>
        <time>2022-01-09T21:43:42.459Z</time>
      </trkpt>
      <trkpt lat="51.824277" lon="6.183326">
        <ele>13.607317</ele>
        <time>2022-01-09T21:44:22.513Z</time>
      </trkpt>
      <trkpt lat="51.824135" lon="6.182754">
        <ele>13.491871</ele>
        <time>2022-01-09T21:44:30.541Z</time>
      </trkpt>
      <trkpt lat="51.823865" lon="6.181965">
        <ele>13.322965</ele>
        <time>2022-01-09T21:44:42.266Z</time>
      </trkpt>
      <trkpt lat="51.823516" lon="6.181247">
        <ele>13.151891</ele>
        <time>2022-01-09T21:44:54.180Z</time>
      </trkpt>
      <trkpt lat="51.823255" lon="6.180843">
        <ele>13.059684</ele>
        <time>2022-01-09T21:45:01.793Z</time>
      </trkpt>
      <trkpt lat="51.821720" lon="6.178763">
        <ele>12.799385</ele>
        <time>2022-01-09T21:45:44.676Z</time>
      </trkpt>
      <trkpt lat="51.821244" lon="6.178110">
        <ele>12.937358</ele>
        <time>2022-01-09T21:45:58.965Z</time>
      </trkpt>
      <trkpt lat="51.820845" lon="6.177575">
        <ele>13.051926</ele>
        <time>2022-01-09T21:46:11.794Z</time>
      </trkpt>
      <trkpt lat="51.820292" lon="6.176848">
        <ele>13.412792</ele>
        <time>2022-01-09T21:46:30.205Z</time>
      </trkpt>
      <trkpt lat="51.818673" lon="6.174638">
        <ele>14.337253</ele>
        <time>2022-01-09T21:47:24.935Z</time>
      </trkpt>
      <trkpt lat="51.818153" lon="6.173646">
        <ele>14.403184</ele>
        <time>2022-01-09T21:47:42.824Z</time>
      </trkpt>
      <trkpt lat="51.817803" lon="6.172698">
        <ele>14.049200</ele>
        <time>2022-01-09T21:47:57.275Z</time>
      </trkpt>
      <trkpt lat="51.817479" lon="6.171436">
        <ele>13.400906</ele>
        <time>2022-01-09T21:48:13.772Z</time>
      </trkpt>
      <trkpt lat="51.817329" lon="6.170111">
        <ele>12.835750</ele>
        <time>2022-01-09T21:48:30.055Z</time>
      </trkpt>
      <trkpt lat="51.817216" lon="6.165972">
        <ele>11.768439</ele>
        <time>2022-01-09T21:49:22.995Z</time>
      </trkpt>
      <trkpt lat="51.817101" lon="6.165778">
        <ele>11.730267</ele>
        <time>2022-01-09T21:49:26.740Z</time>
      </trkpt>
      <trkpt lat="51.817058" lon="6.165568">
        <ele>11.698850</ele>
        <time>2022-01-09T21:49:29.880Z</time>
      </trkpt>
      <trkpt lat="51.817069" lon="6.165433">
        <ele>11.679512</ele>
        <time>2022-01-09T21:49:31.805Z</time>
      </trkpt>
      <trkpt lat="51.815602" lon="6.165426">
        <ele>12.139760</ele>
        <time>2022-01-09T21:50:05.967Z</time>
      </trkpt>
      <trkpt lat="51.814945" lon="6.165250">
        <ele>12.458910</ele>
        <time>2022-01-09T21:50:22.916Z</time>
      </trkpt>
      <trkpt lat="51.812565" lon="6.163908">
        <ele>14.393571</ele>
        <time>2022-01-09T21:51:28.424Z</time>
      </trkpt>
      <trkpt lat="51.811808" lon="6.163646">
        <ele>14.724540</ele>
        <time>2022-01-09T21:51:46.448Z</time>
      </trkpt>
      <trkpt lat="51.810183" lon="6.163377">
        <ele>14.411729</ele>
        <time>2022-01-09T21:52:20.690Z</time>
      </trkpt>
      <trkpt lat="51.808806" lon="6.163343">
        <ele>14.214086</ele>
        <time>2022-01-09T21:52:50.055Z</time>
      </trkpt>
      <trkpt lat="51.807154" lon="6.163304">
        <ele>14.342164</ele>
        <time>2022-01-09T21:53:27.731Z</time>
      </trkpt>
      <trkpt lat="51.804984" lon="6.163617">
        <ele>14.981123</ele>
        <time>2022-01-09T21:54:18.612Z</time>
      </trkpt>
      <trkpt lat="51.804863" lon="6.163672">
        <ele>15.024305</ele>
        <time>2022-01-09T21:54:21.679Z</time>
      </trkpt>
      <trkpt lat="51.804568" lon="6.163703">
        <ele>15.125871</ele>
        <time>2022-01-09T21:54:28.857Z</time>
      </trkpt>
      <trkpt lat="51.802107" lon="6.164085">
        <ele>16.096750</ele>
        <time>2022-01-09T21:55:28.516Z</time>
      </trkpt>
      <trkpt lat="51.801766" lon="6.164098">
        <ele>16.135761</ele>
        <time>2022-01-09T21:55:36.130Z</time>
      </trkpt>
      <trkpt lat="51.801623" lon="6.164178">
        <ele>16.153066</ele>
        <time>2022-01-09T21:55:39.548Z</time>
      </trkpt>
      <trkpt lat="51.801507" lon="6.164244">
        <ele>16.167130</ele>
        <time>2022-01-09T21:55:42.331Z</time>
      </trkpt>
      <trkpt lat="51.801435" lon="6.164182">
        <ele>16.176459</ele>
        <time>2022-01-09T21:55:44.024Z</time>
      </trkpt>
      <trkpt lat="51.801368" lon="6.163920">
        <ele>16.196511</ele>
        <time>2022-01-09T21:55:49.185Z</time>
      </trkpt>
      <trkpt lat="51.801017" lon="6.163118">
        <ele>16.254668</ele>
        <time>2022-01-09T21:56:06.680Z</time>
      </trkpt>
      <trkpt lat="51.800805" lon="6.162682">
        <ele>16.270621</ele>
        <time>2022-01-09T21:56:16.603Z</time>
      </trkpt>
      <trkpt lat="51.800223" lon="6.161478">
        <ele>16.314574</ele>
        <time>2022-01-09T21:56:44.696Z</time>
      </trkpt>
      <trkpt lat="51.799667" lon="6.160433">
        <ele>16.319962</ele>
        <time>2022-01-09T21:57:09.988Z</time>
      </trkpt>
      <trkpt lat="51.799204" lon="6.159523">
        <ele>16.304790</ele>
        <time>2022-01-09T21:57:31.212Z</time>
      </trkpt>
      <trkpt lat="51.798716" lon="6.158519">
        <ele>16.281553</ele>
        <time>2022-01-09T21:57:54.096Z</time>
      </trkpt>
      <trkpt lat="51.798663" lon="6.158410">
        <ele>16.277220</ele>
        <time>2022-01-09T21:57:56.555Z</time>
      </trkpt>
      <trkpt lat="51.798164" lon="6.157315">
        <ele>16.234713</ele>
        <time>2022-01-09T21:58:20.989Z</time>
      </trkpt>
      <trkpt lat="51.797734" lon="6.156354">
        <ele>16.199699</ele>
        <time>2022-01-09T21:58:42.410Z</time>
      </trkpt>
      <trkpt lat="51.797624" lon="6.156130">
        <ele>16.194773</ele>
        <time>2022-01-09T21:58:47.617Z</time>
      </trkpt>
      <trkpt lat="51.796841" lon="6.154530">
        <ele>16.159633</ele>
        <time>2022-01-09T21:59:24.479Z</time>
      </trkpt>
      <trkpt lat="51.796464" lon="6.153747">
        <ele>16.117110</ele>
        <time>2022-01-09T21:59:42.223Z</time>
      </trkpt>
      <trkpt lat="51.796261" lon="6.153360">
        <ele>16.085189</ele>
        <time>2022-01-09T21:59:51.395Z</time>
      </trkpt>
      <trkpt lat="51.796124" lon="6.153087">
        <ele>16.063073</ele>
        <time>2022-01-09T21:59:57.769Z</time>
      </trkpt>
      <trkpt lat="51.795845" lon="6.152491">
        <ele>16.016052</ele>
        <time>2022-01-09T22:00:11.265Z</time>
      </trkpt>
      <trkpt lat="51.795734" lon="6.152077">
        <ele>15.987667</ele>
        <time>2022-01-09T22:00:19.381Z</time>
      </trkpt>
      <trkpt lat="51.795497" lon="6.151647">
        <ele>15.887673</ele>
        <time>2022-01-09T22:00:29.325Z</time>
      </trkpt>
      <trkpt lat="51.794937" lon="6.150142">
        <ele>15.380297</ele>
        <time>2022-01-09T22:00:59.005Z</time>
      </trkpt>
      <trkpt lat="51.794952" lon="6.150103">
        <ele>15.367030</ele>
        <time>2022-01-09T22:00:59.606Z</time>
      </trkpt>
      <trkpt lat="51.794907" lon="6.149958">
        <ele>15.320165</ele>
        <time>2022-01-09T22:01:03.096Z</time>
      </trkpt>
      <trkpt lat="51.794851" lon="6.149811">
        <ele>15.270291</ele>
        <time>2022-01-09T22:01:06.890Z</time>
      </trkpt>
      <trkpt lat="51.794781" lon="6.149814">
        <ele>15.237584</ele>
        <time>2022-01-09T22:01:08.484Z</time>
      </trkpt>
      <trkpt lat="51.794703" lon="6.149556">
        <ele>15.154625</ele>
        <time>2022-01-09T22:01:12.089Z</time>
      </trkpt>
      <trkpt lat="51.794624" lon="6.149309">
        <ele>15.100350</ele>
        <time>2022-01-09T22:01:15.687Z</time>
      </trkpt>
      <trkpt lat="51.794506" lon="6.148967">
        <ele>15.041024</ele>
        <time>2022-01-09T22:01:20.617Z</time>
      </trkpt>
      <trkpt lat="51.794168" lon="6.148014">
        <ele>14.874601</ele>
        <time>2022-01-09T22:01:34.650Z</time>
      </trkpt>
      <trkpt lat="51.794082" lon="6.147779">
        <ele>14.833236</ele>
        <time>2022-01-09T22:01:38.165Z</time>
      </trkpt>
      <trkpt lat="51.793938" lon="6.147336">
        <ele>14.757421</ele>
        <time>2022-01-09T22:01:44.727Z</time>
      </trkpt>
      <trkpt lat="51.793518" lon="6.146445">
        <ele>14.717212</ele>
        <time>2022-01-09T22:02:01.233Z</time>
      </trkpt>
      <trkpt lat="51.793393" lon="6.146166">
        <ele>14.732063</ele>
        <time>2022-01-09T22:02:06.679Z</time>
      </trkpt>
      <trkpt lat="51.793368" lon="6.146034">
        <ele>14.738014</ele>
        <time>2022-01-09T22:02:08.569Z</time>
      </trkpt>
      <trkpt lat="51.793441" lon="6.145963">
        <ele>14.743952</ele>
        <time>2022-01-09T22:02:10.547Z</time>
      </trkpt>
      <trkpt lat="51.793469" lon="6.145833">
        <ele>14.749886</ele>
        <time>2022-01-09T22:02:12.516Z</time>
      </trkpt>
      <trkpt lat="51.793415" lon="6.145667">
        <ele>14.757971</ele>
        <time>2022-01-09T22:02:15.125Z</time>
      </trkpt>
      <trkpt lat="51.793414" lon="6.145571">
        <ele>14.762110</ele>
        <time>2022-01-09T22:02:16.408Z</time>
      </trkpt>
      <trkpt lat="51.793405" lon="6.145502">
        <ele>14.765150</ele>
        <time>2022-01-09T22:02:17.630Z</time>
      </trkpt>
      <trkpt lat="51.793339" lon="6.145145">
        <ele>14.781213</ele>
        <time>2022-01-09T22:02:24.347Z</time>
      </trkpt>
      <trkpt lat="51.793127" lon="6.144590">
        <ele>14.809333</ele>
        <time>2022-01-09T22:02:35.716Z</time>
      </trkpt>
      <trkpt lat="51.792914" lon="6.144233">
        <ele>14.813953</ele>
        <time>2022-01-09T22:02:44.535Z</time>
      </trkpt>
      <trkpt lat="51.792757" lon="6.144074">
        <ele>14.814004</ele>
        <time>2022-01-09T22:02:49.911Z</time>
      </trkpt>
      <trkpt lat="51.792290" lon="6.143697">
        <ele>14.814147</ele>
        <time>2022-01-09T22:03:05.940Z</time>
      </trkpt>
      <trkpt lat="51.791905" lon="6.143100">
        <ele>14.814293</ele>
        <time>2022-01-09T22:03:21.231Z</time>
      </trkpt>
      <trkpt lat="51.791789" lon="6.142903">
        <ele>14.814339</ele>
        <time>2022-01-09T22:03:25.935Z</time>
      </trkpt>
      <trkpt lat="51.791703" lon="6.142822">
        <ele>14.814366</ele>
        <time>2022-01-09T22:03:28.770Z</time>
      </trkpt>
      <trkpt lat="51.791607" lon="6.142848">
        <ele>14.864447</ele>
        <time>2022-01-09T22:03:30.905Z</time>
      </trkpt>
      <trkpt lat="51.791475" lon="6.142815">
        <ele>15.002021</ele>
        <time>2022-01-09T22:03:33.814Z</time>
      </trkpt>
      <trkpt lat="51.791393" lon="6.142821">
        <ele>15.086566</ele>
        <time>2022-01-09T22:03:35.721Z</time>
      </trkpt>
      <trkpt lat="51.791381" lon="6.142734">
        <ele>15.143353</ele>
        <time>2022-01-09T22:03:36.929Z</time>
      </trkpt>
      <trkpt lat="51.791351" lon="6.142526">
        <ele>15.279419</ele>
        <time>2022-01-09T22:03:40.172Z</time>
      </trkpt>
      <trkpt lat="51.791304" lon="6.142173">
        <ele>15.509457</ele>
        <time>2022-01-09T22:03:49.189Z</time>
      </trkpt>
      <trkpt lat="51.791247" lon="6.141733">
        <ele>15.795852</ele>
        <time>2022-01-09T22:04:00.732Z</time>
      </trkpt>
      <trkpt lat="51.791223" lon="6.141434">
        <ele>15.987934</ele>
        <time>2022-01-09T22:04:08.517Z</time>
      </trkpt>
      <trkpt lat="51.791234" lon="6.141354">
        <ele>16.040144</ele>
        <time>2022-01-09T22:04:10.685Z</time>
      </trkpt>
      <trkpt lat="51.791222" lon="6.141189">
        <ele>16.145986</ele>
        <time>2022-01-09T22:04:15.128Z</time>
      </trkpt>
      <trkpt lat="51.791186" lon="6.140848">
        <ele>16.366370</ele>
        <time>2022-01-09T22:04:24.327Z</time>
      </trkpt>
      <trkpt lat="51.791135" lon="6.140734">
        <ele>16.456002</ele>
        <time>2022-01-09T22:04:26.891Z</time>
      </trkpt>
      <trkpt lat="51.791116" lon="6.140566">
        <ele>16.564806</ele>
        <time>2022-01-09T22:04:30.003Z</time>
      </trkpt>
      <trkpt lat="51.791129" lon="6.140358">
        <ele>16.740388</ele>
        <time>2022-01-09T22:04:33.612Z</time>
      </trkpt>
      <trkpt lat="51.791085" lon="6.140290">
        <ele>16.888713</ele>
        <time>2022-01-09T22:04:35.351Z</time>
      </trkpt>
      <trkpt lat="51.791077" lon="6.140216">
        <ele>17.001939</ele>
        <time>2022-01-09T22:04:36.716Z</time>
      </trkpt>
      <trkpt lat="51.791055" lon="6.140141">
        <ele>17.127050</ele>
        <time>2022-01-09T22:04:38.976Z</time>
      </trkpt>
      <trkpt lat="51.790987" lon="6.139854">
        <ele>17.590277</ele>
        <time>2022-01-09T22:04:47.978Z</time>
      </trkpt>
      <trkpt lat="51.790666" lon="6.138502">
        <ele>19.773039</ele>
        <time>2022-01-09T22:05:32.298Z</time>
      </trkpt>
      <trkpt lat="51.790528" lon="6.137919">
        <ele>20.713913</ele>
        <time>2022-01-09T22:05:50.777Z</time>
      </trkpt>
      <trkpt lat="51.790449" lon="6.137814">
        <ele>20.963123</ele>
        <time>2022-01-09T22:05:55.451Z</time>
      </trkpt>
      <trkpt lat="51.790395" lon="6.137469">
        <ele>21.160279</ele>
        <time>2022-01-09T22:06:02.108Z</time>
      </trkpt>
      <trkpt lat="51.790643" lon="6.137046">
        <ele>21.375967</ele>
        <time>2022-01-09T22:06:11.591Z</time>
      </trkpt>
      <trkpt lat="51.790754" lon="6.136862">
        <ele>21.471084</ele>
        <time>2022-01-09T22:06:15.347Z</time>
      </trkpt>
      <trkpt lat="51.790959" lon="6.136506">
        <ele>21.651085</ele>
        <time>2022-01-09T22:06:22.586Z</time>
      </trkpt>
      <trkpt lat="51.791130" lon="6.136121">
        <ele>21.826489</ele>
        <time>2022-01-09T22:06:29.536Z</time>
      </trkpt>
      <trkpt lat="51.791607" lon="6.135072">
        <ele>21.993510</ele>
        <time>2022-01-09T22:06:46.457Z</time>
      </trkpt>
      <trkpt lat="51.791709" lon="6.134848">
        <ele>21.918689</ele>
        <time>2022-01-09T22:06:49.892Z</time>
      </trkpt>
      <trkpt lat="51.792276" lon="6.133544">
        <ele>21.489928</ele>
        <time>2022-01-09T22:07:09.037Z</time>
      </trkpt>
      <trkpt lat="51.792342" lon="6.133388">
        <ele>21.439089</ele>
        <time>2022-01-09T22:07:11.548Z</time>
      </trkpt>
      <trkpt lat="51.792538" lon="6.132924">
        <ele>21.493004</ele>
        <time>2022-01-09T22:07:19.788Z</time>
      </trkpt>
      <trkpt lat="51.792804" lon="6.132316">
        <ele>22.028158</ele>
        <time>2022-01-09T22:07:32.010Z</time>
      </trkpt>
      <trkpt lat="51.792989" lon="6.131910">
        <ele>22.390528</ele>
        <time>2022-01-09T22:07:41.152Z</time>
      </trkpt>
      <trkpt lat="51.793072" lon="6.131733">
        <ele>22.550140</ele>
        <time>2022-01-09T22:07:45.441Z</time>
      </trkpt>
      <trkpt lat="51.793139" lon="6.131571">
        <ele>22.690178</ele>
        <time>2022-01-09T22:07:49.391Z</time>
      </trkpt>
      <trkpt lat="51.793237" lon="6.131529">
        <ele>22.807967</ele>
        <time>2022-01-09T22:07:52.354Z</time>
      </trkpt>
      <trkpt lat="51.793671" lon="6.130510">
        <ele>23.363913</ele>
        <time>2022-01-09T22:08:24.152Z</time>
      </trkpt>
      <trkpt lat="51.793899" lon="6.129962">
        <ele>23.238634</ele>
        <time>2022-01-09T22:08:39.939Z</time>
      </trkpt>
      <trkpt lat="51.794155" lon="6.129348">
        <ele>23.098174</ele>
        <time>2022-01-09T22:08:56.446Z</time>
      </trkpt>
      <trkpt lat="51.794441" lon="6.128858">
        <ele>22.970375</ele>
        <time>2022-01-09T22:09:10.533Z</time>
      </trkpt>
      <trkpt lat="51.794572" lon="6.128505">
        <ele>22.892288</ele>
        <time>2022-01-09T22:09:19.250Z</time>
      </trkpt>
      <trkpt lat="51.794737" lon="6.128628">
        <ele>22.644574</ele>
        <time>2022-01-09T22:09:22.402Z</time>
      </trkpt>
      <trkpt lat="51.795065" lon="6.128631">
        <ele>22.117503</ele>
        <time>2022-01-09T22:09:28.199Z</time>
      </trkpt>
      <trkpt lat="51.795195" lon="6.128626">
        <ele>21.908547</ele>
        <time>2022-01-09T22:09:30.462Z</time>
      </trkpt>
      <trkpt lat="51.796180" lon="6.128592">
        <ele>20.325389</ele>
        <time>2022-01-09T22:09:47.577Z</time>
      </trkpt>
      <trkpt lat="51.796182" lon="6.128737">
        <ele>20.181252</ele>
        <time>2022-01-09T22:09:49.331Z</time>
      </trkpt>
      <trkpt lat="51.798810" lon="6.128518">
        <ele>18.961807</ele>
        <time>2022-01-09T22:11:25.901Z</time>
      </trkpt>
      <trkpt lat="51.798834" lon="6.128519">
        <ele>18.944591</ele>
        <time>2022-01-09T22:11:26.750Z</time>
      </trkpt>
      <trkpt lat="51.801449" lon="6.128411">
        <ele>16.331947</ele>
        <time>2022-01-09T22:12:54.136Z</time>
      </trkpt>
      <trkpt lat="51.801546" lon="6.128425">
        <ele>16.215998</ele>
        <time>2022-01-09T22:12:57.298Z</time>
      </trkpt>
      <trkpt lat="51.801604" lon="6.128481">
        <ele>16.135570</ele>
        <time>2022-01-09T22:12:59.499Z</time>
      </trkpt>
      <trkpt lat="51.801672" lon="6.128536">
        <ele>16.045045</ele>
        <time>2022-01-09T22:13:01.957Z</time>
      </trkpt>
      <trkpt lat="51.801841" lon="6.127980">
        <ele>15.769187</ele>
        <time>2022-01-09T22:13:09.454Z</time>
      </trkpt>
      <trkpt lat="51.802031" lon="6.127464">
        <ele>15.502530</ele>
        <time>2022-01-09T22:13:16.799Z</time>
      </trkpt>
      <trkpt lat="51.803238" lon="6.123556">
        <ele>14.433466</ele>
        <time>2022-01-09T22:14:16.265Z</time>
      </trkpt>
      <trkpt lat="51.803523" lon="6.122818">
        <ele>14.564991</ele>
        <time>2022-01-09T22:14:29.634Z</time>
      </trkpt>
      <trkpt lat="51.803756" lon="6.122398">
        <ele>14.705526</ele>
        <time>2022-01-09T22:14:38.389Z</time>
      </trkpt>
      <trkpt lat="51.803835" lon="6.122257">
        <ele>14.752915</ele>
        <time>2022-01-09T22:14:41.411Z</time>
      </trkpt>
      <trkpt lat="51.804127" lon="6.121863">
        <ele>14.906088</ele>
        <time>2022-01-09T22:14:51.004Z</time>
      </trkpt>
      <trkpt lat="51.804483" lon="6.121558">
        <ele>15.068356</ele>
        <time>2022-01-09T22:15:01.152Z</time>
      </trkpt>
      <trkpt lat="51.805282" lon="6.121323">
        <ele>15.176151</ele>
        <time>2022-01-09T22:15:21.122Z</time>
      </trkpt>
      <trkpt lat="51.806104" lon="6.121369">
        <ele>15.233324</ele>
        <time>2022-01-09T22:15:40.020Z</time>
      </trkpt>
      <trkpt lat="51.807523" lon="6.121572">
        <ele>14.910820</ele>
        <time>2022-01-09T22:16:11.424Z</time>
      </trkpt>
      <trkpt lat="51.809536" lon="6.121868">
        <ele>14.483549</ele>
        <time>2022-01-09T22:16:55.885Z</time>
      </trkpt>
      <trkpt lat="51.810046" lon="6.122028">
        <ele>14.427493</ele>
        <time>2022-01-09T22:17:08.198Z</time>
      </trkpt>
      <trkpt lat="51.811060" lon="6.122594">
        <ele>14.829543</ele>
        <time>2022-01-09T22:17:35.008Z</time>
      </trkpt>
      <trkpt lat="51.811630" lon="6.122928">
        <ele>15.056771</ele>
        <time>2022-01-09T22:17:50.234Z</time>
      </trkpt>
      <trkpt lat="51.812162" lon="6.123152">
        <ele>15.114248</ele>
        <time>2022-01-09T22:18:03.618Z</time>
      </trkpt>
      <trkpt lat="51.812528" lon="6.123160">
        <ele>15.138144</ele>
        <time>2022-01-09T22:18:12.370Z</time>
      </trkpt>
      <trkpt lat="51.813796" lon="6.122362">
        <ele>15.021752</ele>
        <time>2022-01-09T22:18:43.471Z</time>
      </trkpt>
      <trkpt lat="51.814555" lon="6.122107">
        <ele>14.682416</ele>
        <time>2022-01-09T22:19:10.656Z</time>
      </trkpt>
      <trkpt lat="51.814875" lon="6.121905">
        <ele>14.532051</ele>
        <time>2022-01-09T22:19:22.657Z</time>
      </trkpt>
      <trkpt lat="51.815401" lon="6.121312">
        <ele>14.146855</ele>
        <time>2022-01-09T22:19:45.082Z</time>
      </trkpt>
      <trkpt lat="51.816156" lon="6.119599">
        <ele>13.209261</ele>
        <time>2022-01-09T22:20:29.819Z</time>
      </trkpt>
      <trkpt lat="51.816642" lon="6.118836">
        <ele>12.799052</ele>
        <time>2022-01-09T22:20:53.335Z</time>
      </trkpt>
      <trkpt lat="51.817351" lon="6.117922">
        <ele>12.274494</ele>
        <time>2022-01-09T22:21:24.884Z</time>
      </trkpt>
      <trkpt lat="51.818136" lon="6.117128">
        <ele>12.022249</ele>
        <time>2022-01-09T22:21:57.843Z</time>
      </trkpt>
      <trkpt lat="51.819516" lon="6.115780">
        <ele>12.081418</ele>
        <time>2022-01-09T22:22:58.151Z</time>
      </trkpt>
      <trkpt lat="51.821492" lon="6.113820">
        <ele>13.006199</ele>
        <time>2022-01-09T22:24:29.014Z</time>
      </trkpt>
      <trkpt lat="51.822051" lon="6.113270">
        <ele>13.234497</ele>
        <time>2022-01-09T22:24:54.032Z</time>
      </trkpt>
      <trkpt lat="51.822407" lon="6.112917">
        <ele>13.264218</ele>
        <time>2022-01-09T22:25:09.579Z</time>
      </trkpt>
      <trkpt lat="51.823923" lon="6.111391">
        <ele>12.785684</ele>
        <time>2022-01-09T22:26:13.462Z</time>
      </trkpt>
      <trkpt lat="51.824355" lon="6.110830">
        <ele>12.639177</ele>
        <time>2022-01-09T22:26:33.160Z</time>
      </trkpt>
      <trkpt lat="51.824810" lon="6.110087">
        <ele>12.468200</ele>
        <time>2022-01-09T22:26:56.497Z</time>
      </trkpt>
      <trkpt lat="51.825294" lon="6.109230">
        <ele>12.358099</ele>
        <time>2022-01-09T22:27:22.748Z</time>
      </trkpt>
      <trkpt lat="51.825570" lon="6.108576">
        <ele>12.361293</ele>
        <time>2022-01-09T22:27:40.802Z</time>
      </trkpt>
      <trkpt lat="51.826052" lon="6.107091">
        <ele>12.373333</ele>
        <time>2022-01-09T22:28:19.373Z</time>
      </trkpt>
      <trkpt lat="51.826702" lon="6.104764">
        <ele>12.771738</ele>
        <time>2022-01-09T22:29:19.709Z</time>
      </trkpt>
      <trkpt lat="51.826915" lon="6.104170">
        <ele>12.849285</ele>
        <time>2022-01-09T22:29:36.015Z</time>
      </trkpt>
      <trkpt lat="51.827419" lon="6.103172">
        <ele>12.945819</ele>
        <time>2022-01-09T22:30:06.087Z</time>
      </trkpt>
      <trkpt lat="51.827831" lon="6.102612">
        <ele>13.011031</ele>
        <time>2022-01-09T22:30:26.093Z</time>
      </trkpt>
      <trkpt lat="51.828491" lon="6.102068">
        <ele>13.077835</ele>
        <time>2022-01-09T22:30:53.495Z</time>
      </trkpt>
      <trkpt lat="51.829351" lon="6.101636">
        <ele>13.145788</ele>
        <time>2022-01-09T22:31:27.060Z</time>
      </trkpt>
      <trkpt lat="51.830043" lon="6.101381">
        <ele>13.236694</ele>
        <time>2022-01-09T22:31:53.989Z</time>
      </trkpt>
      <trkpt lat="51.830295" lon="6.101289">
        <ele>13.286944</ele>
        <time>2022-01-09T22:32:03.953Z</time>
      </trkpt>
      <trkpt lat="51.830286" lon="6.101178">
        <ele>13.300402</ele>
        <time>2022-01-09T22:32:05.478Z</time>
      </trkpt>
      <trkpt lat="51.830283" lon="6.101063">
        <ele>13.314238</ele>
        <time>2022-01-09T22:32:07.106Z</time>
      </trkpt>
      <trkpt lat="51.830446" lon="6.101007">
        <ele>13.346651</ele>
        <time>2022-01-09T22:32:11.276Z</time>
      </trkpt>
      <trkpt lat="51.831801" lon="6.100579">
        <ele>13.573048</ele>
        <time>2022-01-09T22:32:43.909Z</time>
      </trkpt>
      <trkpt lat="51.832420" lon="6.100299">
        <ele>13.639300</ele>
        <time>2022-01-09T22:32:58.942Z</time>
      </trkpt>
      <trkpt lat="51.833057" lon="6.099962">
        <ele>13.708382</ele>
        <time>2022-01-09T22:33:14.783Z</time>
      </trkpt>
      <trkpt lat="51.834110" lon="6.099169">
        <ele>13.795510</ele>
        <time>2022-01-09T22:33:42.478Z</time>
      </trkpt>
      <trkpt lat="51.835209" lon="6.097926">
        <ele>13.707957</ele>
        <time>2022-01-09T22:34:13.302Z</time>
      </trkpt>
      <trkpt lat="51.835549" lon="6.097467">
        <ele>13.618719</ele>
        <time>2022-01-09T22:34:23.205Z</time>
      </trkpt>
      <trkpt lat="51.835805" lon="6.097021">
        <ele>13.542908</ele>
        <time>2022-01-09T22:34:31.581Z</time>
      </trkpt>
      <trkpt lat="51.837099" lon="6.094083">
        <ele>12.814684</ele>
        <time>2022-01-09T22:35:20.284Z</time>
      </trkpt>
      <trkpt lat="51.837823" lon="6.093008">
        <ele>12.506209</ele>
        <time>2022-01-09T22:35:41.761Z</time>
      </trkpt>
      <trkpt lat="51.838878" lon="6.091796">
        <ele>12.151685</ele>
        <time>2022-01-09T22:36:10.330Z</time>
      </trkpt>
      <trkpt lat="51.841634" lon="6.087627">
        <ele>11.505187</ele>
        <time>2022-01-09T22:37:35.101Z</time>
      </trkpt>
      <trkpt lat="51.843051" lon="6.085444">
        <ele>11.694590</ele>
        <time>2022-01-09T22:38:21.057Z</time>
      </trkpt>
      <trkpt lat="51.843509" lon="6.084738">
        <ele>11.857795</ele>
        <time>2022-01-09T22:38:36.826Z</time>
      </trkpt>
      <trkpt lat="51.844558" lon="6.083230">
        <ele>12.567048</ele>
        <time>2022-01-09T22:39:12.267Z</time>
      </trkpt>
      <trkpt lat="51.844954" lon="6.082828">
        <ele>12.825569</ele>
        <time>2022-01-09T22:39:24.286Z</time>
      </trkpt>
      <trkpt lat="51.845621" lon="6.082401">
        <ele>13.129486</ele>
        <time>2022-01-09T22:39:42.747Z</time>
      </trkpt>
      <trkpt lat="51.846069" lon="6.082222">
        <ele>13.308654</ele>
        <time>2022-01-09T22:39:54.405Z</time>
      </trkpt>
      <trkpt lat="51.846685" lon="6.081941">
        <ele>13.557148</ele>
        <time>2022-01-09T22:40:09.824Z</time>
      </trkpt>
      <trkpt lat="51.847099" lon="6.081645">
        <ele>13.487408</ele>
        <time>2022-01-09T22:40:20.385Z</time>
      </trkpt>
      <trkpt lat="51.847902" lon="6.080817">
        <ele>13.123067</ele>
        <time>2022-01-09T22:40:40.945Z</time>
      </trkpt>
      <trkpt lat="51.848824" lon="6.079393">
        <ele>12.837693</ele>
        <time>2022-01-09T22:41:07.661Z</time>
      </trkpt>
      <trkpt lat="51.852059" lon="6.073717">
        <ele>12.676033</ele>
        <time>2022-01-09T22:42:59.060Z</time>
      </trkpt>
      <trkpt lat="51.852449" lon="6.073151">
        <ele>12.792089</ele>
        <time>2022-01-09T22:43:11.693Z</time>
      </trkpt>
      <trkpt lat="51.853266" lon="6.072446">
        <ele>12.997232</ele>
        <time>2022-01-09T22:43:33.955Z</time>
      </trkpt>
      <trkpt lat="51.854645" lon="6.071915">
        <ele>13.296523</ele>
        <time>2022-01-09T22:44:08.156Z</time>
      </trkpt>
      <trkpt lat="51.855269" lon="6.071510">
        <ele>13.414478</ele>
        <time>2022-01-09T22:44:24.399Z</time>
      </trkpt>
      <trkpt lat="51.855850" lon="6.070864">
        <ele>13.307807</ele>
        <time>2022-01-09T22:44:40.672Z</time>
      </trkpt>
      <trkpt lat="51.856291" lon="6.070118">
        <ele>13.211279</ele>
        <time>2022-01-09T22:44:54.720Z</time>
      </trkpt>
      <trkpt lat="51.857174" lon="6.068441">
        <ele>12.870297</ele>
        <time>2022-01-09T22:45:24.613Z</time>
      </trkpt>
      <trkpt lat="51.857486" lon="6.067996">
        <ele>12.749377</ele>
        <time>2022-01-09T22:45:33.828Z</time>
      </trkpt>
      <trkpt lat="51.858368" lon="6.067044">
        <ele>12.563802</ele>
        <time>2022-01-09T22:45:57.840Z</time>
      </trkpt>
      <trkpt lat="51.859126" lon="6.066108">
        <ele>12.467911</ele>
        <time>2022-01-09T22:46:19.789Z</time>
      </trkpt>
      <trkpt lat="51.859546" lon="6.065217">
        <ele>12.434198</ele>
        <time>2022-01-09T22:46:35.255Z</time>
      </trkpt>
      <trkpt lat="51.859805" lon="6.063842">
        <ele>12.409724</ele>
        <time>2022-01-09T22:46:55.357Z</time>
      </trkpt>
      <trkpt lat="51.860053" lon="6.060888">
        <ele>13.049191</ele>
        <time>2022-01-09T22:47:40.819Z</time>
      </trkpt>
      <trkpt lat="51.860165" lon="6.060160">
        <ele>13.269226</ele>
        <time>2022-01-09T22:47:52.920Z</time>
      </trkpt>
      <trkpt lat="51.860197" lon="6.059430">
        <ele>13.517402</ele>
        <time>2022-01-09T22:48:04.351Z</time>
      </trkpt>
      <trkpt lat="51.860197" lon="6.059406">
        <ele>13.525541</ele>
        <time>2022-01-09T22:48:04.721Z</time>
      </trkpt>
      <trkpt lat="51.860208" lon="6.058349">
        <ele>13.884036</ele>
        <time>2022-01-09T22:48:20.789Z</time>
      </trkpt>
      <trkpt lat="51.860218" lon="6.057040">
        <ele>14.157469</ele>
        <time>2022-01-09T22:48:40.195Z</time>
      </trkpt>
      <trkpt lat="51.860227" lon="6.056527">
        <ele>14.081755</ele>
        <time>2022-01-09T22:48:47.148Z</time>
      </trkpt>
      <trkpt lat="51.860220" lon="6.055437">
        <ele>13.920937</ele>
        <time>2022-01-09T22:49:01.173Z</time>
      </trkpt>
      <trkpt lat="51.860176" lon="6.054605">
        <ele>13.797742</ele>
        <time>2022-01-09T22:49:11.736Z</time>
      </trkpt>
      <trkpt lat="51.860117" lon="6.053816">
        <ele>13.596494</ele>
        <time>2022-01-09T22:49:21.810Z</time>
      </trkpt>
      <trkpt lat="51.860131" lon="6.053118">
        <ele>13.406047</ele>
        <time>2022-01-09T22:49:30.654Z</time>
      </trkpt>
      <trkpt lat="51.860340" lon="6.052161">
        <ele>13.129233</ele>
        <time>2022-01-09T22:49:43.429Z</time>
      </trkpt>
      <trkpt lat="51.860481" lon="6.051649">
        <ele>12.985612</ele>
        <time>2022-01-09T22:49:50.715Z</time>
      </trkpt>
      <trkpt lat="51.860966" lon="6.049985">
        <ele>13.004907</ele>
        <time>2022-01-09T22:50:16.179Z</time>
      </trkpt>
      <trkpt lat="51.861126" lon="6.049703">
        <ele>13.008922</ele>
        <time>2022-01-09T22:50:21.582Z</time>
      </trkpt>
      <trkpt lat="51.861104" lon="6.049560">
        <ele>13.010468</ele>
        <time>2022-01-09T22:50:23.648Z</time>
      </trkpt>
      <trkpt lat="51.861174" lon="6.049301">
        <ele>13.013432</ele>
        <time>2022-01-09T22:50:27.611Z</time>
      </trkpt>
      <trkpt lat="51.861468" lon="6.048887">
        <ele>13.082561</ele>
        <time>2022-01-09T22:50:36.413Z</time>
      </trkpt>
      <trkpt lat="51.862332" lon="6.048206">
        <ele>13.339529</ele>
        <time>2022-01-09T22:50:58.855Z</time>
      </trkpt>
      <trkpt lat="51.862470" lon="6.048102">
        <ele>13.380234</ele>
        <time>2022-01-09T22:51:02.506Z</time>
      </trkpt>
      <trkpt lat="51.862519" lon="6.048065">
        <ele>13.394693</ele>
        <time>2022-01-09T22:51:03.765Z</time>
      </trkpt>
      <trkpt lat="51.862627" lon="6.047990">
        <ele>13.426118</ele>
        <time>2022-01-09T22:51:06.564Z</time>
      </trkpt>
      <trkpt lat="51.862669" lon="6.047961">
        <ele>13.438328</ele>
        <time>2022-01-09T22:51:07.674Z</time>
      </trkpt>
      <trkpt lat="51.862692" lon="6.047945">
        <ele>13.445022</ele>
        <time>2022-01-09T22:51:08.251Z</time>
      </trkpt>
      <trkpt lat="51.862888" lon="6.047810">
        <ele>13.500414</ele>
        <time>2022-01-09T22:51:13.253Z</time>
      </trkpt>
      <trkpt lat="51.863177" lon="6.047644">
        <ele>13.557598</ele>
        <time>2022-01-09T22:51:20.447Z</time>
      </trkpt>
      <trkpt lat="51.863546" lon="6.047459">
        <ele>13.629633</ele>
        <time>2022-01-09T22:51:29.436Z</time>
      </trkpt>
      <trkpt lat="51.863777" lon="6.047255">
        <ele>13.678700</ele>
        <time>2022-01-09T22:51:35.567Z</time>
      </trkpt>
      <trkpt lat="51.864030" lon="6.048198">
        <ele>13.797102</ele>
        <time>2022-01-09T22:51:50.855Z</time>
      </trkpt>
      <trkpt lat="51.864048" lon="6.048276">
        <ele>13.806691</ele>
        <time>2022-01-09T22:51:52.080Z</time>
      </trkpt>
      <trkpt lat="51.864508" lon="6.050274">
        <ele>13.828154</ele>
        <time>2022-01-09T22:52:21.789Z</time>
      </trkpt>
      <trkpt lat="51.864732" lon="6.051435">
        <ele>13.837782</ele>
        <time>2022-01-09T22:52:39.591Z</time>
      </trkpt>
      <trkpt lat="51.864851" lon="6.052078">
        <ele>13.874619</ele>
        <time>2022-01-09T22:52:49.748Z</time>
      </trkpt>
      <trkpt lat="51.865063" lon="6.053843">
        <ele>13.973290</ele>
        <time>2022-01-09T22:53:15.190Z</time>
      </trkpt>
      <trkpt lat="51.865262" lon="6.054188">
        <ele>14.025589</ele>
        <time>2022-01-09T22:53:21.583Z</time>
      </trkpt>
      <trkpt lat="51.865558" lon="6.054318">
        <ele>14.106770</ele>
        <time>2022-01-09T22:53:29.118Z</time>
      </trkpt>
      <trkpt lat="51.865590" lon="6.054322">
        <ele>14.115265</ele>
        <time>2022-01-09T22:53:29.961Z</time>
      </trkpt>
      <trkpt lat="51.866232" lon="6.054328">
        <ele>14.285203</ele>
        <time>2022-01-09T22:53:45.302Z</time>
      </trkpt>
      <trkpt lat="51.866506" lon="6.054143">
        <ele>14.363781</ele>
        <time>2022-01-09T22:53:52.041Z</time>
      </trkpt>
      <trkpt lat="51.866675" lon="6.053883">
        <ele>14.425483</ele>
        <time>2022-01-09T22:53:57.358Z</time>
      </trkpt>
      <trkpt lat="51.866845" lon="6.053488">
        <ele>14.505153</ele>
        <time>2022-01-09T22:54:04.245Z</time>
      </trkpt>
      <trkpt lat="51.867005" lon="6.052896">
        <ele>14.613212</ele>
        <time>2022-01-09T22:54:13.421Z</time>
      </trkpt>
      <trkpt lat="51.867110" lon="6.052285">
        <ele>14.719264</ele>
        <time>2022-01-09T22:54:22.887Z</time>
      </trkpt>
      <trkpt lat="51.867130" lon="6.051715">
        <ele>14.814731</ele>
        <time>2022-01-09T22:54:31.775Z</time>
      </trkpt>
      <trkpt lat="51.867156" lon="6.051003">
        <ele>14.933997</ele>
        <time>2022-01-09T22:54:42.471Z</time>
      </trkpt>
      <trkpt lat="51.867047" lon="6.047578">
        <ele>13.924077</ele>
        <time>2022-01-09T22:55:25.527Z</time>
      </trkpt>
      <trkpt lat="51.867040" lon="6.047433">
        <ele>13.859682</ele>
        <time>2022-01-09T22:55:27.372Z</time>
      </trkpt>
      <trkpt lat="51.867036" lon="6.046635">
        <ele>13.506352</ele>
        <time>2022-01-09T22:55:37.502Z</time>
      </trkpt>
      <trkpt lat="51.867081" lon="6.046168">
        <ele>13.297083</ele>
        <time>2022-01-09T22:55:43.521Z</time>
      </trkpt>
      <trkpt lat="51.867271" lon="6.045276">
        <ele>12.879311</ele>
        <time>2022-01-09T22:55:55.510Z</time>
      </trkpt>
      <trkpt lat="51.867510" lon="6.044633">
        <ele>12.793607</ele>
        <time>2022-01-09T22:56:05.285Z</time>
      </trkpt>
      <trkpt lat="51.867999" lon="6.043822">
        <ele>12.739538</ele>
        <time>2022-01-09T22:56:21.273Z</time>
      </trkpt>
      <trkpt lat="51.868336" lon="6.043027">
        <ele>12.693541</ele>
        <time>2022-01-09T22:56:35.652Z</time>
      </trkpt>
      <trkpt lat="51.868558" lon="6.042181">
        <ele>12.901291</ele>
        <time>2022-01-09T22:56:49.682Z</time>
      </trkpt>
      <trkpt lat="51.868710" lon="6.041224">
        <ele>13.195497</ele>
        <time>2022-01-09T22:57:05.982Z</time>
      </trkpt>
      <trkpt lat="51.868846" lon="6.040700">
        <ele>13.364731</ele>
        <time>2022-01-09T22:57:14.906Z</time>
      </trkpt>
      <trkpt lat="51.869072" lon="6.040108">
        <ele>13.547846</ele>
        <time>2022-01-09T22:57:25.088Z</time>
      </trkpt>
      <trkpt lat="51.869300" lon="6.039735">
        <ele>13.517978</ele>
        <time>2022-01-09T22:57:32.557Z</time>
      </trkpt>
      <trkpt lat="51.869329" lon="6.039688">
        <ele>13.514197</ele>
        <time>2022-01-09T22:57:33.478Z</time>
      </trkpt>
      <trkpt lat="51.869497" lon="6.039416">
        <ele>13.492303</ele>
        <time>2022-01-09T22:57:38.951Z</time>
      </trkpt>
      <trkpt lat="51.869753" lon="6.038797">
        <ele>13.449907</ele>
        <time>2022-01-09T22:57:49.180Z</time>
      </trkpt>
      <trkpt lat="51.869894" lon="6.038112">
        <ele>13.408818</ele>
        <time>2022-01-09T22:57:59.165Z</time>
      </trkpt>
      <trkpt lat="51.869918" lon="6.037908">
        <ele>13.397001</ele>
        <time>2022-01-09T22:58:02.096Z</time>
      </trkpt>
      <trkpt lat="51.870239" lon="6.034479">
        <ele>13.151919</ele>
        <time>2022-01-09T22:58:50.751Z</time>
      </trkpt>
      <trkpt lat="51.870274" lon="6.034084">
        <ele>13.121493</ele>
        <time>2022-01-09T22:58:56.609Z</time>
      </trkpt>
      <trkpt lat="51.870331" lon="6.033527">
        <ele>13.078444</ele>
        <time>2022-01-09T22:59:04.722Z</time>
      </trkpt>
      <trkpt lat="51.870381" lon="6.032081">
        <ele>12.968019</ele>
        <time>2022-01-09T22:59:24.965Z</time>
      </trkpt>
      <trkpt lat="51.870184" lon="6.030547">
        <ele>12.700489</ele>
        <time>2022-01-09T22:59:46.083Z</time>
      </trkpt>
      <trkpt lat="51.869831" lon="6.029705">
        <ele>12.517258</ele>
        <time>2022-01-09T22:59:59.883Z</time>
      </trkpt>
      <trkpt lat="51.867926" lon="6.026499">
        <ele>11.859159</ele>
        <time>2022-01-09T23:01:01.193Z</time>
      </trkpt>
      <trkpt lat="51.866948" lon="6.024337">
        <ele>11.670067</ele>
        <time>2022-01-09T23:01:38.537Z</time>
      </trkpt>
      <trkpt lat="51.866506" lon="6.023808">
        <ele>11.673012</ele>
        <time>2022-01-09T23:01:51.382Z</time>
      </trkpt>
      <trkpt lat="51.866448" lon="6.023563">
        <ele>11.673881</ele>
        <time>2022-01-09T23:01:55.135Z</time>
      </trkpt>
      <trkpt lat="51.866533" lon="6.022718">
        <ele>11.676714</ele>
        <time>2022-01-09T23:02:07.589Z</time>
      </trkpt>
      <trkpt lat="51.866482" lon="6.022515">
        <ele>11.689153</ele>
        <time>2022-01-09T23:02:10.752Z</time>
      </trkpt>
      <trkpt lat="51.866260" lon="6.022134">
        <ele>11.731831</ele>
        <time>2022-01-09T23:02:18.429Z</time>
      </trkpt>
      <trkpt lat="51.864953" lon="6.019717">
        <ele>12.073978</ele>
        <time>2022-01-09T23:03:03.889Z</time>
      </trkpt>
      <trkpt lat="51.864634" lon="6.018977">
        <ele>12.222020</ele>
        <time>2022-01-09T23:03:16.782Z</time>
      </trkpt>
      <trkpt lat="51.864378" lon="6.018165">
        <ele>12.371577</ele>
        <time>2022-01-09T23:03:30.084Z</time>
      </trkpt>
      <trkpt lat="51.864058" lon="6.016795">
        <ele>12.478650</ele>
        <time>2022-01-09T23:03:51.237Z</time>
      </trkpt>
      <trkpt lat="51.863993" lon="6.016388">
        <ele>12.505820</ele>
        <time>2022-01-09T23:03:57.298Z</time>
      </trkpt>
      <trkpt lat="51.863989" lon="6.015592">
        <ele>12.557266</ele>
        <time>2022-01-09T23:04:08.303Z</time>
      </trkpt>
      <trkpt lat="51.864263" lon="6.014152">
        <ele>12.215501</ele>
        <time>2022-01-09T23:04:27.817Z</time>
      </trkpt>
      <trkpt lat="51.864648" lon="6.013165">
        <ele>11.845334</ele>
        <time>2022-01-09T23:04:42.384Z</time>
      </trkpt>
      <trkpt lat="51.864952" lon="6.012685">
        <ele>11.635424</ele>
        <time>2022-01-09T23:04:50.770Z</time>
      </trkpt>
      <trkpt lat="51.865459" lon="6.012042">
        <ele>11.395819</ele>
        <time>2022-01-09T23:05:03.799Z</time>
      </trkpt>
      <trkpt lat="51.865678" lon="6.011617">
        <ele>11.268640</ele>
        <time>2022-01-09T23:05:10.869Z</time>
      </trkpt>
      <trkpt lat="51.865795" lon="6.011210">
        <ele>11.165493</ele>
        <time>2022-01-09T23:05:16.678Z</time>
      </trkpt>
      <trkpt lat="51.865789" lon="6.009670">
        <ele>11.098119</ele>
        <time>2022-01-09T23:05:38.101Z</time>
      </trkpt>
      <trkpt lat="51.865751" lon="6.009243">
        <ele>11.160454</ele>
        <time>2022-01-09T23:05:44.262Z</time>
      </trkpt>
      <trkpt lat="51.865470" lon="6.008140">
        <ele>11.332858</ele>
        <time>2022-01-09T23:06:01.660Z</time>
      </trkpt>
      <trkpt lat="51.865444" lon="6.007378">
        <ele>11.433177</ele>
        <time>2022-01-09T23:06:12.814Z</time>
      </trkpt>
      <trkpt lat="51.865398" lon="6.006304">
        <ele>11.544174</ele>
        <time>2022-01-09T23:06:28.223Z</time>
      </trkpt>
      <trkpt lat="51.865080" lon="6.004960">
        <ele>11.692567</ele>
        <time>2022-01-09T23:06:48.718Z</time>
      </trkpt>
      <trkpt lat="51.864970" lon="6.004810">
        <ele>11.690449</ele>
        <time>2022-01-09T23:06:51.874Z</time>
      </trkpt>
      <trkpt lat="51.864530" lon="6.004600">
        <ele>11.513140</ele>
        <time>2022-01-09T23:07:01.704Z</time>
      </trkpt>
      <trkpt lat="51.864006" lon="6.004594">
        <ele>11.310589</ele>
        <time>2022-01-09T23:07:12.513Z</time>
      </trkpt>
      <trkpt lat="51.863414" lon="6.004349">
        <ele>11.074404</ele>
        <time>2022-01-09T23:07:25.538Z</time>
      </trkpt>
      <trkpt lat="51.863328" lon="6.004368">
        <ele>11.040853</ele>
        <time>2022-01-09T23:07:27.307Z</time>
      </trkpt>
      <trkpt lat="51.863280" lon="6.004279">
        <ele>11.012115</ele>
        <time>2022-01-09T23:07:28.822Z</time>
      </trkpt>
      <trkpt lat="51.862900" lon="6.004092">
        <ele>10.756947</ele>
        <time>2022-01-09T23:07:36.837Z</time>
      </trkpt>
      <trkpt lat="51.862340" lon="6.003650">
        <ele>10.356694</ele>
        <time>2022-01-09T23:07:49.179Z</time>
      </trkpt>
      <trkpt lat="51.861620" lon="6.002160">
        <ele>9.815400</ele>
        <time>2022-01-09T23:08:12.928Z</time>
      </trkpt>
      <trkpt lat="51.861420" lon="6.001870">
        <ele>9.786318</ele>
        <time>2022-01-09T23:08:18.635Z</time>
      </trkpt>
      <trkpt lat="51.861100" lon="6.001550">
        <ele>9.745576</ele>
        <time>2022-01-09T23:08:26.901Z</time>
      </trkpt>
      <trkpt lat="51.860980" lon="6.001330">
        <ele>9.725939</ele>
        <time>2022-01-09T23:08:30.959Z</time>
      </trkpt>
      <trkpt lat="51.860750" lon="5.999990">
        <ele>9.764560</ele>
        <time>2022-01-09T23:08:50.757Z</time>
      </trkpt>
      <trkpt lat="51.859628" lon="5.997587">
        <ele>10.334460</ele>
        <time>2022-01-09T23:09:35.223Z</time>
      </trkpt>
      <trkpt lat="51.859521" lon="5.997418">
        <ele>10.340894</ele>
        <time>2022-01-09T23:09:38.785Z</time>
      </trkpt>
      <trkpt lat="51.859411" lon="5.997277">
        <ele>10.346933</ele>
        <time>2022-01-09T23:09:41.927Z</time>
      </trkpt>
      <trkpt lat="51.858855" lon="5.996890">
        <ele>10.372985</ele>
        <time>2022-01-09T23:09:55.511Z</time>
      </trkpt>
      <trkpt lat="51.858600" lon="5.996609">
        <ele>10.386263</ele>
        <time>2022-01-09T23:10:02.194Z</time>
      </trkpt>
      <trkpt lat="51.857460" lon="5.995070">
        <ele>10.052264</ele>
        <time>2022-01-09T23:10:33.310Z</time>
      </trkpt>
      <trkpt lat="51.855768" lon="5.993238">
        <ele>9.744007</ele>
        <time>2022-01-09T23:11:17.269Z</time>
      </trkpt>
      <trkpt lat="51.855575" lon="5.992842">
        <ele>9.712479</ele>
        <time>2022-01-09T23:11:24.342Z</time>
      </trkpt>
      <trkpt lat="51.855285" lon="5.991886">
        <ele>9.810206</ele>
        <time>2022-01-09T23:11:39.404Z</time>
      </trkpt>
      <trkpt lat="51.855105" lon="5.991498">
        <ele>9.857239</ele>
        <time>2022-01-09T23:11:46.309Z</time>
      </trkpt>
      <trkpt lat="51.854930" lon="5.991290">
        <ele>9.891306</ele>
        <time>2022-01-09T23:11:51.373Z</time>
      </trkpt>
      <trkpt lat="51.852409" lon="5.990038">
        <ele>10.312584</ele>
        <time>2022-01-09T23:12:51.643Z</time>
      </trkpt>
      <trkpt lat="51.851878" lon="5.989693">
        <ele>10.429639</ele>
        <time>2022-01-09T23:13:04.638Z</time>
      </trkpt>
      <trkpt lat="51.851734" lon="5.989523">
        <ele>10.466101</ele>
        <time>2022-01-09T23:13:08.750Z</time>
      </trkpt>
      <trkpt lat="51.851503" lon="5.989045">
        <ele>10.542796</ele>
        <time>2022-01-09T23:13:17.411Z</time>
      </trkpt>
      <trkpt lat="51.851420" lon="5.988708">
        <ele>10.588644</ele>
        <time>2022-01-09T23:13:22.665Z</time>
      </trkpt>
      <trkpt lat="51.851151" lon="5.986591">
        <ele>10.886898</ele>
        <time>2022-01-09T23:13:53.889Z</time>
      </trkpt>
      <trkpt lat="51.851028" lon="5.986302">
        <ele>10.936298</ele>
        <time>2022-01-09T23:13:59.048Z</time>
      </trkpt>
      <trkpt lat="51.850773" lon="5.986146">
        <ele>10.998415</ele>
        <time>2022-01-09T23:14:05.384Z</time>
      </trkpt>
      <trkpt lat="51.850551" lon="5.986055">
        <ele>11.050599</ele>
        <time>2022-01-09T23:14:10.578Z</time>
      </trkpt>
      <trkpt lat="51.849880" lon="5.985460">
        <ele>10.936498</ele>
        <time>2022-01-09T23:14:27.542Z</time>
      </trkpt>
      <trkpt lat="51.849541" lon="5.985374">
        <ele>10.885076</ele>
        <time>2022-01-09T23:14:34.907Z</time>
      </trkpt>
      <trkpt lat="51.849186" lon="5.985382">
        <ele>10.831870</ele>
        <time>2022-01-09T23:14:42.349Z</time>
      </trkpt>
      <trkpt lat="51.849420" lon="5.982050">
        <ele>10.309845</ele>
        <time>2022-01-09T23:15:25.954Z</time>
      </trkpt>
      <trkpt lat="51.848500" lon="5.977630">
        <ele>10.337015</ele>
        <time>2022-01-09T23:16:31.010Z</time>
      </trkpt>
      <trkpt lat="51.848470" lon="5.977140">
        <ele>10.320001</ele>
        <time>2022-01-09T23:16:37.665Z</time>
      </trkpt>
      <trkpt lat="51.848631" lon="5.976207">
        <ele>10.252959</ele>
        <time>2022-01-09T23:16:50.456Z</time>
      </trkpt>
      <trkpt lat="51.849120" lon="5.973680">
        <ele>9.713419</ele>
        <time>2022-01-09T23:17:24.628Z</time>
      </trkpt>
      <trkpt lat="51.849610" lon="5.971720">
        <ele>9.463669</ele>
        <time>2022-01-09T23:17:52.457Z</time>
      </trkpt>
      <trkpt lat="51.849936" lon="5.969898">
        <ele>9.692497</ele>
        <time>2022-01-09T23:18:18.574Z</time>
      </trkpt>
      <trkpt lat="51.850067" lon="5.969398">
        <ele>9.864886</ele>
        <time>2022-01-09T23:18:26.607Z</time>
      </trkpt>
      <trkpt lat="51.850278" lon="5.968001">
        <ele>10.349701</ele>
        <time>2022-01-09T23:18:49.636Z</time>
      </trkpt>
      <trkpt lat="51.850674" lon="5.965512">
        <ele>11.865819</ele>
        <time>2022-01-09T23:19:32.268Z</time>
      </trkpt>
      <trkpt lat="51.850845" lon="5.964724">
        <ele>11.910303</ele>
        <time>2022-01-09T23:19:44.769Z</time>
      </trkpt>
      <trkpt lat="51.851846" lon="5.961935">
        <ele>11.357648</ele>
        <time>2022-01-09T23:20:25.103Z</time>
      </trkpt>
      <trkpt lat="51.852059" lon="5.961489">
        <ele>11.244853</ele>
        <time>2022-01-09T23:20:32.230Z</time>
      </trkpt>
      <trkpt lat="51.852274" lon="5.961065">
        <ele>11.135098</ele>
        <time>2022-01-09T23:20:39.404Z</time>
      </trkpt>
      <trkpt lat="51.853428" lon="5.957537">
        <ele>11.002192</ele>
        <time>2022-01-09T23:21:35.132Z</time>
      </trkpt>
      <trkpt lat="51.854124" lon="5.956015">
        <ele>10.696268</ele>
        <time>2022-01-09T23:21:59.963Z</time>
      </trkpt>
      <trkpt lat="51.854850" lon="5.954750">
        <ele>10.429521</ele>
        <time>2022-01-09T23:22:21.965Z</time>
      </trkpt>
      <trkpt lat="51.856487" lon="5.952332">
        <ele>10.178508</ele>
        <time>2022-01-09T23:23:10.266Z</time>
      </trkpt>
      <trkpt lat="51.856533" lon="5.952273">
        <ele>10.181320</ele>
        <time>2022-01-09T23:23:11.628Z</time>
      </trkpt>
      <trkpt lat="51.857604" lon="5.950881">
        <ele>10.490348</ele>
        <time>2022-01-09T23:23:43.325Z</time>
      </trkpt>
      <trkpt lat="51.857822" lon="5.950494">
        <ele>10.635474</ele>
        <time>2022-01-09T23:23:51.268Z</time>
      </trkpt>
      <trkpt lat="51.858084" lon="5.949448">
        <ele>10.948212</ele>
        <time>2022-01-09T23:24:08.336Z</time>
      </trkpt>
      <trkpt lat="51.858301" lon="5.948682">
        <ele>11.303184</ele>
        <time>2022-01-09T23:24:21.196Z</time>
      </trkpt>
      <trkpt lat="51.859236" lon="5.947092">
        <ele>12.382796</ele>
        <time>2022-01-09T23:24:55.859Z</time>
      </trkpt>
      <trkpt lat="51.859540" lon="5.946600">
        <ele>12.613889</ele>
        <time>2022-01-09T23:25:06.903Z</time>
      </trkpt>
      <trkpt lat="51.859696" lon="5.946439">
        <ele>12.700099</ele>
        <time>2022-01-09T23:25:11.614Z</time>
      </trkpt>
      <trkpt lat="51.860020" lon="5.946270">
        <ele>12.858727</ele>
        <time>2022-01-09T23:25:20.369Z</time>
      </trkpt>
      <trkpt lat="51.860460" lon="5.945860">
        <ele>13.095300</ele>
        <time>2022-01-09T23:25:32.954Z</time>
      </trkpt>
      <trkpt lat="51.861160" lon="5.944330">
        <ele>12.907050</ele>
        <time>2022-01-09T23:25:57.672Z</time>
      </trkpt>
      <trkpt lat="51.861955" lon="5.943315">
        <ele>12.380885</ele>
        <time>2022-01-09T23:26:18.054Z</time>
      </trkpt>
      <trkpt lat="51.862622" lon="5.942499">
        <ele>12.032196</ele>
        <time>2022-01-09T23:26:34.180Z</time>
      </trkpt>
      <trkpt lat="51.862802" lon="5.942069">
        <ele>11.900011</ele>
        <time>2022-01-09T23:26:40.832Z</time>
      </trkpt>
      <trkpt lat="51.862882" lon="5.941639">
        <ele>11.785738</ele>
        <time>2022-01-09T23:26:47.038Z</time>
      </trkpt>
      <trkpt lat="51.862881" lon="5.940772">
        <ele>11.640856</ele>
        <time>2022-01-09T23:26:59.712Z</time>
      </trkpt>
      <trkpt lat="51.862836" lon="5.939065">
        <ele>11.813678</ele>
        <time>2022-01-09T23:27:23.162Z</time>
      </trkpt>
      <trkpt lat="51.863026" lon="5.936681">
        <ele>12.143537</ele>
        <time>2022-01-09T23:27:58.267Z</time>
      </trkpt>
      <trkpt lat="51.863204" lon="5.935783">
        <ele>12.296825</ele>
        <time>2022-01-09T23:28:12.059Z</time>
      </trkpt>
      <trkpt lat="51.863252" lon="5.935087">
        <ele>12.382200</ele>
        <time>2022-01-09T23:28:21.716Z</time>
      </trkpt>
      <trkpt lat="51.863329" lon="5.934794">
        <ele>12.370865</ele>
        <time>2022-01-09T23:28:26.141Z</time>
      </trkpt>
      <trkpt lat="51.863604" lon="5.933882">
        <ele>12.334739</ele>
        <time>2022-01-09T23:28:40.394Z</time>
      </trkpt>
      <trkpt lat="51.863675" lon="5.933280">
        <ele>12.312924</ele>
        <time>2022-01-09T23:28:48.991Z</time>
      </trkpt>
      <trkpt lat="51.863695" lon="5.932839">
        <ele>12.297184</ele>
        <time>2022-01-09T23:28:54.835Z</time>
      </trkpt>
      <trkpt lat="51.863630" lon="5.932437">
        <ele>12.270157</ele>
        <time>2022-01-09T23:29:00.125Z</time>
      </trkpt>
      <trkpt lat="51.863517" lon="5.932003">
        <ele>12.088495</ele>
        <time>2022-01-09T23:29:05.904Z</time>
      </trkpt>
      <trkpt lat="51.863563" lon="5.931219">
        <ele>11.784748</ele>
        <time>2022-01-09T23:29:15.277Z</time>
      </trkpt>
      <trkpt lat="51.863790" lon="5.929269">
        <ele>11.093408</ele>
        <time>2022-01-09T23:29:40.406Z</time>
      </trkpt>
      <trkpt lat="51.863785" lon="5.929079">
        <ele>11.058598</ele>
        <time>2022-01-09T23:29:43.018Z</time>
      </trkpt>
      <trkpt lat="51.863699" lon="5.928831">
        <ele>11.006536</ele>
        <time>2022-01-09T23:29:46.595Z</time>
      </trkpt>
      <trkpt lat="51.863290" lon="5.928237">
        <ele>10.843689</ele>
        <time>2022-01-09T23:29:58.089Z</time>
      </trkpt>
      <trkpt lat="51.863260" lon="5.928044">
        <ele>10.807259</ele>
        <time>2022-01-09T23:30:00.602Z</time>
      </trkpt>
      <trkpt lat="51.863297" lon="5.927583">
        <ele>10.722166</ele>
        <time>2022-01-09T23:30:06.775Z</time>
      </trkpt>
      <trkpt lat="51.863495" lon="5.927116">
        <ele>10.626681</ele>
        <time>2022-01-09T23:30:14.366Z</time>
      </trkpt>
      <trkpt lat="51.864120" lon="5.926281">
        <ele>10.614486</ele>
        <time>2022-01-09T23:30:32.623Z</time>
      </trkpt>
      <trkpt lat="51.866271" lon="5.924079">
        <ele>10.623796</ele>
        <time>2022-01-09T23:31:29.119Z</time>
      </trkpt>
      <trkpt lat="51.866964" lon="5.922342">
        <ele>10.620396</ele>
        <time>2022-01-09T23:31:57.916Z</time>
      </trkpt>
      <trkpt lat="51.866942" lon="5.922242">
        <ele>10.619990</ele>
        <time>2022-01-09T23:31:59.809Z</time>
      </trkpt>
      <trkpt lat="51.867076" lon="5.921524">
        <ele>10.617120</ele>
        <time>2022-01-09T23:32:13.339Z</time>
      </trkpt>
      <trkpt lat="51.867103" lon="5.920978">
        <ele>10.591525</ele>
        <time>2022-01-09T23:32:23.098Z</time>
      </trkpt>
      <trkpt lat="51.867012" lon="5.918464">
        <ele>10.305413</ele>
        <time>2022-01-09T23:33:07.415Z</time>
      </trkpt>
      <trkpt lat="51.866954" lon="5.916567">
        <ele>10.167483</ele>
        <time>2022-01-09T23:33:40.959Z</time>
      </trkpt>
      <trkpt lat="51.866895" lon="5.916046">
        <ele>10.131297</ele>
        <time>2022-01-09T23:33:50.403Z</time>
      </trkpt>
      <trkpt lat="51.864995" lon="5.912080">
        <ele>10.098875</ele>
        <time>2022-01-09T23:35:20.945Z</time>
      </trkpt>
      <trkpt lat="51.864885" lon="5.911470">
        <ele>10.129748</ele>
        <time>2022-01-09T23:35:32.786Z</time>
      </trkpt>
      <trkpt lat="51.864984" lon="5.909245">
        <ele>10.189628</ele>
        <time>2022-01-09T23:36:13.768Z</time>
      </trkpt>
      <trkpt lat="51.865145" lon="5.905863">
        <ele>10.270356</ele>
        <time>2022-01-09T23:37:14.395Z</time>
      </trkpt>
      <trkpt lat="51.865158" lon="5.904946">
        <ele>10.299570</ele>
        <time>2022-01-09T23:37:31.506Z</time>
      </trkpt>
      <trkpt lat="51.864862" lon="5.904321">
        <ele>10.312326</ele>
        <time>2022-01-09T23:37:46.232Z</time>
      </trkpt>
      <trkpt lat="51.864450" lon="5.903568">
        <ele>10.325787</ele>
        <time>2022-01-09T23:38:01.040Z</time>
      </trkpt>
      <trkpt lat="51.863894" lon="5.902746">
        <ele>10.342099</ele>
        <time>2022-01-09T23:38:17.007Z</time>
      </trkpt>
      <trkpt lat="51.863728" lon="5.901990">
        <ele>10.134258</ele>
        <time>2022-01-09T23:38:27.203Z</time>
      </trkpt>
      <trkpt lat="51.863408" lon="5.901700">
        <ele>9.976328</ele>
        <time>2022-01-09T23:38:34.522Z</time>
      </trkpt>
      <trkpt lat="51.863086" lon="5.901749">
        <ele>9.837039</ele>
        <time>2022-01-09T23:38:41.216Z</time>
      </trkpt>
      <trkpt lat="51.862803" lon="5.901892">
        <ele>9.709362</ele>
        <time>2022-01-09T23:38:47.368Z</time>
      </trkpt>
      <trkpt lat="51.862372" lon="5.902214">
        <ele>9.587028</ele>
        <time>2022-01-09T23:38:57.227Z</time>
      </trkpt>
      <trkpt lat="51.861934" lon="5.902328">
        <ele>9.645733</ele>
        <time>2022-01-09T23:39:06.423Z</time>
      </trkpt>
      <trkpt lat="51.861864" lon="5.902310">
        <ele>9.655112</ele>
        <time>2022-01-09T23:39:08.324Z</time>
      </trkpt>
      <trkpt lat="51.859194" lon="5.901647">
        <ele>10.269079</ele>
        <time>2022-01-09T23:40:13.194Z</time>
      </trkpt>
      <trkpt lat="51.858683" lon="5.901458">
        <ele>10.189649</ele>
        <time>2022-01-09T23:40:24.483Z</time>
      </trkpt>
      <trkpt lat="51.857809" lon="5.901170">
        <ele>9.727839</ele>
        <time>2022-01-09T23:40:42.659Z</time>
      </trkpt>
      <trkpt lat="51.856826" lon="5.901141">
        <ele>9.228578</ele>
        <time>2022-01-09T23:41:01.958Z</time>
      </trkpt>
      <trkpt lat="51.856065" lon="5.901645">
        <ele>8.824937</ele>
        <time>2022-01-09T23:41:18.689Z</time>
      </trkpt>
      <trkpt lat="51.855902" lon="5.901629">
        <ele>8.744770</ele>
        <time>2022-01-09T23:41:22.152Z</time>
      </trkpt>
      <trkpt lat="51.855620" lon="5.901397">
        <ele>8.589481</ele>
        <time>2022-01-09T23:41:28.898Z</time>
      </trkpt>
      <trkpt lat="51.855454" lon="5.901057">
        <ele>8.521577</ele>
        <time>2022-01-09T23:41:34.728Z</time>
      </trkpt>
      <trkpt lat="51.855247" lon="5.899996">
        <ele>8.505836</ele>
        <time>2022-01-09T23:41:49.828Z</time>
      </trkpt>
      <trkpt lat="51.854206" lon="5.898730">
        <ele>8.535669</ele>
        <time>2022-01-09T23:42:19.183Z</time>
      </trkpt>
      <trkpt lat="51.853127" lon="5.897968">
        <ele>8.723941</ele>
        <time>2022-01-09T23:42:46.037Z</time>
      </trkpt>
      <trkpt lat="51.852814" lon="5.897608">
        <ele>8.791139</ele>
        <time>2022-01-09T23:42:54.850Z</time>
      </trkpt>
      <trkpt lat="51.852459" lon="5.896964">
        <ele>8.911196</ele>
        <time>2022-01-09T23:43:07.154Z</time>
      </trkpt>
      <trkpt lat="51.852428" lon="5.896796">
        <ele>8.935584</ele>
        <time>2022-01-09T23:43:09.662Z</time>
      </trkpt>
      <trkpt lat="51.852537" lon="5.895719">
        <ele>9.087383</ele>
        <time>2022-01-09T23:43:25.273Z</time>
      </trkpt>
      <trkpt lat="51.852522" lon="5.895511">
        <ele>9.116511</ele>
        <time>2022-01-09T23:43:28.272Z</time>
      </trkpt>
      <trkpt lat="51.852017" lon="5.893814">
        <ele>9.287939</ele>
        <time>2022-01-09T23:43:55.254Z</time>
      </trkpt>
      <trkpt lat="51.851878" lon="5.892996">
        <ele>9.353121</ele>
        <time>2022-01-09T23:44:07.159Z</time>
      </trkpt>
      <trkpt lat="51.851537" lon="5.891113">
        <ele>9.383854</ele>
        <time>2022-01-09T23:44:34.064Z</time>
      </trkpt>
      <trkpt lat="51.851198" lon="5.890118">
        <ele>9.370391</ele>
        <time>2022-01-09T23:44:49.276Z</time>
      </trkpt>
      <trkpt lat="51.851241" lon="5.888654">
        <ele>9.589569</ele>
        <time>2022-01-09T23:45:09.764Z</time>
      </trkpt>
      <trkpt lat="51.850806" lon="5.887353">
        <ele>9.907338</ele>
        <time>2022-01-09T23:45:32.117Z</time>
      </trkpt>
      <trkpt lat="51.850821" lon="5.885948">
        <ele>10.038443</ele>
        <time>2022-01-09T23:45:52.987Z</time>
      </trkpt>
      <trkpt lat="51.850759" lon="5.885680">
        <ele>10.051843</ele>
        <time>2022-01-09T23:45:57.038Z</time>
      </trkpt>
      <trkpt lat="51.850157" lon="5.884630">
        <ele>10.118922</ele>
        <time>2022-01-09T23:46:16.615Z</time>
      </trkpt>
      <trkpt lat="51.848929" lon="5.882502">
        <ele>9.374713</ele>
        <time>2022-01-09T23:46:52.872Z</time>
      </trkpt>
      <trkpt lat="51.848423" lon="5.881827">
        <ele>9.606404</ele>
        <time>2022-01-09T23:47:07.540Z</time>
      </trkpt>
      <trkpt lat="51.848156" lon="5.881471">
        <ele>9.783630</ele>
        <time>2022-01-09T23:47:16.089Z</time>
      </trkpt>
      <trkpt lat="51.847887" lon="5.880784">
        <ele>10.041068</ele>
        <time>2022-01-09T23:47:29.282Z</time>
      </trkpt>
      <trkpt lat="51.847780" lon="5.880413">
        <ele>10.170658</ele>
        <time>2022-01-09T23:47:36.133Z</time>
      </trkpt>
      <trkpt lat="51.847537" lon="5.879455">
        <ele>11.104799</ele>
        <time>2022-01-09T23:47:51.952Z</time>
      </trkpt>
      <trkpt lat="51.847579" lon="5.878399">
        <ele>12.249919</ele>
        <time>2022-01-09T23:48:09.502Z</time>
      </trkpt>
      <trkpt lat="51.847606" lon="5.877752">
        <ele>12.951667</ele>
        <time>2022-01-09T23:48:24.221Z</time>
      </trkpt>
      <trkpt lat="51.847492" lon="5.877209">
        <ele>13.554686</ele>
        <time>2022-01-09T23:48:36.499Z</time>
      </trkpt>
      <trkpt lat="51.847319" lon="5.876911">
        <ele>13.952398</ele>
        <time>2022-01-09T23:48:44.203Z</time>
      </trkpt>
      <trkpt lat="51.847197" lon="5.876753">
        <ele>14.198371</ele>
        <time>2022-01-09T23:48:49.477Z</time>
      </trkpt>
      <trkpt lat="51.847063" lon="5.876477">
        <ele>14.539774</ele>
        <time>2022-01-09T23:48:55.405Z</time>
      </trkpt>
      <trkpt lat="51.846905" lon="5.876290">
        <ele>14.847913</ele>
        <time>2022-01-09T23:49:01.134Z</time>
      </trkpt>
      <trkpt lat="51.846678" lon="5.876022">
        <ele>15.290238</ele>
        <time>2022-01-09T23:49:08.808Z</time>
      </trkpt>
      <trkpt lat="51.846773" lon="5.875816">
        <ele>15.540254</ele>
        <time>2022-01-09T23:49:12.355Z</time>
      </trkpt>
      <trkpt lat="51.846957" lon="5.875440">
        <ele>16.006769</ele>
        <time>2022-01-09T23:49:20.110Z</time>
      </trkpt>
      <trkpt lat="51.847528" lon="5.874377">
        <ele>16.827026</ele>
        <time>2022-01-09T23:49:41.966Z</time>
      </trkpt>
      <trkpt lat="51.847904" lon="5.873949">
        <ele>17.203709</ele>
        <time>2022-01-09T23:49:51.919Z</time>
      </trkpt>
      <trkpt lat="51.848681" lon="5.873498">
        <ele>18.172610</ele>
        <time>2022-01-09T23:50:14.895Z</time>
      </trkpt>
      <trkpt lat="51.848746" lon="5.873321">
        <ele>18.450087</ele>
        <time>2022-01-09T23:50:18.463Z</time>
      </trkpt>
      <trkpt lat="51.848753" lon="5.873018">
        <ele>18.858675</ele>
        <time>2022-01-09T23:50:24.567Z</time>
      </trkpt>
      <trkpt lat="51.848711" lon="5.872835">
        <ele>19.121743</ele>
        <time>2022-01-09T23:50:28.497Z</time>
      </trkpt>
      <trkpt lat="51.848582" lon="5.872222">
        <ele>19.994398</ele>
        <time>2022-01-09T23:50:44.914Z</time>
      </trkpt>
      <trkpt lat="51.848534" lon="5.871814">
        <ele>20.554075</ele>
        <time>2022-01-09T23:50:55.969Z</time>
      </trkpt>
      <trkpt lat="51.848542" lon="5.871551">
        <ele>20.908907</ele>
        <time>2022-01-09T23:51:02.329Z</time>
      </trkpt>
      <trkpt lat="51.848604" lon="5.871046">
        <ele>21.602723</ele>
        <time>2022-01-09T23:51:14.398Z</time>
      </trkpt>
      <trkpt lat="51.848612" lon="5.870990">
        <ele>21.613965</ele>
        <time>2022-01-09T23:51:15.784Z</time>
      </trkpt>
      <trkpt lat="51.848676" lon="5.870574">
        <ele>21.462536</ele>
        <time>2022-01-09T23:51:25.286Z</time>
      </trkpt>
      <trkpt lat="51.848815" lon="5.869672">
        <ele>21.134165</ele>
        <time>2022-01-09T23:51:41.396Z</time>
      </trkpt>
      <trkpt lat="51.848885" lon="5.869232">
        <ele>20.973676</ele>
        <time>2022-01-09T23:51:48.418Z</time>
      </trkpt>
      <trkpt lat="51.849308" lon="5.868546">
        <ele>20.631309</ele>
        <time>2022-01-09T23:52:02.945Z</time>
      </trkpt>
      <trkpt lat="51.849411" lon="5.868012">
        <ele>20.026548</ele>
        <time>2022-01-09T23:52:11.269Z</time>
      </trkpt>
      <trkpt lat="51.849504" lon="5.867299">
        <ele>19.136078</ele>
        <time>2022-01-09T23:52:21.918Z</time>
      </trkpt>
      <trkpt lat="51.849571" lon="5.866778">
        <ele>18.485787</ele>
        <time>2022-01-09T23:52:29.529Z</time>
      </trkpt>
      <trkpt lat="51.849644" lon="5.866214">
        <ele>17.781636</ele>
        <time>2022-01-09T23:52:38.069Z</time>
      </trkpt>
      <trkpt lat="51.849716" lon="5.865510">
        <ele>16.957602</ele>
        <time>2022-01-09T23:52:49.198Z</time>
      </trkpt>
      <trkpt lat="51.849706" lon="5.865343">
        <ele>16.827259</ele>
        <time>2022-01-09T23:52:52.024Z</time>
      </trkpt>
      <trkpt lat="51.849753" lon="5.865067">
        <ele>16.604848</ele>
        <time>2022-01-09T23:52:55.248Z</time>
      </trkpt>
      <trkpt lat="51.849891" lon="5.864242">
        <ele>15.940861</ele>
        <time>2022-01-09T23:53:05.296Z</time>
      </trkpt>
      <trkpt lat="51.849893" lon="5.864042">
        <ele>15.785469</ele>
        <time>2022-01-09T23:53:07.548Z</time>
      </trkpt>
      <trkpt lat="51.849997" lon="5.863334">
        <ele>15.220120</ele>
        <time>2022-01-09T23:53:18.929Z</time>
      </trkpt>
      <trkpt lat="51.850100" lon="5.862307">
        <ele>14.637514</ele>
        <time>2022-01-09T23:53:35.667Z</time>
      </trkpt>
      <trkpt lat="51.850131" lon="5.861813">
        <ele>14.488685</ele>
        <time>2022-01-09T23:53:43.837Z</time>
      </trkpt>
      <trkpt lat="51.850095" lon="5.861460">
        <ele>14.381448</ele>
        <time>2022-01-09T23:53:49.770Z</time>
      </trkpt>
      <trkpt lat="51.850012" lon="5.860659">
        <ele>14.138010</ele>
        <time>2022-01-09T23:54:03.983Z</time>
      </trkpt>
      <trkpt lat="51.850060" lon="5.860134">
        <ele>13.978938</ele>
        <time>2022-01-09T23:54:13.397Z</time>
      </trkpt>
      <trkpt lat="51.850166" lon="5.859545">
        <ele>14.043260</ele>
        <time>2022-01-09T23:54:24.163Z</time>
      </trkpt>
      <trkpt lat="51.850425" lon="5.859108">
        <ele>14.265860</ele>
        <time>2022-01-09T23:54:35.434Z</time>
      </trkpt>
      <trkpt lat="51.850517" lon="5.858225">
        <ele>14.594999</ele>
        <time>2022-01-09T23:54:53.329Z</time>
      </trkpt>
      <trkpt lat="51.850610" lon="5.857463">
        <ele>14.880492</ele>
        <time>2022-01-09T23:55:09.066Z</time>
      </trkpt>
      <trkpt lat="51.850607" lon="5.857163">
        <ele>15.010742</ele>
        <time>2022-01-09T23:55:15.318Z</time>
      </trkpt>
      <trkpt lat="51.850590" lon="5.857121">
        <ele>15.055549</ele>
        <time>2022-01-09T23:55:16.445Z</time>
      </trkpt>
      <trkpt lat="51.850289" lon="5.856662">
        <ele>15.652893</ele>
        <time>2022-01-09T23:55:30.644Z</time>
      </trkpt>
      <trkpt lat="51.849929" lon="5.856448">
        <ele>16.206888</ele>
        <time>2022-01-09T23:55:43.945Z</time>
      </trkpt>
      <trkpt lat="51.849887" lon="5.856404">
        <ele>16.279156</ele>
        <time>2022-01-09T23:55:45.667Z</time>
      </trkpt>
      <trkpt lat="51.849027" lon="5.855947">
        <ele>17.590551</ele>
        <time>2022-01-09T23:56:17.941Z</time>
      </trkpt>
      <trkpt lat="51.848681" lon="5.855771">
        <ele>18.287445</ele>
        <time>2022-01-09T23:56:31.092Z</time>
      </trkpt>
      <trkpt lat="51.848637" lon="5.855753">
        <ele>18.374649</ele>
        <time>2022-01-09T23:56:32.820Z</time>
      </trkpt>
      <trkpt lat="51.848546" lon="5.855716">
        <ele>18.554938</ele>
        <time>2022-01-09T23:56:36.400Z</time>
      </trkpt>
      <trkpt lat="51.848524" lon="5.855708">
        <ele>18.598265</ele>
        <time>2022-01-09T23:56:37.271Z</time>
      </trkpt>
      <trkpt lat="51.848477" lon="5.856018">
        <ele>18.977156</ele>
        <time>2022-01-09T23:56:44.497Z</time>
      </trkpt>
      <trkpt lat="51.848405" lon="5.856476">
        <ele>19.538131</ele>
        <time>2022-01-09T23:56:55.477Z</time>
      </trkpt>
      <trkpt lat="51.847619" lon="5.856224">
        <ele>21.069381</ele>
        <time>2022-01-09T23:57:19.433Z</time>
      </trkpt>
      <trkpt lat="51.847159" lon="5.856171">
        <ele>21.795893</ele>
        <time>2022-01-09T23:57:33.784Z</time>
      </trkpt>
      <trkpt lat="51.846228" lon="5.856279">
        <ele>23.266340</ele>
        <time>2022-01-09T23:58:01.130Z</time>
      </trkpt>
      <trkpt lat="51.846185" lon="5.855993">
        <ele>23.552809</ele>
        <time>2022-01-09T23:58:06.148Z</time>
      </trkpt>
      <trkpt lat="51.846067" lon="5.855870">
        <ele>23.773914</ele>
        <time>2022-01-09T23:58:09.758Z</time>
      </trkpt>
      <trkpt lat="51.845868" lon="5.855698">
        <ele>23.854821</ele>
        <time>2022-01-09T23:58:15.331Z</time>
      </trkpt>
      <trkpt lat="51.845759" lon="5.855605">
        <ele>23.847558</ele>
        <time>2022-01-09T23:58:18.128Z</time>
      </trkpt>
      <trkpt lat="51.845720" lon="5.855571">
        <ele>23.844946</ele>
        <time>2022-01-09T23:58:19.109Z</time>
      </trkpt>
      <trkpt lat="51.845521" lon="5.855400">
        <ele>23.831665</ele>
        <time>2022-01-09T23:58:24.084Z</time>
      </trkpt>
      <trkpt lat="51.845182" lon="5.855109">
        <ele>23.809045</ele>
        <time>2022-01-09T23:58:32.598Z</time>
      </trkpt>
      <trkpt lat="51.845111" lon="5.854926">
        <ele>23.801176</ele>
        <time>2022-01-09T23:58:35.570Z</time>
      </trkpt>
      <trkpt lat="51.845965" lon="5.854258">
        <ele>23.501192</ele>
        <time>2022-01-09T23:58:55.045Z</time>
      </trkpt>
      <trkpt lat="51.846309" lon="5.854172">
        <ele>23.107770</ele>
        <time>2022-01-09T23:59:01.884Z</time>
      </trkpt>
      <trkpt lat="51.847598" lon="5.854571">
        <ele>21.590939</ele>
        <time>2022-01-09T23:59:26.266Z</time>
      </trkpt>
      <trkpt lat="51.848174" lon="5.854829">
        <ele>20.691896</ele>
        <time>2022-01-09T23:59:37.405Z</time>
      </trkpt>
      <trkpt lat="51.849913" lon="5.855677">
        <ele>17.599193</ele>
        <time>2022-01-10T00:00:10.422Z</time>
      </trkpt>
      <trkpt lat="51.850729" lon="5.856076">
        <ele>15.880790</ele>
        <time>2022-01-10T00:00:25.235Z</time>
      </trkpt>
      <trkpt lat="51.850800" lon="5.856111">
        <ele>15.731170</ele>
        <time>2022-01-10T00:00:26.452Z</time>
      </trkpt>
      <trkpt lat="51.850862" lon="5.856147">
        <ele>15.598385</ele>
        <time>2022-01-10T00:00:27.608Z</time>
      </trkpt>
      <trkpt lat="51.851808" lon="5.856681">
        <ele>13.330340</ele>
        <time>2022-01-10T00:00:44.490Z</time>
      </trkpt>
      <trkpt lat="51.853788" lon="5.857622">
        <ele>9.872131</ele>
        <time>2022-01-10T00:01:20.721Z</time>
      </trkpt>
      <trkpt lat="51.854260" lon="5.857861">
        <ele>9.278071</ele>
        <time>2022-01-10T00:01:30.993Z</time>
      </trkpt>
      <trkpt lat="51.856620" lon="5.859083">
        <ele>10.996168</ele>
        <time>2022-01-10T00:02:36.181Z</time>
      </trkpt>
      <trkpt lat="51.856703" lon="5.859128">
        <ele>11.042606</ele>
        <time>2022-01-10T00:02:38.389Z</time>
      </trkpt>
      <trkpt lat="51.856815" lon="5.859190">
        <ele>11.105405</ele>
        <time>2022-01-10T00:02:41.383Z</time>
      </trkpt>
      <trkpt lat="51.857922" lon="5.859689">
        <ele>11.649655</ele>
        <time>2022-01-10T00:03:08.492Z</time>
      </trkpt>
      <trkpt lat="51.859238" lon="5.860022">
        <ele>11.456255</ele>
        <time>2022-01-10T00:03:36.963Z</time>
      </trkpt>
      <trkpt lat="51.860405" lon="5.860097">
        <ele>11.189177</ele>
        <time>2022-01-10T00:04:01.862Z</time>
      </trkpt>
      <trkpt lat="51.861913" lon="5.860028">
        <ele>10.676984</ele>
        <time>2022-01-10T00:04:33.936Z</time>
      </trkpt>
      <trkpt lat="51.862102" lon="5.860025">
        <ele>10.585954</ele>
        <time>2022-01-10T00:04:37.738Z</time>
      </trkpt>
      <trkpt lat="51.862223" lon="5.860023">
        <ele>10.527676</ele>
        <time>2022-01-10T00:04:40.222Z</time>
      </trkpt>
      <trkpt lat="51.862214" lon="5.859864">
        <ele>10.480187</ele>
        <time>2022-01-10T00:04:42.230Z</time>
      </trkpt>
      <trkpt lat="51.862136" lon="5.859484">
        <ele>10.361086</ele>
        <time>2022-01-10T00:04:47.279Z</time>
      </trkpt>
      <trkpt lat="51.862002" lon="5.858917">
        <ele>10.180519</ele>
        <time>2022-01-10T00:04:54.900Z</time>
      </trkpt>
      <trkpt lat="51.861999" lon="5.858621">
        <ele>10.092470</ele>
        <time>2022-01-10T00:04:58.608Z</time>
      </trkpt>
      <trkpt lat="51.862134" lon="5.858442">
        <ele>10.023434</ele>
        <time>2022-01-10T00:05:02.207Z</time>
      </trkpt>
      <trkpt lat="51.863360" lon="5.858305">
        <ele>9.620633</ele>
        <time>2022-01-10T00:05:27.157Z</time>
      </trkpt>
      <trkpt lat="51.864458" lon="5.858444">
        <ele>9.508138</ele>
        <time>2022-01-10T00:05:53.000Z</time>
      </trkpt>
      <trkpt lat="51.865857" lon="5.858223">
        <ele>9.503104</ele>
        <time>2022-01-10T00:06:24.350Z</time>
      </trkpt>
      <trkpt lat="51.865992" lon="5.858252">
        <ele>9.454856</ele>
        <time>2022-01-10T00:06:27.226Z</time>
      </trkpt>
      <trkpt lat="51.866218" lon="5.858138">
        <ele>9.370992</ele>
        <time>2022-01-10T00:06:32.307Z</time>
      </trkpt>
      <trkpt lat="51.866522" lon="5.857849">
        <ele>9.246102</ele>
        <time>2022-01-10T00:06:39.670Z</time>
      </trkpt>
      <trkpt lat="51.866563" lon="5.857810">
        <ele>9.229256</ele>
        <time>2022-01-10T00:06:40.646Z</time>
      </trkpt>
      <trkpt lat="51.866634" lon="5.857719">
        <ele>9.197176</ele>
        <time>2022-01-10T00:06:42.485Z</time>
      </trkpt>
      <trkpt lat="51.866706" lon="5.857623">
        <ele>9.164134</ele>
        <time>2022-01-10T00:06:44.371Z</time>
      </trkpt>
      <trkpt lat="51.866806" lon="5.857476">
        <ele>9.116286</ele>
        <time>2022-01-10T00:06:47.190Z</time>
      </trkpt>
      <trkpt lat="51.866918" lon="5.857177">
        <ele>9.039779</ele>
        <time>2022-01-10T00:06:51.500Z</time>
      </trkpt>
      <trkpt lat="51.867708" lon="5.856058">
        <ele>8.803407</ele>
        <time>2022-01-10T00:07:12.846Z</time>
      </trkpt>
      <trkpt lat="51.868664" lon="5.855023">
        <ele>8.655807</ele>
        <time>2022-01-10T00:07:39.104Z</time>
      </trkpt>
      <trkpt lat="51.871294" lon="5.852248">
        <ele>9.265122</ele>
        <time>2022-01-10T00:08:52.514Z</time>
      </trkpt>
      <trkpt lat="51.871335" lon="5.852149">
        <ele>9.274592</ele>
        <time>2022-01-10T00:08:54.155Z</time>
      </trkpt>
      <trkpt lat="51.871446" lon="5.852088">
        <ele>9.289673</ele>
        <time>2022-01-10T00:08:56.553Z</time>
      </trkpt>
      <trkpt lat="51.871516" lon="5.851941">
        <ele>9.304421</ele>
        <time>2022-01-10T00:08:58.886Z</time>
      </trkpt>
      <trkpt lat="51.871574" lon="5.851923">
        <ele>9.283057</ele>
        <time>2022-01-10T00:09:00.094Z</time>
      </trkpt>
      <trkpt lat="51.872465" lon="5.851015">
        <ele>8.834085</ele>
        <time>2022-01-10T00:09:21.431Z</time>
      </trkpt>
      <trkpt lat="51.872781" lon="5.850769">
        <ele>8.684553</ele>
        <time>2022-01-10T00:09:28.601Z</time>
      </trkpt>
      <trkpt lat="51.873253" lon="5.850554">
        <ele>8.521527</ele>
        <time>2022-01-10T00:09:38.880Z</time>
      </trkpt>
      <trkpt lat="51.873683" lon="5.850488">
        <ele>8.472606</ele>
        <time>2022-01-10T00:09:48.349Z</time>
      </trkpt>
      <trkpt lat="51.873939" lon="5.850477">
        <ele>8.443600</ele>
        <time>2022-01-10T00:09:54.195Z</time>
      </trkpt>
      <trkpt lat="51.874022" lon="5.850479">
        <ele>8.434198</ele>
        <time>2022-01-10T00:09:56.004Z</time>
      </trkpt>
      <trkpt lat="51.874282" lon="5.850496">
        <ele>8.404726</ele>
        <time>2022-01-10T00:10:01.946Z</time>
      </trkpt>
      <trkpt lat="51.874361" lon="5.850633">
        <ele>8.391617</ele>
        <time>2022-01-10T00:10:04.425Z</time>
      </trkpt>
      <trkpt lat="51.874431" lon="5.850674">
        <ele>8.383186</ele>
        <time>2022-01-10T00:10:06.093Z</time>
      </trkpt>
      <trkpt lat="51.874493" lon="5.850674">
        <ele>8.376164</ele>
        <time>2022-01-10T00:10:07.491Z</time>
      </trkpt>
      <trkpt lat="51.874550" lon="5.850645">
        <ele>8.369397</ele>
        <time>2022-01-10T00:10:08.856Z</time>
      </trkpt>
      <trkpt lat="51.874634" lon="5.850523">
        <ele>8.356618</ele>
        <time>2022-01-10T00:10:11.279Z</time>
      </trkpt>
      <trkpt lat="51.874660" lon="5.850416">
        <ele>8.348578</ele>
        <time>2022-01-10T00:10:12.797Z</time>
      </trkpt>
      <trkpt lat="51.874661" lon="5.850305">
        <ele>8.340815</ele>
        <time>2022-01-10T00:10:14.311Z</time>
      </trkpt>
      <trkpt lat="51.874645" lon="5.850216">
        <ele>8.334349</ele>
        <time>2022-01-10T00:10:15.587Z</time>
      </trkpt>
      <trkpt lat="51.874557" lon="5.850066">
        <ele>8.321559</ele>
        <time>2022-01-10T00:10:18.361Z</time>
      </trkpt>
      <trkpt lat="51.874558" lon="5.849973">
        <ele>8.315810</ele>
        <time>2022-01-10T00:10:19.545Z</time>
      </trkpt>
      <trkpt lat="51.874558" lon="5.849761">
        <ele>8.302706</ele>
        <time>2022-01-10T00:10:22.346Z</time>
      </trkpt>
      <trkpt lat="51.874626" lon="5.849559">
        <ele>8.288485</ele>
        <time>2022-01-10T00:10:25.466Z</time>
      </trkpt>
      <trkpt lat="51.874701" lon="5.849357">
        <ele>8.273916</ele>
        <time>2022-01-10T00:10:28.509Z</time>
      </trkpt>
      <trkpt lat="51.875014" lon="5.848502">
        <ele>8.212477</ele>
        <time>2022-01-10T00:10:41.713Z</time>
      </trkpt>
      <trkpt lat="51.875051" lon="5.848398">
        <ele>8.205058</ele>
        <time>2022-01-10T00:10:43.298Z</time>
      </trkpt>
      <trkpt lat="51.875308" lon="5.847689">
        <ele>8.155038</ele>
        <time>2022-01-10T00:10:54.659Z</time>
      </trkpt>
      <trkpt lat="51.875583" lon="5.846931">
        <ele>8.370372</ele>
        <time>2022-01-10T00:11:07.142Z</time>
      </trkpt>
      <trkpt lat="51.875604" lon="5.846874">
        <ele>8.386629</ele>
        <time>2022-01-10T00:11:08.131Z</time>
      </trkpt>
      <trkpt lat="51.875885" lon="5.846106">
        <ele>8.605281</ele>
        <time>2022-01-10T00:11:21.471Z</time>
      </trkpt>
      <trkpt lat="51.875897" lon="5.846070">
        <ele>8.615301</ele>
        <time>2022-01-10T00:11:22.105Z</time>
      </trkpt>
      <trkpt lat="51.876303" lon="5.844953">
        <ele>8.894797</ele>
        <time>2022-01-10T00:11:41.677Z</time>
      </trkpt>
      <trkpt lat="51.876406" lon="5.844668">
        <ele>8.928294</ele>
        <time>2022-01-10T00:11:46.682Z</time>
      </trkpt>
      <trkpt lat="51.876482" lon="5.844455">
        <ele>8.953248</ele>
        <time>2022-01-10T00:11:50.312Z</time>
      </trkpt>
      <trkpt lat="51.876637" lon="5.844033">
        <ele>9.003055</ele>
        <time>2022-01-10T00:11:57.405Z</time>
      </trkpt>
      <trkpt lat="51.877064" lon="5.842853">
        <ele>9.141790</ele>
        <time>2022-01-10T00:12:16.115Z</time>
      </trkpt>
      <trkpt lat="51.877187" lon="5.842515">
        <ele>9.156051</ele>
        <time>2022-01-10T00:12:21.364Z</time>
      </trkpt>
      <trkpt lat="51.877337" lon="5.842103">
        <ele>9.136180</ele>
        <time>2022-01-10T00:12:27.690Z</time>
      </trkpt>
      <trkpt lat="51.877483" lon="5.841702">
        <ele>9.116839</ele>
        <time>2022-01-10T00:12:33.901Z</time>
      </trkpt>
      <trkpt lat="51.878137" lon="5.839898">
        <ele>9.048143</ele>
        <time>2022-01-10T00:13:02.481Z</time>
      </trkpt>
      <trkpt lat="51.878417" lon="5.839130">
        <ele>9.065070</ele>
        <time>2022-01-10T00:13:14.768Z</time>
      </trkpt>
      <trkpt lat="51.878427" lon="5.839101">
        <ele>9.065700</ele>
        <time>2022-01-10T00:13:15.219Z</time>
      </trkpt>
      <trkpt lat="51.878672" lon="5.838422">
        <ele>9.080625</ele>
        <time>2022-01-10T00:13:26.396Z</time>
      </trkpt>
      <trkpt lat="51.878873" lon="5.837868">
        <ele>9.092820</ele>
        <time>2022-01-10T00:13:35.396Z</time>
      </trkpt>
      <trkpt lat="51.878931" lon="5.837706">
        <ele>9.096373</ele>
        <time>2022-01-10T00:13:37.947Z</time>
      </trkpt>
      <trkpt lat="51.879036" lon="5.837421">
        <ele>9.071654</ele>
        <time>2022-01-10T00:13:42.383Z</time>
      </trkpt>
      <trkpt lat="51.879133" lon="5.837157">
        <ele>9.040947</ele>
        <time>2022-01-10T00:13:46.358Z</time>
      </trkpt>
      <trkpt lat="51.879180" lon="5.837027">
        <ele>9.025889</ele>
        <time>2022-01-10T00:13:48.357Z</time>
      </trkpt>
      <trkpt lat="51.879131" lon="5.836980">
        <ele>9.016668</ele>
        <time>2022-01-10T00:13:49.614Z</time>
      </trkpt>
      <trkpt lat="51.879054" lon="5.836900">
        <ele>9.001857</ele>
        <time>2022-01-10T00:13:51.490Z</time>
      </trkpt>
      <trkpt lat="51.878838" lon="5.836690">
        <ele>8.961069</ele>
        <time>2022-01-10T00:13:56.855Z</time>
      </trkpt>
      <trkpt lat="51.878537" lon="5.836393">
        <ele>8.904004</ele>
        <time>2022-01-10T00:14:04.367Z</time>
      </trkpt>
      <trkpt lat="51.878527" lon="5.836381">
        <ele>8.901989</ele>
        <time>2022-01-10T00:14:04.627Z</time>
      </trkpt>
      <trkpt lat="51.878080" lon="5.835806">
        <ele>8.809570</ele>
        <time>2022-01-10T00:14:16.958Z</time>
      </trkpt>
      <trkpt lat="51.877568" lon="5.835367">
        <ele>8.888745</ele>
        <time>2022-01-10T00:14:29.666Z</time>
      </trkpt>
      <trkpt lat="51.877544" lon="5.835351">
        <ele>8.892555</ele>
        <time>2022-01-10T00:14:30.225Z</time>
      </trkpt>
      <trkpt lat="51.879008" lon="5.831211">
        <ele>9.649000</ele>
        <time>2022-01-10T00:15:39.460Z</time>
      </trkpt>
      <trkpt lat="51.878611" lon="5.830637">
        <ele>9.866049</ele>
        <time>2022-01-10T00:15:52.243Z</time>
      </trkpt>
      <trkpt lat="51.878515" lon="5.830480">
        <ele>9.923112</ele>
        <time>2022-01-10T00:15:55.493Z</time>
      </trkpt>
      <trkpt lat="51.878382" lon="5.830202">
        <ele>10.013933</ele>
        <time>2022-01-10T00:16:00.720Z</time>
      </trkpt>
      <trkpt lat="51.878409" lon="5.830125">
        <ele>10.036801</ele>
        <time>2022-01-10T00:16:02.089Z</time>
      </trkpt>
      <trkpt lat="51.878529" lon="5.829966">
        <ele>10.101650</ele>
        <time>2022-01-10T00:16:06.831Z</time>
      </trkpt>
      <trkpt lat="51.878726" lon="5.829701">
        <ele>10.208763</ele>
        <time>2022-01-10T00:16:14.858Z</time>
      </trkpt>
      <trkpt lat="51.878803" lon="5.829597">
        <ele>10.250699</ele>
        <time>2022-01-10T00:16:17.923Z</time>
      </trkpt>
      <trkpt lat="51.879075" lon="5.829232">
        <ele>10.398445</ele>
        <time>2022-01-10T00:16:28.874Z</time>
      </trkpt>
      <trkpt lat="51.879340" lon="5.828750">
        <ele>10.410924</ele>
        <time>2022-01-10T00:16:41.259Z</time>
      </trkpt>
      <trkpt lat="51.879428" lon="5.828690">
        <ele>10.407447</ele>
        <time>2022-01-10T00:16:44.284Z</time>
      </trkpt>
      <trkpt lat="51.880194" lon="5.827050">
        <ele>10.361213</ele>
        <time>2022-01-10T00:17:20.540Z</time>
      </trkpt>
      <trkpt lat="51.880093" lon="5.826908">
        <ele>10.340363</ele>
        <time>2022-01-10T00:17:24.400Z</time>
      </trkpt>
      <trkpt lat="51.880701" lon="5.825684">
        <ele>9.909587</ele>
        <time>2022-01-10T00:17:45.406Z</time>
      </trkpt>
      <trkpt lat="51.880854" lon="5.825386">
        <ele>9.803310</ele>
        <time>2022-01-10T00:17:50.544Z</time>
      </trkpt>
      <trkpt lat="51.881095" lon="5.824973">
        <ele>9.647481</ele>
        <time>2022-01-10T00:17:58.003Z</time>
      </trkpt>
      <trkpt lat="51.881459" lon="5.825268">
        <ele>9.499541</ele>
        <time>2022-01-10T00:18:06.521Z</time>
      </trkpt>
      <trkpt lat="51.882010" lon="5.824810">
        <ele>9.322501</ele>
        <time>2022-01-10T00:18:19.750Z</time>
      </trkpt>
      <trkpt lat="51.882263" lon="5.824673">
        <ele>9.246242</ele>
        <time>2022-01-10T00:18:25.744Z</time>
      </trkpt>
      <trkpt lat="51.882153" lon="5.823642">
        <ele>9.061612</ele>
        <time>2022-01-10T00:18:40.138Z</time>
      </trkpt>
      <trkpt lat="51.882169" lon="5.822908">
        <ele>9.053359</ele>
        <time>2022-01-10T00:18:50.602Z</time>
      </trkpt>
      <trkpt lat="51.882292" lon="5.820802">
        <ele>9.082145</ele>
        <time>2022-01-10T00:19:19.702Z</time>
      </trkpt>
      <trkpt lat="51.882347" lon="5.817951">
        <ele>8.919243</ele>
        <time>2022-01-10T00:19:58.331Z</time>
      </trkpt>
      <trkpt lat="51.882341" lon="5.817587">
        <ele>8.882967</ele>
        <time>2022-01-10T00:20:03.063Z</time>
      </trkpt>
      <trkpt lat="51.882322" lon="5.816454">
        <ele>8.702696</ele>
        <time>2022-01-10T00:20:17.695Z</time>
      </trkpt>
      <trkpt lat="51.882405" lon="5.814607">
        <ele>8.432765</ele>
        <time>2022-01-10T00:20:42.184Z</time>
      </trkpt>
      <trkpt lat="51.882475" lon="5.813893">
        <ele>8.400841</ele>
        <time>2022-01-10T00:20:51.701Z</time>
      </trkpt>
      <trkpt lat="51.882689" lon="5.813074">
        <ele>8.361569</ele>
        <time>2022-01-10T00:21:03.610Z</time>
      </trkpt>
      <trkpt lat="51.882869" lon="5.812298">
        <ele>8.324963</ele>
        <time>2022-01-10T00:21:15.059Z</time>
      </trkpt>
      <trkpt lat="51.883499" lon="5.808801">
        <ele>8.950988</ele>
        <time>2022-01-10T00:22:08.274Z</time>
      </trkpt>
      <trkpt lat="51.884304" lon="5.806315">
        <ele>9.273818</ele>
        <time>2022-01-10T00:22:48.390Z</time>
      </trkpt>
      <trkpt lat="51.885703" lon="5.797027">
        <ele>8.602346</ele>
        <time>2022-01-10T00:24:55.985Z</time>
      </trkpt>
      <trkpt lat="51.885996" lon="5.795987">
        <ele>8.592442</ele>
        <time>2022-01-10T00:25:11.800Z</time>
      </trkpt>
      <trkpt lat="51.886771" lon="5.793864">
        <ele>8.755254</ele>
        <time>2022-01-10T00:25:46.893Z</time>
      </trkpt>
      <trkpt lat="51.887303" lon="5.792075">
        <ele>8.908581</ele>
        <time>2022-01-10T00:26:14.553Z</time>
      </trkpt>
      <trkpt lat="51.887372" lon="5.791617">
        <ele>8.938721</ele>
        <time>2022-01-10T00:26:21.141Z</time>
      </trkpt>
      <trkpt lat="51.887383" lon="5.790844">
        <ele>8.988153</ele>
        <time>2022-01-10T00:26:31.894Z</time>
      </trkpt>
      <trkpt lat="51.887517" lon="5.790325">
        <ele>9.024119</ele>
        <time>2022-01-10T00:26:39.725Z</time>
      </trkpt>
      <trkpt lat="51.887417" lon="5.790144">
        <ele>9.053126</ele>
        <time>2022-01-10T00:26:43.240Z</time>
      </trkpt>
      <trkpt lat="51.887219" lon="5.790026">
        <ele>9.128530</ele>
        <time>2022-01-10T00:26:48.216Z</time>
      </trkpt>
      <trkpt lat="51.886981" lon="5.789877">
        <ele>9.219724</ele>
        <time>2022-01-10T00:26:54.303Z</time>
      </trkpt>
      <trkpt lat="51.885999" lon="5.789008">
        <ele>9.619647</ele>
        <time>2022-01-10T00:27:22.378Z</time>
      </trkpt>
      <trkpt lat="51.885711" lon="5.788748">
        <ele>9.719382</ele>
        <time>2022-01-10T00:27:30.698Z</time>
      </trkpt>
      <trkpt lat="51.885143" lon="5.788234">
        <ele>9.882309</ele>
        <time>2022-01-10T00:27:46.658Z</time>
      </trkpt>
      <trkpt lat="51.883858" lon="5.787044">
        <ele>10.281904</ele>
        <time>2022-01-10T00:28:21.575Z</time>
      </trkpt>
      <trkpt lat="51.883638" lon="5.786688">
        <ele>10.377721</ele>
        <time>2022-01-10T00:28:28.933Z</time>
      </trkpt>
      <trkpt lat="51.883157" lon="5.786140">
        <ele>10.558920</ele>
        <time>2022-01-10T00:28:43.726Z</time>
      </trkpt>
      <trkpt lat="51.882332" lon="5.785791">
        <ele>10.725413</ele>
        <time>2022-01-10T00:29:05.160Z</time>
      </trkpt>
      <trkpt lat="51.882116" lon="5.785706">
        <ele>10.746810</ele>
        <time>2022-01-10T00:29:10.833Z</time>
      </trkpt>
      <trkpt lat="51.881844" lon="5.785578">
        <ele>10.774076</ele>
        <time>2022-01-10T00:29:17.736Z</time>
      </trkpt>
      <trkpt lat="51.882050" lon="5.784775">
        <ele>10.825749</ele>
        <time>2022-01-10T00:29:30.163Z</time>
      </trkpt>
      <trkpt lat="51.882960" lon="5.782895">
        <ele>10.203770</ele>
        <time>2022-01-10T00:30:01.425Z</time>
      </trkpt>
      <trkpt lat="51.883246" lon="5.782206">
        <ele>9.919221</ele>
        <time>2022-01-10T00:30:12.063Z</time>
      </trkpt>
      <trkpt lat="51.883504" lon="5.781584">
        <ele>9.751315</ele>
        <time>2022-01-10T00:30:21.952Z</time>
      </trkpt>
      <trkpt lat="51.884150" lon="5.780019">
        <ele>9.402091</ele>
        <time>2022-01-10T00:30:47.929Z</time>
      </trkpt>
      <trkpt lat="51.884846" lon="5.778541">
        <ele>9.234672</ele>
        <time>2022-01-10T00:31:13.498Z</time>
      </trkpt>
      <trkpt lat="51.885475" lon="5.777221">
        <ele>9.157667</ele>
        <time>2022-01-10T00:31:37.469Z</time>
      </trkpt>
      <trkpt lat="51.885654" lon="5.776652">
        <ele>9.207387</ele>
        <time>2022-01-10T00:31:46.948Z</time>
      </trkpt>
      <trkpt lat="51.885968" lon="5.775488">
        <ele>9.306285</ele>
        <time>2022-01-10T00:32:05.823Z</time>
      </trkpt>
      <trkpt lat="51.886084" lon="5.774569">
        <ele>9.365943</ele>
        <time>2022-01-10T00:32:19.432Z</time>
      </trkpt>
      <trkpt lat="51.886241" lon="5.774244">
        <ele>9.328986</ele>
        <time>2022-01-10T00:32:25.365Z</time>
      </trkpt>
      <trkpt lat="51.887380" lon="5.774357">
        <ele>9.163430</ele>
        <time>2022-01-10T00:32:50.814Z</time>
      </trkpt>
      <trkpt lat="51.887637" lon="5.774609">
        <ele>9.119848</ele>
        <time>2022-01-10T00:32:57.372Z</time>
      </trkpt>
      <trkpt lat="51.887723" lon="5.774471">
        <ele>9.111462</ele>
        <time>2022-01-10T00:32:59.984Z</time>
      </trkpt>
      <trkpt lat="51.888330" lon="5.770930">
        <ele>9.510680</ele>
        <time>2022-01-10T00:33:52.822Z</time>
      </trkpt>
      <trkpt lat="51.888703" lon="5.770833">
        <ele>9.803505</ele>
        <time>2022-01-10T00:34:02.549Z</time>
      </trkpt>
      <trkpt lat="51.888802" lon="5.770790">
        <ele>9.882952</ele>
        <time>2022-01-10T00:34:05.300Z</time>
      </trkpt>
      <trkpt lat="51.888979" lon="5.770680">
        <ele>10.029897</ele>
        <time>2022-01-10T00:34:10.339Z</time>
      </trkpt>
      <trkpt lat="51.888649" lon="5.768962">
        <ele>11.412943</ele>
        <time>2022-01-10T00:34:57.990Z</time>
      </trkpt>
      <trkpt lat="51.888559" lon="5.768277">
        <ele>12.182756</ele>
        <time>2022-01-10T00:35:17.547Z</time>
      </trkpt>
      <trkpt lat="51.888523" lon="5.767267">
        <ele>13.294783</ele>
        <time>2022-01-10T00:35:45.425Z</time>
      </trkpt>
      <trkpt lat="51.888520" lon="5.767159">
        <ele>13.413616</ele>
        <time>2022-01-10T00:35:48.710Z</time>
      </trkpt>
      <trkpt lat="51.888291" lon="5.766816">
        <ele>13.931519</ele>
        <time>2022-01-10T00:36:02.457Z</time>
      </trkpt>
      <trkpt lat="51.888417" lon="5.764665">
        <ele>15.985592</ele>
        <time>2022-01-10T00:37:00.879Z</time>
      </trkpt>
      <trkpt lat="51.888757" lon="5.759090">
        <ele>18.360259</ele>
        <time>2022-01-10T00:39:20.235Z</time>
      </trkpt>
      <trkpt lat="51.888852" lon="5.757658">
        <ele>17.704911</ele>
        <time>2022-01-10T00:39:50.452Z</time>
      </trkpt>
      <trkpt lat="51.889117" lon="5.753632">
        <ele>13.707548</ele>
        <time>2022-01-10T00:41:08.552Z</time>
      </trkpt>
      <trkpt lat="51.889763" lon="5.743936">
        <ele>11.445681</ele>
        <time>2022-01-10T00:44:46.074Z</time>
      </trkpt>
      <trkpt lat="51.889645" lon="5.743281">
        <ele>11.431963</ele>
        <time>2022-01-10T00:44:55.052Z</time>
      </trkpt>
      <trkpt lat="51.889683" lon="5.743074">
        <ele>11.430444</ele>
        <time>2022-01-10T00:44:57.925Z</time>
      </trkpt>
      <trkpt lat="51.889654" lon="5.742085">
        <ele>11.423482</ele>
        <time>2022-01-10T00:45:11.797Z</time>
      </trkpt>
      <trkpt lat="51.889462" lon="5.741556">
        <ele>11.419167</ele>
        <time>2022-01-10T00:45:21.185Z</time>
      </trkpt>
      <trkpt lat="51.889337" lon="5.741306">
        <ele>11.416904</ele>
        <time>2022-01-10T00:45:26.117Z</time>
      </trkpt>
      <trkpt lat="51.889198" lon="5.740881">
        <ele>11.446477</ele>
        <time>2022-01-10T00:45:33.879Z</time>
      </trkpt>
      <trkpt lat="51.889114" lon="5.740099">
        <ele>11.519406</ele>
        <time>2022-01-10T00:45:45.546Z</time>
      </trkpt>
      <trkpt lat="51.889107" lon="5.739145">
        <ele>11.607063</ele>
        <time>2022-01-10T00:46:00.065Z</time>
      </trkpt>
      <trkpt lat="51.889181" lon="5.738553">
        <ele>11.662558</ele>
        <time>2022-01-10T00:46:08.917Z</time>
      </trkpt>
      <trkpt lat="51.889211" lon="5.738361">
        <ele>11.680755</ele>
        <time>2022-01-10T00:46:11.501Z</time>
      </trkpt>
      <trkpt lat="51.889563" lon="5.736562">
        <ele>10.817941</ele>
        <time>2022-01-10T00:46:35.932Z</time>
      </trkpt>
      <trkpt lat="51.890372" lon="5.733070">
        <ele>8.596738</ele>
        <time>2022-01-10T00:47:21.667Z</time>
      </trkpt>
      <trkpt lat="51.890741" lon="5.731084">
        <ele>8.065470</ele>
        <time>2022-01-10T00:47:49.312Z</time>
      </trkpt>
      <trkpt lat="51.890913" lon="5.729706">
        <ele>7.892142</ele>
        <time>2022-01-10T00:48:09.294Z</time>
      </trkpt>
      <trkpt lat="51.891343" lon="5.726814">
        <ele>8.408030</ele>
        <time>2022-01-10T00:48:53.874Z</time>
      </trkpt>
      <trkpt lat="51.891940" lon="5.724371">
        <ele>9.298511</ele>
        <time>2022-01-10T00:49:35.302Z</time>
      </trkpt>
      <trkpt lat="51.892063" lon="5.723882">
        <ele>9.460839</ele>
        <time>2022-01-10T00:49:43.795Z</time>
      </trkpt>
      <trkpt lat="51.892225" lon="5.723241">
        <ele>9.673768</ele>
        <time>2022-01-10T00:49:54.863Z</time>
      </trkpt>
      <trkpt lat="51.892621" lon="5.722184">
        <ele>10.053880</ele>
        <time>2022-01-10T00:50:14.018Z</time>
      </trkpt>
      <trkpt lat="51.892960" lon="5.720469">
        <ele>9.906654</ele>
        <time>2022-01-10T00:50:40.102Z</time>
      </trkpt>
      <trkpt lat="51.893050" lon="5.719157">
        <ele>9.670010</ele>
        <time>2022-01-10T00:50:57.191Z</time>
      </trkpt>
      <trkpt lat="51.893046" lon="5.717047">
        <ele>8.924587</ele>
        <time>2022-01-10T00:51:24.486Z</time>
      </trkpt>
      <trkpt lat="51.893168" lon="5.715610">
        <ele>8.558686</ele>
        <time>2022-01-10T00:51:43.708Z</time>
      </trkpt>
      <trkpt lat="51.893261" lon="5.715367">
        <ele>8.550573</ele>
        <time>2022-01-10T00:51:48.001Z</time>
      </trkpt>
      <trkpt lat="51.893419" lon="5.715196">
        <ele>8.541838</ele>
        <time>2022-01-10T00:51:52.106Z</time>
      </trkpt>
      <trkpt lat="51.893723" lon="5.715017">
        <ele>8.526966</ele>
        <time>2022-01-10T00:51:59.766Z</time>
      </trkpt>
      <trkpt lat="51.893815" lon="5.714870">
        <ele>8.521026</ele>
        <time>2022-01-10T00:52:02.849Z</time>
      </trkpt>
      <trkpt lat="51.895117" lon="5.711830">
        <ele>8.635404</ele>
        <time>2022-01-10T00:52:57.032Z</time>
      </trkpt>
      <trkpt lat="51.895460" lon="5.710070">
        <ele>8.532256</ele>
        <time>2022-01-10T00:53:22.876Z</time>
      </trkpt>
      <trkpt lat="51.895576" lon="5.709758">
        <ele>8.503687</ele>
        <time>2022-01-10T00:53:27.912Z</time>
      </trkpt>
      <trkpt lat="51.895782" lon="5.709449">
        <ele>8.468010</ele>
        <time>2022-01-10T00:53:34.183Z</time>
      </trkpt>
      <trkpt lat="51.895978" lon="5.709211">
        <ele>8.436882</ele>
        <time>2022-01-10T00:53:39.749Z</time>
      </trkpt>
      <trkpt lat="51.896062" lon="5.708953">
        <ele>8.413839</ele>
        <time>2022-01-10T00:53:43.793Z</time>
      </trkpt>
      <trkpt lat="51.896687" lon="5.705053">
        <ele>8.165922</ele>
        <time>2022-01-10T00:54:40.054Z</time>
      </trkpt>
      <trkpt lat="51.896660" lon="5.704497">
        <ele>8.154313</ele>
        <time>2022-01-10T00:54:47.977Z</time>
      </trkpt>
      <trkpt lat="51.896603" lon="5.703962">
        <ele>8.143011</ele>
        <time>2022-01-10T00:54:55.836Z</time>
      </trkpt>
      <trkpt lat="51.896621" lon="5.703697">
        <ele>8.137462</ele>
        <time>2022-01-10T00:54:59.837Z</time>
      </trkpt>
      <trkpt lat="51.896706" lon="5.703447">
        <ele>8.131520</ele>
        <time>2022-01-10T00:55:04.013Z</time>
      </trkpt>
      <trkpt lat="51.897626" lon="5.701684">
        <ele>8.452717</ele>
        <time>2022-01-10T00:55:38.216Z</time>
      </trkpt>
      <trkpt lat="51.897696" lon="5.701152">
        <ele>8.529095</ele>
        <time>2022-01-10T00:55:46.502Z</time>
      </trkpt>
      <trkpt lat="51.897633" lon="5.700137">
        <ele>8.562072</ele>
        <time>2022-01-10T00:56:01.663Z</time>
      </trkpt>
      <trkpt lat="51.897525" lon="5.698884">
        <ele>8.591246</ele>
        <time>2022-01-10T00:56:19.481Z</time>
      </trkpt>
      <trkpt lat="51.897556" lon="5.698623">
        <ele>8.597376</ele>
        <time>2022-01-10T00:56:23.217Z</time>
      </trkpt>
      <trkpt lat="51.897634" lon="5.698465">
        <ele>8.602042</ele>
        <time>2022-01-10T00:56:26.095Z</time>
      </trkpt>
      <trkpt lat="51.898484" lon="5.697713">
        <ele>8.571194</ele>
        <time>2022-01-10T00:56:48.562Z</time>
      </trkpt>
      <trkpt lat="51.898720" lon="5.697398">
        <ele>8.557598</ele>
        <time>2022-01-10T00:56:55.633Z</time>
      </trkpt>
      <trkpt lat="51.898901" lon="5.697061">
        <ele>8.545338</ele>
        <time>2022-01-10T00:57:01.951Z</time>
      </trkpt>
      <trkpt lat="51.899157" lon="5.696329">
        <ele>8.472450</ele>
        <time>2022-01-10T00:57:13.662Z</time>
      </trkpt>
      <trkpt lat="51.899345" lon="5.695553">
        <ele>8.237998</ele>
        <time>2022-01-10T00:57:25.347Z</time>
      </trkpt>
      <trkpt lat="51.899315" lon="5.695322">
        <ele>8.171611</ele>
        <time>2022-01-10T00:57:28.533Z</time>
      </trkpt>
      <trkpt lat="51.899166" lon="5.695132">
        <ele>8.085201</ele>
        <time>2022-01-10T00:57:32.406Z</time>
      </trkpt>
      <trkpt lat="51.898645" lon="5.695185">
        <ele>7.847279</ele>
        <time>2022-01-10T00:57:43.469Z</time>
      </trkpt>
      <trkpt lat="51.898102" lon="5.695054">
        <ele>7.672421</ele>
        <time>2022-01-10T00:57:54.874Z</time>
      </trkpt>
      <trkpt lat="51.898044" lon="5.694834">
        <ele>7.650894</ele>
        <time>2022-01-10T00:57:58.203Z</time>
      </trkpt>
      <trkpt lat="51.898055" lon="5.694506">
        <ele>7.621337</ele>
        <time>2022-01-10T00:58:02.319Z</time>
      </trkpt>
      <trkpt lat="51.898211" lon="5.690488">
        <ele>7.929902</ele>
        <time>2022-01-10T00:59:01.099Z</time>
      </trkpt>
      <trkpt lat="51.898266" lon="5.690219">
        <ele>7.996115</ele>
        <time>2022-01-10T00:59:05.869Z</time>
      </trkpt>
      <trkpt lat="51.898393" lon="5.690008">
        <ele>8.064984</ele>
        <time>2022-01-10T00:59:10.577Z</time>
      </trkpt>
      <trkpt lat="51.898656" lon="5.689751">
        <ele>8.262823</ele>
        <time>2022-01-10T00:59:18.796Z</time>
      </trkpt>
      <trkpt lat="51.899529" lon="5.689165">
        <ele>9.154792</ele>
        <time>2022-01-10T00:59:44.532Z</time>
      </trkpt>
      <trkpt lat="51.899932" lon="5.688740">
        <ele>9.608660</ele>
        <time>2022-01-10T00:59:57.815Z</time>
      </trkpt>
      <trkpt lat="51.900255" lon="5.688266">
        <ele>9.904053</ele>
        <time>2022-01-10T01:00:09.417Z</time>
      </trkpt>
      <trkpt lat="51.901036" lon="5.686634">
        <ele>10.393602</ele>
        <time>2022-01-10T01:00:41.187Z</time>
      </trkpt>
      <trkpt lat="51.901338" lon="5.686077">
        <ele>10.415974</ele>
        <time>2022-01-10T01:00:51.774Z</time>
      </trkpt>
      <trkpt lat="51.901577" lon="5.685370">
        <ele>10.063324</ele>
        <time>2022-01-10T01:01:02.757Z</time>
      </trkpt>
      <trkpt lat="51.902281" lon="5.683825">
        <ele>9.211563</ele>
        <time>2022-01-10T01:01:26.819Z</time>
      </trkpt>
      <trkpt lat="51.903120" lon="5.682262">
        <ele>7.691515</ele>
        <time>2022-01-10T01:01:51.506Z</time>
      </trkpt>
      <trkpt lat="51.903933" lon="5.680994">
        <ele>6.990556</ele>
        <time>2022-01-10T01:02:14.615Z</time>
      </trkpt>
      <trkpt lat="51.904595" lon="5.680012">
        <ele>6.833182</ele>
        <time>2022-01-10T01:02:35.391Z</time>
      </trkpt>
      <trkpt lat="51.905106" lon="5.678504">
        <ele>7.273976</ele>
        <time>2022-01-10T01:03:03.160Z</time>
      </trkpt>
      <trkpt lat="51.905619" lon="5.677404">
        <ele>7.797989</ele>
        <time>2022-01-10T01:03:25.246Z</time>
      </trkpt>
      <trkpt lat="51.907116" lon="5.672585">
        <ele>9.014477</ele>
        <time>2022-01-10T01:04:46.948Z</time>
      </trkpt>
      <trkpt lat="51.907330" lon="5.672270">
        <ele>9.113038</ele>
        <time>2022-01-10T01:04:54.021Z</time>
      </trkpt>
      <trkpt lat="51.907756" lon="5.671984">
        <ele>9.219950</ele>
        <time>2022-01-10T01:05:05.463Z</time>
      </trkpt>
      <trkpt lat="51.907980" lon="5.671556">
        <ele>9.284570</ele>
        <time>2022-01-10T01:05:13.523Z</time>
      </trkpt>
      <trkpt lat="51.908280" lon="5.670810">
        <ele>9.387097</ele>
        <time>2022-01-10T01:05:25.846Z</time>
      </trkpt>
      <trkpt lat="51.908429" lon="5.670080">
        <ele>9.475624</ele>
        <time>2022-01-10T01:05:36.466Z</time>
      </trkpt>
      <trkpt lat="51.908409" lon="5.669706">
        <ele>9.488566</ele>
        <time>2022-01-10T01:05:41.577Z</time>
      </trkpt>
      <trkpt lat="51.908102" lon="5.668459">
        <ele>9.448536</ele>
        <time>2022-01-10T01:06:00.119Z</time>
      </trkpt>
      <trkpt lat="51.907814" lon="5.667327">
        <ele>9.412029</ele>
        <time>2022-01-10T01:06:17.072Z</time>
      </trkpt>
      <trkpt lat="51.907774" lon="5.666343">
        <ele>9.160255</ele>
        <time>2022-01-10T01:06:29.778Z</time>
      </trkpt>
      <trkpt lat="51.907758" lon="5.665564">
        <ele>8.932297</ele>
        <time>2022-01-10T01:06:39.852Z</time>
      </trkpt>
      <trkpt lat="51.907741" lon="5.664847">
        <ele>8.722442</ele>
        <time>2022-01-10T01:06:48.781Z</time>
      </trkpt>
      <trkpt lat="51.907698" lon="5.664483">
        <ele>8.614050</ele>
        <time>2022-01-10T01:06:53.198Z</time>
      </trkpt>
      <trkpt lat="51.907491" lon="5.663664">
        <ele>8.530131</ele>
        <time>2022-01-10T01:07:04.132Z</time>
      </trkpt>
      <trkpt lat="51.907477" lon="5.662182">
        <ele>8.475822</ele>
        <time>2022-01-10T01:07:23.827Z</time>
      </trkpt>
      <trkpt lat="51.907396" lon="5.660615">
        <ele>8.912908</ele>
        <time>2022-01-10T01:07:48.080Z</time>
      </trkpt>
      <trkpt lat="51.907416" lon="5.660340">
        <ele>9.069207</ele>
        <time>2022-01-10T01:07:52.511Z</time>
      </trkpt>
      <trkpt lat="51.907762" lon="5.659242">
        <ele>9.765142</ele>
        <time>2022-01-10T01:08:13.233Z</time>
      </trkpt>
      <trkpt lat="51.907828" lon="5.658733">
        <ele>10.058723</ele>
        <time>2022-01-10T01:08:21.859Z</time>
      </trkpt>
      <trkpt lat="51.907796" lon="5.658431">
        <ele>10.142170</ele>
        <time>2022-01-10T01:08:26.746Z</time>
      </trkpt>
      <trkpt lat="51.907207" lon="5.656729">
        <ele>10.527575</ele>
        <time>2022-01-10T01:08:55.277Z</time>
      </trkpt>
      <trkpt lat="51.906926" lon="5.655537">
        <ele>10.430352</ele>
        <time>2022-01-10T01:09:12.221Z</time>
      </trkpt>
      <trkpt lat="51.906799" lon="5.655031">
        <ele>10.195123</ele>
        <time>2022-01-10T01:09:19.019Z</time>
      </trkpt>
      <trkpt lat="51.906646" lon="5.654518">
        <ele>9.949761</ele>
        <time>2022-01-10T01:09:25.900Z</time>
      </trkpt>
      <trkpt lat="51.905863" lon="5.652554">
        <ele>9.059419</ele>
        <time>2022-01-10T01:09:54.040Z</time>
      </trkpt>
      <trkpt lat="51.905618" lon="5.651826">
        <ele>8.790621</ele>
        <time>2022-01-10T01:10:04.377Z</time>
      </trkpt>
      <trkpt lat="51.905279" lon="5.649739">
        <ele>8.591833</ele>
        <time>2022-01-10T01:10:33.385Z</time>
      </trkpt>
      <trkpt lat="51.905242" lon="5.648710">
        <ele>8.699972</ele>
        <time>2022-01-10T01:10:48.842Z</time>
      </trkpt>
      <trkpt lat="51.905243" lon="5.647846">
        <ele>8.809893</ele>
        <time>2022-01-10T01:11:02.123Z</time>
      </trkpt>
      <trkpt lat="51.905157" lon="5.646657">
        <ele>9.092971</ele>
        <time>2022-01-10T01:11:20.528Z</time>
      </trkpt>
      <trkpt lat="51.904933" lon="5.644105">
        <ele>9.703890</ele>
        <time>2022-01-10T01:11:59.563Z</time>
      </trkpt>
      <trkpt lat="51.904772" lon="5.643121">
        <ele>9.946021</ele>
        <time>2022-01-10T01:12:15.102Z</time>
      </trkpt>
      <trkpt lat="51.904539" lon="5.642174">
        <ele>10.186403</ele>
        <time>2022-01-10T01:12:30.880Z</time>
      </trkpt>
      <trkpt lat="51.903751" lon="5.639831">
        <ele>10.777221</ele>
        <time>2022-01-10T01:13:11.648Z</time>
      </trkpt>
      <trkpt lat="51.903615" lon="5.639251">
        <ele>10.725832</ele>
        <time>2022-01-10T01:13:20.568Z</time>
      </trkpt>
      <trkpt lat="51.903446" lon="5.638306">
        <ele>10.573729</ele>
        <time>2022-01-10T01:13:34.207Z</time>
      </trkpt>
      <trkpt lat="51.903634" lon="5.637329">
        <ele>10.415517</ele>
        <time>2022-01-10T01:13:47.986Z</time>
      </trkpt>
      <trkpt lat="51.903631" lon="5.636754">
        <ele>10.290206</ele>
        <time>2022-01-10T01:13:55.601Z</time>
      </trkpt>
      <trkpt lat="51.903520" lon="5.636160">
        <ele>10.060647</ele>
        <time>2022-01-10T01:14:03.659Z</time>
      </trkpt>
      <trkpt lat="51.903180" lon="5.635200">
        <ele>9.651227</ele>
        <time>2022-01-10T01:14:18.076Z</time>
      </trkpt>
      <trkpt lat="51.902931" lon="5.634765">
        <ele>9.431753</ele>
        <time>2022-01-10T01:14:25.860Z</time>
      </trkpt>
      <trkpt lat="51.902227" lon="5.633817">
        <ele>8.870518</ele>
        <time>2022-01-10T01:14:44.851Z</time>
      </trkpt>
      <trkpt lat="51.901707" lon="5.632740">
        <ele>8.348477</ele>
        <time>2022-01-10T01:15:02.357Z</time>
      </trkpt>
      <trkpt lat="51.901500" lon="5.632310">
        <ele>8.166473</ele>
        <time>2022-01-10T01:15:09.734Z</time>
      </trkpt>
      <trkpt lat="51.901398" lon="5.631673">
        <ele>8.221997</ele>
        <time>2022-01-10T01:15:19.429Z</time>
      </trkpt>
      <trkpt lat="51.901420" lon="5.631344">
        <ele>8.249917</ele>
        <time>2022-01-10T01:15:24.129Z</time>
      </trkpt>
      <trkpt lat="51.901604" lon="5.630781">
        <ele>8.303670</ele>
        <time>2022-01-10T01:15:33.226Z</time>
      </trkpt>
      <trkpt lat="51.901710" lon="5.630620">
        <ele>8.323534</ele>
        <time>2022-01-10T01:15:36.749Z</time>
      </trkpt>
      <trkpt lat="51.902344" lon="5.629944">
        <ele>8.486673</ele>
        <time>2022-01-10T01:15:55.411Z</time>
      </trkpt>
      <trkpt lat="51.902650" lon="5.629557">
        <ele>8.700272</ele>
        <time>2022-01-10T01:16:05.557Z</time>
      </trkpt>
      <trkpt lat="51.902806" lon="5.629135">
        <ele>8.867310</ele>
        <time>2022-01-10T01:16:13.642Z</time>
      </trkpt>
      <trkpt lat="51.903235" lon="5.626074">
        <ele>9.668242</ele>
        <time>2022-01-10T01:17:02.357Z</time>
      </trkpt>
      <trkpt lat="51.903342" lon="5.625261">
        <ele>9.810914</ele>
        <time>2022-01-10T01:17:14.752Z</time>
      </trkpt>
      <trkpt lat="51.903428" lon="5.624286">
        <ele>9.782641</ele>
        <time>2022-01-10T01:17:28.521Z</time>
      </trkpt>
      <trkpt lat="51.903434" lon="5.623277">
        <ele>9.539752</ele>
        <time>2022-01-10T01:17:42.048Z</time>
      </trkpt>
      <trkpt lat="51.903441" lon="5.621902">
        <ele>9.208762</ele>
        <time>2022-01-10T01:18:00.081Z</time>
      </trkpt>
      <trkpt lat="51.903506" lon="5.621533">
        <ele>9.125584</ele>
        <time>2022-01-10T01:18:05.150Z</time>
      </trkpt>
      <trkpt lat="51.903695" lon="5.621107">
        <ele>9.013851</ele>
        <time>2022-01-10T01:18:12.071Z</time>
      </trkpt>
      <trkpt lat="51.903979" lon="5.620809">
        <ele>8.897083</ele>
        <time>2022-01-10T01:18:19.400Z</time>
      </trkpt>
      <trkpt lat="51.904487" lon="5.620692">
        <ele>8.719991</ele>
        <time>2022-01-10T01:18:30.777Z</time>
      </trkpt>
      <trkpt lat="51.904960" lon="5.620410">
        <ele>8.555184</ele>
        <time>2022-01-10T01:18:42.272Z</time>
      </trkpt>
      <trkpt lat="51.905250" lon="5.620024">
        <ele>8.466097</ele>
        <time>2022-01-10T01:18:50.738Z</time>
      </trkpt>
      <trkpt lat="51.905428" lon="5.619658">
        <ele>8.397836</ele>
        <time>2022-01-10T01:18:57.242Z</time>
      </trkpt>
      <trkpt lat="51.905665" lon="5.618870">
        <ele>8.269434</ele>
        <time>2022-01-10T01:19:09.259Z</time>
      </trkpt>
      <trkpt lat="51.905710" lon="5.618711">
        <ele>8.243812</ele>
        <time>2022-01-10T01:19:11.626Z</time>
      </trkpt>
      <trkpt lat="51.906378" lon="5.616703">
        <ele>7.908048</ele>
        <time>2022-01-10T01:19:42.571Z</time>
      </trkpt>
      <trkpt lat="51.907737" lon="5.614493">
        <ele>7.703494</ele>
        <time>2022-01-10T01:20:26.410Z</time>
      </trkpt>
      <trkpt lat="51.908474" lon="5.613671">
        <ele>7.743484</ele>
        <time>2022-01-10T01:20:47.561Z</time>
      </trkpt>
      <trkpt lat="51.908955" lon="5.612610">
        <ele>7.917572</ele>
        <time>2022-01-10T01:21:07.178Z</time>
      </trkpt>
      <trkpt lat="51.909398" lon="5.611903">
        <ele>8.050809</ele>
        <time>2022-01-10T01:21:22.159Z</time>
      </trkpt>
      <trkpt lat="51.909888" lon="5.610667">
        <ele>8.029467</ele>
        <time>2022-01-10T01:21:43.456Z</time>
      </trkpt>
      <trkpt lat="51.910373" lon="5.609999">
        <ele>7.987499</ele>
        <time>2022-01-10T01:21:57.906Z</time>
      </trkpt>
      <trkpt lat="51.910739" lon="5.609042">
        <ele>7.877938</ele>
        <time>2022-01-10T01:22:13.306Z</time>
      </trkpt>
      <trkpt lat="51.910797" lon="5.607963">
        <ele>7.692664</ele>
        <time>2022-01-10T01:22:27.884Z</time>
      </trkpt>
      <trkpt lat="51.910739" lon="5.607574">
        <ele>7.624204</ele>
        <time>2022-01-10T01:22:33.324Z</time>
      </trkpt>
      <trkpt lat="51.910357" lon="5.606338">
        <ele>7.429668</ele>
        <time>2022-01-10T01:22:52.461Z</time>
      </trkpt>
      <trkpt lat="51.910312" lon="5.606061">
        <ele>7.408034</ele>
        <time>2022-01-10T01:22:56.469Z</time>
      </trkpt>
      <trkpt lat="51.910339" lon="5.605798">
        <ele>7.387898</ele>
        <time>2022-01-10T01:23:00.204Z</time>
      </trkpt>
      <trkpt lat="51.910485" lon="5.604395">
        <ele>7.280441</ele>
        <time>2022-01-10T01:23:20.169Z</time>
      </trkpt>
      <trkpt lat="51.910728" lon="5.600981">
        <ele>7.031894</ele>
        <time>2022-01-10T01:24:08.162Z</time>
      </trkpt>
      <trkpt lat="51.910904" lon="5.598355">
        <ele>6.919757</ele>
        <time>2022-01-10T01:24:45.892Z</time>
      </trkpt>
      <trkpt lat="51.910980" lon="5.597147">
        <ele>6.666126</ele>
        <time>2022-01-10T01:25:02.629Z</time>
      </trkpt>
      <trkpt lat="51.911015" lon="5.596595">
        <ele>6.525798</ele>
        <time>2022-01-10T01:25:10.053Z</time>
      </trkpt>
      <trkpt lat="51.911225" lon="5.593344">
        <ele>5.864134</ele>
        <time>2022-01-10T01:25:53.351Z</time>
      </trkpt>
      <trkpt lat="51.911338" lon="5.591590">
        <ele>5.844165</ele>
        <time>2022-01-10T01:26:18.803Z</time>
      </trkpt>
      <trkpt lat="51.911496" lon="5.589523">
        <ele>6.287453</ele>
        <time>2022-01-10T01:26:50.990Z</time>
      </trkpt>
      <trkpt lat="51.911679" lon="5.588327">
        <ele>6.487384</ele>
        <time>2022-01-10T01:27:09.726Z</time>
      </trkpt>
      <trkpt lat="51.911805" lon="5.586720">
        <ele>6.741640</ele>
        <time>2022-01-10T01:27:33.605Z</time>
      </trkpt>
      <trkpt lat="51.911852" lon="5.585479">
        <ele>6.858623</ele>
        <time>2022-01-10T01:27:51.624Z</time>
      </trkpt>
      <trkpt lat="51.911947" lon="5.584898">
        <ele>6.908766</ele>
        <time>2022-01-10T01:28:00.389Z</time>
      </trkpt>
      <trkpt lat="51.912284" lon="5.583830">
        <ele>7.008841</ele>
        <time>2022-01-10T01:28:17.917Z</time>
      </trkpt>
      <trkpt lat="51.912294" lon="5.583593">
        <ele>7.050320</ele>
        <time>2022-01-10T01:28:21.413Z</time>
      </trkpt>
      <trkpt lat="51.912247" lon="5.583337">
        <ele>7.103790</ele>
        <time>2022-01-10T01:28:25.405Z</time>
      </trkpt>
      <trkpt lat="51.910987" lon="5.579751">
        <ele>8.004427</ele>
        <time>2022-01-10T01:29:28.119Z</time>
      </trkpt>
      <trkpt lat="51.910529" lon="5.578423">
        <ele>8.351882</ele>
        <time>2022-01-10T01:29:51.664Z</time>
      </trkpt>
      <trkpt lat="51.909926" lon="5.576527">
        <ele>8.674794</ele>
        <time>2022-01-10T01:30:23.612Z</time>
      </trkpt>
      <trkpt lat="51.909912" lon="5.576375">
        <ele>8.698059</ele>
        <time>2022-01-10T01:30:25.906Z</time>
      </trkpt>
      <trkpt lat="51.909603" lon="5.576098">
        <ele>8.732399</ele>
        <time>2022-01-10T01:30:33.646Z</time>
      </trkpt>
      <trkpt lat="51.908778" lon="5.575663">
        <ele>8.600081</ele>
        <time>2022-01-10T01:30:52.501Z</time>
      </trkpt>
      <trkpt lat="51.908518" lon="5.575409">
        <ele>8.553781</ele>
        <time>2022-01-10T01:30:59.045Z</time>
      </trkpt>
      <trkpt lat="51.907615" lon="5.573289">
        <ele>8.355886</ele>
        <time>2022-01-10T01:31:32.889Z</time>
      </trkpt>
      <trkpt lat="51.906887" lon="5.572407">
        <ele>8.311119</ele>
        <time>2022-01-10T01:31:53.472Z</time>
      </trkpt>
      <trkpt lat="51.906740" lon="5.572168">
        <ele>8.346010</ele>
        <time>2022-01-10T01:31:58.172Z</time>
      </trkpt>
      <trkpt lat="51.906309" lon="5.571409">
        <ele>8.452660</ele>
        <time>2022-01-10T01:32:12.804Z</time>
      </trkpt>
      <trkpt lat="51.905722" lon="5.570098">
        <ele>8.567336</ele>
        <time>2022-01-10T01:32:36.109Z</time>
      </trkpt>
      <trkpt lat="51.904824" lon="5.567414">
        <ele>8.381543</ele>
        <time>2022-01-10T01:33:17.018Z</time>
      </trkpt>
      <trkpt lat="51.904550" lon="5.566263">
        <ele>8.115559</ele>
        <time>2022-01-10T01:33:32.609Z</time>
      </trkpt>
      <trkpt lat="51.904465" lon="5.565568">
        <ele>7.962802</ele>
        <time>2022-01-10T01:33:41.838Z</time>
      </trkpt>
      <trkpt lat="51.904518" lon="5.565069">
        <ele>7.870942</ele>
        <time>2022-01-10T01:33:48.422Z</time>
      </trkpt>
      <trkpt lat="51.904837" lon="5.564027">
        <ele>7.890010</ele>
        <time>2022-01-10T01:34:03.987Z</time>
      </trkpt>
      <trkpt lat="51.905014" lon="5.563599">
        <ele>7.898457</ele>
        <time>2022-01-10T01:34:11.200Z</time>
      </trkpt>
      <trkpt lat="51.905439" lon="5.563022">
        <ele>7.913186</ele>
        <time>2022-01-10T01:34:24.079Z</time>
      </trkpt>
      <trkpt lat="51.905537" lon="5.562791">
        <ele>7.915369</ele>
        <time>2022-01-10T01:34:28.220Z</time>
      </trkpt>
      <trkpt lat="51.905576" lon="5.562223">
        <ele>7.842260</ele>
        <time>2022-01-10T01:34:36.133Z</time>
      </trkpt>
      <trkpt lat="51.905751" lon="5.562167">
        <ele>7.805275</ele>
        <time>2022-01-10T01:34:40.116Z</time>
      </trkpt>
      <trkpt lat="51.906171" lon="5.562033">
        <ele>7.716519</ele>
        <time>2022-01-10T01:34:49.230Z</time>
      </trkpt>
      <trkpt lat="51.906845" lon="5.562041">
        <ele>7.576765</ele>
        <time>2022-01-10T01:35:03.342Z</time>
      </trkpt>
      <trkpt lat="51.907019" lon="5.562103">
        <ele>7.538206</ele>
        <time>2022-01-10T01:35:06.924Z</time>
      </trkpt>
      <trkpt lat="51.908173" lon="5.562745">
        <ele>7.198860</ele>
        <time>2022-01-10T01:35:32.594Z</time>
      </trkpt>
      <trkpt lat="51.908683" lon="5.562888">
        <ele>7.054905</ele>
        <time>2022-01-10T01:35:43.680Z</time>
      </trkpt>
      <trkpt lat="51.909072" lon="5.562882">
        <ele>7.025513</ele>
        <time>2022-01-10T01:35:52.278Z</time>
      </trkpt>
      <trkpt lat="51.909489" lon="5.562894">
        <ele>7.003180</ele>
        <time>2022-01-10T01:36:01.555Z</time>
      </trkpt>
      <trkpt lat="51.909461" lon="5.562748">
        <ele>6.998129</ele>
        <time>2022-01-10T01:36:03.645Z</time>
      </trkpt>
      <trkpt lat="51.909632" lon="5.562640">
        <ele>6.988302</ele>
        <time>2022-01-10T01:36:16.382Z</time>
      </trkpt>
      <trkpt lat="51.909576" lon="5.562376">
        <ele>6.979079</ele>
        <time>2022-01-10T01:36:20.243Z</time>
      </trkpt>
      <trkpt lat="51.909621" lon="5.562082">
        <ele>6.969073</ele>
        <time>2022-01-10T01:36:24.408Z</time>
      </trkpt>
      <trkpt lat="51.909640" lon="5.562020">
        <ele>6.966786</ele>
        <time>2022-01-10T01:36:25.361Z</time>
      </trkpt>
      <trkpt lat="51.910520" lon="5.559720">
        <ele>6.791845</ele>
        <time>2022-01-10T01:37:01.840Z</time>
      </trkpt>
      <trkpt lat="51.911394" lon="5.557760">
        <ele>6.616228</ele>
        <time>2022-01-10T01:37:34.185Z</time>
      </trkpt>
      <trkpt lat="51.911947" lon="5.556147">
        <ele>6.489585</ele>
        <time>2022-01-10T01:37:58.940Z</time>
      </trkpt>
      <trkpt lat="51.911970" lon="5.556080">
        <ele>6.484972</ele>
        <time>2022-01-10T01:38:00.032Z</time>
      </trkpt>
      <trkpt lat="51.912090" lon="5.555330">
        <ele>6.438355</ele>
        <time>2022-01-10T01:38:10.398Z</time>
      </trkpt>
      <trkpt lat="51.912180" lon="5.552946">
        <ele>6.459250</ele>
        <time>2022-01-10T01:38:42.967Z</time>
      </trkpt>
      <trkpt lat="51.912159" lon="5.552319">
        <ele>6.537069</ele>
        <time>2022-01-10T01:38:51.928Z</time>
      </trkpt>
      <trkpt lat="51.912124" lon="5.551361">
        <ele>6.656003</ele>
        <time>2022-01-10T01:39:05.991Z</time>
      </trkpt>
      <trkpt lat="51.912090" lon="5.550448">
        <ele>6.733343</ele>
        <time>2022-01-10T01:39:19.116Z</time>
      </trkpt>
      <trkpt lat="51.911999" lon="5.550450">
        <ele>6.740571</ele>
        <time>2022-01-10T01:39:21.341Z</time>
      </trkpt>
      <trkpt lat="51.912013" lon="5.549732">
        <ele>6.775766</ele>
        <time>2022-01-10T01:39:32.071Z</time>
      </trkpt>
      <trkpt lat="51.911979" lon="5.549300">
        <ele>6.797102</ele>
        <time>2022-01-10T01:39:38.148Z</time>
      </trkpt>
      <trkpt lat="51.912026" lon="5.548915">
        <ele>6.816331</ele>
        <time>2022-01-10T01:39:43.545Z</time>
      </trkpt>
      <trkpt lat="51.912018" lon="5.548134">
        <ele>6.844005</ele>
        <time>2022-01-10T01:39:54.063Z</time>
      </trkpt>
      <trkpt lat="51.911788" lon="5.545186">
        <ele>6.197701</ele>
        <time>2022-01-10T01:40:32.364Z</time>
      </trkpt>
      <trkpt lat="51.911748" lon="5.543963">
        <ele>5.918002</ele>
        <time>2022-01-10T01:40:47.973Z</time>
      </trkpt>
      <trkpt lat="51.911849" lon="5.543212">
        <ele>5.742461</ele>
        <time>2022-01-10T01:40:57.852Z</time>
      </trkpt>
      <trkpt lat="51.912229" lon="5.541793">
        <ele>5.538030</ele>
        <time>2022-01-10T01:41:18.053Z</time>
      </trkpt>
      <trkpt lat="51.912467" lon="5.541722">
        <ele>5.529531</ele>
        <time>2022-01-10T01:41:23.277Z</time>
      </trkpt>
      <trkpt lat="51.912544" lon="5.541857">
        <ele>5.525548</ele>
        <time>2022-01-10T01:41:25.831Z</time>
      </trkpt>
      <trkpt lat="51.912827" lon="5.541378">
        <ele>5.511179</ele>
        <time>2022-01-10T01:41:34.890Z</time>
      </trkpt>
      <trkpt lat="51.913022" lon="5.540715">
        <ele>5.495267</ele>
        <time>2022-01-10T01:41:45.321Z</time>
      </trkpt>
      <trkpt lat="51.913070" lon="5.540370">
        <ele>5.516670</ele>
        <time>2022-01-10T01:41:50.449Z</time>
      </trkpt>
      <trkpt lat="51.912982" lon="5.539494">
        <ele>5.692998</ele>
        <time>2022-01-10T01:42:03.609Z</time>
      </trkpt>
      <trkpt lat="51.912977" lon="5.537878">
        <ele>6.014053</ele>
        <time>2022-01-10T01:42:27.174Z</time>
      </trkpt>
      <trkpt lat="51.913000" lon="5.536064">
        <ele>6.243957</ele>
        <time>2022-01-10T01:42:52.511Z</time>
      </trkpt>
      <trkpt lat="51.913010" lon="5.535313">
        <ele>6.329261</ele>
        <time>2022-01-10T01:43:03.206Z</time>
      </trkpt>
      <trkpt lat="51.913100" lon="5.534104">
        <ele>6.490616</ele>
        <time>2022-01-10T01:43:20.623Z</time>
      </trkpt>
      <trkpt lat="51.913079" lon="5.533231">
        <ele>6.624148</ele>
        <time>2022-01-10T01:43:33.302Z</time>
      </trkpt>
      <trkpt lat="51.912994" lon="5.533302">
        <ele>6.647840</ele>
        <time>2022-01-10T01:43:35.423Z</time>
      </trkpt>
      <trkpt lat="51.912934" lon="5.532460">
        <ele>6.777388</ele>
        <time>2022-01-10T01:43:47.695Z</time>
      </trkpt>
      <trkpt lat="51.912825" lon="5.532155">
        <ele>6.831263</ele>
        <time>2022-01-10T01:43:52.738Z</time>
      </trkpt>
      <trkpt lat="51.912777" lon="5.531782">
        <ele>6.819791</ele>
        <time>2022-01-10T01:43:58.396Z</time>
      </trkpt>
      <trkpt lat="51.912729" lon="5.530596">
        <ele>6.706748</ele>
        <time>2022-01-10T01:44:14.577Z</time>
      </trkpt>
      <trkpt lat="51.912806" lon="5.529998">
        <ele>6.648646</ele>
        <time>2022-01-10T01:44:22.521Z</time>
      </trkpt>
      <trkpt lat="51.912778" lon="5.528895">
        <ele>6.502634</ele>
        <time>2022-01-10T01:44:36.646Z</time>
      </trkpt>
      <trkpt lat="51.912599" lon="5.526198">
        <ele>5.841374</ele>
        <time>2022-01-10T01:45:11.236Z</time>
      </trkpt>
      <trkpt lat="51.912592" lon="5.525044">
        <ele>5.745487</ele>
        <time>2022-01-10T01:45:26.483Z</time>
      </trkpt>
      <trkpt lat="51.912613" lon="5.524731">
        <ele>5.719327</ele>
        <time>2022-01-10T01:45:30.775Z</time>
      </trkpt>
      <trkpt lat="51.912343" lon="5.522922">
        <ele>5.616262</ele>
        <time>2022-01-10T01:45:56.413Z</time>
      </trkpt>
      <trkpt lat="51.912098" lon="5.515644">
        <ele>5.719318</ele>
        <time>2022-01-10T01:47:36.980Z</time>
      </trkpt>
      <trkpt lat="51.912072" lon="5.513500">
        <ele>5.671953</ele>
        <time>2022-01-10T01:48:05.961Z</time>
      </trkpt>
      <trkpt lat="51.912153" lon="5.512309">
        <ele>5.637590</ele>
        <time>2022-01-10T01:48:22.249Z</time>
      </trkpt>
      <trkpt lat="51.912524" lon="5.509177">
        <ele>5.667852</ele>
        <time>2022-01-10T01:49:06.331Z</time>
      </trkpt>
      <trkpt lat="51.913187" lon="5.504081">
        <ele>5.485023</ele>
        <time>2022-01-10T01:50:17.221Z</time>
      </trkpt>
      <trkpt lat="51.913197" lon="5.503721">
        <ele>5.468495</ele>
        <time>2022-01-10T01:50:22.047Z</time>
      </trkpt>
      <trkpt lat="51.913142" lon="5.503339">
        <ele>5.450505</ele>
        <time>2022-01-10T01:50:27.250Z</time>
      </trkpt>
      <trkpt lat="51.912522" lon="5.500478">
        <ele>5.118829</ele>
        <time>2022-01-10T01:51:07.517Z</time>
      </trkpt>
      <trkpt lat="51.912204" lon="5.499452">
        <ele>5.091114</ele>
        <time>2022-01-10T01:51:22.970Z</time>
      </trkpt>
      <trkpt lat="51.911481" lon="5.496214">
        <ele>5.159834</ele>
        <time>2022-01-10T01:52:10.606Z</time>
      </trkpt>
      <trkpt lat="51.911549" lon="5.496144">
        <ele>5.168376</ele>
        <time>2022-01-10T01:52:12.431Z</time>
      </trkpt>
      <trkpt lat="51.911619" lon="5.495854">
        <ele>5.188748</ele>
        <time>2022-01-10T01:52:16.935Z</time>
      </trkpt>
      <trkpt lat="51.911581" lon="5.495525">
        <ele>5.210645</ele>
        <time>2022-01-10T01:52:21.815Z</time>
      </trkpt>
      <trkpt lat="51.911136" lon="5.493442">
        <ele>5.438555</ele>
        <time>2022-01-10T01:52:54.334Z</time>
      </trkpt>
      <trkpt lat="51.910993" lon="5.493063">
        <ele>5.489382</ele>
        <time>2022-01-10T01:53:00.854Z</time>
      </trkpt>
      <trkpt lat="51.910912" lon="5.492378">
        <ele>5.569175</ele>
        <time>2022-01-10T01:53:11.121Z</time>
      </trkpt>
      <trkpt lat="51.910074" lon="5.488581">
        <ele>6.057265</ele>
        <time>2022-01-10T01:54:09.931Z</time>
      </trkpt>
      <trkpt lat="51.909987" lon="5.488358">
        <ele>6.116859</ele>
        <time>2022-01-10T01:54:13.696Z</time>
      </trkpt>
      <trkpt lat="51.909977" lon="5.488065">
        <ele>6.183137</ele>
        <time>2022-01-10T01:54:18.231Z</time>
      </trkpt>
      <trkpt lat="51.908460" lon="5.481242">
        <ele>8.772182</ele>
        <time>2022-01-10T01:56:14.374Z</time>
      </trkpt>
      <trkpt lat="51.906551" lon="5.471952">
        <ele>5.909615</ele>
        <time>2022-01-10T01:58:22.949Z</time>
      </trkpt>
      <trkpt lat="51.904741" lon="5.463631">
        <ele>4.963720</ele>
        <time>2022-01-10T02:00:25.060Z</time>
      </trkpt>
      <trkpt lat="51.904262" lon="5.461356">
        <ele>5.725834</ele>
        <time>2022-01-10T02:01:02.959Z</time>
      </trkpt>
      <trkpt lat="51.904249" lon="5.460769">
        <ele>6.117300</ele>
        <time>2022-01-10T02:01:12.739Z</time>
      </trkpt>
      <trkpt lat="51.904312" lon="5.460318">
        <ele>6.425482</ele>
        <time>2022-01-10T02:01:20.764Z</time>
      </trkpt>
      <trkpt lat="51.904671" lon="5.458761">
        <ele>7.422922</ele>
        <time>2022-01-10T02:01:50.414Z</time>
      </trkpt>
      <trkpt lat="51.904926" lon="5.457340">
        <ele>8.096761</ele>
        <time>2022-01-10T02:02:15.261Z</time>
      </trkpt>
      <trkpt lat="51.904631" lon="5.456003">
        <ele>8.347391</ele>
        <time>2022-01-10T02:02:35.582Z</time>
      </trkpt>
      <trkpt lat="51.904564" lon="5.455483">
        <ele>8.174554</ele>
        <time>2022-01-10T02:02:42.550Z</time>
      </trkpt>
      <trkpt lat="51.904610" lon="5.455163">
        <ele>8.067649</ele>
        <time>2022-01-10T02:02:46.771Z</time>
      </trkpt>
      <trkpt lat="51.904653" lon="5.454878">
        <ele>7.972189</ele>
        <time>2022-01-10T02:02:50.451Z</time>
      </trkpt>
      <trkpt lat="51.904236" lon="5.454724">
        <ele>7.746648</ele>
        <time>2022-01-10T02:02:59.069Z</time>
      </trkpt>
      <trkpt lat="51.904086" lon="5.454265">
        <ele>7.577650</ele>
        <time>2022-01-10T02:03:05.544Z</time>
      </trkpt>
      <trkpt lat="51.903388" lon="5.451406">
        <ele>7.704896</ele>
        <time>2022-01-10T02:03:50.001Z</time>
      </trkpt>
      <trkpt lat="51.903191" lon="5.450500">
        <ele>8.072726</ele>
        <time>2022-01-10T02:04:06.112Z</time>
      </trkpt>
      <trkpt lat="51.902837" lon="5.448243">
        <ele>8.645828</ele>
        <time>2022-01-10T02:04:43.527Z</time>
      </trkpt>
      <trkpt lat="51.902705" lon="5.446803">
        <ele>8.259263</ele>
        <time>2022-01-10T02:05:03.033Z</time>
      </trkpt>
      <trkpt lat="51.902681" lon="5.446044">
        <ele>8.057458</ele>
        <time>2022-01-10T02:05:12.251Z</time>
      </trkpt>
      <trkpt lat="51.902713" lon="5.445732">
        <ele>7.938768</ele>
        <time>2022-01-10T02:05:16.045Z</time>
      </trkpt>
      <trkpt lat="51.902722" lon="5.443703">
        <ele>6.749662</ele>
        <time>2022-01-10T02:05:41.515Z</time>
      </trkpt>
      <trkpt lat="51.902777" lon="5.443467">
        <ele>6.601820</ele>
        <time>2022-01-10T02:05:44.665Z</time>
      </trkpt>
      <trkpt lat="51.902741" lon="5.443386">
        <ele>6.543317</ele>
        <time>2022-01-10T02:05:45.917Z</time>
      </trkpt>
      <trkpt lat="51.902685" lon="5.443270">
        <ele>6.457001</ele>
        <time>2022-01-10T02:05:47.707Z</time>
      </trkpt>
      <trkpt lat="51.902606" lon="5.443099">
        <ele>6.331809</ele>
        <time>2022-01-10T02:05:50.352Z</time>
      </trkpt>
      <trkpt lat="51.902556" lon="5.443121">
        <ele>6.290757</ele>
        <time>2022-01-10T02:05:51.404Z</time>
      </trkpt>
      <trkpt lat="51.902523" lon="5.443139">
        <ele>6.281702</ele>
        <time>2022-01-10T02:05:52.122Z</time>
      </trkpt>
      <trkpt lat="51.901895" lon="5.443374">
        <ele>6.114073</ele>
        <time>2022-01-10T02:06:05.946Z</time>
      </trkpt>
      <trkpt lat="51.901379" lon="5.443477">
        <ele>5.978857</ele>
        <time>2022-01-10T02:06:18.137Z</time>
      </trkpt>
      <trkpt lat="51.901219" lon="5.443383">
        <ele>5.934594</ele>
        <time>2022-01-10T02:06:22.200Z</time>
      </trkpt>
      <trkpt lat="51.901112" lon="5.443130">
        <ele>5.885372</ele>
        <time>2022-01-10T02:06:26.733Z</time>
      </trkpt>
      <trkpt lat="51.900999" lon="5.443106">
        <ele>5.855732</ele>
        <time>2022-01-10T02:06:29.310Z</time>
      </trkpt>
      <trkpt lat="51.900890" lon="5.443094">
        <ele>5.827317</ele>
        <time>2022-01-10T02:06:31.852Z</time>
      </trkpt>
      <trkpt lat="51.900712" lon="5.443417">
        <ele>5.801323</ele>
        <time>2022-01-10T02:06:37.736Z</time>
      </trkpt>
      <trkpt lat="51.900659" lon="5.443511">
        <ele>5.793920</ele>
        <time>2022-01-10T02:06:39.524Z</time>
      </trkpt>
      <trkpt lat="51.900317" lon="5.443807">
        <ele>5.757386</ele>
        <time>2022-01-10T02:06:47.936Z</time>
      </trkpt>
      <trkpt lat="51.900182" lon="5.443840">
        <ele>5.744521</ele>
        <time>2022-01-10T02:06:50.871Z</time>
      </trkpt>
      <trkpt lat="51.900110" lon="5.443929">
        <ele>5.735988</ele>
        <time>2022-01-10T02:06:52.814Z</time>
      </trkpt>
      <trkpt lat="51.899899" lon="5.443799">
        <ele>5.714717</ele>
        <time>2022-01-10T02:06:57.930Z</time>
      </trkpt>
      <trkpt lat="51.899811" lon="5.443900">
        <ele>5.704556</ele>
        <time>2022-01-10T02:07:00.321Z</time>
      </trkpt>
      <trkpt lat="51.899667" lon="5.443939">
        <ele>5.690799</ele>
        <time>2022-01-10T02:07:03.657Z</time>
      </trkpt>
      <trkpt lat="51.899498" lon="5.443930">
        <ele>5.674866</ele>
        <time>2022-01-10T02:07:07.401Z</time>
      </trkpt>
      <trkpt lat="51.899003" lon="5.443761">
        <ele>5.629711</ele>
        <time>2022-01-10T02:07:18.638Z</time>
      </trkpt>
      <trkpt lat="51.898019" lon="5.443033">
        <ele>5.536505</ele>
        <time>2022-01-10T02:07:42.201Z</time>
      </trkpt>
      <trkpt lat="51.897280" lon="5.442471">
        <ele>5.541499</ele>
        <time>2022-01-10T02:08:00.086Z</time>
      </trkpt>
      <trkpt lat="51.896734" lon="5.442060">
        <ele>5.599995</ele>
        <time>2022-01-10T02:08:13.277Z</time>
      </trkpt>
      <trkpt lat="51.895190" lon="5.440840">
        <ele>5.928727</ele>
        <time>2022-01-10T02:08:53.826Z</time>
      </trkpt>
      <trkpt lat="51.894907" lon="5.440630">
        <ele>6.013011</ele>
        <time>2022-01-10T02:09:01.102Z</time>
      </trkpt>
      <trkpt lat="51.894790" lon="5.440320">
        <ele>6.073734</ele>
        <time>2022-01-10T02:09:06.386Z</time>
      </trkpt>
      <trkpt lat="51.894790" lon="5.440050">
        <ele>6.118852</ele>
        <time>2022-01-10T02:09:10.136Z</time>
      </trkpt>
      <trkpt lat="51.894840" lon="5.439910">
        <ele>6.145882</ele>
        <time>2022-01-10T02:09:12.426Z</time>
      </trkpt>
      <trkpt lat="51.895267" lon="5.438979">
        <ele>6.134100</ele>
        <time>2022-01-10T02:09:29.023Z</time>
      </trkpt>
      <trkpt lat="51.895283" lon="5.438902">
        <ele>6.131845</ele>
        <time>2022-01-10T02:09:30.202Z</time>
      </trkpt>
      <trkpt lat="51.895390" lon="5.438794">
        <ele>6.126176</ele>
        <time>2022-01-10T02:09:32.914Z</time>
      </trkpt>
      <trkpt lat="51.895511" lon="5.438541">
        <ele>6.117293</ele>
        <time>2022-01-10T02:09:37.188Z</time>
      </trkpt>
      <trkpt lat="51.895448" lon="5.438459">
        <ele>6.113659</ele>
        <time>2022-01-10T02:09:38.939Z</time>
      </trkpt>
      <trkpt lat="51.895463" lon="5.438411">
        <ele>6.112166</ele>
        <time>2022-01-10T02:09:39.614Z</time>
      </trkpt>
      <trkpt lat="51.895457" lon="5.438275">
        <ele>6.108382</ele>
        <time>2022-01-10T02:09:41.355Z</time>
      </trkpt>
      <trkpt lat="51.895412" lon="5.438197">
        <ele>6.105419</ele>
        <time>2022-01-10T02:09:42.763Z</time>
      </trkpt>
      <trkpt lat="51.895313" lon="5.438186">
        <ele>6.100957</ele>
        <time>2022-01-10T02:09:44.834Z</time>
      </trkpt>
      <trkpt lat="51.895075" lon="5.438096">
        <ele>6.089966</ele>
        <time>2022-01-10T02:09:51.784Z</time>
      </trkpt>
      <trkpt lat="51.894435" lon="5.438053">
        <ele>6.083893</ele>
        <time>2022-01-10T02:10:10.886Z</time>
      </trkpt>
      <trkpt lat="51.894136" lon="5.438002">
        <ele>6.084777</ele>
        <time>2022-01-10T02:10:20.094Z</time>
      </trkpt>
      <trkpt lat="51.893650" lon="5.438056">
        <ele>6.086209</ele>
        <time>2022-01-10T02:10:34.233Z</time>
      </trkpt>
      <trkpt lat="51.893423" lon="5.438049">
        <ele>6.086876</ele>
        <time>2022-01-10T02:10:40.784Z</time>
      </trkpt>
      <trkpt lat="51.893301" lon="5.438034">
        <ele>6.087236</ele>
        <time>2022-01-10T02:10:44.252Z</time>
      </trkpt>
      <trkpt lat="51.893175" lon="5.438066">
        <ele>6.087611</ele>
        <time>2022-01-10T02:10:47.934Z</time>
      </trkpt>
      <trkpt lat="51.892730" lon="5.438124">
        <ele>6.234721</ele>
        <time>2022-01-10T02:11:00.928Z</time>
      </trkpt>
      <trkpt lat="51.892375" lon="5.438174">
        <ele>6.370014</ele>
        <time>2022-01-10T02:11:11.683Z</time>
      </trkpt>
      <trkpt lat="51.892111" lon="5.438112">
        <ele>6.471296</ele>
        <time>2022-01-10T02:11:19.881Z</time>
      </trkpt>
      <trkpt lat="51.891728" lon="5.437996">
        <ele>6.619230</ele>
        <time>2022-01-10T02:11:32.127Z</time>
      </trkpt>
      <trkpt lat="51.891395" lon="5.438021">
        <ele>6.745797</ele>
        <time>2022-01-10T02:11:42.704Z</time>
      </trkpt>
      <trkpt lat="51.891225" lon="5.438105">
        <ele>6.879659</ele>
        <time>2022-01-10T02:11:48.496Z</time>
      </trkpt>
      <trkpt lat="51.890966" lon="5.438221">
        <ele>7.140700</ele>
        <time>2022-01-10T02:11:57.447Z</time>
      </trkpt>
      <trkpt lat="51.890465" lon="5.438340">
        <ele>7.632599</ele>
        <time>2022-01-10T02:12:14.428Z</time>
      </trkpt>
      <trkpt lat="51.889956" lon="5.438444">
        <ele>8.130984</ele>
        <time>2022-01-10T02:12:31.694Z</time>
      </trkpt>
      <trkpt lat="51.889698" lon="5.438508">
        <ele>8.384539</ele>
        <time>2022-01-10T02:12:40.357Z</time>
      </trkpt>
      <trkpt lat="51.889589" lon="5.438535">
        <ele>8.491657</ele>
        <time>2022-01-10T02:12:44.105Z</time>
      </trkpt>
      <trkpt lat="51.889436" lon="5.438569">
        <ele>8.571324</ele>
        <time>2022-01-10T02:12:49.136Z</time>
      </trkpt>
      <trkpt lat="51.888998" lon="5.438893">
        <ele>8.773028</ele>
        <time>2022-01-10T02:13:01.335Z</time>
      </trkpt>
      <trkpt lat="51.888926" lon="5.438894">
        <ele>8.803192</ele>
        <time>2022-01-10T02:13:03.244Z</time>
      </trkpt>
      <trkpt lat="51.888879" lon="5.438990">
        <ele>8.834874</ele>
        <time>2022-01-10T02:13:05.077Z</time>
      </trkpt>
      <trkpt lat="51.888898" lon="5.439109">
        <ele>8.866654</ele>
        <time>2022-01-10T02:13:06.831Z</time>
      </trkpt>
      <trkpt lat="51.888720" lon="5.439310">
        <ele>8.957545</ele>
        <time>2022-01-10T02:13:12.105Z</time>
      </trkpt>
      <trkpt lat="51.888280" lon="5.439570">
        <ele>9.153745</ele>
        <time>2022-01-10T02:13:22.636Z</time>
      </trkpt>
      <trkpt lat="51.888109" lon="5.439608">
        <ele>9.226050</ele>
        <time>2022-01-10T02:13:26.281Z</time>
      </trkpt>
      <trkpt lat="51.887997" lon="5.439550">
        <ele>9.271541</ele>
        <time>2022-01-10T02:13:29.071Z</time>
      </trkpt>
      <trkpt lat="51.887781" lon="5.439632">
        <ele>9.273358</ele>
        <time>2022-01-10T02:13:33.957Z</time>
      </trkpt>
      <trkpt lat="51.887189" lon="5.440251">
        <ele>9.279129</ele>
        <time>2022-01-10T02:13:50.436Z</time>
      </trkpt>
      <trkpt lat="51.887137" lon="5.440310">
        <ele>9.279649</ele>
        <time>2022-01-10T02:13:52.016Z</time>
      </trkpt>
      <trkpt lat="51.886914" lon="5.440565">
        <ele>9.281885</ele>
        <time>2022-01-10T02:13:58.466Z</time>
      </trkpt>
      <trkpt lat="51.886739" lon="5.440671">
        <ele>9.283415</ele>
        <time>2022-01-10T02:14:03.092Z</time>
      </trkpt>
      <trkpt lat="51.886648" lon="5.440674">
        <ele>9.284160</ele>
        <time>2022-01-10T02:14:05.194Z</time>
      </trkpt>
      <trkpt lat="51.886378" lon="5.440485">
        <ele>9.272425</ele>
        <time>2022-01-10T02:14:11.976Z</time>
      </trkpt>
      <trkpt lat="51.886343" lon="5.440455">
        <ele>9.260401</ele>
        <time>2022-01-10T02:14:12.852Z</time>
      </trkpt>
      <trkpt lat="51.886303" lon="5.440420">
        <ele>9.246596</ele>
        <time>2022-01-10T02:14:13.822Z</time>
      </trkpt>
      <trkpt lat="51.886046" lon="5.440191">
        <ele>9.157528</ele>
        <time>2022-01-10T02:14:19.924Z</time>
      </trkpt>
      <trkpt lat="51.885870" lon="5.440093">
        <ele>9.101014</ele>
        <time>2022-01-10T02:14:23.855Z</time>
      </trkpt>
      <trkpt lat="51.885668" lon="5.439869">
        <ele>9.026680</ele>
        <time>2022-01-10T02:14:28.853Z</time>
      </trkpt>
      <trkpt lat="51.885313" lon="5.439291">
        <ele>8.873845</ele>
        <time>2022-01-10T02:14:39.364Z</time>
      </trkpt>
      <trkpt lat="51.885288" lon="5.439248">
        <ele>8.862773</ele>
        <time>2022-01-10T02:14:40.135Z</time>
      </trkpt>
      <trkpt lat="51.885210" lon="5.439482">
        <ele>8.812926</ele>
        <time>2022-01-10T02:14:43.628Z</time>
      </trkpt>
      <trkpt lat="51.885174" lon="5.439569">
        <ele>8.793293</ele>
        <time>2022-01-10T02:14:45.070Z</time>
      </trkpt>
      <trkpt lat="51.884981" lon="5.439365">
        <ele>8.747476</ele>
        <time>2022-01-10T02:14:49.798Z</time>
      </trkpt>
      <trkpt lat="51.884637" lon="5.439137">
        <ele>8.798002</ele>
        <time>2022-01-10T02:14:58.184Z</time>
      </trkpt>
      <trkpt lat="51.884111" lon="5.438955">
        <ele>8.871120</ele>
        <time>2022-01-10T02:15:10.746Z</time>
      </trkpt>
      <trkpt lat="51.883948" lon="5.438813">
        <ele>8.896279</ele>
        <time>2022-01-10T02:15:14.933Z</time>
      </trkpt>
      <trkpt lat="51.883788" lon="5.438389">
        <ele>8.937979</ele>
        <time>2022-01-10T02:15:22.042Z</time>
      </trkpt>
      <trkpt lat="51.883783" lon="5.438119">
        <ele>8.960645</ele>
        <time>2022-01-10T02:15:25.784Z</time>
      </trkpt>
      <trkpt lat="51.883837" lon="5.437870">
        <ele>8.982791</ele>
        <time>2022-01-10T02:15:29.902Z</time>
      </trkpt>
      <trkpt lat="51.883892" lon="5.437613">
        <ele>8.949231</ele>
        <time>2022-01-10T02:15:33.636Z</time>
      </trkpt>
      <trkpt lat="51.883870" lon="5.437517">
        <ele>8.934862</ele>
        <time>2022-01-10T02:15:35.235Z</time>
      </trkpt>
      <trkpt lat="51.883659" lon="5.437545">
        <ele>8.886737</ele>
        <time>2022-01-10T02:15:40.198Z</time>
      </trkpt>
      <trkpt lat="51.883430" lon="5.437390">
        <ele>8.830321</ele>
        <time>2022-01-10T02:15:46.017Z</time>
      </trkpt>
      <trkpt lat="51.883227" lon="5.437384">
        <ele>8.784168</ele>
        <time>2022-01-10T02:15:50.308Z</time>
      </trkpt>
      <trkpt lat="51.882150" lon="5.436520">
        <ele>8.336080</ele>
        <time>2022-01-10T02:16:14.775Z</time>
      </trkpt>
      <trkpt lat="51.881556" lon="5.435899">
        <ele>7.740824</ele>
        <time>2022-01-10T02:16:28.322Z</time>
      </trkpt>
      <trkpt lat="51.881146" lon="5.435410">
        <ele>7.312132</ele>
        <time>2022-01-10T02:16:38.142Z</time>
      </trkpt>
      <trkpt lat="51.880344" lon="5.434026">
        <ele>7.111423</ele>
        <time>2022-01-10T02:17:01.767Z</time>
      </trkpt>
      <trkpt lat="51.880090" lon="5.433604">
        <ele>7.132342</ele>
        <time>2022-01-10T02:17:10.423Z</time>
      </trkpt>
      <trkpt lat="51.879656" lon="5.432673">
        <ele>7.291386</ele>
        <time>2022-01-10T02:17:29.079Z</time>
      </trkpt>
      <trkpt lat="51.879004" lon="5.430731">
        <ele>8.378652</ele>
        <time>2022-01-10T02:18:04.926Z</time>
      </trkpt>
      <trkpt lat="51.878805" lon="5.430091">
        <ele>8.551845</ele>
        <time>2022-01-10T02:18:15.900Z</time>
      </trkpt>
      <trkpt lat="51.878726" lon="5.427604">
        <ele>8.131739</ele>
        <time>2022-01-10T02:18:48.098Z</time>
      </trkpt>
      <trkpt lat="51.878563" lon="5.427231">
        <ele>7.978179</ele>
        <time>2022-01-10T02:18:55.318Z</time>
      </trkpt>
      <trkpt lat="51.878239" lon="5.427197">
        <ele>7.757629</ele>
        <time>2022-01-10T02:19:01.579Z</time>
      </trkpt>
      <trkpt lat="51.878209" lon="5.427205">
        <ele>7.736976</ele>
        <time>2022-01-10T02:19:02.158Z</time>
      </trkpt>
      <trkpt lat="51.878082" lon="5.427234">
        <ele>7.649854</ele>
        <time>2022-01-10T02:19:04.729Z</time>
      </trkpt>
      <trkpt lat="51.877786" lon="5.427293">
        <ele>7.447269</ele>
        <time>2022-01-10T02:19:10.596Z</time>
      </trkpt>
      <trkpt lat="51.877651" lon="5.427278">
        <ele>7.355349</ele>
        <time>2022-01-10T02:19:13.288Z</time>
      </trkpt>
      <trkpt lat="51.877419" lon="5.427022">
        <ele>7.164664</ele>
        <time>2022-01-10T02:19:19.020Z</time>
      </trkpt>
      <trkpt lat="51.876810" lon="5.425782">
        <ele>6.703853</ele>
        <time>2022-01-10T02:19:39.229Z</time>
      </trkpt>
      <trkpt lat="51.876478" lon="5.424958">
        <ele>6.510000</ele>
        <time>2022-01-10T02:19:51.579Z</time>
      </trkpt>
      <trkpt lat="51.875843" lon="5.423679">
        <ele>6.327073</ele>
        <time>2022-01-10T02:20:15.148Z</time>
      </trkpt>
      <trkpt lat="51.875720" lon="5.423318">
        <ele>6.338071</ele>
        <time>2022-01-10T02:20:21.056Z</time>
      </trkpt>
      <trkpt lat="51.875500" lon="5.422675">
        <ele>6.357679</ele>
        <time>2022-01-10T02:20:31.662Z</time>
      </trkpt>
      <trkpt lat="51.875331" lon="5.422382">
        <ele>6.368374</ele>
        <time>2022-01-10T02:20:37.370Z</time>
      </trkpt>
      <trkpt lat="51.875212" lon="5.422298">
        <ele>6.373982</ele>
        <time>2022-01-10T02:20:40.458Z</time>
      </trkpt>
      <trkpt lat="51.874746" lon="5.422219">
        <ele>6.397061</ele>
        <time>2022-01-10T02:20:51.578Z</time>
      </trkpt>
      <trkpt lat="51.874444" lon="5.422013">
        <ele>6.417707</ele>
        <time>2022-01-10T02:20:59.537Z</time>
      </trkpt>
      <trkpt lat="51.874279" lon="5.421686">
        <ele>6.434135</ele>
        <time>2022-01-10T02:21:05.827Z</time>
      </trkpt>
      <trkpt lat="51.874067" lon="5.420599">
        <ele>6.478478</ele>
        <time>2022-01-10T02:21:22.040Z</time>
      </trkpt>
      <trkpt lat="51.873850" lon="5.419801">
        <ele>6.515363</ele>
        <time>2022-01-10T02:21:34.429Z</time>
      </trkpt>
      <trkpt lat="51.873421" lon="5.419330">
        <ele>6.556790</ele>
        <time>2022-01-10T02:21:46.360Z</time>
      </trkpt>
      <trkpt lat="51.872971" lon="5.418070">
        <ele>6.628628</ele>
        <time>2022-01-10T02:22:07.514Z</time>
      </trkpt>
      <trkpt lat="51.872765" lon="5.417703">
        <ele>6.673593</ele>
        <time>2022-01-10T02:22:14.925Z</time>
      </trkpt>
      <trkpt lat="51.872228" lon="5.417299">
        <ele>6.842535</ele>
        <time>2022-01-10T02:22:29.287Z</time>
      </trkpt>
      <trkpt lat="51.871389" lon="5.416727">
        <ele>7.102266</ele>
        <time>2022-01-10T02:22:50.888Z</time>
      </trkpt>
      <trkpt lat="51.871125" lon="5.416414">
        <ele>7.183050</ele>
        <time>2022-01-10T02:22:58.525Z</time>
      </trkpt>
      <trkpt lat="51.870815" lon="5.415884">
        <ele>7.268316</ele>
        <time>2022-01-10T02:23:08.940Z</time>
      </trkpt>
      <trkpt lat="51.870723" lon="5.415566">
        <ele>7.309331</ele>
        <time>2022-01-10T02:23:14.263Z</time>
      </trkpt>
      <trkpt lat="51.870709" lon="5.415310">
        <ele>7.339347</ele>
        <time>2022-01-10T02:23:17.661Z</time>
      </trkpt>
      <trkpt lat="51.870363" lon="5.415286">
        <ele>7.404856</ele>
        <time>2022-01-10T02:23:25.558Z</time>
      </trkpt>
      <trkpt lat="51.870019" lon="5.415366">
        <ele>7.470595</ele>
        <time>2022-01-10T02:23:33.336Z</time>
      </trkpt>
      <trkpt lat="51.867352" lon="5.416912">
        <ele>7.617802</ele>
        <time>2022-01-10T02:24:36.864Z</time>
      </trkpt>
      <trkpt lat="51.866227" lon="5.417424">
        <ele>7.637341</ele>
        <time>2022-01-10T02:25:03.379Z</time>
      </trkpt>
      <trkpt lat="51.865827" lon="5.417466">
        <ele>7.588910</ele>
        <time>2022-01-10T02:25:12.250Z</time>
      </trkpt>
      <trkpt lat="51.865443" lon="5.417227">
        <ele>7.539205</ele>
        <time>2022-01-10T02:25:21.243Z</time>
      </trkpt>
      <trkpt lat="51.863256" lon="5.414754">
        <ele>6.852803</ele>
        <time>2022-01-10T02:26:17.379Z</time>
      </trkpt>
      <trkpt lat="51.862719" lon="5.414209">
        <ele>6.748178</ele>
        <time>2022-01-10T02:26:30.928Z</time>
      </trkpt>
      <trkpt lat="51.862145" lon="5.413822">
        <ele>6.645532</ele>
        <time>2022-01-10T02:26:44.482Z</time>
      </trkpt>
      <trkpt lat="51.859277" lon="5.412847">
        <ele>6.336466</ele>
        <time>2022-01-10T02:27:48.787Z</time>
      </trkpt>
      <trkpt lat="51.858712" lon="5.412734">
        <ele>6.248533</ele>
        <time>2022-01-10T02:28:01.075Z</time>
      </trkpt>
      <trkpt lat="51.858397" lon="5.412659">
        <ele>6.199355</ele>
        <time>2022-01-10T02:28:07.959Z</time>
      </trkpt>
      <trkpt lat="51.857509" lon="5.412218">
        <ele>6.175844</ele>
        <time>2022-01-10T02:28:28.016Z</time>
      </trkpt>
      <trkpt lat="51.856333" lon="5.411644">
        <ele>6.243658</ele>
        <time>2022-01-10T02:28:55.767Z</time>
      </trkpt>
      <trkpt lat="51.855893" lon="5.411361">
        <ele>6.408746</ele>
        <time>2022-01-10T02:29:06.874Z</time>
      </trkpt>
      <trkpt lat="51.853900" lon="5.409648">
        <ele>7.105776</ele>
        <time>2022-01-10T02:30:01.216Z</time>
      </trkpt>
      <trkpt lat="51.852790" lon="5.408287">
        <ele>7.151517</ele>
        <time>2022-01-10T02:30:32.012Z</time>
      </trkpt>
      <trkpt lat="51.851260" lon="5.406787">
        <ele>6.729636</ele>
        <time>2022-01-10T02:31:09.711Z</time>
      </trkpt>
      <trkpt lat="51.850606" lon="5.406126">
        <ele>6.503045</ele>
        <time>2022-01-10T02:31:25.951Z</time>
      </trkpt>
      <trkpt lat="51.850206" lon="5.405791">
        <ele>6.395186</ele>
        <time>2022-01-10T02:31:35.431Z</time>
      </trkpt>
      <trkpt lat="51.850078" lon="5.405855">
        <ele>6.384982</ele>
        <time>2022-01-10T02:31:38.339Z</time>
      </trkpt>
      <trkpt lat="51.848278" lon="5.405390">
        <ele>6.326987</ele>
        <time>2022-01-10T02:32:20.345Z</time>
      </trkpt>
      <trkpt lat="51.847847" lon="5.405111">
        <ele>6.430286</ele>
        <time>2022-01-10T02:32:31.753Z</time>
      </trkpt>
      <trkpt lat="51.847121" lon="5.404349">
        <ele>6.622840</ele>
        <time>2022-01-10T02:32:52.708Z</time>
      </trkpt>
      <trkpt lat="51.846712" lon="5.403873">
        <ele>6.674571</ele>
        <time>2022-01-10T02:33:04.894Z</time>
      </trkpt>
      <trkpt lat="51.846270" lon="5.403290">
        <ele>6.688652</ele>
        <time>2022-01-10T02:33:19.001Z</time>
      </trkpt>
      <trkpt lat="51.846130" lon="5.402890">
        <ele>6.695666</ele>
        <time>2022-01-10T02:33:25.467Z</time>
      </trkpt>
      <trkpt lat="51.846035" lon="5.401269">
        <ele>6.685135</ele>
        <time>2022-01-10T02:33:47.495Z</time>
      </trkpt>
      <trkpt lat="51.846014" lon="5.401065">
        <ele>6.675961</ele>
        <time>2022-01-10T02:33:50.360Z</time>
      </trkpt>
      <trkpt lat="51.845440" lon="5.399240">
        <ele>6.585124</ele>
        <time>2022-01-10T02:34:19.884Z</time>
      </trkpt>
      <trkpt lat="51.845210" lon="5.398090">
        <ele>6.482098</ele>
        <time>2022-01-10T02:34:37.281Z</time>
      </trkpt>
      <trkpt lat="51.844819" lon="5.397167">
        <ele>6.384179</ele>
        <time>2022-01-10T02:34:52.729Z</time>
      </trkpt>
      <trkpt lat="51.844609" lon="5.396140">
        <ele>6.243260</ele>
        <time>2022-01-10T02:35:07.391Z</time>
      </trkpt>
      <trkpt lat="51.844566" lon="5.395943">
        <ele>6.202753</ele>
        <time>2022-01-10T02:35:10.183Z</time>
      </trkpt>
      <trkpt lat="51.844528" lon="5.395392">
        <ele>6.095264</ele>
        <time>2022-01-10T02:35:17.697Z</time>
      </trkpt>
      <trkpt lat="51.844500" lon="5.395042">
        <ele>6.026841</ele>
        <time>2022-01-10T02:35:22.529Z</time>
      </trkpt>
      <trkpt lat="51.844344" lon="5.394620">
        <ele>5.931497</ele>
        <time>2022-01-10T02:35:29.155Z</time>
      </trkpt>
      <trkpt lat="51.844226" lon="5.394239">
        <ele>5.848868</ele>
        <time>2022-01-10T02:35:34.910Z</time>
      </trkpt>
      <trkpt lat="51.844172" lon="5.393707">
        <ele>5.777366</ele>
        <time>2022-01-10T02:35:42.262Z</time>
      </trkpt>
      <trkpt lat="51.844177" lon="5.392827">
        <ele>5.906550</ele>
        <time>2022-01-10T02:35:54.655Z</time>
      </trkpt>
      <trkpt lat="51.844178" lon="5.392463">
        <ele>5.959984</ele>
        <time>2022-01-10T02:35:59.989Z</time>
      </trkpt>
      <trkpt lat="51.844170" lon="5.390580">
        <ele>6.224208</ele>
        <time>2022-01-10T02:36:29.654Z</time>
      </trkpt>
      <trkpt lat="51.844361" lon="5.389535">
        <ele>6.341673</ele>
        <time>2022-01-10T02:36:46.124Z</time>
      </trkpt>
      <trkpt lat="51.844577" lon="5.388772">
        <ele>6.432139</ele>
        <time>2022-01-10T02:36:58.036Z</time>
      </trkpt>
      <trkpt lat="51.844550" lon="5.388719">
        <ele>6.439543</ele>
        <time>2022-01-10T02:36:59.000Z</time>
      </trkpt>
      <trkpt lat="51.844333" lon="5.388243">
        <ele>6.503307</ele>
        <time>2022-01-10T02:37:07.290Z</time>
      </trkpt>
      <trkpt lat="51.844190" lon="5.387770">
        <ele>6.495439</ele>
        <time>2022-01-10T02:37:14.753Z</time>
      </trkpt>
      <trkpt lat="51.844064" lon="5.387218">
        <ele>6.485337</ele>
        <time>2022-01-10T02:37:23.121Z</time>
      </trkpt>
      <trkpt lat="51.844072" lon="5.387006">
        <ele>6.481691</ele>
        <time>2022-01-10T02:37:26.050Z</time>
      </trkpt>
      <trkpt lat="51.844015" lon="5.386691">
        <ele>6.476057</ele>
        <time>2022-01-10T02:37:30.746Z</time>
      </trkpt>
      <trkpt lat="51.843792" lon="5.386094">
        <ele>6.464081</ele>
        <time>2022-01-10T02:37:40.320Z</time>
      </trkpt>
      <trkpt lat="51.842569" lon="5.383700">
        <ele>6.854583</ele>
        <time>2022-01-10T02:38:27.326Z</time>
      </trkpt>
      <trkpt lat="51.842478" lon="5.383461">
        <ele>6.898838</ele>
        <time>2022-01-10T02:38:31.475Z</time>
      </trkpt>
      <trkpt lat="51.842405" lon="5.382628">
        <ele>6.901247</ele>
        <time>2022-01-10T02:38:43.523Z</time>
      </trkpt>
      <trkpt lat="51.842335" lon="5.382514">
        <ele>6.898672</ele>
        <time>2022-01-10T02:38:45.684Z</time>
      </trkpt>
      <trkpt lat="51.841820" lon="5.382240">
        <ele>6.884611</ele>
        <time>2022-01-10T02:38:57.439Z</time>
      </trkpt>
      <trkpt lat="51.840950" lon="5.381590">
        <ele>6.923718</ele>
        <time>2022-01-10T02:39:18.435Z</time>
      </trkpt>
      <trkpt lat="51.840190" lon="5.380970">
        <ele>7.107638</ele>
        <time>2022-01-10T02:39:38.215Z</time>
      </trkpt>
      <trkpt lat="51.839230" lon="5.380430">
        <ele>7.287800</ele>
        <time>2022-01-10T02:40:02.370Z</time>
      </trkpt>
      <trkpt lat="51.838410" lon="5.379750">
        <ele>7.377710</ele>
        <time>2022-01-10T02:40:23.435Z</time>
      </trkpt>
      <trkpt lat="51.838060" lon="5.379530">
        <ele>7.414350</ele>
        <time>2022-01-10T02:40:31.648Z</time>
      </trkpt>
      <trkpt lat="51.837350" lon="5.379130">
        <ele>7.167620</ele>
        <time>2022-01-10T02:40:47.535Z</time>
      </trkpt>
      <trkpt lat="51.836620" lon="5.378850">
        <ele>6.828932</ele>
        <time>2022-01-10T02:41:02.938Z</time>
      </trkpt>
      <trkpt lat="51.834980" lon="5.378300">
        <ele>5.913034</ele>
        <time>2022-01-10T02:41:36.942Z</time>
      </trkpt>
      <trkpt lat="51.834170" lon="5.377950">
        <ele>5.475885</ele>
        <time>2022-01-10T02:41:53.933Z</time>
      </trkpt>
      <trkpt lat="51.833460" lon="5.378020">
        <ele>5.209524</ele>
        <time>2022-01-10T02:42:08.554Z</time>
      </trkpt>
      <trkpt lat="51.833000" lon="5.377700">
        <ele>5.022031</ele>
        <time>2022-01-10T02:42:19.165Z</time>
      </trkpt>
      <trkpt lat="51.832490" lon="5.377550">
        <ele>4.916268</ele>
        <time>2022-01-10T02:42:30.333Z</time>
      </trkpt>
      <trkpt lat="51.831540" lon="5.377810">
        <ele>5.026007</ele>
        <time>2022-01-10T02:42:51.908Z</time>
      </trkpt>
      <trkpt lat="51.831343" lon="5.377889">
        <ele>5.049124</ele>
        <time>2022-01-10T02:42:56.571Z</time>
      </trkpt>
      <trkpt lat="51.830130" lon="5.378400">
        <ele>5.418671</ele>
        <time>2022-01-10T02:43:26.397Z</time>
      </trkpt>
      <trkpt lat="51.829591" lon="5.378446">
        <ele>5.632749</ele>
        <time>2022-01-10T02:43:39.316Z</time>
      </trkpt>
      <trkpt lat="51.829040" lon="5.378370">
        <ele>5.820393</ele>
        <time>2022-01-10T02:43:52.725Z</time>
      </trkpt>
      <trkpt lat="51.828077" lon="5.377955">
        <ele>5.887519</ele>
        <time>2022-01-10T02:44:15.989Z</time>
      </trkpt>
      <trkpt lat="51.827690" lon="5.377860">
        <ele>5.913884</ele>
        <time>2022-01-10T02:44:24.590Z</time>
      </trkpt>
      <trkpt lat="51.826439" lon="5.377888">
        <ele>5.360130</ele>
        <time>2022-01-10T02:44:49.966Z</time>
      </trkpt>
      <trkpt lat="51.826006" lon="5.378077">
        <ele>5.084864</ele>
        <time>2022-01-10T02:44:59.050Z</time>
      </trkpt>
      <trkpt lat="51.825882" lon="5.377634">
        <ele>4.900382</ele>
        <time>2022-01-10T02:45:05.363Z</time>
      </trkpt>
      <trkpt lat="51.825400" lon="5.376700">
        <ele>4.982931</ele>
        <time>2022-01-10T02:45:21.927Z</time>
      </trkpt>
      <trkpt lat="51.825050" lon="5.376190">
        <ele>5.094824</ele>
        <time>2022-01-10T02:45:33.451Z</time>
      </trkpt>
      <trkpt lat="51.823730" lon="5.374680">
        <ele>5.745363</ele>
        <time>2022-01-10T02:46:16.171Z</time>
      </trkpt>
      <trkpt lat="51.821214" lon="5.371996">
        <ele>6.974583</ele>
        <time>2022-01-10T02:47:28.838Z</time>
      </trkpt>
      <trkpt lat="51.820983" lon="5.371755">
        <ele>7.215019</ele>
        <time>2022-01-10T02:47:35.857Z</time>
      </trkpt>
      <trkpt lat="51.820528" lon="5.371193">
        <ele>7.715764</ele>
        <time>2022-01-10T02:47:51.145Z</time>
      </trkpt>
      <trkpt lat="51.820056" lon="5.370655">
        <ele>8.220825</ele>
        <time>2022-01-10T02:48:06.714Z</time>
      </trkpt>
      <trkpt lat="51.819760" lon="5.370410">
        <ele>8.345180</ele>
        <time>2022-01-10T02:48:15.461Z</time>
      </trkpt>
      <trkpt lat="51.819130" lon="5.370080">
        <ele>8.560722</ele>
        <time>2022-01-10T02:48:32.319Z</time>
      </trkpt>
      <trkpt lat="51.817558" lon="5.369855">
        <ele>8.435892</ele>
        <time>2022-01-10T02:49:05.360Z</time>
      </trkpt>
      <trkpt lat="51.816760" lon="5.369570">
        <ele>8.001325</ele>
        <time>2022-01-10T02:49:21.638Z</time>
      </trkpt>
      <trkpt lat="51.816180" lon="5.369284">
        <ele>7.751764</ele>
        <time>2022-01-10T02:49:34.094Z</time>
      </trkpt>
      <trkpt lat="51.815156" lon="5.368750">
        <ele>7.391693</ele>
        <time>2022-01-10T02:49:56.490Z</time>
      </trkpt>
      <trkpt lat="51.814782" lon="5.368439">
        <ele>7.258797</ele>
        <time>2022-01-10T02:50:06.264Z</time>
      </trkpt>
      <trkpt lat="51.814490" lon="5.368093">
        <ele>7.179692</ele>
        <time>2022-01-10T02:50:14.334Z</time>
      </trkpt>
      <trkpt lat="51.814181" lon="5.367661">
        <ele>7.090435</ele>
        <time>2022-01-10T02:50:22.977Z</time>
      </trkpt>
      <trkpt lat="51.813791" lon="5.366888">
        <ele>6.955633</ele>
        <time>2022-01-10T02:50:35.812Z</time>
      </trkpt>
      <trkpt lat="51.813609" lon="5.366387">
        <ele>6.876207</ele>
        <time>2022-01-10T02:50:43.350Z</time>
      </trkpt>
      <trkpt lat="51.813396" lon="5.365277">
        <ele>6.676231</ele>
        <time>2022-01-10T02:50:59.291Z</time>
      </trkpt>
      <trkpt lat="51.813257" lon="5.364750">
        <ele>6.577647</ele>
        <time>2022-01-10T02:51:06.856Z</time>
      </trkpt>
      <trkpt lat="51.812972" lon="5.363961">
        <ele>6.420417</ele>
        <time>2022-01-10T02:51:18.270Z</time>
      </trkpt>
      <trkpt lat="51.812867" lon="5.363453">
        <ele>6.310158</ele>
        <time>2022-01-10T02:51:25.136Z</time>
      </trkpt>
      <trkpt lat="51.812814" lon="5.362589">
        <ele>6.108407</ele>
        <time>2022-01-10T02:51:36.777Z</time>
      </trkpt>
      <trkpt lat="51.812738" lon="5.361100">
        <ele>5.761235</ele>
        <time>2022-01-10T02:51:56.052Z</time>
      </trkpt>
      <trkpt lat="51.812636" lon="5.360820">
        <ele>5.683072</ele>
        <time>2022-01-10T02:52:00.153Z</time>
      </trkpt>
      <trkpt lat="51.811990" lon="5.359779">
        <ele>5.290356</ele>
        <time>2022-01-10T02:52:18.699Z</time>
      </trkpt>
      <trkpt lat="51.811567" lon="5.358896">
        <ele>4.992930</ele>
        <time>2022-01-10T02:52:33.268Z</time>
      </trkpt>
      <trkpt lat="51.811211" lon="5.357945">
        <ele>4.884154</ele>
        <time>2022-01-10T02:52:48.713Z</time>
      </trkpt>
      <trkpt lat="51.811004" lon="5.356568">
        <ele>4.810937</ele>
        <time>2022-01-10T02:53:08.982Z</time>
      </trkpt>
      <trkpt lat="51.810540" lon="5.353149">
        <ele>4.670949</ele>
        <time>2022-01-10T02:53:58.547Z</time>
      </trkpt>
      <trkpt lat="51.810448" lon="5.352537">
        <ele>4.635747</ele>
        <time>2022-01-10T02:54:07.421Z</time>
      </trkpt>
      <trkpt lat="51.810280" lon="5.351347">
        <ele>4.566464</ele>
        <time>2022-01-10T02:54:24.636Z</time>
      </trkpt>
      <trkpt lat="51.810346" lon="5.350935">
        <ele>4.542307</ele>
        <time>2022-01-10T02:54:30.647Z</time>
      </trkpt>
      <trkpt lat="51.810765" lon="5.350257">
        <ele>4.506729</ele>
        <time>2022-01-10T02:54:44.220Z</time>
      </trkpt>
      <trkpt lat="51.811355" lon="5.349085">
        <ele>4.516743</ele>
        <time>2022-01-10T02:55:05.688Z</time>
      </trkpt>
      <trkpt lat="51.811924" lon="5.347844">
        <ele>4.559885</ele>
        <time>2022-01-10T02:55:28.250Z</time>
      </trkpt>
      <trkpt lat="51.812265" lon="5.346835">
        <ele>4.652666</ele>
        <time>2022-01-10T02:55:45.019Z</time>
      </trkpt>
      <trkpt lat="51.812468" lon="5.345774">
        <ele>4.742278</ele>
        <time>2022-01-10T02:56:01.360Z</time>
      </trkpt>
      <trkpt lat="51.812620" lon="5.344615">
        <ele>4.940430</ele>
        <time>2022-01-10T02:56:19.130Z</time>
      </trkpt>
      <trkpt lat="51.812796" lon="5.343398">
        <ele>5.172022</ele>
        <time>2022-01-10T02:56:38.069Z</time>
      </trkpt>
      <trkpt lat="51.812934" lon="5.343327">
        <ele>5.215424</ele>
        <time>2022-01-10T02:56:41.531Z</time>
      </trkpt>
      <trkpt lat="51.812939" lon="5.343327">
        <ele>5.216923</ele>
        <time>2022-01-10T02:56:41.659Z</time>
      </trkpt>
      <trkpt lat="51.813595" lon="5.343354">
        <ele>5.381195</ele>
        <time>2022-01-10T02:56:57.590Z</time>
      </trkpt>
      <trkpt lat="51.813797" lon="5.343436">
        <ele>5.426139</ele>
        <time>2022-01-10T02:57:02.778Z</time>
      </trkpt>
      <trkpt lat="51.814905" lon="5.344274">
        <ele>5.680558</ele>
        <time>2022-01-10T02:57:32.240Z</time>
      </trkpt>
      <trkpt lat="51.815860" lon="5.345290">
        <ele>5.351585</ele>
        <time>2022-01-10T02:57:57.698Z</time>
      </trkpt>
      <trkpt lat="51.816490" lon="5.346030">
        <ele>5.128519</ele>
        <time>2022-01-10T02:58:14.463Z</time>
      </trkpt>
      <trkpt lat="51.817320" lon="5.346860">
        <ele>4.854636</ele>
        <time>2022-01-10T02:58:35.350Z</time>
      </trkpt>
      <trkpt lat="51.817580" lon="5.347060">
        <ele>4.773829</ele>
        <time>2022-01-10T02:58:41.744Z</time>
      </trkpt>
      <trkpt lat="51.818600" lon="5.347420">
        <ele>4.838615</ele>
        <time>2022-01-10T02:59:06.901Z</time>
      </trkpt>
      <trkpt lat="51.818810" lon="5.347450">
        <ele>4.895329</ele>
        <time>2022-01-10T02:59:12.256Z</time>
      </trkpt>
      <trkpt lat="51.819340" lon="5.347350">
        <ele>5.038877</ele>
        <time>2022-01-10T02:59:25.135Z</time>
      </trkpt>
      <trkpt lat="51.820140" lon="5.347080">
        <ele>5.116369</ele>
        <time>2022-01-10T02:59:45.115Z</time>
      </trkpt>
      <trkpt lat="51.820680" lon="5.346680">
        <ele>5.071880</ele>
        <time>2022-01-10T02:59:59.104Z</time>
      </trkpt>
      <trkpt lat="51.821570" lon="5.345470">
        <ele>4.836788</ele>
        <time>2022-01-10T03:00:24.339Z</time>
      </trkpt>
      <trkpt lat="51.821690" lon="5.345410">
        <ele>4.777370</ele>
        <time>2022-01-10T03:00:26.877Z</time>
      </trkpt>
      <trkpt lat="51.822690" lon="5.345490">
        <ele>4.303713</ele>
        <time>2022-01-10T03:00:48.060Z</time>
      </trkpt>
      <trkpt lat="51.822980" lon="5.345380">
        <ele>4.162801</ele>
        <time>2022-01-10T03:00:54.705Z</time>
      </trkpt>
      <trkpt lat="51.823150" lon="5.345200">
        <ele>4.230875</ele>
        <time>2022-01-10T03:00:59.238Z</time>
      </trkpt>
      <trkpt lat="51.823340" lon="5.344820">
        <ele>4.334814</ele>
        <time>2022-01-10T03:01:06.354Z</time>
      </trkpt>
      <trkpt lat="51.823540" lon="5.343994">
        <ele>4.523464</ele>
        <time>2022-01-10T03:01:19.906Z</time>
      </trkpt>
      <trkpt lat="51.823948" lon="5.343020">
        <ele>4.773675</ele>
        <time>2022-01-10T03:01:38.878Z</time>
      </trkpt>
      <trkpt lat="51.825242" lon="5.340452">
        <ele>5.611964</ele>
        <time>2022-01-10T03:02:30.840Z</time>
      </trkpt>
      <trkpt lat="51.825430" lon="5.339810">
        <ele>5.488530</ele>
        <time>2022-01-10T03:02:40.392Z</time>
      </trkpt>
      <trkpt lat="51.825584" lon="5.338412">
        <ele>5.241799</ele>
        <time>2022-01-10T03:02:59.085Z</time>
      </trkpt>
      <trkpt lat="51.825750" lon="5.336600">
        <ele>4.823218</ele>
        <time>2022-01-10T03:03:23.292Z</time>
      </trkpt>
      <trkpt lat="51.825751" lon="5.334865">
        <ele>4.461998</ele>
        <time>2022-01-10T03:03:46.991Z</time>
      </trkpt>
      <trkpt lat="51.825752" lon="5.334129">
        <ele>4.468090</ele>
        <time>2022-01-10T03:03:57.266Z</time>
      </trkpt>
      <trkpt lat="51.825700" lon="5.332666">
        <ele>4.480221</ele>
        <time>2022-01-10T03:04:18.664Z</time>
      </trkpt>
      <trkpt lat="51.825733" lon="5.332330">
        <ele>4.483037</ele>
        <time>2022-01-10T03:04:23.711Z</time>
      </trkpt>
      <trkpt lat="51.825969" lon="5.331641">
        <ele>4.581400</ele>
        <time>2022-01-10T03:04:35.474Z</time>
      </trkpt>
      <trkpt lat="51.826089" lon="5.330922">
        <ele>4.690130</ele>
        <time>2022-01-10T03:04:46.635Z</time>
      </trkpt>
      <trkpt lat="51.826202" lon="5.329599">
        <ele>4.885115</ele>
        <time>2022-01-10T03:05:06.804Z</time>
      </trkpt>
      <trkpt lat="51.826252" lon="5.329394">
        <ele>4.909232</ele>
        <time>2022-01-10T03:05:10.047Z</time>
      </trkpt>
      <trkpt lat="51.826639" lon="5.328513">
        <ele>4.915379</ele>
        <time>2022-01-10T03:05:25.849Z</time>
      </trkpt>
      <trkpt lat="51.826871" lon="5.327907">
        <ele>4.919432</ele>
        <time>2022-01-10T03:05:35.903Z</time>
      </trkpt>
      <trkpt lat="51.826988" lon="5.327288">
        <ele>4.923113</ele>
        <time>2022-01-10T03:05:44.906Z</time>
      </trkpt>
      <trkpt lat="51.827081" lon="5.326462">
        <ele>4.975334</ele>
        <time>2022-01-10T03:05:56.702Z</time>
      </trkpt>
      <trkpt lat="51.827167" lon="5.326238">
        <ele>5.006081</ele>
        <time>2022-01-10T03:06:00.403Z</time>
      </trkpt>
      <trkpt lat="51.827459" lon="5.325797">
        <ele>5.081438</ele>
        <time>2022-01-10T03:06:10.003Z</time>
      </trkpt>
      <trkpt lat="51.827960" lon="5.325132">
        <ele>5.203691</ele>
        <time>2022-01-10T03:06:26.184Z</time>
      </trkpt>
      <trkpt lat="51.828434" lon="5.324423">
        <ele>5.319989</ele>
        <time>2022-01-10T03:06:41.613Z</time>
      </trkpt>
      <trkpt lat="51.828657" lon="5.324049">
        <ele>5.375107</ele>
        <time>2022-01-10T03:06:49.325Z</time>
      </trkpt>
      <trkpt lat="51.828799" lon="5.323711">
        <ele>5.418454</ele>
        <time>2022-01-10T03:06:55.391Z</time>
      </trkpt>
      <trkpt lat="51.829065" lon="5.322569">
        <ele>5.547892</ele>
        <time>2022-01-10T03:07:13.511Z</time>
      </trkpt>
      <trkpt lat="51.829181" lon="5.321423">
        <ele>5.556239</ele>
        <time>2022-01-10T03:07:29.943Z</time>
      </trkpt>
      <trkpt lat="51.828984" lon="5.319769">
        <ele>5.524716</ele>
        <time>2022-01-10T03:07:53.426Z</time>
      </trkpt>
      <trkpt lat="51.828852" lon="5.318952">
        <ele>5.488889</ele>
        <time>2022-01-10T03:08:06.068Z</time>
      </trkpt>
      <trkpt lat="51.828711" lon="5.318554">
        <ele>5.463251</ele>
        <time>2022-01-10T03:08:12.892Z</time>
      </trkpt>
      <trkpt lat="51.828283" lon="5.317877">
        <ele>5.409128</ele>
        <time>2022-01-10T03:08:26.664Z</time>
      </trkpt>
      <trkpt lat="51.828141" lon="5.317496">
        <ele>5.384263</ele>
        <time>2022-01-10T03:08:32.867Z</time>
      </trkpt>
      <trkpt lat="51.828105" lon="5.317171">
        <ele>5.365811</ele>
        <time>2022-01-10T03:08:37.213Z</time>
      </trkpt>
      <trkpt lat="51.828133" lon="5.316919">
        <ele>5.327948</ele>
        <time>2022-01-10T03:08:40.710Z</time>
      </trkpt>
      <trkpt lat="51.828294" lon="5.315882">
        <ele>4.977838</ele>
        <time>2022-01-10T03:08:54.786Z</time>
      </trkpt>
      <trkpt lat="51.828319" lon="5.315129">
        <ele>4.730918</ele>
        <time>2022-01-10T03:09:04.563Z</time>
      </trkpt>
      <trkpt lat="51.828330" lon="5.314806">
        <ele>4.624994</ele>
        <time>2022-01-10T03:09:08.540Z</time>
      </trkpt>
      <trkpt lat="51.828368" lon="5.311748">
        <ele>4.300690</ele>
        <time>2022-01-10T03:09:50.132Z</time>
      </trkpt>
      <trkpt lat="51.828470" lon="5.310950">
        <ele>4.423460</ele>
        <time>2022-01-10T03:10:03.483Z</time>
      </trkpt>
      <trkpt lat="51.828317" lon="5.310266">
        <ele>4.793185</ele>
        <time>2022-01-10T03:10:15.571Z</time>
      </trkpt>
      <trkpt lat="51.828233" lon="5.308569">
        <ele>5.658478</ele>
        <time>2022-01-10T03:10:44.161Z</time>
      </trkpt>
      <trkpt lat="51.828104" lon="5.307231">
        <ele>5.832711</ele>
        <time>2022-01-10T03:11:05.120Z</time>
      </trkpt>
      <trkpt lat="51.827954" lon="5.306341">
        <ele>5.892811</ele>
        <time>2022-01-10T03:11:18.372Z</time>
      </trkpt>
      <trkpt lat="51.827680" lon="5.305290">
        <ele>5.845557</ele>
        <time>2022-01-10T03:11:33.710Z</time>
      </trkpt>
      <trkpt lat="51.827490" lon="5.304790">
        <ele>5.655792</ele>
        <time>2022-01-10T03:11:41.569Z</time>
      </trkpt>
      <trkpt lat="51.827048" lon="5.303892">
        <ele>5.284637</ele>
        <time>2022-01-10T03:11:56.506Z</time>
      </trkpt>
      <trkpt lat="51.826617" lon="5.303042">
        <ele>4.963763</ele>
        <time>2022-01-10T03:12:11.032Z</time>
      </trkpt>
      <trkpt lat="51.826380" lon="5.302450">
        <ele>4.838633</ele>
        <time>2022-01-10T03:12:20.424Z</time>
      </trkpt>
      <trkpt lat="51.826330" lon="5.302147">
        <ele>4.782997</ele>
        <time>2022-01-10T03:12:24.671Z</time>
      </trkpt>
      <trkpt lat="51.826193" lon="5.299854">
        <ele>4.575587</ele>
        <time>2022-01-10T03:12:56.635Z</time>
      </trkpt>
      <trkpt lat="51.825826" lon="5.295612">
        <ele>5.561680</ele>
        <time>2022-01-10T03:14:01.777Z</time>
      </trkpt>
      <trkpt lat="51.825909" lon="5.295464">
        <ele>5.629520</ele>
        <time>2022-01-10T03:14:05.299Z</time>
      </trkpt>
      <trkpt lat="51.826403" lon="5.295226">
        <ele>5.909396</ele>
        <time>2022-01-10T03:14:19.046Z</time>
      </trkpt>
      <trkpt lat="51.826940" lon="5.294890">
        <ele>6.205100</ele>
        <time>2022-01-10T03:14:34.462Z</time>
      </trkpt>
      <trkpt lat="51.827216" lon="5.294624">
        <ele>6.370093</ele>
        <time>2022-01-10T03:14:42.781Z</time>
      </trkpt>
      <trkpt lat="51.827405" lon="5.294347">
        <ele>6.501063</ele>
        <time>2022-01-10T03:14:49.193Z</time>
      </trkpt>
      <trkpt lat="51.827805" lon="5.293761">
        <ele>6.778196</ele>
        <time>2022-01-10T03:15:01.759Z</time>
      </trkpt>
      <trkpt lat="51.828026" lon="5.293545">
        <ele>6.828329</ele>
        <time>2022-01-10T03:15:07.550Z</time>
      </trkpt>
      <trkpt lat="51.828900" lon="5.292810">
        <ele>6.997985</ele>
        <time>2022-01-10T03:15:30.374Z</time>
      </trkpt>
      <trkpt lat="51.829398" lon="5.292435">
        <ele>7.092594</ele>
        <time>2022-01-10T03:15:43.866Z</time>
      </trkpt>
      <trkpt lat="51.830180" lon="5.291830">
        <ele>7.486419</ele>
        <time>2022-01-10T03:16:06.527Z</time>
      </trkpt>
      <trkpt lat="51.831070" lon="5.290700">
        <ele>7.866975</ele>
        <time>2022-01-10T03:16:34.588Z</time>
      </trkpt>
      <trkpt lat="51.831564" lon="5.290347">
        <ele>7.682202</ele>
        <time>2022-01-10T03:16:46.789Z</time>
      </trkpt>
      <trkpt lat="51.832030" lon="5.289930">
        <ele>7.500000</ele>
        <time>2022-01-10T03:16:58.186Z</time>
      </trkpt>
      <trkpt lat="51.832160" lon="5.289550">
        <ele>7.408161</ele>
        <time>2022-01-10T03:17:04.007Z</time>
      </trkpt>
      <trkpt lat="51.832150" lon="5.289250">
        <ele>7.344635</ele>
        <time>2022-01-10T03:17:07.974Z</time>
      </trkpt>
      <trkpt lat="51.831960" lon="5.288330">
        <ele>6.892847</ele>
        <time>2022-01-10T03:17:20.041Z</time>
      </trkpt>
      <trkpt lat="51.831800" lon="5.286840">
        <ele>6.115677</ele>
        <time>2022-01-10T03:17:39.090Z</time>
      </trkpt>
      <trkpt lat="51.831460" lon="5.285281">
        <ele>5.361479</ele>
        <time>2022-01-10T03:18:00.698Z</time>
      </trkpt>
      <trkpt lat="51.831040" lon="5.284198">
        <ele>4.818332</ele>
        <time>2022-01-10T03:18:17.090Z</time>
      </trkpt>
      <trkpt lat="51.830699" lon="5.283595">
        <ele>4.544821</ele>
        <time>2022-01-10T03:18:27.434Z</time>
      </trkpt>
      <trkpt lat="51.830153" lon="5.282837">
        <ele>4.385400</ele>
        <time>2022-01-10T03:18:43.099Z</time>
      </trkpt>
      <trkpt lat="51.829770" lon="5.282050">
        <ele>4.248215</ele>
        <time>2022-01-10T03:18:57.543Z</time>
      </trkpt>
      <trkpt lat="51.829240" lon="5.281140">
        <ele>4.351254</ele>
        <time>2022-01-10T03:19:15.507Z</time>
      </trkpt>
      <trkpt lat="51.829210" lon="5.280750">
        <ele>4.438921</ele>
        <time>2022-01-10T03:19:20.723Z</time>
      </trkpt>
      <trkpt lat="51.829254" lon="5.280355">
        <ele>4.528451</ele>
        <time>2022-01-10T03:19:26.698Z</time>
      </trkpt>
      <trkpt lat="51.829240" lon="5.279904">
        <ele>4.629180</ele>
        <time>2022-01-10T03:19:33.364Z</time>
      </trkpt>
      <trkpt lat="51.829133" lon="5.279402">
        <ele>4.747631</ele>
        <time>2022-01-10T03:19:41.549Z</time>
      </trkpt>
      <trkpt lat="51.829408" lon="5.278551">
        <ele>5.008211</ele>
        <time>2022-01-10T03:19:56.669Z</time>
      </trkpt>
      <trkpt lat="51.829545" lon="5.277974">
        <ele>5.194771</ele>
        <time>2022-01-10T03:20:06.470Z</time>
      </trkpt>
      <trkpt lat="51.829894" lon="5.275525">
        <ele>5.885548</ele>
        <time>2022-01-10T03:20:45.044Z</time>
      </trkpt>
      <trkpt lat="51.830132" lon="5.274890">
        <ele>6.047536</ele>
        <time>2022-01-10T03:20:56.602Z</time>
      </trkpt>
      <trkpt lat="51.830689" lon="5.274082">
        <ele>6.311561</ele>
        <time>2022-01-10T03:21:14.910Z</time>
      </trkpt>
      <trkpt lat="51.830923" lon="5.273487">
        <ele>6.321546</ele>
        <time>2022-01-10T03:21:25.880Z</time>
      </trkpt>
      <trkpt lat="51.831076" lon="5.272705">
        <ele>6.288880</ele>
        <time>2022-01-10T03:21:38.489Z</time>
      </trkpt>
      <trkpt lat="51.831277" lon="5.270720">
        <ele>6.217997</ele>
        <time>2022-01-10T03:22:07.997Z</time>
      </trkpt>
      <trkpt lat="51.831219" lon="5.269290">
        <ele>6.188523</ele>
        <time>2022-01-10T03:22:29.918Z</time>
      </trkpt>
      <trkpt lat="51.830926" lon="5.266282">
        <ele>6.077204</ele>
        <time>2022-01-10T03:23:16.873Z</time>
      </trkpt>
      <trkpt lat="51.830893" lon="5.266088">
        <ele>6.068279</ele>
        <time>2022-01-10T03:23:19.463Z</time>
      </trkpt>
      <trkpt lat="51.830803" lon="5.265567">
        <ele>6.044283</ele>
        <time>2022-01-10T03:23:26.465Z</time>
      </trkpt>
      <trkpt lat="51.830746" lon="5.264745">
        <ele>5.817744</ele>
        <time>2022-01-10T03:23:37.020Z</time>
      </trkpt>
      <trkpt lat="51.830606" lon="5.263742">
        <ele>5.495399</ele>
        <time>2022-01-10T03:23:49.940Z</time>
      </trkpt>
      <trkpt lat="51.830610" lon="5.263131">
        <ele>5.303849</ele>
        <time>2022-01-10T03:23:57.537Z</time>
      </trkpt>
      <trkpt lat="51.830698" lon="5.262490">
        <ele>5.125550</ele>
        <time>2022-01-10T03:24:05.823Z</time>
      </trkpt>
      <trkpt lat="51.830775" lon="5.262341">
        <ele>5.123540</ele>
        <time>2022-01-10T03:24:08.325Z</time>
      </trkpt>
      <trkpt lat="51.830911" lon="5.262252">
        <ele>5.121083</ele>
        <time>2022-01-10T03:24:11.364Z</time>
      </trkpt>
      <trkpt lat="51.831586" lon="5.262077">
        <ele>5.109634</ele>
        <time>2022-01-10T03:24:26.876Z</time>
      </trkpt>
      <trkpt lat="51.831736" lon="5.262011">
        <ele>5.107031</ele>
        <time>2022-01-10T03:24:30.644Z</time>
      </trkpt>
      <trkpt lat="51.831804" lon="5.261882">
        <ele>5.105276</ele>
        <time>2022-01-10T03:24:33.069Z</time>
      </trkpt>
      <trkpt lat="51.831855" lon="5.260908">
        <ele>5.106974</ele>
        <time>2022-01-10T03:24:46.642Z</time>
      </trkpt>
      <trkpt lat="51.832255" lon="5.260723">
        <ele>5.168142</ele>
        <time>2022-01-10T03:24:55.835Z</time>
      </trkpt>
      <trkpt lat="51.832519" lon="5.260620">
        <ele>5.208071</ele>
        <time>2022-01-10T03:25:02.036Z</time>
      </trkpt>
      <trkpt lat="51.832550" lon="5.260611">
        <ele>5.212702</ele>
        <time>2022-01-10T03:25:02.778Z</time>
      </trkpt>
      <trkpt lat="51.832588" lon="5.260604">
        <ele>5.218325</ele>
        <time>2022-01-10T03:25:03.702Z</time>
      </trkpt>
      <trkpt lat="51.832525" lon="5.259382">
        <ele>5.329743</ele>
        <time>2022-01-10T03:25:26.505Z</time>
      </trkpt>
      <trkpt lat="51.832338" lon="5.258565">
        <ele>5.442986</ele>
        <time>2022-01-10T03:25:42.693Z</time>
      </trkpt>
      <trkpt lat="51.832229" lon="5.258197">
        <ele>5.506350</ele>
        <time>2022-01-10T03:25:50.183Z</time>
      </trkpt>
      <trkpt lat="51.831847" lon="5.256930">
        <ele>5.725244</ele>
        <time>2022-01-10T03:26:16.770Z</time>
      </trkpt>
      <trkpt lat="51.831794" lon="5.256952">
        <ele>5.738992</ele>
        <time>2022-01-10T03:26:18.201Z</time>
      </trkpt>
      <trkpt lat="51.831748" lon="5.256966">
        <ele>5.750753</ele>
        <time>2022-01-10T03:26:19.315Z</time>
      </trkpt>
      <trkpt lat="51.831608" lon="5.256990">
        <ele>5.786126</ele>
        <time>2022-01-10T03:26:22.636Z</time>
      </trkpt>
      <trkpt lat="51.831211" lon="5.256742">
        <ele>5.888221</ele>
        <time>2022-01-10T03:26:32.886Z</time>
      </trkpt>
      <trkpt lat="51.830785" lon="5.256395">
        <ele>6.000846</ele>
        <time>2022-01-10T03:26:44.446Z</time>
      </trkpt>
      <trkpt lat="51.831027" lon="5.255709">
        <ele>6.116120</ele>
        <time>2022-01-10T03:26:56.303Z</time>
      </trkpt>
      <trkpt lat="51.831048" lon="5.255663">
        <ele>6.124466</ele>
        <time>2022-01-10T03:26:57.090Z</time>
      </trkpt>
      <trkpt lat="51.831069" lon="5.255612">
        <ele>6.133410</ele>
        <time>2022-01-10T03:26:57.929Z</time>
      </trkpt>
      <trkpt lat="51.830822" lon="5.255335">
        <ele>6.204376</ele>
        <time>2022-01-10T03:27:07.038Z</time>
      </trkpt>
      <trkpt lat="51.830488" lon="5.254803">
        <ele>6.417637</ele>
        <time>2022-01-10T03:27:20.857Z</time>
      </trkpt>
      <trkpt lat="51.830441" lon="5.254752">
        <ele>6.448678</ele>
        <time>2022-01-10T03:27:22.563Z</time>
      </trkpt>
      <trkpt lat="51.830285" lon="5.254680">
        <ele>6.537662</ele>
        <time>2022-01-10T03:27:27.607Z</time>
      </trkpt>
      <trkpt lat="51.829679" lon="5.254034">
        <ele>6.935723</ele>
        <time>2022-01-10T03:27:50.406Z</time>
      </trkpt>
      <trkpt lat="51.829450" lon="5.253883">
        <ele>7.071366</ele>
        <time>2022-01-10T03:27:58.392Z</time>
      </trkpt>
      <trkpt lat="51.829434" lon="5.253928">
        <ele>7.088965</ele>
        <time>2022-01-10T03:27:59.346Z</time>
      </trkpt>
      <trkpt lat="51.829408" lon="5.254018">
        <ele>7.122644</ele>
        <time>2022-01-10T03:28:01.169Z</time>
      </trkpt>
      <trkpt lat="51.829396" lon="5.254065">
        <ele>7.139883</ele>
        <time>2022-01-10T03:28:02.059Z</time>
      </trkpt>
      <trkpt lat="51.827499" lon="5.256017">
        <ele>8.636468</ele>
        <time>2022-01-10T03:29:02.090Z</time>
      </trkpt>
      <trkpt lat="51.827340" lon="5.255832">
        <ele>8.563588</ele>
        <time>2022-01-10T03:29:06.732Z</time>
      </trkpt>
      <trkpt lat="51.827000" lon="5.255545">
        <ele>8.420879</ele>
        <time>2022-01-10T03:29:15.401Z</time>
      </trkpt>
      <trkpt lat="51.825959" lon="5.254264">
        <ele>7.597056</ele>
        <time>2022-01-10T03:29:41.569Z</time>
      </trkpt>
      <trkpt lat="51.825464" lon="5.253427">
        <ele>6.702755</ele>
        <time>2022-01-10T03:29:55.415Z</time>
      </trkpt>
      <trkpt lat="51.824897" lon="5.252363">
        <ele>5.734664</ele>
        <time>2022-01-10T03:30:12.591Z</time>
      </trkpt>
      <trkpt lat="51.824763" lon="5.252158">
        <ele>5.630589</ele>
        <time>2022-01-10T03:30:16.327Z</time>
      </trkpt>
      <trkpt lat="51.824360" lon="5.251755">
        <ele>5.363223</ele>
        <time>2022-01-10T03:30:26.085Z</time>
      </trkpt>
      <trkpt lat="51.823839" lon="5.250822">
        <ele>4.924634</ele>
        <time>2022-01-10T03:30:43.121Z</time>
      </trkpt>
      <trkpt lat="51.823379" lon="5.250197">
        <ele>4.866833</ele>
        <time>2022-01-10T03:30:57.283Z</time>
      </trkpt>
      <trkpt lat="51.823327" lon="5.250127">
        <ele>4.875339</ele>
        <time>2022-01-10T03:30:58.875Z</time>
      </trkpt>
      <trkpt lat="51.823210" lon="5.249863">
        <ele>4.900585</ele>
        <time>2022-01-10T03:31:03.670Z</time>
      </trkpt>
      <trkpt lat="51.823065" lon="5.249185">
        <ele>4.956341</ele>
        <time>2022-01-10T03:31:14.330Z</time>
      </trkpt>
      <trkpt lat="51.822287" lon="5.245436">
        <ele>5.396306</ele>
        <time>2022-01-10T03:32:12.870Z</time>
      </trkpt>
      <trkpt lat="51.821628" lon="5.242174">
        <ele>5.734125</ele>
        <time>2022-01-10T03:33:01.704Z</time>
      </trkpt>
      <trkpt lat="51.821202" lon="5.240512">
        <ele>5.765299</ele>
        <time>2022-01-10T03:33:26.215Z</time>
      </trkpt>
      <trkpt lat="51.821167" lon="5.240358">
        <ele>5.768142</ele>
        <time>2022-01-10T03:33:28.383Z</time>
      </trkpt>
      <trkpt lat="51.821299" lon="5.240286">
        <ele>5.772047</ele>
        <time>2022-01-10T03:33:31.665Z</time>
      </trkpt>
      <trkpt lat="51.821373" lon="5.240247">
        <ele>5.774228</ele>
        <time>2022-01-10T03:33:33.382Z</time>
      </trkpt>
      <trkpt lat="51.821475" lon="5.240189">
        <ele>5.767762</ele>
        <time>2022-01-10T03:33:35.782Z</time>
      </trkpt>
      <trkpt lat="51.821603" lon="5.240157">
        <ele>5.729233</ele>
        <time>2022-01-10T03:33:38.808Z</time>
      </trkpt>
      <trkpt lat="51.822235" lon="5.240150">
        <ele>5.541221</ele>
        <time>2022-01-10T03:33:52.379Z</time>
      </trkpt>
      <trkpt lat="51.822260" lon="5.239877">
        <ele>5.490476</ele>
        <time>2022-01-10T03:33:56.066Z</time>
      </trkpt>
      <trkpt lat="51.822142" lon="5.238848">
        <ele>5.298041</ele>
        <time>2022-01-10T03:34:09.244Z</time>
      </trkpt>
      <trkpt lat="51.822519" lon="5.238801">
        <ele>5.167067</ele>
        <time>2022-01-10T03:34:17.020Z</time>
      </trkpt>
      <trkpt lat="51.822595" lon="5.238782">
        <ele>5.136612</ele>
        <time>2022-01-10T03:34:18.560Z</time>
      </trkpt>
      <trkpt lat="51.822369" lon="5.236766">
        <ele>4.635081</ele>
        <time>2022-01-10T03:34:46.303Z</time>
      </trkpt>
      <trkpt lat="51.822349" lon="5.236480">
        <ele>4.564626</ele>
        <time>2022-01-10T03:34:49.983Z</time>
      </trkpt>
      <trkpt lat="51.822189" lon="5.234896">
        <ele>4.336265</ele>
        <time>2022-01-10T03:35:11.206Z</time>
      </trkpt>
      <trkpt lat="51.821995" lon="5.234573">
        <ele>4.276778</ele>
        <time>2022-01-10T03:35:17.253Z</time>
      </trkpt>
      <trkpt lat="51.821907" lon="5.234266">
        <ele>4.232080</ele>
        <time>2022-01-10T03:35:21.737Z</time>
      </trkpt>
      <trkpt lat="51.821791" lon="5.232270">
        <ele>3.991786</ele>
        <time>2022-01-10T03:35:48.568Z</time>
      </trkpt>
      <trkpt lat="51.821845" lon="5.231310">
        <ele>3.882047</ele>
        <time>2022-01-10T03:36:01.284Z</time>
      </trkpt>
      <trkpt lat="51.821732" lon="5.229918">
        <ele>3.749537</ele>
        <time>2022-01-10T03:36:19.922Z</time>
      </trkpt>
      <trkpt lat="51.821838" lon="5.228781">
        <ele>3.657830</ele>
        <time>2022-01-10T03:36:35.344Z</time>
      </trkpt>
      <trkpt lat="51.822739" lon="5.228857">
        <ele>3.535376</ele>
        <time>2022-01-10T03:36:55.215Z</time>
      </trkpt>
      <trkpt lat="51.823159" lon="5.228763">
        <ele>3.472398</ele>
        <time>2022-01-10T03:37:04.521Z</time>
      </trkpt>
      <trkpt lat="51.824767" lon="5.227954">
        <ele>3.285179</ele>
        <time>2022-01-10T03:37:40.854Z</time>
      </trkpt>
      <trkpt lat="51.825691" lon="5.227489">
        <ele>3.239785</ele>
        <time>2022-01-10T03:38:02.182Z</time>
      </trkpt>
      <trkpt lat="51.826743" lon="5.226728">
        <ele>3.338986</ele>
        <time>2022-01-10T03:38:28.293Z</time>
      </trkpt>
      <trkpt lat="51.827005" lon="5.226432">
        <ele>3.376075</ele>
        <time>2022-01-10T03:38:35.754Z</time>
      </trkpt>
      <trkpt lat="51.827285" lon="5.225912">
        <ele>3.425547</ele>
        <time>2022-01-10T03:38:45.583Z</time>
      </trkpt>
      <trkpt lat="51.827430" lon="5.225485">
        <ele>3.389419</ele>
        <time>2022-01-10T03:38:52.354Z</time>
      </trkpt>
      <trkpt lat="51.827703" lon="5.224328">
        <ele>3.189866</ele>
        <time>2022-01-10T03:39:08.844Z</time>
      </trkpt>
      <trkpt lat="51.827859" lon="5.224106">
        <ele>3.135702</ele>
        <time>2022-01-10T03:39:13.087Z</time>
      </trkpt>
      <trkpt lat="51.828489" lon="5.223514">
        <ele>2.936555</ele>
        <time>2022-01-10T03:39:28.170Z</time>
      </trkpt>
      <trkpt lat="51.829112" lon="5.223037">
        <ele>2.687657</ele>
        <time>2022-01-10T03:39:42.375Z</time>
      </trkpt>
      <trkpt lat="51.828350" lon="5.221830">
        <ele>2.319133</ele>
        <time>2022-01-10T03:40:04.765Z</time>
      </trkpt>
      <trkpt lat="51.827765" lon="5.221064">
        <ele>2.303746</ele>
        <time>2022-01-10T03:40:21.686Z</time>
      </trkpt>
      <trkpt lat="51.827021" lon="5.220520">
        <ele>2.287052</ele>
        <time>2022-01-10T03:40:39.972Z</time>
      </trkpt>
      <trkpt lat="51.826690" lon="5.220437">
        <ele>2.272098</ele>
        <time>2022-01-10T03:40:47.351Z</time>
      </trkpt>
      <trkpt lat="51.824841" lon="5.220538">
        <ele>2.249924</ele>
        <time>2022-01-10T03:41:27.668Z</time>
      </trkpt>
      <trkpt lat="51.824763" lon="5.220584">
        <ele>2.289581</ele>
        <time>2022-01-10T03:41:29.557Z</time>
      </trkpt>
      <trkpt lat="51.824613" lon="5.220674">
        <ele>2.366001</ele>
        <time>2022-01-10T03:41:33.245Z</time>
      </trkpt>
      <trkpt lat="51.824310" lon="5.221061">
        <ele>2.550401</ele>
        <time>2022-01-10T03:41:42.340Z</time>
      </trkpt>
      <trkpt lat="51.824161" lon="5.221056">
        <ele>2.621590</ele>
        <time>2022-01-10T03:41:45.934Z</time>
      </trkpt>
      <trkpt lat="51.824009" lon="5.220953">
        <ele>2.700308</ele>
        <time>2022-01-10T03:41:49.838Z</time>
      </trkpt>
      <trkpt lat="51.823819" lon="5.220780">
        <ele>2.804452</ele>
        <time>2022-01-10T03:41:55.429Z</time>
      </trkpt>
      <trkpt lat="51.823498" lon="5.220611">
        <ele>2.965701</ele>
        <time>2022-01-10T03:42:04.060Z</time>
      </trkpt>
      <trkpt lat="51.822470" lon="5.220600">
        <ele>4.067139</ele>
        <time>2022-01-10T03:42:32.083Z</time>
      </trkpt>
      <trkpt lat="51.822195" lon="5.220515">
        <ele>4.384008</ele>
        <time>2022-01-10T03:42:40.036Z</time>
      </trkpt>
      <trkpt lat="51.821877" lon="5.220248">
        <ele>4.789495</ele>
        <time>2022-01-10T03:42:49.745Z</time>
      </trkpt>
      <trkpt lat="51.821305" lon="5.219462">
        <ele>5.181809</ele>
        <time>2022-01-10T03:43:09.167Z</time>
      </trkpt>
      <trkpt lat="51.820460" lon="5.217764">
        <ele>5.461394</ele>
        <time>2022-01-10T03:43:39.449Z</time>
      </trkpt>
      <trkpt lat="51.820030" lon="5.217184">
        <ele>5.074583</ele>
        <time>2022-01-10T03:43:50.483Z</time>
      </trkpt>
      <trkpt lat="51.819723" lon="5.216628">
        <ele>4.756185</ele>
        <time>2022-01-10T03:43:59.494Z</time>
      </trkpt>
      <trkpt lat="51.819364" lon="5.216187">
        <ele>4.444741</ele>
        <time>2022-01-10T03:44:08.290Z</time>
      </trkpt>
      <trkpt lat="51.819152" lon="5.215864">
        <ele>4.257211</ele>
        <time>2022-01-10T03:44:14.122Z</time>
      </trkpt>
      <trkpt lat="51.818860" lon="5.215260">
        <ele>4.109486</ele>
        <time>2022-01-10T03:44:23.697Z</time>
      </trkpt>
      <trkpt lat="51.818770" lon="5.214887">
        <ele>4.032345</ele>
        <time>2022-01-10T03:44:28.781Z</time>
      </trkpt>
      <trkpt lat="51.818620" lon="5.214160">
        <ele>3.884687</ele>
        <time>2022-01-10T03:44:38.692Z</time>
      </trkpt>
      <trkpt lat="51.818515" lon="5.213980">
        <ele>3.837006</ele>
        <time>2022-01-10T03:44:42.202Z</time>
      </trkpt>
      <trkpt lat="51.818096" lon="5.213629">
        <ele>3.720260</ele>
        <time>2022-01-10T03:44:52.824Z</time>
      </trkpt>
      <trkpt lat="51.817982" lon="5.213559">
        <ele>3.746508</ele>
        <time>2022-01-10T03:44:55.560Z</time>
      </trkpt>
      <trkpt lat="51.817839" lon="5.213568">
        <ele>3.777313</ele>
        <time>2022-01-10T03:44:58.983Z</time>
      </trkpt>
      <trkpt lat="51.817820" lon="5.213447">
        <ele>3.793925</ele>
        <time>2022-01-10T03:45:00.684Z</time>
      </trkpt>
      <trkpt lat="51.817716" lon="5.213343">
        <ele>3.820243</ele>
        <time>2022-01-10T03:45:03.477Z</time>
      </trkpt>
      <trkpt lat="51.817624" lon="5.213215">
        <ele>3.846364</ele>
        <time>2022-01-10T03:45:06.326Z</time>
      </trkpt>
      <trkpt lat="51.817496" lon="5.212987">
        <ele>3.887347</ele>
        <time>2022-01-10T03:45:10.710Z</time>
      </trkpt>
      <trkpt lat="51.817487" lon="5.212880">
        <ele>3.901716</ele>
        <time>2022-01-10T03:45:12.210Z</time>
      </trkpt>
      <trkpt lat="51.817490" lon="5.212780">
        <ele>3.915038</ele>
        <time>2022-01-10T03:45:13.686Z</time>
      </trkpt>
      <trkpt lat="51.817396" lon="5.212800">
        <ele>3.935447</ele>
        <time>2022-01-10T03:45:16.001Z</time>
      </trkpt>
      <trkpt lat="51.817294" lon="5.212822">
        <ele>3.957597</ele>
        <time>2022-01-10T03:45:18.436Z</time>
      </trkpt>
      <trkpt lat="51.816889" lon="5.212902">
        <ele>4.045424</ele>
        <time>2022-01-10T03:45:28.205Z</time>
      </trkpt>
      <trkpt lat="51.816502" lon="5.212988">
        <ele>4.184588</ele>
        <time>2022-01-10T03:45:37.602Z</time>
      </trkpt>
      <trkpt lat="51.814889" lon="5.213228">
        <ele>5.090501</ele>
        <time>2022-01-10T03:46:18.676Z</time>
      </trkpt>
      <trkpt lat="51.813830" lon="5.213440">
        <ele>5.916913</ele>
        <time>2022-01-10T03:46:48.800Z</time>
      </trkpt>
      <trkpt lat="51.813806" lon="5.213467">
        <ele>5.939666</ele>
        <time>2022-01-10T03:46:49.593Z</time>
      </trkpt>
      <trkpt lat="51.813760" lon="5.213519">
        <ele>5.983344</ele>
        <time>2022-01-10T03:46:51.009Z</time>
      </trkpt>
      <trkpt lat="51.813474" lon="5.213814">
        <ele>6.247346</ele>
        <time>2022-01-10T03:46:59.632Z</time>
      </trkpt>
      <trkpt lat="51.813282" lon="5.214223">
        <ele>6.494449</ele>
        <time>2022-01-10T03:47:07.230Z</time>
      </trkpt>
      <trkpt lat="51.813102" lon="5.215065">
        <ele>6.310081</ele>
        <time>2022-01-10T03:47:20.092Z</time>
      </trkpt>
      <trkpt lat="51.812458" lon="5.214918">
        <ele>6.081365</ele>
        <time>2022-01-10T03:47:34.032Z</time>
      </trkpt>
      <trkpt lat="51.812289" lon="5.214860">
        <ele>6.020611</ele>
        <time>2022-01-10T03:47:37.423Z</time>
      </trkpt>
      <trkpt lat="51.812213" lon="5.214653">
        <ele>5.968269</ele>
        <time>2022-01-10T03:47:40.356Z</time>
      </trkpt>
      <trkpt lat="51.811975" lon="5.213236">
        <ele>5.650912</ele>
        <time>2022-01-10T03:47:57.561Z</time>
      </trkpt>
      <trkpt lat="51.811875" lon="5.211610">
        <ele>5.298704</ele>
        <time>2022-01-10T03:48:19.700Z</time>
      </trkpt>
      <trkpt lat="51.811814" lon="5.210920">
        <ele>5.313976</ele>
        <time>2022-01-10T03:48:30.056Z</time>
      </trkpt>
      <trkpt lat="51.811889" lon="5.210674">
        <ele>5.360293</ele>
        <time>2022-01-10T03:48:34.082Z</time>
      </trkpt>
      <trkpt lat="51.811992" lon="5.210580">
        <ele>5.392594</ele>
        <time>2022-01-10T03:48:36.917Z</time>
      </trkpt>
      <trkpt lat="51.813015" lon="5.210248">
        <ele>5.677574</ele>
        <time>2022-01-10T03:49:01.572Z</time>
      </trkpt>
      <trkpt lat="51.813512" lon="5.210027">
        <ele>5.604045</ele>
        <time>2022-01-10T03:49:13.662Z</time>
      </trkpt>
      <trkpt lat="51.813722" lon="5.209924">
        <ele>5.514313</ele>
        <time>2022-01-10T03:49:18.659Z</time>
      </trkpt>
      <trkpt lat="51.814668" lon="5.209395">
        <ele>5.105019</ele>
        <time>2022-01-10T03:49:38.804Z</time>
      </trkpt>
      <trkpt lat="51.814949" lon="5.209123">
        <ele>4.948849</ele>
        <time>2022-01-10T03:49:45.134Z</time>
      </trkpt>
      <trkpt lat="51.815232" lon="5.208671">
        <ele>4.646609</ele>
        <time>2022-01-10T03:49:52.874Z</time>
      </trkpt>
      <trkpt lat="51.815728" lon="5.207722">
        <ele>4.062773</ele>
        <time>2022-01-10T03:50:08.057Z</time>
      </trkpt>
      <trkpt lat="51.816200" lon="5.206578">
        <ele>3.547411</ele>
        <time>2022-01-10T03:50:25.060Z</time>
      </trkpt>
      <trkpt lat="51.816559" lon="5.206007">
        <ele>3.399168</ele>
        <time>2022-01-10T03:50:35.519Z</time>
      </trkpt>
      <trkpt lat="51.816602" lon="5.205938">
        <ele>3.381334</ele>
        <time>2022-01-10T03:50:36.784Z</time>
      </trkpt>
      <trkpt lat="51.817061" lon="5.205423">
        <ele>3.216857</ele>
        <time>2022-01-10T03:50:49.098Z</time>
      </trkpt>
      <trkpt lat="51.817301" lon="5.205294">
        <ele>3.142391</ele>
        <time>2022-01-10T03:50:54.663Z</time>
      </trkpt>
      <trkpt lat="51.817589" lon="5.205344">
        <ele>3.109278</ele>
        <time>2022-01-10T03:51:01.204Z</time>
      </trkpt>
      <trkpt lat="51.818008" lon="5.205581">
        <ele>3.135570</ele>
        <time>2022-01-10T03:51:11.030Z</time>
      </trkpt>
      <trkpt lat="51.818160" lon="5.205674">
        <ele>3.145196</ele>
        <time>2022-01-10T03:51:14.753Z</time>
      </trkpt>
      <trkpt lat="51.819340" lon="5.205990">
        <ele>3.215168</ele>
        <time>2022-01-10T03:51:42.675Z</time>
      </trkpt>
      <trkpt lat="51.819660" lon="5.206009">
        <ele>3.232287</ele>
        <time>2022-01-10T03:51:50.381Z</time>
      </trkpt>
      <trkpt lat="51.821497" lon="5.205015">
        <ele>3.322449</ele>
        <time>2022-01-10T03:52:35.505Z</time>
      </trkpt>
      <trkpt lat="51.822108" lon="5.204365">
        <ele>3.345488</ele>
        <time>2022-01-10T03:52:52.585Z</time>
      </trkpt>
      <trkpt lat="51.822590" lon="5.203560">
        <ele>3.314524</ele>
        <time>2022-01-10T03:53:07.994Z</time>
      </trkpt>
      <trkpt lat="51.823252" lon="5.202091">
        <ele>3.097808</ele>
        <time>2022-01-10T03:53:32.133Z</time>
      </trkpt>
      <trkpt lat="51.823591" lon="5.201348">
        <ele>2.995442</ele>
        <time>2022-01-10T03:53:44.278Z</time>
      </trkpt>
      <trkpt lat="51.823761" lon="5.201126">
        <ele>2.966172</ele>
        <time>2022-01-10T03:53:49.001Z</time>
      </trkpt>
      <trkpt lat="51.823923" lon="5.201027">
        <ele>2.942971</ele>
        <time>2022-01-10T03:53:52.695Z</time>
      </trkpt>
      <trkpt lat="51.824448" lon="5.201052">
        <ele>2.872602</ele>
        <time>2022-01-10T03:54:04.032Z</time>
      </trkpt>
      <trkpt lat="51.824896" lon="5.200927">
        <ele>2.811693</ele>
        <time>2022-01-10T03:54:13.843Z</time>
      </trkpt>
      <trkpt lat="51.825437" lon="5.200525">
        <ele>2.755241</ele>
        <time>2022-01-10T03:54:27.158Z</time>
      </trkpt>
      <trkpt lat="51.825911" lon="5.199857">
        <ele>2.719977</ele>
        <time>2022-01-10T03:54:41.177Z</time>
      </trkpt>
      <trkpt lat="51.826255" lon="5.198936">
        <ele>2.682665</ele>
        <time>2022-01-10T03:54:55.858Z</time>
      </trkpt>
      <trkpt lat="51.826702" lon="5.198234">
        <ele>2.614297</ele>
        <time>2022-01-10T03:55:09.352Z</time>
      </trkpt>
      <trkpt lat="51.826850" lon="5.197795">
        <ele>2.572204</ele>
        <time>2022-01-10T03:55:15.953Z</time>
      </trkpt>
      <trkpt lat="51.826897" lon="5.197530">
        <ele>2.548998</ele>
        <time>2022-01-10T03:55:19.609Z</time>
      </trkpt>
      <trkpt lat="51.826968" lon="5.196006">
        <ele>2.426388</ele>
        <time>2022-01-10T03:55:40.109Z</time>
      </trkpt>
      <trkpt lat="51.827000" lon="5.194530">
        <ele>2.431217</ele>
        <time>2022-01-10T03:56:00.447Z</time>
      </trkpt>
      <trkpt lat="51.826963" lon="5.193670">
        <ele>2.434036</ele>
        <time>2022-01-10T03:56:12.943Z</time>
      </trkpt>
      <trkpt lat="51.826784" lon="5.191852">
        <ele>2.471978</ele>
        <time>2022-01-10T03:56:39.601Z</time>
      </trkpt>
      <trkpt lat="51.826658" lon="5.191362">
        <ele>2.486369</ele>
        <time>2022-01-10T03:56:47.260Z</time>
      </trkpt>
      <trkpt lat="51.826291" lon="5.190380">
        <ele>2.520585</ele>
        <time>2022-01-10T03:57:03.585Z</time>
      </trkpt>
      <trkpt lat="51.825732" lon="5.188432">
        <ele>2.641144</ele>
        <time>2022-01-10T03:57:34.645Z</time>
      </trkpt>
      <trkpt lat="51.825077" lon="5.186970">
        <ele>2.758955</ele>
        <time>2022-01-10T03:58:01.203Z</time>
      </trkpt>
      <trkpt lat="51.824917" lon="5.186539">
        <ele>2.794369</ele>
        <time>2022-01-10T03:58:08.604Z</time>
      </trkpt>
      <trkpt lat="51.824798" lon="5.185970">
        <ele>2.836680</ele>
        <time>2022-01-10T03:58:17.409Z</time>
      </trkpt>
      <trkpt lat="51.824790" lon="5.185780">
        <ele>2.850095</ele>
        <time>2022-01-10T03:58:20.175Z</time>
      </trkpt>
      <trkpt lat="51.824850" lon="5.185500">
        <ele>2.870969</ele>
        <time>2022-01-10T03:58:24.479Z</time>
      </trkpt>
      <trkpt lat="51.825250" lon="5.184840">
        <ele>2.932684</ele>
        <time>2022-01-10T03:58:37.716Z</time>
      </trkpt>
      <trkpt lat="51.825365" lon="5.184476">
        <ele>2.959640</ele>
        <time>2022-01-10T03:58:43.508Z</time>
      </trkpt>
      <trkpt lat="51.825414" lon="5.184106">
        <ele>2.984590</ele>
        <time>2022-01-10T03:58:48.965Z</time>
      </trkpt>
      <trkpt lat="51.825366" lon="5.182176">
        <ele>3.237017</ele>
        <time>2022-01-10T03:59:17.336Z</time>
      </trkpt>
      <trkpt lat="51.825139" lon="5.180178">
        <ele>3.822146</ele>
        <time>2022-01-10T03:59:49.309Z</time>
      </trkpt>
      <trkpt lat="51.824822" lon="5.179211">
        <ele>4.021957</ele>
        <time>2022-01-10T04:00:06.591Z</time>
      </trkpt>
      <trkpt lat="51.824678" lon="5.179004">
        <ele>4.065532</ele>
        <time>2022-01-10T04:00:11.427Z</time>
      </trkpt>
      <trkpt lat="51.824358" lon="5.178713">
        <ele>4.148572</ele>
        <time>2022-01-10T04:00:20.376Z</time>
      </trkpt>
      <trkpt lat="51.824227" lon="5.178592">
        <ele>4.182696</ele>
        <time>2022-01-10T04:00:23.932Z</time>
      </trkpt>
      <trkpt lat="51.823544" lon="5.177961">
        <ele>4.222304</ele>
        <time>2022-01-10T04:00:41.933Z</time>
      </trkpt>
      <trkpt lat="51.823096" lon="5.177398">
        <ele>3.914557</ele>
        <time>2022-01-10T04:00:54.181Z</time>
      </trkpt>
      <trkpt lat="51.822958" lon="5.177127">
        <ele>3.796818</ele>
        <time>2022-01-10T04:00:58.619Z</time>
      </trkpt>
      <trkpt lat="51.822518" lon="5.176059">
        <ele>3.366436</ele>
        <time>2022-01-10T04:01:14.414Z</time>
      </trkpt>
      <trkpt lat="51.821740" lon="5.174783">
        <ele>2.962697</ele>
        <time>2022-01-10T04:01:37.245Z</time>
      </trkpt>
      <trkpt lat="51.820957" lon="5.173159">
        <ele>2.795090</ele>
        <time>2022-01-10T04:02:04.871Z</time>
      </trkpt>
      <trkpt lat="51.820481" lon="5.171946">
        <ele>2.949503</ele>
        <time>2022-01-10T04:02:25.241Z</time>
      </trkpt>
      <trkpt lat="51.820294" lon="5.171596">
        <ele>2.999221</ele>
        <time>2022-01-10T04:02:32.199Z</time>
      </trkpt>
      <trkpt lat="51.819823" lon="5.170926">
        <ele>3.292563</ele>
        <time>2022-01-10T04:02:47.541Z</time>
      </trkpt>
      <trkpt lat="51.819650" lon="5.170427">
        <ele>3.473900</ele>
        <time>2022-01-10T04:02:56.271Z</time>
      </trkpt>
      <trkpt lat="51.819522" lon="5.169796">
        <ele>3.684392</ele>
        <time>2022-01-10T04:03:06.418Z</time>
      </trkpt>
      <trkpt lat="51.819459" lon="5.169178">
        <ele>3.882915</ele>
        <time>2022-01-10T04:03:15.845Z</time>
      </trkpt>
      <trkpt lat="51.819438" lon="5.168486">
        <ele>3.979841</ele>
        <time>2022-01-10T04:03:26.185Z</time>
      </trkpt>
      <trkpt lat="51.819489" lon="5.167732">
        <ele>4.043165</ele>
        <time>2022-01-10T04:03:37.251Z</time>
      </trkpt>
      <trkpt lat="51.819463" lon="5.167121">
        <ele>4.094294</ele>
        <time>2022-01-10T04:03:45.724Z</time>
      </trkpt>
      <trkpt lat="51.819348" lon="5.166212">
        <ele>4.171755</ele>
        <time>2022-01-10T04:03:58.130Z</time>
      </trkpt>
      <trkpt lat="51.818369" lon="5.160986">
        <ele>3.539452</ele>
        <time>2022-01-10T04:05:10.602Z</time>
      </trkpt>
      <trkpt lat="51.818151" lon="5.159139">
        <ele>3.712364</ele>
        <time>2022-01-10T04:05:36.067Z</time>
      </trkpt>
      <trkpt lat="51.818144" lon="5.158668">
        <ele>3.785445</ele>
        <time>2022-01-10T04:05:42.763Z</time>
      </trkpt>
      <trkpt lat="51.818208" lon="5.157789">
        <ele>3.922735</ele>
        <time>2022-01-10T04:05:56.583Z</time>
      </trkpt>
      <trkpt lat="51.818387" lon="5.156869">
        <ele>4.318747</ele>
        <time>2022-01-10T04:06:11.615Z</time>
      </trkpt>
      <trkpt lat="51.818501" lon="5.156309">
        <ele>4.581694</ele>
        <time>2022-01-10T04:06:20.585Z</time>
      </trkpt>
      <trkpt lat="51.818684" lon="5.155403">
        <ele>5.006780</ele>
        <time>2022-01-10T04:06:35.731Z</time>
      </trkpt>
      <trkpt lat="51.818828" lon="5.154649">
        <ele>5.274931</ele>
        <time>2022-01-10T04:06:47.855Z</time>
      </trkpt>
      <trkpt lat="51.819013" lon="5.153691">
        <ele>5.410237</ele>
        <time>2022-01-10T04:07:03.085Z</time>
      </trkpt>
      <trkpt lat="51.819330" lon="5.151610">
        <ele>5.604973</ele>
        <time>2022-01-10T04:07:31.859Z</time>
      </trkpt>
      <trkpt lat="51.819470" lon="5.150300">
        <ele>5.536943</ele>
        <time>2022-01-10T04:07:50.454Z</time>
      </trkpt>
      <trkpt lat="51.819458" lon="5.149930">
        <ele>5.517983</ele>
        <time>2022-01-10T04:07:55.614Z</time>
      </trkpt>
      <trkpt lat="51.819330" lon="5.149492">
        <ele>5.493191</ele>
        <time>2022-01-10T04:08:02.523Z</time>
      </trkpt>
      <trkpt lat="51.819340" lon="5.149345">
        <ele>5.485623</ele>
        <time>2022-01-10T04:08:04.234Z</time>
      </trkpt>
      <trkpt lat="51.819640" lon="5.148350">
        <ele>5.177392</ele>
        <time>2022-01-10T04:08:18.108Z</time>
      </trkpt>
      <trkpt lat="51.819690" lon="5.147750">
        <ele>4.999406</ele>
        <time>2022-01-10T04:08:25.718Z</time>
      </trkpt>
      <trkpt lat="51.819626" lon="5.147504">
        <ele>4.920942</ele>
        <time>2022-01-10T04:08:29.214Z</time>
      </trkpt>
      <trkpt lat="51.819531" lon="5.147360">
        <ele>4.859027</ele>
        <time>2022-01-10T04:08:32.082Z</time>
      </trkpt>
      <trkpt lat="51.819104" lon="5.146881">
        <ele>4.621994</ele>
        <time>2022-01-10T04:08:42.454Z</time>
      </trkpt>
      <trkpt lat="51.818723" lon="5.146377">
        <ele>4.548979</ele>
        <time>2022-01-10T04:08:52.986Z</time>
      </trkpt>
      <trkpt lat="51.818596" lon="5.145976">
        <ele>4.507660</ele>
        <time>2022-01-10T04:08:58.969Z</time>
      </trkpt>
      <trkpt lat="51.818558" lon="5.145520">
        <ele>4.465464</ele>
        <time>2022-01-10T04:09:04.899Z</time>
      </trkpt>
      <trkpt lat="51.818846" lon="5.143836">
        <ele>4.291909</ele>
        <time>2022-01-10T04:09:29.568Z</time>
      </trkpt>
      <trkpt lat="51.818987" lon="5.143347">
        <ele>4.230332</ele>
        <time>2022-01-10T04:09:36.990Z</time>
      </trkpt>
      <trkpt lat="51.819525" lon="5.142005">
        <ele>4.047799</ele>
        <time>2022-01-10T04:09:57.765Z</time>
      </trkpt>
      <trkpt lat="51.820134" lon="5.140045">
        <ele>3.746098</ele>
        <time>2022-01-10T04:10:25.936Z</time>
      </trkpt>
      <trkpt lat="51.820234" lon="5.138693">
        <ele>3.779273</ele>
        <time>2022-01-10T04:10:44.973Z</time>
      </trkpt>
      <trkpt lat="51.820332" lon="5.138029">
        <ele>4.008758</ele>
        <time>2022-01-10T04:10:55.095Z</time>
      </trkpt>
      <trkpt lat="51.820384" lon="5.137411">
        <ele>4.218420</ele>
        <time>2022-01-10T04:11:04.739Z</time>
      </trkpt>
      <trkpt lat="51.820266" lon="5.136757">
        <ele>4.447443</ele>
        <time>2022-01-10T04:11:15.340Z</time>
      </trkpt>
      <trkpt lat="51.820081" lon="5.136209">
        <ele>4.639310</ele>
        <time>2022-01-10T04:11:25.223Z</time>
      </trkpt>
      <trkpt lat="51.819708" lon="5.135698">
        <ele>4.821963</ele>
        <time>2022-01-10T04:11:37.597Z</time>
      </trkpt>
      <trkpt lat="51.819468" lon="5.135510">
        <ele>4.921611</ele>
        <time>2022-01-10T04:11:43.924Z</time>
      </trkpt>
      <trkpt lat="51.819205" lon="5.135185">
        <ele>5.045286</ele>
        <time>2022-01-10T04:11:51.745Z</time>
      </trkpt>
      <trkpt lat="51.818822" lon="5.134563">
        <ele>5.248090</ele>
        <time>2022-01-10T04:12:04.252Z</time>
      </trkpt>
      <trkpt lat="51.818459" lon="5.134127">
        <ele>5.057159</ele>
        <time>2022-01-10T04:12:13.912Z</time>
      </trkpt>
      <trkpt lat="51.818410" lon="5.133880">
        <ele>4.968555</ele>
        <time>2022-01-10T04:12:17.161Z</time>
      </trkpt>
      <trkpt lat="51.818501" lon="5.133610">
        <ele>4.863516</ele>
        <time>2022-01-10T04:12:21.056Z</time>
      </trkpt>
      <trkpt lat="51.818530" lon="5.133563">
        <ele>4.840834</ele>
        <time>2022-01-10T04:12:21.880Z</time>
      </trkpt>
      <trkpt lat="51.818897" lon="5.132553">
        <ele>4.440670</ele>
        <time>2022-01-10T04:12:36.338Z</time>
      </trkpt>
      <trkpt lat="51.819185" lon="5.131302">
        <ele>3.992796</ele>
        <time>2022-01-10T04:12:52.615Z</time>
      </trkpt>
      <trkpt lat="51.819215" lon="5.130921">
        <ele>3.865228</ele>
        <time>2022-01-10T04:12:57.328Z</time>
      </trkpt>
      <trkpt lat="51.819142" lon="5.130343">
        <ele>3.669285</ele>
        <time>2022-01-10T04:13:04.683Z</time>
      </trkpt>
      <trkpt lat="51.818856" lon="5.128617">
        <ele>3.373336</ele>
        <time>2022-01-10T04:13:28.270Z</time>
      </trkpt>
      <trkpt lat="51.818414" lon="5.127145">
        <ele>3.515735</ele>
        <time>2022-01-10T04:13:51.537Z</time>
      </trkpt>
      <trkpt lat="51.818398" lon="5.127060">
        <ele>3.523467</ele>
        <time>2022-01-10T04:13:52.847Z</time>
      </trkpt>
      <trkpt lat="51.818367" lon="5.126602">
        <ele>3.563559</ele>
        <time>2022-01-10T04:13:59.601Z</time>
      </trkpt>
      <trkpt lat="51.818402" lon="5.126252">
        <ele>3.643954</ele>
        <time>2022-01-10T04:14:04.960Z</time>
      </trkpt>
      <trkpt lat="51.818556" lon="5.125480">
        <ele>3.832459</ele>
        <time>2022-01-10T04:14:17.299Z</time>
      </trkpt>
      <trkpt lat="51.818743" lon="5.125004">
        <ele>3.963519</ele>
        <time>2022-01-10T04:14:25.624Z</time>
      </trkpt>
      <trkpt lat="51.819350" lon="5.124560">
        <ele>4.213945</ele>
        <time>2022-01-10T04:14:41.242Z</time>
      </trkpt>
      <trkpt lat="51.819649" lon="5.124235">
        <ele>4.243943</ele>
        <time>2022-01-10T04:14:49.247Z</time>
      </trkpt>
      <trkpt lat="51.819856" lon="5.123783">
        <ele>4.247606</ele>
        <time>2022-01-10T04:14:57.195Z</time>
      </trkpt>
      <trkpt lat="51.819957" lon="5.123310">
        <ele>4.250864</ele>
        <time>2022-01-10T04:15:04.204Z</time>
      </trkpt>
      <trkpt lat="51.819971" lon="5.122652">
        <ele>4.255152</ele>
        <time>2022-01-10T04:15:13.238Z</time>
      </trkpt>
      <trkpt lat="51.819927" lon="5.121987">
        <ele>4.259507</ele>
        <time>2022-01-10T04:15:22.251Z</time>
      </trkpt>
      <trkpt lat="51.819990" lon="5.121758">
        <ele>4.270422</ele>
        <time>2022-01-10T04:15:25.565Z</time>
      </trkpt>
      <trkpt lat="51.820084" lon="5.121688">
        <ele>4.279371</ele>
        <time>2022-01-10T04:15:27.811Z</time>
      </trkpt>
      <trkpt lat="51.820654" lon="5.122068">
        <ele>4.332681</ele>
        <time>2022-01-10T04:15:41.299Z</time>
      </trkpt>
      <trkpt lat="51.821265" lon="5.122621">
        <ele>4.393222</ele>
        <time>2022-01-10T04:15:57.382Z</time>
      </trkpt>
      <trkpt lat="51.821739" lon="5.122830">
        <ele>4.493041</ele>
        <time>2022-01-10T04:16:08.903Z</time>
      </trkpt>
      <trkpt lat="51.822166" lon="5.122824">
        <ele>4.634156</ele>
        <time>2022-01-10T04:16:18.927Z</time>
      </trkpt>
      <trkpt lat="51.822628" lon="5.122287">
        <ele>4.822149</ele>
        <time>2022-01-10T04:16:32.457Z</time>
      </trkpt>
      <trkpt lat="51.823184" lon="5.121553">
        <ele>5.026501</ele>
        <time>2022-01-10T04:16:49.572Z</time>
      </trkpt>
      <trkpt lat="51.823929" lon="5.120805">
        <ele>5.124358</ele>
        <time>2022-01-10T04:17:09.741Z</time>
      </trkpt>
      <trkpt lat="51.824371" lon="5.120595">
        <ele>5.175772</ele>
        <time>2022-01-10T04:17:19.942Z</time>
      </trkpt>
      <trkpt lat="51.824818" lon="5.120425">
        <ele>5.145396</ele>
        <time>2022-01-10T04:17:30.001Z</time>
      </trkpt>
      <trkpt lat="51.825652" lon="5.119779">
        <ele>4.738092</ele>
        <time>2022-01-10T04:17:49.599Z</time>
      </trkpt>
      <trkpt lat="51.825936" lon="5.119425">
        <ele>4.580171</ele>
        <time>2022-01-10T04:17:56.793Z</time>
      </trkpt>
      <trkpt lat="51.826522" lon="5.118550">
        <ele>4.057847</ele>
        <time>2022-01-10T04:18:12.644Z</time>
      </trkpt>
      <trkpt lat="51.826660" lon="5.118226">
        <ele>3.853915</ele>
        <time>2022-01-10T04:18:17.364Z</time>
      </trkpt>
      <trkpt lat="51.826842" lon="5.117462">
        <ele>3.429564</ele>
        <time>2022-01-10T04:18:27.188Z</time>
      </trkpt>
      <trkpt lat="51.826890" lon="5.117298">
        <ele>3.335520</ele>
        <time>2022-01-10T04:18:29.356Z</time>
      </trkpt>
      <trkpt lat="51.827446" lon="5.115726">
        <ele>2.629262</ele>
        <time>2022-01-10T04:18:52.500Z</time>
      </trkpt>
      <trkpt lat="51.827573" lon="5.115180">
        <ele>2.463872</ele>
        <time>2022-01-10T04:19:00.297Z</time>
      </trkpt>
      <trkpt lat="51.827677" lon="5.114420">
        <ele>2.243195</ele>
        <time>2022-01-10T04:19:10.906Z</time>
      </trkpt>
      <trkpt lat="51.827595" lon="5.111662">
        <ele>2.030451</ele>
        <time>2022-01-10T04:19:49.737Z</time>
      </trkpt>
      <trkpt lat="51.827542" lon="5.111060">
        <ele>2.015424</ele>
        <time>2022-01-10T04:19:58.606Z</time>
      </trkpt>
      <trkpt lat="51.827452" lon="5.110530">
        <ele>2.105014</ele>
        <time>2022-01-10T04:20:06.728Z</time>
      </trkpt>
      <trkpt lat="51.827135" lon="5.109405">
        <ele>2.357808</ele>
        <time>2022-01-10T04:20:25.387Z</time>
      </trkpt>
      <trkpt lat="51.826930" lon="5.107980">
        <ele>2.636606</ele>
        <time>2022-01-10T04:20:48.092Z</time>
      </trkpt>
      <trkpt lat="51.826904" lon="5.106190">
        <ele>2.850547</ele>
        <time>2022-01-10T04:21:14.991Z</time>
      </trkpt>
      <trkpt lat="51.826946" lon="5.105316">
        <ele>2.955295</ele>
        <time>2022-01-10T04:21:27.481Z</time>
      </trkpt>
      <trkpt lat="51.827259" lon="5.103277">
        <ele>2.826723</ele>
        <time>2022-01-10T04:21:56.927Z</time>
      </trkpt>
      <trkpt lat="51.827492" lon="5.102210">
        <ele>2.809666</ele>
        <time>2022-01-10T04:22:12.786Z</time>
      </trkpt>
      <trkpt lat="51.828242" lon="5.100206">
        <ele>3.051904</ele>
        <time>2022-01-10T04:22:47.476Z</time>
      </trkpt>
      <trkpt lat="51.828700" lon="5.098543">
        <ele>3.331711</ele>
        <time>2022-01-10T04:23:14.925Z</time>
      </trkpt>
      <trkpt lat="51.829311" lon="5.096023">
        <ele>3.655749</ele>
        <time>2022-01-10T04:23:54.872Z</time>
      </trkpt>
      <trkpt lat="51.829749" lon="5.094694">
        <ele>3.774254</ele>
        <time>2022-01-10T04:24:16.819Z</time>
      </trkpt>
      <trkpt lat="51.829829" lon="5.094491">
        <ele>3.767331</ele>
        <time>2022-01-10T04:24:20.294Z</time>
      </trkpt>
      <trkpt lat="51.829858" lon="5.093882">
        <ele>3.738321</ele>
        <time>2022-01-10T04:24:29.170Z</time>
      </trkpt>
      <trkpt lat="51.829825" lon="5.093665">
        <ele>3.727707</ele>
        <time>2022-01-10T04:24:32.425Z</time>
      </trkpt>
      <trkpt lat="51.829880" lon="5.093582">
        <ele>3.721927</ele>
        <time>2022-01-10T04:24:34.125Z</time>
      </trkpt>
      <trkpt lat="51.830056" lon="5.092739">
        <ele>3.679666</ele>
        <time>2022-01-10T04:24:46.238Z</time>
      </trkpt>
      <trkpt lat="51.830130" lon="5.092260">
        <ele>3.656216</ele>
        <time>2022-01-10T04:24:52.862Z</time>
      </trkpt>
      <trkpt lat="51.830207" lon="5.091190">
        <ele>3.428439</ele>
        <time>2022-01-10T04:25:06.695Z</time>
      </trkpt>
      <trkpt lat="51.830235" lon="5.089880">
        <ele>3.040724</ele>
        <time>2022-01-10T04:25:23.259Z</time>
      </trkpt>
      <trkpt lat="51.830239" lon="5.089223">
        <ele>2.846381</ele>
        <time>2022-01-10T04:25:31.476Z</time>
      </trkpt>
      <trkpt lat="51.830669" lon="5.089177">
        <ele>2.693996</ele>
        <time>2022-01-10T04:25:40.300Z</time>
      </trkpt>
      <trkpt lat="51.831189" lon="5.089248">
        <ele>2.541851</ele>
        <time>2022-01-10T04:25:51.167Z</time>
      </trkpt>
      <trkpt lat="51.833159" lon="5.090007">
        <ele>1.969051</ele>
        <time>2022-01-10T04:26:35.190Z</time>
      </trkpt>
      <trkpt lat="51.834237" lon="5.090438">
        <ele>1.618061</ele>
        <time>2022-01-10T04:26:58.259Z</time>
      </trkpt>
      <trkpt lat="51.834340" lon="5.090523">
        <ele>1.570995</ele>
        <time>2022-01-10T04:27:06.274Z</time>
      </trkpt>
      <trkpt lat="51.834354" lon="5.090435">
        <ele>1.548138</ele>
        <time>2022-01-10T04:27:10.205Z</time>
      </trkpt>
      <trkpt lat="51.834237" lon="5.090438">
        <ele>1.500504</ele>
        <time>2022-01-10T04:27:12.665Z</time>
      </trkpt>
      <trkpt lat="51.834444" lon="5.089974">
        <ele>1.356549</ele>
        <time>2022-01-10T04:27:20.187Z</time>
      </trkpt>
      <trkpt lat="51.834822" lon="5.087686">
        <ele>0.870681</ele>
        <time>2022-01-10T04:27:52.425Z</time>
      </trkpt>
      <trkpt lat="51.834917" lon="5.086645">
        <ele>0.715016</ele>
        <time>2022-01-10T04:28:07.028Z</time>
      </trkpt>
      <trkpt lat="51.834958" lon="5.085109">
        <ele>0.547488</ele>
        <time>2022-01-10T04:28:28.373Z</time>
      </trkpt>
      <trkpt lat="51.834931" lon="5.084026">
        <ele>0.474961</ele>
        <time>2022-01-10T04:28:43.491Z</time>
      </trkpt>
      <trkpt lat="51.834075" lon="5.070943">
        <ele>0.437625</ele>
        <time>2022-01-10T04:31:51.855Z</time>
      </trkpt>
      <trkpt lat="51.834137" lon="5.070937">
        <ele>0.444095</ele>
        <time>2022-01-10T04:31:53.318Z</time>
      </trkpt>
      <trkpt lat="51.834029" lon="5.069490">
        <ele>0.537905</ele>
        <time>2022-01-10T04:32:13.559Z</time>
      </trkpt>
      <trkpt lat="51.834008" lon="5.069387">
        <ele>0.544886</ele>
        <time>2022-01-10T04:32:15.068Z</time>
      </trkpt>
      <trkpt lat="51.833796" lon="5.068370">
        <ele>0.614662</ele>
        <time>2022-01-10T04:32:30.255Z</time>
      </trkpt>
      <trkpt lat="51.833630" lon="5.067880">
        <ele>0.652149</ele>
        <time>2022-01-10T04:32:38.309Z</time>
      </trkpt>
      <trkpt lat="51.833340" lon="5.067300">
        <ele>0.702200</ele>
        <time>2022-01-10T04:32:48.971Z</time>
      </trkpt>
      <trkpt lat="51.833068" lon="5.066886">
        <ele>0.742738</ele>
        <time>2022-01-10T04:32:57.491Z</time>
      </trkpt>
      <trkpt lat="51.832580" lon="5.066384">
        <ele>0.785269</ele>
        <time>2022-01-10T04:33:10.270Z</time>
      </trkpt>
      <trkpt lat="51.832128" lon="5.066114">
        <ele>0.754098</ele>
        <time>2022-01-10T04:33:20.496Z</time>
      </trkpt>
      <trkpt lat="51.832054" lon="5.066069">
        <ele>0.748983</ele>
        <time>2022-01-10T04:33:22.165Z</time>
      </trkpt>
      <trkpt lat="51.831650" lon="5.065940">
        <ele>0.722343</ele>
        <time>2022-01-10T04:33:31.006Z</time>
      </trkpt>
      <trkpt lat="51.830554" lon="5.065998">
        <ele>0.826490</ele>
        <time>2022-01-10T04:33:55.743Z</time>
      </trkpt>
      <trkpt lat="51.830557" lon="5.066107">
        <ele>0.852598</ele>
        <time>2022-01-10T04:33:57.365Z</time>
      </trkpt>
      <trkpt lat="51.829828" lon="5.066030">
        <ele>1.135473</ele>
        <time>2022-01-10T04:34:15.234Z</time>
      </trkpt>
      <trkpt lat="51.828955" lon="5.065649">
        <ele>1.495597</ele>
        <time>2022-01-10T04:34:38.904Z</time>
      </trkpt>
      <trkpt lat="51.828160" lon="5.064869">
        <ele>1.887591</ele>
        <time>2022-01-10T04:35:02.721Z</time>
      </trkpt>
      <trkpt lat="51.827713" lon="5.064206">
        <ele>2.121505</ele>
        <time>2022-01-10T04:35:17.010Z</time>
      </trkpt>
      <trkpt lat="51.827218" lon="5.063108">
        <ele>1.833700</ele>
        <time>2022-01-10T04:35:35.726Z</time>
      </trkpt>
      <trkpt lat="51.826854" lon="5.061869">
        <ele>1.543186</ele>
        <time>2022-01-10T04:35:53.920Z</time>
      </trkpt>
      <trkpt lat="51.826732" lon="5.060377">
        <ele>1.101607</ele>
        <time>2022-01-10T04:36:13.408Z</time>
      </trkpt>
      <trkpt lat="51.826696" lon="5.056978">
        <ele>0.477888</ele>
        <time>2022-01-10T04:36:59.307Z</time>
      </trkpt>
      <trkpt lat="51.826640" lon="5.056661">
        <ele>0.449523</ele>
        <time>2022-01-10T04:37:04.030Z</time>
      </trkpt>
      <trkpt lat="51.826665" lon="5.052170">
        <ele>1.078518</ele>
        <time>2022-01-10T04:38:12.401Z</time>
      </trkpt>
      <trkpt lat="51.826665" lon="5.049577">
        <ele>1.275062</ele>
        <time>2022-01-10T04:38:50.015Z</time>
      </trkpt>
      <trkpt lat="51.826613" lon="5.049263">
        <ele>1.276791</ele>
        <time>2022-01-10T04:38:54.653Z</time>
      </trkpt>
      <trkpt lat="51.826645" lon="5.048999">
        <ele>1.278221</ele>
        <time>2022-01-10T04:38:58.399Z</time>
      </trkpt>
      <trkpt lat="51.826642" lon="5.047763">
        <ele>1.284793</ele>
        <time>2022-01-10T04:39:15.850Z</time>
      </trkpt>
      <trkpt lat="51.826528" lon="5.044176">
        <ele>1.584080</ele>
        <time>2022-01-10T04:40:08.559Z</time>
      </trkpt>
      <trkpt lat="51.826495" lon="5.043177">
        <ele>1.601023</ele>
        <time>2022-01-10T04:40:23.487Z</time>
      </trkpt>
      <trkpt lat="51.826417" lon="5.042601">
        <ele>1.611009</ele>
        <time>2022-01-10T04:40:32.165Z</time>
      </trkpt>
      <trkpt lat="51.826466" lon="5.042282">
        <ele>1.616575</ele>
        <time>2022-01-10T04:40:36.925Z</time>
      </trkpt>
      <trkpt lat="51.826018" lon="5.028127">
        <ele>-0.719320</ele>
        <time>2022-01-10T04:43:50.452Z</time>
      </trkpt>
      <trkpt lat="51.826061" lon="5.027002">
        <ele>-0.872212</ele>
        <time>2022-01-10T04:44:06.095Z</time>
      </trkpt>
      <trkpt lat="51.826739" lon="5.021334">
        <ele>-1.042888</ele>
        <time>2022-01-10T04:45:28.023Z</time>
      </trkpt>
      <trkpt lat="51.827162" lon="5.018476">
        <ele>-0.839877</ele>
        <time>2022-01-10T04:46:11.618Z</time>
      </trkpt>
      <trkpt lat="51.828106" lon="5.015172">
        <ele>-0.823765</ele>
        <time>2022-01-10T04:47:03.496Z</time>
      </trkpt>
      <trkpt lat="51.828648" lon="5.013445">
        <ele>-0.879051</ele>
        <time>2022-01-10T04:48:26.702Z</time>
      </trkpt>
      <trkpt lat="51.828106" lon="5.015172">
        <ele>-0.848460</ele>
        <time>2022-01-10T04:49:49.907Z</time>
      </trkpt>
      <trkpt lat="51.828247" lon="5.014929">
        <ele>-0.839839</ele>
        <time>2022-01-10T04:49:54.677Z</time>
      </trkpt>
      <trkpt lat="51.829588" lon="5.010631">
        <ele>-0.351219</ele>
        <time>2022-01-10T04:51:05.190Z</time>
      </trkpt>
      <trkpt lat="51.829684" lon="5.010307">
        <ele>-0.265949</ele>
        <time>2022-01-10T04:51:10.610Z</time>
      </trkpt>
      <trkpt lat="51.829645" lon="5.010269">
        <ele>-0.248467</ele>
        <time>2022-01-10T04:51:11.711Z</time>
      </trkpt>
      <trkpt lat="51.828994" lon="5.009960">
        <ele>0.012053</ele>
        <time>2022-01-10T04:51:27.965Z</time>
      </trkpt>
      <trkpt lat="51.828812" lon="5.009894">
        <ele>0.083676</ele>
        <time>2022-01-10T04:51:32.588Z</time>
      </trkpt>
      <trkpt lat="51.828156" lon="5.009625">
        <ele>0.526011</ele>
        <time>2022-01-10T04:51:49.500Z</time>
      </trkpt>
      <trkpt lat="51.827400" lon="5.009300">
        <ele>1.076633</ele>
        <time>2022-01-10T04:52:09.268Z</time>
      </trkpt>
      <trkpt lat="51.826920" lon="5.009059">
        <ele>1.438093</ele>
        <time>2022-01-10T04:52:21.636Z</time>
      </trkpt>
      <trkpt lat="51.826577" lon="5.008923">
        <ele>1.734710</ele>
        <time>2022-01-10T04:52:30.635Z</time>
      </trkpt>
      <trkpt lat="51.826078" lon="5.008724">
        <ele>2.166373</ele>
        <time>2022-01-10T04:52:44.359Z</time>
      </trkpt>
      <trkpt lat="51.825240" lon="5.008367">
        <ele>2.894215</ele>
        <time>2022-01-10T04:53:06.777Z</time>
      </trkpt>
      <trkpt lat="51.824947" lon="5.008235">
        <ele>2.935184</ele>
        <time>2022-01-10T04:53:14.156Z</time>
      </trkpt>
      <trkpt lat="51.824499" lon="5.007955">
        <ele>2.990168</ele>
        <time>2022-01-10T04:53:25.412Z</time>
      </trkpt>
      <trkpt lat="51.824747" lon="5.007133">
        <ele>3.054893</ele>
        <time>2022-01-10T04:53:38.215Z</time>
      </trkpt>
      <trkpt lat="51.824785" lon="5.006976">
        <ele>3.066824</ele>
        <time>2022-01-10T04:53:40.448Z</time>
      </trkpt>
      <trkpt lat="51.825236" lon="5.004748">
        <ele>2.638668</ele>
        <time>2022-01-10T04:54:10.282Z</time>
      </trkpt>
      <trkpt lat="51.826076" lon="5.002539">
        <ele>2.057058</ele>
        <time>2022-01-10T04:54:43.552Z</time>
      </trkpt>
      <trkpt lat="51.826098" lon="5.002447">
        <ele>2.038019</ele>
        <time>2022-01-10T04:54:44.824Z</time>
      </trkpt>
      <trkpt lat="51.826154" lon="5.002020">
        <ele>1.953774</ele>
        <time>2022-01-10T04:54:50.595Z</time>
      </trkpt>
      <trkpt lat="51.826180" lon="5.001693">
        <ele>1.890144</ele>
        <time>2022-01-10T04:54:54.917Z</time>
      </trkpt>
      <trkpt lat="51.826203" lon="5.001336">
        <ele>1.820870</ele>
        <time>2022-01-10T04:54:59.661Z</time>
      </trkpt>
      <trkpt lat="51.826333" lon="5.000309">
        <ele>1.788133</ele>
        <time>2022-01-10T04:55:13.837Z</time>
      </trkpt>
      <trkpt lat="51.826556" lon="4.999671">
        <ele>1.798540</ele>
        <time>2022-01-10T04:55:23.594Z</time>
      </trkpt>
      <trkpt lat="51.826698" lon="4.999369">
        <ele>1.803928</ele>
        <time>2022-01-10T04:55:28.742Z</time>
      </trkpt>
      <trkpt lat="51.826897" lon="4.999029">
        <ele>1.810576</ele>
        <time>2022-01-10T04:55:35.373Z</time>
      </trkpt>
      <trkpt lat="51.827194" lon="4.998394">
        <ele>1.857436</ele>
        <time>2022-01-10T04:55:47.160Z</time>
      </trkpt>
      <trkpt lat="51.827232" lon="4.997997">
        <ele>1.913203</ele>
        <time>2022-01-10T04:55:53.183Z</time>
      </trkpt>
      <trkpt lat="51.827317" lon="4.997112">
        <ele>2.037530</ele>
        <time>2022-01-10T04:56:06.404Z</time>
      </trkpt>
      <trkpt lat="51.827324" lon="4.996618">
        <ele>2.106123</ele>
        <time>2022-01-10T04:56:13.290Z</time>
      </trkpt>
      <trkpt lat="51.827286" lon="4.995894">
        <ele>2.206988</ele>
        <time>2022-01-10T04:56:23.397Z</time>
      </trkpt>
      <trkpt lat="51.827155" lon="4.995362">
        <ele>2.244409</ele>
        <time>2022-01-10T04:56:31.125Z</time>
      </trkpt>
      <trkpt lat="51.826944" lon="4.994845">
        <ele>2.274449</ele>
        <time>2022-01-10T04:56:39.460Z</time>
      </trkpt>
      <trkpt lat="51.826887" lon="4.994523">
        <ele>2.290690</ele>
        <time>2022-01-10T04:56:44.114Z</time>
      </trkpt>
      <trkpt lat="51.826903" lon="4.994252">
        <ele>2.303889</ele>
        <time>2022-01-10T04:56:48.112Z</time>
      </trkpt>
      <trkpt lat="51.827014" lon="4.993838">
        <ele>2.325771</ele>
        <time>2022-01-10T04:56:54.552Z</time>
      </trkpt>
      <trkpt lat="51.827237" lon="4.993190">
        <ele>2.361733</ele>
        <time>2022-01-10T04:57:04.928Z</time>
      </trkpt>
      <trkpt lat="51.827342" lon="4.992879">
        <ele>2.391128</ele>
        <time>2022-01-10T04:57:09.687Z</time>
      </trkpt>
      <trkpt lat="51.827468" lon="4.992461">
        <ele>2.430909</ele>
        <time>2022-01-10T04:57:16.236Z</time>
      </trkpt>
      <trkpt lat="51.827657" lon="4.991630">
        <ele>2.506651</ele>
        <time>2022-01-10T04:57:29.158Z</time>
      </trkpt>
      <trkpt lat="51.827769" lon="4.990628">
        <ele>2.593749</ele>
        <time>2022-01-10T04:57:43.860Z</time>
      </trkpt>
      <trkpt lat="51.828279" lon="4.986004">
        <ele>2.384713</ele>
        <time>2022-01-10T04:58:46.117Z</time>
      </trkpt>
      <trkpt lat="51.828429" lon="4.985775">
        <ele>2.402402</ele>
        <time>2022-01-10T04:58:50.819Z</time>
      </trkpt>
      <trkpt lat="51.828392" lon="4.985671">
        <ele>2.408764</ele>
        <time>2022-01-10T04:58:52.468Z</time>
      </trkpt>
      <trkpt lat="51.828363" lon="4.985493">
        <ele>2.418523</ele>
        <time>2022-01-10T04:58:55.077Z</time>
      </trkpt>
      <trkpt lat="51.828509" lon="4.984082">
        <ele>2.951175</ele>
        <time>2022-01-10T04:59:16.650Z</time>
      </trkpt>
      <trkpt lat="51.828703" lon="4.983492">
        <ele>3.403112</ele>
        <time>2022-01-10T04:59:28.021Z</time>
      </trkpt>
      <trkpt lat="51.829088" lon="4.982399">
        <ele>4.253861</ele>
        <time>2022-01-10T04:59:49.670Z</time>
      </trkpt>
      <trkpt lat="51.829244" lon="4.981962">
        <ele>4.576860</ele>
        <time>2022-01-10T04:59:58.098Z</time>
      </trkpt>
      <trkpt lat="51.829279" lon="4.981840">
        <ele>4.658127</ele>
        <time>2022-01-10T05:00:00.982Z</time>
      </trkpt>
      <trkpt lat="51.829228" lon="4.981778">
        <ele>4.720492</ele>
        <time>2022-01-10T05:00:03.052Z</time>
      </trkpt>
      <trkpt lat="51.828717" lon="4.981245">
        <ele>5.314876</ele>
        <time>2022-01-10T05:00:23.468Z</time>
      </trkpt>
      <trkpt lat="51.828513" lon="4.981001">
        <ele>5.562892</ele>
        <time>2022-01-10T05:00:31.939Z</time>
      </trkpt>
      <trkpt lat="51.828279" lon="4.980578">
        <ele>5.905905</ele>
        <time>2022-01-10T05:00:43.656Z</time>
      </trkpt>
      <trkpt lat="51.828305" lon="4.979904">
        <ele>6.159926</ele>
        <time>2022-01-10T05:00:56.999Z</time>
      </trkpt>
      <trkpt lat="51.828308" lon="4.979374">
        <ele>6.106188</ele>
        <time>2022-01-10T05:01:07.081Z</time>
      </trkpt>
      <trkpt lat="51.828241" lon="4.978917">
        <ele>6.058567</ele>
        <time>2022-01-10T05:01:15.706Z</time>
      </trkpt>
      <trkpt lat="51.828291" lon="4.978428">
        <ele>6.008313</ele>
        <time>2022-01-10T05:01:24.462Z</time>
      </trkpt>
      <trkpt lat="51.828317" lon="4.978194">
        <ele>5.984208</ele>
        <time>2022-01-10T05:01:27.613Z</time>
      </trkpt>
      <trkpt lat="51.828339" lon="4.977998">
        <ele>5.964010</ele>
        <time>2022-01-10T05:01:30.227Z</time>
      </trkpt>
      <trkpt lat="51.828284" lon="4.977963">
        <ele>5.954314</ele>
        <time>2022-01-10T05:01:31.488Z</time>
      </trkpt>
      <trkpt lat="51.828091" lon="4.977860">
        <ele>5.920974</ele>
        <time>2022-01-10T05:01:35.668Z</time>
      </trkpt>
      <trkpt lat="51.827829" lon="4.977720">
        <ele>5.832101</ele>
        <time>2022-01-10T05:01:41.388Z</time>
      </trkpt>
      <trkpt lat="51.827934" lon="4.977044">
        <ele>5.488006</ele>
        <time>2022-01-10T05:01:50.020Z</time>
      </trkpt>
      <trkpt lat="51.828005" lon="4.976588">
        <ele>5.255861</ele>
        <time>2022-01-10T05:01:57.753Z</time>
      </trkpt>
      <trkpt lat="51.828053" lon="4.976535">
        <ele>5.209443</ele>
        <time>2022-01-10T05:01:59.247Z</time>
      </trkpt>
      <trkpt lat="51.828082" lon="4.976369">
        <ele>5.124284</ele>
        <time>2022-01-10T05:02:02.015Z</time>
      </trkpt>
      <trkpt lat="51.828137" lon="4.976045">
        <ele>4.958414</ele>
        <time>2022-01-10T05:02:06.482Z</time>
      </trkpt>
      <trkpt lat="51.828205" lon="4.975700">
        <ele>4.779649</ele>
        <time>2022-01-10T05:02:12.360Z</time>
      </trkpt>
      <trkpt lat="51.827591" lon="4.975389">
        <ele>4.525306</ele>
        <time>2022-01-10T05:02:25.768Z</time>
      </trkpt>
      <trkpt lat="51.827301" lon="4.975197">
        <ele>4.627085</ele>
        <time>2022-01-10T05:02:34.454Z</time>
      </trkpt>
      <trkpt lat="51.827081" lon="4.975052">
        <ele>4.704247</ele>
        <time>2022-01-10T05:02:41.313Z</time>
      </trkpt>
      <trkpt lat="51.827288" lon="4.974118">
        <ele>4.903440</ele>
        <time>2022-01-10T05:03:01.011Z</time>
      </trkpt>
      <trkpt lat="51.827430" lon="4.974117">
        <ele>4.949565</ele>
        <time>2022-01-10T05:03:05.838Z</time>
      </trkpt>
      <trkpt lat="51.827465" lon="4.974195">
        <ele>4.968916</ele>
        <time>2022-01-10T05:03:07.904Z</time>
      </trkpt>
      <trkpt lat="51.828106" lon="4.974494">
        <ele>5.308708</ele>
        <time>2022-01-10T05:03:30.644Z</time>
      </trkpt>
      <trkpt lat="51.828367" lon="4.974597">
        <ele>5.467065</ele>
        <time>2022-01-10T05:03:39.516Z</time>
      </trkpt>
      <trkpt lat="51.828877" lon="4.974765">
        <ele>5.773852</ele>
        <time>2022-01-10T05:03:55.867Z</time>
      </trkpt>
      <trkpt lat="51.828940" lon="4.974799">
        <ele>5.812998</ele>
        <time>2022-01-10T05:03:57.871Z</time>
      </trkpt>
      <trkpt lat="51.829136" lon="4.974872">
        <ele>5.931552</ele>
        <time>2022-01-10T05:04:03.889Z</time>
      </trkpt>
      <trkpt lat="51.829420" lon="4.974939">
        <ele>6.090120</ele>
        <time>2022-01-10T05:04:12.214Z</time>
      </trkpt>
      <trkpt lat="51.829408" lon="4.974160">
        <ele>5.872836</ele>
        <time>2022-01-10T05:04:25.961Z</time>
      </trkpt>
      <trkpt lat="51.829389" lon="4.973867">
        <ele>5.790686</ele>
        <time>2022-01-10T05:04:31.086Z</time>
      </trkpt>
      <trkpt lat="51.829373" lon="4.973649">
        <ele>5.729472</ele>
        <time>2022-01-10T05:04:34.886Z</time>
      </trkpt>
      <trkpt lat="51.829360" lon="4.973504">
        <ele>5.688616</ele>
        <time>2022-01-10T05:04:37.438Z</time>
      </trkpt>
      <trkpt lat="51.829282" lon="4.972418">
        <ele>5.383756</ele>
        <time>2022-01-10T05:04:55.780Z</time>
      </trkpt>
      <trkpt lat="51.829698" lon="4.972506">
        <ele>5.164727</ele>
        <time>2022-01-10T05:05:06.917Z</time>
      </trkpt>
      <trkpt lat="51.829786" lon="4.972545">
        <ele>5.109762</ele>
        <time>2022-01-10T05:05:09.261Z</time>
      </trkpt>
      <trkpt lat="51.829872" lon="4.972592">
        <ele>5.055079</ele>
        <time>2022-01-10T05:05:11.646Z</time>
      </trkpt>
      <trkpt lat="51.829968" lon="4.972629">
        <ele>4.995629</ele>
        <time>2022-01-10T05:05:14.257Z</time>
      </trkpt>
      <trkpt lat="51.830154" lon="4.972690">
        <ele>4.881301</ele>
        <time>2022-01-10T05:05:19.306Z</time>
      </trkpt>
      <trkpt lat="51.830470" lon="4.972763">
        <ele>4.689007</ele>
        <time>2022-01-10T05:05:25.919Z</time>
      </trkpt>
      <trkpt lat="51.830569" lon="4.971751">
        <ele>4.307561</ele>
        <time>2022-01-10T05:05:39.868Z</time>
      </trkpt>
      <trkpt lat="51.830571" lon="4.971589">
        <ele>4.247238</ele>
        <time>2022-01-10T05:05:42.626Z</time>
      </trkpt>
      <trkpt lat="51.830542" lon="4.970700">
        <ele>4.053505</ele>
        <time>2022-01-10T05:05:57.991Z</time>
      </trkpt>
      <trkpt lat="51.830548" lon="4.970404">
        <ele>3.996736</ele>
        <time>2022-01-10T05:06:03.049Z</time>
      </trkpt>
      <trkpt lat="51.830553" lon="4.970197">
        <ele>3.957027</ele>
        <time>2022-01-10T05:06:06.637Z</time>
      </trkpt>
      <trkpt lat="51.830565" lon="4.969663">
        <ele>3.854600</ele>
        <time>2022-01-10T05:06:15.858Z</time>
      </trkpt>
      <trkpt lat="51.830628" lon="4.968803">
        <ele>3.688598</ele>
        <time>2022-01-10T05:06:30.830Z</time>
      </trkpt>
      <trkpt lat="51.830777" lon="4.968483">
        <ele>3.622900</ele>
        <time>2022-01-10T05:06:37.868Z</time>
      </trkpt>
      <trkpt lat="51.830821" lon="4.968397">
        <ele>3.609431</ele>
        <time>2022-01-10T05:06:39.876Z</time>
      </trkpt>
      <trkpt lat="51.830937" lon="4.968186">
        <ele>3.575363</ele>
        <time>2022-01-10T05:06:45.043Z</time>
      </trkpt>
      <trkpt lat="51.830969" lon="4.968128">
        <ele>3.565984</ele>
        <time>2022-01-10T05:06:46.469Z</time>
      </trkpt>
      <trkpt lat="51.831025" lon="4.968017">
        <ele>3.548698</ele>
        <time>2022-01-10T05:06:48.527Z</time>
      </trkpt>
      <trkpt lat="51.831173" lon="4.967725">
        <ele>3.503141</ele>
        <time>2022-01-10T05:06:53.867Z</time>
      </trkpt>
      <trkpt lat="51.831245" lon="4.967578">
        <ele>3.480513</ele>
        <time>2022-01-10T05:06:56.436Z</time>
      </trkpt>
      <trkpt lat="51.831270" lon="4.967541">
        <ele>3.473900</ele>
        <time>2022-01-10T05:06:57.147Z</time>
      </trkpt>
      <trkpt lat="51.831245" lon="4.967578">
        <ele>3.467286</ele>
        <time>2022-01-10T05:06:57.912Z</time>
      </trkpt>
      <trkpt lat="51.831421" lon="4.967598">
        <ele>3.432845</ele>
        <time>2022-01-10T05:07:02.935Z</time>
      </trkpt>
      <trkpt lat="51.831496" lon="4.967388">
        <ele>3.403586</ele>
        <time>2022-01-10T05:07:07.082Z</time>
      </trkpt>
      <trkpt lat="51.831432" lon="4.967181">
        <ele>3.375665</ele>
        <time>2022-01-10T05:07:11.043Z</time>
      </trkpt>
      <trkpt lat="51.831338" lon="4.967131">
        <ele>3.356349</ele>
        <time>2022-01-10T05:07:13.786Z</time>
      </trkpt>
      <trkpt lat="51.831258" lon="4.967173">
        <ele>3.339931</ele>
        <time>2022-01-10T05:07:16.161Z</time>
      </trkpt>
      <trkpt lat="51.830703" lon="4.966528">
        <ele>3.244939</ele>
        <time>2022-01-10T05:07:31.125Z</time>
      </trkpt>
      <trkpt lat="51.830679" lon="4.966575">
        <ele>3.240942</ele>
        <time>2022-01-10T05:07:32.188Z</time>
      </trkpt>
      <trkpt lat="51.830506" lon="4.966299">
        <ele>3.215167</ele>
        <time>2022-01-10T05:07:37.337Z</time>
      </trkpt>
      <trkpt lat="51.830453" lon="4.966147">
        <ele>3.203725</ele>
        <time>2022-01-10T05:07:39.802Z</time>
      </trkpt>
      <trkpt lat="51.830359" lon="4.966206">
        <ele>3.193028</ele>
        <time>2022-01-10T05:07:42.159Z</time>
      </trkpt>
      <trkpt lat="51.830328" lon="4.966082">
        <ele>3.184258</ele>
        <time>2022-01-10T05:07:43.966Z</time>
      </trkpt>
      <trkpt lat="51.830339" lon="4.965961">
        <ele>3.176239</ele>
        <time>2022-01-10T05:07:45.700Z</time>
      </trkpt>
      <trkpt lat="51.830298" lon="4.965700">
        <ele>3.158583</ele>
        <time>2022-01-10T05:07:49.793Z</time>
      </trkpt>
      <trkpt lat="51.829749" lon="4.964587">
        <ele>3.160495</ele>
        <time>2022-01-10T05:08:10.053Z</time>
      </trkpt>
      <trkpt lat="51.829669" lon="4.964310">
        <ele>3.195637</ele>
        <time>2022-01-10T05:08:14.594Z</time>
      </trkpt>
      <trkpt lat="51.829344" lon="4.961932">
        <ele>3.521529</ele>
        <time>2022-01-10T05:08:51.079Z</time>
      </trkpt>
      <trkpt lat="51.829366" lon="4.961577">
        <ele>3.608265</ele>
        <time>2022-01-10T05:08:56.317Z</time>
      </trkpt>
      <trkpt lat="51.829789" lon="4.959249">
        <ele>4.205567</ele>
        <time>2022-01-10T05:09:33.572Z</time>
      </trkpt>
      <trkpt lat="51.829805" lon="4.958930">
        <ele>4.293596</ele>
        <time>2022-01-10T05:09:38.754Z</time>
      </trkpt>
      <trkpt lat="51.829893" lon="4.958686">
        <ele>4.371301</ele>
        <time>2022-01-10T05:09:43.223Z</time>
      </trkpt>
      <trkpt lat="51.830291" lon="4.956469">
        <ele>4.926401</ele>
        <time>2022-01-10T05:10:19.067Z</time>
      </trkpt>
      <trkpt lat="51.830301" lon="4.956209">
        <ele>4.908475</ele>
        <time>2022-01-10T05:10:22.908Z</time>
      </trkpt>
      <trkpt lat="51.830723" lon="4.954644">
        <ele>4.790979</ele>
        <time>2022-01-10T05:10:46.750Z</time>
      </trkpt>
      <trkpt lat="51.831740" lon="4.952068">
        <ele>4.082530</ele>
        <time>2022-01-10T05:11:27.119Z</time>
      </trkpt>
      <trkpt lat="51.831788" lon="4.951819">
        <ele>4.009217</ele>
        <time>2022-01-10T05:11:30.582Z</time>
      </trkpt>
      <trkpt lat="51.831913" lon="4.951640">
        <ele>3.933298</ele>
        <time>2022-01-10T05:11:34.188Z</time>
      </trkpt>
      <trkpt lat="51.832766" lon="4.949522">
        <ele>3.771145</ele>
        <time>2022-01-10T05:12:10.364Z</time>
      </trkpt>
      <trkpt lat="51.832829" lon="4.949256">
        <ele>3.753689</ele>
        <time>2022-01-10T05:12:14.257Z</time>
      </trkpt>
      <trkpt lat="51.832947" lon="4.949087">
        <ele>3.723368</ele>
        <time>2022-01-10T05:12:17.926Z</time>
      </trkpt>
      <trkpt lat="51.833315" lon="4.948163">
        <ele>3.526162</ele>
        <time>2022-01-10T05:12:33.139Z</time>
      </trkpt>
      <trkpt lat="51.833350" lon="4.948207">
        <ele>3.513296</ele>
        <time>2022-01-10T05:12:34.418Z</time>
      </trkpt>
      <trkpt lat="51.833576" lon="4.947672">
        <ele>3.397038</ele>
        <time>2022-01-10T05:13:02.249Z</time>
      </trkpt>
      <trkpt lat="51.833734" lon="4.947514">
        <ele>3.343119</ele>
        <time>2022-01-10T05:13:06.284Z</time>
      </trkpt>
      <trkpt lat="51.833843" lon="4.947297">
        <ele>3.292952</ele>
        <time>2022-01-10T05:13:10.149Z</time>
      </trkpt>
      <trkpt lat="51.835395" lon="4.943496">
        <ele>2.232230</ele>
        <time>2022-01-10T05:14:07.466Z</time>
      </trkpt>
      <trkpt lat="51.835289" lon="4.943371">
        <ele>2.229672</ele>
        <time>2022-01-10T05:14:10.628Z</time>
      </trkpt>
      <trkpt lat="51.835465" lon="4.943103">
        <ele>2.224958</ele>
        <time>2022-01-10T05:14:16.030Z</time>
      </trkpt>
      <trkpt lat="51.835671" lon="4.942627">
        <ele>2.217954</ele>
        <time>2022-01-10T05:14:24.548Z</time>
      </trkpt>
      <trkpt lat="51.836542" lon="4.940335">
        <ele>2.869660</ele>
        <time>2022-01-10T05:15:05.563Z</time>
      </trkpt>
      <trkpt lat="51.836573" lon="4.940252">
        <ele>2.898344</ele>
        <time>2022-01-10T05:15:07.637Z</time>
      </trkpt>
      <trkpt lat="51.836720" lon="4.939594">
        <ele>3.066546</ele>
        <time>2022-01-10T05:15:17.302Z</time>
      </trkpt>
      <trkpt lat="51.836807" lon="4.939004">
        <ele>3.029209</ele>
        <time>2022-01-10T05:15:25.641Z</time>
      </trkpt>
      <trkpt lat="51.836789" lon="4.938816">
        <ele>3.017499</ele>
        <time>2022-01-10T05:15:27.724Z</time>
      </trkpt>
      <trkpt lat="51.836694" lon="4.938759">
        <ele>3.007406</ele>
        <time>2022-01-10T05:15:30.415Z</time>
      </trkpt>
      <trkpt lat="51.836839" lon="4.938299">
        <ele>2.975620</ele>
        <time>2022-01-10T05:15:37.268Z</time>
      </trkpt>
      <trkpt lat="51.837150" lon="4.936315">
        <ele>2.998489</ele>
        <time>2022-01-10T05:16:04.485Z</time>
      </trkpt>
      <trkpt lat="51.837208" lon="4.935662">
        <ele>3.093981</ele>
        <time>2022-01-10T05:16:14.141Z</time>
      </trkpt>
      <trkpt lat="51.837273" lon="4.934376">
        <ele>3.280750</ele>
        <time>2022-01-10T05:16:33.415Z</time>
      </trkpt>
      <trkpt lat="51.837131" lon="4.928613">
        <ele>4.006236</ele>
        <time>2022-01-10T05:17:56.910Z</time>
      </trkpt>
      <trkpt lat="51.837045" lon="4.927987">
        <ele>3.799132</ele>
        <time>2022-01-10T05:18:04.599Z</time>
      </trkpt>
      <trkpt lat="51.837103" lon="4.927513">
        <ele>3.494899</ele>
        <time>2022-01-10T05:18:10.309Z</time>
      </trkpt>
      <trkpt lat="51.837159" lon="4.926878">
        <ele>3.091043</ele>
        <time>2022-01-10T05:18:17.895Z</time>
      </trkpt>
      <trkpt lat="51.837176" lon="4.926338">
        <ele>2.750610</ele>
        <time>2022-01-10T05:18:24.190Z</time>
      </trkpt>
      <trkpt lat="51.837174" lon="4.925373">
        <ele>2.165743</ele>
        <time>2022-01-10T05:18:35.434Z</time>
      </trkpt>
      <trkpt lat="51.837098" lon="4.924759">
        <ele>1.983281</ele>
        <time>2022-01-10T05:18:42.804Z</time>
      </trkpt>
      <trkpt lat="51.837154" lon="4.924065">
        <ele>1.779346</ele>
        <time>2022-01-10T05:18:51.294Z</time>
      </trkpt>
      <trkpt lat="51.838057" lon="4.920242">
        <ele>1.300012</ele>
        <time>2022-01-10T05:19:47.909Z</time>
      </trkpt>
      <trkpt lat="51.837987" lon="4.917478">
        <ele>0.821737</ele>
        <time>2022-01-10T05:20:24.234Z</time>
      </trkpt>
      <trkpt lat="51.837938" lon="4.915562">
        <ele>0.388137</ele>
        <time>2022-01-10T05:20:48.518Z</time>
      </trkpt>
      <trkpt lat="51.837700" lon="4.914400">
        <ele>0.098518</ele>
        <time>2022-01-10T05:21:04.321Z</time>
      </trkpt>
      <trkpt lat="51.837615" lon="4.914198">
        <ele>0.040698</ele>
        <time>2022-01-10T05:21:07.564Z</time>
      </trkpt>
      <trkpt lat="51.837500" lon="4.914100">
        <ele>0.044980</ele>
        <time>2022-01-10T05:21:10.336Z</time>
      </trkpt>
      <trkpt lat="51.836748" lon="4.913910">
        <ele>0.078041</ele>
        <time>2022-01-10T05:21:26.841Z</time>
      </trkpt>
      <trkpt lat="51.836204" lon="4.913675">
        <ele>0.102500</ele>
        <time>2022-01-10T05:21:39.727Z</time>
      </trkpt>
      <trkpt lat="51.835486" lon="4.913333">
        <ele>0.233864</ele>
        <time>2022-01-10T05:21:57.451Z</time>
      </trkpt>
      <trkpt lat="51.835376" lon="4.913294">
        <ele>0.266534</ele>
        <time>2022-01-10T05:22:00.171Z</time>
      </trkpt>
      <trkpt lat="51.833168" lon="4.912425">
        <ele>0.857069</ele>
        <time>2022-01-10T05:22:53.304Z</time>
      </trkpt>
      <trkpt lat="51.832800" lon="4.912300">
        <ele>0.939981</ele>
        <time>2022-01-10T05:23:01.655Z</time>
      </trkpt>
      <trkpt lat="51.832402" lon="4.912038">
        <ele>1.034723</ele>
        <time>2022-01-10T05:23:11.364Z</time>
      </trkpt>
      <trkpt lat="51.831795" lon="4.911773">
        <ele>1.240142</ele>
        <time>2022-01-10T05:23:26.174Z</time>
      </trkpt>
      <trkpt lat="51.831304" lon="4.911656">
        <ele>1.402797</ele>
        <time>2022-01-10T05:23:37.996Z</time>
      </trkpt>
      <trkpt lat="51.831191" lon="4.911566">
        <ele>1.444075</ele>
        <time>2022-01-10T05:23:41.149Z</time>
      </trkpt>
      <trkpt lat="51.830887" lon="4.911315">
        <ele>1.555928</ele>
        <time>2022-01-10T05:23:49.599Z</time>
      </trkpt>
      <trkpt lat="51.830779" lon="4.911110">
        <ele>1.610488</ele>
        <time>2022-01-10T05:23:53.526Z</time>
      </trkpt>
      <trkpt lat="51.830586" lon="4.910301">
        <ele>1.586982</ele>
        <time>2022-01-10T05:24:06.727Z</time>
      </trkpt>
      <trkpt lat="51.830336" lon="4.909037">
        <ele>1.522505</ele>
        <time>2022-01-10T05:24:25.732Z</time>
      </trkpt>
      <trkpt lat="51.829755" lon="4.905884">
        <ele>0.761558</ele>
        <time>2022-01-10T05:25:08.857Z</time>
      </trkpt>
      <trkpt lat="51.829470" lon="4.904732">
        <ele>0.750060</ele>
        <time>2022-01-10T05:25:26.379Z</time>
      </trkpt>
      <trkpt lat="51.829101" lon="4.903730">
        <ele>0.900603</ele>
        <time>2022-01-10T05:25:44.028Z</time>
      </trkpt>
      <trkpt lat="51.828200" lon="4.901700">
        <ele>1.215114</ele>
        <time>2022-01-10T05:26:22.110Z</time>
      </trkpt>
      <trkpt lat="51.827900" lon="4.901000">
        <ele>1.320728</ele>
        <time>2022-01-10T05:26:37.695Z</time>
      </trkpt>
      <trkpt lat="51.827500" lon="4.900300">
        <ele>1.346093</ele>
        <time>2022-01-10T05:26:54.905Z</time>
      </trkpt>
      <trkpt lat="51.827100" lon="4.899800">
        <ele>1.289471</ele>
        <time>2022-01-10T05:27:06.156Z</time>
      </trkpt>
      <trkpt lat="51.826751" lon="4.899281">
        <ele>1.236373</ele>
        <time>2022-01-10T05:27:16.730Z</time>
      </trkpt>
      <trkpt lat="51.826408" lon="4.898771">
        <ele>1.184190</ele>
        <time>2022-01-10T05:27:27.268Z</time>
      </trkpt>
      <trkpt lat="51.824839" lon="4.896413">
        <ele>1.335350</ele>
        <time>2022-01-10T05:28:18.036Z</time>
      </trkpt>
      <trkpt lat="51.824671" lon="4.896147">
        <ele>1.327187</ele>
        <time>2022-01-10T05:28:23.498Z</time>
      </trkpt>
      <trkpt lat="51.824330" lon="4.895606">
        <ele>1.310603</ele>
        <time>2022-01-10T05:28:34.575Z</time>
      </trkpt>
      <trkpt lat="51.822917" lon="4.893195">
        <ele>1.212348</ele>
        <time>2022-01-10T05:29:21.147Z</time>
      </trkpt>
      <trkpt lat="51.822136" lon="4.891097">
        <ele>1.287507</ele>
        <time>2022-01-10T05:29:56.963Z</time>
      </trkpt>
      <trkpt lat="51.821762" lon="4.889954">
        <ele>1.374750</ele>
        <time>2022-01-10T05:30:15.527Z</time>
      </trkpt>
      <trkpt lat="51.821349" lon="4.888621">
        <ele>1.667139</ele>
        <time>2022-01-10T05:30:38.134Z</time>
      </trkpt>
      <trkpt lat="51.821187" lon="4.887988">
        <ele>1.804459</ele>
        <time>2022-01-10T05:30:48.497Z</time>
      </trkpt>
      <trkpt lat="51.821152" lon="4.887808">
        <ele>1.842281</ele>
        <time>2022-01-10T05:30:51.361Z</time>
      </trkpt>
      <trkpt lat="51.821195" lon="4.887768">
        <ele>1.858365</ele>
        <time>2022-01-10T05:30:52.601Z</time>
      </trkpt>
      <trkpt lat="51.820931" lon="4.886982">
        <ele>2.083559</ele>
        <time>2022-01-10T05:31:05.390Z</time>
      </trkpt>
      <trkpt lat="51.820639" lon="4.886475">
        <ele>2.305909</ele>
        <time>2022-01-10T05:31:15.911Z</time>
      </trkpt>
      <trkpt lat="51.820443" lon="4.885975">
        <ele>2.495883</ele>
        <time>2022-01-10T05:31:25.144Z</time>
      </trkpt>
      <trkpt lat="51.820028" lon="4.884519">
        <ele>2.997820</ele>
        <time>2022-01-10T05:31:49.353Z</time>
      </trkpt>
      <trkpt lat="51.819959" lon="4.884049">
        <ele>3.136006</ele>
        <time>2022-01-10T05:31:56.483Z</time>
      </trkpt>
      <trkpt lat="51.819979" lon="4.883581">
        <ele>3.270200</ele>
        <time>2022-01-10T05:32:03.469Z</time>
      </trkpt>
      <trkpt lat="51.820074" lon="4.883322">
        <ele>3.356350</ele>
        <time>2022-01-10T05:32:07.905Z</time>
      </trkpt>
      <trkpt lat="51.820248" lon="4.883107">
        <ele>3.457673</ele>
        <time>2022-01-10T05:32:13.190Z</time>
      </trkpt>
      <trkpt lat="51.821217" lon="4.882876">
        <ele>3.812652</ele>
        <time>2022-01-10T05:32:36.585Z</time>
      </trkpt>
      <trkpt lat="51.821500" lon="4.882700">
        <ele>3.877863</ele>
        <time>2022-01-10T05:32:43.679Z</time>
      </trkpt>
      <trkpt lat="51.821626" lon="4.882509">
        <ele>3.915000</ele>
        <time>2022-01-10T05:32:47.700Z</time>
      </trkpt>
      <trkpt lat="51.821918" lon="4.881516">
        <ele>4.061191</ele>
        <time>2022-01-10T05:33:03.364Z</time>
      </trkpt>
      <trkpt lat="51.822036" lon="4.881059">
        <ele>4.085916</ele>
        <time>2022-01-10T05:33:10.357Z</time>
      </trkpt>
      <trkpt lat="51.822060" lon="4.880934">
        <ele>4.047750</ele>
        <time>2022-01-10T05:33:12.178Z</time>
      </trkpt>
      <trkpt lat="51.822078" lon="4.880657">
        <ele>3.966535</ele>
        <time>2022-01-10T05:33:16.036Z</time>
      </trkpt>
      <trkpt lat="51.822066" lon="4.880313">
        <ele>3.866070</ele>
        <time>2022-01-10T05:33:20.579Z</time>
      </trkpt>
      <trkpt lat="51.821988" lon="4.878992">
        <ele>3.479132</ele>
        <time>2022-01-10T05:33:37.281Z</time>
      </trkpt>
      <trkpt lat="51.821929" lon="4.878285">
        <ele>3.271110</ele>
        <time>2022-01-10T05:33:45.896Z</time>
      </trkpt>
      <trkpt lat="51.821792" lon="4.877611">
        <ele>2.936697</ele>
        <time>2022-01-10T05:33:54.420Z</time>
      </trkpt>
      <trkpt lat="51.821405" lon="4.876317">
        <ele>2.252167</ele>
        <time>2022-01-10T05:34:11.480Z</time>
      </trkpt>
      <trkpt lat="51.820836" lon="4.873944">
        <ele>1.795802</ele>
        <time>2022-01-10T05:34:44.842Z</time>
      </trkpt>
      <trkpt lat="51.820754" lon="4.873355">
        <ele>1.766981</ele>
        <time>2022-01-10T05:34:53.538Z</time>
      </trkpt>
      <trkpt lat="51.820741" lon="4.872818">
        <ele>1.741326</ele>
        <time>2022-01-10T05:35:01.436Z</time>
      </trkpt>
      <trkpt lat="51.820834" lon="4.872657">
        <ele>1.769620</ele>
        <time>2022-01-10T05:35:04.716Z</time>
      </trkpt>
      <trkpt lat="51.820911" lon="4.872568">
        <ele>1.789896</ele>
        <time>2022-01-10T05:35:06.977Z</time>
      </trkpt>
      <trkpt lat="51.821302" lon="4.872186">
        <ele>1.887765</ele>
        <time>2022-01-10T05:35:17.836Z</time>
      </trkpt>
      <trkpt lat="51.821500" lon="4.871734">
        <ele>1.961137</ele>
        <time>2022-01-10T05:35:25.941Z</time>
      </trkpt>
      <trkpt lat="51.821591" lon="4.871075">
        <ele>2.050566</ele>
        <time>2022-01-10T05:35:35.491Z</time>
      </trkpt>
      <trkpt lat="51.821451" lon="4.870684">
        <ele>2.110411</ele>
        <time>2022-01-10T05:35:41.518Z</time>
      </trkpt>
      <trkpt lat="51.821168" lon="4.870345">
        <ele>2.076792</ele>
        <time>2022-01-10T05:35:49.174Z</time>
      </trkpt>
      <trkpt lat="51.820942" lon="4.870159">
        <ele>2.031336</ele>
        <time>2022-01-10T05:35:54.760Z</time>
      </trkpt>
      <trkpt lat="51.820547" lon="4.869970">
        <ele>1.957493</ele>
        <time>2022-01-10T05:36:03.581Z</time>
      </trkpt>
      <trkpt lat="51.820319" lon="4.869829">
        <ele>1.913735</ele>
        <time>2022-01-10T05:36:08.739Z</time>
      </trkpt>
      <trkpt lat="51.820218" lon="4.869657">
        <ele>1.887446</ele>
        <time>2022-01-10T05:36:11.939Z</time>
      </trkpt>
      <trkpt lat="51.820140" lon="4.869286">
        <ele>1.844022</ele>
        <time>2022-01-10T05:36:17.328Z</time>
      </trkpt>
      <trkpt lat="51.819962" lon="4.867752">
        <ele>1.736947</ele>
        <time>2022-01-10T05:36:39.110Z</time>
      </trkpt>
      <trkpt lat="51.819787" lon="4.865962">
        <ele>1.640785</ele>
        <time>2022-01-10T05:37:04.891Z</time>
      </trkpt>
      <trkpt lat="51.819724" lon="4.864248">
        <ele>1.631316</ele>
        <time>2022-01-10T05:37:29.828Z</time>
      </trkpt>
      <trkpt lat="51.819746" lon="4.862941">
        <ele>1.596875</ele>
        <time>2022-01-10T05:37:48.301Z</time>
      </trkpt>
      <trkpt lat="51.819853" lon="4.862246">
        <ele>1.503104</ele>
        <time>2022-01-10T05:37:58.347Z</time>
      </trkpt>
      <trkpt lat="51.820813" lon="4.858680">
        <ele>0.820935</ele>
        <time>2022-01-10T05:38:51.622Z</time>
      </trkpt>
      <trkpt lat="51.820844" lon="4.858554">
        <ele>0.790921</ele>
        <time>2022-01-10T05:38:53.300Z</time>
      </trkpt>
      <trkpt lat="51.821022" lon="4.857863">
        <ele>0.625239</ele>
        <time>2022-01-10T05:39:02.715Z</time>
      </trkpt>
      <trkpt lat="51.821080" lon="4.857504">
        <ele>0.575024</ele>
        <time>2022-01-10T05:39:07.436Z</time>
      </trkpt>
      <trkpt lat="51.821073" lon="4.857190">
        <ele>0.544262</ele>
        <time>2022-01-10T05:39:11.401Z</time>
      </trkpt>
      <trkpt lat="51.821022" lon="4.855433">
        <ele>0.372057</ele>
        <time>2022-01-10T05:39:34.633Z</time>
      </trkpt>
      <trkpt lat="51.821054" lon="4.850646">
        <ele>0.878811</ele>
        <time>2022-01-10T05:40:45.472Z</time>
      </trkpt>
      <trkpt lat="51.821054" lon="4.850600">
        <ele>0.872917</ele>
        <time>2022-01-10T05:40:46.123Z</time>
      </trkpt>
      <trkpt lat="51.821054" lon="4.849592">
        <ele>0.743759</ele>
        <time>2022-01-10T05:40:58.773Z</time>
      </trkpt>
      <trkpt lat="51.821034" lon="4.847230">
        <ele>-0.172519</ele>
        <time>2022-01-10T05:41:27.261Z</time>
      </trkpt>
      <trkpt lat="51.821039" lon="4.847105">
        <ele>-0.231137</ele>
        <time>2022-01-10T05:41:28.744Z</time>
      </trkpt>
      <trkpt lat="51.821103" lon="4.846274">
        <ele>-0.623023</ele>
        <time>2022-01-10T05:41:39.035Z</time>
      </trkpt>
      <trkpt lat="51.821171" lon="4.845521">
        <ele>-0.632531</ele>
        <time>2022-01-10T05:41:48.900Z</time>
      </trkpt>
      <trkpt lat="51.821260" lon="4.844929">
        <ele>-0.576715</ele>
        <time>2022-01-10T05:42:00.182Z</time>
      </trkpt>
      <trkpt lat="51.821343" lon="4.844729">
        <ele>-0.554646</ele>
        <time>2022-01-10T05:42:04.786Z</time>
      </trkpt>
      <trkpt lat="51.821329" lon="4.844652">
        <ele>-0.547293</ele>
        <time>2022-01-10T05:42:06.044Z</time>
      </trkpt>
      <trkpt lat="51.821317" lon="4.844568">
        <ele>-0.539395</ele>
        <time>2022-01-10T05:42:07.384Z</time>
      </trkpt>
      <trkpt lat="51.821300" lon="4.844306">
        <ele>-0.515260</ele>
        <time>2022-01-10T05:42:11.411Z</time>
      </trkpt>
      <trkpt lat="51.821447" lon="4.843115">
        <ele>-0.389297</ele>
        <time>2022-01-10T05:42:30.130Z</time>
      </trkpt>
      <trkpt lat="51.821466" lon="4.843014">
        <ele>-0.372022</ele>
        <time>2022-01-10T05:42:31.787Z</time>
      </trkpt>
      <trkpt lat="51.821216" lon="4.842825">
        <ele>-0.298974</ele>
        <time>2022-01-10T05:42:38.332Z</time>
      </trkpt>
      <trkpt lat="51.821516" lon="4.841479">
        <ele>-0.064854</ele>
        <time>2022-01-10T05:42:59.317Z</time>
      </trkpt>
      <trkpt lat="51.821882" lon="4.838554">
        <ele>-0.057236</ele>
        <time>2022-01-10T05:43:39.891Z</time>
      </trkpt>
      <trkpt lat="51.821837" lon="4.837979">
        <ele>-0.085600</ele>
        <time>2022-01-10T05:43:47.597Z</time>
      </trkpt>
      <trkpt lat="51.821328" lon="4.835490">
        <ele>-0.294570</ele>
        <time>2022-01-10T05:44:22.693Z</time>
      </trkpt>
      <trkpt lat="51.821378" lon="4.835326">
        <ele>-0.309298</ele>
        <time>2022-01-10T05:44:25.211Z</time>
      </trkpt>
      <trkpt lat="51.821939" lon="4.834961">
        <ele>-0.389698</ele>
        <time>2022-01-10T05:44:38.338Z</time>
      </trkpt>
      <trkpt lat="51.822353" lon="4.834837">
        <ele>-0.445924</ele>
        <time>2022-01-10T05:44:47.924Z</time>
      </trkpt>
      <trkpt lat="51.821863" lon="4.832359">
        <ele>-0.651213</ele>
        <time>2022-01-10T05:45:24.331Z</time>
      </trkpt>
      <trkpt lat="51.821650" lon="4.830745">
        <ele>-0.774168</ele>
        <time>2022-01-10T05:45:47.274Z</time>
      </trkpt>
      <trkpt lat="51.821537" lon="4.829247">
        <ele>-0.669040</ele>
        <time>2022-01-10T05:46:08.991Z</time>
      </trkpt>
      <trkpt lat="51.821448" lon="4.827354">
        <ele>-0.525879</ele>
        <time>2022-01-10T05:46:37.606Z</time>
      </trkpt>
      <trkpt lat="51.821466" lon="4.826964">
        <ele>-0.500021</ele>
        <time>2022-01-10T05:46:43.483Z</time>
      </trkpt>
      <trkpt lat="51.821445" lon="4.826396">
        <ele>-0.462399</ele>
        <time>2022-01-10T05:46:51.740Z</time>
      </trkpt>
      <trkpt lat="51.821067" lon="4.817332">
        <ele>0.175931</ele>
        <time>2022-01-10T05:48:58.292Z</time>
      </trkpt>
      <trkpt lat="51.821097" lon="4.814684">
        <ele>0.479585</ele>
        <time>2022-01-10T05:49:36.014Z</time>
      </trkpt>
      <trkpt lat="51.821102" lon="4.814317">
        <ele>0.529565</ele>
        <time>2022-01-10T05:49:41.304Z</time>
      </trkpt>
      <trkpt lat="51.821441" lon="4.811239">
        <ele>0.939201</ele>
        <time>2022-01-10T05:50:26.021Z</time>
      </trkpt>
      <trkpt lat="51.822030" lon="4.808274">
        <ele>1.068970</ele>
        <time>2022-01-10T05:51:09.926Z</time>
      </trkpt>
      <trkpt lat="51.822143" lon="4.806830">
        <ele>0.864129</ele>
        <time>2022-01-10T05:51:29.218Z</time>
      </trkpt>
      <trkpt lat="51.822177" lon="4.805269">
        <ele>0.454340</ele>
        <time>2022-01-10T05:51:48.877Z</time>
      </trkpt>
      <trkpt lat="51.822242" lon="4.804873">
        <ele>0.346847</ele>
        <time>2022-01-10T05:51:53.978Z</time>
      </trkpt>
      <trkpt lat="51.822273" lon="4.804613">
        <ele>0.296586</ele>
        <time>2022-01-10T05:51:57.446Z</time>
      </trkpt>
      <trkpt lat="51.822043" lon="4.804767">
        <ele>0.250859</ele>
        <time>2022-01-10T05:52:02.768Z</time>
      </trkpt>
      <trkpt lat="51.820817" lon="4.804816">
        <ele>0.025568</ele>
        <time>2022-01-10T05:52:30.012Z</time>
      </trkpt>
      <trkpt lat="51.819894" lon="4.804771">
        <ele>0.215737</ele>
        <time>2022-01-10T05:52:52.916Z</time>
      </trkpt>
      <trkpt lat="51.819698" lon="4.804684">
        <ele>0.285964</ele>
        <time>2022-01-10T05:52:57.974Z</time>
      </trkpt>
      <trkpt lat="51.819568" lon="4.804555">
        <ele>0.338660</ele>
        <time>2022-01-10T05:53:01.851Z</time>
      </trkpt>
      <trkpt lat="51.819406" lon="4.804260">
        <ele>0.422942</ele>
        <time>2022-01-10T05:53:07.956Z</time>
      </trkpt>
      <trkpt lat="51.819371" lon="4.804143">
        <ele>0.450704</ele>
        <time>2022-01-10T05:53:10.016Z</time>
      </trkpt>
      <trkpt lat="51.819342" lon="4.803656">
        <ele>0.555203</ele>
        <time>2022-01-10T05:53:17.591Z</time>
      </trkpt>
      <trkpt lat="51.819514" lon="4.801807">
        <ele>0.682274</ele>
        <time>2022-01-10T05:53:45.482Z</time>
      </trkpt>
      <trkpt lat="51.819697" lon="4.800997">
        <ele>0.724087</ele>
        <time>2022-01-10T05:53:57.496Z</time>
      </trkpt>
      <trkpt lat="51.819911" lon="4.800321">
        <ele>0.734134</ele>
        <time>2022-01-10T05:54:07.913Z</time>
      </trkpt>
      <trkpt lat="51.820100" lon="4.798800">
        <ele>0.694407</ele>
        <time>2022-01-10T05:54:29.490Z</time>
      </trkpt>
      <trkpt lat="51.820089" lon="4.796855">
        <ele>0.841129</ele>
        <time>2022-01-10T05:54:58.309Z</time>
      </trkpt>
      <trkpt lat="51.820042" lon="4.796529">
        <ele>0.901947</ele>
        <time>2022-01-10T05:55:03.404Z</time>
      </trkpt>
      <trkpt lat="51.820027" lon="4.796421">
        <ele>0.922057</ele>
        <time>2022-01-10T05:55:05.037Z</time>
      </trkpt>
      <trkpt lat="51.819997" lon="4.796234">
        <ele>0.957157</ele>
        <time>2022-01-10T05:55:07.920Z</time>
      </trkpt>
      <trkpt lat="51.819943" lon="4.795948">
        <ele>1.011487</ele>
        <time>2022-01-10T05:55:12.499Z</time>
      </trkpt>
      <trkpt lat="51.819338" lon="4.794199">
        <ele>1.263730</ele>
        <time>2022-01-10T05:55:42.912Z</time>
      </trkpt>
      <trkpt lat="51.819191" lon="4.793295">
        <ele>1.326860</ele>
        <time>2022-01-10T05:55:56.529Z</time>
      </trkpt>
      <trkpt lat="51.818588" lon="4.791632">
        <ele>1.315391</ele>
        <time>2022-01-10T05:56:23.715Z</time>
      </trkpt>
      <trkpt lat="51.818305" lon="4.790995">
        <ele>1.249278</ele>
        <time>2022-01-10T05:56:34.824Z</time>
      </trkpt>
      <trkpt lat="51.818070" lon="4.790392">
        <ele>1.189200</ele>
        <time>2022-01-10T05:56:44.778Z</time>
      </trkpt>
      <trkpt lat="51.817805" lon="4.789684">
        <ele>1.118725</ele>
        <time>2022-01-10T05:56:56.251Z</time>
      </trkpt>
      <trkpt lat="51.817419" lon="4.788861">
        <ele>1.029528</ele>
        <time>2022-01-10T05:57:10.511Z</time>
      </trkpt>
      <trkpt lat="51.817371" lon="4.788823">
        <ele>1.022063</ele>
        <time>2022-01-10T05:57:11.742Z</time>
      </trkpt>
      <trkpt lat="51.817312" lon="4.788758">
        <ele>1.012093</ele>
        <time>2022-01-10T05:57:13.370Z</time>
      </trkpt>
      <trkpt lat="51.817155" lon="4.788810">
        <ele>0.989709</ele>
        <time>2022-01-10T05:57:17.013Z</time>
      </trkpt>
      <trkpt lat="51.817007" lon="4.788694">
        <ele>0.966739</ele>
        <time>2022-01-10T05:57:20.896Z</time>
      </trkpt>
      <trkpt lat="51.816892" lon="4.788344">
        <ele>0.932515</ele>
        <time>2022-01-10T05:57:26.495Z</time>
      </trkpt>
      <trkpt lat="51.816857" lon="4.787476">
        <ele>0.875648</ele>
        <time>2022-01-10T05:57:38.423Z</time>
      </trkpt>
      <trkpt lat="51.816718" lon="4.786938">
        <ele>0.848154</ele>
        <time>2022-01-10T05:57:46.523Z</time>
      </trkpt>
      <trkpt lat="51.816569" lon="4.786363">
        <ele>0.818757</ele>
        <time>2022-01-10T05:57:55.357Z</time>
      </trkpt>
      <trkpt lat="51.816374" lon="4.785521">
        <ele>0.776361</ele>
        <time>2022-01-10T05:58:08.249Z</time>
      </trkpt>
      <trkpt lat="51.816326" lon="4.785089">
        <ele>0.767499</ele>
        <time>2022-01-10T05:58:14.727Z</time>
      </trkpt>
      <trkpt lat="51.816325" lon="4.784257">
        <ele>0.826313</ele>
        <time>2022-01-10T05:58:26.837Z</time>
      </trkpt>
      <trkpt lat="51.816429" lon="4.782374">
        <ele>0.959953</ele>
        <time>2022-01-10T05:58:54.415Z</time>
      </trkpt>
      <trkpt lat="51.816872" lon="4.781049">
        <ele>1.198966</ele>
        <time>2022-01-10T05:59:16.315Z</time>
      </trkpt>
      <trkpt lat="51.817199" lon="4.780089">
        <ele>1.378763</ele>
        <time>2022-01-10T05:59:32.916Z</time>
      </trkpt>
      <trkpt lat="51.817301" lon="4.779791">
        <ele>1.434638</ele>
        <time>2022-01-10T05:59:38.220Z</time>
      </trkpt>
      <trkpt lat="51.817511" lon="4.779196">
        <ele>1.567435</ele>
        <time>2022-01-10T05:59:49.184Z</time>
      </trkpt>
      <trkpt lat="51.818319" lon="4.777034">
        <ele>1.990712</ele>
        <time>2022-01-10T06:00:27.281Z</time>
      </trkpt>
      <trkpt lat="51.817864" lon="4.776752">
        <ele>1.915058</ele>
        <time>2022-01-10T06:00:38.211Z</time>
      </trkpt>
      <trkpt lat="51.817612" lon="4.776535">
        <ele>1.870733</ele>
        <time>2022-01-10T06:00:44.583Z</time>
      </trkpt>
      <trkpt lat="51.817333" lon="4.776297">
        <ele>1.821760</ele>
        <time>2022-01-10T06:00:51.586Z</time>
      </trkpt>
      <trkpt lat="51.816800" lon="4.775900">
        <ele>1.731396</ele>
        <time>2022-01-10T06:01:04.316Z</time>
      </trkpt>
      <trkpt lat="51.816461" lon="4.773743">
        <ele>1.551836</ele>
        <time>2022-01-10T06:01:35.347Z</time>
      </trkpt>
      <trkpt lat="51.816358" lon="4.772824">
        <ele>1.525105</ele>
        <time>2022-01-10T06:01:49.169Z</time>
      </trkpt>
      <trkpt lat="51.816393" lon="4.772213">
        <ele>1.575492</ele>
        <time>2022-01-10T06:01:58.170Z</time>
      </trkpt>
      <trkpt lat="51.816400" lon="4.772100">
        <ele>1.584818</ele>
        <time>2022-01-10T06:01:59.855Z</time>
      </trkpt>
      <trkpt lat="51.816500" lon="4.771600">
        <ele>1.627970</ele>
        <time>2022-01-10T06:02:07.406Z</time>
      </trkpt>
      <trkpt lat="51.816883" lon="4.768741">
        <ele>2.074006</ele>
        <time>2022-01-10T06:02:50.583Z</time>
      </trkpt>
      <trkpt lat="51.817022" lon="4.767839">
        <ele>2.272427</ele>
        <time>2022-01-10T06:03:05.100Z</time>
      </trkpt>
      <trkpt lat="51.818053" lon="4.768760">
        <ele>2.721906</ele>
        <time>2022-01-10T06:03:35.064Z</time>
      </trkpt>
      <trkpt lat="51.818178" lon="4.768867">
        <ele>2.777301</ele>
        <time>2022-01-10T06:03:38.585Z</time>
      </trkpt>
      <trkpt lat="51.818994" lon="4.769602">
        <ele>2.991564</ele>
        <time>2022-01-10T06:04:00.185Z</time>
      </trkpt>
      <trkpt lat="51.819402" lon="4.769979">
        <ele>2.818267</ele>
        <time>2022-01-10T06:04:10.090Z</time>
      </trkpt>
      <trkpt lat="51.819911" lon="4.770403">
        <ele>2.607110</ele>
        <time>2022-01-10T06:04:21.819Z</time>
      </trkpt>
      <trkpt lat="51.819929" lon="4.770313">
        <ele>2.585544</ele>
        <time>2022-01-10T06:04:23.055Z</time>
      </trkpt>
      <trkpt lat="51.819980" lon="4.770130">
        <ele>2.539779</ele>
        <time>2022-01-10T06:04:25.664Z</time>
      </trkpt>
      <trkpt lat="51.820268" lon="4.769332">
        <ele>2.343238</ele>
        <time>2022-01-10T06:04:37.706Z</time>
      </trkpt>
      <trkpt lat="51.820200" lon="4.769200">
        <ele>2.311689</ele>
        <time>2022-01-10T06:04:39.939Z</time>
      </trkpt>
      <trkpt lat="51.820200" lon="4.769000">
        <ele>2.274969</ele>
        <time>2022-01-10T06:04:42.592Z</time>
      </trkpt>
      <trkpt lat="51.821341" lon="4.765659">
        <ele>2.011672</ele>
        <time>2022-01-10T06:05:35.833Z</time>
      </trkpt>
      <trkpt lat="51.821600" lon="4.765300">
        <ele>2.061492</ele>
        <time>2022-01-10T06:05:44.365Z</time>
      </trkpt>
      <trkpt lat="51.821690" lon="4.765302">
        <ele>2.074640</ele>
        <time>2022-01-10T06:05:46.606Z</time>
      </trkpt>
      <trkpt lat="51.822012" lon="4.765325">
        <ele>2.121722</ele>
        <time>2022-01-10T06:05:54.679Z</time>
      </trkpt>
      <trkpt lat="51.822397" lon="4.765326">
        <ele>2.261180</ele>
        <time>2022-01-10T06:06:04.337Z</time>
      </trkpt>
      <trkpt lat="51.822783" lon="4.765332">
        <ele>2.415774</ele>
        <time>2022-01-10T06:06:14.109Z</time>
      </trkpt>
      <trkpt lat="51.822905" lon="4.765331">
        <ele>2.464634</ele>
        <time>2022-01-10T06:06:17.244Z</time>
      </trkpt>
      <trkpt lat="51.823056" lon="4.765365">
        <ele>2.525690</ele>
        <time>2022-01-10T06:06:21.048Z</time>
      </trkpt>
      <trkpt lat="51.823759" lon="4.765732">
        <ele>2.821525</ele>
        <time>2022-01-10T06:06:39.353Z</time>
      </trkpt>
      <trkpt lat="51.823831" lon="4.765767">
        <ele>2.849823</ele>
        <time>2022-01-10T06:06:41.169Z</time>
      </trkpt>
      <trkpt lat="51.823898" lon="4.765801">
        <ele>2.832643</ele>
        <time>2022-01-10T06:06:42.866Z</time>
      </trkpt>
      <trkpt lat="51.824049" lon="4.765877">
        <ele>2.793952</ele>
        <time>2022-01-10T06:06:46.562Z</time>
      </trkpt>
      <trkpt lat="51.824550" lon="4.766123">
        <ele>2.665853</ele>
        <time>2022-01-10T06:06:58.405Z</time>
      </trkpt>
      <trkpt lat="51.824941" lon="4.764395">
        <ele>2.371802</ele>
        <time>2022-01-10T06:07:23.054Z</time>
      </trkpt>
      <trkpt lat="51.824922" lon="4.763563">
        <ele>2.158993</ele>
        <time>2022-01-10T06:07:33.930Z</time>
      </trkpt>
      <trkpt lat="51.824914" lon="4.763155">
        <ele>2.054653</ele>
        <time>2022-01-10T06:07:39.181Z</time>
      </trkpt>
      <trkpt lat="51.824899" lon="4.762412">
        <ele>1.864637</ele>
        <time>2022-01-10T06:07:49.191Z</time>
      </trkpt>
      <trkpt lat="51.824900" lon="4.762000">
        <ele>1.759326</ele>
        <time>2022-01-10T06:07:54.807Z</time>
      </trkpt>
      <trkpt lat="51.824778" lon="4.760896">
        <ele>1.760648</ele>
        <time>2022-01-10T06:08:10.745Z</time>
      </trkpt>
      <trkpt lat="51.824600" lon="4.759800">
        <ele>1.901117</ele>
        <time>2022-01-10T06:08:27.620Z</time>
      </trkpt>
      <trkpt lat="51.824600" lon="4.759400">
        <ele>1.950700</ele>
        <time>2022-01-10T06:08:33.639Z</time>
      </trkpt>
      <trkpt lat="51.824400" lon="4.758500">
        <ele>2.033487</ele>
        <time>2022-01-10T06:08:48.302Z</time>
      </trkpt>
      <trkpt lat="51.824500" lon="4.757600">
        <ele>2.050145</ele>
        <time>2022-01-10T06:09:02.258Z</time>
      </trkpt>
      <trkpt lat="51.824452" lon="4.756670">
        <ele>2.067145</ele>
        <time>2022-01-10T06:09:15.608Z</time>
      </trkpt>
      <trkpt lat="51.824850" lon="4.755373">
        <ele>1.969230</ele>
        <time>2022-01-10T06:09:34.983Z</time>
      </trkpt>
      <trkpt lat="51.824808" lon="4.754945">
        <ele>1.902715</ele>
        <time>2022-01-10T06:09:40.819Z</time>
      </trkpt>
      <trkpt lat="51.824273" lon="4.753701">
        <ele>1.670099</ele>
        <time>2022-01-10T06:10:01.711Z</time>
      </trkpt>
      <trkpt lat="51.823789" lon="4.752198">
        <ele>1.796615</ele>
        <time>2022-01-10T06:10:26.187Z</time>
      </trkpt>
      <trkpt lat="51.823581" lon="4.751623">
        <ele>1.871103</ele>
        <time>2022-01-10T06:10:36.303Z</time>
      </trkpt>
      <trkpt lat="51.823483" lon="4.750685">
        <ele>1.959932</ele>
        <time>2022-01-10T06:10:51.105Z</time>
      </trkpt>
      <trkpt lat="51.823554" lon="4.747975">
        <ele>1.974884</ele>
        <time>2022-01-10T06:11:29.967Z</time>
      </trkpt>
      <trkpt lat="51.823691" lon="4.746163">
        <ele>1.693808</ele>
        <time>2022-01-10T06:11:54.092Z</time>
      </trkpt>
      <trkpt lat="51.823797" lon="4.744376">
        <ele>1.597929</ele>
        <time>2022-01-10T06:12:19.677Z</time>
      </trkpt>
      <trkpt lat="51.823798" lon="4.744119">
        <ele>1.628019</ele>
        <time>2022-01-10T06:12:23.637Z</time>
      </trkpt>
      <trkpt lat="51.823775" lon="4.743349">
        <ele>1.718274</ele>
        <time>2022-01-10T06:12:35.339Z</time>
      </trkpt>
      <trkpt lat="51.823740" lon="4.742848">
        <ele>1.777303</ele>
        <time>2022-01-10T06:12:42.937Z</time>
      </trkpt>
      <trkpt lat="51.823676" lon="4.741916">
        <ele>1.837021</ele>
        <time>2022-01-10T06:12:56.911Z</time>
      </trkpt>
      <trkpt lat="51.823664" lon="4.741803">
        <ele>1.826305</ele>
        <time>2022-01-10T06:12:58.516Z</time>
      </trkpt>
      <trkpt lat="51.823641" lon="4.741637">
        <ele>1.810404</ele>
        <time>2022-01-10T06:13:00.909Z</time>
      </trkpt>
      <trkpt lat="51.823606" lon="4.741380">
        <ele>1.785807</ele>
        <time>2022-01-10T06:13:04.594Z</time>
      </trkpt>
      <trkpt lat="51.823253" lon="4.739192">
        <ele>1.560477</ele>
        <time>2022-01-10T06:13:34.307Z</time>
      </trkpt>
      <trkpt lat="51.823308" lon="4.738783">
        <ele>1.478678</ele>
        <time>2022-01-10T06:13:39.619Z</time>
      </trkpt>
      <trkpt lat="51.823509" lon="4.738464">
        <ele>1.389655</ele>
        <time>2022-01-10T06:13:45.426Z</time>
      </trkpt>
      <trkpt lat="51.824509" lon="4.737621">
        <ele>1.033132</ele>
        <time>2022-01-10T06:14:09.398Z</time>
      </trkpt>
      <trkpt lat="51.825077" lon="4.737219">
        <ele>1.020756</ele>
        <time>2022-01-10T06:14:22.796Z</time>
      </trkpt>
      <trkpt lat="51.825643" lon="4.736886">
        <ele>1.023053</ele>
        <time>2022-01-10T06:14:36.136Z</time>
      </trkpt>
      <trkpt lat="51.825924" lon="4.736561">
        <ele>1.024370</ele>
        <time>2022-01-10T06:14:43.954Z</time>
      </trkpt>
      <trkpt lat="51.826049" lon="4.736324">
        <ele>1.025104</ele>
        <time>2022-01-10T06:14:48.416Z</time>
      </trkpt>
      <trkpt lat="51.826211" lon="4.735943">
        <ele>1.040204</ele>
        <time>2022-01-10T06:14:55.235Z</time>
      </trkpt>
      <trkpt lat="51.826327" lon="4.735668">
        <ele>1.055309</ele>
        <time>2022-01-10T06:14:59.942Z</time>
      </trkpt>
      <trkpt lat="51.826432" lon="4.735351">
        <ele>1.071625</ele>
        <time>2022-01-10T06:15:05.014Z</time>
      </trkpt>
      <trkpt lat="51.826913" lon="4.734368">
        <ele>1.128506</ele>
        <time>2022-01-10T06:15:21.976Z</time>
      </trkpt>
      <trkpt lat="51.827085" lon="4.734002">
        <ele>1.149365</ele>
        <time>2022-01-10T06:15:28.417Z</time>
      </trkpt>
      <trkpt lat="51.827352" lon="4.733850">
        <ele>1.163884</ele>
        <time>2022-01-10T06:15:35.270Z</time>
      </trkpt>
      <trkpt lat="51.827401" lon="4.733934">
        <ele>1.166539</ele>
        <time>2022-01-10T06:15:36.849Z</time>
      </trkpt>
      <trkpt lat="51.827446" lon="4.733913">
        <ele>1.168282</ele>
        <time>2022-01-10T06:15:37.931Z</time>
      </trkpt>
      <trkpt lat="51.827511" lon="4.733872">
        <ele>1.170877</ele>
        <time>2022-01-10T06:15:39.569Z</time>
      </trkpt>
      <trkpt lat="51.827651" lon="4.733675">
        <ele>1.177778</ele>
        <time>2022-01-10T06:15:44.039Z</time>
      </trkpt>
      <trkpt lat="51.827704" lon="4.733701">
        <ele>1.179839</ele>
        <time>2022-01-10T06:15:45.214Z</time>
      </trkpt>
      <trkpt lat="51.827978" lon="4.733838">
        <ele>1.190506</ele>
        <time>2022-01-10T06:15:51.899Z</time>
      </trkpt>
      <trkpt lat="51.828364" lon="4.733928">
        <ele>1.205013</ele>
        <time>2022-01-10T06:16:00.715Z</time>
      </trkpt>
      <trkpt lat="51.828494" lon="4.733805">
        <ele>1.210615</ele>
        <time>2022-01-10T06:16:04.005Z</time>
      </trkpt>
      <trkpt lat="51.828604" lon="4.733544">
        <ele>1.217878</ele>
        <time>2022-01-10T06:16:08.241Z</time>
      </trkpt>
      <trkpt lat="51.829011" lon="4.732121">
        <ele>1.416879</ele>
        <time>2022-01-10T06:16:31.115Z</time>
      </trkpt>
      <trkpt lat="51.829895" lon="4.729344">
        <ele>1.071938</ele>
        <time>2022-01-10T06:17:17.651Z</time>
      </trkpt>
      <trkpt lat="51.830014" lon="4.728600">
        <ele>0.770487</ele>
        <time>2022-01-10T06:17:26.957Z</time>
      </trkpt>
      <trkpt lat="51.830316" lon="4.728745">
        <ele>0.570543</ele>
        <time>2022-01-10T06:17:32.928Z</time>
      </trkpt>
      <trkpt lat="51.830996" lon="4.729224">
        <ele>-0.342507</ele>
        <time>2022-01-10T06:17:46.842Z</time>
      </trkpt>
      <trkpt lat="51.831442" lon="4.729509">
        <ele>-0.968451</ele>
        <time>2022-01-10T06:17:55.882Z</time>
      </trkpt>
      <trkpt lat="51.831975" lon="4.729855">
        <ele>-1.718107</ele>
        <time>2022-01-10T06:18:07.142Z</time>
      </trkpt>
      <trkpt lat="51.832054" lon="4.729905">
        <ele>-1.828838</ele>
        <time>2022-01-10T06:18:08.897Z</time>
      </trkpt>
      <trkpt lat="51.833596" lon="4.730829">
        <ele>-1.459071</ele>
        <time>2022-01-10T06:18:50.193Z</time>
      </trkpt>
      <trkpt lat="51.833652" lon="4.730870">
        <ele>-1.445222</ele>
        <time>2022-01-10T06:18:51.726Z</time>
      </trkpt>
      <trkpt lat="51.833784" lon="4.730951">
        <ele>-1.422001</ele>
        <time>2022-01-10T06:18:55.315Z</time>
      </trkpt>
      <trkpt lat="51.833835" lon="4.730979">
        <ele>-1.419533</ele>
        <time>2022-01-10T06:18:56.524Z</time>
      </trkpt>
      <trkpt lat="51.834466" lon="4.731365">
        <ele>-1.388611</ele>
        <time>2022-01-10T06:19:11.559Z</time>
      </trkpt>
      <trkpt lat="51.834531" lon="4.731347">
        <ele>-1.385588</ele>
        <time>2022-01-10T06:19:12.998Z</time>
      </trkpt>
      <trkpt lat="51.834598" lon="4.731096">
        <ele>-1.377844</ele>
        <time>2022-01-10T06:19:16.569Z</time>
      </trkpt>
      <trkpt lat="51.834622" lon="4.730659">
        <ele>-1.365417</ele>
        <time>2022-01-10T06:19:22.581Z</time>
      </trkpt>
      <trkpt lat="51.834709" lon="4.729973">
        <ele>-1.345581</ele>
        <time>2022-01-10T06:19:32.115Z</time>
      </trkpt>
      <trkpt lat="51.835385" lon="4.727076">
        <ele>-1.113320</ele>
        <time>2022-01-10T06:20:16.370Z</time>
      </trkpt>
      <trkpt lat="51.837227" lon="4.719098">
        <ele>-2.182564</ele>
        <time>2022-01-10T06:22:08.295Z</time>
      </trkpt>
      <trkpt lat="51.837250" lon="4.718982">
        <ele>-2.192944</ele>
        <time>2022-01-10T06:22:10.048Z</time>
      </trkpt>
      <trkpt lat="51.837520" lon="4.717310">
        <ele>-1.416632</ele>
        <time>2022-01-10T06:22:36.371Z</time>
      </trkpt>
      <trkpt lat="51.837707" lon="4.715685">
        <ele>-0.708958</ele>
        <time>2022-01-10T06:23:04.183Z</time>
      </trkpt>
      <trkpt lat="51.837715" lon="4.715597">
        <ele>-0.679783</ele>
        <time>2022-01-10T06:23:05.674Z</time>
      </trkpt>
      <trkpt lat="51.837832" lon="4.714258">
        <ele>-0.236216</ele>
        <time>2022-01-10T06:23:26.296Z</time>
      </trkpt>
      <trkpt lat="51.838193" lon="4.712614">
        <ele>-0.099192</ele>
        <time>2022-01-10T06:23:50.750Z</time>
      </trkpt>
      <trkpt lat="51.838570" lon="4.710984">
        <ele>-0.607692</ele>
        <time>2022-01-10T06:24:12.229Z</time>
      </trkpt>
      <trkpt lat="51.838785" lon="4.710098">
        <ele>-0.861850</ele>
        <time>2022-01-10T06:24:23.899Z</time>
      </trkpt>
      <trkpt lat="51.839187" lon="4.708990">
        <ele>-1.173570</ele>
        <time>2022-01-10T06:24:39.821Z</time>
      </trkpt>
      <trkpt lat="51.839781" lon="4.706441">
        <ele>-1.365429</ele>
        <time>2022-01-10T06:25:17.531Z</time>
      </trkpt>
      <trkpt lat="51.840329" lon="4.704134">
        <ele>-1.275641</ele>
        <time>2022-01-10T06:25:52.566Z</time>
      </trkpt>
      <trkpt lat="51.840734" lon="4.702401">
        <ele>-1.247099</ele>
        <time>2022-01-10T06:26:17.915Z</time>
      </trkpt>
      <trkpt lat="51.840846" lon="4.701917">
        <ele>-1.242635</ele>
        <time>2022-01-10T06:26:24.759Z</time>
      </trkpt>
      <trkpt lat="51.841129" lon="4.700694">
        <ele>-1.231356</ele>
        <time>2022-01-10T06:26:42.356Z</time>
      </trkpt>
      <trkpt lat="51.841198" lon="4.700137">
        <ele>-1.226449</ele>
        <time>2022-01-10T06:26:50.369Z</time>
      </trkpt>
      <trkpt lat="51.841479" lon="4.699200">
        <ele>-1.155857</ele>
        <time>2022-01-10T06:27:05.383Z</time>
      </trkpt>
      <trkpt lat="51.841513" lon="4.698957">
        <ele>-1.128333</ele>
        <time>2022-01-10T06:27:08.999Z</time>
      </trkpt>
      <trkpt lat="51.841221" lon="4.697957">
        <ele>-1.006143</ele>
        <time>2022-01-10T06:27:24.603Z</time>
      </trkpt>
      <trkpt lat="51.841229" lon="4.697748">
        <ele>-0.983010</ele>
        <time>2022-01-10T06:27:27.515Z</time>
      </trkpt>
      <trkpt lat="51.841293" lon="4.697585">
        <ele>-0.961674</ele>
        <time>2022-01-10T06:27:30.280Z</time>
      </trkpt>
      <trkpt lat="51.841336" lon="4.697464">
        <ele>-0.946253</ele>
        <time>2022-01-10T06:27:32.274Z</time>
      </trkpt>
      <trkpt lat="51.841399" lon="4.697309">
        <ele>-0.925757</ele>
        <time>2022-01-10T06:27:34.873Z</time>
      </trkpt>
      <trkpt lat="51.842133" lon="4.698278">
        <ele>-0.936785</ele>
        <time>2022-01-10T06:27:56.205Z</time>
      </trkpt>
      <trkpt lat="51.842421" lon="4.698557">
        <ele>-0.951600</ele>
        <time>2022-01-10T06:28:03.584Z</time>
      </trkpt>
      <trkpt lat="51.842760" lon="4.698814">
        <ele>-0.968124</ele>
        <time>2022-01-10T06:28:11.934Z</time>
      </trkpt>
      <trkpt lat="51.842945" lon="4.698928">
        <ele>-0.976861</ele>
        <time>2022-01-10T06:28:16.331Z</time>
      </trkpt>
      <trkpt lat="51.843002" lon="4.699019">
        <ele>-0.980395</ele>
        <time>2022-01-10T06:28:18.035Z</time>
      </trkpt>
      <trkpt lat="51.843728" lon="4.696742">
        <ele>-1.615840</ele>
        <time>2022-01-10T06:28:51.017Z</time>
      </trkpt>
      <trkpt lat="51.843910" lon="4.696253">
        <ele>-1.773865</ele>
        <time>2022-01-10T06:28:58.076Z</time>
      </trkpt>
      <trkpt lat="51.844075" lon="4.696012">
        <ele>-1.889919</ele>
        <time>2022-01-10T06:29:02.480Z</time>
      </trkpt>
      <trkpt lat="51.844451" lon="4.695735">
        <ele>-2.105642</ele>
        <time>2022-01-10T06:29:10.714Z</time>
      </trkpt>
      <trkpt lat="51.844874" lon="4.695618">
        <ele>-2.329729</ele>
        <time>2022-01-10T06:29:19.443Z</time>
      </trkpt>
      <trkpt lat="51.844963" lon="4.695593">
        <ele>-2.376899</ele>
        <time>2022-01-10T06:29:21.271Z</time>
      </trkpt>
      <trkpt lat="51.845777" lon="4.695369">
        <ele>-2.637777</ele>
        <time>2022-01-10T06:29:38.690Z</time>
      </trkpt>
      <trkpt lat="51.850437" lon="4.694235">
        <ele>-2.447002</ele>
        <time>2022-01-10T06:31:24.703Z</time>
      </trkpt>
      <trkpt lat="51.856008" lon="4.692879">
        <ele>-1.310632</ele>
        <time>2022-01-10T06:33:34.718Z</time>
      </trkpt>
      <trkpt lat="51.856127" lon="4.692853">
        <ele>-1.285823</ele>
        <time>2022-01-10T06:33:37.589Z</time>
      </trkpt>
      <trkpt lat="51.856536" lon="4.692843">
        <ele>-1.249557</ele>
        <time>2022-01-10T06:33:47.095Z</time>
      </trkpt>
      <trkpt lat="51.856714" lon="4.693734">
        <ele>-1.199701</ele>
        <time>2022-01-10T06:34:00.268Z</time>
      </trkpt>
      <trkpt lat="51.856803" lon="4.695537">
        <ele>-1.167759</ele>
        <time>2022-01-10T06:34:25.196Z</time>
      </trkpt>
      <trkpt lat="51.856998" lon="4.696624">
        <ele>-1.258693</ele>
        <time>2022-01-10T06:34:39.882Z</time>
      </trkpt>
      <trkpt lat="51.857205" lon="4.697142">
        <ele>-1.308258</ele>
        <time>2022-01-10T06:34:47.999Z</time>
      </trkpt>
      <trkpt lat="51.857400" lon="4.697737">
        <ele>-1.362370</ele>
        <time>2022-01-10T06:34:57.169Z</time>
      </trkpt>
      <trkpt lat="51.857413" lon="4.698099">
        <ele>-1.323873</ele>
        <time>2022-01-10T06:35:02.273Z</time>
      </trkpt>
      <trkpt lat="51.857347" lon="4.699126">
        <ele>-1.209946</ele>
        <time>2022-01-10T06:35:16.905Z</time>
      </trkpt>
      <trkpt lat="51.857439" lon="4.699999">
        <ele>-1.112230</ele>
        <time>2022-01-10T06:35:29.333Z</time>
      </trkpt>
      <trkpt lat="51.857587" lon="4.700784">
        <ele>-0.979372</ele>
        <time>2022-01-10T06:35:41.114Z</time>
      </trkpt>
      <trkpt lat="51.857740" lon="4.701745">
        <ele>-0.638447</ele>
        <time>2022-01-10T06:35:56.428Z</time>
      </trkpt>
      <trkpt lat="51.857858" lon="4.702578">
        <ele>-0.344857</ele>
        <time>2022-01-10T06:36:09.654Z</time>
      </trkpt>
      <trkpt lat="51.858000" lon="4.703000">
        <ele>-0.179768</ele>
        <time>2022-01-10T06:36:16.913Z</time>
      </trkpt>
      <trkpt lat="51.858214" lon="4.703425">
        <ele>-0.011885</ele>
        <time>2022-01-10T06:36:25.019Z</time>
      </trkpt>
      <trkpt lat="51.858495" lon="4.703638">
        <ele>0.089758</ele>
        <time>2022-01-10T06:36:32.554Z</time>
      </trkpt>
      <trkpt lat="51.858592" lon="4.703802">
        <ele>0.135701</ele>
        <time>2022-01-10T06:36:35.853Z</time>
      </trkpt>
      <trkpt lat="51.858716" lon="4.704201">
        <ele>0.226073</ele>
        <time>2022-01-10T06:36:42.434Z</time>
      </trkpt>
      <trkpt lat="51.858755" lon="4.704672">
        <ele>0.322220</ele>
        <time>2022-01-10T06:36:49.506Z</time>
      </trkpt>
      <trkpt lat="51.859086" lon="4.704683">
        <ele>0.430677</ele>
        <time>2022-01-10T06:36:57.357Z</time>
      </trkpt>
      <trkpt lat="51.859307" lon="4.704695">
        <ele>0.503117</ele>
        <time>2022-01-10T06:37:02.475Z</time>
      </trkpt>
      <trkpt lat="51.859560" lon="4.704726">
        <ele>0.517839</ele>
        <time>2022-01-10T06:37:08.171Z</time>
      </trkpt>
      <trkpt lat="51.859576" lon="4.704434">
        <ele>0.471098</ele>
        <time>2022-01-10T06:37:12.205Z</time>
      </trkpt>
      <trkpt lat="51.859335" lon="4.701661">
        <ele>0.027152</ele>
        <time>2022-01-10T06:37:50.127Z</time>
      </trkpt>
      <trkpt lat="51.859350" lon="4.700629">
        <ele>-0.130301</ele>
        <time>2022-01-10T06:38:04.206Z</time>
      </trkpt>
      <trkpt lat="51.859302" lon="4.700301">
        <ele>-0.181716</ele>
        <time>2022-01-10T06:38:08.830Z</time>
      </trkpt>
      <trkpt lat="51.858979" lon="4.699041">
        <ele>-0.372536</ele>
        <time>2022-01-10T06:38:27.690Z</time>
      </trkpt>
      <trkpt lat="51.858590" lon="4.697103">
        <ele>-0.499602</ele>
        <time>2022-01-10T06:38:56.161Z</time>
      </trkpt>
      <trkpt lat="51.858114" lon="4.695588">
        <ele>-0.473752</ele>
        <time>2022-01-10T06:39:20.779Z</time>
      </trkpt>
      <trkpt lat="51.857833" lon="4.693700">
        <ele>-0.352154</ele>
        <time>2022-01-10T06:39:49.337Z</time>
      </trkpt>
      <trkpt lat="51.857763" lon="4.693195">
        <ele>-0.419038</ele>
        <time>2022-01-10T06:39:56.798Z</time>
      </trkpt>
      <trkpt lat="51.857837" lon="4.692807">
        <ele>-0.471516</ele>
        <time>2022-01-10T06:40:02.564Z</time>
      </trkpt>
      <trkpt lat="51.858323" lon="4.691781">
        <ele>-0.638611</ele>
        <time>2022-01-10T06:40:20.424Z</time>
      </trkpt>
      <trkpt lat="51.858523" lon="4.691574">
        <ele>-0.688278</ele>
        <time>2022-01-10T06:40:25.531Z</time>
      </trkpt>
      <trkpt lat="51.858654" lon="4.691640">
        <ele>-0.716985</ele>
        <time>2022-01-10T06:40:28.514Z</time>
      </trkpt>
      <trkpt lat="51.861151" lon="4.693710">
        <ele>-1.903511</ele>
        <time>2022-01-10T06:41:28.583Z</time>
      </trkpt>
      <trkpt lat="51.862650" lon="4.694865">
        <ele>-1.942706</ele>
        <time>2022-01-10T06:42:06.714Z</time>
      </trkpt>
      <trkpt lat="51.863425" lon="4.695244">
        <ele>-1.745302</ele>
        <time>2022-01-10T06:42:27.057Z</time>
      </trkpt>
      <trkpt lat="51.863882" lon="4.695137">
        <ele>-1.589084</ele>
        <time>2022-01-10T06:42:38.841Z</time>
      </trkpt>
      <trkpt lat="51.864471" lon="4.695223">
        <ele>-1.362807</ele>
        <time>2022-01-10T06:42:53.606Z</time>
      </trkpt>
      <trkpt lat="51.864610" lon="4.695147">
        <ele>-1.306674</ele>
        <time>2022-01-10T06:42:57.351Z</time>
      </trkpt>
      <trkpt lat="51.864962" lon="4.694624">
        <ele>-1.123892</ele>
        <time>2022-01-10T06:43:09.171Z</time>
      </trkpt>
      <trkpt lat="51.865503" lon="4.694079">
        <ele>-1.060908</ele>
        <time>2022-01-10T06:43:24.081Z</time>
      </trkpt>
      <trkpt lat="51.865739" lon="4.693562">
        <ele>-1.103707</ele>
        <time>2022-01-10T06:43:33.047Z</time>
      </trkpt>
      <trkpt lat="51.865926" lon="4.693278">
        <ele>-1.131344</ele>
        <time>2022-01-10T06:43:38.770Z</time>
      </trkpt>
      <trkpt lat="51.866426" lon="4.692966">
        <ele>-1.189108</ele>
        <time>2022-01-10T06:43:50.762Z</time>
      </trkpt>
      <trkpt lat="51.866539" lon="4.692814">
        <ele>-1.204944</ele>
        <time>2022-01-10T06:43:54.035Z</time>
      </trkpt>
      <trkpt lat="51.866948" lon="4.692097">
        <ele>-1.223857</ele>
        <time>2022-01-10T06:44:07.649Z</time>
      </trkpt>
      <trkpt lat="51.867131" lon="4.691157">
        <ele>-1.234373</ele>
        <time>2022-01-10T06:44:21.763Z</time>
      </trkpt>
      <trkpt lat="51.867307" lon="4.690819">
        <ele>-1.239091</ele>
        <time>2022-01-10T06:44:28.158Z</time>
      </trkpt>
      <trkpt lat="51.867412" lon="4.690573">
        <ele>-1.242282</ele>
        <time>2022-01-10T06:44:32.297Z</time>
      </trkpt>
      <trkpt lat="51.867516" lon="4.690100">
        <ele>-1.253210</ele>
        <time>2022-01-10T06:44:39.304Z</time>
      </trkpt>
      <trkpt lat="51.867514" lon="4.689904">
        <ele>-1.263095</ele>
        <time>2022-01-10T06:44:42.033Z</time>
      </trkpt>
      <trkpt lat="51.867456" lon="4.689096">
        <ele>-1.304116</ele>
        <time>2022-01-10T06:44:53.377Z</time>
      </trkpt>
      <trkpt lat="51.867412" lon="4.688477">
        <ele>-1.335537</ele>
        <time>2022-01-10T06:45:01.978Z</time>
      </trkpt>
      <trkpt lat="51.867194" lon="4.686647">
        <ele>-1.617574</ele>
        <time>2022-01-10T06:45:26.499Z</time>
      </trkpt>
      <trkpt lat="51.867211" lon="4.685795">
        <ele>-1.882106</ele>
        <time>2022-01-10T06:45:37.285Z</time>
      </trkpt>
      <trkpt lat="51.867430" lon="4.684693">
        <ele>-2.241354</ele>
        <time>2022-01-10T06:45:51.718Z</time>
      </trkpt>
      <trkpt lat="51.867502" lon="4.683618">
        <ele>-2.732027</ele>
        <time>2022-01-10T06:46:04.979Z</time>
      </trkpt>
      <trkpt lat="51.867717" lon="4.682604">
        <ele>-3.249075</ele>
        <time>2022-01-10T06:46:17.864Z</time>
      </trkpt>
      <trkpt lat="51.867737" lon="4.681828">
        <ele>-3.623640</ele>
        <time>2022-01-10T06:46:27.397Z</time>
      </trkpt>
      <trkpt lat="51.867890" lon="4.680777">
        <ele>-3.744843</ele>
        <time>2022-01-10T06:46:40.879Z</time>
      </trkpt>
      <trkpt lat="51.868045" lon="4.679520">
        <ele>-3.805035</ele>
        <time>2022-01-10T06:46:58.120Z</time>
      </trkpt>
      <trkpt lat="51.868034" lon="4.679186">
        <ele>-3.820741</ele>
        <time>2022-01-10T06:47:02.855Z</time>
      </trkpt>
      <trkpt lat="51.867930" lon="4.678941">
        <ele>-3.834702</ele>
        <time>2022-01-10T06:47:07.170Z</time>
      </trkpt>
      <trkpt lat="51.866252" lon="4.677698">
        <ele>-2.103768</ele>
        <time>2022-01-10T06:47:56.680Z</time>
      </trkpt>
      <trkpt lat="51.866061" lon="4.677373">
        <ele>-1.966800</ele>
        <time>2022-01-10T06:48:03.689Z</time>
      </trkpt>
      <trkpt lat="51.865983" lon="4.676938">
        <ele>-1.830310</ele>
        <time>2022-01-10T06:48:10.653Z</time>
      </trkpt>
      <trkpt lat="51.865929" lon="4.676573">
        <ele>-1.717214</ele>
        <time>2022-01-10T06:48:16.168Z</time>
      </trkpt>
      <trkpt lat="51.865987" lon="4.675870">
        <ele>-1.503501</ele>
        <time>2022-01-10T06:48:26.780Z</time>
      </trkpt>
      <trkpt lat="51.865905" lon="4.675207">
        <ele>-1.299755</ele>
        <time>2022-01-10T06:48:36.520Z</time>
      </trkpt>
      <trkpt lat="51.865829" lon="4.674687">
        <ele>-1.206329</ele>
        <time>2022-01-10T06:48:43.893Z</time>
      </trkpt>
      <trkpt lat="51.865569" lon="4.674192">
        <ele>-1.168535</ele>
        <time>2022-01-10T06:48:52.518Z</time>
      </trkpt>
      <trkpt lat="51.865684" lon="4.674127">
        <ele>-1.157064</ele>
        <time>2022-01-10T06:48:55.189Z</time>
      </trkpt>
      <trkpt lat="51.866097" lon="4.673946">
        <ele>-1.116767</ele>
        <time>2022-01-10T06:49:04.726Z</time>
      </trkpt>
      <trkpt lat="51.867015" lon="4.673807">
        <ele>-1.014647</ele>
        <time>2022-01-10T06:49:26.283Z</time>
      </trkpt>
      <trkpt lat="51.868565" lon="4.673689">
        <ele>-0.772074</ele>
        <time>2022-01-10T06:50:01.763Z</time>
      </trkpt>
      <trkpt lat="51.869240" lon="4.673650">
        <ele>-0.702003</ele>
        <time>2022-01-10T06:50:16.622Z</time>
      </trkpt>
      <trkpt lat="51.871335" lon="4.673521">
        <ele>-0.469868</ele>
        <time>2022-01-10T06:51:04.673Z</time>
      </trkpt>
      <trkpt lat="51.871551" lon="4.673505">
        <ele>-0.444162</ele>
        <time>2022-01-10T06:51:09.519Z</time>
      </trkpt>
      <trkpt lat="51.871553" lon="4.673432">
        <ele>-0.438798</ele>
        <time>2022-01-10T06:51:10.625Z</time>
      </trkpt>
      <trkpt lat="51.871559" lon="4.672719">
        <ele>-0.386457</ele>
        <time>2022-01-10T06:51:20.915Z</time>
      </trkpt>
      <trkpt lat="51.871567" lon="4.672337">
        <ele>-0.401786</ele>
        <time>2022-01-10T06:51:26.235Z</time>
      </trkpt>
      <trkpt lat="51.871604" lon="4.672195">
        <ele>-0.427575</ele>
        <time>2022-01-10T06:51:28.508Z</time>
      </trkpt>
      <trkpt lat="51.871781" lon="4.671892">
        <ele>-0.497368</ele>
        <time>2022-01-10T06:51:34.139Z</time>
      </trkpt>
      <trkpt lat="51.871966" lon="4.671190">
        <ele>-0.625079</ele>
        <time>2022-01-10T06:51:44.595Z</time>
      </trkpt>
      <trkpt lat="51.872067" lon="4.670963">
        <ele>-0.671895</ele>
        <time>2022-01-10T06:51:48.190Z</time>
      </trkpt>
      <trkpt lat="51.872224" lon="4.670600">
        <ele>-0.746051</ele>
        <time>2022-01-10T06:51:53.976Z</time>
      </trkpt>
      <trkpt lat="51.872335" lon="4.670006">
        <ele>-0.849891</ele>
        <time>2022-01-10T06:52:01.694Z</time>
      </trkpt>
      <trkpt lat="51.872454" lon="4.669642">
        <ele>-1.037659</ele>
        <time>2022-01-10T06:52:06.764Z</time>
      </trkpt>
      <trkpt lat="51.872486" lon="4.669554">
        <ele>-1.088740</ele>
        <time>2022-01-10T06:52:08.017Z</time>
      </trkpt>
      <trkpt lat="51.872656" lon="4.669428">
        <ele>-1.240189</ele>
        <time>2022-01-10T06:52:11.672Z</time>
      </trkpt>
      <trkpt lat="51.873630" lon="4.666561">
        <ele>-2.702026</ele>
        <time>2022-01-10T06:52:51.363Z</time>
      </trkpt>
      <trkpt lat="51.873722" lon="4.666637">
        <ele>-2.759602</ele>
        <time>2022-01-10T06:52:53.325Z</time>
      </trkpt>
      <trkpt lat="51.873819" lon="4.666591">
        <ele>-2.815950</ele>
        <time>2022-01-10T06:52:55.442Z</time>
      </trkpt>
      <trkpt lat="51.874214" lon="4.665450">
        <ele>-3.266207</ele>
        <time>2022-01-10T06:53:12.189Z</time>
      </trkpt>
      <trkpt lat="51.874293" lon="4.665396">
        <ele>-3.314011</ele>
        <time>2022-01-10T06:53:13.939Z</time>
      </trkpt>
      <trkpt lat="51.874367" lon="4.665374">
        <ele>-3.303556</ele>
        <time>2022-01-10T06:53:15.555Z</time>
      </trkpt>
      <trkpt lat="51.874409" lon="4.665283">
        <ele>-3.287419</ele>
        <time>2022-01-10T06:53:17.126Z</time>
      </trkpt>
      <trkpt lat="51.874403" lon="4.663983">
        <ele>-3.102771</ele>
        <time>2022-01-10T06:53:35.488Z</time>
      </trkpt>
      <trkpt lat="51.874715" lon="4.662463">
        <ele>-2.840743</ele>
        <time>2022-01-10T06:53:59.344Z</time>
      </trkpt>
      <trkpt lat="51.875056" lon="4.661170">
        <ele>-2.409825</ele>
        <time>2022-01-10T06:54:20.810Z</time>
      </trkpt>
      <trkpt lat="51.875286" lon="4.660491">
        <ele>-2.172463</ele>
        <time>2022-01-10T06:54:32.355Z</time>
      </trkpt>
      <trkpt lat="51.875325" lon="4.660519">
        <ele>-2.151286</ele>
        <time>2022-01-10T06:54:33.391Z</time>
      </trkpt>
      <trkpt lat="51.875820" lon="4.660859">
        <ele>-1.955881</ele>
        <time>2022-01-10T06:54:46.623Z</time>
      </trkpt>
      <trkpt lat="51.875854" lon="4.660878">
        <ele>-1.948014</ele>
        <time>2022-01-10T06:54:47.486Z</time>
      </trkpt>
      <trkpt lat="51.876310" lon="4.659109">
        <ele>-1.689159</ele>
        <time>2022-01-10T06:55:14.779Z</time>
      </trkpt>
      <trkpt lat="51.879195" lon="4.645500">
        <ele>-1.501645</ele>
        <time>2022-01-10T06:58:32.916Z</time>
      </trkpt>
      <trkpt lat="51.879326" lon="4.645261">
        <ele>-1.499668</ele>
        <time>2022-01-10T06:58:37.298Z</time>
      </trkpt>
      <trkpt lat="51.879661" lon="4.644972">
        <ele>-1.493983</ele>
        <time>2022-01-10T06:58:45.703Z</time>
      </trkpt>
      <trkpt lat="51.879756" lon="4.644893">
        <ele>-1.491527</ele>
        <time>2022-01-10T06:58:48.078Z</time>
      </trkpt>
      <trkpt lat="51.882835" lon="4.642148">
        <ele>-1.336429</ele>
        <time>2022-01-10T07:00:06.760Z</time>
      </trkpt>
      <trkpt lat="51.883233" lon="4.641776">
        <ele>-1.237189</ele>
        <time>2022-01-10T07:00:17.311Z</time>
      </trkpt>
      <trkpt lat="51.883667" lon="4.641389">
        <ele>-1.130194</ele>
        <time>2022-01-10T07:00:28.879Z</time>
      </trkpt>
      <trkpt lat="51.884154" lon="4.640966">
        <ele>-1.010849</ele>
        <time>2022-01-10T07:00:41.726Z</time>
      </trkpt>
      <trkpt lat="51.886749" lon="4.638659">
        <ele>-0.566184</ele>
        <time>2022-01-10T07:01:49.478Z</time>
      </trkpt>
      <trkpt lat="51.887054" lon="4.638388">
        <ele>-0.529599</ele>
        <time>2022-01-10T07:01:57.379Z</time>
      </trkpt>
      <trkpt lat="51.887211" lon="4.638249">
        <ele>-0.510783</ele>
        <time>2022-01-10T07:02:01.342Z</time>
      </trkpt>
      <trkpt lat="51.887245" lon="4.638218">
        <ele>-0.506679</ele>
        <time>2022-01-10T07:02:02.204Z</time>
      </trkpt>
      <trkpt lat="51.887400" lon="4.638104">
        <ele>-0.488776</ele>
        <time>2022-01-10T07:02:05.942Z</time>
      </trkpt>
      <trkpt lat="51.887597" lon="4.637953">
        <ele>-0.420429</ele>
        <time>2022-01-10T07:02:10.646Z</time>
      </trkpt>
      <trkpt lat="51.887745" lon="4.637823">
        <ele>-0.363369</ele>
        <time>2022-01-10T07:02:14.417Z</time>
      </trkpt>
      <trkpt lat="51.888216" lon="4.637365">
        <ele>-0.177189</ele>
        <time>2022-01-10T07:02:27.543Z</time>
      </trkpt>
      <trkpt lat="51.888548" lon="4.637035">
        <ele>-0.045176</ele>
        <time>2022-01-10T07:02:37.138Z</time>
      </trkpt>
      <trkpt lat="51.888829" lon="4.636762">
        <ele>0.065874</ele>
        <time>2022-01-10T07:02:45.139Z</time>
      </trkpt>
      <trkpt lat="51.888954" lon="4.636603">
        <ele>0.119736</ele>
        <time>2022-01-10T07:02:49.280Z</time>
      </trkpt>
      <trkpt lat="51.889042" lon="4.636394">
        <ele>0.199067</ele>
        <time>2022-01-10T07:02:53.064Z</time>
      </trkpt>
      <trkpt lat="51.889078" lon="4.636315">
        <ele>0.230603</ele>
        <time>2022-01-10T07:02:54.505Z</time>
      </trkpt>
      <trkpt lat="51.889133" lon="4.636199">
        <ele>0.277580</ele>
        <time>2022-01-10T07:02:56.848Z</time>
      </trkpt>
      <trkpt lat="51.889257" lon="4.636084">
        <ele>0.351923</ele>
        <time>2022-01-10T07:03:00.399Z</time>
      </trkpt>
      <trkpt lat="51.889382" lon="4.635982">
        <ele>0.424748</ele>
        <time>2022-01-10T07:03:03.765Z</time>
      </trkpt>
      <trkpt lat="51.889482" lon="4.635935">
        <ele>0.478927</ele>
        <time>2022-01-10T07:03:07.183Z</time>
      </trkpt>
      <trkpt lat="51.889380" lon="4.635618">
        <ele>0.593733</ele>
        <time>2022-01-10T07:03:12.518Z</time>
      </trkpt>
      <trkpt lat="51.889454" lon="4.635586">
        <ele>0.633586</ele>
        <time>2022-01-10T07:03:15.652Z</time>
      </trkpt>
      <trkpt lat="51.889757" lon="4.635507">
        <ele>0.793276</ele>
        <time>2022-01-10T07:03:36.946Z</time>
      </trkpt>
      <trkpt lat="51.889800" lon="4.635110">
        <ele>0.922717</ele>
        <time>2022-01-10T07:03:40.403Z</time>
      </trkpt>
      <trkpt lat="51.888855" lon="4.623123">
        <ele>0.175856</ele>
        <time>2022-01-10T07:05:24.064Z</time>
      </trkpt>
      <trkpt lat="51.888621" lon="4.621444">
        <ele>0.447986</ele>
        <time>2022-01-10T07:05:38.829Z</time>
      </trkpt>
      <trkpt lat="51.888595" lon="4.621332">
        <ele>0.466904</ele>
        <time>2022-01-10T07:05:39.860Z</time>
      </trkpt>
      <trkpt lat="51.888338" lon="4.620224">
        <ele>0.679475</ele>
        <time>2022-01-10T07:05:50.019Z</time>
      </trkpt>
      <trkpt lat="51.887647" lon="4.619477">
        <ele>1.196392</ele>
        <time>2022-01-10T07:06:01.553Z</time>
      </trkpt>
      <trkpt lat="51.886906" lon="4.619408">
        <ele>1.658257</ele>
        <time>2022-01-10T07:06:11.878Z</time>
      </trkpt>
      <trkpt lat="51.886893" lon="4.619375">
        <ele>1.673293</ele>
        <time>2022-01-10T07:06:12.526Z</time>
      </trkpt>
      <trkpt lat="51.886851" lon="4.619281">
        <ele>1.717863</ele>
        <time>2022-01-10T07:06:14.458Z</time>
      </trkpt>
      <trkpt lat="51.886531" lon="4.619611">
        <ele>1.924936</ele>
        <time>2022-01-10T07:06:24.411Z</time>
      </trkpt>
      <trkpt lat="51.886510" lon="4.619576">
        <ele>1.940946</ele>
        <time>2022-01-10T07:06:25.208Z</time>
      </trkpt>
      <trkpt lat="51.886493" lon="4.619546">
        <ele>1.954304</ele>
        <time>2022-01-10T07:06:25.872Z</time>
      </trkpt>
      <trkpt lat="51.886845" lon="4.619181">
        <ele>2.176394</ele>
        <time>2022-01-10T07:06:36.559Z</time>
      </trkpt>
      <trkpt lat="51.887460" lon="4.618365">
        <ele>2.598822</ele>
        <time>2022-01-10T07:06:56.888Z</time>
      </trkpt>
      <trkpt lat="51.888116" lon="4.617542">
        <ele>2.557779</ele>
        <time>2022-01-10T07:07:16.904Z</time>
      </trkpt>
      <trkpt lat="51.888250" lon="4.617011">
        <ele>2.469810</ele>
        <time>2022-01-10T07:07:24.980Z</time>
      </trkpt>
      <trkpt lat="51.888136" lon="4.616937">
        <ele>2.439298</ele>
        <time>2022-01-10T07:07:27.672Z</time>
      </trkpt>
      <trkpt lat="51.887861" lon="4.616750">
        <ele>2.365200</ele>
        <time>2022-01-10T07:07:35.749Z</time>
      </trkpt>
      <trkpt lat="51.887978" lon="4.616212">
        <ele>2.277729</ele>
        <time>2022-01-10T07:07:42.953Z</time>
      </trkpt>
      <trkpt lat="51.887844" lon="4.615777">
        <ele>2.069279</ele>
        <time>2022-01-10T07:07:48.988Z</time>
      </trkpt>
      <trkpt lat="51.887838" lon="4.615758">
        <ele>2.058854</ele>
        <time>2022-01-10T07:07:49.262Z</time>
      </trkpt>
      <trkpt lat="51.887643" lon="4.615156">
        <ele>1.726739</ele>
        <time>2022-01-10T07:07:57.757Z</time>
      </trkpt>
      <trkpt lat="51.887537" lon="4.614820">
        <ele>1.542406</ele>
        <time>2022-01-10T07:08:02.426Z</time>
      </trkpt>
      <trkpt lat="51.887655" lon="4.614626">
        <ele>1.409352</ele>
        <time>2022-01-10T07:08:05.712Z</time>
      </trkpt>
      <trkpt lat="51.888206" lon="4.613565">
        <ele>0.843692</ele>
        <time>2022-01-10T07:08:22.667Z</time>
      </trkpt>
      <trkpt lat="51.889550" lon="4.610338">
        <ele>1.012017</ele>
        <time>2022-01-10T07:09:17.858Z</time>
      </trkpt>
      <trkpt lat="51.889639" lon="4.609868">
        <ele>1.066965</ele>
        <time>2022-01-10T07:09:24.909Z</time>
      </trkpt>
      <trkpt lat="51.889658" lon="4.608509">
        <ele>1.228389</ele>
        <time>2022-01-10T07:09:43.884Z</time>
      </trkpt>
      <trkpt lat="51.889581" lon="4.607642">
        <ele>1.386396</ele>
        <time>2022-01-10T07:09:56.466Z</time>
      </trkpt>
      <trkpt lat="51.889670" lon="4.606103">
        <ele>1.665228</ele>
        <time>2022-01-10T07:10:18.904Z</time>
      </trkpt>
      <trkpt lat="51.889661" lon="4.605984">
        <ele>1.686855</ele>
        <time>2022-01-10T07:10:20.876Z</time>
      </trkpt>
      <trkpt lat="51.889617" lon="4.605420">
        <ele>1.719911</ele>
        <time>2022-01-10T07:10:29.409Z</time>
      </trkpt>
      <trkpt lat="51.889522" lon="4.604985">
        <ele>1.707169</ele>
        <time>2022-01-10T07:10:35.989Z</time>
      </trkpt>
      <trkpt lat="51.889396" lon="4.604452">
        <ele>1.691407</ele>
        <time>2022-01-10T07:10:44.031Z</time>
      </trkpt>
      <trkpt lat="51.889672" lon="4.604312">
        <ele>1.678466</ele>
        <time>2022-01-10T07:10:50.864Z</time>
      </trkpt>
      <trkpt lat="51.889479" lon="4.601502">
        <ele>1.132853</ele>
        <time>2022-01-10T07:11:28.336Z</time>
      </trkpt>
      <trkpt lat="51.889481" lon="4.601144">
        <ele>1.027205</ele>
        <time>2022-01-10T07:11:32.923Z</time>
      </trkpt>
      <trkpt lat="51.889541" lon="4.601009">
        <ele>0.978113</ele>
        <time>2022-01-10T07:11:35.022Z</time>
      </trkpt>
      <trkpt lat="51.889570" lon="4.600531">
        <ele>0.836378</ele>
        <time>2022-01-10T07:11:41.374Z</time>
      </trkpt>
      <trkpt lat="51.889498" lon="4.599149">
        <ele>0.993674</ele>
        <time>2022-01-10T07:12:00.625Z</time>
      </trkpt>
      <trkpt lat="51.889592" lon="4.598280">
        <ele>1.141293</ele>
        <time>2022-01-10T07:12:14.089Z</time>
      </trkpt>
      <trkpt lat="51.890585" lon="4.594118">
        <ele>2.813823</ele>
        <time>2022-01-10T07:13:27.836Z</time>
      </trkpt>
      <trkpt lat="51.890566" lon="4.593967">
        <ele>2.808058</ele>
        <time>2022-01-10T07:13:30.187Z</time>
      </trkpt>
      <trkpt lat="51.890505" lon="4.593867">
        <ele>2.802799</ele>
        <time>2022-01-10T07:13:32.295Z</time>
      </trkpt>
      <trkpt lat="51.890517" lon="4.593801">
        <ele>2.800226</ele>
        <time>2022-01-10T07:13:33.320Z</time>
      </trkpt>
      <trkpt lat="51.890877" lon="4.591848">
        <ele>2.635736</ele>
        <time>2022-01-10T07:14:00.304Z</time>
      </trkpt>
      <trkpt lat="51.891104" lon="4.591137">
        <ele>2.296518</ele>
        <time>2022-01-10T07:14:10.422Z</time>
      </trkpt>
      <trkpt lat="51.891268" lon="4.590780">
        <ele>2.107929</ele>
        <time>2022-01-10T07:14:15.932Z</time>
      </trkpt>
      <trkpt lat="51.891394" lon="4.590554">
        <ele>1.978870</ele>
        <time>2022-01-10T07:14:19.795Z</time>
      </trkpt>
      <trkpt lat="51.891698" lon="4.590094">
        <ele>1.693274</ele>
        <time>2022-01-10T07:14:28.489Z</time>
      </trkpt>
      <trkpt lat="51.891786" lon="4.589970">
        <ele>1.613200</ele>
        <time>2022-01-10T07:14:30.957Z</time>
      </trkpt>
      <trkpt lat="51.892324" lon="4.589344">
        <ele>1.462363</ele>
        <time>2022-01-10T07:14:45.505Z</time>
      </trkpt>
      <trkpt lat="51.893049" lon="4.588697">
        <ele>1.403410</ele>
        <time>2022-01-10T07:15:05.031Z</time>
      </trkpt>
      <trkpt lat="51.893748" lon="4.587944">
        <ele>1.458392</ele>
        <time>2022-01-10T07:15:24.537Z</time>
      </trkpt>
      <trkpt lat="51.894500" lon="4.586900">
        <ele>1.701539</ele>
        <time>2022-01-10T07:15:48.300Z</time>
      </trkpt>
      <trkpt lat="51.895177" lon="4.586253">
        <ele>2.038416</ele>
        <time>2022-01-10T07:16:07.894Z</time>
      </trkpt>
      <trkpt lat="51.895647" lon="4.585802">
        <ele>2.403784</ele>
        <time>2022-01-10T07:16:21.902Z</time>
      </trkpt>
      <trkpt lat="51.895818" lon="4.585547">
        <ele>2.559227</ele>
        <time>2022-01-10T07:16:27.938Z</time>
      </trkpt>
      <trkpt lat="51.895887" lon="4.585247">
        <ele>2.691381</ele>
        <time>2022-01-10T07:16:33.162Z</time>
      </trkpt>
      <trkpt lat="51.896061" lon="4.585137">
        <ele>2.816313</ele>
        <time>2022-01-10T07:16:38.044Z</time>
      </trkpt>
      <trkpt lat="51.896139" lon="4.585097">
        <ele>2.871038</ele>
        <time>2022-01-10T07:16:40.191Z</time>
      </trkpt>
      <trkpt lat="51.896346" lon="4.584515">
        <ele>3.094582</ele>
        <time>2022-01-10T07:16:53.752Z</time>
      </trkpt>
      <trkpt lat="51.896439" lon="4.584549">
        <ele>3.132805</ele>
        <time>2022-01-10T07:16:56.401Z</time>
      </trkpt>
      <trkpt lat="51.896959" lon="4.584283">
        <ele>3.351425</ele>
        <time>2022-01-10T07:17:10.776Z</time>
      </trkpt>
      <trkpt lat="51.897091" lon="4.583896">
        <ele>3.460821</ele>
        <time>2022-01-10T07:17:17.804Z</time>
      </trkpt>
      <trkpt lat="51.897300" lon="4.583500">
        <ele>3.589738</ele>
        <time>2022-01-10T07:17:25.760Z</time>
      </trkpt>
      <trkpt lat="51.897500" lon="4.583300">
        <ele>3.683960</ele>
        <time>2022-01-10T07:17:30.728Z</time>
      </trkpt>
      <trkpt lat="51.897700" lon="4.583200">
        <ele>3.637950</ele>
        <time>2022-01-10T07:17:35.646Z</time>
      </trkpt>
      <trkpt lat="51.897876" lon="4.583054">
        <ele>3.400985</ele>
        <time>2022-01-10T07:17:39.802Z</time>
      </trkpt>
      <trkpt lat="51.897977" lon="4.582821">
        <ele>3.190403</ele>
        <time>2022-01-10T07:17:43.396Z</time>
      </trkpt>
      <trkpt lat="51.898037" lon="4.582629">
        <ele>3.031239</ele>
        <time>2022-01-10T07:17:45.886Z</time>
      </trkpt>
      <trkpt lat="51.898356" lon="4.582098">
        <ele>2.483170</ele>
        <time>2022-01-10T07:17:54.947Z</time>
      </trkpt>
      <trkpt lat="51.898381" lon="4.581970">
        <ele>2.383880</ele>
        <time>2022-01-10T07:17:56.507Z</time>
      </trkpt>
      <trkpt lat="51.898363" lon="4.581837">
        <ele>2.283183</ele>
        <time>2022-01-10T07:17:57.996Z</time>
      </trkpt>
      <trkpt lat="51.898352" lon="4.581756">
        <ele>2.221846</ele>
        <time>2022-01-10T07:17:58.904Z</time>
      </trkpt>
      <trkpt lat="51.898829" lon="4.581483">
        <ele>1.615561</ele>
        <time>2022-01-10T07:18:08.625Z</time>
      </trkpt>
      <trkpt lat="51.899000" lon="4.581158">
        <ele>1.385686</ele>
        <time>2022-01-10T07:18:13.497Z</time>
      </trkpt>
      <trkpt lat="51.899048" lon="4.581070">
        <ele>1.325505</ele>
        <time>2022-01-10T07:18:15.070Z</time>
      </trkpt>
      <trkpt lat="51.899098" lon="4.580984">
        <ele>1.264962</ele>
        <time>2022-01-10T07:18:16.464Z</time>
      </trkpt>
      <trkpt lat="51.899222" lon="4.580767">
        <ele>1.113423</ele>
        <time>2022-01-10T07:18:19.685Z</time>
      </trkpt>
      <trkpt lat="51.899304" lon="4.580790">
        <ele>1.044320</ele>
        <time>2022-01-10T07:18:21.531Z</time>
      </trkpt>
      <trkpt lat="51.899391" lon="4.580588">
        <ele>0.918102</ele>
        <time>2022-01-10T07:18:24.386Z</time>
      </trkpt>
      <trkpt lat="51.899585" lon="4.579951">
        <ele>0.554130</ele>
        <time>2022-01-10T07:18:32.905Z</time>
      </trkpt>
      <trkpt lat="51.899688" lon="4.579000">
        <ele>0.104905</ele>
        <time>2022-01-10T07:18:45.760Z</time>
      </trkpt>
      <trkpt lat="51.899730" lon="4.578087">
        <ele>0.435348</ele>
        <time>2022-01-10T07:18:59.407Z</time>
      </trkpt>
      <trkpt lat="51.899770" lon="4.577090">
        <ele>0.795953</ele>
        <time>2022-01-10T07:19:15.561Z</time>
      </trkpt>
      <trkpt lat="51.899714" lon="4.576068">
        <ele>1.148631</ele>
        <time>2022-01-10T07:19:31.367Z</time>
      </trkpt>
      <trkpt lat="51.899744" lon="4.575297">
        <ele>1.252255</ele>
        <time>2022-01-10T07:19:42.824Z</time>
      </trkpt>
      <trkpt lat="51.899735" lon="4.573116">
        <ele>1.509218</ele>
        <time>2022-01-10T07:20:13.332Z</time>
      </trkpt>
      <trkpt lat="51.899791" lon="4.572517">
        <ele>1.405259</ele>
        <time>2022-01-10T07:20:21.327Z</time>
      </trkpt>
      <trkpt lat="51.899930" lon="4.571362">
        <ele>1.203332</ele>
        <time>2022-01-10T07:20:36.605Z</time>
      </trkpt>
      <trkpt lat="51.900022" lon="4.570605">
        <ele>1.070940</ele>
        <time>2022-01-10T07:20:46.461Z</time>
      </trkpt>
      <trkpt lat="51.900171" lon="4.569167">
        <ele>0.825654</ele>
        <time>2022-01-10T07:21:05.351Z</time>
      </trkpt>
      <trkpt lat="51.900213" lon="4.568758">
        <ele>0.756187</ele>
        <time>2022-01-10T07:21:10.738Z</time>
      </trkpt>
      <trkpt lat="51.900225" lon="4.568647">
        <ele>0.737307</ele>
        <time>2022-01-10T07:21:12.249Z</time>
      </trkpt>
      <trkpt lat="51.900357" lon="4.567320">
        <ele>0.538282</ele>
        <time>2022-01-10T07:21:29.999Z</time>
      </trkpt>
      <trkpt lat="51.900761" lon="4.563325">
        <ele>0.578933</ele>
        <time>2022-01-10T07:22:25.618Z</time>
      </trkpt>
      <trkpt lat="51.900864" lon="4.562385">
        <ele>0.636398</ele>
        <time>2022-01-10T07:22:39.391Z</time>
      </trkpt>
      <trkpt lat="51.900967" lon="4.561347">
        <ele>0.650464</ele>
        <time>2022-01-10T07:22:54.216Z</time>
      </trkpt>
      <trkpt lat="51.901037" lon="4.561294">
        <ele>0.642380</ele>
        <time>2022-01-10T07:22:56.011Z</time>
      </trkpt>
      <trkpt lat="51.901044" lon="4.561142">
        <ele>0.632540</ele>
        <time>2022-01-10T07:22:58.204Z</time>
      </trkpt>
      <trkpt lat="51.901045" lon="4.561049">
        <ele>0.626535</ele>
        <time>2022-01-10T07:22:59.476Z</time>
      </trkpt>
      <trkpt lat="51.901084" lon="4.560574">
        <ele>0.595599</ele>
        <time>2022-01-10T07:23:06.029Z</time>
      </trkpt>
      <trkpt lat="51.901144" lon="4.560032">
        <ele>0.560049</ele>
        <time>2022-01-10T07:23:13.190Z</time>
      </trkpt>
      <trkpt lat="51.901200" lon="4.559484">
        <ele>0.524188</ele>
        <time>2022-01-10T07:23:20.413Z</time>
      </trkpt>
      <trkpt lat="51.901254" lon="4.558937">
        <ele>0.488425</ele>
        <time>2022-01-10T07:23:27.663Z</time>
      </trkpt>
      <trkpt lat="51.901340" lon="4.558563">
        <ele>0.477783</ele>
        <time>2022-01-10T07:23:32.885Z</time>
      </trkpt>
      <trkpt lat="51.901379" lon="4.558394">
        <ele>0.473160</ele>
        <time>2022-01-10T07:23:35.208Z</time>
      </trkpt>
      <trkpt lat="51.901399" lon="4.558043">
        <ele>0.464127</ele>
        <time>2022-01-10T07:23:39.940Z</time>
      </trkpt>
      <trkpt lat="51.901354" lon="4.558044">
        <ele>0.462257</ele>
        <time>2022-01-10T07:23:40.934Z</time>
      </trkpt>
      <trkpt lat="51.901299" lon="4.558044">
        <ele>0.459973</ele>
        <time>2022-01-10T07:23:42.139Z</time>
      </trkpt>
      <trkpt lat="51.901086" lon="4.558024">
        <ele>0.451112</ele>
        <time>2022-01-10T07:23:47.068Z</time>
      </trkpt>
      <trkpt lat="51.901063" lon="4.556568">
        <ele>0.413788</ele>
        <time>2022-01-10T07:24:08.051Z</time>
      </trkpt>
      <trkpt lat="51.901100" lon="4.556008">
        <ele>0.565022</ele>
        <time>2022-01-10T07:24:16.328Z</time>
      </trkpt>
      <trkpt lat="51.901177" lon="4.555201">
        <ele>0.797469</ele>
        <time>2022-01-10T07:24:29.101Z</time>
      </trkpt>
      <trkpt lat="51.901238" lon="4.554367">
        <ele>1.036533</ele>
        <time>2022-01-10T07:24:42.254Z</time>
      </trkpt>
      <trkpt lat="51.901251" lon="4.553254">
        <ele>1.264470</ele>
        <time>2022-01-10T07:24:58.590Z</time>
      </trkpt>
      <trkpt lat="51.901297" lon="4.552571">
        <ele>1.302756</ele>
        <time>2022-01-10T07:25:07.645Z</time>
      </trkpt>
      <trkpt lat="51.901370" lon="4.551954">
        <ele>1.337764</ele>
        <time>2022-01-10T07:25:16.540Z</time>
      </trkpt>
      <trkpt lat="51.901308" lon="4.550390">
        <ele>1.453484</ele>
        <time>2022-01-10T07:25:45.367Z</time>
      </trkpt>
      <trkpt lat="51.901074" lon="4.548707">
        <ele>1.687196</ele>
        <time>2022-01-10T07:26:15.829Z</time>
      </trkpt>
      <trkpt lat="51.900795" lon="4.548752">
        <ele>1.748755</ele>
        <time>2022-01-10T07:26:22.856Z</time>
      </trkpt>
      <trkpt lat="51.900774" lon="4.549573">
        <ele>2.037662</ele>
        <time>2022-01-10T07:26:37.233Z</time>
      </trkpt>
      <trkpt lat="51.900524" lon="4.549583">
        <ele>2.255324</ele>
        <time>2022-01-10T07:26:43.905Z</time>
      </trkpt>
      <trkpt lat="51.900486" lon="4.549585">
        <ele>2.288416</ele>
        <time>2022-01-10T07:26:44.997Z</time>
      </trkpt>
      <trkpt lat="51.900461" lon="4.549592">
        <ele>2.310498</ele>
        <time>2022-01-10T07:26:45.681Z</time>
      </trkpt>
      <trkpt lat="51.900372" lon="4.549614">
        <ele>2.388858</ele>
        <time>2022-01-10T07:26:47.964Z</time>
      </trkpt>
      <trkpt lat="51.899990" lon="4.549025">
        <ele>2.847780</ele>
        <time>2022-01-10T07:27:03.991Z</time>
      </trkpt>
      <trkpt lat="51.899732" lon="4.548815">
        <ele>3.099069</ele>
        <time>2022-01-10T07:27:13.367Z</time>
      </trkpt>
      <trkpt lat="51.899521" lon="4.548774">
        <ele>3.284036</ele>
        <time>2022-01-10T07:27:20.895Z</time>
      </trkpt>
      <trkpt lat="51.899378" lon="4.549952">
        <ele>4.187923</ele>
        <time>2022-01-10T07:27:42.015Z</time>
      </trkpt>
      <trkpt lat="51.899361" lon="4.550092">
        <ele>4.299811</ele>
        <time>2022-01-10T07:27:44.391Z</time>
      </trkpt>
      <trkpt lat="51.899135" lon="4.549911">
        <ele>4.620176</ele>
        <time>2022-01-10T07:27:51.911Z</time>
      </trkpt>
      <trkpt lat="51.898891" lon="4.549569">
        <ele>5.030146</ele>
        <time>2022-01-10T07:28:00.758Z</time>
      </trkpt>
      <trkpt lat="51.898737" lon="4.549297">
        <ele>5.319622</ele>
        <time>2022-01-10T07:28:06.504Z</time>
      </trkpt>
      <trkpt lat="51.898696" lon="4.549039">
        <ele>5.528540</ele>
        <time>2022-01-10T07:28:10.509Z</time>
      </trkpt>
      <trkpt lat="51.898788" lon="4.548570">
        <ele>5.754632</ele>
        <time>2022-01-10T07:28:18.348Z</time>
      </trkpt>
      <trkpt lat="51.898957" lon="4.548148">
        <ele>5.909406</ele>
        <time>2022-01-10T07:28:26.535Z</time>
      </trkpt>
      <trkpt lat="51.898689" lon="4.547425">
        <ele>6.168886</ele>
        <time>2022-01-10T07:28:39.862Z</time>
      </trkpt>
      <trkpt lat="51.898435" lon="4.546977">
        <ele>6.356060</ele>
        <time>2022-01-10T07:28:48.574Z</time>
      </trkpt>
      <trkpt lat="51.898314" lon="4.546857">
        <ele>6.426788</ele>
        <time>2022-01-10T07:28:51.933Z</time>
      </trkpt>
      <trkpt lat="51.898103" lon="4.546889">
        <ele>6.532448</ele>
        <time>2022-01-10T07:28:56.509Z</time>
      </trkpt>
      <trkpt lat="51.897579" lon="4.547441">
        <ele>6.158418</ele>
        <time>2022-01-10T07:29:09.343Z</time>
      </trkpt>
      <trkpt lat="51.897380" lon="4.547415">
        <ele>6.027262</ele>
        <time>2022-01-10T07:29:13.245Z</time>
      </trkpt>
      <trkpt lat="51.897215" lon="4.547107">
        <ele>5.861917</ele>
        <time>2022-01-10T07:29:18.249Z</time>
      </trkpt>
      <trkpt lat="51.897125" lon="4.546792">
        <ele>5.721198</ele>
        <time>2022-01-10T07:29:22.411Z</time>
      </trkpt>
      <trkpt lat="51.897060" lon="4.546311">
        <ele>5.521588</ele>
        <time>2022-01-10T07:29:28.328Z</time>
      </trkpt>
      <trkpt lat="51.896992" lon="4.545743">
        <ele>5.317094</ele>
        <time>2022-01-10T07:29:35.367Z</time>
      </trkpt>
      <trkpt lat="51.896867" lon="4.545420">
        <ele>5.220914</ele>
        <time>2022-01-10T07:29:40.149Z</time>
      </trkpt>
      <trkpt lat="51.896772" lon="4.545359">
        <ele>5.179140</ele>
        <time>2022-01-10T07:29:42.088Z</time>
      </trkpt>
      <trkpt lat="51.896878" lon="4.545120">
        <ele>5.104892</ele>
        <time>2022-01-10T07:29:45.851Z</time>
      </trkpt>
      <trkpt lat="51.897003" lon="4.544834">
        <ele>5.016480</ele>
        <time>2022-01-10T07:29:50.298Z</time>
      </trkpt>
      <trkpt lat="51.897079" lon="4.544698">
        <ele>4.970195</ele>
        <time>2022-01-10T07:29:52.751Z</time>
      </trkpt>
      <trkpt lat="51.897302" lon="4.544597">
        <ele>4.875538</ele>
        <time>2022-01-10T07:29:57.591Z</time>
      </trkpt>
      <trkpt lat="51.897549" lon="4.544788">
        <ele>4.763656</ele>
        <time>2022-01-10T07:30:03.490Z</time>
      </trkpt>
      <trkpt lat="51.897646" lon="4.544723">
        <ele>4.720746</ele>
        <time>2022-01-10T07:30:05.680Z</time>
      </trkpt>
      <trkpt lat="51.897252" lon="4.544373">
        <ele>4.586527</ele>
        <time>2022-01-10T07:30:15.681Z</time>
      </trkpt>
      <trkpt lat="51.897067" lon="4.544351">
        <ele>4.550490</ele>
        <time>2022-01-10T07:30:19.803Z</time>
      </trkpt>
      <trkpt lat="51.896951" lon="4.544294">
        <ele>4.526941</ele>
        <time>2022-01-10T07:30:22.543Z</time>
      </trkpt>
      <trkpt lat="51.896876" lon="4.544162">
        <ele>4.505430</ele>
        <time>2022-01-10T07:30:24.924Z</time>
      </trkpt>
      <trkpt lat="51.896644" lon="4.542568">
        <ele>4.309095</ele>
        <time>2022-01-10T07:30:46.578Z</time>
      </trkpt>
      <trkpt lat="51.896423" lon="4.540653">
        <ele>3.809867</ele>
        <time>2022-01-10T07:31:11.220Z</time>
      </trkpt>
      <trkpt lat="51.896351" lon="4.540031">
        <ele>3.636320</ele>
        <time>2022-01-10T07:31:19.176Z</time>
      </trkpt>
      <trkpt lat="51.896342" lon="4.539957">
        <ele>3.615637</ele>
        <time>2022-01-10T07:31:20.138Z</time>
      </trkpt>
      <trkpt lat="51.896318" lon="4.539746">
        <ele>3.556799</ele>
        <time>2022-01-10T07:31:22.867Z</time>
      </trkpt>
      <trkpt lat="51.896289" lon="4.539533">
        <ele>3.496983</ele>
        <time>2022-01-10T07:31:25.628Z</time>
      </trkpt>
      <trkpt lat="51.896177" lon="4.538634">
        <ele>3.586664</ele>
        <time>2022-01-10T07:31:37.854Z</time>
      </trkpt>
      <trkpt lat="51.895218" lon="4.530929">
        <ele>4.577060</ele>
        <time>2022-01-10T07:33:31.288Z</time>
      </trkpt>
      <trkpt lat="51.895166" lon="4.530234">
        <ele>4.429402</ele>
        <time>2022-01-10T07:33:41.010Z</time>
      </trkpt>
      <trkpt lat="51.895051" lon="4.529674">
        <ele>4.299118</ele>
        <time>2022-01-10T07:33:49.028Z</time>
      </trkpt>
      <trkpt lat="51.894984" lon="4.529092">
        <ele>4.168427</ele>
        <time>2022-01-10T07:33:56.967Z</time>
      </trkpt>
      <trkpt lat="51.895011" lon="4.528383">
        <ele>4.011619</ele>
        <time>2022-01-10T07:34:05.887Z</time>
      </trkpt>
      <trkpt lat="51.895361" lon="4.526760">
        <ele>3.654496</ele>
        <time>2022-01-10T07:34:27.299Z</time>
      </trkpt>
      <trkpt lat="51.895389" lon="4.526630">
        <ele>3.626339</ele>
        <time>2022-01-10T07:34:29.048Z</time>
      </trkpt>
      <trkpt lat="51.895405" lon="4.526401">
        <ele>3.579210</ele>
        <time>2022-01-10T07:34:32.155Z</time>
      </trkpt>
      <trkpt lat="51.895802" lon="4.524621">
        <ele>3.317403</ele>
        <time>2022-01-10T07:34:57.896Z</time>
      </trkpt>
      <trkpt lat="51.896707" lon="4.520650">
        <ele>3.106987</ele>
        <time>2022-01-10T07:35:55.665Z</time>
      </trkpt>
      <trkpt lat="51.897118" lon="4.519139">
        <ele>3.125842</ele>
        <time>2022-01-10T07:36:17.080Z</time>
      </trkpt>
      <trkpt lat="51.897154" lon="4.518992">
        <ele>3.141919</ele>
        <time>2022-01-10T07:36:19.313Z</time>
      </trkpt>
      <trkpt lat="51.897186" lon="4.518855">
        <ele>3.156809</ele>
        <time>2022-01-10T07:36:21.369Z</time>
      </trkpt>
      <trkpt lat="51.897273" lon="4.518255">
        <ele>3.219460</ele>
        <time>2022-01-10T07:36:29.941Z</time>
      </trkpt>
      <trkpt lat="51.897436" lon="4.517645">
        <ele>3.287031</ele>
        <time>2022-01-10T07:36:39.516Z</time>
      </trkpt>
      <trkpt lat="51.897621" lon="4.517247">
        <ele>3.337681</ele>
        <time>2022-01-10T07:36:47.542Z</time>
      </trkpt>
      <trkpt lat="51.898462" lon="4.516197">
        <ele>3.847117</ele>
        <time>2022-01-10T07:37:14.199Z</time>
      </trkpt>
      <trkpt lat="51.898756" lon="4.515751">
        <ele>4.044292</ele>
        <time>2022-01-10T07:37:24.355Z</time>
      </trkpt>
      <trkpt lat="51.898984" lon="4.515247">
        <ele>4.215390</ele>
        <time>2022-01-10T07:37:33.387Z</time>
      </trkpt>
      <trkpt lat="51.900030" lon="4.512812">
        <ele>3.452299</ele>
        <time>2022-01-10T07:38:12.358Z</time>
      </trkpt>
      <trkpt lat="51.900618" lon="4.511871">
        <ele>3.257906</ele>
        <time>2022-01-10T07:38:29.543Z</time>
      </trkpt>
      <trkpt lat="51.900638" lon="4.511834">
        <ele>3.250766</ele>
        <time>2022-01-10T07:38:30.195Z</time>
      </trkpt>
      <trkpt lat="51.900674" lon="4.511776">
        <ele>3.238825</ele>
        <time>2022-01-10T07:38:31.331Z</time>
      </trkpt>
      <trkpt lat="51.900719" lon="4.511674">
        <ele>3.220624</ele>
        <time>2022-01-10T07:38:33.048Z</time>
      </trkpt>
      <trkpt lat="51.900804" lon="4.511458">
        <ele>3.183438</ele>
        <time>2022-01-10T07:38:36.643Z</time>
      </trkpt>
      <trkpt lat="51.900863" lon="4.511323">
        <ele>3.159426</ele>
        <time>2022-01-10T07:38:39.014Z</time>
      </trkpt>
      <trkpt lat="51.900793" lon="4.511240">
        <ele>3.139022</ele>
        <time>2022-01-10T07:38:41.005Z</time>
      </trkpt>
      <trkpt lat="51.900993" lon="4.510865">
        <ele>3.067076</ele>
        <time>2022-01-10T07:38:47.940Z</time>
      </trkpt>
      <trkpt lat="51.901767" lon="4.509025">
        <ele>3.209582</ele>
        <time>2022-01-10T07:39:19.223Z</time>
      </trkpt>
      <trkpt lat="51.902519" lon="4.507267">
        <ele>3.488980</ele>
        <time>2022-01-10T07:39:49.328Z</time>
      </trkpt>
      <trkpt lat="51.902670" lon="4.506912">
        <ele>3.559513</ele>
        <time>2022-01-10T07:39:55.386Z</time>
      </trkpt>
      <trkpt lat="51.903321" lon="4.505040">
        <ele>4.328146</ele>
        <time>2022-01-10T07:40:27.324Z</time>
      </trkpt>
      <trkpt lat="51.903535" lon="4.504517">
        <ele>4.709759</ele>
        <time>2022-01-10T07:40:37.450Z</time>
      </trkpt>
      <trkpt lat="51.903609" lon="4.504596">
        <ele>4.797092</ele>
        <time>2022-01-10T07:40:39.731Z</time>
      </trkpt>
      <trkpt lat="51.903663" lon="4.504472">
        <ele>4.889385</ele>
        <time>2022-01-10T07:40:42.231Z</time>
      </trkpt>
      <trkpt lat="51.903708" lon="4.504372">
        <ele>4.964650</ele>
        <time>2022-01-10T07:40:44.270Z</time>
      </trkpt>
      <trkpt lat="51.903765" lon="4.504243">
        <ele>5.061134</ele>
        <time>2022-01-10T07:40:46.875Z</time>
      </trkpt>
      <trkpt lat="51.904004" lon="4.503685">
        <ele>5.474193</ele>
        <time>2022-01-10T07:40:58.329Z</time>
      </trkpt>
      <trkpt lat="51.904205" lon="4.503211">
        <ele>5.914266</ele>
        <time>2022-01-10T07:41:08.613Z</time>
      </trkpt>
      <trkpt lat="51.904250" lon="4.503113">
        <ele>6.011396</ele>
        <time>2022-01-10T07:41:10.837Z</time>
      </trkpt>
      <trkpt lat="51.904319" lon="4.502943">
        <ele>6.173187</ele>
        <time>2022-01-10T07:41:14.547Z</time>
      </trkpt>
      <trkpt lat="51.904368" lon="4.502816">
        <ele>6.292282</ele>
        <time>2022-01-10T07:41:17.293Z</time>
      </trkpt>
      <trkpt lat="51.904689" lon="4.501993">
        <ele>7.066430</ele>
        <time>2022-01-10T07:41:35.034Z</time>
      </trkpt>
      <trkpt lat="51.905077" lon="4.501106">
        <ele>7.810234</ele>
        <time>2022-01-10T07:41:51.984Z</time>
      </trkpt>
      <trkpt lat="51.905455" lon="4.500193">
        <ele>7.410282</ele>
        <time>2022-01-10T07:42:06.697Z</time>
      </trkpt>
      <trkpt lat="51.905844" lon="4.499309">
        <ele>7.015317</ele>
        <time>2022-01-10T07:42:19.748Z</time>
      </trkpt>
      <trkpt lat="51.906281" lon="4.498270">
        <ele>6.441759</ele>
        <time>2022-01-10T07:42:33.919Z</time>
      </trkpt>
      <trkpt lat="51.906800" lon="4.497054">
        <ele>5.632000</ele>
        <time>2022-01-10T07:42:51.465Z</time>
      </trkpt>
      <trkpt lat="51.907328" lon="4.495820">
        <ele>5.172444</ele>
        <time>2022-01-10T07:43:11.520Z</time>
      </trkpt>
      <trkpt lat="51.907862" lon="4.494561">
        <ele>5.131574</ele>
        <time>2022-01-10T07:43:32.244Z</time>
      </trkpt>
      <trkpt lat="51.908191" lon="4.493819">
        <ele>5.130552</ele>
        <time>2022-01-10T07:43:45.390Z</time>
      </trkpt>
      <trkpt lat="51.908253" lon="4.493685">
        <ele>5.143684</ele>
        <time>2022-01-10T07:43:47.542Z</time>
      </trkpt>
      <trkpt lat="51.908299" lon="4.493574">
        <ele>5.154167</ele>
        <time>2022-01-10T07:43:49.449Z</time>
      </trkpt>
      <trkpt lat="51.908341" lon="4.493468">
        <ele>5.164044</ele>
        <time>2022-01-10T07:43:51.405Z</time>
      </trkpt>
      <trkpt lat="51.908502" lon="4.493081">
        <ele>5.200637</ele>
        <time>2022-01-10T07:43:57.831Z</time>
      </trkpt>
      <trkpt lat="51.908563" lon="4.492698">
        <ele>5.231648</ele>
        <time>2022-01-10T07:44:03.403Z</time>
      </trkpt>
      <trkpt lat="51.908539" lon="4.492346">
        <ele>5.259412</ele>
        <time>2022-01-10T07:44:08.641Z</time>
      </trkpt>
      <trkpt lat="51.908443" lon="4.492002">
        <ele>5.289012</ele>
        <time>2022-01-10T07:44:13.629Z</time>
      </trkpt>
      <trkpt lat="51.907770" lon="4.490701">
        <ele>5.306045</ele>
        <time>2022-01-10T07:44:37.306Z</time>
      </trkpt>
      <trkpt lat="51.907784" lon="4.490563">
        <ele>5.301192</ele>
        <time>2022-01-10T07:44:39.471Z</time>
      </trkpt>
      <trkpt lat="51.907854" lon="4.490337">
        <ele>5.292416</ele>
        <time>2022-01-10T07:44:43.105Z</time>
      </trkpt>
      <trkpt lat="51.908133" lon="4.489519">
        <ele>5.259980</ele>
        <time>2022-01-10T07:44:55.524Z</time>
      </trkpt>
      <trkpt lat="51.910548" lon="4.483448">
        <ele>4.454268</ele>
        <time>2022-01-10T07:46:28.425Z</time>
      </trkpt>
      <trkpt lat="51.910855" lon="4.483009">
        <ele>4.901020</ele>
        <time>2022-01-10T07:46:40.337Z</time>
      </trkpt>
      <trkpt lat="51.911057" lon="4.482851">
        <ele>5.145782</ele>
        <time>2022-01-10T07:46:47.118Z</time>
      </trkpt>
      <trkpt lat="51.911661" lon="4.482660">
        <ele>5.817350</ele>
        <time>2022-01-10T07:47:05.121Z</time>
      </trkpt>
      <trkpt lat="51.911782" lon="4.482630">
        <ele>5.931391</ele>
        <time>2022-01-10T07:47:09.187Z</time>
      </trkpt>
      <trkpt lat="51.912118" lon="4.482547">
        <ele>6.224444</ele>
        <time>2022-01-10T07:47:18.941Z</time>
      </trkpt>
      <trkpt lat="51.912164" lon="4.482559">
        <ele>6.264617</ele>
        <time>2022-01-10T07:47:19.993Z</time>
      </trkpt>
      <trkpt lat="51.912281" lon="4.482581">
        <ele>6.366174</ele>
        <time>2022-01-10T07:47:22.776Z</time>
      </trkpt>
      <trkpt lat="51.912412" lon="4.482527">
        <ele>6.482720</ele>
        <time>2022-01-10T07:47:26.820Z</time>
      </trkpt>
      <trkpt lat="51.912539" lon="4.482463">
        <ele>6.597392</ele>
        <time>2022-01-10T07:47:30.285Z</time>
      </trkpt>
      <trkpt lat="51.912571" lon="4.482377">
        <ele>6.650811</ele>
        <time>2022-01-10T07:47:31.661Z</time>
      </trkpt>
      <trkpt lat="51.912558" lon="4.482200">
        <ele>6.745618</ele>
        <time>2022-01-10T07:47:34.513Z</time>
      </trkpt>
      <trkpt lat="51.912549" lon="4.481910">
        <ele>6.900057</ele>
        <time>2022-01-10T07:47:39.118Z</time>
      </trkpt>
      <trkpt lat="51.912538" lon="4.481762">
        <ele>6.979345</ele>
        <time>2022-01-10T07:47:41.112Z</time>
      </trkpt>
      <trkpt lat="51.912436" lon="4.481573">
        <ele>7.112911</ele>
        <time>2022-01-10T07:47:45.221Z</time>
      </trkpt>
      <trkpt lat="51.912412" lon="4.481228">
        <ele>7.297572</ele>
        <time>2022-01-10T07:47:49.913Z</time>
      </trkpt>
      <trkpt lat="51.912378" lon="4.480601">
        <ele>7.451340</ele>
        <time>2022-01-10T07:47:57.991Z</time>
      </trkpt>
      <trkpt lat="51.912334" lon="4.479950">
        <ele>7.517779</ele>
        <time>2022-01-10T07:48:06.963Z</time>
      </trkpt>
      <trkpt lat="51.912306" lon="4.479624">
        <ele>7.551170</ele>
        <time>2022-01-10T07:48:11.678Z</time>
      </trkpt>
      <trkpt lat="51.912144" lon="4.479038">
        <ele>7.616316</ele>
        <time>2022-01-10T07:48:20.499Z</time>
      </trkpt>
      <trkpt lat="51.911735" lon="4.477559">
        <ele>7.984955</ele>
        <time>2022-01-10T07:48:44.473Z</time>
      </trkpt>
      <trkpt lat="51.911714" lon="4.477486">
        <ele>8.015006</ele>
        <time>2022-01-10T07:48:45.738Z</time>
      </trkpt>
      <trkpt lat="51.911629" lon="4.477217">
        <ele>8.127766</ele>
        <time>2022-01-10T07:48:50.818Z</time>
      </trkpt>
      <trkpt lat="51.911583" lon="4.477072">
        <ele>8.188599</ele>
        <time>2022-01-10T07:48:53.584Z</time>
      </trkpt>
      <trkpt lat="51.911523" lon="4.477141">
        <ele>8.233091</ele>
        <time>2022-01-10T07:48:55.466Z</time>
      </trkpt>
      <trkpt lat="51.911360" lon="4.477326">
        <ele>8.353434</ele>
        <time>2022-01-10T07:49:00.595Z</time>
      </trkpt>
      <trkpt lat="51.911295" lon="4.477400">
        <ele>8.401472</ele>
        <time>2022-01-10T07:49:02.682Z</time>
      </trkpt>
      <trkpt lat="51.911155" lon="4.477678">
        <ele>8.535364</ele>
        <time>2022-01-10T07:49:08.498Z</time>
      </trkpt>
      <trkpt lat="51.910623" lon="4.478081">
        <ele>8.725273</ele>
        <time>2022-01-10T07:49:22.964Z</time>
      </trkpt>
      <trkpt lat="51.910277" lon="4.478058">
        <ele>8.582338</ele>
        <time>2022-01-10T07:49:30.503Z</time>
      </trkpt>
      <trkpt lat="51.910108" lon="4.478001">
        <ele>8.511087</ele>
        <time>2022-01-10T07:49:34.033Z</time>
      </trkpt>
      <trkpt lat="51.909899" lon="4.478074">
        <ele>8.422840</ele>
        <time>2022-01-10T07:49:38.334Z</time>
      </trkpt>
      <trkpt lat="51.909497" lon="4.478483">
        <ele>8.226935</ele>
        <time>2022-01-10T07:49:47.679Z</time>
      </trkpt>
      <trkpt lat="51.909322" lon="4.478597">
        <ele>8.149087</ele>
        <time>2022-01-10T07:49:51.310Z</time>
      </trkpt>
      <trkpt lat="51.909227" lon="4.478659">
        <ele>8.106816</ele>
        <time>2022-01-10T07:49:53.418Z</time>
      </trkpt>
      <trkpt lat="51.909147" lon="4.478707">
        <ele>8.071605</ele>
        <time>2022-01-10T07:49:55.117Z</time>
      </trkpt>
      <trkpt lat="51.909070" lon="4.478730">
        <ele>8.032360</ele>
        <time>2022-01-10T07:49:56.636Z</time>
      </trkpt>
      <trkpt lat="51.908987" lon="4.478553">
        <ele>7.938763</ele>
        <time>2022-01-10T07:49:59.420Z</time>
      </trkpt>
      <trkpt lat="51.908789" lon="4.478223">
        <ele>7.744968</ele>
        <time>2022-01-10T07:50:05.095Z</time>
      </trkpt>
      <trkpt lat="51.908606" lon="4.477855">
        <ele>7.545980</ele>
        <time>2022-01-10T07:50:10.972Z</time>
      </trkpt>
      <trkpt lat="51.908575" lon="4.477746">
        <ele>7.495451</ele>
        <time>2022-01-10T07:50:12.404Z</time>
      </trkpt>
      <trkpt lat="51.908470" lon="4.477378">
        <ele>7.324760</ele>
        <time>2022-01-10T07:50:17.304Z</time>
      </trkpt>
      <trkpt lat="51.908445" lon="4.477271">
        <ele>7.276592</ele>
        <time>2022-01-10T07:50:18.618Z</time>
      </trkpt>
      <trkpt lat="51.908083" lon="4.475572">
        <ele>6.908267</ele>
        <time>2022-01-10T07:50:42.325Z</time>
      </trkpt>
      <trkpt lat="51.907964" lon="4.475009">
        <ele>6.979285</ele>
        <time>2022-01-10T07:50:50.803Z</time>
      </trkpt>
      <trkpt lat="51.907673" lon="4.473636">
        <ele>7.152530</ele>
        <time>2022-01-10T07:51:13.814Z</time>
      </trkpt>
      <trkpt lat="51.907528" lon="4.472948">
        <ele>7.130899</ele>
        <time>2022-01-10T07:51:25.508Z</time>
      </trkpt>
      <trkpt lat="51.907340" lon="4.473041">
        <ele>7.109096</ele>
        <time>2022-01-10T07:51:30.632Z</time>
      </trkpt>
      <trkpt lat="51.906902" lon="4.473329">
        <ele>7.056665</ele>
        <time>2022-01-10T07:51:42.420Z</time>
      </trkpt>
      <trkpt lat="51.906269" lon="4.473717">
        <ele>6.981596</ele>
        <time>2022-01-10T07:51:56.453Z</time>
      </trkpt>
      <trkpt lat="51.906139" lon="4.473804">
        <ele>6.888951</ele>
        <time>2022-01-10T07:51:59.105Z</time>
      </trkpt>
      <trkpt lat="51.906019" lon="4.473878">
        <ele>6.650444</ele>
        <time>2022-01-10T07:52:01.629Z</time>
      </trkpt>
      <trkpt lat="51.905956" lon="4.473911">
        <ele>6.527453</ele>
        <time>2022-01-10T07:52:02.920Z</time>
      </trkpt>
      <trkpt lat="51.905583" lon="4.474147">
        <ele>5.783629</ele>
        <time>2022-01-10T07:52:10.559Z</time>
      </trkpt>
      <trkpt lat="51.904842" lon="4.474610">
        <ele>4.308370</ele>
        <time>2022-01-10T07:52:25.005Z</time>
      </trkpt>
      <trkpt lat="51.904617" lon="4.474275">
        <ele>3.740816</ele>
        <time>2022-01-10T07:52:30.188Z</time>
      </trkpt>
      <trkpt lat="51.904240" lon="4.473740">
        <ele>3.147037</ele>
        <time>2022-01-10T07:52:38.886Z</time>
      </trkpt>
      <trkpt lat="51.903805" lon="4.472523">
        <ele>2.197910</ele>
        <time>2022-01-10T07:52:55.298Z</time>
      </trkpt>
      <trkpt lat="51.903513" lon="4.471542">
        <ele>1.751285</ele>
        <time>2022-01-10T07:53:10.385Z</time>
      </trkpt>
      <trkpt lat="51.903339" lon="4.470975">
        <ele>1.941791</ele>
        <time>2022-01-10T07:53:19.579Z</time>
      </trkpt>
      <trkpt lat="51.903260" lon="4.470696">
        <ele>2.034140</ele>
        <time>2022-01-10T07:53:24.171Z</time>
      </trkpt>
      <trkpt lat="51.903101" lon="4.470141">
        <ele>2.218223</ele>
        <time>2022-01-10T07:53:33.635Z</time>
      </trkpt>
      <trkpt lat="51.902966" lon="4.469585">
        <ele>2.397973</ele>
        <time>2022-01-10T07:53:42.820Z</time>
      </trkpt>
      <trkpt lat="51.902968" lon="4.469250">
        <ele>2.498758</ele>
        <time>2022-01-10T07:53:48.002Z</time>
      </trkpt>
      <trkpt lat="51.902992" lon="4.468922">
        <ele>2.684806</ele>
        <time>2022-01-10T07:53:53.093Z</time>
      </trkpt>
      <trkpt lat="51.902998" lon="4.468852">
        <ele>2.737421</ele>
        <time>2022-01-10T07:53:54.182Z</time>
      </trkpt>
      <trkpt lat="51.903012" lon="4.468665">
        <ele>2.877664</ele>
        <time>2022-01-10T07:53:57.143Z</time>
      </trkpt>
      <trkpt lat="51.903060" lon="4.467949">
        <ele>3.413863</ele>
        <time>2022-01-10T07:54:08.986Z</time>
      </trkpt>
      <trkpt lat="51.903086" lon="4.467888">
        <ele>3.469061</ele>
        <time>2022-01-10T07:54:10.295Z</time>
      </trkpt>
      <trkpt lat="51.903216" lon="4.467585">
        <ele>3.743823</ele>
        <time>2022-01-10T07:54:16.422Z</time>
      </trkpt>
      <trkpt lat="51.903495" lon="4.467338">
        <ele>4.127429</ele>
        <time>2022-01-10T07:54:25.490Z</time>
      </trkpt>
      <trkpt lat="51.903650" lon="4.467212">
        <ele>4.336667</ele>
        <time>2022-01-10T07:54:30.905Z</time>
      </trkpt>
      <trkpt lat="51.904114" lon="4.466916">
        <ele>4.732208</ele>
        <time>2022-01-10T07:54:45.133Z</time>
      </trkpt>
      <trkpt lat="51.904174" lon="4.466876">
        <ele>4.739917</ele>
        <time>2022-01-10T07:54:46.921Z</time>
      </trkpt>
      <trkpt lat="51.904323" lon="4.466781">
        <ele>4.758941</ele>
        <time>2022-01-10T07:54:50.819Z</time>
      </trkpt>
      <trkpt lat="51.904957" lon="4.466379">
        <ele>4.839830</ele>
        <time>2022-01-10T07:55:06.248Z</time>
      </trkpt>
      <trkpt lat="51.905181" lon="4.466237">
        <ele>4.868409</ele>
        <time>2022-01-10T07:55:11.457Z</time>
      </trkpt>
      <trkpt lat="51.905162" lon="4.466152">
        <ele>4.875036</ele>
        <time>2022-01-10T07:55:15.351Z</time>
      </trkpt>
      <trkpt lat="51.905990" lon="4.465637">
        <ele>4.290600</ele>
        <time>2022-01-10T07:55:32.897Z</time>
      </trkpt>
      <trkpt lat="51.906449" lon="4.465262">
        <ele>3.612699</ele>
        <time>2022-01-10T07:55:42.469Z</time>
      </trkpt>
      <trkpt lat="51.906696" lon="4.464971">
        <ele>3.209985</ele>
        <time>2022-01-10T07:55:47.800Z</time>
      </trkpt>
      <trkpt lat="51.906769" lon="4.464868">
        <ele>3.082343</ele>
        <time>2022-01-10T07:55:49.480Z</time>
      </trkpt>
      <trkpt lat="51.906805" lon="4.464792">
        <ele>3.004380</ele>
        <time>2022-01-10T07:55:50.519Z</time>
      </trkpt>
      <trkpt lat="51.906911" lon="4.464706">
        <ele>2.848048</ele>
        <time>2022-01-10T07:55:52.683Z</time>
      </trkpt>
      <trkpt lat="51.907088" lon="4.464584">
        <ele>2.594383</ele>
        <time>2022-01-10T07:55:56.136Z</time>
      </trkpt>
      <trkpt lat="51.907969" lon="4.463996">
        <ele>1.606979</ele>
        <time>2022-01-10T07:56:14.356Z</time>
      </trkpt>
      <trkpt lat="51.908078" lon="4.463835">
        <ele>1.455630</ele>
        <time>2022-01-10T07:56:17.092Z</time>
      </trkpt>
      <trkpt lat="51.908140" lon="4.463773">
        <ele>1.380864</ele>
        <time>2022-01-10T07:56:18.468Z</time>
      </trkpt>
      <trkpt lat="51.908236" lon="4.463716">
        <ele>1.275935</ele>
        <time>2022-01-10T07:56:20.616Z</time>
      </trkpt>
      <trkpt lat="51.908367" lon="4.463706">
        <ele>1.141337</ele>
        <time>2022-01-10T07:56:23.159Z</time>
      </trkpt>
      <trkpt lat="51.908420" lon="4.463735">
        <ele>1.083927</ele>
        <time>2022-01-10T07:56:24.211Z</time>
      </trkpt>
      <trkpt lat="51.909286" lon="4.463172">
        <ele>0.569806</ele>
        <time>2022-01-10T07:56:43.175Z</time>
      </trkpt>
      <trkpt lat="51.909440" lon="4.462910">
        <ele>0.516194</ele>
        <time>2022-01-10T07:56:47.865Z</time>
      </trkpt>
      <trkpt lat="51.909730" lon="4.461480">
        <ele>0.293190</ele>
        <time>2022-01-10T07:57:08.464Z</time>
      </trkpt>
      <trkpt lat="51.909749" lon="4.461387">
        <ele>0.278676</ele>
        <time>2022-01-10T07:57:09.841Z</time>
      </trkpt>
      <trkpt lat="51.909947" lon="4.460275">
        <ele>0.210595</ele>
        <time>2022-01-10T07:57:25.646Z</time>
      </trkpt>
      <trkpt lat="51.909949" lon="4.459860">
        <ele>0.187374</ele>
        <time>2022-01-10T07:57:31.587Z</time>
      </trkpt>
      <trkpt lat="51.909935" lon="4.459599">
        <ele>0.172715</ele>
        <time>2022-01-10T07:57:35.475Z</time>
      </trkpt>
      <trkpt lat="51.909919" lon="4.459308">
        <ele>0.156369</ele>
        <time>2022-01-10T07:57:39.545Z</time>
      </trkpt>
      <trkpt lat="51.909490" lon="4.457881">
        <ele>0.209840</ele>
        <time>2022-01-10T07:57:59.727Z</time>
      </trkpt>
      <trkpt lat="51.909442" lon="4.457746">
        <ele>0.230206</ele>
        <time>2022-01-10T07:58:01.555Z</time>
      </trkpt>
      <trkpt lat="51.909394" lon="4.457617">
        <ele>0.249896</ele>
        <time>2022-01-10T07:58:03.493Z</time>
      </trkpt>
      <trkpt lat="51.909357" lon="4.457512">
        <ele>0.265701</ele>
        <time>2022-01-10T07:58:05.034Z</time>
      </trkpt>
      <trkpt lat="51.908840" lon="4.455648">
        <ele>0.712429</ele>
        <time>2022-01-10T07:58:36.655Z</time>
      </trkpt>
      <trkpt lat="51.908758" lon="4.455108">
        <ele>1.099341</ele>
        <time>2022-01-10T07:58:45.468Z</time>
      </trkpt>
      <trkpt lat="51.908756" lon="4.454533">
        <ele>1.499396</ele>
        <time>2022-01-10T07:58:54.781Z</time>
      </trkpt>
      <trkpt lat="51.908980" lon="4.452833">
        <ele>2.681776</ele>
        <time>2022-01-10T07:59:24.766Z</time>
      </trkpt>
      <trkpt lat="51.909045" lon="4.452314">
        <ele>2.997524</ele>
        <time>2022-01-10T07:59:33.569Z</time>
      </trkpt>
      <trkpt lat="51.909253" lon="4.450916">
        <ele>3.854928</ele>
        <time>2022-01-10T07:59:55.923Z</time>
      </trkpt>
      <trkpt lat="51.909566" lon="4.450194">
        <ele>4.394976</ele>
        <time>2022-01-10T08:00:09.799Z</time>
      </trkpt>
      <trkpt lat="51.909718" lon="4.449975">
        <ele>4.613763</ele>
        <time>2022-01-10T08:00:15.289Z</time>
      </trkpt>
      <trkpt lat="51.909790" lon="4.449896">
        <ele>4.707301</ele>
        <time>2022-01-10T08:00:17.470Z</time>
      </trkpt>
      <trkpt lat="51.909835" lon="4.449855">
        <ele>4.762837</ele>
        <time>2022-01-10T08:00:18.756Z</time>
      </trkpt>
      <trkpt lat="51.909767" lon="4.449683">
        <ele>4.898422</ele>
        <time>2022-01-10T08:00:22.169Z</time>
      </trkpt>
      <trkpt lat="51.909692" lon="4.449510">
        <ele>5.038758</ele>
        <time>2022-01-10T08:00:25.748Z</time>
      </trkpt>
      <trkpt lat="51.909650" lon="4.449274">
        <ele>5.201777</ele>
        <time>2022-01-10T08:00:29.696Z</time>
      </trkpt>
      <trkpt lat="51.909813" lon="4.448564">
        <ele>5.704571</ele>
        <time>2022-01-10T08:00:42.776Z</time>
      </trkpt>
      <trkpt lat="51.910032" lon="4.445985">
        <ele>6.902043</ele>
        <time>2022-01-10T08:01:24.424Z</time>
      </trkpt>
      <trkpt lat="51.910140" lon="4.444909">
        <ele>7.293035</ele>
        <time>2022-01-10T08:01:39.938Z</time>
      </trkpt>
      <trkpt lat="51.910405" lon="4.443619">
        <ele>7.063613</ele>
        <time>2022-01-10T08:01:57.792Z</time>
      </trkpt>
      <trkpt lat="51.910603" lon="4.442655">
        <ele>6.892172</ele>
        <time>2022-01-10T08:02:10.625Z</time>
      </trkpt>
      <trkpt lat="51.911090" lon="4.440423">
        <ele>6.356751</ele>
        <time>2022-01-10T08:02:41.555Z</time>
      </trkpt>
      <trkpt lat="51.911367" lon="4.439497">
        <ele>6.108260</ele>
        <time>2022-01-10T08:02:54.684Z</time>
      </trkpt>
      <trkpt lat="51.911590" lon="4.438740">
        <ele>5.806115</ele>
        <time>2022-01-10T08:03:05.330Z</time>
      </trkpt>
      <trkpt lat="51.911817" lon="4.437991">
        <ele>5.503464</ele>
        <time>2022-01-10T08:03:15.833Z</time>
      </trkpt>
      <trkpt lat="51.912044" lon="4.437233">
        <ele>5.197881</ele>
        <time>2022-01-10T08:03:26.033Z</time>
      </trkpt>
      <trkpt lat="51.912181" lon="4.436776">
        <ele>5.036748</ele>
        <time>2022-01-10T08:03:32.212Z</time>
      </trkpt>
      <trkpt lat="51.912288" lon="4.436572">
        <ele>5.007643</ele>
        <time>2022-01-10T08:03:35.645Z</time>
      </trkpt>
      <trkpt lat="51.912389" lon="4.436268">
        <ele>4.970114</ele>
        <time>2022-01-10T08:03:40.035Z</time>
      </trkpt>
      <trkpt lat="51.912670" lon="4.435229">
        <ele>4.846810</ele>
        <time>2022-01-10T08:03:55.410Z</time>
      </trkpt>
      <trkpt lat="51.912825" lon="4.434675">
        <ele>4.780693</ele>
        <time>2022-01-10T08:04:04.342Z</time>
      </trkpt>
      <trkpt lat="51.912958" lon="4.434200">
        <ele>4.718641</ele>
        <time>2022-01-10T08:04:11.559Z</time>
      </trkpt>
      <trkpt lat="51.913134" lon="4.433932">
        <ele>4.636408</ele>
        <time>2022-01-10T08:04:16.777Z</time>
      </trkpt>
      <trkpt lat="51.913174" lon="4.433840">
        <ele>4.612762</ele>
        <time>2022-01-10T08:04:18.289Z</time>
      </trkpt>
      <trkpt lat="51.913235" lon="4.433707">
        <ele>4.577945</ele>
        <time>2022-01-10T08:04:20.450Z</time>
      </trkpt>
      <trkpt lat="51.913307" lon="4.433532">
        <ele>4.533755</ele>
        <time>2022-01-10T08:04:23.033Z</time>
      </trkpt>
      <trkpt lat="51.913279" lon="4.433426">
        <ele>4.509532</ele>
        <time>2022-01-10T08:04:24.512Z</time>
      </trkpt>
      <trkpt lat="51.913194" lon="4.433140">
        <ele>4.442840</ele>
        <time>2022-01-10T08:04:28.446Z</time>
      </trkpt>
      <trkpt lat="51.913108" lon="4.432652">
        <ele>4.336222</ele>
        <time>2022-01-10T08:04:34.666Z</time>
      </trkpt>
      <trkpt lat="51.913272" lon="4.431737">
        <ele>4.136053</ele>
        <time>2022-01-10T08:04:47.175Z</time>
      </trkpt>
      <trkpt lat="51.913369" lon="4.431023">
        <ele>4.072769</ele>
        <time>2022-01-10T08:04:56.787Z</time>
      </trkpt>
      <trkpt lat="51.913389" lon="4.430837">
        <ele>4.059691</ele>
        <time>2022-01-10T08:04:59.436Z</time>
      </trkpt>
      <trkpt lat="51.913430" lon="4.430461">
        <ele>4.033243</ele>
        <time>2022-01-10T08:05:04.268Z</time>
      </trkpt>
      <trkpt lat="51.913459" lon="4.430269">
        <ele>4.019551</ele>
        <time>2022-01-10T08:05:06.945Z</time>
      </trkpt>
      <trkpt lat="51.913487" lon="4.430006">
        <ele>4.001065</ele>
        <time>2022-01-10T08:05:10.325Z</time>
      </trkpt>
      <trkpt lat="51.913498" lon="4.429925">
        <ele>3.995320</ele>
        <time>2022-01-10T08:05:11.341Z</time>
      </trkpt>
      <trkpt lat="51.913521" lon="4.429716">
        <ele>3.980614</ele>
        <time>2022-01-10T08:05:14.199Z</time>
      </trkpt>
      <trkpt lat="51.913463" lon="4.428181">
        <ele>3.913466</ele>
        <time>2022-01-10T08:05:35.774Z</time>
      </trkpt>
      <trkpt lat="51.913478" lon="4.427584">
        <ele>3.911700</ele>
        <time>2022-01-10T08:05:45.170Z</time>
      </trkpt>
      <trkpt lat="51.913686" lon="4.424074">
        <ele>3.628690</ele>
        <time>2022-01-10T08:06:31.555Z</time>
      </trkpt>
      <trkpt lat="51.913691" lon="4.423989">
        <ele>3.615518</ele>
        <time>2022-01-10T08:06:32.603Z</time>
      </trkpt>
      <trkpt lat="51.914031" lon="4.418232">
        <ele>3.021301</ele>
        <time>2022-01-10T08:07:48.891Z</time>
      </trkpt>
      <trkpt lat="51.914035" lon="4.418122">
        <ele>3.019319</ele>
        <time>2022-01-10T08:07:50.524Z</time>
      </trkpt>
      <trkpt lat="51.914303" lon="4.413569">
        <ele>3.552539</ele>
        <time>2022-01-10T08:08:56.684Z</time>
      </trkpt>
      <trkpt lat="51.914331" lon="4.412768">
        <ele>3.562140</ele>
        <time>2022-01-10T08:09:07.967Z</time>
      </trkpt>
      <trkpt lat="51.914377" lon="4.412462">
        <ele>3.565908</ele>
        <time>2022-01-10T08:09:12.060Z</time>
      </trkpt>
      <trkpt lat="51.914317" lon="4.412120">
        <ele>3.570163</ele>
        <time>2022-01-10T08:09:17.225Z</time>
      </trkpt>
      <trkpt lat="51.914336" lon="4.411902">
        <ele>3.572798</ele>
        <time>2022-01-10T08:09:20.091Z</time>
      </trkpt>
      <trkpt lat="51.914387" lon="4.411349">
        <ele>3.571623</ele>
        <time>2022-01-10T08:09:27.920Z</time>
      </trkpt>
      <trkpt lat="51.914605" lon="4.409052">
        <ele>2.919674</ele>
        <time>2022-01-10T08:09:57.167Z</time>
      </trkpt>
      <trkpt lat="51.914613" lon="4.408942">
        <ele>2.888602</ele>
        <time>2022-01-10T08:09:58.585Z</time>
      </trkpt>
      <trkpt lat="51.914625" lon="4.408802">
        <ele>2.848951</ele>
        <time>2022-01-10T08:10:00.378Z</time>
      </trkpt>
      <trkpt lat="51.914634" lon="4.408691">
        <ele>2.817545</ele>
        <time>2022-01-10T08:10:01.833Z</time>
      </trkpt>
      <trkpt lat="51.914759" lon="4.407233">
        <ele>2.540761</ele>
        <time>2022-01-10T08:10:20.592Z</time>
      </trkpt>
      <trkpt lat="51.914959" lon="4.403834">
        <ele>2.461112</ele>
        <time>2022-01-10T08:11:06.159Z</time>
      </trkpt>
      <trkpt lat="51.914860" lon="4.403080">
        <ele>2.550671</ele>
        <time>2022-01-10T08:11:18.092Z</time>
      </trkpt>
      <trkpt lat="51.914827" lon="4.402982">
        <ele>2.563642</ele>
        <time>2022-01-10T08:11:19.968Z</time>
      </trkpt>
      <trkpt lat="51.914740" lon="4.402733">
        <ele>2.604592</ele>
        <time>2022-01-10T08:11:24.399Z</time>
      </trkpt>
      <trkpt lat="51.914735" lon="4.402720">
        <ele>2.611650</ele>
        <time>2022-01-10T08:11:24.670Z</time>
      </trkpt>
      <trkpt lat="51.914705" lon="4.402648">
        <ele>2.651679</ele>
        <time>2022-01-10T08:11:26.215Z</time>
      </trkpt>
      <trkpt lat="51.914644" lon="4.402467">
        <ele>2.746700</ele>
        <time>2022-01-10T08:11:29.855Z</time>
      </trkpt>
      <trkpt lat="51.914598" lon="4.402320">
        <ele>2.822640</ele>
        <time>2022-01-10T08:11:32.470Z</time>
      </trkpt>
      <trkpt lat="51.914586" lon="4.402275">
        <ele>2.845226</ele>
        <time>2022-01-10T08:11:33.241Z</time>
      </trkpt>
      <trkpt lat="51.914565" lon="4.402217">
        <ele>2.876210</ele>
        <time>2022-01-10T08:11:34.302Z</time>
      </trkpt>
      <trkpt lat="51.914431" lon="4.401782">
        <ele>3.100216</ele>
        <time>2022-01-10T08:11:42.572Z</time>
      </trkpt>
      <trkpt lat="51.914369" lon="4.401686">
        <ele>3.164251</ele>
        <time>2022-01-10T08:11:44.858Z</time>
      </trkpt>
      <trkpt lat="51.914235" lon="4.401649">
        <ele>3.265774</ele>
        <time>2022-01-10T08:11:48.843Z</time>
      </trkpt>
      <trkpt lat="51.914029" lon="4.401578">
        <ele>3.423070</ele>
        <time>2022-01-10T08:11:54.376Z</time>
      </trkpt>
      <trkpt lat="51.913933" lon="4.401532">
        <ele>3.497837</ele>
        <time>2022-01-10T08:11:57.024Z</time>
      </trkpt>
      <trkpt lat="51.913863" lon="4.401476">
        <ele>3.556138</ele>
        <time>2022-01-10T08:11:58.984Z</time>
      </trkpt>
      <trkpt lat="51.913865" lon="4.401459">
        <ele>3.564111</ele>
        <time>2022-01-10T08:11:59.316Z</time>
      </trkpt>
      <trkpt lat="51.913914" lon="4.401121">
        <ele>3.724074</ele>
        <time>2022-01-10T08:12:05.581Z</time>
      </trkpt>
      <trkpt lat="51.913957" lon="4.400850">
        <ele>3.852990</ele>
        <time>2022-01-10T08:12:10.878Z</time>
      </trkpt>
      <trkpt lat="51.914053" lon="4.400041">
        <ele>4.149975</ele>
        <time>2022-01-10T08:12:27.046Z</time>
      </trkpt>
      <trkpt lat="51.914239" lon="4.398721">
        <ele>4.599114</ele>
        <time>2022-01-10T08:12:53.788Z</time>
      </trkpt>
      <trkpt lat="51.914385" lon="4.398066">
        <ele>4.830135</ele>
        <time>2022-01-10T08:13:06.975Z</time>
      </trkpt>
      <trkpt lat="51.914773" lon="4.397079">
        <ele>5.079905</ele>
        <time>2022-01-10T08:13:28.977Z</time>
      </trkpt>
      <trkpt lat="51.914962" lon="4.396845">
        <ele>5.151302</ele>
        <time>2022-01-10T08:13:36.202Z</time>
      </trkpt>
      <trkpt lat="51.915100" lon="4.396700">
        <ele>5.200674</ele>
        <time>2022-01-10T08:13:41.420Z</time>
      </trkpt>
      <trkpt lat="51.915569" lon="4.396543">
        <ele>5.344449</ele>
        <time>2022-01-10T08:13:56.090Z</time>
      </trkpt>
      <trkpt lat="51.915719" lon="4.396502">
        <ele>5.390119</ele>
        <time>2022-01-10T08:14:00.680Z</time>
      </trkpt>
      <trkpt lat="51.915871" lon="4.396465">
        <ele>5.436264</ele>
        <time>2022-01-10T08:14:05.283Z</time>
      </trkpt>
      <trkpt lat="51.916736" lon="4.396425">
        <ele>5.334838</ele>
        <time>2022-01-10T08:14:30.836Z</time>
      </trkpt>
      <trkpt lat="51.917302" lon="4.396489">
        <ele>5.260197</ele>
        <time>2022-01-10T08:14:46.741Z</time>
      </trkpt>
      <trkpt lat="51.917300" lon="4.396440">
        <ele>5.256212</ele>
        <time>2022-01-10T08:14:47.548Z</time>
      </trkpt>
      <trkpt lat="51.917337" lon="4.396452">
        <ele>5.251248</ele>
        <time>2022-01-10T08:14:48.379Z</time>
      </trkpt>
      <trkpt lat="51.917431" lon="4.396479">
        <ele>5.238689</ele>
        <time>2022-01-10T08:14:50.474Z</time>
      </trkpt>
      <trkpt lat="51.917484" lon="4.396497">
        <ele>5.231566</ele>
        <time>2022-01-10T08:14:51.673Z</time>
      </trkpt>
      <trkpt lat="51.917477" lon="4.396548">
        <ele>5.227326</ele>
        <time>2022-01-10T08:14:52.455Z</time>
      </trkpt>
      <trkpt lat="51.917745" lon="4.396634">
        <ele>5.137247</ele>
        <time>2022-01-10T08:15:00.055Z</time>
      </trkpt>
      <trkpt lat="51.917796" lon="4.395924">
        <ele>4.893339</ele>
        <time>2022-01-10T08:15:12.338Z</time>
      </trkpt>
      <trkpt lat="51.917840" lon="4.395486">
        <ele>4.741913</ele>
        <time>2022-01-10T08:15:19.754Z</time>
      </trkpt>
      <trkpt lat="51.917870" lon="4.395242">
        <ele>4.657016</ele>
        <time>2022-01-10T08:15:23.955Z</time>
      </trkpt>
      <trkpt lat="51.918056" lon="4.394037">
        <ele>4.233160</ele>
        <time>2022-01-10T08:15:44.474Z</time>
      </trkpt>
      <trkpt lat="51.917886" lon="4.393855">
        <ele>4.136529</ele>
        <time>2022-01-10T08:15:49.974Z</time>
      </trkpt>
      <trkpt lat="51.917683" lon="4.393495">
        <ele>3.998927</ele>
        <time>2022-01-10T08:15:58.205Z</time>
      </trkpt>
      <trkpt lat="51.917451" lon="4.392835">
        <ele>3.784623</ele>
        <time>2022-01-10T08:16:11.187Z</time>
      </trkpt>
      <trkpt lat="51.917333" lon="4.392346">
        <ele>3.636491</ele>
        <time>2022-01-10T08:16:18.190Z</time>
      </trkpt>
      <trkpt lat="51.917387" lon="4.392105">
        <ele>3.564156</ele>
        <time>2022-01-10T08:16:21.671Z</time>
      </trkpt>
      <trkpt lat="51.917369" lon="4.392023">
        <ele>3.539602</ele>
        <time>2022-01-10T08:16:22.852Z</time>
      </trkpt>
      <trkpt lat="51.917322" lon="4.391944">
        <ele>3.508638</ele>
        <time>2022-01-10T08:16:24.364Z</time>
      </trkpt>
      <trkpt lat="51.917255" lon="4.391903">
        <ele>3.475883</ele>
        <time>2022-01-10T08:16:25.968Z</time>
      </trkpt>
      <trkpt lat="51.917176" lon="4.391919">
        <ele>3.439470</ele>
        <time>2022-01-10T08:16:27.729Z</time>
      </trkpt>
      <trkpt lat="51.916897" lon="4.391433">
        <ele>3.375536</ele>
        <time>2022-01-10T08:16:36.523Z</time>
      </trkpt>
      <trkpt lat="51.916688" lon="4.390813">
        <ele>3.353891</ele>
        <time>2022-01-10T08:16:45.772Z</time>
      </trkpt>
      <trkpt lat="51.916610" lon="4.390579">
        <ele>3.345742</ele>
        <time>2022-01-10T08:16:49.263Z</time>
      </trkpt>
      <trkpt lat="51.916441" lon="4.390057">
        <ele>3.327681</ele>
        <time>2022-01-10T08:16:57.167Z</time>
      </trkpt>
      <trkpt lat="51.916122" lon="4.389421">
        <ele>3.302568</ele>
        <time>2022-01-10T08:17:08.667Z</time>
      </trkpt>
      <trkpt lat="51.915783" lon="4.388922">
        <ele>3.490295</ele>
        <time>2022-01-10T08:17:19.860Z</time>
      </trkpt>
      <trkpt lat="51.915695" lon="4.388715">
        <ele>3.558328</ele>
        <time>2022-01-10T08:17:23.767Z</time>
      </trkpt>
      <trkpt lat="51.915565" lon="4.388070">
        <ele>3.741954</ele>
        <time>2022-01-10T08:17:34.812Z</time>
      </trkpt>
      <trkpt lat="51.915137" lon="4.385497">
        <ele>3.714378</ele>
        <time>2022-01-10T08:18:14.472Z</time>
      </trkpt>
      <trkpt lat="51.915244" lon="4.385571">
        <ele>3.662909</ele>
        <time>2022-01-10T08:18:17.615Z</time>
      </trkpt>
      <trkpt lat="51.915624" lon="4.385461">
        <ele>3.492120</ele>
        <time>2022-01-10T08:18:27.733Z</time>
      </trkpt>
      <trkpt lat="51.915790" lon="4.385306">
        <ele>3.407363</ele>
        <time>2022-01-10T08:18:32.547Z</time>
      </trkpt>
      <trkpt lat="51.915733" lon="4.385238">
        <ele>3.376052</ele>
        <time>2022-01-10T08:18:34.034Z</time>
      </trkpt>
      <trkpt lat="51.916304" lon="4.384094">
        <ele>2.669736</ele>
        <time>2022-01-10T08:18:52.144Z</time>
      </trkpt>
      <trkpt lat="51.916384" lon="4.383935">
        <ele>2.560435</ele>
        <time>2022-01-10T08:18:54.497Z</time>
      </trkpt>
      <trkpt lat="51.916691" lon="4.383218">
        <ele>2.095500</ele>
        <time>2022-01-10T08:19:05.894Z</time>
      </trkpt>
      <trkpt lat="51.916733" lon="4.383249">
        <ele>2.055647</ele>
        <time>2022-01-10T08:19:07.107Z</time>
      </trkpt>
      <trkpt lat="51.917097" lon="4.382393">
        <ele>1.710272</ele>
        <time>2022-01-10T08:19:24.687Z</time>
      </trkpt>
      <trkpt lat="51.917283" lon="4.381957">
        <ele>1.673781</ele>
        <time>2022-01-10T08:19:33.785Z</time>
      </trkpt>
      <trkpt lat="51.917460" lon="4.381519">
        <ele>1.637738</ele>
        <time>2022-01-10T08:19:43.319Z</time>
      </trkpt>
      <trkpt lat="51.917615" lon="4.381170">
        <ele>1.608135</ele>
        <time>2022-01-10T08:19:50.904Z</time>
      </trkpt>
      <trkpt lat="51.917572" lon="4.381117">
        <ele>1.602107</ele>
        <time>2022-01-10T08:19:52.308Z</time>
      </trkpt>
      <trkpt lat="51.917783" lon="4.380592">
        <ele>1.558975</ele>
        <time>2022-01-10T08:20:01.530Z</time>
      </trkpt>
      <trkpt lat="51.918002" lon="4.380070">
        <ele>1.553060</ele>
        <time>2022-01-10T08:20:10.885Z</time>
      </trkpt>
      <trkpt lat="51.918143" lon="4.379732">
        <ele>1.567215</ele>
        <time>2022-01-10T08:20:16.892Z</time>
      </trkpt>
      <trkpt lat="51.918219" lon="4.379803">
        <ele>1.572148</ele>
        <time>2022-01-10T08:20:19.089Z</time>
      </trkpt>
      <trkpt lat="51.918261" lon="4.379683">
        <ele>1.576934</ele>
        <time>2022-01-10T08:20:21.105Z</time>
      </trkpt>
      <trkpt lat="51.918314" lon="4.379560">
        <ele>1.582139</ele>
        <time>2022-01-10T08:20:23.163Z</time>
      </trkpt>
      <trkpt lat="51.918362" lon="4.379453">
        <ele>1.586728</ele>
        <time>2022-01-10T08:20:24.982Z</time>
      </trkpt>
      <trkpt lat="51.918391" lon="4.379176">
        <ele>1.596475</ele>
        <time>2022-01-10T08:20:29.107Z</time>
      </trkpt>
      <trkpt lat="51.918492" lon="4.378993">
        <ele>1.604993</ele>
        <time>2022-01-10T08:20:33.512Z</time>
      </trkpt>
      <trkpt lat="51.917991" lon="4.377869">
        <ele>1.536558</ele>
        <time>2022-01-10T08:20:57.953Z</time>
      </trkpt>
      <trkpt lat="51.917921" lon="4.377713">
        <ele>1.475198</ele>
        <time>2022-01-10T08:21:00.604Z</time>
      </trkpt>
      <trkpt lat="51.917915" lon="4.377695">
        <ele>1.468690</ele>
        <time>2022-01-10T08:21:00.872Z</time>
      </trkpt>
      <trkpt lat="51.918808" lon="4.376642">
        <ele>0.899273</ele>
        <time>2022-01-10T08:21:24.956Z</time>
      </trkpt>
      <trkpt lat="51.918852" lon="4.376429">
        <ele>0.827828</ele>
        <time>2022-01-10T08:21:27.824Z</time>
      </trkpt>
      <trkpt lat="51.918868" lon="4.376333">
        <ele>0.796199</ele>
        <time>2022-01-10T08:21:29.006Z</time>
      </trkpt>
      <trkpt lat="51.918944" lon="4.375951">
        <ele>0.614223</ele>
        <time>2022-01-10T08:21:34.019Z</time>
      </trkpt>
      <trkpt lat="51.918956" lon="4.375879">
        <ele>0.562234</ele>
        <time>2022-01-10T08:21:34.886Z</time>
      </trkpt>
      <trkpt lat="51.918976" lon="4.375756">
        <ele>0.473563</ele>
        <time>2022-01-10T08:21:36.290Z</time>
      </trkpt>
      <trkpt lat="51.919148" lon="4.375908">
        <ele>0.252169</ele>
        <time>2022-01-10T08:21:40.032Z</time>
      </trkpt>
      <trkpt lat="51.919304" lon="4.376173">
        <ele>-0.003192</ele>
        <time>2022-01-10T08:21:44.154Z</time>
      </trkpt>
      <trkpt lat="51.919366" lon="4.376176">
        <ele>-0.073295</ele>
        <time>2022-01-10T08:21:45.353Z</time>
      </trkpt>
      <trkpt lat="51.919467" lon="4.376066">
        <ele>-0.210808</ele>
        <time>2022-01-10T08:21:47.662Z</time>
      </trkpt>
      <trkpt lat="51.919653" lon="4.375957">
        <ele>-0.434335</ele>
        <time>2022-01-10T08:21:51.266Z</time>
      </trkpt>
      <trkpt lat="51.919513" lon="4.375705">
        <ele>-0.670751</ele>
        <time>2022-01-10T08:21:55.310Z</time>
      </trkpt>
      <trkpt lat="51.919457" lon="4.375568">
        <ele>-0.785319</ele>
        <time>2022-01-10T08:21:57.130Z</time>
      </trkpt>
      <trkpt lat="51.919171" lon="4.374872">
        <ele>-1.343797</ele>
        <time>2022-01-10T08:22:07.169Z</time>
      </trkpt>
      <trkpt lat="51.918823" lon="4.374224">
        <ele>-1.646793</ele>
        <time>2022-01-10T08:22:17.430Z</time>
      </trkpt>
      <trkpt lat="51.918176" lon="4.372952">
        <ele>-2.228217</ele>
        <time>2022-01-10T08:22:38.071Z</time>
      </trkpt>
      <trkpt lat="51.916137" lon="4.369969">
        <ele>-1.850157</ele>
        <time>2022-01-10T08:23:41.762Z</time>
      </trkpt>
      <trkpt lat="51.915978" lon="4.369896">
        <ele>-1.802589</ele>
        <time>2022-01-10T08:23:45.588Z</time>
      </trkpt>
      <trkpt lat="51.914819" lon="4.368337">
        <ele>-1.296810</ele>
        <time>2022-01-10T08:24:22.553Z</time>
      </trkpt>
      <trkpt lat="51.914158" lon="4.367365">
        <ele>-0.934620</ele>
        <time>2022-01-10T08:24:43.866Z</time>
      </trkpt>
      <trkpt lat="51.914062" lon="4.367225">
        <ele>-0.882213</ele>
        <time>2022-01-10T08:24:47.121Z</time>
      </trkpt>
      <trkpt lat="51.913618" lon="4.366550">
        <ele>-0.601408</ele>
        <time>2022-01-10T08:25:02.534Z</time>
      </trkpt>
      <trkpt lat="51.913472" lon="4.366302">
        <ele>-0.499503</ele>
        <time>2022-01-10T08:25:07.719Z</time>
      </trkpt>
      <trkpt lat="51.913386" lon="4.365782">
        <ele>-0.339469</ele>
        <time>2022-01-10T08:25:15.848Z</time>
      </trkpt>
      <trkpt lat="51.913319" lon="4.365640">
        <ele>-0.286326</ele>
        <time>2022-01-10T08:25:18.505Z</time>
      </trkpt>
      <trkpt lat="51.913153" lon="4.365374">
        <ele>-0.173848</ele>
        <time>2022-01-10T08:25:24.380Z</time>
      </trkpt>
      <trkpt lat="51.912285" lon="4.364100">
        <ele>0.378610</ele>
        <time>2022-01-10T08:25:51.925Z</time>
      </trkpt>
      <trkpt lat="51.912157" lon="4.363341">
        <ele>0.604374</ele>
        <time>2022-01-10T08:26:03.673Z</time>
      </trkpt>
      <trkpt lat="51.912048" lon="4.362649">
        <ele>0.809295</ele>
        <time>2022-01-10T08:26:14.421Z</time>
      </trkpt>
      <trkpt lat="51.911934" lon="4.361957">
        <ele>1.109239</ele>
        <time>2022-01-10T08:26:25.503Z</time>
      </trkpt>
      <trkpt lat="51.911833" lon="4.361355">
        <ele>1.421508</ele>
        <time>2022-01-10T08:26:35.057Z</time>
      </trkpt>
      <trkpt lat="51.911654" lon="4.361416">
        <ele>1.569924</ele>
        <time>2022-01-10T08:26:39.698Z</time>
      </trkpt>
      <trkpt lat="51.911138" lon="4.361342">
        <ele>1.990247</ele>
        <time>2022-01-10T08:26:52.811Z</time>
      </trkpt>
      <trkpt lat="51.911109" lon="4.361217">
        <ele>2.057093</ele>
        <time>2022-01-10T08:26:54.986Z</time>
      </trkpt>
      <trkpt lat="51.911101" lon="4.361173">
        <ele>2.080054</ele>
        <time>2022-01-10T08:26:55.728Z</time>
      </trkpt>
      <trkpt lat="51.911044" lon="4.361183">
        <ele>2.126574</ele>
        <time>2022-01-10T08:26:57.247Z</time>
      </trkpt>
      <trkpt lat="51.911024" lon="4.361186">
        <ele>2.142872</ele>
        <time>2022-01-10T08:26:57.793Z</time>
      </trkpt>
      <trkpt lat="51.911004" lon="4.361178">
        <ele>2.159587</ele>
        <time>2022-01-10T08:26:58.339Z</time>
      </trkpt>
      <trkpt lat="51.910976" lon="4.361166">
        <ele>2.183087</ele>
        <time>2022-01-10T08:26:59.092Z</time>
      </trkpt>
      <trkpt lat="51.910958" lon="4.361158">
        <ele>2.198231</ele>
        <time>2022-01-10T08:26:59.590Z</time>
      </trkpt>
      <trkpt lat="51.910938" lon="4.361134">
        <ele>2.218422</ele>
        <time>2022-01-10T08:27:00.261Z</time>
      </trkpt>
      <trkpt lat="51.910853" lon="4.360978">
        <ele>2.322605</ele>
        <time>2022-01-10T08:27:03.665Z</time>
      </trkpt>
      <trkpt lat="51.910840" lon="4.360856">
        <ele>2.373130</ele>
        <time>2022-01-10T08:27:05.735Z</time>
      </trkpt>
      <trkpt lat="51.910850" lon="4.360763">
        <ele>2.405835</ele>
        <time>2022-01-10T08:27:07.294Z</time>
      </trkpt>
      <trkpt lat="51.910856" lon="4.360733">
        <ele>2.416762</ele>
        <time>2022-01-10T08:27:07.811Z</time>
      </trkpt>
      <trkpt lat="51.910864" lon="4.360713">
        <ele>2.425020</ele>
        <time>2022-01-10T08:27:08.198Z</time>
      </trkpt>
      <trkpt lat="51.910880" lon="4.360670">
        <ele>2.442417</ele>
        <time>2022-01-10T08:27:09.030Z</time>
      </trkpt>
      <trkpt lat="51.910889" lon="4.360648">
        <ele>2.451563</ele>
        <time>2022-01-10T08:27:09.470Z</time>
      </trkpt>
      <trkpt lat="51.910903" lon="4.360627">
        <ele>2.462275</ele>
        <time>2022-01-10T08:27:09.980Z</time>
      </trkpt>
      <trkpt lat="51.910975" lon="4.360552">
        <ele>2.510340</ele>
        <time>2022-01-10T08:27:12.200Z</time>
      </trkpt>
      <trkpt lat="51.910935" lon="4.360508">
        <ele>2.537489</ele>
        <time>2022-01-10T08:27:13.529Z</time>
      </trkpt>
      <trkpt lat="51.910871" lon="4.360426">
        <ele>2.583304</ele>
        <time>2022-01-10T08:27:15.718Z</time>
      </trkpt>
      <trkpt lat="51.910534" lon="4.360108">
        <ele>2.802298</ele>
        <time>2022-01-10T08:27:25.754Z</time>
      </trkpt>
      <trkpt lat="51.910467" lon="4.360048">
        <ele>2.845287</ele>
        <time>2022-01-10T08:27:27.694Z</time>
      </trkpt>
      <trkpt lat="51.910007" lon="4.359634">
        <ele>3.140776</ele>
        <time>2022-01-10T08:27:40.442Z</time>
      </trkpt>
      <trkpt lat="51.909931" lon="4.359561">
        <ele>3.190389</ele>
        <time>2022-01-10T08:27:42.540Z</time>
      </trkpt>
      <trkpt lat="51.909790" lon="4.359455">
        <ele>3.277678</ele>
        <time>2022-01-10T08:27:46.018Z</time>
      </trkpt>
      <trkpt lat="51.909567" lon="4.359183">
        <ele>3.258893</ele>
        <time>2022-01-10T08:27:52.118Z</time>
      </trkpt>
      <trkpt lat="51.909448" lon="4.358918">
        <ele>3.113176</ele>
        <time>2022-01-10T08:27:56.329Z</time>
      </trkpt>
      <trkpt lat="51.909437" lon="4.358434">
        <ele>2.897860</ele>
        <time>2022-01-10T08:28:02.617Z</time>
      </trkpt>
      <trkpt lat="51.909366" lon="4.358402">
        <ele>2.844753</ele>
        <time>2022-01-10T08:28:04.114Z</time>
      </trkpt>
      <trkpt lat="51.909294" lon="4.358360">
        <ele>2.789610</ele>
        <time>2022-01-10T08:28:05.699Z</time>
      </trkpt>
      <trkpt lat="51.909249" lon="4.358335">
        <ele>2.755330</ele>
        <time>2022-01-10T08:28:06.691Z</time>
      </trkpt>
      <trkpt lat="51.909137" lon="4.358265">
        <ele>2.668826</ele>
        <time>2022-01-10T08:28:09.119Z</time>
      </trkpt>
      <trkpt lat="51.908955" lon="4.357840">
        <ele>2.438824</ele>
        <time>2022-01-10T08:28:15.256Z</time>
      </trkpt>
      <trkpt lat="51.908484" lon="4.356519">
        <ele>1.850120</ele>
        <time>2022-01-10T08:28:33.353Z</time>
      </trkpt>
      <trkpt lat="51.908346" lon="4.356147">
        <ele>1.714618</ele>
        <time>2022-01-10T08:28:38.687Z</time>
      </trkpt>
      <trkpt lat="51.907999" lon="4.355496">
        <ele>1.446054</ele>
        <time>2022-01-10T08:28:49.454Z</time>
      </trkpt>
      <trkpt lat="51.907725" lon="4.354972">
        <ele>1.231628</ele>
        <time>2022-01-10T08:28:58.468Z</time>
      </trkpt>
      <trkpt lat="51.907604" lon="4.354719">
        <ele>1.167641</ele>
        <time>2022-01-10T08:29:02.955Z</time>
      </trkpt>
      <trkpt lat="51.907481" lon="4.354414">
        <ele>1.262971</ele>
        <time>2022-01-10T08:29:08.319Z</time>
      </trkpt>
      <trkpt lat="51.907198" lon="4.353684">
        <ele>1.488533</ele>
        <time>2022-01-10T08:29:21.478Z</time>
      </trkpt>
      <trkpt lat="51.907139" lon="4.353535">
        <ele>1.534853</ele>
        <time>2022-01-10T08:29:24.143Z</time>
      </trkpt>
      <trkpt lat="51.906946" lon="4.353026">
        <ele>1.691161</ele>
        <time>2022-01-10T08:29:33.139Z</time>
      </trkpt>
      <trkpt lat="51.906823" lon="4.352678">
        <ele>1.796090</ele>
        <time>2022-01-10T08:29:39.119Z</time>
      </trkpt>
      <trkpt lat="51.906645" lon="4.351969">
        <ele>1.932868</ele>
        <time>2022-01-10T08:29:53.777Z</time>
      </trkpt>
      <trkpt lat="51.906615" lon="4.351883">
        <ele>1.938790</ele>
        <time>2022-01-10T08:29:55.681Z</time>
      </trkpt>
      <trkpt lat="51.906539" lon="4.351731">
        <ele>1.950517</ele>
        <time>2022-01-10T08:29:59.411Z</time>
      </trkpt>
      <trkpt lat="51.906291" lon="4.351459">
        <ele>1.979609</ele>
        <time>2022-01-10T08:30:08.648Z</time>
      </trkpt>
      <trkpt lat="51.906119" lon="4.351079">
        <ele>2.007859</ele>
        <time>2022-01-10T08:30:17.553Z</time>
      </trkpt>
      <trkpt lat="51.905169" lon="4.348998">
        <ele>1.769307</ele>
        <time>2022-01-10T08:31:02.764Z</time>
      </trkpt>
      <trkpt lat="51.905077" lon="4.348801">
        <ele>1.705619</ele>
        <time>2022-01-10T08:31:06.770Z</time>
      </trkpt>
      <trkpt lat="51.904756" lon="4.348136">
        <ele>1.487968</ele>
        <time>2022-01-10T08:31:20.732Z</time>
      </trkpt>
      <trkpt lat="51.904572" lon="4.347597">
        <ele>1.338113</ele>
        <time>2022-01-10T08:31:31.299Z</time>
      </trkpt>
      <trkpt lat="51.904496" lon="4.347184">
        <ele>1.349806</ele>
        <time>2022-01-10T08:31:38.899Z</time>
      </trkpt>
      <trkpt lat="51.904462" lon="4.347073">
        <ele>1.353168</ele>
        <time>2022-01-10T08:31:40.697Z</time>
      </trkpt>
      <trkpt lat="51.904403" lon="4.346793">
        <ele>1.361196</ele>
        <time>2022-01-10T08:31:44.838Z</time>
      </trkpt>
      <trkpt lat="51.904359" lon="4.346587">
        <ele>1.367110</ele>
        <time>2022-01-10T08:31:47.996Z</time>
      </trkpt>
      <trkpt lat="51.904275" lon="4.346229">
        <ele>1.377502</ele>
        <time>2022-01-10T08:31:53.345Z</time>
      </trkpt>
      <trkpt lat="51.904208" lon="4.346127">
        <ele>1.381545</ele>
        <time>2022-01-10T08:31:55.516Z</time>
      </trkpt>
      <trkpt lat="51.905124" lon="4.345725">
        <ele>1.550014</ele>
        <time>2022-01-10T08:32:23.874Z</time>
      </trkpt>
      <trkpt lat="51.905990" lon="4.345295">
        <ele>2.319433</ele>
        <time>2022-01-10T08:32:54.082Z</time>
      </trkpt>
      <trkpt lat="51.906788" lon="4.344925">
        <ele>3.026164</ele>
        <time>2022-01-10T08:33:21.635Z</time>
      </trkpt>
      <trkpt lat="51.907370" lon="4.344632">
        <ele>3.554417</ele>
        <time>2022-01-10T08:33:41.904Z</time>
      </trkpt>
      <trkpt lat="51.907801" lon="4.344474">
        <ele>3.937446</ele>
        <time>2022-01-10T08:33:57.261Z</time>
      </trkpt>
      <trkpt lat="51.907765" lon="4.344225">
        <ele>4.074208</ele>
        <time>2022-01-10T08:34:01.653Z</time>
      </trkpt>
      <trkpt lat="51.907753" lon="4.344145">
        <ele>4.118235</ele>
        <time>2022-01-10T08:34:02.891Z</time>
      </trkpt>
      <trkpt lat="51.907665" lon="4.343692">
        <ele>4.372207</ele>
        <time>2022-01-10T08:34:10.506Z</time>
      </trkpt>
      <trkpt lat="51.907495" lon="4.342914">
        <ele>4.365078</ele>
        <time>2022-01-10T08:34:21.925Z</time>
      </trkpt>
      <trkpt lat="51.907729" lon="4.342799">
        <ele>4.270565</ele>
        <time>2022-01-10T08:34:27.530Z</time>
      </trkpt>
      <trkpt lat="51.907748" lon="4.342424">
        <ele>4.180842</ele>
        <time>2022-01-10T08:34:32.544Z</time>
      </trkpt>
      <trkpt lat="51.907520" lon="4.342438">
        <ele>4.092651</ele>
        <time>2022-01-10T08:34:37.298Z</time>
      </trkpt>
      <trkpt lat="51.907446" lon="4.342221">
        <ele>4.033526</ele>
        <time>2022-01-10T08:34:40.823Z</time>
      </trkpt>
      <trkpt lat="51.907273" lon="4.341193">
        <ele>3.769875</ele>
        <time>2022-01-10T08:34:54.311Z</time>
      </trkpt>
      <trkpt lat="51.907259" lon="4.341120">
        <ele>3.745583</ele>
        <time>2022-01-10T08:34:55.456Z</time>
      </trkpt>
      <trkpt lat="51.907109" lon="4.339657">
        <ele>3.274322</ele>
        <time>2022-01-10T08:35:14.600Z</time>
      </trkpt>
      <trkpt lat="51.907118" lon="4.339397">
        <ele>3.191574</ele>
        <time>2022-01-10T08:35:18.001Z</time>
      </trkpt>
      <trkpt lat="51.907122" lon="4.339275">
        <ele>3.152752</ele>
        <time>2022-01-10T08:35:19.699Z</time>
      </trkpt>
      <trkpt lat="51.907211" lon="4.338956">
        <ele>3.041503</ele>
        <time>2022-01-10T08:35:24.355Z</time>
      </trkpt>
      <trkpt lat="51.907507" lon="4.338090">
        <ele>2.828669</ele>
        <time>2022-01-10T08:35:38.219Z</time>
      </trkpt>
      <trkpt lat="51.907629" lon="4.337741">
        <ele>2.784968</ele>
        <time>2022-01-10T08:35:43.771Z</time>
      </trkpt>
      <trkpt lat="51.907651" lon="4.337669">
        <ele>2.776215</ele>
        <time>2022-01-10T08:35:44.894Z</time>
      </trkpt>
      <trkpt lat="51.907741" lon="4.337321">
        <ele>2.735106</ele>
        <time>2022-01-10T08:35:50.045Z</time>
      </trkpt>
      <trkpt lat="51.907901" lon="4.336700">
        <ele>2.661790</ele>
        <time>2022-01-10T08:35:59.543Z</time>
      </trkpt>
      <trkpt lat="51.908021" lon="4.336253">
        <ele>2.608681</ele>
        <time>2022-01-10T08:36:06.450Z</time>
      </trkpt>
      <trkpt lat="51.908061" lon="4.336252">
        <ele>2.601617</ele>
        <time>2022-01-10T08:36:07.400Z</time>
      </trkpt>
      <trkpt lat="51.908100" lon="4.336112">
        <ele>2.584882</ele>
        <time>2022-01-10T08:36:09.621Z</time>
      </trkpt>
      <trkpt lat="51.908501" lon="4.333999">
        <ele>2.093190</ele>
        <time>2022-01-10T08:36:39.234Z</time>
      </trkpt>
      <trkpt lat="51.908574" lon="4.333991">
        <ele>2.065544</ele>
        <time>2022-01-10T08:36:40.876Z</time>
      </trkpt>
      <trkpt lat="51.908575" lon="4.333928">
        <ele>2.050853</ele>
        <time>2022-01-10T08:36:41.976Z</time>
      </trkpt>
      <trkpt lat="51.908583" lon="4.333800">
        <ele>2.020863</ele>
        <time>2022-01-10T08:36:44.228Z</time>
      </trkpt>
      <trkpt lat="51.908603" lon="4.333537">
        <ele>1.959092</ele>
        <time>2022-01-10T08:36:48.867Z</time>
      </trkpt>
      <trkpt lat="51.908616" lon="4.333423">
        <ele>1.932068</ele>
        <time>2022-01-10T08:36:50.882Z</time>
      </trkpt>
      <trkpt lat="51.908620" lon="4.333236">
        <ele>1.888451</ele>
        <time>2022-01-10T08:36:53.402Z</time>
      </trkpt>
      <trkpt lat="51.908502" lon="4.333219">
        <ele>1.814799</ele>
        <time>2022-01-10T08:36:55.991Z</time>
      </trkpt>
      <trkpt lat="51.908469" lon="4.333152">
        <ele>1.780671</ele>
        <time>2022-01-10T08:36:57.152Z</time>
      </trkpt>
      <trkpt lat="51.908449" lon="4.332882">
        <ele>1.672418</ele>
        <time>2022-01-10T08:37:00.765Z</time>
      </trkpt>
      <trkpt lat="51.908347" lon="4.331813">
        <ele>1.241815</ele>
        <time>2022-01-10T08:37:14.588Z</time>
      </trkpt>
      <trkpt lat="51.908256" lon="4.331452">
        <ele>1.086575</ele>
        <time>2022-01-10T08:37:19.578Z</time>
      </trkpt>
      <trkpt lat="51.908178" lon="4.331141">
        <ele>0.952933</ele>
        <time>2022-01-10T08:37:23.819Z</time>
      </trkpt>
      <trkpt lat="51.908105" lon="4.330429">
        <ele>0.687480</ele>
        <time>2022-01-10T08:37:33.280Z</time>
      </trkpt>
      <trkpt lat="51.907983" lon="4.330394">
        <ele>0.637522</ele>
        <time>2022-01-10T08:37:35.747Z</time>
      </trkpt>
      <trkpt lat="51.907760" lon="4.330369">
        <ele>0.547387</ele>
        <time>2022-01-10T08:37:40.426Z</time>
      </trkpt>
      <trkpt lat="51.906930" lon="4.329205">
        <ele>0.104831</ele>
        <time>2022-01-10T08:38:03.218Z</time>
      </trkpt>
      <trkpt lat="51.906783" lon="4.329010">
        <ele>0.028237</ele>
        <time>2022-01-10T08:38:07.126Z</time>
      </trkpt>
      <trkpt lat="51.906753" lon="4.328959">
        <ele>0.010707</ele>
        <time>2022-01-10T08:38:08.078Z</time>
      </trkpt>
      <trkpt lat="51.905709" lon="4.327414">
        <ele>0.161013</ele>
        <time>2022-01-10T08:38:40.019Z</time>
      </trkpt>
      <trkpt lat="51.905355" lon="4.326881">
        <ele>0.241838</ele>
        <time>2022-01-10T08:38:51.590Z</time>
      </trkpt>
      <trkpt lat="51.902992" lon="4.323803">
        <ele>1.450502</ele>
        <time>2022-01-10T08:40:04.983Z</time>
      </trkpt>
      <trkpt lat="51.902983" lon="4.323718">
        <ele>1.466626</ele>
        <time>2022-01-10T08:40:06.235Z</time>
      </trkpt>
      <trkpt lat="51.903428" lon="4.322330">
        <ele>1.642333</ele>
        <time>2022-01-10T08:40:27.006Z</time>
      </trkpt>
      <trkpt lat="51.903363" lon="4.322296">
        <ele>1.647722</ele>
        <time>2022-01-10T08:40:28.629Z</time>
      </trkpt>
      <trkpt lat="51.903301" lon="4.322244">
        <ele>1.653230</ele>
        <time>2022-01-10T08:40:30.274Z</time>
      </trkpt>
      <trkpt lat="51.903238" lon="4.322167">
        <ele>1.659456</ele>
        <time>2022-01-10T08:40:32.035Z</time>
      </trkpt>
      <trkpt lat="51.903223" lon="4.321917">
        <ele>1.671683</ele>
        <time>2022-01-10T08:40:35.605Z</time>
      </trkpt>
      <trkpt lat="51.903115" lon="4.321794">
        <ele>1.682098</ele>
        <time>2022-01-10T08:40:38.726Z</time>
      </trkpt>
      <trkpt lat="51.902722" lon="4.321258">
        <ele>1.722623</ele>
        <time>2022-01-10T08:40:50.365Z</time>
      </trkpt>
      <trkpt lat="51.902584" lon="4.321099">
        <ele>1.735982</ele>
        <time>2022-01-10T08:40:54.222Z</time>
      </trkpt>
      <trkpt lat="51.902296" lon="4.320747">
        <ele>1.798247</ele>
        <time>2022-01-10T08:41:02.583Z</time>
      </trkpt>
      <trkpt lat="51.902079" lon="4.320779">
        <ele>1.842734</ele>
        <time>2022-01-10T08:41:07.616Z</time>
      </trkpt>
      <trkpt lat="51.902030" lon="4.320718">
        <ele>1.855349</ele>
        <time>2022-01-10T08:41:09.003Z</time>
      </trkpt>
      <trkpt lat="51.901977" lon="4.320659">
        <ele>1.868476</ele>
        <time>2022-01-10T08:41:10.353Z</time>
      </trkpt>
      <trkpt lat="51.901922" lon="4.321106">
        <ele>1.925895</ele>
        <time>2022-01-10T08:41:16.887Z</time>
      </trkpt>
      <trkpt lat="51.902045" lon="4.322117">
        <ele>2.055704</ele>
        <time>2022-01-10T08:41:31.920Z</time>
      </trkpt>
      <trkpt lat="51.902029" lon="4.322579">
        <ele>2.113953</ele>
        <time>2022-01-10T08:41:38.532Z</time>
      </trkpt>
      <trkpt lat="51.901944" lon="4.323034">
        <ele>2.173146</ele>
        <time>2022-01-10T08:41:44.984Z</time>
      </trkpt>
      <trkpt lat="51.901797" lon="4.322720">
        <ele>2.222224</ele>
        <time>2022-01-10T08:41:52.000Z</time>
      </trkpt>
      <trkpt lat="51.901712" lon="4.322309">
        <ele>2.276197</ele>
        <time>2022-01-10T08:41:59.716Z</time>
      </trkpt>
      <trkpt lat="51.901615" lon="4.322294">
        <ele>2.295861</ele>
        <time>2022-01-10T08:42:02.487Z</time>
      </trkpt>
      <trkpt lat="51.901587" lon="4.322099">
        <ele>2.320790</ele>
        <time>2022-01-10T08:42:05.347Z</time>
      </trkpt>
      <trkpt lat="51.901190" lon="4.319533">
        <ele>2.866103</ele>
        <time>2022-01-10T08:42:44.772Z</time>
      </trkpt>
      <trkpt lat="51.901109" lon="4.318131">
        <ele>3.255506</ele>
        <time>2022-01-10T08:43:05.618Z</time>
      </trkpt>
      <trkpt lat="51.901110" lon="4.318018">
        <ele>3.283698</ele>
        <time>2022-01-10T08:43:07.274Z</time>
      </trkpt>
      <trkpt lat="51.901187" lon="4.317914">
        <ele>3.309775</ele>
        <time>2022-01-10T08:43:09.601Z</time>
      </trkpt>
      <trkpt lat="51.901075" lon="4.317576">
        <ele>3.371359</ele>
        <time>2022-01-10T08:43:15.252Z</time>
      </trkpt>
      <trkpt lat="51.900923" lon="4.315412">
        <ele>3.720969</ele>
        <time>2022-01-10T08:43:46.649Z</time>
      </trkpt>
      <trkpt lat="51.900729" lon="4.313480">
        <ele>3.575755</ele>
        <time>2022-01-10T08:44:13.353Z</time>
      </trkpt>
      <trkpt lat="51.900532" lon="4.312296">
        <ele>3.435045</ele>
        <time>2022-01-10T08:44:29.045Z</time>
      </trkpt>
      <trkpt lat="51.900491" lon="4.312176">
        <ele>3.391195</ele>
        <time>2022-01-10T08:44:30.752Z</time>
      </trkpt>
      <trkpt lat="51.900506" lon="4.311838">
        <ele>3.282864</ele>
        <time>2022-01-10T08:44:34.952Z</time>
      </trkpt>
      <trkpt lat="51.900823" lon="4.310037">
        <ele>2.684157</ele>
        <time>2022-01-10T08:44:58.485Z</time>
      </trkpt>
      <trkpt lat="51.900889" lon="4.309296">
        <ele>2.586567</ele>
        <time>2022-01-10T08:45:07.929Z</time>
      </trkpt>
      <trkpt lat="51.900639" lon="4.308313">
        <ele>2.772429</ele>
        <time>2022-01-10T08:45:22.408Z</time>
      </trkpt>
      <trkpt lat="51.900740" lon="4.306872">
        <ele>3.025950</ele>
        <time>2022-01-10T08:45:44.501Z</time>
      </trkpt>
      <trkpt lat="51.900753" lon="4.306718">
        <ele>3.071654</ele>
        <time>2022-01-10T08:45:47.037Z</time>
      </trkpt>
      <trkpt lat="51.900871" lon="4.305339">
        <ele>3.951163</ele>
        <time>2022-01-10T08:46:09.744Z</time>
      </trkpt>
      <trkpt lat="51.901327" lon="4.301507">
        <ele>6.103462</ele>
        <time>2022-01-10T08:47:13.827Z</time>
      </trkpt>
      <trkpt lat="51.901420" lon="4.299869">
        <ele>6.213206</ele>
        <time>2022-01-10T08:47:36.049Z</time>
      </trkpt>
      <trkpt lat="51.901412" lon="4.298909">
        <ele>6.097365</ele>
        <time>2022-01-10T08:47:48.303Z</time>
      </trkpt>
      <trkpt lat="51.901188" lon="4.297428">
        <ele>5.901800</ele>
        <time>2022-01-10T08:48:08.710Z</time>
      </trkpt>
      <trkpt lat="51.900723" lon="4.295545">
        <ele>5.624456</ele>
        <time>2022-01-10T08:48:37.005Z</time>
      </trkpt>
      <trkpt lat="51.900679" lon="4.295224">
        <ele>5.569082</ele>
        <time>2022-01-10T08:48:41.676Z</time>
      </trkpt>
      <trkpt lat="51.900703" lon="4.294659">
        <ele>5.455266</ele>
        <time>2022-01-10T08:48:49.698Z</time>
      </trkpt>
      <trkpt lat="51.900782" lon="4.294347">
        <ele>5.387490</ele>
        <time>2022-01-10T08:48:54.311Z</time>
      </trkpt>
      <trkpt lat="51.901473" lon="4.292511">
        <ele>5.020988</ele>
        <time>2022-01-10T08:49:22.942Z</time>
      </trkpt>
      <trkpt lat="51.901966" lon="4.291334">
        <ele>5.045359</ele>
        <time>2022-01-10T08:49:42.521Z</time>
      </trkpt>
      <trkpt lat="51.901979" lon="4.291300">
        <ele>5.046044</ele>
        <time>2022-01-10T08:49:43.106Z</time>
      </trkpt>
      <trkpt lat="51.901995" lon="4.291262">
        <ele>5.046832</ele>
        <time>2022-01-10T08:49:43.775Z</time>
      </trkpt>
      <trkpt lat="51.903269" lon="4.288175">
        <ele>5.846408</ele>
        <time>2022-01-10T08:50:41.804Z</time>
      </trkpt>
      <trkpt lat="51.904668" lon="4.284512">
        <ele>6.997061</ele>
        <time>2022-01-10T08:51:47.057Z</time>
      </trkpt>
      <trkpt lat="51.904760" lon="4.284300">
        <ele>7.095438</ele>
        <time>2022-01-10T08:51:51.225Z</time>
      </trkpt>
      <trkpt lat="51.904859" lon="4.284251">
        <ele>7.159118</ele>
        <time>2022-01-10T08:51:53.929Z</time>
      </trkpt>
      <trkpt lat="51.904960" lon="4.283988">
        <ele>7.276699</ele>
        <time>2022-01-10T08:51:58.796Z</time>
      </trkpt>
      <trkpt lat="51.905039" lon="4.283739">
        <ele>7.382971</ele>
        <time>2022-01-10T08:52:03.480Z</time>
      </trkpt>
      <trkpt lat="51.905030" lon="4.283630">
        <ele>7.424711</ele>
        <time>2022-01-10T08:52:05.206Z</time>
      </trkpt>
      <trkpt lat="51.905315" lon="4.282813">
        <ele>7.679882</ele>
        <time>2022-01-10T08:52:20.700Z</time>
      </trkpt>
      <trkpt lat="51.905446" lon="4.282063">
        <ele>7.642309</ele>
        <time>2022-01-10T08:52:32.362Z</time>
      </trkpt>
      <trkpt lat="51.905777" lon="4.281175">
        <ele>7.592299</ele>
        <time>2022-01-10T08:52:46.634Z</time>
      </trkpt>
      <trkpt lat="51.906026" lon="4.280989">
        <ele>7.570878</ele>
        <time>2022-01-10T08:52:52.037Z</time>
      </trkpt>
      <trkpt lat="51.906431" lon="4.280858">
        <ele>7.379361</ele>
        <time>2022-01-10T08:53:00.053Z</time>
      </trkpt>
      <trkpt lat="51.906551" lon="4.280714">
        <ele>7.214555</ele>
        <time>2022-01-10T08:53:02.719Z</time>
      </trkpt>
      <trkpt lat="51.906616" lon="4.280549">
        <ele>7.081239</ele>
        <time>2022-01-10T08:53:05.283Z</time>
      </trkpt>
      <trkpt lat="51.907017" lon="4.279654">
        <ele>6.327988</ele>
        <time>2022-01-10T08:53:18.627Z</time>
      </trkpt>
      <trkpt lat="51.907173" lon="4.279236">
        <ele>5.995308</ele>
        <time>2022-01-10T08:53:24.483Z</time>
      </trkpt>
      <trkpt lat="51.907349" lon="4.278510">
        <ele>5.548444</ele>
        <time>2022-01-10T08:53:34.064Z</time>
      </trkpt>
      <trkpt lat="51.907458" lon="4.278062">
        <ele>5.493573</ele>
        <time>2022-01-10T08:53:40.190Z</time>
      </trkpt>
      <trkpt lat="51.907984" lon="4.276753">
        <ele>5.315579</ele>
        <time>2022-01-10T08:54:02.409Z</time>
      </trkpt>
      <trkpt lat="51.908131" lon="4.275981">
        <ele>5.254237</ele>
        <time>2022-01-10T08:54:14.664Z</time>
      </trkpt>
      <trkpt lat="51.908124" lon="4.275349">
        <ele>5.410778</ele>
        <time>2022-01-10T08:54:24.541Z</time>
      </trkpt>
      <trkpt lat="51.908049" lon="4.274768">
        <ele>5.557780</ele>
        <time>2022-01-10T08:54:33.799Z</time>
      </trkpt>
      <trkpt lat="51.907951" lon="4.274502">
        <ele>5.634509</ele>
        <time>2022-01-10T08:54:38.720Z</time>
      </trkpt>
      <trkpt lat="51.907394" lon="4.273587">
        <ele>5.952856</ele>
        <time>2022-01-10T08:54:58.132Z</time>
      </trkpt>
      <trkpt lat="51.907276" lon="4.273117">
        <ele>5.900501</ele>
        <time>2022-01-10T08:55:05.631Z</time>
      </trkpt>
      <trkpt lat="51.907263" lon="4.272846">
        <ele>5.870619</ele>
        <time>2022-01-10T08:55:09.345Z</time>
      </trkpt>
      <trkpt lat="51.907521" lon="4.272268">
        <ele>5.792188</ele>
        <time>2022-01-10T08:55:19.375Z</time>
      </trkpt>
      <trkpt lat="51.907689" lon="4.272007">
        <ele>5.750721</ele>
        <time>2022-01-10T08:55:24.557Z</time>
      </trkpt>
      <trkpt lat="51.907841" lon="4.272054">
        <ele>5.723147</ele>
        <time>2022-01-10T08:55:27.968Z</time>
      </trkpt>
      <trkpt lat="51.909857" lon="4.268074">
        <ele>4.626240</ele>
        <time>2022-01-10T08:56:36.290Z</time>
      </trkpt>
      <trkpt lat="51.910385" lon="4.266819">
        <ele>4.500705</ele>
        <time>2022-01-10T08:56:58.895Z</time>
      </trkpt>
      <trkpt lat="51.910327" lon="4.266802">
        <ele>4.492646</ele>
        <time>2022-01-10T08:57:00.434Z</time>
      </trkpt>
      <trkpt lat="51.910088" lon="4.267219">
        <ele>4.444635</ele>
        <time>2022-01-10T08:57:08.373Z</time>
      </trkpt>
      <trkpt lat="51.909891" lon="4.267420">
        <ele>4.412808</ele>
        <time>2022-01-10T08:57:13.406Z</time>
      </trkpt>
      <trkpt lat="51.909800" lon="4.267400">
        <ele>4.400252</ele>
        <time>2022-01-10T08:57:15.554Z</time>
      </trkpt>
      <trkpt lat="51.909500" lon="4.267110">
        <ele>4.352493</ele>
        <time>2022-01-10T08:57:23.357Z</time>
      </trkpt>
      <trkpt lat="51.909450" lon="4.267208">
        <ele>4.341766</ele>
        <time>2022-01-10T08:57:25.299Z</time>
      </trkpt>
      <trkpt lat="51.909104" lon="4.267885">
        <ele>4.267611</ele>
        <time>2022-01-10T08:57:37.295Z</time>
      </trkpt>
      <trkpt lat="51.908972" lon="4.267600">
        <ele>4.238151</ele>
        <time>2022-01-10T08:57:45.314Z</time>
      </trkpt>
      <trkpt lat="51.908542" lon="4.267231">
        <ele>4.173620</ele>
        <time>2022-01-10T08:58:03.052Z</time>
      </trkpt>
      <trkpt lat="51.908644" lon="4.266982">
        <ele>4.149164</ele>
        <time>2022-01-10T08:58:09.796Z</time>
      </trkpt>
      <trkpt lat="51.908614" lon="4.266944">
        <ele>4.144114</ele>
        <time>2022-01-10T08:58:11.088Z</time>
      </trkpt>
      <trkpt lat="51.908533" lon="4.267140">
        <ele>4.124811</ele>
        <time>2022-01-10T08:58:16.087Z</time>
      </trkpt>
      <trkpt lat="51.908507" lon="4.267111">
        <ele>4.120625</ele>
        <time>2022-01-10T08:58:17.199Z</time>
      </trkpt>
      <trkpt lat="51.908617" lon="4.266831">
        <ele>4.093464</ele>
        <time>2022-01-10T08:58:24.631Z</time>
      </trkpt>
      <trkpt lat="51.908565" lon="4.266776">
        <ele>4.085229</ele>
        <time>2022-01-10T08:58:26.909Z</time>
      </trkpt>
      <trkpt lat="51.908911" lon="4.265917">
        <ele>4.025057</ele>
        <time>2022-01-10T08:58:41.356Z</time>
      </trkpt>
      <trkpt lat="51.909318" lon="4.264907">
        <ele>4.058618</ele>
        <time>2022-01-10T08:58:58.785Z</time>
      </trkpt>
      <trkpt lat="51.910327" lon="4.262407">
        <ele>3.758818</ele>
        <time>2022-01-10T08:59:38.991Z</time>
      </trkpt>
      <trkpt lat="51.910932" lon="4.260908">
        <ele>3.278616</ele>
        <time>2022-01-10T09:00:01.266Z</time>
      </trkpt>
      <trkpt lat="51.911943" lon="4.258464">
        <ele>2.155436</ele>
        <time>2022-01-10T09:00:37.587Z</time>
      </trkpt>
      <trkpt lat="51.912043" lon="4.258440">
        <ele>2.133564</ele>
        <time>2022-01-10T09:00:39.616Z</time>
      </trkpt>
      <trkpt lat="51.912135" lon="4.258532">
        <ele>2.110176</ele>
        <time>2022-01-10T09:00:41.850Z</time>
      </trkpt>
      <trkpt lat="51.912218" lon="4.258363">
        <ele>2.081344</ele>
        <time>2022-01-10T09:00:44.546Z</time>
      </trkpt>
      <trkpt lat="51.912684" lon="4.257417">
        <ele>1.919769</ele>
        <time>2022-01-10T09:01:00.762Z</time>
      </trkpt>
      <trkpt lat="51.912846" lon="4.257014">
        <ele>1.855570</ele>
        <time>2022-01-10T09:01:09.536Z</time>
      </trkpt>
      <trkpt lat="51.912962" lon="4.256136">
        <ele>1.861955</ele>
        <time>2022-01-10T09:01:26.199Z</time>
      </trkpt>
      <trkpt lat="51.913036" lon="4.255578">
        <ele>1.900756</ele>
        <time>2022-01-10T09:01:34.137Z</time>
      </trkpt>
      <trkpt lat="51.914260" lon="4.251666">
        <ele>2.271407</ele>
        <time>2022-01-10T09:02:35.313Z</time>
      </trkpt>
      <trkpt lat="51.914537" lon="4.250745">
        <ele>2.495676</ele>
        <time>2022-01-10T09:02:50.463Z</time>
      </trkpt>
      <trkpt lat="51.914902" lon="4.249875">
        <ele>2.767516</ele>
        <time>2022-01-10T09:03:06.410Z</time>
      </trkpt>
      <trkpt lat="51.914931" lon="4.249804">
        <ele>2.789517</ele>
        <time>2022-01-10T09:03:07.655Z</time>
      </trkpt>
      <trkpt lat="51.915624" lon="4.250578">
        <ele>3.042840</ele>
        <time>2022-01-10T09:03:27.809Z</time>
      </trkpt>
      <trkpt lat="51.915756" lon="4.250726">
        <ele>3.038877</ele>
        <time>2022-01-10T09:03:31.583Z</time>
      </trkpt>
      <trkpt lat="51.916238" lon="4.251155">
        <ele>3.025302</ele>
        <time>2022-01-10T09:03:44.222Z</time>
      </trkpt>
      <trkpt lat="51.916648" lon="4.251198">
        <ele>3.015159</ele>
        <time>2022-01-10T09:03:52.827Z</time>
      </trkpt>
      <trkpt lat="51.917066" lon="4.250921">
        <ele>3.004010</ele>
        <time>2022-01-10T09:04:02.105Z</time>
      </trkpt>
      <trkpt lat="51.917561" lon="4.249826">
        <ele>2.834596</ele>
        <time>2022-01-10T09:04:19.696Z</time>
      </trkpt>
      <trkpt lat="51.917564" lon="4.249822">
        <ele>2.833809</ele>
        <time>2022-01-10T09:04:19.749Z</time>
      </trkpt>
      <trkpt lat="51.917724" lon="4.249587">
        <ele>2.790024</ele>
        <time>2022-01-10T09:04:24.417Z</time>
      </trkpt>
      <trkpt lat="51.917700" lon="4.249498">
        <ele>2.777873</ele>
        <time>2022-01-10T09:04:25.838Z</time>
      </trkpt>
      <trkpt lat="51.917693" lon="4.249413">
        <ele>2.767146</ele>
        <time>2022-01-10T09:04:27.116Z</time>
      </trkpt>
      <trkpt lat="51.917617" lon="4.249115">
        <ele>2.726808</ele>
        <time>2022-01-10T09:04:31.380Z</time>
      </trkpt>
      <trkpt lat="51.917581" lon="4.248947">
        <ele>2.704561</ele>
        <time>2022-01-10T09:04:33.853Z</time>
      </trkpt>
      <trkpt lat="51.917527" lon="4.248611">
        <ele>2.661127</ele>
        <time>2022-01-10T09:04:40.225Z</time>
      </trkpt>
      <trkpt lat="51.917714" lon="4.248152">
        <ele>2.669402</ele>
        <time>2022-01-10T09:04:47.929Z</time>
      </trkpt>
      <trkpt lat="51.917884" lon="4.248079">
        <ele>2.692411</ele>
        <time>2022-01-10T09:04:53.215Z</time>
      </trkpt>
      <trkpt lat="51.917997" lon="4.247990">
        <ele>2.708848</ele>
        <time>2022-01-10T09:04:56.886Z</time>
      </trkpt>
      <trkpt lat="51.918046" lon="4.247879">
        <ele>2.719863</ele>
        <time>2022-01-10T09:04:59.475Z</time>
      </trkpt>
      <trkpt lat="51.918591" lon="4.246576">
        <ele>2.846909</ele>
        <time>2022-01-10T09:05:29.134Z</time>
      </trkpt>
      <trkpt lat="51.918417" lon="4.246385">
        <ele>2.874401</ele>
        <time>2022-01-10T09:05:33.896Z</time>
      </trkpt>
      <trkpt lat="51.918362" lon="4.246294">
        <ele>2.829183</ele>
        <time>2022-01-10T09:05:36.114Z</time>
      </trkpt>
      <trkpt lat="51.918075" lon="4.245610">
        <ele>2.532090</ele>
        <time>2022-01-10T09:05:50.278Z</time>
      </trkpt>
      <trkpt lat="51.917491" lon="4.244582">
        <ele>2.030174</ele>
        <time>2022-01-10T09:06:13.276Z</time>
      </trkpt>
      <trkpt lat="51.917213" lon="4.244093">
        <ele>1.783408</ele>
        <time>2022-01-10T09:06:24.186Z</time>
      </trkpt>
      <trkpt lat="51.916864" lon="4.243550">
        <ele>1.439533</ele>
        <time>2022-01-10T09:06:33.655Z</time>
      </trkpt>
      <trkpt lat="51.917104" lon="4.243032">
        <ele>1.155449</ele>
        <time>2022-01-10T09:06:41.514Z</time>
      </trkpt>
      <trkpt lat="51.917830" lon="4.241469">
        <ele>0.489948</ele>
        <time>2022-01-10T09:07:05.988Z</time>
      </trkpt>
      <trkpt lat="51.919063" lon="4.239403">
        <ele>0.317277</ele>
        <time>2022-01-10T09:07:45.093Z</time>
      </trkpt>
      <trkpt lat="51.919564" lon="4.238639">
        <ele>0.458349</ele>
        <time>2022-01-10T09:08:00.956Z</time>
      </trkpt>
      <trkpt lat="51.919955" lon="4.238126">
        <ele>0.561517</ele>
        <time>2022-01-10T09:08:12.783Z</time>
      </trkpt>
      <trkpt lat="51.920455" lon="4.237513">
        <ele>0.729515</ele>
        <time>2022-01-10T09:08:27.603Z</time>
      </trkpt>
      <trkpt lat="51.921068" lon="4.236760">
        <ele>0.974724</ele>
        <time>2022-01-10T09:08:45.939Z</time>
      </trkpt>
      <trkpt lat="51.922202" lon="4.235500">
        <ele>1.198639</ele>
        <time>2022-01-10T09:09:17.339Z</time>
      </trkpt>
      <trkpt lat="51.925422" lon="4.232088">
        <ele>1.263427</ele>
        <time>2022-01-10T09:10:42.532Z</time>
      </trkpt>
      <trkpt lat="51.928324" lon="4.228994">
        <ele>1.410281</ele>
        <time>2022-01-10T09:12:01.514Z</time>
      </trkpt>
      <trkpt lat="51.929085" lon="4.228070">
        <ele>1.299850</ele>
        <time>2022-01-10T09:12:21.693Z</time>
      </trkpt>
      <trkpt lat="51.929512" lon="4.227479">
        <ele>1.274594</ele>
        <time>2022-01-10T09:12:33.412Z</time>
      </trkpt>
      <trkpt lat="51.930711" lon="4.225685">
        <ele>1.389991</ele>
        <time>2022-01-10T09:13:10.142Z</time>
      </trkpt>
      <trkpt lat="51.932051" lon="4.223450">
        <ele>2.029715</ele>
        <time>2022-01-10T09:13:57.344Z</time>
      </trkpt>
      <trkpt lat="51.933827" lon="4.220033">
        <ele>1.565890</ele>
        <time>2022-01-10T09:14:55.476Z</time>
      </trkpt>
      <trkpt lat="51.935113" lon="4.217225">
        <ele>1.200427</ele>
        <time>2022-01-10T09:15:42.259Z</time>
      </trkpt>
      <trkpt lat="51.935911" lon="4.215256">
        <ele>1.029114</ele>
        <time>2022-01-10T09:16:14.108Z</time>
      </trkpt>
      <trkpt lat="51.936084" lon="4.214771">
        <ele>0.988425</ele>
        <time>2022-01-10T09:16:21.639Z</time>
      </trkpt>
      <trkpt lat="51.937540" lon="4.210726">
        <ele>0.768690</ele>
        <time>2022-01-10T09:17:24.754Z</time>
      </trkpt>
      <trkpt lat="51.937671" lon="4.210580">
        <ele>0.762174</ele>
        <time>2022-01-10T09:17:28.252Z</time>
      </trkpt>
      <trkpt lat="51.939163" lon="4.206322">
        <ele>1.154350</ele>
        <time>2022-01-10T09:18:36.345Z</time>
      </trkpt>
      <trkpt lat="51.940100" lon="4.203500">
        <ele>1.980221</ele>
        <time>2022-01-10T09:19:25.241Z</time>
      </trkpt>
      <trkpt lat="51.941012" lon="4.201023">
        <ele>2.263712</ele>
        <time>2022-01-10T09:20:06.037Z</time>
      </trkpt>
      <trkpt lat="51.942516" lon="4.196696">
        <ele>1.436367</ele>
        <time>2022-01-10T09:21:10.319Z</time>
      </trkpt>
      <trkpt lat="51.943531" lon="4.193943">
        <ele>0.958648</ele>
        <time>2022-01-10T09:21:52.453Z</time>
      </trkpt>
      <trkpt lat="51.945765" lon="4.188502">
        <ele>0.606060</ele>
        <time>2022-01-10T09:23:20.104Z</time>
      </trkpt>
      <trkpt lat="51.947529" lon="4.184579">
        <ele>1.229054</ele>
        <time>2022-01-10T09:24:30.486Z</time>
      </trkpt>
      <trkpt lat="51.953178" lon="4.173145">
        <ele>0.401724</ele>
        <time>2022-01-10T09:27:47.697Z</time>
      </trkpt>
      <trkpt lat="51.953236" lon="4.173151">
        <ele>0.393938</ele>
        <time>2022-01-10T09:27:48.966Z</time>
      </trkpt>
      <trkpt lat="51.953598" lon="4.173617">
        <ele>0.332031</ele>
        <time>2022-01-10T09:27:59.132Z</time>
      </trkpt>
      <trkpt lat="51.953575" lon="4.173839">
        <ele>0.313444</ele>
        <time>2022-01-10T09:28:02.151Z</time>
      </trkpt>
      <trkpt lat="51.953361" lon="4.174267">
        <ele>0.267938</ele>
        <time>2022-01-10T09:28:09.409Z</time>
      </trkpt>
      <trkpt lat="51.953380" lon="4.174420">
        <ele>0.255051</ele>
        <time>2022-01-10T09:28:11.436Z</time>
      </trkpt>
      <trkpt lat="51.953556" lon="4.174437">
        <ele>0.231430</ele>
        <time>2022-01-10T09:28:15.220Z</time>
      </trkpt>
      <trkpt lat="51.953824" lon="4.174354">
        <ele>0.227902</ele>
        <time>2022-01-10T09:28:21.084Z</time>
      </trkpt>
      <trkpt lat="51.954006" lon="4.174154">
        <ele>0.282739</ele>
        <time>2022-01-10T09:28:25.846Z</time>
      </trkpt>
      <trkpt lat="51.954095" lon="4.173943">
        <ele>0.322051</ele>
        <time>2022-01-10T09:28:29.409Z</time>
      </trkpt>
      <trkpt lat="51.954246" lon="4.173626">
        <ele>0.383650</ele>
        <time>2022-01-10T09:28:34.865Z</time>
      </trkpt>
      <trkpt lat="51.954442" lon="4.173256">
        <ele>0.458663</ele>
        <time>2022-01-10T09:28:41.785Z</time>
      </trkpt>
      <trkpt lat="51.954707" lon="4.172689">
        <ele>0.568070</ele>
        <time>2022-01-10T09:28:52.172Z</time>
      </trkpt>
      <trkpt lat="51.954690" lon="4.172451">
        <ele>0.604907</ele>
        <time>2022-01-10T09:28:55.792Z</time>
      </trkpt>
      <trkpt lat="51.957589" lon="4.167418">
        <ele>3.390145</ele>
        <time>2022-01-10T09:30:45.719Z</time>
      </trkpt>
      <trkpt lat="51.957722" lon="4.167184">
        <ele>3.200562</ele>
        <time>2022-01-10T09:30:50.059Z</time>
      </trkpt>
      <trkpt lat="51.957956" lon="4.166738">
        <ele>2.851719</ele>
        <time>2022-01-10T09:30:57.091Z</time>
      </trkpt>
      <trkpt lat="51.958393" lon="4.165369">
        <ele>1.803950</ele>
        <time>2022-01-10T09:31:13.386Z</time>
      </trkpt>
      <trkpt lat="51.958422" lon="4.165144">
        <ele>1.549021</ele>
        <time>2022-01-10T09:31:15.806Z</time>
      </trkpt>
      <trkpt lat="51.958446" lon="4.163693">
        <ele>-0.060743</ele>
        <time>2022-01-10T09:31:31.033Z</time>
      </trkpt>
      <trkpt lat="51.958450" lon="4.163251">
        <ele>-0.550982</ele>
        <time>2022-01-10T09:31:35.840Z</time>
      </trkpt>
      <trkpt lat="51.958502" lon="4.163045">
        <ele>-0.797864</ele>
        <time>2022-01-10T09:31:38.222Z</time>
      </trkpt>
      <trkpt lat="51.961291" lon="4.157752">
        <ele>0.355637</ele>
        <time>2022-01-10T09:33:22.183Z</time>
      </trkpt>
      <trkpt lat="51.965595" lon="4.149546">
        <ele>1.911851</ele>
        <time>2022-01-10T09:35:55.184Z</time>
      </trkpt>
      <trkpt lat="51.965672" lon="4.149489">
        <ele>1.938419</ele>
        <time>2022-01-10T09:35:57.306Z</time>
      </trkpt>
      <trkpt lat="51.965790" lon="4.149527">
        <ele>1.990148</ele>
        <time>2022-01-10T09:36:00.359Z</time>
      </trkpt>
      <trkpt lat="51.966172" lon="4.150027">
        <ele>2.201167</ele>
        <time>2022-01-10T09:36:12.342Z</time>
      </trkpt>
      <trkpt lat="51.966434" lon="4.150238">
        <ele>2.326933</ele>
        <time>2022-01-10T09:36:19.592Z</time>
      </trkpt>
      <trkpt lat="51.966506" lon="4.150314">
        <ele>2.363865</ele>
        <time>2022-01-10T09:36:21.598Z</time>
      </trkpt>
      <trkpt lat="51.966549" lon="4.150359">
        <ele>2.385865</ele>
        <time>2022-01-10T09:36:22.842Z</time>
      </trkpt>
      <trkpt lat="51.966602" lon="4.150303">
        <ele>2.413059</ele>
        <time>2022-01-10T09:36:24.415Z</time>
      </trkpt>
      <trkpt lat="51.967497" lon="4.148016">
        <ele>2.782051</ele>
        <time>2022-01-10T09:37:03.587Z</time>
      </trkpt>
      <trkpt lat="51.967655" lon="4.148104">
        <ele>2.795691</ele>
        <time>2022-01-10T09:37:07.213Z</time>
      </trkpt>
      <trkpt lat="51.967743" lon="4.148356">
        <ele>2.810263</ele>
        <time>2022-01-10T09:37:10.890Z</time>
      </trkpt>
      <trkpt lat="51.967814" lon="4.148324">
        <ele>2.816280</ele>
        <time>2022-01-10T09:37:12.750Z</time>
      </trkpt>
      <trkpt lat="51.967871" lon="4.148246">
        <ele>2.822368</ele>
        <time>2022-01-10T09:37:14.256Z</time>
      </trkpt>
      <trkpt lat="51.967910" lon="4.148156">
        <ele>2.827904</ele>
        <time>2022-01-10T09:37:15.647Z</time>
      </trkpt>
      <trkpt lat="51.967924" lon="4.148122">
        <ele>2.829961</ele>
        <time>2022-01-10T09:37:16.160Z</time>
      </trkpt>
      <trkpt lat="51.968009" lon="4.148009">
        <ele>2.838933</ele>
        <time>2022-01-10T09:37:18.442Z</time>
      </trkpt>
      <trkpt lat="51.968131" lon="4.147984">
        <ele>2.842729</ele>
        <time>2022-01-10T09:37:21.268Z</time>
      </trkpt>
      <trkpt lat="51.968203" lon="4.148011">
        <ele>2.827997</ele>
        <time>2022-01-10T09:37:22.795Z</time>
      </trkpt>
      <trkpt lat="51.968410" lon="4.148177">
        <ele>2.781965</ele>
        <time>2022-01-10T09:37:27.831Z</time>
      </trkpt>
      <trkpt lat="51.968797" lon="4.148057">
        <ele>2.703414</ele>
        <time>2022-01-10T09:37:36.345Z</time>
      </trkpt>
      <trkpt lat="51.968666" lon="4.146647">
        <ele>2.528267</ele>
        <time>2022-01-10T09:37:55.038Z</time>
      </trkpt>
      <trkpt lat="51.968662" lon="4.146435">
        <ele>2.502215</ele>
        <time>2022-01-10T09:37:57.838Z</time>
      </trkpt>
      <trkpt lat="51.968734" lon="4.146074">
        <ele>2.485241</ele>
        <time>2022-01-10T09:38:02.887Z</time>
      </trkpt>
      <trkpt lat="51.970423" lon="4.141814">
        <ele>2.533185</ele>
        <time>2022-01-10T09:39:12.444Z</time>
      </trkpt>
      <trkpt lat="51.970955" lon="4.141089">
        <ele>2.628210</ele>
        <time>2022-01-10T09:39:28.328Z</time>
      </trkpt>
      <trkpt lat="51.971122" lon="4.140775">
        <ele>2.680254</ele>
        <time>2022-01-10T09:39:34.244Z</time>
      </trkpt>
      <trkpt lat="51.972413" lon="4.137885">
        <ele>3.063269</ele>
        <time>2022-01-10T09:40:25.323Z</time>
      </trkpt>
      <trkpt lat="51.972772" lon="4.137274">
        <ele>3.136756</ele>
        <time>2022-01-10T09:40:36.900Z</time>
      </trkpt>
      <trkpt lat="51.973532" lon="4.135597">
        <ele>3.167681</ele>
        <time>2022-01-10T09:41:05.239Z</time>
      </trkpt>
      <trkpt lat="51.973922" lon="4.134165">
        <ele>3.167684</ele>
        <time>2022-01-10T09:41:26.841Z</time>
      </trkpt>
      <trkpt lat="51.974032" lon="4.133298">
        <ele>3.172960</ele>
        <time>2022-01-10T09:41:39.186Z</time>
      </trkpt>
      <trkpt lat="51.974145" lon="4.132813">
        <ele>3.176050</ele>
        <time>2022-01-10T09:41:46.312Z</time>
      </trkpt>
      <trkpt lat="51.974146" lon="4.132810">
        <ele>3.176070</ele>
        <time>2022-01-10T09:41:46.357Z</time>
      </trkpt>
      <trkpt lat="51.974375" lon="4.132243">
        <ele>3.180111</ele>
        <time>2022-01-10T09:41:55.418Z</time>
      </trkpt>
      <trkpt lat="51.974790" lon="4.131664">
        <ele>3.254426</ele>
        <time>2022-01-10T09:42:07.442Z</time>
      </trkpt>
      <trkpt lat="51.975382" lon="4.130285">
        <ele>3.558868</ele>
        <time>2022-01-10T09:42:31.627Z</time>
      </trkpt>
      <trkpt lat="51.976189" lon="4.128457">
        <ele>4.149632</ele>
        <time>2022-01-10T09:43:05.378Z</time>
      </trkpt>
      <trkpt lat="51.976143" lon="4.128381">
        <ele>4.182850</ele>
        <time>2022-01-10T09:43:07.029Z</time>
      </trkpt>
      <trkpt lat="51.976098" lon="4.128299">
        <ele>4.217089</ele>
        <time>2022-01-10T09:43:08.849Z</time>
      </trkpt>
      <trkpt lat="51.975930" lon="4.127923">
        <ele>4.361904</ele>
        <time>2022-01-10T09:43:16.398Z</time>
      </trkpt>
      <trkpt lat="51.975954" lon="4.127790">
        <ele>4.405111</ele>
        <time>2022-01-10T09:43:18.608Z</time>
      </trkpt>
      <trkpt lat="51.976285" lon="4.127365">
        <ele>4.618703</ele>
        <time>2022-01-10T09:43:29.162Z</time>
      </trkpt>
      <trkpt lat="51.976701" lon="4.127077">
        <ele>4.622248</ele>
        <time>2022-01-10T09:43:39.558Z</time>
      </trkpt>
      <trkpt lat="51.976905" lon="4.126936">
        <ele>4.622248</ele>
        <time>2022-01-10T09:43:44.406Z</time>
      </trkpt>
      <trkpt lat="51.977009" lon="4.126895">
        <ele>4.622248</ele>
        <time>2022-01-10T09:43:46.758Z</time>
      </trkpt>
      <trkpt lat="51.977153" lon="4.126799">
        <ele>4.622248</ele>
        <time>2022-01-10T09:43:50.199Z</time>
      </trkpt>
      <trkpt lat="51.977131" lon="4.126678">
        <ele>4.622248</ele>
        <time>2022-01-10T09:43:51.834Z</time>
      </trkpt>
      <trkpt lat="51.977225" lon="4.126498">
        <ele>4.622248</ele>
        <time>2022-01-10T09:43:55.938Z</time>
      </trkpt>
      <trkpt lat="51.977255" lon="4.126407">
        <ele>4.622248</ele>
        <time>2022-01-10T09:43:57.767Z</time>
      </trkpt>
      <trkpt lat="51.977430" lon="4.125879">
        <ele>4.622248</ele>
        <time>2022-01-10T09:44:08.104Z</time>
      </trkpt>
      <trkpt lat="51.977536" lon="4.125559">
        <ele>4.622248</ele>
        <time>2022-01-10T09:44:14.248Z</time>
      </trkpt>
    </trkseg>
  </trk>
</gpx>